<?xml version="1.0" encoding="UTF-8" standalone="no" ?>
<gpx xmlns="http://www.topografix.com/GPX/1/1" xmlns:xsi="http://www.w3.org/2001/XMLSchema-instance" xsi:schemaLocation="http://www.topografix.com/GPX/1/1 http://www.topografix.com/GPX/1/1/gpx.xsd" version="1.1" creator="VisuGPX - https://www.visugpx.com">
  <metadata>
    <name>GR738-J5</name>
  </metadata>
  <trk>
    <name><![CDATA[GR738-J5]]></name>
    <extensions>
      <line xmlns="http://www.topografix.com/GPX/gpx_style/0/2">
        <color>0000FF</color>
        <width>4</width>
      </line>
    </extensions>
    <trkseg>
      <trkpt lat="45.20386" lon="6.01037">
        <ele>2156.3999023438</ele>
        <time>2023-08-12T04:46:56.000Z</time>
      </trkpt>
      <trkpt lat="45.20386" lon="6.01031">
        <ele>2156.3999023438</ele>
        <time>2023-08-12T04:47:09.000Z</time>
      </trkpt>
      <trkpt lat="45.2039" lon="6.01032">
        <ele>2156.3999023438</ele>
        <time>2023-08-12T04:47:22.000Z</time>
      </trkpt>
      <trkpt lat="45.20388" lon="6.0103">
        <ele>2156.3999023438</ele>
        <time>2023-08-12T04:47:29.000Z</time>
      </trkpt>
      <trkpt lat="45.20386" lon="6.01026">
        <ele>2156.3999023438</ele>
        <time>2023-08-12T04:47:34.000Z</time>
      </trkpt>
      <trkpt lat="45.20386" lon="6.01025">
        <ele>2156.6000976562</ele>
        <time>2023-08-12T04:47:42.000Z</time>
      </trkpt>
      <trkpt lat="45.20389" lon="6.01024">
        <ele>2156.6000976562</ele>
        <time>2023-08-12T04:47:51.000Z</time>
      </trkpt>
      <trkpt lat="45.2039" lon="6.01028">
        <ele>2156.6000976562</ele>
        <time>2023-08-12T04:48:02.000Z</time>
      </trkpt>
      <trkpt lat="45.2039" lon="6.01026">
        <ele>2156.6000976562</ele>
        <time>2023-08-12T04:48:09.000Z</time>
      </trkpt>
      <trkpt lat="45.20391" lon="6.01016">
        <ele>2157</ele>
        <time>2023-08-12T04:48:19.000Z</time>
      </trkpt>
      <trkpt lat="45.20392" lon="6.01014">
        <ele>2157.3999023438</ele>
        <time>2023-08-12T04:48:22.000Z</time>
      </trkpt>
      <trkpt lat="45.20393" lon="6.01007">
        <ele>2158.3999023438</ele>
        <time>2023-08-12T04:48:29.000Z</time>
      </trkpt>
      <trkpt lat="45.20394" lon="6.01005">
        <ele>2158.3999023438</ele>
        <time>2023-08-12T04:48:31.000Z</time>
      </trkpt>
      <trkpt lat="45.20394" lon="6.01002">
        <ele>2158.8000488281</ele>
        <time>2023-08-12T04:48:37.000Z</time>
      </trkpt>
      <trkpt lat="45.2039" lon="6.00999">
        <ele>2159.3999023438</ele>
        <time>2023-08-12T04:48:43.000Z</time>
      </trkpt>
      <trkpt lat="45.20388" lon="6.00997">
        <ele>2159.6000976562</ele>
        <time>2023-08-12T04:48:46.000Z</time>
      </trkpt>
      <trkpt lat="45.20386" lon="6.00993">
        <ele>2159.8000488281</ele>
        <time>2023-08-12T04:48:50.000Z</time>
      </trkpt>
      <trkpt lat="45.20386" lon="6.00989">
        <ele>2160.3999023438</ele>
        <time>2023-08-12T04:48:57.000Z</time>
      </trkpt>
      <trkpt lat="45.20387" lon="6.00983">
        <ele>2160.6000976562</ele>
        <time>2023-08-12T04:49:03.000Z</time>
      </trkpt>
      <trkpt lat="45.20388" lon="6.00983">
        <ele>2160.6000976562</ele>
        <time>2023-08-12T04:49:05.000Z</time>
      </trkpt>
      <trkpt lat="45.20387" lon="6.00986">
        <ele>2160.6000976562</ele>
        <time>2023-08-12T04:49:13.000Z</time>
      </trkpt>
      <trkpt lat="45.20381" lon="6.00985">
        <ele>2160.8000488281</ele>
        <time>2023-08-12T04:49:31.000Z</time>
      </trkpt>
      <trkpt lat="45.20384" lon="6.00985">
        <ele>2160.8000488281</ele>
        <time>2023-08-12T04:49:39.000Z</time>
      </trkpt>
      <trkpt lat="45.20384" lon="6.00984">
        <ele>2161.1999511719</ele>
        <time>2023-08-12T04:49:46.000Z</time>
      </trkpt>
      <trkpt lat="45.20384" lon="6.00982">
        <ele>2161.8000488281</ele>
        <time>2023-08-12T04:49:52.000Z</time>
      </trkpt>
      <trkpt lat="45.20385" lon="6.00981">
        <ele>2162</ele>
        <time>2023-08-12T04:49:55.000Z</time>
      </trkpt>
      <trkpt lat="45.20386" lon="6.00972">
        <ele>2162.1999511719</ele>
        <time>2023-08-12T04:50:02.000Z</time>
      </trkpt>
      <trkpt lat="45.20384" lon="6.00968">
        <ele>2162.8000488281</ele>
        <time>2023-08-12T04:50:08.000Z</time>
      </trkpt>
      <trkpt lat="45.20383" lon="6.00968">
        <ele>2163</ele>
        <time>2023-08-12T04:50:10.000Z</time>
      </trkpt>
      <trkpt lat="45.20382" lon="6.00973">
        <ele>2163.1999511719</ele>
        <time>2023-08-12T04:50:17.000Z</time>
      </trkpt>
      <trkpt lat="45.20383" lon="6.00972">
        <ele>2163.3999023438</ele>
        <time>2023-08-12T04:50:25.000Z</time>
      </trkpt>
      <trkpt lat="45.20384" lon="6.00968">
        <ele>2163.6000976562</ele>
        <time>2023-08-12T04:50:32.000Z</time>
      </trkpt>
      <trkpt lat="45.20384" lon="6.00968">
        <ele>2163.8000488281</ele>
        <time>2023-08-12T04:50:33.000Z</time>
      </trkpt>
      <trkpt lat="45.20382" lon="6.00967">
        <ele>2164.6000976562</ele>
        <time>2023-08-12T04:50:39.000Z</time>
      </trkpt>
      <trkpt lat="45.20382" lon="6.00966">
        <ele>2165</ele>
        <time>2023-08-12T04:50:42.000Z</time>
      </trkpt>
      <trkpt lat="45.20383" lon="6.00965">
        <ele>2165.1999511719</ele>
        <time>2023-08-12T04:50:48.000Z</time>
      </trkpt>
      <trkpt lat="45.20381" lon="6.00966">
        <ele>2165.3999023438</ele>
        <time>2023-08-12T04:50:57.000Z</time>
      </trkpt>
      <trkpt lat="45.20381" lon="6.00969">
        <ele>2166</ele>
        <time>2023-08-12T04:51:02.000Z</time>
      </trkpt>
      <trkpt lat="45.2038" lon="6.00969">
        <ele>2166</ele>
        <time>2023-08-12T04:51:05.000Z</time>
      </trkpt>
      <trkpt lat="45.20382" lon="6.00963">
        <ele>2166.3999023438</ele>
        <time>2023-08-12T04:51:15.000Z</time>
      </trkpt>
      <trkpt lat="45.20381" lon="6.00962">
        <ele>2167</ele>
        <time>2023-08-12T04:51:23.000Z</time>
      </trkpt>
      <trkpt lat="45.20379" lon="6.00961">
        <ele>2167.1999511719</ele>
        <time>2023-08-12T04:51:29.000Z</time>
      </trkpt>
      <trkpt lat="45.20378" lon="6.0096">
        <ele>2167.6000976562</ele>
        <time>2023-08-12T04:51:32.000Z</time>
      </trkpt>
      <trkpt lat="45.20378" lon="6.0096">
        <ele>2168</ele>
        <time>2023-08-12T04:51:40.000Z</time>
      </trkpt>
      <trkpt lat="45.20378" lon="6.00959">
        <ele>2168.1999511719</ele>
        <time>2023-08-12T04:51:42.000Z</time>
      </trkpt>
      <trkpt lat="45.20376" lon="6.00959">
        <ele>2168.6000976562</ele>
        <time>2023-08-12T04:51:47.000Z</time>
      </trkpt>
      <trkpt lat="45.20376" lon="6.00958">
        <ele>2169</ele>
        <time>2023-08-12T04:51:55.000Z</time>
      </trkpt>
      <trkpt lat="45.20375" lon="6.00958">
        <ele>2169.1999511719</ele>
        <time>2023-08-12T04:51:57.000Z</time>
      </trkpt>
      <trkpt lat="45.20375" lon="6.00956">
        <ele>2169.3999023438</ele>
        <time>2023-08-12T04:52:03.000Z</time>
      </trkpt>
      <trkpt lat="45.20377" lon="6.00956">
        <ele>2170.1999511719</ele>
        <time>2023-08-12T04:52:10.000Z</time>
      </trkpt>
      <trkpt lat="45.20376" lon="6.00955">
        <ele>2170</ele>
        <time>2023-08-12T04:52:17.000Z</time>
      </trkpt>
      <trkpt lat="45.20376" lon="6.00953">
        <ele>2170.3999023438</ele>
        <time>2023-08-12T04:52:20.000Z</time>
      </trkpt>
      <trkpt lat="45.20376" lon="6.00952">
        <ele>2170.6000976562</ele>
        <time>2023-08-12T04:52:22.000Z</time>
      </trkpt>
      <trkpt lat="45.20377" lon="6.0095">
        <ele>2171.1999511719</ele>
        <time>2023-08-12T04:52:29.000Z</time>
      </trkpt>
      <trkpt lat="45.20375" lon="6.00951">
        <ele>2171.1999511719</ele>
        <time>2023-08-12T04:52:37.000Z</time>
      </trkpt>
      <trkpt lat="45.20374" lon="6.0095">
        <ele>2171.3999023438</ele>
        <time>2023-08-12T04:52:39.000Z</time>
      </trkpt>
      <trkpt lat="45.20372" lon="6.00949">
        <ele>2172</ele>
        <time>2023-08-12T04:52:46.000Z</time>
      </trkpt>
      <trkpt lat="45.2037" lon="6.00949">
        <ele>2172</ele>
        <time>2023-08-12T04:52:54.000Z</time>
      </trkpt>
      <trkpt lat="45.20369" lon="6.00948">
        <ele>2172.1999511719</ele>
        <time>2023-08-12T04:53:01.000Z</time>
      </trkpt>
      <trkpt lat="45.20368" lon="6.00947">
        <ele>2172.3999023438</ele>
        <time>2023-08-12T04:53:07.000Z</time>
      </trkpt>
      <trkpt lat="45.20368" lon="6.00947">
        <ele>2172.6000976562</ele>
        <time>2023-08-12T04:53:08.000Z</time>
      </trkpt>
      <trkpt lat="45.20365" lon="6.00947">
        <ele>2172.6000976562</ele>
        <time>2023-08-12T04:53:15.000Z</time>
      </trkpt>
      <trkpt lat="45.20365" lon="6.00943">
        <ele>2172.8000488281</ele>
        <time>2023-08-12T04:53:24.000Z</time>
      </trkpt>
      <trkpt lat="45.20366" lon="6.00942">
        <ele>2173.1999511719</ele>
        <time>2023-08-12T04:53:32.000Z</time>
      </trkpt>
      <trkpt lat="45.20364" lon="6.00941">
        <ele>2173.3999023438</ele>
        <time>2023-08-12T04:53:37.000Z</time>
      </trkpt>
      <trkpt lat="45.20362" lon="6.00941">
        <ele>2173.8000488281</ele>
        <time>2023-08-12T04:53:45.000Z</time>
      </trkpt>
      <trkpt lat="45.20361" lon="6.0094">
        <ele>2173.6000976562</ele>
        <time>2023-08-12T04:53:53.000Z</time>
      </trkpt>
      <trkpt lat="45.20361" lon="6.00937">
        <ele>2173.8000488281</ele>
        <time>2023-08-12T04:54:01.000Z</time>
      </trkpt>
      <trkpt lat="45.20359" lon="6.00933">
        <ele>2174.1999511719</ele>
        <time>2023-08-12T04:54:08.000Z</time>
      </trkpt>
      <trkpt lat="45.20359" lon="6.00932">
        <ele>2174.6000976562</ele>
        <time>2023-08-12T04:54:12.000Z</time>
      </trkpt>
      <trkpt lat="45.2036" lon="6.00931">
        <ele>2174.8000488281</ele>
        <time>2023-08-12T04:54:16.000Z</time>
      </trkpt>
      <trkpt lat="45.20361" lon="6.00929">
        <ele>2175.1999511719</ele>
        <time>2023-08-12T04:54:23.000Z</time>
      </trkpt>
      <trkpt lat="45.20362" lon="6.00929">
        <ele>2175.6000976562</ele>
        <time>2023-08-12T04:54:28.000Z</time>
      </trkpt>
      <trkpt lat="45.20362" lon="6.00927">
        <ele>2175.8000488281</ele>
        <time>2023-08-12T04:54:31.000Z</time>
      </trkpt>
      <trkpt lat="45.20363" lon="6.00928">
        <ele>2176.3999023438</ele>
        <time>2023-08-12T04:54:39.000Z</time>
      </trkpt>
      <trkpt lat="45.20363" lon="6.00928">
        <ele>2176.6000976562</ele>
        <time>2023-08-12T04:54:42.000Z</time>
      </trkpt>
      <trkpt lat="45.20361" lon="6.00927">
        <ele>2176.8000488281</ele>
        <time>2023-08-12T04:54:47.000Z</time>
      </trkpt>
      <trkpt lat="45.2036" lon="6.00926">
        <ele>2177.1999511719</ele>
        <time>2023-08-12T04:54:54.000Z</time>
      </trkpt>
      <trkpt lat="45.20361" lon="6.00927">
        <ele>2177.8000488281</ele>
        <time>2023-08-12T04:55:00.000Z</time>
      </trkpt>
      <trkpt lat="45.20362" lon="6.00926">
        <ele>2177.8000488281</ele>
        <time>2023-08-12T04:55:03.000Z</time>
      </trkpt>
      <trkpt lat="45.2036" lon="6.00923">
        <ele>2178</ele>
        <time>2023-08-12T04:55:10.000Z</time>
      </trkpt>
      <trkpt lat="45.20361" lon="6.0092">
        <ele>2178.3999023438</ele>
        <time>2023-08-12T04:55:15.000Z</time>
      </trkpt>
      <trkpt lat="45.20362" lon="6.00919">
        <ele>2179</ele>
        <time>2023-08-12T04:55:18.000Z</time>
      </trkpt>
      <trkpt lat="45.20362" lon="6.00917">
        <ele>2179.3999023438</ele>
        <time>2023-08-12T04:55:23.000Z</time>
      </trkpt>
      <trkpt lat="45.20358" lon="6.00915">
        <ele>2179.8000488281</ele>
        <time>2023-08-12T04:55:31.000Z</time>
      </trkpt>
      <trkpt lat="45.20357" lon="6.00915">
        <ele>2180</ele>
        <time>2023-08-12T04:55:32.000Z</time>
      </trkpt>
      <trkpt lat="45.20358" lon="6.00915">
        <ele>2180</ele>
        <time>2023-08-12T04:55:38.000Z</time>
      </trkpt>
      <trkpt lat="45.20358" lon="6.00915">
        <ele>2180.1999511719</ele>
        <time>2023-08-12T04:55:45.000Z</time>
      </trkpt>
      <trkpt lat="45.20357" lon="6.00913">
        <ele>2180.6000976562</ele>
        <time>2023-08-12T04:55:51.000Z</time>
      </trkpt>
      <trkpt lat="45.20356" lon="6.00912">
        <ele>2181</ele>
        <time>2023-08-12T04:55:55.000Z</time>
      </trkpt>
      <trkpt lat="45.20354" lon="6.00911">
        <ele>2181.3999023438</ele>
        <time>2023-08-12T04:55:59.000Z</time>
      </trkpt>
      <trkpt lat="45.20354" lon="6.00909">
        <ele>2181.6000976562</ele>
        <time>2023-08-12T04:56:06.000Z</time>
      </trkpt>
      <trkpt lat="45.20353" lon="6.00908">
        <ele>2182</ele>
        <time>2023-08-12T04:56:09.000Z</time>
      </trkpt>
      <trkpt lat="45.20354" lon="6.00905">
        <ele>2182.3999023438</ele>
        <time>2023-08-12T04:56:15.000Z</time>
      </trkpt>
      <trkpt lat="45.20353" lon="6.00905">
        <ele>2182.8000488281</ele>
        <time>2023-08-12T04:56:22.000Z</time>
      </trkpt>
      <trkpt lat="45.20353" lon="6.00905">
        <ele>2183</ele>
        <time>2023-08-12T04:56:25.000Z</time>
      </trkpt>
      <trkpt lat="45.20352" lon="6.00905">
        <ele>2183.3999023438</ele>
        <time>2023-08-12T04:56:29.000Z</time>
      </trkpt>
      <trkpt lat="45.20349" lon="6.00903">
        <ele>2183.6000976562</ele>
        <time>2023-08-12T04:56:37.000Z</time>
      </trkpt>
      <trkpt lat="45.20348" lon="6.00899">
        <ele>2184</ele>
        <time>2023-08-12T04:56:47.000Z</time>
      </trkpt>
      <trkpt lat="45.20349" lon="6.00898">
        <ele>2184.1999511719</ele>
        <time>2023-08-12T04:56:48.000Z</time>
      </trkpt>
      <trkpt lat="45.2035" lon="6.00895">
        <ele>2184.6000976562</ele>
        <time>2023-08-12T04:56:55.000Z</time>
      </trkpt>
      <trkpt lat="45.2035" lon="6.00896">
        <ele>2185.3999023438</ele>
        <time>2023-08-12T04:57:04.000Z</time>
      </trkpt>
      <trkpt lat="45.20347" lon="6.00896">
        <ele>2185.8000488281</ele>
        <time>2023-08-12T04:57:12.000Z</time>
      </trkpt>
      <trkpt lat="45.20345" lon="6.00894">
        <ele>2186.3999023438</ele>
        <time>2023-08-12T04:57:18.000Z</time>
      </trkpt>
      <trkpt lat="45.20345" lon="6.00895">
        <ele>2187</ele>
        <time>2023-08-12T04:57:20.000Z</time>
      </trkpt>
      <trkpt lat="45.20347" lon="6.00893">
        <ele>2187.6000976562</ele>
        <time>2023-08-12T04:57:28.000Z</time>
      </trkpt>
      <trkpt lat="45.20348" lon="6.00893">
        <ele>2187.8000488281</ele>
        <time>2023-08-12T04:57:29.000Z</time>
      </trkpt>
      <trkpt lat="45.20349" lon="6.00887">
        <ele>2188.8000488281</ele>
        <time>2023-08-12T04:57:36.000Z</time>
      </trkpt>
      <trkpt lat="45.20349" lon="6.00887">
        <ele>2188.8000488281</ele>
        <time>2023-08-12T04:57:37.000Z</time>
      </trkpt>
      <trkpt lat="45.20354" lon="6.00885">
        <ele>2189.3999023438</ele>
        <time>2023-08-12T04:57:47.000Z</time>
      </trkpt>
      <trkpt lat="45.20356" lon="6.00885">
        <ele>2189.6000976562</ele>
        <time>2023-08-12T04:57:53.000Z</time>
      </trkpt>
      <trkpt lat="45.20356" lon="6.00885">
        <ele>2190</ele>
        <time>2023-08-12T04:57:54.000Z</time>
      </trkpt>
      <trkpt lat="45.20358" lon="6.0088">
        <ele>2190.3999023438</ele>
        <time>2023-08-12T04:58:00.000Z</time>
      </trkpt>
      <trkpt lat="45.20358" lon="6.00878">
        <ele>2191</ele>
        <time>2023-08-12T04:58:05.000Z</time>
      </trkpt>
      <trkpt lat="45.20358" lon="6.00876">
        <ele>2191.1999511719</ele>
        <time>2023-08-12T04:58:08.000Z</time>
      </trkpt>
      <trkpt lat="45.20361" lon="6.00875">
        <ele>2191.3999023438</ele>
        <time>2023-08-12T04:58:15.000Z</time>
      </trkpt>
      <trkpt lat="45.20361" lon="6.00871">
        <ele>2191.1999511719</ele>
        <time>2023-08-12T04:58:23.000Z</time>
      </trkpt>
      <trkpt lat="45.20357" lon="6.00869">
        <ele>2191.3999023438</ele>
        <time>2023-08-12T04:58:32.000Z</time>
      </trkpt>
      <trkpt lat="45.20357" lon="6.00865">
        <ele>2191.8000488281</ele>
        <time>2023-08-12T04:58:39.000Z</time>
      </trkpt>
      <trkpt lat="45.20356" lon="6.00861">
        <ele>2192</ele>
        <time>2023-08-12T04:58:47.000Z</time>
      </trkpt>
      <trkpt lat="45.20356" lon="6.0086">
        <ele>2192.1999511719</ele>
        <time>2023-08-12T04:58:48.000Z</time>
      </trkpt>
      <trkpt lat="45.20354" lon="6.0086">
        <ele>2192.6000976562</ele>
        <time>2023-08-12T04:58:56.000Z</time>
      </trkpt>
      <trkpt lat="45.20355" lon="6.00859">
        <ele>2192.3999023438</ele>
        <time>2023-08-12T04:59:02.000Z</time>
      </trkpt>
      <trkpt lat="45.20355" lon="6.00855">
        <ele>2191.8000488281</ele>
        <time>2023-08-12T04:59:10.000Z</time>
      </trkpt>
      <trkpt lat="45.20354" lon="6.00852">
        <ele>2191.6000976562</ele>
        <time>2023-08-12T04:59:18.000Z</time>
      </trkpt>
      <trkpt lat="45.20352" lon="6.00849">
        <ele>2191.1999511719</ele>
        <time>2023-08-12T04:59:25.000Z</time>
      </trkpt>
      <trkpt lat="45.20351" lon="6.00848">
        <ele>2191.1999511719</ele>
        <time>2023-08-12T04:59:27.000Z</time>
      </trkpt>
      <trkpt lat="45.2035" lon="6.00847">
        <ele>2191</ele>
        <time>2023-08-12T04:59:33.000Z</time>
      </trkpt>
      <trkpt lat="45.20349" lon="6.00846">
        <ele>2191.3999023438</ele>
        <time>2023-08-12T04:59:39.000Z</time>
      </trkpt>
      <trkpt lat="45.20347" lon="6.00843">
        <ele>2191.3999023438</ele>
        <time>2023-08-12T04:59:45.000Z</time>
      </trkpt>
      <trkpt lat="45.20346" lon="6.00841">
        <ele>2192.1999511719</ele>
        <time>2023-08-12T04:59:50.000Z</time>
      </trkpt>
      <trkpt lat="45.20344" lon="6.00842">
        <ele>2192.6000976562</ele>
        <time>2023-08-12T04:59:55.000Z</time>
      </trkpt>
      <trkpt lat="45.20341" lon="6.00844">
        <ele>2193.1999511719</ele>
        <time>2023-08-12T05:00:02.000Z</time>
      </trkpt>
      <trkpt lat="45.20341" lon="6.00845">
        <ele>2193.3999023438</ele>
        <time>2023-08-12T05:00:04.000Z</time>
      </trkpt>
      <trkpt lat="45.20342" lon="6.00843">
        <ele>2194.1999511719</ele>
        <time>2023-08-12T05:00:12.000Z</time>
      </trkpt>
      <trkpt lat="45.20342" lon="6.00839">
        <ele>2194.3999023438</ele>
        <time>2023-08-12T05:00:21.000Z</time>
      </trkpt>
      <trkpt lat="45.20342" lon="6.00836">
        <ele>2194.6000976562</ele>
        <time>2023-08-12T05:00:25.000Z</time>
      </trkpt>
      <trkpt lat="45.20342" lon="6.00835">
        <ele>2194.6000976562</ele>
        <time>2023-08-12T05:00:26.000Z</time>
      </trkpt>
      <trkpt lat="45.20343" lon="6.00837">
        <ele>2195.1999511719</ele>
        <time>2023-08-12T05:00:32.000Z</time>
      </trkpt>
      <trkpt lat="45.20342" lon="6.00837">
        <ele>2195.1999511719</ele>
        <time>2023-08-12T05:00:41.000Z</time>
      </trkpt>
      <trkpt lat="45.20341" lon="6.00835">
        <ele>2195.3999023438</ele>
        <time>2023-08-12T05:00:48.000Z</time>
      </trkpt>
      <trkpt lat="45.2034" lon="6.00835">
        <ele>2195.6000976562</ele>
        <time>2023-08-12T05:00:50.000Z</time>
      </trkpt>
      <trkpt lat="45.20338" lon="6.00835">
        <ele>2196.1999511719</ele>
        <time>2023-08-12T05:00:56.000Z</time>
      </trkpt>
      <trkpt lat="45.20337" lon="6.00835">
        <ele>2196.6000976562</ele>
        <time>2023-08-12T05:01:04.000Z</time>
      </trkpt>
      <trkpt lat="45.20337" lon="6.00834">
        <ele>2196.6000976562</ele>
        <time>2023-08-12T05:01:07.000Z</time>
      </trkpt>
      <trkpt lat="45.20337" lon="6.00837">
        <ele>2196.6000976562</ele>
        <time>2023-08-12T05:01:14.000Z</time>
      </trkpt>
      <trkpt lat="45.2034" lon="6.00837">
        <ele>2196.8000488281</ele>
        <time>2023-08-12T05:01:19.000Z</time>
      </trkpt>
      <trkpt lat="45.2034" lon="6.00836">
        <ele>2196.8000488281</ele>
        <time>2023-08-12T05:01:20.000Z</time>
      </trkpt>
      <trkpt lat="45.20341" lon="6.00833">
        <ele>2197</ele>
        <time>2023-08-12T05:01:23.000Z</time>
      </trkpt>
      <trkpt lat="45.20342" lon="6.00832">
        <ele>2196.8000488281</ele>
        <time>2023-08-12T05:01:27.000Z</time>
      </trkpt>
      <trkpt lat="45.20339" lon="6.00834">
        <ele>2196.8000488281</ele>
        <time>2023-08-12T05:01:36.000Z</time>
      </trkpt>
      <trkpt lat="45.20335" lon="6.00838">
        <ele>2196.3999023438</ele>
        <time>2023-08-12T05:01:45.000Z</time>
      </trkpt>
      <trkpt lat="45.20333" lon="6.00841">
        <ele>2196.1999511719</ele>
        <time>2023-08-12T05:01:51.000Z</time>
      </trkpt>
      <trkpt lat="45.20331" lon="6.0084">
        <ele>2195.6000976562</ele>
        <time>2023-08-12T05:01:57.000Z</time>
      </trkpt>
      <trkpt lat="45.20328" lon="6.00844">
        <ele>2195.3999023438</ele>
        <time>2023-08-12T05:02:03.000Z</time>
      </trkpt>
      <trkpt lat="45.20327" lon="6.00847">
        <ele>2196.1999511719</ele>
        <time>2023-08-12T05:02:10.000Z</time>
      </trkpt>
      <trkpt lat="45.20326" lon="6.00845">
        <ele>2196.3999023438</ele>
        <time>2023-08-12T05:02:18.000Z</time>
      </trkpt>
      <trkpt lat="45.20325" lon="6.00846">
        <ele>2196.6000976562</ele>
        <time>2023-08-12T05:02:20.000Z</time>
      </trkpt>
      <trkpt lat="45.20322" lon="6.00848">
        <ele>2197</ele>
        <time>2023-08-12T05:02:24.000Z</time>
      </trkpt>
      <trkpt lat="45.20322" lon="6.00849">
        <ele>2197</ele>
        <time>2023-08-12T05:02:29.000Z</time>
      </trkpt>
      <trkpt lat="45.20321" lon="6.0085">
        <ele>2197</ele>
        <time>2023-08-12T05:02:38.000Z</time>
      </trkpt>
      <trkpt lat="45.20324" lon="6.00846">
        <ele>2196.8000488281</ele>
        <time>2023-08-12T05:02:45.000Z</time>
      </trkpt>
      <trkpt lat="45.20325" lon="6.00843">
        <ele>2196.8000488281</ele>
        <time>2023-08-12T05:02:57.000Z</time>
      </trkpt>
      <trkpt lat="45.20321" lon="6.00843">
        <ele>2196.8000488281</ele>
        <time>2023-08-12T05:03:07.000Z</time>
      </trkpt>
      <trkpt lat="45.20319" lon="6.00846">
        <ele>2197</ele>
        <time>2023-08-12T05:03:13.000Z</time>
      </trkpt>
      <trkpt lat="45.20317" lon="6.00845">
        <ele>2197</ele>
        <time>2023-08-12T05:03:21.000Z</time>
      </trkpt>
      <trkpt lat="45.20315" lon="6.00844">
        <ele>2197.1999511719</ele>
        <time>2023-08-12T05:03:28.000Z</time>
      </trkpt>
      <trkpt lat="45.20317" lon="6.00848">
        <ele>2197.1999511719</ele>
        <time>2023-08-12T05:03:35.000Z</time>
      </trkpt>
      <trkpt lat="45.20316" lon="6.00851">
        <ele>2197.1999511719</ele>
        <time>2023-08-12T05:03:40.000Z</time>
      </trkpt>
      <trkpt lat="45.20316" lon="6.00851">
        <ele>2197.8000488281</ele>
        <time>2023-08-12T05:03:45.000Z</time>
      </trkpt>
      <trkpt lat="45.20315" lon="6.00851">
        <ele>2197.8000488281</ele>
        <time>2023-08-12T05:03:55.000Z</time>
      </trkpt>
      <trkpt lat="45.20315" lon="6.00848">
        <ele>2197.6000976562</ele>
        <time>2023-08-12T05:04:03.000Z</time>
      </trkpt>
      <trkpt lat="45.20314" lon="6.00848">
        <ele>2197.6000976562</ele>
        <time>2023-08-12T05:04:11.000Z</time>
      </trkpt>
      <trkpt lat="45.20315" lon="6.00849">
        <ele>2197.1999511719</ele>
        <time>2023-08-12T05:04:17.000Z</time>
      </trkpt>
      <trkpt lat="45.20314" lon="6.00847">
        <ele>2197.3999023438</ele>
        <time>2023-08-12T05:04:25.000Z</time>
      </trkpt>
      <trkpt lat="45.20314" lon="6.00845">
        <ele>2197.3999023438</ele>
        <time>2023-08-12T05:04:31.000Z</time>
      </trkpt>
      <trkpt lat="45.20315" lon="6.00844">
        <ele>2197.3999023438</ele>
        <time>2023-08-12T05:04:37.000Z</time>
      </trkpt>
      <trkpt lat="45.20311" lon="6.00844">
        <ele>2197.3999023438</ele>
        <time>2023-08-12T05:04:45.000Z</time>
      </trkpt>
      <trkpt lat="45.20312" lon="6.00844">
        <ele>2197.3999023438</ele>
        <time>2023-08-12T05:04:52.000Z</time>
      </trkpt>
      <trkpt lat="45.20309" lon="6.00843">
        <ele>2197.3999023438</ele>
        <time>2023-08-12T05:05:00.000Z</time>
      </trkpt>
      <trkpt lat="45.20306" lon="6.00843">
        <ele>2197.8000488281</ele>
        <time>2023-08-12T05:05:07.000Z</time>
      </trkpt>
      <trkpt lat="45.20303" lon="6.00843">
        <ele>2198.1999511719</ele>
        <time>2023-08-12T05:05:17.000Z</time>
      </trkpt>
      <trkpt lat="45.20302" lon="6.00839">
        <ele>2197.8000488281</ele>
        <time>2023-08-12T05:05:25.000Z</time>
      </trkpt>
      <trkpt lat="45.20303" lon="6.00837">
        <ele>2197.6000976562</ele>
        <time>2023-08-12T05:05:31.000Z</time>
      </trkpt>
      <trkpt lat="45.20302" lon="6.00834">
        <ele>2197.6000976562</ele>
        <time>2023-08-12T05:05:39.000Z</time>
      </trkpt>
      <trkpt lat="45.20303" lon="6.00832">
        <ele>2197.3999023438</ele>
        <time>2023-08-12T05:05:47.000Z</time>
      </trkpt>
      <trkpt lat="45.20303" lon="6.0083">
        <ele>2197.3999023438</ele>
        <time>2023-08-12T05:05:53.000Z</time>
      </trkpt>
      <trkpt lat="45.20303" lon="6.0083">
        <ele>2197.8000488281</ele>
        <time>2023-08-12T05:06:01.000Z</time>
      </trkpt>
      <trkpt lat="45.203" lon="6.00825">
        <ele>2197.8000488281</ele>
        <time>2023-08-12T05:06:08.000Z</time>
      </trkpt>
      <trkpt lat="45.20297" lon="6.00822">
        <ele>2198</ele>
        <time>2023-08-12T05:06:14.000Z</time>
      </trkpt>
      <trkpt lat="45.20296" lon="6.00819">
        <ele>2199</ele>
        <time>2023-08-12T05:06:20.000Z</time>
      </trkpt>
      <trkpt lat="45.20295" lon="6.00817">
        <ele>2199.1999511719</ele>
        <time>2023-08-12T05:06:23.000Z</time>
      </trkpt>
      <trkpt lat="45.20297" lon="6.00815">
        <ele>2199.8000488281</ele>
        <time>2023-08-12T05:06:27.000Z</time>
      </trkpt>
      <trkpt lat="45.20297" lon="6.00815">
        <ele>2200.1999511719</ele>
        <time>2023-08-12T05:06:29.000Z</time>
      </trkpt>
      <trkpt lat="45.20298" lon="6.00812">
        <ele>2201.1999511719</ele>
        <time>2023-08-12T05:06:36.000Z</time>
      </trkpt>
      <trkpt lat="45.20297" lon="6.00809">
        <ele>2202</ele>
        <time>2023-08-12T05:06:45.000Z</time>
      </trkpt>
      <trkpt lat="45.20298" lon="6.00807">
        <ele>2202.1999511719</ele>
        <time>2023-08-12T05:06:48.000Z</time>
      </trkpt>
      <trkpt lat="45.20298" lon="6.00807">
        <ele>2202.3999023438</ele>
        <time>2023-08-12T05:06:54.000Z</time>
      </trkpt>
      <trkpt lat="45.20297" lon="6.00804">
        <ele>2202.1999511719</ele>
        <time>2023-08-12T05:07:06.000Z</time>
      </trkpt>
      <trkpt lat="45.20296" lon="6.00803">
        <ele>2202.1999511719</ele>
        <time>2023-08-12T05:07:13.000Z</time>
      </trkpt>
      <trkpt lat="45.20298" lon="6.00805">
        <ele>2202.3999023438</ele>
        <time>2023-08-12T05:07:19.000Z</time>
      </trkpt>
      <trkpt lat="45.203" lon="6.00809">
        <ele>2202.3999023438</ele>
        <time>2023-08-12T05:07:27.000Z</time>
      </trkpt>
      <trkpt lat="45.20302" lon="6.0081">
        <ele>2202.1999511719</ele>
        <time>2023-08-12T05:07:34.000Z</time>
      </trkpt>
      <trkpt lat="45.20303" lon="6.00811">
        <ele>2202</ele>
        <time>2023-08-12T05:07:41.000Z</time>
      </trkpt>
      <trkpt lat="45.20299" lon="6.00808">
        <ele>2202</ele>
        <time>2023-08-12T05:07:49.000Z</time>
      </trkpt>
      <trkpt lat="45.20298" lon="6.00807">
        <ele>2202.1999511719</ele>
        <time>2023-08-12T05:07:58.000Z</time>
      </trkpt>
      <trkpt lat="45.20298" lon="6.00805">
        <ele>2202</ele>
        <time>2023-08-12T05:08:06.000Z</time>
      </trkpt>
      <trkpt lat="45.20299" lon="6.00809">
        <ele>2202</ele>
        <time>2023-08-12T05:08:14.000Z</time>
      </trkpt>
      <trkpt lat="45.20297" lon="6.00808">
        <ele>2202</ele>
        <time>2023-08-12T05:08:21.000Z</time>
      </trkpt>
      <trkpt lat="45.20303" lon="6.00806">
        <ele>2202.1999511719</ele>
        <time>2023-08-12T05:08:28.000Z</time>
      </trkpt>
      <trkpt lat="45.20301" lon="6.00808">
        <ele>2202</ele>
        <time>2023-08-12T05:08:34.000Z</time>
      </trkpt>
      <trkpt lat="45.20297" lon="6.00803">
        <ele>2202.1999511719</ele>
        <time>2023-08-12T05:08:42.000Z</time>
      </trkpt>
      <trkpt lat="45.20293" lon="6.00799">
        <ele>2202.1999511719</ele>
        <time>2023-08-12T05:08:49.000Z</time>
      </trkpt>
      <trkpt lat="45.20294" lon="6.00797">
        <ele>2202.1999511719</ele>
        <time>2023-08-12T05:08:53.000Z</time>
      </trkpt>
      <trkpt lat="45.20296" lon="6.00802">
        <ele>2202</ele>
        <time>2023-08-12T05:09:00.000Z</time>
      </trkpt>
      <trkpt lat="45.20294" lon="6.00801">
        <ele>2202</ele>
        <time>2023-08-12T05:09:06.000Z</time>
      </trkpt>
      <trkpt lat="45.20297" lon="6.00802">
        <ele>2202.1999511719</ele>
        <time>2023-08-12T05:09:14.000Z</time>
      </trkpt>
      <trkpt lat="45.20298" lon="6.008">
        <ele>2202.3999023438</ele>
        <time>2023-08-12T05:09:20.000Z</time>
      </trkpt>
      <trkpt lat="45.20298" lon="6.00797">
        <ele>2202.1999511719</ele>
        <time>2023-08-12T05:09:28.000Z</time>
      </trkpt>
      <trkpt lat="45.20299" lon="6.008">
        <ele>2202.1999511719</ele>
        <time>2023-08-12T05:09:36.000Z</time>
      </trkpt>
      <trkpt lat="45.203" lon="6.00801">
        <ele>2202.6000976562</ele>
        <time>2023-08-12T05:09:43.000Z</time>
      </trkpt>
      <trkpt lat="45.20302" lon="6.00802">
        <ele>2202.3999023438</ele>
        <time>2023-08-12T05:09:51.000Z</time>
      </trkpt>
      <trkpt lat="45.20303" lon="6.00804">
        <ele>2202.3999023438</ele>
        <time>2023-08-12T05:09:59.000Z</time>
      </trkpt>
      <trkpt lat="45.20301" lon="6.008">
        <ele>2202.8000488281</ele>
        <time>2023-08-12T05:10:06.000Z</time>
      </trkpt>
      <trkpt lat="45.20301" lon="6.00799">
        <ele>2203.3999023438</ele>
        <time>2023-08-12T05:10:11.000Z</time>
      </trkpt>
      <trkpt lat="45.20301" lon="6.00797">
        <ele>2204</ele>
        <time>2023-08-12T05:10:14.000Z</time>
      </trkpt>
      <trkpt lat="45.20302" lon="6.00795">
        <ele>2204.3999023438</ele>
        <time>2023-08-12T05:10:17.000Z</time>
      </trkpt>
      <trkpt lat="45.20302" lon="6.00793">
        <ele>2204.6000976562</ele>
        <time>2023-08-12T05:10:21.000Z</time>
      </trkpt>
      <trkpt lat="45.20303" lon="6.00792">
        <ele>2205</ele>
        <time>2023-08-12T05:10:27.000Z</time>
      </trkpt>
      <trkpt lat="45.20304" lon="6.00789">
        <ele>2205.6000976562</ele>
        <time>2023-08-12T05:10:33.000Z</time>
      </trkpt>
      <trkpt lat="45.20304" lon="6.00784">
        <ele>2206.6000976562</ele>
        <time>2023-08-12T05:10:41.000Z</time>
      </trkpt>
      <trkpt lat="45.20303" lon="6.0078">
        <ele>2207.1999511719</ele>
        <time>2023-08-12T05:10:48.000Z</time>
      </trkpt>
      <trkpt lat="45.20304" lon="6.00779">
        <ele>2207.6000976562</ele>
        <time>2023-08-12T05:10:50.000Z</time>
      </trkpt>
      <trkpt lat="45.20304" lon="6.00775">
        <ele>2207.8000488281</ele>
        <time>2023-08-12T05:10:55.000Z</time>
      </trkpt>
      <trkpt lat="45.20307" lon="6.00774">
        <ele>2208.1999511719</ele>
        <time>2023-08-12T05:11:03.000Z</time>
      </trkpt>
      <trkpt lat="45.20307" lon="6.00774">
        <ele>2208.6000976562</ele>
        <time>2023-08-12T05:11:05.000Z</time>
      </trkpt>
      <trkpt lat="45.20305" lon="6.00772">
        <ele>2209.1999511719</ele>
        <time>2023-08-12T05:11:11.000Z</time>
      </trkpt>
      <trkpt lat="45.20303" lon="6.00768">
        <ele>2209.6000976562</ele>
        <time>2023-08-12T05:11:16.000Z</time>
      </trkpt>
      <trkpt lat="45.20303" lon="6.00768">
        <ele>2209.8000488281</ele>
        <time>2023-08-12T05:11:17.000Z</time>
      </trkpt>
      <trkpt lat="45.20301" lon="6.00765">
        <ele>2210.6000976562</ele>
        <time>2023-08-12T05:11:23.000Z</time>
      </trkpt>
      <trkpt lat="45.20301" lon="6.00765">
        <ele>2211.6000976562</ele>
        <time>2023-08-12T05:11:30.000Z</time>
      </trkpt>
      <trkpt lat="45.20301" lon="6.00763">
        <ele>2211.6000976562</ele>
        <time>2023-08-12T05:11:35.000Z</time>
      </trkpt>
      <trkpt lat="45.20301" lon="6.00763">
        <ele>2212.1999511719</ele>
        <time>2023-08-12T05:11:39.000Z</time>
      </trkpt>
      <trkpt lat="45.20299" lon="6.0076">
        <ele>2212.6000976562</ele>
        <time>2023-08-12T05:11:43.000Z</time>
      </trkpt>
      <trkpt lat="45.20298" lon="6.0076">
        <ele>2213</ele>
        <time>2023-08-12T05:11:46.000Z</time>
      </trkpt>
      <trkpt lat="45.20297" lon="6.00759">
        <ele>2213.8000488281</ele>
        <time>2023-08-12T05:11:52.000Z</time>
      </trkpt>
      <trkpt lat="45.20297" lon="6.00758">
        <ele>2214</ele>
        <time>2023-08-12T05:11:54.000Z</time>
      </trkpt>
      <trkpt lat="45.20297" lon="6.00756">
        <ele>2214.8000488281</ele>
        <time>2023-08-12T05:11:59.000Z</time>
      </trkpt>
      <trkpt lat="45.20296" lon="6.00756">
        <ele>2215</ele>
        <time>2023-08-12T05:12:01.000Z</time>
      </trkpt>
      <trkpt lat="45.20296" lon="6.00756">
        <ele>2215.3999023438</ele>
        <time>2023-08-12T05:12:08.000Z</time>
      </trkpt>
      <trkpt lat="45.20295" lon="6.00754">
        <ele>2216</ele>
        <time>2023-08-12T05:12:12.000Z</time>
      </trkpt>
      <trkpt lat="45.20294" lon="6.00752">
        <ele>2216.3999023438</ele>
        <time>2023-08-12T05:12:15.000Z</time>
      </trkpt>
      <trkpt lat="45.20293" lon="6.00751">
        <ele>2217</ele>
        <time>2023-08-12T05:12:19.000Z</time>
      </trkpt>
      <trkpt lat="45.20294" lon="6.00751">
        <ele>2217.1999511719</ele>
        <time>2023-08-12T05:12:22.000Z</time>
      </trkpt>
      <trkpt lat="45.20294" lon="6.00747">
        <ele>2217.8000488281</ele>
        <time>2023-08-12T05:12:30.000Z</time>
      </trkpt>
      <trkpt lat="45.20294" lon="6.00746">
        <ele>2218</ele>
        <time>2023-08-12T05:12:32.000Z</time>
      </trkpt>
      <trkpt lat="45.20292" lon="6.00743">
        <ele>2218.6000976562</ele>
        <time>2023-08-12T05:12:36.000Z</time>
      </trkpt>
      <trkpt lat="45.2029" lon="6.00741">
        <ele>2219</ele>
        <time>2023-08-12T05:12:42.000Z</time>
      </trkpt>
      <trkpt lat="45.20292" lon="6.00741">
        <ele>2219</ele>
        <time>2023-08-12T05:12:47.000Z</time>
      </trkpt>
      <trkpt lat="45.20291" lon="6.0074">
        <ele>2219.1999511719</ele>
        <time>2023-08-12T05:12:50.000Z</time>
      </trkpt>
      <trkpt lat="45.20289" lon="6.00737">
        <ele>2220</ele>
        <time>2023-08-12T05:12:57.000Z</time>
      </trkpt>
      <trkpt lat="45.20289" lon="6.00736">
        <ele>2220</ele>
        <time>2023-08-12T05:12:58.000Z</time>
      </trkpt>
      <trkpt lat="45.20287" lon="6.00736">
        <ele>2220.8000488281</ele>
        <time>2023-08-12T05:13:04.000Z</time>
      </trkpt>
      <trkpt lat="45.20287" lon="6.00734">
        <ele>2221.1999511719</ele>
        <time>2023-08-12T05:13:11.000Z</time>
      </trkpt>
      <trkpt lat="45.20286" lon="6.00732">
        <ele>2221.8000488281</ele>
        <time>2023-08-12T05:13:18.000Z</time>
      </trkpt>
      <trkpt lat="45.20285" lon="6.00727">
        <ele>2222.1999511719</ele>
        <time>2023-08-12T05:13:27.000Z</time>
      </trkpt>
      <trkpt lat="45.20285" lon="6.00726">
        <ele>2222.1999511719</ele>
        <time>2023-08-12T05:13:30.000Z</time>
      </trkpt>
      <trkpt lat="45.20283" lon="6.00724">
        <ele>2222.6000976562</ele>
        <time>2023-08-12T05:13:35.000Z</time>
      </trkpt>
      <trkpt lat="45.20281" lon="6.0072">
        <ele>2223</ele>
        <time>2023-08-12T05:13:42.000Z</time>
      </trkpt>
      <trkpt lat="45.20281" lon="6.00719">
        <ele>2223.1999511719</ele>
        <time>2023-08-12T05:13:43.000Z</time>
      </trkpt>
      <trkpt lat="45.20283" lon="6.00717">
        <ele>2224</ele>
        <time>2023-08-12T05:13:49.000Z</time>
      </trkpt>
      <trkpt lat="45.20284" lon="6.00716">
        <ele>2224.3999023438</ele>
        <time>2023-08-12T05:13:52.000Z</time>
      </trkpt>
      <trkpt lat="45.20285" lon="6.00713">
        <ele>2225</ele>
        <time>2023-08-12T05:13:57.000Z</time>
      </trkpt>
      <trkpt lat="45.20285" lon="6.00712">
        <ele>2225.3999023438</ele>
        <time>2023-08-12T05:13:59.000Z</time>
      </trkpt>
      <trkpt lat="45.20281" lon="6.00709">
        <ele>2226</ele>
        <time>2023-08-12T05:14:05.000Z</time>
      </trkpt>
      <trkpt lat="45.20282" lon="6.00705">
        <ele>2226.3999023438</ele>
        <time>2023-08-12T05:14:10.000Z</time>
      </trkpt>
      <trkpt lat="45.20283" lon="6.00704">
        <ele>2226.3999023438</ele>
        <time>2023-08-12T05:14:11.000Z</time>
      </trkpt>
      <trkpt lat="45.20284" lon="6.00703">
        <ele>2227.3999023438</ele>
        <time>2023-08-12T05:14:18.000Z</time>
      </trkpt>
      <trkpt lat="45.20284" lon="6.00703">
        <ele>2227.6000976562</ele>
        <time>2023-08-12T05:14:19.000Z</time>
      </trkpt>
      <trkpt lat="45.20284" lon="6.00699">
        <ele>2228.6000976562</ele>
        <time>2023-08-12T05:14:27.000Z</time>
      </trkpt>
      <trkpt lat="45.20284" lon="6.00698">
        <ele>2228.8000488281</ele>
        <time>2023-08-12T05:14:29.000Z</time>
      </trkpt>
      <trkpt lat="45.20284" lon="6.00698">
        <ele>2229.3999023438</ele>
        <time>2023-08-12T05:14:35.000Z</time>
      </trkpt>
      <trkpt lat="45.20284" lon="6.00701">
        <ele>2229.8000488281</ele>
        <time>2023-08-12T05:14:42.000Z</time>
      </trkpt>
      <trkpt lat="45.20281" lon="6.00699">
        <ele>2229.3999023438</ele>
        <time>2023-08-12T05:14:50.000Z</time>
      </trkpt>
      <trkpt lat="45.20279" lon="6.00697">
        <ele>2228.8000488281</ele>
        <time>2023-08-12T05:14:57.000Z</time>
      </trkpt>
      <trkpt lat="45.20279" lon="6.00696">
        <ele>2229</ele>
        <time>2023-08-12T05:15:05.000Z</time>
      </trkpt>
      <trkpt lat="45.20279" lon="6.00694">
        <ele>2229.1999511719</ele>
        <time>2023-08-12T05:15:11.000Z</time>
      </trkpt>
      <trkpt lat="45.20279" lon="6.00693">
        <ele>2229.8000488281</ele>
        <time>2023-08-12T05:15:15.000Z</time>
      </trkpt>
      <trkpt lat="45.20279" lon="6.00693">
        <ele>2230.1999511719</ele>
        <time>2023-08-12T05:15:20.000Z</time>
      </trkpt>
      <trkpt lat="45.20278" lon="6.00691">
        <ele>2231</ele>
        <time>2023-08-12T05:15:26.000Z</time>
      </trkpt>
      <trkpt lat="45.20278" lon="6.00691">
        <ele>2231.6000976562</ele>
        <time>2023-08-12T05:15:30.000Z</time>
      </trkpt>
      <trkpt lat="45.20278" lon="6.00691">
        <ele>2232</ele>
        <time>2023-08-12T05:15:33.000Z</time>
      </trkpt>
      <trkpt lat="45.20277" lon="6.00687">
        <ele>2232.3999023438</ele>
        <time>2023-08-12T05:15:38.000Z</time>
      </trkpt>
      <trkpt lat="45.20273" lon="6.00686">
        <ele>2232.6000976562</ele>
        <time>2023-08-12T05:15:45.000Z</time>
      </trkpt>
      <trkpt lat="45.2027" lon="6.00684">
        <ele>2233</ele>
        <time>2023-08-12T05:15:54.000Z</time>
      </trkpt>
      <trkpt lat="45.2027" lon="6.00682">
        <ele>2233</ele>
        <time>2023-08-12T05:15:59.000Z</time>
      </trkpt>
      <trkpt lat="45.2027" lon="6.0068">
        <ele>2233</ele>
        <time>2023-08-12T05:16:03.000Z</time>
      </trkpt>
      <trkpt lat="45.20269" lon="6.00683">
        <ele>2233</ele>
        <time>2023-08-12T05:16:08.000Z</time>
      </trkpt>
      <trkpt lat="45.20268" lon="6.00679">
        <ele>2233.3999023438</ele>
        <time>2023-08-12T05:16:16.000Z</time>
      </trkpt>
      <trkpt lat="45.20266" lon="6.00678">
        <ele>2234</ele>
        <time>2023-08-12T05:16:23.000Z</time>
      </trkpt>
      <trkpt lat="45.20266" lon="6.00677">
        <ele>2234.1999511719</ele>
        <time>2023-08-12T05:16:25.000Z</time>
      </trkpt>
      <trkpt lat="45.20265" lon="6.00674">
        <ele>2234.8000488281</ele>
        <time>2023-08-12T05:16:30.000Z</time>
      </trkpt>
      <trkpt lat="45.20264" lon="6.00673">
        <ele>2235.3999023438</ele>
        <time>2023-08-12T05:16:34.000Z</time>
      </trkpt>
      <trkpt lat="45.20265" lon="6.00672">
        <ele>2236.1999511719</ele>
        <time>2023-08-12T05:16:39.000Z</time>
      </trkpt>
      <trkpt lat="45.20264" lon="6.00669">
        <ele>2236.3999023438</ele>
        <time>2023-08-12T05:16:44.000Z</time>
      </trkpt>
      <trkpt lat="45.20264" lon="6.00667">
        <ele>2236.6000976562</ele>
        <time>2023-08-12T05:16:46.000Z</time>
      </trkpt>
      <trkpt lat="45.20264" lon="6.00664">
        <ele>2237.6000976562</ele>
        <time>2023-08-12T05:16:52.000Z</time>
      </trkpt>
      <trkpt lat="45.20264" lon="6.00664">
        <ele>2237.6000976562</ele>
        <time>2023-08-12T05:16:53.000Z</time>
      </trkpt>
      <trkpt lat="45.20265" lon="6.00663">
        <ele>2238.1999511719</ele>
        <time>2023-08-12T05:17:01.000Z</time>
      </trkpt>
      <trkpt lat="45.20266" lon="6.00662">
        <ele>2238.6000976562</ele>
        <time>2023-08-12T05:17:03.000Z</time>
      </trkpt>
      <trkpt lat="45.20265" lon="6.00659">
        <ele>2239.1999511719</ele>
        <time>2023-08-12T05:17:08.000Z</time>
      </trkpt>
      <trkpt lat="45.20265" lon="6.00656">
        <ele>2239.6000976562</ele>
        <time>2023-08-12T05:17:12.000Z</time>
      </trkpt>
      <trkpt lat="45.20265" lon="6.00655">
        <ele>2240</ele>
        <time>2023-08-12T05:17:15.000Z</time>
      </trkpt>
      <trkpt lat="45.20264" lon="6.00653">
        <ele>2240.6000976562</ele>
        <time>2023-08-12T05:17:21.000Z</time>
      </trkpt>
      <trkpt lat="45.20265" lon="6.00653">
        <ele>2240.6000976562</ele>
        <time>2023-08-12T05:17:23.000Z</time>
      </trkpt>
      <trkpt lat="45.20267" lon="6.00649">
        <ele>2241.1999511719</ele>
        <time>2023-08-12T05:17:30.000Z</time>
      </trkpt>
      <trkpt lat="45.20267" lon="6.00642">
        <ele>2241.6000976562</ele>
        <time>2023-08-12T05:17:37.000Z</time>
      </trkpt>
      <trkpt lat="45.20266" lon="6.0064">
        <ele>2241.8000488281</ele>
        <time>2023-08-12T05:17:40.000Z</time>
      </trkpt>
      <trkpt lat="45.20264" lon="6.00635">
        <ele>2242</ele>
        <time>2023-08-12T05:17:48.000Z</time>
      </trkpt>
      <trkpt lat="45.20263" lon="6.00632">
        <ele>2242.8000488281</ele>
        <time>2023-08-12T05:17:56.000Z</time>
      </trkpt>
      <trkpt lat="45.20263" lon="6.00631">
        <ele>2242.8000488281</ele>
        <time>2023-08-12T05:17:57.000Z</time>
      </trkpt>
      <trkpt lat="45.20262" lon="6.00628">
        <ele>2243.8000488281</ele>
        <time>2023-08-12T05:18:03.000Z</time>
      </trkpt>
      <trkpt lat="45.20263" lon="6.00625">
        <ele>2244.3999023438</ele>
        <time>2023-08-12T05:18:06.000Z</time>
      </trkpt>
      <trkpt lat="45.20263" lon="6.00624">
        <ele>2244.8000488281</ele>
        <time>2023-08-12T05:18:10.000Z</time>
      </trkpt>
      <trkpt lat="45.20264" lon="6.00623">
        <ele>2245.3999023438</ele>
        <time>2023-08-12T05:18:14.000Z</time>
      </trkpt>
      <trkpt lat="45.20266" lon="6.0062">
        <ele>2246</ele>
        <time>2023-08-12T05:18:19.000Z</time>
      </trkpt>
      <trkpt lat="45.20268" lon="6.00616">
        <ele>2246.3999023438</ele>
        <time>2023-08-12T05:18:23.000Z</time>
      </trkpt>
      <trkpt lat="45.20266" lon="6.00611">
        <ele>2247</ele>
        <time>2023-08-12T05:18:30.000Z</time>
      </trkpt>
      <trkpt lat="45.20266" lon="6.0061">
        <ele>2247.1999511719</ele>
        <time>2023-08-12T05:18:33.000Z</time>
      </trkpt>
      <trkpt lat="45.20268" lon="6.0061">
        <ele>2248.1999511719</ele>
        <time>2023-08-12T05:18:40.000Z</time>
      </trkpt>
      <trkpt lat="45.20271" lon="6.00614">
        <ele>2248.3999023438</ele>
        <time>2023-08-12T05:18:47.000Z</time>
      </trkpt>
      <trkpt lat="45.20271" lon="6.00614">
        <ele>2248.3999023438</ele>
        <time>2023-08-12T05:18:48.000Z</time>
      </trkpt>
      <trkpt lat="45.2027" lon="6.00611">
        <ele>2248.3999023438</ele>
        <time>2023-08-12T05:18:56.000Z</time>
      </trkpt>
      <trkpt lat="45.20268" lon="6.00614">
        <ele>2248.1999511719</ele>
        <time>2023-08-12T05:19:04.000Z</time>
      </trkpt>
      <trkpt lat="45.20266" lon="6.00615">
        <ele>2247.1999511719</ele>
        <time>2023-08-12T05:19:12.000Z</time>
      </trkpt>
      <trkpt lat="45.20277" lon="6.00614">
        <ele>2248.1999511719</ele>
        <time>2023-08-12T05:19:36.000Z</time>
      </trkpt>
      <trkpt lat="45.20278" lon="6.00614">
        <ele>2248.3999023438</ele>
        <time>2023-08-12T05:19:37.000Z</time>
      </trkpt>
      <trkpt lat="45.20277" lon="6.00611">
        <ele>2249.1999511719</ele>
        <time>2023-08-12T05:19:45.000Z</time>
      </trkpt>
      <trkpt lat="45.20277" lon="6.00609">
        <ele>2249.3999023438</ele>
        <time>2023-08-12T05:19:47.000Z</time>
      </trkpt>
      <trkpt lat="45.20279" lon="6.00606">
        <ele>2250.3999023438</ele>
        <time>2023-08-12T05:19:53.000Z</time>
      </trkpt>
      <trkpt lat="45.20279" lon="6.00606">
        <ele>2250.6000976562</ele>
        <time>2023-08-12T05:19:54.000Z</time>
      </trkpt>
      <trkpt lat="45.2028" lon="6.00603">
        <ele>2251.8000488281</ele>
        <time>2023-08-12T05:20:01.000Z</time>
      </trkpt>
      <trkpt lat="45.20281" lon="6.00601">
        <ele>2252.1999511719</ele>
        <time>2023-08-12T05:20:03.000Z</time>
      </trkpt>
      <trkpt lat="45.20282" lon="6.00596">
        <ele>2253</ele>
        <time>2023-08-12T05:20:09.000Z</time>
      </trkpt>
      <trkpt lat="45.20282" lon="6.00595">
        <ele>2253.3999023438</ele>
        <time>2023-08-12T05:20:12.000Z</time>
      </trkpt>
      <trkpt lat="45.20283" lon="6.00591">
        <ele>2254</ele>
        <time>2023-08-12T05:20:18.000Z</time>
      </trkpt>
      <trkpt lat="45.20283" lon="6.00591">
        <ele>2254.3999023438</ele>
        <time>2023-08-12T05:20:20.000Z</time>
      </trkpt>
      <trkpt lat="45.20283" lon="6.00593">
        <ele>2255</ele>
        <time>2023-08-12T05:20:25.000Z</time>
      </trkpt>
      <trkpt lat="45.20283" lon="6.00593">
        <ele>2255.1999511719</ele>
        <time>2023-08-12T05:20:27.000Z</time>
      </trkpt>
      <trkpt lat="45.20285" lon="6.00596">
        <ele>2255.3999023438</ele>
        <time>2023-08-12T05:20:35.000Z</time>
      </trkpt>
      <trkpt lat="45.20285" lon="6.00592">
        <ele>2255.3999023438</ele>
        <time>2023-08-12T05:20:44.000Z</time>
      </trkpt>
      <trkpt lat="45.20284" lon="6.00591">
        <ele>2255.3999023438</ele>
        <time>2023-08-12T05:20:51.000Z</time>
      </trkpt>
      <trkpt lat="45.20281" lon="6.00591">
        <ele>2255.3999023438</ele>
        <time>2023-08-12T05:21:00.000Z</time>
      </trkpt>
      <trkpt lat="45.20282" lon="6.0059">
        <ele>2255.6000976562</ele>
        <time>2023-08-12T05:21:07.000Z</time>
      </trkpt>
      <trkpt lat="45.20283" lon="6.00587">
        <ele>2256.1999511719</ele>
        <time>2023-08-12T05:21:12.000Z</time>
      </trkpt>
      <trkpt lat="45.20282" lon="6.00588">
        <ele>2256.6000976562</ele>
        <time>2023-08-12T05:21:15.000Z</time>
      </trkpt>
      <trkpt lat="45.20285" lon="6.00584">
        <ele>2257</ele>
        <time>2023-08-12T05:21:22.000Z</time>
      </trkpt>
      <trkpt lat="45.20286" lon="6.00586">
        <ele>2257.1999511719</ele>
        <time>2023-08-12T05:21:25.000Z</time>
      </trkpt>
      <trkpt lat="45.20287" lon="6.00587">
        <ele>2257.3999023438</ele>
        <time>2023-08-12T05:21:27.000Z</time>
      </trkpt>
      <trkpt lat="45.20288" lon="6.00588">
        <ele>2257.1999511719</ele>
        <time>2023-08-12T05:21:37.000Z</time>
      </trkpt>
      <trkpt lat="45.20286" lon="6.00588">
        <ele>2257.1999511719</ele>
        <time>2023-08-12T05:21:46.000Z</time>
      </trkpt>
      <trkpt lat="45.20287" lon="6.00587">
        <ele>2257.1999511719</ele>
        <time>2023-08-12T05:21:52.000Z</time>
      </trkpt>
      <trkpt lat="45.2029" lon="6.00586">
        <ele>2257.1999511719</ele>
        <time>2023-08-12T05:22:03.000Z</time>
      </trkpt>
      <trkpt lat="45.20291" lon="6.00584">
        <ele>2257.1999511719</ele>
        <time>2023-08-12T05:22:11.000Z</time>
      </trkpt>
      <trkpt lat="45.20291" lon="6.00583">
        <ele>2257.1999511719</ele>
        <time>2023-08-12T05:22:19.000Z</time>
      </trkpt>
      <trkpt lat="45.20289" lon="6.00586">
        <ele>2257.1999511719</ele>
        <time>2023-08-12T05:22:29.000Z</time>
      </trkpt>
      <trkpt lat="45.20291" lon="6.00587">
        <ele>2257.1999511719</ele>
        <time>2023-08-12T05:22:40.000Z</time>
      </trkpt>
      <trkpt lat="45.20291" lon="6.00589">
        <ele>2257.1999511719</ele>
        <time>2023-08-12T05:22:48.000Z</time>
      </trkpt>
      <trkpt lat="45.20288" lon="6.00591">
        <ele>2257.3999023438</ele>
        <time>2023-08-12T05:22:54.000Z</time>
      </trkpt>
      <trkpt lat="45.20289" lon="6.0059">
        <ele>2257.1999511719</ele>
        <time>2023-08-12T05:23:00.000Z</time>
      </trkpt>
      <trkpt lat="45.20289" lon="6.00586">
        <ele>2257.3999023438</ele>
        <time>2023-08-12T05:23:09.000Z</time>
      </trkpt>
      <trkpt lat="45.20289" lon="6.00586">
        <ele>2257.1999511719</ele>
        <time>2023-08-12T05:23:16.000Z</time>
      </trkpt>
      <trkpt lat="45.2029" lon="6.00588">
        <ele>2257.1999511719</ele>
        <time>2023-08-12T05:23:25.000Z</time>
      </trkpt>
      <trkpt lat="45.2029" lon="6.00585">
        <ele>2257.3999023438</ele>
        <time>2023-08-12T05:23:32.000Z</time>
      </trkpt>
      <trkpt lat="45.20288" lon="6.00587">
        <ele>2257.1999511719</ele>
        <time>2023-08-12T05:23:41.000Z</time>
      </trkpt>
      <trkpt lat="45.20286" lon="6.00586">
        <ele>2257.1999511719</ele>
        <time>2023-08-12T05:23:49.000Z</time>
      </trkpt>
      <trkpt lat="45.20285" lon="6.00585">
        <ele>2257.3999023438</ele>
        <time>2023-08-12T05:23:57.000Z</time>
      </trkpt>
      <trkpt lat="45.20289" lon="6.00583">
        <ele>2257.8000488281</ele>
        <time>2023-08-12T05:24:06.000Z</time>
      </trkpt>
      <trkpt lat="45.20289" lon="6.00583">
        <ele>2258.6000976562</ele>
        <time>2023-08-12T05:24:09.000Z</time>
      </trkpt>
      <trkpt lat="45.20287" lon="6.00579">
        <ele>2259.3999023438</ele>
        <time>2023-08-12T05:24:14.000Z</time>
      </trkpt>
      <trkpt lat="45.20286" lon="6.00578">
        <ele>2259.6000976562</ele>
        <time>2023-08-12T05:24:16.000Z</time>
      </trkpt>
      <trkpt lat="45.20284" lon="6.00574">
        <ele>2259.6000976562</ele>
        <time>2023-08-12T05:24:21.000Z</time>
      </trkpt>
      <trkpt lat="45.20281" lon="6.00568">
        <ele>2259.3999023438</ele>
        <time>2023-08-12T05:24:29.000Z</time>
      </trkpt>
      <trkpt lat="45.20278" lon="6.00563">
        <ele>2260.3999023438</ele>
        <time>2023-08-12T05:24:41.000Z</time>
      </trkpt>
      <trkpt lat="45.20278" lon="6.00562">
        <ele>2260.6000976562</ele>
        <time>2023-08-12T05:24:42.000Z</time>
      </trkpt>
      <trkpt lat="45.20277" lon="6.00556">
        <ele>2261.8000488281</ele>
        <time>2023-08-12T05:24:49.000Z</time>
      </trkpt>
      <trkpt lat="45.20277" lon="6.00555">
        <ele>2261.8000488281</ele>
        <time>2023-08-12T05:24:51.000Z</time>
      </trkpt>
      <trkpt lat="45.2028" lon="6.00554">
        <ele>2262.8000488281</ele>
        <time>2023-08-12T05:24:57.000Z</time>
      </trkpt>
      <trkpt lat="45.20281" lon="6.00552">
        <ele>2263.3999023438</ele>
        <time>2023-08-12T05:25:00.000Z</time>
      </trkpt>
      <trkpt lat="45.20282" lon="6.00551">
        <ele>2264</ele>
        <time>2023-08-12T05:25:03.000Z</time>
      </trkpt>
      <trkpt lat="45.20283" lon="6.00548">
        <ele>2264.3999023438</ele>
        <time>2023-08-12T05:25:08.000Z</time>
      </trkpt>
      <trkpt lat="45.20282" lon="6.00544">
        <ele>2265</ele>
        <time>2023-08-12T05:25:15.000Z</time>
      </trkpt>
      <trkpt lat="45.20281" lon="6.00541">
        <ele>2266</ele>
        <time>2023-08-12T05:25:22.000Z</time>
      </trkpt>
      <trkpt lat="45.20281" lon="6.0054">
        <ele>2266.1999511719</ele>
        <time>2023-08-12T05:25:24.000Z</time>
      </trkpt>
      <trkpt lat="45.2028" lon="6.00538">
        <ele>2267</ele>
        <time>2023-08-12T05:25:31.000Z</time>
      </trkpt>
      <trkpt lat="45.2028" lon="6.00537">
        <ele>2267.1999511719</ele>
        <time>2023-08-12T05:25:32.000Z</time>
      </trkpt>
      <trkpt lat="45.20278" lon="6.00535">
        <ele>2268.1999511719</ele>
        <time>2023-08-12T05:25:39.000Z</time>
      </trkpt>
      <trkpt lat="45.20278" lon="6.00533">
        <ele>2269.1999511719</ele>
        <time>2023-08-12T05:25:46.000Z</time>
      </trkpt>
      <trkpt lat="45.20278" lon="6.00532">
        <ele>2269.1999511719</ele>
        <time>2023-08-12T05:25:47.000Z</time>
      </trkpt>
      <trkpt lat="45.20278" lon="6.00529">
        <ele>2270.1999511719</ele>
        <time>2023-08-12T05:25:55.000Z</time>
      </trkpt>
      <trkpt lat="45.20277" lon="6.00526">
        <ele>2271</ele>
        <time>2023-08-12T05:26:02.000Z</time>
      </trkpt>
      <trkpt lat="45.20278" lon="6.00526">
        <ele>2271.1999511719</ele>
        <time>2023-08-12T05:26:03.000Z</time>
      </trkpt>
      <trkpt lat="45.2028" lon="6.00522">
        <ele>2272.3999023438</ele>
        <time>2023-08-12T05:26:08.000Z</time>
      </trkpt>
      <trkpt lat="45.2028" lon="6.00521">
        <ele>2272.6000976562</ele>
        <time>2023-08-12T05:26:11.000Z</time>
      </trkpt>
      <trkpt lat="45.20282" lon="6.00519">
        <ele>2273.3999023438</ele>
        <time>2023-08-12T05:26:15.000Z</time>
      </trkpt>
      <trkpt lat="45.20283" lon="6.00515">
        <ele>2274</ele>
        <time>2023-08-12T05:26:21.000Z</time>
      </trkpt>
      <trkpt lat="45.20284" lon="6.00514">
        <ele>2274.3999023438</ele>
        <time>2023-08-12T05:26:23.000Z</time>
      </trkpt>
      <trkpt lat="45.20287" lon="6.00512">
        <ele>2275.3999023438</ele>
        <time>2023-08-12T05:26:29.000Z</time>
      </trkpt>
      <trkpt lat="45.20288" lon="6.00512">
        <ele>2275.3999023438</ele>
        <time>2023-08-12T05:26:30.000Z</time>
      </trkpt>
      <trkpt lat="45.2029" lon="6.0051">
        <ele>2276.3999023438</ele>
        <time>2023-08-12T05:26:36.000Z</time>
      </trkpt>
      <trkpt lat="45.20289" lon="6.00509">
        <ele>2276.6000976562</ele>
        <time>2023-08-12T05:26:37.000Z</time>
      </trkpt>
      <trkpt lat="45.20288" lon="6.00506">
        <ele>2277.3999023438</ele>
        <time>2023-08-12T05:26:43.000Z</time>
      </trkpt>
      <trkpt lat="45.20289" lon="6.00505">
        <ele>2277.6000976562</ele>
        <time>2023-08-12T05:26:46.000Z</time>
      </trkpt>
      <trkpt lat="45.20288" lon="6.00502">
        <ele>2278</ele>
        <time>2023-08-12T05:26:50.000Z</time>
      </trkpt>
      <trkpt lat="45.20287" lon="6.00502">
        <ele>2278.8000488281</ele>
        <time>2023-08-12T05:26:55.000Z</time>
      </trkpt>
      <trkpt lat="45.20287" lon="6.00501">
        <ele>2279</ele>
        <time>2023-08-12T05:26:58.000Z</time>
      </trkpt>
      <trkpt lat="45.20288" lon="6.00501">
        <ele>2279.8000488281</ele>
        <time>2023-08-12T05:27:02.000Z</time>
      </trkpt>
      <trkpt lat="45.20289" lon="6.00499">
        <ele>2280.3999023438</ele>
        <time>2023-08-12T05:27:07.000Z</time>
      </trkpt>
      <trkpt lat="45.20288" lon="6.005">
        <ele>2280.8000488281</ele>
        <time>2023-08-12T05:27:10.000Z</time>
      </trkpt>
      <trkpt lat="45.20288" lon="6.00496">
        <ele>2281.8000488281</ele>
        <time>2023-08-12T05:27:15.000Z</time>
      </trkpt>
      <trkpt lat="45.20288" lon="6.00495">
        <ele>2282</ele>
        <time>2023-08-12T05:27:17.000Z</time>
      </trkpt>
      <trkpt lat="45.20289" lon="6.00495">
        <ele>2283</ele>
        <time>2023-08-12T05:27:23.000Z</time>
      </trkpt>
      <trkpt lat="45.20293" lon="6.00493">
        <ele>2284.1999511719</ele>
        <time>2023-08-12T05:27:30.000Z</time>
      </trkpt>
      <trkpt lat="45.20297" lon="6.00491">
        <ele>2285.1999511719</ele>
        <time>2023-08-12T05:27:39.000Z</time>
      </trkpt>
      <trkpt lat="45.20297" lon="6.0049">
        <ele>2285.6000976562</ele>
        <time>2023-08-12T05:27:41.000Z</time>
      </trkpt>
      <trkpt lat="45.20295" lon="6.00485">
        <ele>2286.3999023438</ele>
        <time>2023-08-12T05:27:48.000Z</time>
      </trkpt>
      <trkpt lat="45.20295" lon="6.00483">
        <ele>2286.6000976562</ele>
        <time>2023-08-12T05:27:50.000Z</time>
      </trkpt>
      <trkpt lat="45.20294" lon="6.00481">
        <ele>2287.3999023438</ele>
        <time>2023-08-12T05:27:57.000Z</time>
      </trkpt>
      <trkpt lat="45.20294" lon="6.00479">
        <ele>2287.6000976562</ele>
        <time>2023-08-12T05:27:59.000Z</time>
      </trkpt>
      <trkpt lat="45.20295" lon="6.00476">
        <ele>2288.3999023438</ele>
        <time>2023-08-12T05:28:05.000Z</time>
      </trkpt>
      <trkpt lat="45.20296" lon="6.00476">
        <ele>2289</ele>
        <time>2023-08-12T05:28:08.000Z</time>
      </trkpt>
      <trkpt lat="45.20297" lon="6.00473">
        <ele>2289.6000976562</ele>
        <time>2023-08-12T05:28:12.000Z</time>
      </trkpt>
      <trkpt lat="45.20298" lon="6.00469">
        <ele>2290.1999511719</ele>
        <time>2023-08-12T05:28:18.000Z</time>
      </trkpt>
      <trkpt lat="45.203" lon="6.00465">
        <ele>2290.8000488281</ele>
        <time>2023-08-12T05:28:24.000Z</time>
      </trkpt>
      <trkpt lat="45.20299" lon="6.00464">
        <ele>2291</ele>
        <time>2023-08-12T05:28:27.000Z</time>
      </trkpt>
      <trkpt lat="45.20298" lon="6.00462">
        <ele>2291.8000488281</ele>
        <time>2023-08-12T05:28:33.000Z</time>
      </trkpt>
      <trkpt lat="45.20297" lon="6.00461">
        <ele>2292.1999511719</ele>
        <time>2023-08-12T05:28:36.000Z</time>
      </trkpt>
      <trkpt lat="45.20297" lon="6.00461">
        <ele>2293</ele>
        <time>2023-08-12T05:28:41.000Z</time>
      </trkpt>
      <trkpt lat="45.20297" lon="6.00459">
        <ele>2293.3999023438</ele>
        <time>2023-08-12T05:28:43.000Z</time>
      </trkpt>
      <trkpt lat="45.20296" lon="6.00456">
        <ele>2294</ele>
        <time>2023-08-12T05:28:48.000Z</time>
      </trkpt>
      <trkpt lat="45.20296" lon="6.00455">
        <ele>2294</ele>
        <time>2023-08-12T05:28:49.000Z</time>
      </trkpt>
      <trkpt lat="45.20297" lon="6.00455">
        <ele>2294.8000488281</ele>
        <time>2023-08-12T05:28:56.000Z</time>
      </trkpt>
      <trkpt lat="45.20297" lon="6.00455">
        <ele>2295.1999511719</ele>
        <time>2023-08-12T05:28:59.000Z</time>
      </trkpt>
      <trkpt lat="45.20299" lon="6.00454">
        <ele>2296</ele>
        <time>2023-08-12T05:29:03.000Z</time>
      </trkpt>
      <trkpt lat="45.20299" lon="6.00454">
        <ele>2296.1999511719</ele>
        <time>2023-08-12T05:29:05.000Z</time>
      </trkpt>
      <trkpt lat="45.203" lon="6.00455">
        <ele>2296.6000976562</ele>
        <time>2023-08-12T05:29:11.000Z</time>
      </trkpt>
      <trkpt lat="45.20301" lon="6.00455">
        <ele>2296.3999023438</ele>
        <time>2023-08-12T05:29:20.000Z</time>
      </trkpt>
      <trkpt lat="45.20301" lon="6.00456">
        <ele>2296.3999023438</ele>
        <time>2023-08-12T05:29:27.000Z</time>
      </trkpt>
      <trkpt lat="45.20301" lon="6.00454">
        <ele>2296.6000976562</ele>
        <time>2023-08-12T05:29:34.000Z</time>
      </trkpt>
      <trkpt lat="45.20294" lon="6.00447">
        <ele>2297.1999511719</ele>
        <time>2023-08-12T05:29:41.000Z</time>
      </trkpt>
      <trkpt lat="45.20294" lon="6.00447">
        <ele>2297.3999023438</ele>
        <time>2023-08-12T05:29:42.000Z</time>
      </trkpt>
      <trkpt lat="45.20294" lon="6.00443">
        <ele>2298.3999023438</ele>
        <time>2023-08-12T05:29:48.000Z</time>
      </trkpt>
      <trkpt lat="45.20293" lon="6.00441">
        <ele>2298.6000976562</ele>
        <time>2023-08-12T05:29:49.000Z</time>
      </trkpt>
      <trkpt lat="45.20291" lon="6.00437">
        <ele>2299.6000976562</ele>
        <time>2023-08-12T05:29:56.000Z</time>
      </trkpt>
      <trkpt lat="45.20292" lon="6.00436">
        <ele>2300.6000976562</ele>
        <time>2023-08-12T05:30:04.000Z</time>
      </trkpt>
      <trkpt lat="45.20292" lon="6.00435">
        <ele>2300.8000488281</ele>
        <time>2023-08-12T05:30:05.000Z</time>
      </trkpt>
      <trkpt lat="45.20293" lon="6.0043">
        <ele>2301.8000488281</ele>
        <time>2023-08-12T05:30:11.000Z</time>
      </trkpt>
      <trkpt lat="45.20293" lon="6.0043">
        <ele>2302</ele>
        <time>2023-08-12T05:30:13.000Z</time>
      </trkpt>
      <trkpt lat="45.20292" lon="6.00429">
        <ele>2302.8000488281</ele>
        <time>2023-08-12T05:30:19.000Z</time>
      </trkpt>
      <trkpt lat="45.2029" lon="6.00427">
        <ele>2303.1999511719</ele>
        <time>2023-08-12T05:30:21.000Z</time>
      </trkpt>
      <trkpt lat="45.2029" lon="6.00425">
        <ele>2303.8000488281</ele>
        <time>2023-08-12T05:30:44.000Z</time>
      </trkpt>
      <trkpt lat="45.20289" lon="6.0042">
        <ele>2304.3999023438</ele>
        <time>2023-08-12T05:30:51.000Z</time>
      </trkpt>
      <trkpt lat="45.20289" lon="6.00416">
        <ele>2304.8000488281</ele>
        <time>2023-08-12T05:30:55.000Z</time>
      </trkpt>
      <trkpt lat="45.20287" lon="6.00414">
        <ele>2305.6000976562</ele>
        <time>2023-08-12T05:31:00.000Z</time>
      </trkpt>
      <trkpt lat="45.20287" lon="6.00411">
        <ele>2307.1999511719</ele>
        <time>2023-08-12T05:31:09.000Z</time>
      </trkpt>
      <trkpt lat="45.20287" lon="6.00411">
        <ele>2307.3999023438</ele>
        <time>2023-08-12T05:31:11.000Z</time>
      </trkpt>
      <trkpt lat="45.20287" lon="6.00408">
        <ele>2308.1999511719</ele>
        <time>2023-08-12T05:31:18.000Z</time>
      </trkpt>
      <trkpt lat="45.20286" lon="6.00408">
        <ele>2308.3999023438</ele>
        <time>2023-08-12T05:31:19.000Z</time>
      </trkpt>
      <trkpt lat="45.20284" lon="6.00408">
        <ele>2309.1999511719</ele>
        <time>2023-08-12T05:31:25.000Z</time>
      </trkpt>
      <trkpt lat="45.20284" lon="6.00409">
        <ele>2309.3999023438</ele>
        <time>2023-08-12T05:31:27.000Z</time>
      </trkpt>
      <trkpt lat="45.20283" lon="6.0041">
        <ele>2310.6000976562</ele>
        <time>2023-08-12T05:31:32.000Z</time>
      </trkpt>
      <trkpt lat="45.20283" lon="6.0041">
        <ele>2311.1999511719</ele>
        <time>2023-08-12T05:31:36.000Z</time>
      </trkpt>
      <trkpt lat="45.20282" lon="6.00408">
        <ele>2311.6000976562</ele>
        <time>2023-08-12T05:31:39.000Z</time>
      </trkpt>
      <trkpt lat="45.2028" lon="6.00406">
        <ele>2312.3999023438</ele>
        <time>2023-08-12T05:31:44.000Z</time>
      </trkpt>
      <trkpt lat="45.20278" lon="6.00407">
        <ele>2312.6000976562</ele>
        <time>2023-08-12T05:31:49.000Z</time>
      </trkpt>
      <trkpt lat="45.20278" lon="6.00406">
        <ele>2313</ele>
        <time>2023-08-12T05:31:51.000Z</time>
      </trkpt>
      <trkpt lat="45.20276" lon="6.00403">
        <ele>2313.6000976562</ele>
        <time>2023-08-12T05:31:57.000Z</time>
      </trkpt>
      <trkpt lat="45.20271" lon="6.00402">
        <ele>2314.3999023438</ele>
        <time>2023-08-12T05:32:04.000Z</time>
      </trkpt>
      <trkpt lat="45.20272" lon="6.00403">
        <ele>2314.8000488281</ele>
        <time>2023-08-12T05:32:07.000Z</time>
      </trkpt>
      <trkpt lat="45.20273" lon="6.00405">
        <ele>2315</ele>
        <time>2023-08-12T05:32:13.000Z</time>
      </trkpt>
      <trkpt lat="45.20274" lon="6.00396">
        <ele>2314.8000488281</ele>
        <time>2023-08-12T05:32:21.000Z</time>
      </trkpt>
      <trkpt lat="45.20271" lon="6.00396">
        <ele>2314.8000488281</ele>
        <time>2023-08-12T05:32:27.000Z</time>
      </trkpt>
      <trkpt lat="45.2027" lon="6.00401">
        <ele>2314.6000976562</ele>
        <time>2023-08-12T05:32:35.000Z</time>
      </trkpt>
      <trkpt lat="45.20275" lon="6.00403">
        <ele>2314.1999511719</ele>
        <time>2023-08-12T05:32:44.000Z</time>
      </trkpt>
      <trkpt lat="45.20277" lon="6.00399">
        <ele>2313.8000488281</ele>
        <time>2023-08-12T05:32:51.000Z</time>
      </trkpt>
      <trkpt lat="45.20277" lon="6.00398">
        <ele>2313.6000976562</ele>
        <time>2023-08-12T05:32:53.000Z</time>
      </trkpt>
      <trkpt lat="45.20277" lon="6.00391">
        <ele>2313.6000976562</ele>
        <time>2023-08-12T05:33:00.000Z</time>
      </trkpt>
      <trkpt lat="45.20276" lon="6.00388">
        <ele>2314.3999023438</ele>
        <time>2023-08-12T05:33:07.000Z</time>
      </trkpt>
      <trkpt lat="45.20277" lon="6.00389">
        <ele>2314.8000488281</ele>
        <time>2023-08-12T05:33:10.000Z</time>
      </trkpt>
      <trkpt lat="45.20277" lon="6.00387">
        <ele>2314.8000488281</ele>
        <time>2023-08-12T05:33:14.000Z</time>
      </trkpt>
      <trkpt lat="45.20279" lon="6.00387">
        <ele>2315.3999023438</ele>
        <time>2023-08-12T05:33:21.000Z</time>
      </trkpt>
      <trkpt lat="45.2028" lon="6.00387">
        <ele>2315.1999511719</ele>
        <time>2023-08-12T05:33:28.000Z</time>
      </trkpt>
      <trkpt lat="45.2028" lon="6.00383">
        <ele>2315.8000488281</ele>
        <time>2023-08-12T05:33:34.000Z</time>
      </trkpt>
      <trkpt lat="45.2028" lon="6.00382">
        <ele>2316</ele>
        <time>2023-08-12T05:33:36.000Z</time>
      </trkpt>
      <trkpt lat="45.20279" lon="6.00379">
        <ele>2317</ele>
        <time>2023-08-12T05:33:41.000Z</time>
      </trkpt>
      <trkpt lat="45.20279" lon="6.00376">
        <ele>2317.3999023438</ele>
        <time>2023-08-12T05:33:44.000Z</time>
      </trkpt>
      <trkpt lat="45.20279" lon="6.00377">
        <ele>2318</ele>
        <time>2023-08-12T05:33:47.000Z</time>
      </trkpt>
      <trkpt lat="45.20278" lon="6.00373">
        <ele>2318.6000976562</ele>
        <time>2023-08-12T05:33:52.000Z</time>
      </trkpt>
      <trkpt lat="45.20278" lon="6.00371">
        <ele>2319</ele>
        <time>2023-08-12T05:33:57.000Z</time>
      </trkpt>
      <trkpt lat="45.20278" lon="6.0037">
        <ele>2319.3999023438</ele>
        <time>2023-08-12T05:33:59.000Z</time>
      </trkpt>
      <trkpt lat="45.20278" lon="6.00364">
        <ele>2320.1999511719</ele>
        <time>2023-08-12T05:34:06.000Z</time>
      </trkpt>
      <trkpt lat="45.20278" lon="6.00364">
        <ele>2320.1999511719</ele>
        <time>2023-08-12T05:34:07.000Z</time>
      </trkpt>
      <trkpt lat="45.20278" lon="6.00363">
        <ele>2321.1999511719</ele>
        <time>2023-08-12T05:34:13.000Z</time>
      </trkpt>
      <trkpt lat="45.20277" lon="6.00364">
        <ele>2321.6000976562</ele>
        <time>2023-08-12T05:34:16.000Z</time>
      </trkpt>
      <trkpt lat="45.20274" lon="6.00364">
        <ele>2322.3999023438</ele>
        <time>2023-08-12T05:34:24.000Z</time>
      </trkpt>
      <trkpt lat="45.20274" lon="6.00365">
        <ele>2322.3999023438</ele>
        <time>2023-08-12T05:34:25.000Z</time>
      </trkpt>
      <trkpt lat="45.20274" lon="6.00367">
        <ele>2323.1999511719</ele>
        <time>2023-08-12T05:34:32.000Z</time>
      </trkpt>
      <trkpt lat="45.20274" lon="6.00366">
        <ele>2323.3999023438</ele>
        <time>2023-08-12T05:34:34.000Z</time>
      </trkpt>
      <trkpt lat="45.20272" lon="6.00361">
        <ele>2324.1999511719</ele>
        <time>2023-08-12T05:34:39.000Z</time>
      </trkpt>
      <trkpt lat="45.20271" lon="6.00361">
        <ele>2324.3999023438</ele>
        <time>2023-08-12T05:34:41.000Z</time>
      </trkpt>
      <trkpt lat="45.2027" lon="6.00362">
        <ele>2325</ele>
        <time>2023-08-12T05:34:46.000Z</time>
      </trkpt>
      <trkpt lat="45.2027" lon="6.00361">
        <ele>2325.6000976562</ele>
        <time>2023-08-12T05:34:50.000Z</time>
      </trkpt>
      <trkpt lat="45.20268" lon="6.00359">
        <ele>2326.3999023438</ele>
        <time>2023-08-12T05:34:55.000Z</time>
      </trkpt>
      <trkpt lat="45.20267" lon="6.00356">
        <ele>2326.8000488281</ele>
        <time>2023-08-12T05:34:57.000Z</time>
      </trkpt>
      <trkpt lat="45.20268" lon="6.00354">
        <ele>2326.8000488281</ele>
        <time>2023-08-12T05:35:00.000Z</time>
      </trkpt>
      <trkpt lat="45.20265" lon="6.00352">
        <ele>2327.3999023438</ele>
        <time>2023-08-12T05:35:07.000Z</time>
      </trkpt>
      <trkpt lat="45.20266" lon="6.00356">
        <ele>2327.8000488281</ele>
        <time>2023-08-12T05:35:12.000Z</time>
      </trkpt>
      <trkpt lat="45.20266" lon="6.00356">
        <ele>2328.1999511719</ele>
        <time>2023-08-12T05:35:15.000Z</time>
      </trkpt>
      <trkpt lat="45.20264" lon="6.00355">
        <ele>2328.8000488281</ele>
        <time>2023-08-12T05:35:21.000Z</time>
      </trkpt>
      <trkpt lat="45.20263" lon="6.00354">
        <ele>2329.1999511719</ele>
        <time>2023-08-12T05:35:24.000Z</time>
      </trkpt>
      <trkpt lat="45.20263" lon="6.00354">
        <ele>2329.8000488281</ele>
        <time>2023-08-12T05:35:29.000Z</time>
      </trkpt>
      <trkpt lat="45.20264" lon="6.00354">
        <ele>2330.3999023438</ele>
        <time>2023-08-12T05:35:32.000Z</time>
      </trkpt>
      <trkpt lat="45.20263" lon="6.00353">
        <ele>2330.8000488281</ele>
        <time>2023-08-12T05:35:36.000Z</time>
      </trkpt>
      <trkpt lat="45.20261" lon="6.00351">
        <ele>2331.6000976562</ele>
        <time>2023-08-12T05:35:41.000Z</time>
      </trkpt>
      <trkpt lat="45.20261" lon="6.00351">
        <ele>2332</ele>
        <time>2023-08-12T05:35:44.000Z</time>
      </trkpt>
      <trkpt lat="45.20262" lon="6.00353">
        <ele>2332.3999023438</ele>
        <time>2023-08-12T05:35:48.000Z</time>
      </trkpt>
      <trkpt lat="45.20263" lon="6.00351">
        <ele>2332.8000488281</ele>
        <time>2023-08-12T05:35:56.000Z</time>
      </trkpt>
      <trkpt lat="45.20264" lon="6.00351">
        <ele>2333</ele>
        <time>2023-08-12T05:35:58.000Z</time>
      </trkpt>
      <trkpt lat="45.20265" lon="6.00351">
        <ele>2333.6000976562</ele>
        <time>2023-08-12T05:36:02.000Z</time>
      </trkpt>
      <trkpt lat="45.20261" lon="6.00347">
        <ele>2334.1999511719</ele>
        <time>2023-08-12T05:36:07.000Z</time>
      </trkpt>
      <trkpt lat="45.20259" lon="6.00346">
        <ele>2334.3999023438</ele>
        <time>2023-08-12T05:36:09.000Z</time>
      </trkpt>
      <trkpt lat="45.20258" lon="6.00348">
        <ele>2335.1999511719</ele>
        <time>2023-08-12T05:36:14.000Z</time>
      </trkpt>
      <trkpt lat="45.20259" lon="6.0035">
        <ele>2335.3999023438</ele>
        <time>2023-08-12T05:36:16.000Z</time>
      </trkpt>
      <trkpt lat="45.20256" lon="6.00347">
        <ele>2335.8000488281</ele>
        <time>2023-08-12T05:36:23.000Z</time>
      </trkpt>
      <trkpt lat="45.20253" lon="6.00343">
        <ele>2336.1999511719</ele>
        <time>2023-08-12T05:36:31.000Z</time>
      </trkpt>
      <trkpt lat="45.20252" lon="6.00341">
        <ele>2337.1999511719</ele>
        <time>2023-08-12T05:36:39.000Z</time>
      </trkpt>
      <trkpt lat="45.20253" lon="6.00338">
        <ele>2338.3999023438</ele>
        <time>2023-08-12T05:36:46.000Z</time>
      </trkpt>
      <trkpt lat="45.20255" lon="6.00332">
        <ele>2339</ele>
        <time>2023-08-12T05:36:54.000Z</time>
      </trkpt>
      <trkpt lat="45.20256" lon="6.00329">
        <ele>2339.3999023438</ele>
        <time>2023-08-12T05:36:57.000Z</time>
      </trkpt>
      <trkpt lat="45.20259" lon="6.00327">
        <ele>2340</ele>
        <time>2023-08-12T05:37:02.000Z</time>
      </trkpt>
      <trkpt lat="45.2026" lon="6.00324">
        <ele>2340.6000976562</ele>
        <time>2023-08-12T05:37:08.000Z</time>
      </trkpt>
      <trkpt lat="45.20261" lon="6.00323">
        <ele>2340.6000976562</ele>
        <time>2023-08-12T05:37:09.000Z</time>
      </trkpt>
      <trkpt lat="45.20262" lon="6.00321">
        <ele>2341.6000976562</ele>
        <time>2023-08-12T05:37:15.000Z</time>
      </trkpt>
      <trkpt lat="45.20262" lon="6.0032">
        <ele>2342</ele>
        <time>2023-08-12T05:37:18.000Z</time>
      </trkpt>
      <trkpt lat="45.20263" lon="6.00318">
        <ele>2342.6000976562</ele>
        <time>2023-08-12T05:37:24.000Z</time>
      </trkpt>
      <trkpt lat="45.20266" lon="6.00314">
        <ele>2343.1999511719</ele>
        <time>2023-08-12T05:37:29.000Z</time>
      </trkpt>
      <trkpt lat="45.20266" lon="6.00306">
        <ele>2343.6000976562</ele>
        <time>2023-08-12T05:37:37.000Z</time>
      </trkpt>
      <trkpt lat="45.20266" lon="6.00306">
        <ele>2343.8000488281</ele>
        <time>2023-08-12T05:37:38.000Z</time>
      </trkpt>
      <trkpt lat="45.20262" lon="6.00303">
        <ele>2344.6000976562</ele>
        <time>2023-08-12T05:37:44.000Z</time>
      </trkpt>
      <trkpt lat="45.20262" lon="6.00302">
        <ele>2344.8000488281</ele>
        <time>2023-08-12T05:37:45.000Z</time>
      </trkpt>
      <trkpt lat="45.20263" lon="6.00302">
        <ele>2345.8000488281</ele>
        <time>2023-08-12T05:37:52.000Z</time>
      </trkpt>
      <trkpt lat="45.20263" lon="6.00302">
        <ele>2345.8000488281</ele>
        <time>2023-08-12T05:37:53.000Z</time>
      </trkpt>
      <trkpt lat="45.20262" lon="6.00303">
        <ele>2346.1999511719</ele>
        <time>2023-08-12T05:37:57.000Z</time>
      </trkpt>
      <trkpt lat="45.20261" lon="6.00303">
        <ele>2346.8000488281</ele>
        <time>2023-08-12T05:38:00.000Z</time>
      </trkpt>
      <trkpt lat="45.20261" lon="6.00302">
        <ele>2347</ele>
        <time>2023-08-12T05:38:01.000Z</time>
      </trkpt>
      <trkpt lat="45.20257" lon="6.00298">
        <ele>2348.1999511719</ele>
        <time>2023-08-12T05:38:09.000Z</time>
      </trkpt>
      <trkpt lat="45.20257" lon="6.00291">
        <ele>2348.1999511719</ele>
        <time>2023-08-12T05:38:16.000Z</time>
      </trkpt>
      <trkpt lat="45.20255" lon="6.0029">
        <ele>2348.3999023438</ele>
        <time>2023-08-12T05:38:24.000Z</time>
      </trkpt>
      <trkpt lat="45.20255" lon="6.00286">
        <ele>2348.6000976562</ele>
        <time>2023-08-12T05:38:31.000Z</time>
      </trkpt>
      <trkpt lat="45.20254" lon="6.00281">
        <ele>2348.3999023438</ele>
        <time>2023-08-12T05:38:40.000Z</time>
      </trkpt>
      <trkpt lat="45.20254" lon="6.00278">
        <ele>2348.3999023438</ele>
        <time>2023-08-12T05:38:48.000Z</time>
      </trkpt>
      <trkpt lat="45.20255" lon="6.00279">
        <ele>2348.1999511719</ele>
        <time>2023-08-12T05:38:55.000Z</time>
      </trkpt>
      <trkpt lat="45.20255" lon="6.00277">
        <ele>2348.1999511719</ele>
        <time>2023-08-12T05:39:02.000Z</time>
      </trkpt>
      <trkpt lat="45.20252" lon="6.00277">
        <ele>2348.3999023438</ele>
        <time>2023-08-12T05:39:11.000Z</time>
      </trkpt>
      <trkpt lat="45.20255" lon="6.0028">
        <ele>2348.3999023438</ele>
        <time>2023-08-12T05:39:20.000Z</time>
      </trkpt>
      <trkpt lat="45.20251" lon="6.00277">
        <ele>2349.3999023438</ele>
        <time>2023-08-12T05:39:25.000Z</time>
      </trkpt>
      <trkpt lat="45.2025" lon="6.00276">
        <ele>2349.3999023438</ele>
        <time>2023-08-12T05:39:26.000Z</time>
      </trkpt>
      <trkpt lat="45.20246" lon="6.00272">
        <ele>2350.3999023438</ele>
        <time>2023-08-12T05:39:33.000Z</time>
      </trkpt>
      <trkpt lat="45.20247" lon="6.00273">
        <ele>2350.6000976562</ele>
        <time>2023-08-12T05:39:34.000Z</time>
      </trkpt>
      <trkpt lat="45.20243" lon="6.00268">
        <ele>2351.6000976562</ele>
        <time>2023-08-12T05:39:40.000Z</time>
      </trkpt>
      <trkpt lat="45.20243" lon="6.00268">
        <ele>2351.8000488281</ele>
        <time>2023-08-12T05:39:42.000Z</time>
      </trkpt>
      <trkpt lat="45.20244" lon="6.00268">
        <ele>2352.6000976562</ele>
        <time>2023-08-12T05:39:47.000Z</time>
      </trkpt>
      <trkpt lat="45.20244" lon="6.00268">
        <ele>2352.8000488281</ele>
        <time>2023-08-12T05:39:50.000Z</time>
      </trkpt>
      <trkpt lat="45.20241" lon="6.00264">
        <ele>2354.6000976562</ele>
        <time>2023-08-12T05:40:02.000Z</time>
      </trkpt>
      <trkpt lat="45.2024" lon="6.00263">
        <ele>2354.8000488281</ele>
        <time>2023-08-12T05:40:03.000Z</time>
      </trkpt>
      <trkpt lat="45.20239" lon="6.00257">
        <ele>2355.3999023438</ele>
        <time>2023-08-12T05:40:11.000Z</time>
      </trkpt>
      <trkpt lat="45.20238" lon="6.00255">
        <ele>2355.8000488281</ele>
        <time>2023-08-12T05:40:13.000Z</time>
      </trkpt>
      <trkpt lat="45.2024" lon="6.00254">
        <ele>2356.3999023438</ele>
        <time>2023-08-12T05:40:18.000Z</time>
      </trkpt>
      <trkpt lat="45.2024" lon="6.00253">
        <ele>2356.8000488281</ele>
        <time>2023-08-12T05:40:20.000Z</time>
      </trkpt>
      <trkpt lat="45.2024" lon="6.00251">
        <ele>2357.3999023438</ele>
        <time>2023-08-12T05:40:25.000Z</time>
      </trkpt>
      <trkpt lat="45.20239" lon="6.0025">
        <ele>2358</ele>
        <time>2023-08-12T05:40:28.000Z</time>
      </trkpt>
      <trkpt lat="45.20238" lon="6.00249">
        <ele>2358.8000488281</ele>
        <time>2023-08-12T05:40:34.000Z</time>
      </trkpt>
      <trkpt lat="45.20238" lon="6.00249">
        <ele>2359.1999511719</ele>
        <time>2023-08-12T05:40:36.000Z</time>
      </trkpt>
      <trkpt lat="45.20239" lon="6.00249">
        <ele>2359.8000488281</ele>
        <time>2023-08-12T05:40:41.000Z</time>
      </trkpt>
      <trkpt lat="45.2024" lon="6.00249">
        <ele>2360.1999511719</ele>
        <time>2023-08-12T05:40:44.000Z</time>
      </trkpt>
      <trkpt lat="45.20241" lon="6.00246">
        <ele>2360.8000488281</ele>
        <time>2023-08-12T05:40:48.000Z</time>
      </trkpt>
      <trkpt lat="45.20241" lon="6.00245">
        <ele>2361.3999023438</ele>
        <time>2023-08-12T05:40:53.000Z</time>
      </trkpt>
      <trkpt lat="45.20242" lon="6.00245">
        <ele>2361.3999023438</ele>
        <time>2023-08-12T05:40:54.000Z</time>
      </trkpt>
      <trkpt lat="45.20241" lon="6.00244">
        <ele>2362.3999023438</ele>
        <time>2023-08-12T05:41:00.000Z</time>
      </trkpt>
      <trkpt lat="45.2024" lon="6.00243">
        <ele>2362.8000488281</ele>
        <time>2023-08-12T05:41:02.000Z</time>
      </trkpt>
      <trkpt lat="45.20238" lon="6.00238">
        <ele>2363.6000976562</ele>
        <time>2023-08-12T05:41:09.000Z</time>
      </trkpt>
      <trkpt lat="45.20236" lon="6.00233">
        <ele>2364.6000976562</ele>
        <time>2023-08-12T05:41:15.000Z</time>
      </trkpt>
      <trkpt lat="45.20236" lon="6.00232">
        <ele>2365</ele>
        <time>2023-08-12T05:41:18.000Z</time>
      </trkpt>
      <trkpt lat="45.20236" lon="6.00231">
        <ele>2365.6000976562</ele>
        <time>2023-08-12T05:41:22.000Z</time>
      </trkpt>
      <trkpt lat="45.20237" lon="6.0023">
        <ele>2366</ele>
        <time>2023-08-12T05:41:26.000Z</time>
      </trkpt>
      <trkpt lat="45.20238" lon="6.00226">
        <ele>2366.8000488281</ele>
        <time>2023-08-12T05:41:34.000Z</time>
      </trkpt>
      <trkpt lat="45.20238" lon="6.00225">
        <ele>2367.8000488281</ele>
        <time>2023-08-12T05:41:41.000Z</time>
      </trkpt>
      <trkpt lat="45.20238" lon="6.00224">
        <ele>2367.8000488281</ele>
        <time>2023-08-12T05:41:42.000Z</time>
      </trkpt>
      <trkpt lat="45.20237" lon="6.00221">
        <ele>2368.8000488281</ele>
        <time>2023-08-12T05:41:49.000Z</time>
      </trkpt>
      <trkpt lat="45.20236" lon="6.00217">
        <ele>2369.1999511719</ele>
        <time>2023-08-12T05:41:52.000Z</time>
      </trkpt>
      <trkpt lat="45.20237" lon="6.00216">
        <ele>2370</ele>
        <time>2023-08-12T05:41:56.000Z</time>
      </trkpt>
      <trkpt lat="45.20237" lon="6.00217">
        <ele>2370.3999023438</ele>
        <time>2023-08-12T05:42:01.000Z</time>
      </trkpt>
      <trkpt lat="45.20236" lon="6.00218">
        <ele>2371</ele>
        <time>2023-08-12T05:42:06.000Z</time>
      </trkpt>
      <trkpt lat="45.20236" lon="6.00216">
        <ele>2371.1999511719</ele>
        <time>2023-08-12T05:42:08.000Z</time>
      </trkpt>
      <trkpt lat="45.20233" lon="6.00213">
        <ele>2372.1999511719</ele>
        <time>2023-08-12T05:42:14.000Z</time>
      </trkpt>
      <trkpt lat="45.20232" lon="6.00212">
        <ele>2372.3999023438</ele>
        <time>2023-08-12T05:42:15.000Z</time>
      </trkpt>
      <trkpt lat="45.20231" lon="6.00209">
        <ele>2373.1999511719</ele>
        <time>2023-08-12T05:42:21.000Z</time>
      </trkpt>
      <trkpt lat="45.20232" lon="6.00208">
        <ele>2373.3999023438</ele>
        <time>2023-08-12T05:42:22.000Z</time>
      </trkpt>
      <trkpt lat="45.20233" lon="6.00209">
        <ele>2374.1999511719</ele>
        <time>2023-08-12T05:42:28.000Z</time>
      </trkpt>
      <trkpt lat="45.20234" lon="6.00209">
        <ele>2374.3999023438</ele>
        <time>2023-08-12T05:42:30.000Z</time>
      </trkpt>
      <trkpt lat="45.20234" lon="6.00207">
        <ele>2375</ele>
        <time>2023-08-12T05:42:38.000Z</time>
      </trkpt>
      <trkpt lat="45.20234" lon="6.00207">
        <ele>2375.1999511719</ele>
        <time>2023-08-12T05:42:40.000Z</time>
      </trkpt>
      <trkpt lat="45.20231" lon="6.00205">
        <ele>2376.1999511719</ele>
        <time>2023-08-12T05:42:46.000Z</time>
      </trkpt>
      <trkpt lat="45.20231" lon="6.00204">
        <ele>2376.3999023438</ele>
        <time>2023-08-12T05:42:47.000Z</time>
      </trkpt>
      <trkpt lat="45.20232" lon="6.00202">
        <ele>2377.1999511719</ele>
        <time>2023-08-12T05:42:54.000Z</time>
      </trkpt>
      <trkpt lat="45.20231" lon="6.00202">
        <ele>2377.3999023438</ele>
        <time>2023-08-12T05:42:56.000Z</time>
      </trkpt>
      <trkpt lat="45.2023" lon="6.00203">
        <ele>2377.8000488281</ele>
        <time>2023-08-12T05:43:02.000Z</time>
      </trkpt>
      <trkpt lat="45.2023" lon="6.00209">
        <ele>2377.8000488281</ele>
        <time>2023-08-12T05:43:11.000Z</time>
      </trkpt>
      <trkpt lat="45.20229" lon="6.00209">
        <ele>2377.1999511719</ele>
        <time>2023-08-12T05:43:20.000Z</time>
      </trkpt>
      <trkpt lat="45.20231" lon="6.00208">
        <ele>2377.1999511719</ele>
        <time>2023-08-12T05:43:28.000Z</time>
      </trkpt>
      <trkpt lat="45.20231" lon="6.00207">
        <ele>2377.3999023438</ele>
        <time>2023-08-12T05:43:35.000Z</time>
      </trkpt>
      <trkpt lat="45.20232" lon="6.00202">
        <ele>2378.3999023438</ele>
        <time>2023-08-12T05:43:42.000Z</time>
      </trkpt>
      <trkpt lat="45.20232" lon="6.00202">
        <ele>2378.6000976562</ele>
        <time>2023-08-12T05:43:43.000Z</time>
      </trkpt>
      <trkpt lat="45.2023" lon="6.00203">
        <ele>2379.6000976562</ele>
        <time>2023-08-12T05:43:51.000Z</time>
      </trkpt>
      <trkpt lat="45.20229" lon="6.002">
        <ele>2379.6000976562</ele>
        <time>2023-08-12T05:43:52.000Z</time>
      </trkpt>
      <trkpt lat="45.20229" lon="6.002">
        <ele>2380.6000976562</ele>
        <time>2023-08-12T05:43:57.000Z</time>
      </trkpt>
      <trkpt lat="45.20228" lon="6.002">
        <ele>2380.6000976562</ele>
        <time>2023-08-12T05:43:59.000Z</time>
      </trkpt>
      <trkpt lat="45.20227" lon="6.00198">
        <ele>2381.6000976562</ele>
        <time>2023-08-12T05:44:06.000Z</time>
      </trkpt>
      <trkpt lat="45.20227" lon="6.00197">
        <ele>2382</ele>
        <time>2023-08-12T05:44:07.000Z</time>
      </trkpt>
      <trkpt lat="45.20228" lon="6.00198">
        <ele>2382.6000976562</ele>
        <time>2023-08-12T05:44:13.000Z</time>
      </trkpt>
      <trkpt lat="45.20226" lon="6.00197">
        <ele>2383</ele>
        <time>2023-08-12T05:44:18.000Z</time>
      </trkpt>
      <trkpt lat="45.20225" lon="6.00197">
        <ele>2383.1999511719</ele>
        <time>2023-08-12T05:44:22.000Z</time>
      </trkpt>
      <trkpt lat="45.20225" lon="6.00197">
        <ele>2384.1999511719</ele>
        <time>2023-08-12T05:44:36.000Z</time>
      </trkpt>
      <trkpt lat="45.20226" lon="6.00192">
        <ele>2385.1999511719</ele>
        <time>2023-08-12T05:44:51.000Z</time>
      </trkpt>
      <trkpt lat="45.20224" lon="6.00191">
        <ele>2385.1999511719</ele>
        <time>2023-08-12T05:44:59.000Z</time>
      </trkpt>
      <trkpt lat="45.20222" lon="6.00194">
        <ele>2386.1999511719</ele>
        <time>2023-08-12T05:45:09.000Z</time>
      </trkpt>
      <trkpt lat="45.20224" lon="6.00191">
        <ele>2386.3999023438</ele>
        <time>2023-08-12T05:45:14.000Z</time>
      </trkpt>
      <trkpt lat="45.20223" lon="6.00188">
        <ele>2387</ele>
        <time>2023-08-12T05:45:19.000Z</time>
      </trkpt>
      <trkpt lat="45.20223" lon="6.00187">
        <ele>2387.3999023438</ele>
        <time>2023-08-12T05:45:20.000Z</time>
      </trkpt>
      <trkpt lat="45.20223" lon="6.00183">
        <ele>2388</ele>
        <time>2023-08-12T05:45:28.000Z</time>
      </trkpt>
      <trkpt lat="45.20222" lon="6.00182">
        <ele>2388.3999023438</ele>
        <time>2023-08-12T05:45:31.000Z</time>
      </trkpt>
      <trkpt lat="45.20221" lon="6.00179">
        <ele>2389.3999023438</ele>
        <time>2023-08-12T05:45:38.000Z</time>
      </trkpt>
      <trkpt lat="45.20221" lon="6.00178">
        <ele>2390.6000976562</ele>
        <time>2023-08-12T05:45:44.000Z</time>
      </trkpt>
      <trkpt lat="45.20221" lon="6.00177">
        <ele>2390.8000488281</ele>
        <time>2023-08-12T05:45:46.000Z</time>
      </trkpt>
      <trkpt lat="45.2022" lon="6.00176">
        <ele>2391.6000976562</ele>
        <time>2023-08-12T05:45:50.000Z</time>
      </trkpt>
      <trkpt lat="45.2022" lon="6.00173">
        <ele>2392.1999511719</ele>
        <time>2023-08-12T05:45:54.000Z</time>
      </trkpt>
      <trkpt lat="45.20219" lon="6.00168">
        <ele>2392.6000976562</ele>
        <time>2023-08-12T05:45:58.000Z</time>
      </trkpt>
      <trkpt lat="45.20218" lon="6.00166">
        <ele>2393.3999023438</ele>
        <time>2023-08-12T05:46:02.000Z</time>
      </trkpt>
      <trkpt lat="45.20218" lon="6.00164">
        <ele>2393.6000976562</ele>
        <time>2023-08-12T05:46:04.000Z</time>
      </trkpt>
      <trkpt lat="45.20219" lon="6.00161">
        <ele>2394.1999511719</ele>
        <time>2023-08-12T05:46:09.000Z</time>
      </trkpt>
      <trkpt lat="45.2022" lon="6.00161">
        <ele>2394.8000488281</ele>
        <time>2023-08-12T05:46:13.000Z</time>
      </trkpt>
      <trkpt lat="45.2022" lon="6.00163">
        <ele>2394.8000488281</ele>
        <time>2023-08-12T05:46:17.000Z</time>
      </trkpt>
      <trkpt lat="45.20219" lon="6.00164">
        <ele>2395.8000488281</ele>
        <time>2023-08-12T05:46:24.000Z</time>
      </trkpt>
      <trkpt lat="45.20219" lon="6.00165">
        <ele>2396</ele>
        <time>2023-08-12T05:46:26.000Z</time>
      </trkpt>
      <trkpt lat="45.20217" lon="6.00164">
        <ele>2397</ele>
        <time>2023-08-12T05:46:32.000Z</time>
      </trkpt>
      <trkpt lat="45.20217" lon="6.00163">
        <ele>2397.1999511719</ele>
        <time>2023-08-12T05:46:33.000Z</time>
      </trkpt>
      <trkpt lat="45.20218" lon="6.00157">
        <ele>2397.8000488281</ele>
        <time>2023-08-12T05:46:40.000Z</time>
      </trkpt>
      <trkpt lat="45.20218" lon="6.00158">
        <ele>2398.1999511719</ele>
        <time>2023-08-12T05:46:43.000Z</time>
      </trkpt>
      <trkpt lat="45.20218" lon="6.00158">
        <ele>2398.6000976562</ele>
        <time>2023-08-12T05:46:45.000Z</time>
      </trkpt>
      <trkpt lat="45.20216" lon="6.00158">
        <ele>2399.1999511719</ele>
        <time>2023-08-12T05:46:52.000Z</time>
      </trkpt>
      <trkpt lat="45.20216" lon="6.00158">
        <ele>2399.6000976562</ele>
        <time>2023-08-12T05:46:54.000Z</time>
      </trkpt>
      <trkpt lat="45.20214" lon="6.0016">
        <ele>2400.3999023438</ele>
        <time>2023-08-12T05:46:58.000Z</time>
      </trkpt>
      <trkpt lat="45.20215" lon="6.00159">
        <ele>2401</ele>
        <time>2023-08-12T05:47:01.000Z</time>
      </trkpt>
      <trkpt lat="45.20213" lon="6.00157">
        <ele>2401.3999023438</ele>
        <time>2023-08-12T05:47:09.000Z</time>
      </trkpt>
      <trkpt lat="45.20214" lon="6.00153">
        <ele>2402.1999511719</ele>
        <time>2023-08-12T05:47:15.000Z</time>
      </trkpt>
      <trkpt lat="45.20214" lon="6.00152">
        <ele>2402.3999023438</ele>
        <time>2023-08-12T05:47:18.000Z</time>
      </trkpt>
      <trkpt lat="45.20213" lon="6.00154">
        <ele>2402.8000488281</ele>
        <time>2023-08-12T05:47:22.000Z</time>
      </trkpt>
      <trkpt lat="45.20213" lon="6.00153">
        <ele>2403.3999023438</ele>
        <time>2023-08-12T05:47:27.000Z</time>
      </trkpt>
      <trkpt lat="45.20208" lon="6.0015">
        <ele>2405.1999511719</ele>
        <time>2023-08-12T05:47:45.000Z</time>
      </trkpt>
      <trkpt lat="45.20208" lon="6.00148">
        <ele>2405.6000976562</ele>
        <time>2023-08-12T05:47:48.000Z</time>
      </trkpt>
      <trkpt lat="45.20209" lon="6.00147">
        <ele>2406</ele>
        <time>2023-08-12T05:47:53.000Z</time>
      </trkpt>
      <trkpt lat="45.2021" lon="6.0015">
        <ele>2406.1999511719</ele>
        <time>2023-08-12T05:48:03.000Z</time>
      </trkpt>
      <trkpt lat="45.20209" lon="6.00151">
        <ele>2406</ele>
        <time>2023-08-12T05:48:13.000Z</time>
      </trkpt>
      <trkpt lat="45.20207" lon="6.00151">
        <ele>2406</ele>
        <time>2023-08-12T05:48:22.000Z</time>
      </trkpt>
      <trkpt lat="45.20206" lon="6.00147">
        <ele>2406.3999023438</ele>
        <time>2023-08-12T05:48:31.000Z</time>
      </trkpt>
      <trkpt lat="45.20206" lon="6.00148">
        <ele>2406.6000976562</ele>
        <time>2023-08-12T05:48:33.000Z</time>
      </trkpt>
      <trkpt lat="45.20206" lon="6.00147">
        <ele>2406.8000488281</ele>
        <time>2023-08-12T05:48:41.000Z</time>
      </trkpt>
      <trkpt lat="45.20206" lon="6.00148">
        <ele>2407</ele>
        <time>2023-08-12T05:48:50.000Z</time>
      </trkpt>
      <trkpt lat="45.20207" lon="6.00148">
        <ele>2407.3999023438</ele>
        <time>2023-08-12T05:48:59.000Z</time>
      </trkpt>
      <trkpt lat="45.20206" lon="6.00148">
        <ele>2407.6000976562</ele>
        <time>2023-08-12T05:49:06.000Z</time>
      </trkpt>
      <trkpt lat="45.20205" lon="6.0015">
        <ele>2407.8000488281</ele>
        <time>2023-08-12T05:49:09.000Z</time>
      </trkpt>
      <trkpt lat="45.20206" lon="6.0015">
        <ele>2408</ele>
        <time>2023-08-12T05:49:13.000Z</time>
      </trkpt>
      <trkpt lat="45.20205" lon="6.00149">
        <ele>2408.6000976562</ele>
        <time>2023-08-12T05:49:19.000Z</time>
      </trkpt>
      <trkpt lat="45.20205" lon="6.00147">
        <ele>2408.6000976562</ele>
        <time>2023-08-12T05:49:26.000Z</time>
      </trkpt>
      <trkpt lat="45.20205" lon="6.00147">
        <ele>2408.8000488281</ele>
        <time>2023-08-12T05:49:32.000Z</time>
      </trkpt>
      <trkpt lat="45.20202" lon="6.00145">
        <ele>2408.8000488281</ele>
        <time>2023-08-12T05:49:36.000Z</time>
      </trkpt>
      <trkpt lat="45.20201" lon="6.00144">
        <ele>2409.6000976562</ele>
        <time>2023-08-12T05:49:45.000Z</time>
      </trkpt>
      <trkpt lat="45.202" lon="6.00144">
        <ele>2409.8000488281</ele>
        <time>2023-08-12T05:49:48.000Z</time>
      </trkpt>
      <trkpt lat="45.20199" lon="6.00147">
        <ele>2410.8000488281</ele>
        <time>2023-08-12T05:49:54.000Z</time>
      </trkpt>
      <trkpt lat="45.20198" lon="6.00147">
        <ele>2411</ele>
        <time>2023-08-12T05:49:55.000Z</time>
      </trkpt>
      <trkpt lat="45.202" lon="6.00143">
        <ele>2411.8000488281</ele>
        <time>2023-08-12T05:50:02.000Z</time>
      </trkpt>
      <trkpt lat="45.202" lon="6.00142">
        <ele>2412.1999511719</ele>
        <time>2023-08-12T05:50:04.000Z</time>
      </trkpt>
      <trkpt lat="45.202" lon="6.0014">
        <ele>2412.8000488281</ele>
        <time>2023-08-12T05:50:09.000Z</time>
      </trkpt>
      <trkpt lat="45.202" lon="6.00138">
        <ele>2413.1999511719</ele>
        <time>2023-08-12T05:50:12.000Z</time>
      </trkpt>
      <trkpt lat="45.202" lon="6.00136">
        <ele>2413.8000488281</ele>
        <time>2023-08-12T05:50:16.000Z</time>
      </trkpt>
      <trkpt lat="45.20199" lon="6.00136">
        <ele>2414.1999511719</ele>
        <time>2023-08-12T05:50:21.000Z</time>
      </trkpt>
      <trkpt lat="45.20199" lon="6.00135">
        <ele>2414.6000976562</ele>
        <time>2023-08-12T05:50:23.000Z</time>
      </trkpt>
      <trkpt lat="45.20198" lon="6.00134">
        <ele>2415.3999023438</ele>
        <time>2023-08-12T05:50:26.000Z</time>
      </trkpt>
      <trkpt lat="45.20197" lon="6.00134">
        <ele>2415.6000976562</ele>
        <time>2023-08-12T05:50:29.000Z</time>
      </trkpt>
      <trkpt lat="45.20196" lon="6.00137">
        <ele>2415.8000488281</ele>
        <time>2023-08-12T05:50:38.000Z</time>
      </trkpt>
      <trkpt lat="45.20194" lon="6.00136">
        <ele>2416.1999511719</ele>
        <time>2023-08-12T05:50:45.000Z</time>
      </trkpt>
      <trkpt lat="45.20195" lon="6.00134">
        <ele>2416</ele>
        <time>2023-08-12T05:50:54.000Z</time>
      </trkpt>
      <trkpt lat="45.20195" lon="6.00134">
        <ele>2416.3999023438</ele>
        <time>2023-08-12T05:50:57.000Z</time>
      </trkpt>
      <trkpt lat="45.20195" lon="6.00132">
        <ele>2417.1999511719</ele>
        <time>2023-08-12T05:51:02.000Z</time>
      </trkpt>
      <trkpt lat="45.20195" lon="6.00132">
        <ele>2417.3999023438</ele>
        <time>2023-08-12T05:51:03.000Z</time>
      </trkpt>
      <trkpt lat="45.20194" lon="6.00129">
        <ele>2418.6000976562</ele>
        <time>2023-08-12T05:51:08.000Z</time>
      </trkpt>
      <trkpt lat="45.20193" lon="6.00128">
        <ele>2418.8000488281</ele>
        <time>2023-08-12T05:51:10.000Z</time>
      </trkpt>
      <trkpt lat="45.20192" lon="6.00128">
        <ele>2419.6000976562</ele>
        <time>2023-08-12T05:51:18.000Z</time>
      </trkpt>
      <trkpt lat="45.20192" lon="6.00128">
        <ele>2419.6000976562</ele>
        <time>2023-08-12T05:51:19.000Z</time>
      </trkpt>
      <trkpt lat="45.20193" lon="6.00126">
        <ele>2420.6000976562</ele>
        <time>2023-08-12T05:51:27.000Z</time>
      </trkpt>
      <trkpt lat="45.20193" lon="6.00123">
        <ele>2421.1999511719</ele>
        <time>2023-08-12T05:51:34.000Z</time>
      </trkpt>
      <trkpt lat="45.20193" lon="6.00122">
        <ele>2421.6000976562</ele>
        <time>2023-08-12T05:51:36.000Z</time>
      </trkpt>
      <trkpt lat="45.20191" lon="6.00119">
        <ele>2422.6000976562</ele>
        <time>2023-08-12T05:51:43.000Z</time>
      </trkpt>
      <trkpt lat="45.2019" lon="6.0012">
        <ele>2422.8000488281</ele>
        <time>2023-08-12T05:51:45.000Z</time>
      </trkpt>
      <trkpt lat="45.2019" lon="6.00121">
        <ele>2423.6000976562</ele>
        <time>2023-08-12T05:51:50.000Z</time>
      </trkpt>
      <trkpt lat="45.20191" lon="6.0012">
        <ele>2423.8000488281</ele>
        <time>2023-08-12T05:51:52.000Z</time>
      </trkpt>
      <trkpt lat="45.20195" lon="6.00116">
        <ele>2424.6000976562</ele>
        <time>2023-08-12T05:51:58.000Z</time>
      </trkpt>
      <trkpt lat="45.20195" lon="6.00115">
        <ele>2425</ele>
        <time>2023-08-12T05:52:01.000Z</time>
      </trkpt>
      <trkpt lat="45.20194" lon="6.00115">
        <ele>2425.1999511719</ele>
        <time>2023-08-12T05:52:03.000Z</time>
      </trkpt>
      <trkpt lat="45.20191" lon="6.00112">
        <ele>2425.1999511719</ele>
        <time>2023-08-12T05:52:12.000Z</time>
      </trkpt>
      <trkpt lat="45.20191" lon="6.00113">
        <ele>2425.8000488281</ele>
        <time>2023-08-12T05:52:21.000Z</time>
      </trkpt>
      <trkpt lat="45.20191" lon="6.00114">
        <ele>2426</ele>
        <time>2023-08-12T05:52:24.000Z</time>
      </trkpt>
      <trkpt lat="45.2019" lon="6.00111">
        <ele>2426.3999023438</ele>
        <time>2023-08-12T05:52:29.000Z</time>
      </trkpt>
      <trkpt lat="45.2019" lon="6.00107">
        <ele>2427</ele>
        <time>2023-08-12T05:52:34.000Z</time>
      </trkpt>
      <trkpt lat="45.2019" lon="6.00106">
        <ele>2427.1999511719</ele>
        <time>2023-08-12T05:52:35.000Z</time>
      </trkpt>
      <trkpt lat="45.20191" lon="6.001">
        <ele>2427.6000976562</ele>
        <time>2023-08-12T05:52:47.000Z</time>
      </trkpt>
      <trkpt lat="45.20191" lon="6.001">
        <ele>2428.1999511719</ele>
        <time>2023-08-12T05:52:53.000Z</time>
      </trkpt>
      <trkpt lat="45.20191" lon="6.00099">
        <ele>2428.3999023438</ele>
        <time>2023-08-12T05:52:54.000Z</time>
      </trkpt>
      <trkpt lat="45.20191" lon="6.00098">
        <ele>2429.1999511719</ele>
        <time>2023-08-12T05:53:01.000Z</time>
      </trkpt>
      <trkpt lat="45.20187" lon="6.00098">
        <ele>2429.8000488281</ele>
        <time>2023-08-12T05:53:11.000Z</time>
      </trkpt>
      <trkpt lat="45.20184" lon="6.00099">
        <ele>2430.1999511719</ele>
        <time>2023-08-12T05:53:15.000Z</time>
      </trkpt>
      <trkpt lat="45.20183" lon="6.001">
        <ele>2430.3999023438</ele>
        <time>2023-08-12T05:53:19.000Z</time>
      </trkpt>
      <trkpt lat="45.20186" lon="6.00097">
        <ele>2430.1999511719</ele>
        <time>2023-08-12T05:53:27.000Z</time>
      </trkpt>
      <trkpt lat="45.20185" lon="6.00094">
        <ele>2431.1999511719</ele>
        <time>2023-08-12T05:53:34.000Z</time>
      </trkpt>
      <trkpt lat="45.20184" lon="6.00092">
        <ele>2431.3999023438</ele>
        <time>2023-08-12T05:53:40.000Z</time>
      </trkpt>
      <trkpt lat="45.20183" lon="6.0009">
        <ele>2431.8000488281</ele>
        <time>2023-08-12T05:53:49.000Z</time>
      </trkpt>
      <trkpt lat="45.20182" lon="6.0009">
        <ele>2432</ele>
        <time>2023-08-12T05:53:58.000Z</time>
      </trkpt>
      <trkpt lat="45.20182" lon="6.00089">
        <ele>2432.1999511719</ele>
        <time>2023-08-12T05:54:06.000Z</time>
      </trkpt>
      <trkpt lat="45.20181" lon="6.00087">
        <ele>2433.1999511719</ele>
        <time>2023-08-12T05:54:12.000Z</time>
      </trkpt>
      <trkpt lat="45.20181" lon="6.00087">
        <ele>2433.3999023438</ele>
        <time>2023-08-12T05:54:13.000Z</time>
      </trkpt>
      <trkpt lat="45.20177" lon="6.00083">
        <ele>2434</ele>
        <time>2023-08-12T05:54:19.000Z</time>
      </trkpt>
      <trkpt lat="45.20177" lon="6.00082">
        <ele>2434.3999023438</ele>
        <time>2023-08-12T05:54:21.000Z</time>
      </trkpt>
      <trkpt lat="45.20178" lon="6.00079">
        <ele>2435.6000976562</ele>
        <time>2023-08-12T05:54:28.000Z</time>
      </trkpt>
      <trkpt lat="45.2018" lon="6.00075">
        <ele>2436.3999023438</ele>
        <time>2023-08-12T05:54:34.000Z</time>
      </trkpt>
      <trkpt lat="45.2018" lon="6.00075">
        <ele>2436.6000976562</ele>
        <time>2023-08-12T05:54:36.000Z</time>
      </trkpt>
      <trkpt lat="45.20181" lon="6.00075">
        <ele>2437.3999023438</ele>
        <time>2023-08-12T05:54:43.000Z</time>
      </trkpt>
      <trkpt lat="45.20181" lon="6.00075">
        <ele>2437.6000976562</ele>
        <time>2023-08-12T05:54:44.000Z</time>
      </trkpt>
      <trkpt lat="45.20179" lon="6.00074">
        <ele>2438.3999023438</ele>
        <time>2023-08-12T05:54:50.000Z</time>
      </trkpt>
      <trkpt lat="45.20178" lon="6.00072">
        <ele>2438.8000488281</ele>
        <time>2023-08-12T05:54:53.000Z</time>
      </trkpt>
      <trkpt lat="45.20177" lon="6.00069">
        <ele>2439.1999511719</ele>
        <time>2023-08-12T05:54:58.000Z</time>
      </trkpt>
      <trkpt lat="45.20178" lon="6.00066">
        <ele>2439.6000976562</ele>
        <time>2023-08-12T05:55:04.000Z</time>
      </trkpt>
      <trkpt lat="45.20177" lon="6.00065">
        <ele>2439.8000488281</ele>
        <time>2023-08-12T05:55:06.000Z</time>
      </trkpt>
      <trkpt lat="45.20176" lon="6.00064">
        <ele>2440.3999023438</ele>
        <time>2023-08-12T05:55:12.000Z</time>
      </trkpt>
      <trkpt lat="45.20176" lon="6.00064">
        <ele>2440.8000488281</ele>
        <time>2023-08-12T05:55:15.000Z</time>
      </trkpt>
      <trkpt lat="45.20175" lon="6.00063">
        <ele>2441.3999023438</ele>
        <time>2023-08-12T05:55:21.000Z</time>
      </trkpt>
      <trkpt lat="45.20174" lon="6.00059">
        <ele>2442</ele>
        <time>2023-08-12T05:55:28.000Z</time>
      </trkpt>
      <trkpt lat="45.20173" lon="6.00058">
        <ele>2442.1999511719</ele>
        <time>2023-08-12T05:55:30.000Z</time>
      </trkpt>
      <trkpt lat="45.20173" lon="6.00055">
        <ele>2443</ele>
        <time>2023-08-12T05:55:36.000Z</time>
      </trkpt>
      <trkpt lat="45.20173" lon="6.00057">
        <ele>2443.8000488281</ele>
        <time>2023-08-12T05:55:43.000Z</time>
      </trkpt>
      <trkpt lat="45.20172" lon="6.00054">
        <ele>2444.1999511719</ele>
        <time>2023-08-12T05:55:46.000Z</time>
      </trkpt>
      <trkpt lat="45.20174" lon="6.00051">
        <ele>2444.8000488281</ele>
        <time>2023-08-12T05:55:50.000Z</time>
      </trkpt>
      <trkpt lat="45.20175" lon="6.00051">
        <ele>2445.1999511719</ele>
        <time>2023-08-12T05:55:55.000Z</time>
      </trkpt>
      <trkpt lat="45.20176" lon="6.00051">
        <ele>2445.6000976562</ele>
        <time>2023-08-12T05:55:58.000Z</time>
      </trkpt>
      <trkpt lat="45.20177" lon="6.0005">
        <ele>2446.1999511719</ele>
        <time>2023-08-12T05:56:06.000Z</time>
      </trkpt>
      <trkpt lat="45.20177" lon="6.00047">
        <ele>2446.3999023438</ele>
        <time>2023-08-12T05:56:12.000Z</time>
      </trkpt>
      <trkpt lat="45.20176" lon="6.00048">
        <ele>2446.3999023438</ele>
        <time>2023-08-12T05:56:13.000Z</time>
      </trkpt>
      <trkpt lat="45.20174" lon="6.00047">
        <ele>2447.6000976562</ele>
        <time>2023-08-12T05:56:21.000Z</time>
      </trkpt>
      <trkpt lat="45.20172" lon="6.00044">
        <ele>2448.3999023438</ele>
        <time>2023-08-12T05:56:28.000Z</time>
      </trkpt>
      <trkpt lat="45.20172" lon="6.00043">
        <ele>2448.6000976562</ele>
        <time>2023-08-12T05:56:29.000Z</time>
      </trkpt>
      <trkpt lat="45.20169" lon="6.00042">
        <ele>2449.8000488281</ele>
        <time>2023-08-12T05:56:36.000Z</time>
      </trkpt>
      <trkpt lat="45.20167" lon="6.00041">
        <ele>2451</ele>
        <time>2023-08-12T05:56:43.000Z</time>
      </trkpt>
      <trkpt lat="45.20167" lon="6.00038">
        <ele>2452</ele>
        <time>2023-08-12T05:56:50.000Z</time>
      </trkpt>
      <trkpt lat="45.20168" lon="6.00037">
        <ele>2452</ele>
        <time>2023-08-12T05:56:51.000Z</time>
      </trkpt>
      <trkpt lat="45.20171" lon="6.00035">
        <ele>2452.8000488281</ele>
        <time>2023-08-12T05:56:58.000Z</time>
      </trkpt>
      <trkpt lat="45.20171" lon="6.00034">
        <ele>2453</ele>
        <time>2023-08-12T05:56:59.000Z</time>
      </trkpt>
      <trkpt lat="45.20171" lon="6.00034">
        <ele>2454</ele>
        <time>2023-08-12T05:57:07.000Z</time>
      </trkpt>
      <trkpt lat="45.2017" lon="6.00034">
        <ele>2454</ele>
        <time>2023-08-12T05:57:09.000Z</time>
      </trkpt>
      <trkpt lat="45.20169" lon="6.00034">
        <ele>2454.3999023438</ele>
        <time>2023-08-12T05:57:13.000Z</time>
      </trkpt>
      <trkpt lat="45.20169" lon="6.00032">
        <ele>2455</ele>
        <time>2023-08-12T05:57:19.000Z</time>
      </trkpt>
      <trkpt lat="45.20169" lon="6.00028">
        <ele>2455.6000976562</ele>
        <time>2023-08-12T05:57:23.000Z</time>
      </trkpt>
      <trkpt lat="45.20168" lon="6.00025">
        <ele>2456.1999511719</ele>
        <time>2023-08-12T05:57:30.000Z</time>
      </trkpt>
      <trkpt lat="45.20168" lon="6.00026">
        <ele>2456.3999023438</ele>
        <time>2023-08-12T05:57:31.000Z</time>
      </trkpt>
      <trkpt lat="45.20166" lon="6.00026">
        <ele>2457.3999023438</ele>
        <time>2023-08-12T05:57:39.000Z</time>
      </trkpt>
      <trkpt lat="45.20166" lon="6.00026">
        <ele>2457.3999023438</ele>
        <time>2023-08-12T05:57:40.000Z</time>
      </trkpt>
      <trkpt lat="45.20164" lon="6.00021">
        <ele>2458.1999511719</ele>
        <time>2023-08-12T05:57:47.000Z</time>
      </trkpt>
      <trkpt lat="45.20164" lon="6.00021">
        <ele>2458.3999023438</ele>
        <time>2023-08-12T05:57:48.000Z</time>
      </trkpt>
      <trkpt lat="45.20163" lon="6.00022">
        <ele>2458.8000488281</ele>
        <time>2023-08-12T05:57:55.000Z</time>
      </trkpt>
      <trkpt lat="45.20162" lon="6.00017">
        <ele>2459.3999023438</ele>
        <time>2023-08-12T05:58:04.000Z</time>
      </trkpt>
      <trkpt lat="45.2016" lon="6.00015">
        <ele>2460.3999023438</ele>
        <time>2023-08-12T05:58:12.000Z</time>
      </trkpt>
      <trkpt lat="45.20161" lon="6.00016">
        <ele>2460.6000976562</ele>
        <time>2023-08-12T05:58:14.000Z</time>
      </trkpt>
      <trkpt lat="45.20162" lon="6.00017">
        <ele>2461.3999023438</ele>
        <time>2023-08-12T05:58:19.000Z</time>
      </trkpt>
      <trkpt lat="45.20162" lon="6.00016">
        <ele>2461.6000976562</ele>
        <time>2023-08-12T05:58:21.000Z</time>
      </trkpt>
      <trkpt lat="45.20164" lon="6.00016">
        <ele>2462</ele>
        <time>2023-08-12T05:58:26.000Z</time>
      </trkpt>
      <trkpt lat="45.20163" lon="6.00012">
        <ele>2462.6000976562</ele>
        <time>2023-08-12T05:58:33.000Z</time>
      </trkpt>
      <trkpt lat="45.20163" lon="6.0001">
        <ele>2462.8000488281</ele>
        <time>2023-08-12T05:58:34.000Z</time>
      </trkpt>
      <trkpt lat="45.20159" lon="6.00007">
        <ele>2463.6000976562</ele>
        <time>2023-08-12T05:58:42.000Z</time>
      </trkpt>
      <trkpt lat="45.20158" lon="6.00007">
        <ele>2463.8000488281</ele>
        <time>2023-08-12T05:58:43.000Z</time>
      </trkpt>
      <trkpt lat="45.20159" lon="6.00009">
        <ele>2464.1999511719</ele>
        <time>2023-08-12T05:58:49.000Z</time>
      </trkpt>
      <trkpt lat="45.20156" lon="6.00004">
        <ele>2464.6000976562</ele>
        <time>2023-08-12T05:58:55.000Z</time>
      </trkpt>
      <trkpt lat="45.20155" lon="6.00007">
        <ele>2464.8000488281</ele>
        <time>2023-08-12T05:59:03.000Z</time>
      </trkpt>
      <trkpt lat="45.20153" lon="6.00006">
        <ele>2464.8000488281</ele>
        <time>2023-08-12T05:59:11.000Z</time>
      </trkpt>
      <trkpt lat="45.20153" lon="6.00004">
        <ele>2464.8000488281</ele>
        <time>2023-08-12T05:59:19.000Z</time>
      </trkpt>
      <trkpt lat="45.20153" lon="6.00004">
        <ele>2464.6000976562</ele>
        <time>2023-08-12T05:59:25.000Z</time>
      </trkpt>
      <trkpt lat="45.20152" lon="6.00003">
        <ele>2464.3999023438</ele>
        <time>2023-08-12T05:59:33.000Z</time>
      </trkpt>
      <trkpt lat="45.20149" lon="6.00003">
        <ele>2463.8000488281</ele>
        <time>2023-08-12T05:59:43.000Z</time>
      </trkpt>
      <trkpt lat="45.20145" lon="5.99999">
        <ele>2463.6000976562</ele>
        <time>2023-08-12T05:59:50.000Z</time>
      </trkpt>
      <trkpt lat="45.20145" lon="5.99994">
        <ele>2463.8000488281</ele>
        <time>2023-08-12T05:59:58.000Z</time>
      </trkpt>
      <trkpt lat="45.20145" lon="5.99996">
        <ele>2463.6000976562</ele>
        <time>2023-08-12T06:00:07.000Z</time>
      </trkpt>
      <trkpt lat="45.20147" lon="5.99994">
        <ele>2464.1999511719</ele>
        <time>2023-08-12T06:00:16.000Z</time>
      </trkpt>
      <trkpt lat="45.20142" lon="5.99992">
        <ele>2464.1999511719</ele>
        <time>2023-08-12T06:00:25.000Z</time>
      </trkpt>
      <trkpt lat="45.20142" lon="5.99991">
        <ele>2464.1999511719</ele>
        <time>2023-08-12T06:00:34.000Z</time>
      </trkpt>
      <trkpt lat="45.20146" lon="5.99988">
        <ele>2464</ele>
        <time>2023-08-12T06:00:42.000Z</time>
      </trkpt>
      <trkpt lat="45.20148" lon="5.99988">
        <ele>2464.8000488281</ele>
        <time>2023-08-12T06:00:49.000Z</time>
      </trkpt>
      <trkpt lat="45.20148" lon="5.99988">
        <ele>2464.8000488281</ele>
        <time>2023-08-12T06:00:54.000Z</time>
      </trkpt>
      <trkpt lat="45.20145" lon="5.99985">
        <ele>2465.3999023438</ele>
        <time>2023-08-12T06:00:58.000Z</time>
      </trkpt>
      <trkpt lat="45.20143" lon="5.99981">
        <ele>2465.8000488281</ele>
        <time>2023-08-12T06:01:04.000Z</time>
      </trkpt>
      <trkpt lat="45.20143" lon="5.99981">
        <ele>2466</ele>
        <time>2023-08-12T06:01:05.000Z</time>
      </trkpt>
      <trkpt lat="45.20143" lon="5.99978">
        <ele>2466.6000976562</ele>
        <time>2023-08-12T06:01:12.000Z</time>
      </trkpt>
      <trkpt lat="45.20143" lon="5.99978">
        <ele>2467</ele>
        <time>2023-08-12T06:01:14.000Z</time>
      </trkpt>
      <trkpt lat="45.20144" lon="5.99977">
        <ele>2467.6000976562</ele>
        <time>2023-08-12T06:01:20.000Z</time>
      </trkpt>
      <trkpt lat="45.20143" lon="5.99975">
        <ele>2468.1999511719</ele>
        <time>2023-08-12T06:01:23.000Z</time>
      </trkpt>
      <trkpt lat="45.20142" lon="5.99974">
        <ele>2468.3999023438</ele>
        <time>2023-08-12T06:01:28.000Z</time>
      </trkpt>
      <trkpt lat="45.20141" lon="5.9997">
        <ele>2469.1999511719</ele>
        <time>2023-08-12T06:01:35.000Z</time>
      </trkpt>
      <trkpt lat="45.2014" lon="5.99968">
        <ele>2469.6000976562</ele>
        <time>2023-08-12T06:01:41.000Z</time>
      </trkpt>
      <trkpt lat="45.20141" lon="5.99965">
        <ele>2470.1999511719</ele>
        <time>2023-08-12T06:01:49.000Z</time>
      </trkpt>
      <trkpt lat="45.20141" lon="5.99965">
        <ele>2470.3999023438</ele>
        <time>2023-08-12T06:01:50.000Z</time>
      </trkpt>
      <trkpt lat="45.20139" lon="5.99962">
        <ele>2471.3999023438</ele>
        <time>2023-08-12T06:01:57.000Z</time>
      </trkpt>
      <trkpt lat="45.2014" lon="5.99962">
        <ele>2472</ele>
        <time>2023-08-12T06:02:04.000Z</time>
      </trkpt>
      <trkpt lat="45.20142" lon="5.99962">
        <ele>2472.6000976562</ele>
        <time>2023-08-12T06:02:07.000Z</time>
      </trkpt>
      <trkpt lat="45.20142" lon="5.99959">
        <ele>2473</ele>
        <time>2023-08-12T06:02:11.000Z</time>
      </trkpt>
      <trkpt lat="45.20143" lon="5.99957">
        <ele>2473.6000976562</ele>
        <time>2023-08-12T06:02:17.000Z</time>
      </trkpt>
      <trkpt lat="45.20142" lon="5.99956">
        <ele>2473.8000488281</ele>
        <time>2023-08-12T06:02:19.000Z</time>
      </trkpt>
      <trkpt lat="45.20142" lon="5.99953">
        <ele>2474.6000976562</ele>
        <time>2023-08-12T06:02:25.000Z</time>
      </trkpt>
      <trkpt lat="45.20142" lon="5.99951">
        <ele>2475.1999511719</ele>
        <time>2023-08-12T06:02:29.000Z</time>
      </trkpt>
      <trkpt lat="45.20141" lon="5.99949">
        <ele>2475.8000488281</ele>
        <time>2023-08-12T06:02:34.000Z</time>
      </trkpt>
      <trkpt lat="45.2014" lon="5.99947">
        <ele>2475.8000488281</ele>
        <time>2023-08-12T06:02:37.000Z</time>
      </trkpt>
      <trkpt lat="45.20139" lon="5.99945">
        <ele>2476</ele>
        <time>2023-08-12T06:02:47.000Z</time>
      </trkpt>
      <trkpt lat="45.20138" lon="5.99945">
        <ele>2476.1999511719</ele>
        <time>2023-08-12T06:02:55.000Z</time>
      </trkpt>
      <trkpt lat="45.20139" lon="5.99938">
        <ele>2475.8000488281</ele>
        <time>2023-08-12T06:03:03.000Z</time>
      </trkpt>
      <trkpt lat="45.20139" lon="5.99938">
        <ele>2476.3999023438</ele>
        <time>2023-08-12T06:03:10.000Z</time>
      </trkpt>
      <trkpt lat="45.20141" lon="5.99941">
        <ele>2476.3999023438</ele>
        <time>2023-08-12T06:03:17.000Z</time>
      </trkpt>
      <trkpt lat="45.2014" lon="5.9994">
        <ele>2476.3999023438</ele>
        <time>2023-08-12T06:03:25.000Z</time>
      </trkpt>
      <trkpt lat="45.20141" lon="5.99941">
        <ele>2476.1999511719</ele>
        <time>2023-08-12T06:03:31.000Z</time>
      </trkpt>
      <trkpt lat="45.20142" lon="5.9994">
        <ele>2476</ele>
        <time>2023-08-12T06:03:40.000Z</time>
      </trkpt>
      <trkpt lat="45.20141" lon="5.99944">
        <ele>2475.6000976562</ele>
        <time>2023-08-12T06:03:47.000Z</time>
      </trkpt>
      <trkpt lat="45.20138" lon="5.99936">
        <ele>2475.6000976562</ele>
        <time>2023-08-12T06:03:55.000Z</time>
      </trkpt>
      <trkpt lat="45.20137" lon="5.99934">
        <ele>2475.8000488281</ele>
        <time>2023-08-12T06:04:02.000Z</time>
      </trkpt>
      <trkpt lat="45.20141" lon="5.99939">
        <ele>2475.8000488281</ele>
        <time>2023-08-12T06:04:10.000Z</time>
      </trkpt>
      <trkpt lat="45.20142" lon="5.99939">
        <ele>2475.8000488281</ele>
        <time>2023-08-12T06:04:16.000Z</time>
      </trkpt>
      <trkpt lat="45.20141" lon="5.99938">
        <ele>2475.8000488281</ele>
        <time>2023-08-12T06:04:25.000Z</time>
      </trkpt>
      <trkpt lat="45.2014" lon="5.99941">
        <ele>2475.8000488281</ele>
        <time>2023-08-12T06:04:32.000Z</time>
      </trkpt>
      <trkpt lat="45.20143" lon="5.99938">
        <ele>2475.3999023438</ele>
        <time>2023-08-12T06:04:41.000Z</time>
      </trkpt>
      <trkpt lat="45.20141" lon="5.99939">
        <ele>2475</ele>
        <time>2023-08-12T06:04:50.000Z</time>
      </trkpt>
      <trkpt lat="45.20139" lon="5.9994">
        <ele>2475</ele>
        <time>2023-08-12T06:04:59.000Z</time>
      </trkpt>
      <trkpt lat="45.20137" lon="5.99938">
        <ele>2474.8000488281</ele>
        <time>2023-08-12T06:05:07.000Z</time>
      </trkpt>
      <trkpt lat="45.20137" lon="5.99938">
        <ele>2474.6000976562</ele>
        <time>2023-08-12T06:05:14.000Z</time>
      </trkpt>
      <trkpt lat="45.20136" lon="5.99937">
        <ele>2474.6000976562</ele>
        <time>2023-08-12T06:05:16.000Z</time>
      </trkpt>
      <trkpt lat="45.20136" lon="5.9994">
        <ele>2474.6000976562</ele>
        <time>2023-08-12T06:05:24.000Z</time>
      </trkpt>
      <trkpt lat="45.20139" lon="5.99938">
        <ele>2474.3999023438</ele>
        <time>2023-08-12T06:05:35.000Z</time>
      </trkpt>
      <trkpt lat="45.20139" lon="5.99938">
        <ele>2474.3999023438</ele>
        <time>2023-08-12T06:05:47.000Z</time>
      </trkpt>
      <trkpt lat="45.20141" lon="5.99941">
        <ele>2474.1999511719</ele>
        <time>2023-08-12T06:05:53.000Z</time>
      </trkpt>
      <trkpt lat="45.20142" lon="5.99943">
        <ele>2474.3999023438</ele>
        <time>2023-08-12T06:06:02.000Z</time>
      </trkpt>
      <trkpt lat="45.2014" lon="5.9994">
        <ele>2474.1999511719</ele>
        <time>2023-08-12T06:06:12.000Z</time>
      </trkpt>
      <trkpt lat="45.20139" lon="5.9994">
        <ele>2474.1999511719</ele>
        <time>2023-08-12T06:06:21.000Z</time>
      </trkpt>
      <trkpt lat="45.20138" lon="5.9994">
        <ele>2474.1999511719</ele>
        <time>2023-08-12T06:06:29.000Z</time>
      </trkpt>
      <trkpt lat="45.20138" lon="5.99939">
        <ele>2474.6000976562</ele>
        <time>2023-08-12T06:06:35.000Z</time>
      </trkpt>
      <trkpt lat="45.20139" lon="5.99937">
        <ele>2474.6000976562</ele>
        <time>2023-08-12T06:06:44.000Z</time>
      </trkpt>
      <trkpt lat="45.20138" lon="5.99938">
        <ele>2474.3999023438</ele>
        <time>2023-08-12T06:06:56.000Z</time>
      </trkpt>
      <trkpt lat="45.20142" lon="5.9994">
        <ele>2474.1999511719</ele>
        <time>2023-08-12T06:07:05.000Z</time>
      </trkpt>
      <trkpt lat="45.20143" lon="5.99941">
        <ele>2474.1999511719</ele>
        <time>2023-08-12T06:07:13.000Z</time>
      </trkpt>
      <trkpt lat="45.20142" lon="5.99942">
        <ele>2474.3999023438</ele>
        <time>2023-08-12T06:07:21.000Z</time>
      </trkpt>
      <trkpt lat="45.20139" lon="5.99938">
        <ele>2474.3999023438</ele>
        <time>2023-08-12T06:07:32.000Z</time>
      </trkpt>
      <trkpt lat="45.20139" lon="5.99939">
        <ele>2474.3999023438</ele>
        <time>2023-08-12T06:07:39.000Z</time>
      </trkpt>
      <trkpt lat="45.20139" lon="5.99938">
        <ele>2474.1999511719</ele>
        <time>2023-08-12T06:07:47.000Z</time>
      </trkpt>
      <trkpt lat="45.2014" lon="5.99937">
        <ele>2474.1999511719</ele>
        <time>2023-08-12T06:07:53.000Z</time>
      </trkpt>
      <trkpt lat="45.2014" lon="5.99937">
        <ele>2474.3999023438</ele>
        <time>2023-08-12T06:08:02.000Z</time>
      </trkpt>
      <trkpt lat="45.20141" lon="5.9994">
        <ele>2474.1999511719</ele>
        <time>2023-08-12T06:08:10.000Z</time>
      </trkpt>
      <trkpt lat="45.20139" lon="5.99934">
        <ele>2474</ele>
        <time>2023-08-12T06:08:20.000Z</time>
      </trkpt>
      <trkpt lat="45.20141" lon="5.99939">
        <ele>2473.8000488281</ele>
        <time>2023-08-12T06:08:29.000Z</time>
      </trkpt>
      <trkpt lat="45.20141" lon="5.99942">
        <ele>2473.8000488281</ele>
        <time>2023-08-12T06:08:37.000Z</time>
      </trkpt>
      <trkpt lat="45.20141" lon="5.99945">
        <ele>2474</ele>
        <time>2023-08-12T06:08:44.000Z</time>
      </trkpt>
      <trkpt lat="45.2014" lon="5.9994">
        <ele>2474.1999511719</ele>
        <time>2023-08-12T06:08:51.000Z</time>
      </trkpt>
      <trkpt lat="45.20138" lon="5.99936">
        <ele>2474</ele>
        <time>2023-08-12T06:09:00.000Z</time>
      </trkpt>
      <trkpt lat="45.20139" lon="5.99936">
        <ele>2474</ele>
        <time>2023-08-12T06:09:09.000Z</time>
      </trkpt>
      <trkpt lat="45.2014" lon="5.99935">
        <ele>2474.1999511719</ele>
        <time>2023-08-12T06:09:15.000Z</time>
      </trkpt>
      <trkpt lat="45.20139" lon="5.99938">
        <ele>2474</ele>
        <time>2023-08-12T06:09:21.000Z</time>
      </trkpt>
      <trkpt lat="45.2014" lon="5.9994">
        <ele>2473.8000488281</ele>
        <time>2023-08-12T06:09:29.000Z</time>
      </trkpt>
      <trkpt lat="45.20141" lon="5.99941">
        <ele>2473.6000976562</ele>
        <time>2023-08-12T06:09:38.000Z</time>
      </trkpt>
      <trkpt lat="45.20141" lon="5.99941">
        <ele>2474.1999511719</ele>
        <time>2023-08-12T06:09:46.000Z</time>
      </trkpt>
      <trkpt lat="45.20139" lon="5.99938">
        <ele>2474.3999023438</ele>
        <time>2023-08-12T06:09:53.000Z</time>
      </trkpt>
      <trkpt lat="45.20142" lon="5.99943">
        <ele>2474.1999511719</ele>
        <time>2023-08-12T06:10:02.000Z</time>
      </trkpt>
      <trkpt lat="45.20142" lon="5.99944">
        <ele>2474</ele>
        <time>2023-08-12T06:10:09.000Z</time>
      </trkpt>
      <trkpt lat="45.20142" lon="5.99941">
        <ele>2474</ele>
        <time>2023-08-12T06:10:16.000Z</time>
      </trkpt>
      <trkpt lat="45.20142" lon="5.99942">
        <ele>2474</ele>
        <time>2023-08-12T06:10:22.000Z</time>
      </trkpt>
      <trkpt lat="45.20141" lon="5.99941">
        <ele>2473.6000976562</ele>
        <time>2023-08-12T06:10:24.000Z</time>
      </trkpt>
      <trkpt lat="45.20139" lon="5.99939">
        <ele>2473.8000488281</ele>
        <time>2023-08-12T06:10:30.000Z</time>
      </trkpt>
      <trkpt lat="45.20139" lon="5.99937">
        <ele>2473.3999023438</ele>
        <time>2023-08-12T06:10:37.000Z</time>
      </trkpt>
      <trkpt lat="45.20139" lon="5.99936">
        <ele>2472.8000488281</ele>
        <time>2023-08-12T06:10:45.000Z</time>
      </trkpt>
      <trkpt lat="45.20139" lon="5.99936">
        <ele>2472.3999023438</ele>
        <time>2023-08-12T06:10:48.000Z</time>
      </trkpt>
      <trkpt lat="45.20139" lon="5.99934">
        <ele>2471.8000488281</ele>
        <time>2023-08-12T06:10:55.000Z</time>
      </trkpt>
      <trkpt lat="45.20141" lon="5.99938">
        <ele>2472</ele>
        <time>2023-08-12T06:11:05.000Z</time>
      </trkpt>
      <trkpt lat="45.20138" lon="5.99933">
        <ele>2471.8000488281</ele>
        <time>2023-08-12T06:11:14.000Z</time>
      </trkpt>
      <trkpt lat="45.20138" lon="5.99928">
        <ele>2471.1999511719</ele>
        <time>2023-08-12T06:11:21.000Z</time>
      </trkpt>
      <trkpt lat="45.20137" lon="5.99927">
        <ele>2471.1999511719</ele>
        <time>2023-08-12T06:11:22.000Z</time>
      </trkpt>
      <trkpt lat="45.20137" lon="5.99924">
        <ele>2470.1999511719</ele>
        <time>2023-08-12T06:11:26.000Z</time>
      </trkpt>
      <trkpt lat="45.20137" lon="5.99921">
        <ele>2469.6000976562</ele>
        <time>2023-08-12T06:11:31.000Z</time>
      </trkpt>
      <trkpt lat="45.20138" lon="5.99915">
        <ele>2469</ele>
        <time>2023-08-12T06:11:36.000Z</time>
      </trkpt>
      <trkpt lat="45.20139" lon="5.99913">
        <ele>2468.3999023438</ele>
        <time>2023-08-12T06:11:40.000Z</time>
      </trkpt>
      <trkpt lat="45.20138" lon="5.99909">
        <ele>2468</ele>
        <time>2023-08-12T06:11:44.000Z</time>
      </trkpt>
      <trkpt lat="45.20136" lon="5.99907">
        <ele>2467.3999023438</ele>
        <time>2023-08-12T06:11:48.000Z</time>
      </trkpt>
      <trkpt lat="45.20135" lon="5.99905">
        <ele>2466.8000488281</ele>
        <time>2023-08-12T06:11:52.000Z</time>
      </trkpt>
      <trkpt lat="45.20136" lon="5.99905">
        <ele>2466.3999023438</ele>
        <time>2023-08-12T06:11:56.000Z</time>
      </trkpt>
      <trkpt lat="45.20137" lon="5.99904">
        <ele>2465.8000488281</ele>
        <time>2023-08-12T06:12:01.000Z</time>
      </trkpt>
      <trkpt lat="45.20137" lon="5.99903">
        <ele>2465.8000488281</ele>
        <time>2023-08-12T06:12:02.000Z</time>
      </trkpt>
      <trkpt lat="45.20135" lon="5.99901">
        <ele>2465</ele>
        <time>2023-08-12T06:12:09.000Z</time>
      </trkpt>
      <trkpt lat="45.20135" lon="5.99898">
        <ele>2464.6000976562</ele>
        <time>2023-08-12T06:12:11.000Z</time>
      </trkpt>
      <trkpt lat="45.20134" lon="5.99893">
        <ele>2464</ele>
        <time>2023-08-12T06:12:17.000Z</time>
      </trkpt>
      <trkpt lat="45.20134" lon="5.99893">
        <ele>2463.6000976562</ele>
        <time>2023-08-12T06:12:20.000Z</time>
      </trkpt>
      <trkpt lat="45.20134" lon="5.9989">
        <ele>2463.3999023438</ele>
        <time>2023-08-12T06:12:25.000Z</time>
      </trkpt>
      <trkpt lat="45.20133" lon="5.99882">
        <ele>2462.8000488281</ele>
        <time>2023-08-12T06:12:34.000Z</time>
      </trkpt>
      <trkpt lat="45.20133" lon="5.99882">
        <ele>2462.6000976562</ele>
        <time>2023-08-12T06:12:36.000Z</time>
      </trkpt>
      <trkpt lat="45.2013" lon="5.99881">
        <ele>2462.3999023438</ele>
        <time>2023-08-12T06:12:41.000Z</time>
      </trkpt>
      <trkpt lat="45.2013" lon="5.99881">
        <ele>2462.6000976562</ele>
        <time>2023-08-12T06:12:49.000Z</time>
      </trkpt>
      <trkpt lat="45.20133" lon="5.99883">
        <ele>2462.6000976562</ele>
        <time>2023-08-12T06:12:56.000Z</time>
      </trkpt>
      <trkpt lat="45.20132" lon="5.99881">
        <ele>2462.8000488281</ele>
        <time>2023-08-12T06:13:02.000Z</time>
      </trkpt>
      <trkpt lat="45.20134" lon="5.99871">
        <ele>2462.6000976562</ele>
        <time>2023-08-12T06:13:10.000Z</time>
      </trkpt>
      <trkpt lat="45.20134" lon="5.9987">
        <ele>2461.8000488281</ele>
        <time>2023-08-12T06:13:16.000Z</time>
      </trkpt>
      <trkpt lat="45.20133" lon="5.9987">
        <ele>2461.6000976562</ele>
        <time>2023-08-12T06:13:19.000Z</time>
      </trkpt>
      <trkpt lat="45.20132" lon="5.99867">
        <ele>2460.3999023438</ele>
        <time>2023-08-12T06:13:25.000Z</time>
      </trkpt>
      <trkpt lat="45.20131" lon="5.99866">
        <ele>2459.1999511719</ele>
        <time>2023-08-12T06:13:32.000Z</time>
      </trkpt>
      <trkpt lat="45.2013" lon="5.99865">
        <ele>2459</ele>
        <time>2023-08-12T06:13:34.000Z</time>
      </trkpt>
      <trkpt lat="45.20129" lon="5.99861">
        <ele>2459</ele>
        <time>2023-08-12T06:13:41.000Z</time>
      </trkpt>
      <trkpt lat="45.20128" lon="5.99855">
        <ele>2458.1999511719</ele>
        <time>2023-08-12T06:13:48.000Z</time>
      </trkpt>
      <trkpt lat="45.20128" lon="5.99855">
        <ele>2458</ele>
        <time>2023-08-12T06:13:49.000Z</time>
      </trkpt>
      <trkpt lat="45.2013" lon="5.99858">
        <ele>2458.1999511719</ele>
        <time>2023-08-12T06:13:58.000Z</time>
      </trkpt>
      <trkpt lat="45.20131" lon="5.99858">
        <ele>2458.3999023438</ele>
        <time>2023-08-12T06:14:07.000Z</time>
      </trkpt>
      <trkpt lat="45.20131" lon="5.99857">
        <ele>2458.6000976562</ele>
        <time>2023-08-12T06:14:16.000Z</time>
      </trkpt>
      <trkpt lat="45.20128" lon="5.99848">
        <ele>2458.3999023438</ele>
        <time>2023-08-12T06:14:24.000Z</time>
      </trkpt>
      <trkpt lat="45.20127" lon="5.99842">
        <ele>2458.3999023438</ele>
        <time>2023-08-12T06:14:32.000Z</time>
      </trkpt>
      <trkpt lat="45.20126" lon="5.99833">
        <ele>2458.1999511719</ele>
        <time>2023-08-12T06:14:40.000Z</time>
      </trkpt>
      <trkpt lat="45.20126" lon="5.99827">
        <ele>2458.3999023438</ele>
        <time>2023-08-12T06:14:46.000Z</time>
      </trkpt>
      <trkpt lat="45.20124" lon="5.99826">
        <ele>2458.6000976562</ele>
        <time>2023-08-12T06:14:55.000Z</time>
      </trkpt>
      <trkpt lat="45.20125" lon="5.99824">
        <ele>2458.6000976562</ele>
        <time>2023-08-12T06:15:01.000Z</time>
      </trkpt>
      <trkpt lat="45.20127" lon="5.99824">
        <ele>2458.8000488281</ele>
        <time>2023-08-12T06:15:10.000Z</time>
      </trkpt>
      <trkpt lat="45.20128" lon="5.99822">
        <ele>2458.8000488281</ele>
        <time>2023-08-12T06:15:18.000Z</time>
      </trkpt>
      <trkpt lat="45.20131" lon="5.99816">
        <ele>2457.6000976562</ele>
        <time>2023-08-12T06:15:26.000Z</time>
      </trkpt>
      <trkpt lat="45.2013" lon="5.99812">
        <ele>2457</ele>
        <time>2023-08-12T06:15:31.000Z</time>
      </trkpt>
      <trkpt lat="45.2013" lon="5.99811">
        <ele>2456.8000488281</ele>
        <time>2023-08-12T06:15:35.000Z</time>
      </trkpt>
      <trkpt lat="45.20128" lon="5.99806">
        <ele>2456.3999023438</ele>
        <time>2023-08-12T06:15:40.000Z</time>
      </trkpt>
      <trkpt lat="45.20125" lon="5.99798">
        <ele>2456.1999511719</ele>
        <time>2023-08-12T06:15:46.000Z</time>
      </trkpt>
      <trkpt lat="45.20124" lon="5.99795">
        <ele>2456</ele>
        <time>2023-08-12T06:15:49.000Z</time>
      </trkpt>
      <trkpt lat="45.20125" lon="5.9979">
        <ele>2455.6000976562</ele>
        <time>2023-08-12T06:15:55.000Z</time>
      </trkpt>
      <trkpt lat="45.20125" lon="5.9979">
        <ele>2455.1999511719</ele>
        <time>2023-08-12T06:16:01.000Z</time>
      </trkpt>
      <trkpt lat="45.20123" lon="5.99787">
        <ele>2455</ele>
        <time>2023-08-12T06:16:08.000Z</time>
      </trkpt>
      <trkpt lat="45.20122" lon="5.99787">
        <ele>2454.6000976562</ele>
        <time>2023-08-12T06:16:10.000Z</time>
      </trkpt>
      <trkpt lat="45.2012" lon="5.99786">
        <ele>2454</ele>
        <time>2023-08-12T06:16:17.000Z</time>
      </trkpt>
      <trkpt lat="45.20118" lon="5.99781">
        <ele>2452.8000488281</ele>
        <time>2023-08-12T06:16:25.000Z</time>
      </trkpt>
      <trkpt lat="45.20118" lon="5.99781">
        <ele>2452.8000488281</ele>
        <time>2023-08-12T06:16:26.000Z</time>
      </trkpt>
      <trkpt lat="45.20115" lon="5.99776">
        <ele>2452</ele>
        <time>2023-08-12T06:16:32.000Z</time>
      </trkpt>
      <trkpt lat="45.20115" lon="5.99776">
        <ele>2451.8000488281</ele>
        <time>2023-08-12T06:16:33.000Z</time>
      </trkpt>
      <trkpt lat="45.20113" lon="5.99775">
        <ele>2451</ele>
        <time>2023-08-12T06:16:39.000Z</time>
      </trkpt>
      <trkpt lat="45.20112" lon="5.99776">
        <ele>2450.8000488281</ele>
        <time>2023-08-12T06:16:42.000Z</time>
      </trkpt>
      <trkpt lat="45.20109" lon="5.99775">
        <ele>2450.1999511719</ele>
        <time>2023-08-12T06:16:46.000Z</time>
      </trkpt>
      <trkpt lat="45.20108" lon="5.99774">
        <ele>2449.6000976562</ele>
        <time>2023-08-12T06:16:50.000Z</time>
      </trkpt>
      <trkpt lat="45.20109" lon="5.99773">
        <ele>2449.1999511719</ele>
        <time>2023-08-12T06:16:54.000Z</time>
      </trkpt>
      <trkpt lat="45.20108" lon="5.99769">
        <ele>2448.6000976562</ele>
        <time>2023-08-12T06:16:59.000Z</time>
      </trkpt>
      <trkpt lat="45.20107" lon="5.99769">
        <ele>2447.8000488281</ele>
        <time>2023-08-12T06:17:06.000Z</time>
      </trkpt>
      <trkpt lat="45.20107" lon="5.9977">
        <ele>2447.3999023438</ele>
        <time>2023-08-12T06:17:08.000Z</time>
      </trkpt>
      <trkpt lat="45.20107" lon="5.99768">
        <ele>2447</ele>
        <time>2023-08-12T06:17:13.000Z</time>
      </trkpt>
      <trkpt lat="45.20105" lon="5.99766">
        <ele>2446.1999511719</ele>
        <time>2023-08-12T06:17:19.000Z</time>
      </trkpt>
      <trkpt lat="45.20104" lon="5.99763">
        <ele>2445.8000488281</ele>
        <time>2023-08-12T06:17:23.000Z</time>
      </trkpt>
      <trkpt lat="45.20102" lon="5.99762">
        <ele>2445.1999511719</ele>
        <time>2023-08-12T06:17:29.000Z</time>
      </trkpt>
      <trkpt lat="45.20099" lon="5.99763">
        <ele>2444.1999511719</ele>
        <time>2023-08-12T06:17:38.000Z</time>
      </trkpt>
      <trkpt lat="45.20099" lon="5.99764">
        <ele>2444</ele>
        <time>2023-08-12T06:17:39.000Z</time>
      </trkpt>
      <trkpt lat="45.20097" lon="5.99764">
        <ele>2443.6000976562</ele>
        <time>2023-08-12T06:17:47.000Z</time>
      </trkpt>
      <trkpt lat="45.20098" lon="5.99763">
        <ele>2443</ele>
        <time>2023-08-12T06:17:51.000Z</time>
      </trkpt>
      <trkpt lat="45.20097" lon="5.99762">
        <ele>2442.3999023438</ele>
        <time>2023-08-12T06:17:56.000Z</time>
      </trkpt>
      <trkpt lat="45.20097" lon="5.99761">
        <ele>2442</ele>
        <time>2023-08-12T06:18:00.000Z</time>
      </trkpt>
      <trkpt lat="45.20095" lon="5.99759">
        <ele>2442</ele>
        <time>2023-08-12T06:18:04.000Z</time>
      </trkpt>
      <trkpt lat="45.20092" lon="5.99753">
        <ele>2441</ele>
        <time>2023-08-12T06:18:11.000Z</time>
      </trkpt>
      <trkpt lat="45.20092" lon="5.99753">
        <ele>2440.8000488281</ele>
        <time>2023-08-12T06:18:12.000Z</time>
      </trkpt>
      <trkpt lat="45.20092" lon="5.99749">
        <ele>2440.1999511719</ele>
        <time>2023-08-12T06:18:20.000Z</time>
      </trkpt>
      <trkpt lat="45.2009" lon="5.99746">
        <ele>2440</ele>
        <time>2023-08-12T06:18:26.000Z</time>
      </trkpt>
      <trkpt lat="45.20089" lon="5.99745">
        <ele>2439.8000488281</ele>
        <time>2023-08-12T06:18:27.000Z</time>
      </trkpt>
      <trkpt lat="45.20091" lon="5.99743">
        <ele>2439.1999511719</ele>
        <time>2023-08-12T06:18:34.000Z</time>
      </trkpt>
      <trkpt lat="45.20091" lon="5.99746">
        <ele>2439.1999511719</ele>
        <time>2023-08-12T06:18:40.000Z</time>
      </trkpt>
      <trkpt lat="45.20089" lon="5.99748">
        <ele>2439.1999511719</ele>
        <time>2023-08-12T06:18:46.000Z</time>
      </trkpt>
      <trkpt lat="45.20088" lon="5.9974">
        <ele>2439</ele>
        <time>2023-08-12T06:18:53.000Z</time>
      </trkpt>
      <trkpt lat="45.20088" lon="5.99743">
        <ele>2438.8000488281</ele>
        <time>2023-08-12T06:18:56.000Z</time>
      </trkpt>
      <trkpt lat="45.20085" lon="5.99745">
        <ele>2438.3999023438</ele>
        <time>2023-08-12T06:19:00.000Z</time>
      </trkpt>
      <trkpt lat="45.20084" lon="5.99744">
        <ele>2438</ele>
        <time>2023-08-12T06:19:02.000Z</time>
      </trkpt>
      <trkpt lat="45.20085" lon="5.99741">
        <ele>2437.8000488281</ele>
        <time>2023-08-12T06:19:05.000Z</time>
      </trkpt>
      <trkpt lat="45.20085" lon="5.9974">
        <ele>2437.6000976562</ele>
        <time>2023-08-12T06:19:06.000Z</time>
      </trkpt>
      <trkpt lat="45.20084" lon="5.99734">
        <ele>2436.8000488281</ele>
        <time>2023-08-12T06:19:14.000Z</time>
      </trkpt>
      <trkpt lat="45.20084" lon="5.99735">
        <ele>2436.6000976562</ele>
        <time>2023-08-12T06:19:15.000Z</time>
      </trkpt>
      <trkpt lat="45.20083" lon="5.99732">
        <ele>2436</ele>
        <time>2023-08-12T06:19:22.000Z</time>
      </trkpt>
      <trkpt lat="45.20081" lon="5.99729">
        <ele>2435.3999023438</ele>
        <time>2023-08-12T06:19:27.000Z</time>
      </trkpt>
      <trkpt lat="45.20081" lon="5.99729">
        <ele>2435.1999511719</ele>
        <time>2023-08-12T06:19:31.000Z</time>
      </trkpt>
      <trkpt lat="45.2008" lon="5.99728">
        <ele>2434.3999023438</ele>
        <time>2023-08-12T06:19:37.000Z</time>
      </trkpt>
      <trkpt lat="45.2008" lon="5.99725">
        <ele>2434.1999511719</ele>
        <time>2023-08-12T06:19:40.000Z</time>
      </trkpt>
      <trkpt lat="45.2008" lon="5.99722">
        <ele>2433.3999023438</ele>
        <time>2023-08-12T06:19:45.000Z</time>
      </trkpt>
      <trkpt lat="45.2008" lon="5.9972">
        <ele>2433</ele>
        <time>2023-08-12T06:19:48.000Z</time>
      </trkpt>
      <trkpt lat="45.20079" lon="5.99718">
        <ele>2432.1999511719</ele>
        <time>2023-08-12T06:19:53.000Z</time>
      </trkpt>
      <trkpt lat="45.20077" lon="5.99715">
        <ele>2431.6000976562</ele>
        <time>2023-08-12T06:19:56.000Z</time>
      </trkpt>
      <trkpt lat="45.20076" lon="5.99712">
        <ele>2431.1999511719</ele>
        <time>2023-08-12T06:20:00.000Z</time>
      </trkpt>
      <trkpt lat="45.20076" lon="5.99711">
        <ele>2430.8000488281</ele>
        <time>2023-08-12T06:20:03.000Z</time>
      </trkpt>
      <trkpt lat="45.20074" lon="5.9971">
        <ele>2430.1999511719</ele>
        <time>2023-08-12T06:20:09.000Z</time>
      </trkpt>
      <trkpt lat="45.20073" lon="5.99707">
        <ele>2429.6000976562</ele>
        <time>2023-08-12T06:20:14.000Z</time>
      </trkpt>
      <trkpt lat="45.20072" lon="5.99705">
        <ele>2429.1999511719</ele>
        <time>2023-08-12T06:20:18.000Z</time>
      </trkpt>
      <trkpt lat="45.20069" lon="5.99701">
        <ele>2428.8000488281</ele>
        <time>2023-08-12T06:20:24.000Z</time>
      </trkpt>
      <trkpt lat="45.2007" lon="5.99695">
        <ele>2428.6000976562</ele>
        <time>2023-08-12T06:20:32.000Z</time>
      </trkpt>
      <trkpt lat="45.2007" lon="5.99691">
        <ele>2429.6000976562</ele>
        <time>2023-08-12T06:20:39.000Z</time>
      </trkpt>
      <trkpt lat="45.2007" lon="5.99689">
        <ele>2430.1999511719</ele>
        <time>2023-08-12T06:20:44.000Z</time>
      </trkpt>
      <trkpt lat="45.2007" lon="5.99686">
        <ele>2430.6000976562</ele>
        <time>2023-08-12T06:20:48.000Z</time>
      </trkpt>
      <trkpt lat="45.2007" lon="5.9968">
        <ele>2431.1999511719</ele>
        <time>2023-08-12T06:20:56.000Z</time>
      </trkpt>
      <trkpt lat="45.2007" lon="5.9968">
        <ele>2431.1999511719</ele>
        <time>2023-08-12T06:20:57.000Z</time>
      </trkpt>
      <trkpt lat="45.20067" lon="5.99677">
        <ele>2431.3999023438</ele>
        <time>2023-08-12T06:21:03.000Z</time>
      </trkpt>
      <trkpt lat="45.20067" lon="5.99679">
        <ele>2431.3999023438</ele>
        <time>2023-08-12T06:21:09.000Z</time>
      </trkpt>
      <trkpt lat="45.20067" lon="5.99683">
        <ele>2431.1999511719</ele>
        <time>2023-08-12T06:21:18.000Z</time>
      </trkpt>
      <trkpt lat="45.20067" lon="5.9968">
        <ele>2431.3999023438</ele>
        <time>2023-08-12T06:21:24.000Z</time>
      </trkpt>
      <trkpt lat="45.20066" lon="5.99675">
        <ele>2431.3999023438</ele>
        <time>2023-08-12T06:21:33.000Z</time>
      </trkpt>
      <trkpt lat="45.20065" lon="5.99669">
        <ele>2430.3999023438</ele>
        <time>2023-08-12T06:21:42.000Z</time>
      </trkpt>
      <trkpt lat="45.20065" lon="5.99666">
        <ele>2430.1999511719</ele>
        <time>2023-08-12T06:21:46.000Z</time>
      </trkpt>
      <trkpt lat="45.20064" lon="5.99664">
        <ele>2429.6000976562</ele>
        <time>2023-08-12T06:21:50.000Z</time>
      </trkpt>
      <trkpt lat="45.20063" lon="5.99662">
        <ele>2429</ele>
        <time>2023-08-12T06:21:55.000Z</time>
      </trkpt>
      <trkpt lat="45.20062" lon="5.99661">
        <ele>2428.8000488281</ele>
        <time>2023-08-12T06:21:57.000Z</time>
      </trkpt>
      <trkpt lat="45.2006" lon="5.9966">
        <ele>2428.8000488281</ele>
        <time>2023-08-12T06:22:04.000Z</time>
      </trkpt>
      <trkpt lat="45.2006" lon="5.99654">
        <ele>2429</ele>
        <time>2023-08-12T06:22:14.000Z</time>
      </trkpt>
      <trkpt lat="45.20059" lon="5.99656">
        <ele>2428.6000976562</ele>
        <time>2023-08-12T06:22:22.000Z</time>
      </trkpt>
      <trkpt lat="45.20059" lon="5.99656">
        <ele>2428.6000976562</ele>
        <time>2023-08-12T06:22:29.000Z</time>
      </trkpt>
      <trkpt lat="45.20059" lon="5.99656">
        <ele>2428.8000488281</ele>
        <time>2023-08-12T06:22:39.000Z</time>
      </trkpt>
      <trkpt lat="45.20059" lon="5.99655">
        <ele>2428.8000488281</ele>
        <time>2023-08-12T06:22:48.000Z</time>
      </trkpt>
      <trkpt lat="45.2006" lon="5.99651">
        <ele>2428</ele>
        <time>2023-08-12T06:22:57.000Z</time>
      </trkpt>
      <trkpt lat="45.20059" lon="5.99648">
        <ele>2428</ele>
        <time>2023-08-12T06:23:04.000Z</time>
      </trkpt>
      <trkpt lat="45.20059" lon="5.99648">
        <ele>2428</ele>
        <time>2023-08-12T06:23:05.000Z</time>
      </trkpt>
      <trkpt lat="45.20057" lon="5.99642">
        <ele>2427.8000488281</ele>
        <time>2023-08-12T06:23:11.000Z</time>
      </trkpt>
      <trkpt lat="45.20056" lon="5.99639">
        <ele>2427.3999023438</ele>
        <time>2023-08-12T06:23:19.000Z</time>
      </trkpt>
      <trkpt lat="45.20054" lon="5.9963">
        <ele>2427</ele>
        <time>2023-08-12T06:23:26.000Z</time>
      </trkpt>
      <trkpt lat="45.20053" lon="5.99629">
        <ele>2426.8000488281</ele>
        <time>2023-08-12T06:23:27.000Z</time>
      </trkpt>
      <trkpt lat="45.20052" lon="5.99626">
        <ele>2426.1999511719</ele>
        <time>2023-08-12T06:23:34.000Z</time>
      </trkpt>
      <trkpt lat="45.20051" lon="5.99625">
        <ele>2425.8000488281</ele>
        <time>2023-08-12T06:23:37.000Z</time>
      </trkpt>
      <trkpt lat="45.2005" lon="5.99623">
        <ele>2425.3999023438</ele>
        <time>2023-08-12T06:23:41.000Z</time>
      </trkpt>
      <trkpt lat="45.20046" lon="5.9962">
        <ele>2424.8000488281</ele>
        <time>2023-08-12T06:23:47.000Z</time>
      </trkpt>
      <trkpt lat="45.20044" lon="5.99618">
        <ele>2424.3999023438</ele>
        <time>2023-08-12T06:23:55.000Z</time>
      </trkpt>
      <trkpt lat="45.20043" lon="5.99611">
        <ele>2424.3999023438</ele>
        <time>2023-08-12T06:24:05.000Z</time>
      </trkpt>
      <trkpt lat="45.20041" lon="5.99604">
        <ele>2424.6000976562</ele>
        <time>2023-08-12T06:24:14.000Z</time>
      </trkpt>
      <trkpt lat="45.20042" lon="5.99603">
        <ele>2424.8000488281</ele>
        <time>2023-08-12T06:24:21.000Z</time>
      </trkpt>
      <trkpt lat="45.20041" lon="5.99602">
        <ele>2424.6000976562</ele>
        <time>2023-08-12T06:24:27.000Z</time>
      </trkpt>
      <trkpt lat="45.20042" lon="5.99603">
        <ele>2424.6000976562</ele>
        <time>2023-08-12T06:24:33.000Z</time>
      </trkpt>
      <trkpt lat="45.20042" lon="5.99599">
        <ele>2424.1999511719</ele>
        <time>2023-08-12T06:24:42.000Z</time>
      </trkpt>
      <trkpt lat="45.20042" lon="5.99599">
        <ele>2424</ele>
        <time>2023-08-12T06:24:53.000Z</time>
      </trkpt>
      <trkpt lat="45.20042" lon="5.99601">
        <ele>2423.8000488281</ele>
        <time>2023-08-12T06:24:56.000Z</time>
      </trkpt>
      <trkpt lat="45.20041" lon="5.99602">
        <ele>2423.1999511719</ele>
        <time>2023-08-12T06:25:01.000Z</time>
      </trkpt>
      <trkpt lat="45.20042" lon="5.996">
        <ele>2422.8000488281</ele>
        <time>2023-08-12T06:25:05.000Z</time>
      </trkpt>
      <trkpt lat="45.20041" lon="5.99597">
        <ele>2422.3999023438</ele>
        <time>2023-08-12T06:25:09.000Z</time>
      </trkpt>
      <trkpt lat="45.20038" lon="5.99597">
        <ele>2422.1999511719</ele>
        <time>2023-08-12T06:25:16.000Z</time>
      </trkpt>
      <trkpt lat="45.20036" lon="5.996">
        <ele>2422.1999511719</ele>
        <time>2023-08-12T06:25:25.000Z</time>
      </trkpt>
      <trkpt lat="45.20037" lon="5.99598">
        <ele>2422</ele>
        <time>2023-08-12T06:25:31.000Z</time>
      </trkpt>
      <trkpt lat="45.20037" lon="5.99598">
        <ele>2421.6000976562</ele>
        <time>2023-08-12T06:25:35.000Z</time>
      </trkpt>
      <trkpt lat="45.20037" lon="5.99597">
        <ele>2421.3999023438</ele>
        <time>2023-08-12T06:25:37.000Z</time>
      </trkpt>
      <trkpt lat="45.20037" lon="5.99598">
        <ele>2421.1999511719</ele>
        <time>2023-08-12T06:25:44.000Z</time>
      </trkpt>
      <trkpt lat="45.20035" lon="5.99597">
        <ele>2421.1999511719</ele>
        <time>2023-08-12T06:25:50.000Z</time>
      </trkpt>
      <trkpt lat="45.20032" lon="5.99596">
        <ele>2420.6000976562</ele>
        <time>2023-08-12T06:25:57.000Z</time>
      </trkpt>
      <trkpt lat="45.20033" lon="5.99595">
        <ele>2420.1999511719</ele>
        <time>2023-08-12T06:26:01.000Z</time>
      </trkpt>
      <trkpt lat="45.20033" lon="5.99592">
        <ele>2419.6000976562</ele>
        <time>2023-08-12T06:26:08.000Z</time>
      </trkpt>
      <trkpt lat="45.20033" lon="5.99591">
        <ele>2419.3999023438</ele>
        <time>2023-08-12T06:26:09.000Z</time>
      </trkpt>
      <trkpt lat="45.20033" lon="5.99589">
        <ele>2418.6000976562</ele>
        <time>2023-08-12T06:26:16.000Z</time>
      </trkpt>
      <trkpt lat="45.20033" lon="5.99589">
        <ele>2418.3999023438</ele>
        <time>2023-08-12T06:26:17.000Z</time>
      </trkpt>
      <trkpt lat="45.20032" lon="5.99589">
        <ele>2417.8000488281</ele>
        <time>2023-08-12T06:26:26.000Z</time>
      </trkpt>
      <trkpt lat="45.20031" lon="5.99589">
        <ele>2417.3999023438</ele>
        <time>2023-08-12T06:26:30.000Z</time>
      </trkpt>
      <trkpt lat="45.2003" lon="5.99589">
        <ele>2417</ele>
        <time>2023-08-12T06:26:32.000Z</time>
      </trkpt>
      <trkpt lat="45.20028" lon="5.99589">
        <ele>2416.3999023438</ele>
        <time>2023-08-12T06:26:40.000Z</time>
      </trkpt>
      <trkpt lat="45.20029" lon="5.99588">
        <ele>2415.8000488281</ele>
        <time>2023-08-12T06:26:48.000Z</time>
      </trkpt>
      <trkpt lat="45.20029" lon="5.99588">
        <ele>2415.1999511719</ele>
        <time>2023-08-12T06:26:54.000Z</time>
      </trkpt>
      <trkpt lat="45.20029" lon="5.99586">
        <ele>2414.8000488281</ele>
        <time>2023-08-12T06:26:57.000Z</time>
      </trkpt>
      <trkpt lat="45.20031" lon="5.99585">
        <ele>2414.6000976562</ele>
        <time>2023-08-12T06:27:07.000Z</time>
      </trkpt>
      <trkpt lat="45.20028" lon="5.9959">
        <ele>2414.6000976562</ele>
        <time>2023-08-12T06:27:16.000Z</time>
      </trkpt>
      <trkpt lat="45.20027" lon="5.99591">
        <ele>2414.1999511719</ele>
        <time>2023-08-12T06:27:19.000Z</time>
      </trkpt>
      <trkpt lat="45.20027" lon="5.99591">
        <ele>2413.8000488281</ele>
        <time>2023-08-12T06:27:23.000Z</time>
      </trkpt>
      <trkpt lat="45.20027" lon="5.99592">
        <ele>2413.1999511719</ele>
        <time>2023-08-12T06:27:29.000Z</time>
      </trkpt>
      <trkpt lat="45.20026" lon="5.99592">
        <ele>2412.8000488281</ele>
        <time>2023-08-12T06:27:32.000Z</time>
      </trkpt>
      <trkpt lat="45.20024" lon="5.99592">
        <ele>2412</ele>
        <time>2023-08-12T06:27:37.000Z</time>
      </trkpt>
      <trkpt lat="45.20024" lon="5.99591">
        <ele>2411.8000488281</ele>
        <time>2023-08-12T06:27:40.000Z</time>
      </trkpt>
      <trkpt lat="45.20023" lon="5.99587">
        <ele>2411</ele>
        <time>2023-08-12T06:27:48.000Z</time>
      </trkpt>
      <trkpt lat="45.20023" lon="5.99587">
        <ele>2410.8000488281</ele>
        <time>2023-08-12T06:27:49.000Z</time>
      </trkpt>
      <trkpt lat="45.20022" lon="5.99586">
        <ele>2410.1999511719</ele>
        <time>2023-08-12T06:27:56.000Z</time>
      </trkpt>
      <trkpt lat="45.20023" lon="5.99586">
        <ele>2409.8000488281</ele>
        <time>2023-08-12T06:28:00.000Z</time>
      </trkpt>
      <trkpt lat="45.20023" lon="5.99587">
        <ele>2409.3999023438</ele>
        <time>2023-08-12T06:28:04.000Z</time>
      </trkpt>
      <trkpt lat="45.20021" lon="5.99587">
        <ele>2408.8000488281</ele>
        <time>2023-08-12T06:28:09.000Z</time>
      </trkpt>
      <trkpt lat="45.20021" lon="5.99586">
        <ele>2408.6000976562</ele>
        <time>2023-08-12T06:28:13.000Z</time>
      </trkpt>
      <trkpt lat="45.20021" lon="5.99587">
        <ele>2407.6000976562</ele>
        <time>2023-08-12T06:28:22.000Z</time>
      </trkpt>
      <trkpt lat="45.2002" lon="5.99586">
        <ele>2407</ele>
        <time>2023-08-12T06:28:30.000Z</time>
      </trkpt>
      <trkpt lat="45.20019" lon="5.99585">
        <ele>2406.6000976562</ele>
        <time>2023-08-12T06:28:34.000Z</time>
      </trkpt>
      <trkpt lat="45.20017" lon="5.99583">
        <ele>2406</ele>
        <time>2023-08-12T06:28:39.000Z</time>
      </trkpt>
      <trkpt lat="45.20018" lon="5.99582">
        <ele>2405.6000976562</ele>
        <time>2023-08-12T06:28:42.000Z</time>
      </trkpt>
      <trkpt lat="45.20018" lon="5.99581">
        <ele>2405.3999023438</ele>
        <time>2023-08-12T06:28:44.000Z</time>
      </trkpt>
      <trkpt lat="45.20018" lon="5.9958">
        <ele>2404.6000976562</ele>
        <time>2023-08-12T06:28:54.000Z</time>
      </trkpt>
      <trkpt lat="45.20018" lon="5.99581">
        <ele>2404.3999023438</ele>
        <time>2023-08-12T06:28:55.000Z</time>
      </trkpt>
      <trkpt lat="45.20017" lon="5.99579">
        <ele>2404.1999511719</ele>
        <time>2023-08-12T06:29:02.000Z</time>
      </trkpt>
      <trkpt lat="45.20015" lon="5.99579">
        <ele>2404.3999023438</ele>
        <time>2023-08-12T06:29:11.000Z</time>
      </trkpt>
      <trkpt lat="45.20012" lon="5.99581">
        <ele>2403.6000976562</ele>
        <time>2023-08-12T06:29:19.000Z</time>
      </trkpt>
      <trkpt lat="45.20013" lon="5.99581">
        <ele>2403.3999023438</ele>
        <time>2023-08-12T06:29:20.000Z</time>
      </trkpt>
      <trkpt lat="45.20012" lon="5.99579">
        <ele>2402.8000488281</ele>
        <time>2023-08-12T06:29:25.000Z</time>
      </trkpt>
      <trkpt lat="45.20011" lon="5.99577">
        <ele>2402.3999023438</ele>
        <time>2023-08-12T06:29:29.000Z</time>
      </trkpt>
      <trkpt lat="45.20011" lon="5.99577">
        <ele>2402</ele>
        <time>2023-08-12T06:29:32.000Z</time>
      </trkpt>
      <trkpt lat="45.2001" lon="5.99577">
        <ele>2401.1999511719</ele>
        <time>2023-08-12T06:29:37.000Z</time>
      </trkpt>
      <trkpt lat="45.20009" lon="5.99576">
        <ele>2401</ele>
        <time>2023-08-12T06:29:39.000Z</time>
      </trkpt>
      <trkpt lat="45.20008" lon="5.99576">
        <ele>2400</ele>
        <time>2023-08-12T06:29:46.000Z</time>
      </trkpt>
      <trkpt lat="45.20007" lon="5.99576">
        <ele>2400</ele>
        <time>2023-08-12T06:29:47.000Z</time>
      </trkpt>
      <trkpt lat="45.20005" lon="5.99575">
        <ele>2399.3999023438</ele>
        <time>2023-08-12T06:29:51.000Z</time>
      </trkpt>
      <trkpt lat="45.20004" lon="5.99574">
        <ele>2399</ele>
        <time>2023-08-12T06:29:53.000Z</time>
      </trkpt>
      <trkpt lat="45.20004" lon="5.99573">
        <ele>2399</ele>
        <time>2023-08-12T06:29:54.000Z</time>
      </trkpt>
      <trkpt lat="45.20004" lon="5.99574">
        <ele>2398.8000488281</ele>
        <time>2023-08-12T06:29:55.000Z</time>
      </trkpt>
      <trkpt lat="45.20004" lon="5.99573">
        <ele>2398</ele>
        <time>2023-08-12T06:29:59.000Z</time>
      </trkpt>
      <trkpt lat="45.20003" lon="5.99572">
        <ele>2397.8000488281</ele>
        <time>2023-08-12T06:30:00.000Z</time>
      </trkpt>
      <trkpt lat="45.20003" lon="5.99571">
        <ele>2397.1999511719</ele>
        <time>2023-08-12T06:30:06.000Z</time>
      </trkpt>
      <trkpt lat="45.20003" lon="5.99571">
        <ele>2396.8000488281</ele>
        <time>2023-08-12T06:30:08.000Z</time>
      </trkpt>
      <trkpt lat="45.20002" lon="5.99568">
        <ele>2396.3999023438</ele>
        <time>2023-08-12T06:30:14.000Z</time>
      </trkpt>
      <trkpt lat="45.19999" lon="5.9957">
        <ele>2395.8000488281</ele>
        <time>2023-08-12T06:30:19.000Z</time>
      </trkpt>
      <trkpt lat="45.19998" lon="5.99571">
        <ele>2395.6000976562</ele>
        <time>2023-08-12T06:30:21.000Z</time>
      </trkpt>
      <trkpt lat="45.19998" lon="5.99566">
        <ele>2394.8000488281</ele>
        <time>2023-08-12T06:30:28.000Z</time>
      </trkpt>
      <trkpt lat="45.19998" lon="5.99566">
        <ele>2394.8000488281</ele>
        <time>2023-08-12T06:30:29.000Z</time>
      </trkpt>
      <trkpt lat="45.19996" lon="5.99564">
        <ele>2393.6000976562</ele>
        <time>2023-08-12T06:30:37.000Z</time>
      </trkpt>
      <trkpt lat="45.19993" lon="5.99561">
        <ele>2392.6000976562</ele>
        <time>2023-08-12T06:30:44.000Z</time>
      </trkpt>
      <trkpt lat="45.19993" lon="5.99561">
        <ele>2392.3999023438</ele>
        <time>2023-08-12T06:30:46.000Z</time>
      </trkpt>
      <trkpt lat="45.19993" lon="5.99558">
        <ele>2391.3999023438</ele>
        <time>2023-08-12T06:30:54.000Z</time>
      </trkpt>
      <trkpt lat="45.19993" lon="5.99559">
        <ele>2391</ele>
        <time>2023-08-12T06:30:59.000Z</time>
      </trkpt>
      <trkpt lat="45.19991" lon="5.99558">
        <ele>2390.6000976562</ele>
        <time>2023-08-12T06:31:05.000Z</time>
      </trkpt>
      <trkpt lat="45.19991" lon="5.99557">
        <ele>2390.3999023438</ele>
        <time>2023-08-12T06:31:06.000Z</time>
      </trkpt>
      <trkpt lat="45.1999" lon="5.99553">
        <ele>2389.3999023438</ele>
        <time>2023-08-12T06:31:15.000Z</time>
      </trkpt>
      <trkpt lat="45.19989" lon="5.99547">
        <ele>2388.3999023438</ele>
        <time>2023-08-12T06:31:23.000Z</time>
      </trkpt>
      <trkpt lat="45.19988" lon="5.99543">
        <ele>2387.1999511719</ele>
        <time>2023-08-12T06:31:29.000Z</time>
      </trkpt>
      <trkpt lat="45.19988" lon="5.99543">
        <ele>2386.8000488281</ele>
        <time>2023-08-12T06:31:31.000Z</time>
      </trkpt>
      <trkpt lat="45.19985" lon="5.99541">
        <ele>2386.1999511719</ele>
        <time>2023-08-12T06:31:40.000Z</time>
      </trkpt>
      <trkpt lat="45.19984" lon="5.99539">
        <ele>2385.1999511719</ele>
        <time>2023-08-12T06:31:47.000Z</time>
      </trkpt>
      <trkpt lat="45.19983" lon="5.99537">
        <ele>2384.8000488281</ele>
        <time>2023-08-12T06:31:49.000Z</time>
      </trkpt>
      <trkpt lat="45.19983" lon="5.99534">
        <ele>2383.8000488281</ele>
        <time>2023-08-12T06:31:54.000Z</time>
      </trkpt>
      <trkpt lat="45.19983" lon="5.99531">
        <ele>2383.3999023438</ele>
        <time>2023-08-12T06:31:57.000Z</time>
      </trkpt>
      <trkpt lat="45.19982" lon="5.99529">
        <ele>2382.8000488281</ele>
        <time>2023-08-12T06:32:01.000Z</time>
      </trkpt>
      <trkpt lat="45.19982" lon="5.99528">
        <ele>2382.6000976562</ele>
        <time>2023-08-12T06:32:03.000Z</time>
      </trkpt>
      <trkpt lat="45.19981" lon="5.99525">
        <ele>2381.8000488281</ele>
        <time>2023-08-12T06:32:10.000Z</time>
      </trkpt>
      <trkpt lat="45.19981" lon="5.99525">
        <ele>2381.6000976562</ele>
        <time>2023-08-12T06:32:11.000Z</time>
      </trkpt>
      <trkpt lat="45.19981" lon="5.99525">
        <ele>2380.6000976562</ele>
        <time>2023-08-12T06:32:15.000Z</time>
      </trkpt>
      <trkpt lat="45.1998" lon="5.99525">
        <ele>2380.1999511719</ele>
        <time>2023-08-12T06:32:18.000Z</time>
      </trkpt>
      <trkpt lat="45.19981" lon="5.99526">
        <ele>2379.3999023438</ele>
        <time>2023-08-12T06:32:22.000Z</time>
      </trkpt>
      <trkpt lat="45.19981" lon="5.99526">
        <ele>2379.3999023438</ele>
        <time>2023-08-12T06:32:24.000Z</time>
      </trkpt>
      <trkpt lat="45.19978" lon="5.99522">
        <ele>2379</ele>
        <time>2023-08-12T06:32:31.000Z</time>
      </trkpt>
      <trkpt lat="45.19977" lon="5.9952">
        <ele>2378.3999023438</ele>
        <time>2023-08-12T06:32:34.000Z</time>
      </trkpt>
      <trkpt lat="45.19977" lon="5.99519">
        <ele>2377.8000488281</ele>
        <time>2023-08-12T06:32:39.000Z</time>
      </trkpt>
      <trkpt lat="45.19976" lon="5.99518">
        <ele>2377.3999023438</ele>
        <time>2023-08-12T06:32:41.000Z</time>
      </trkpt>
      <trkpt lat="45.19975" lon="5.99516">
        <ele>2376.6000976562</ele>
        <time>2023-08-12T06:32:45.000Z</time>
      </trkpt>
      <trkpt lat="45.19975" lon="5.99515">
        <ele>2376.1999511719</ele>
        <time>2023-08-12T06:32:47.000Z</time>
      </trkpt>
      <trkpt lat="45.19976" lon="5.99514">
        <ele>2375</ele>
        <time>2023-08-12T06:32:53.000Z</time>
      </trkpt>
      <trkpt lat="45.19978" lon="5.99508">
        <ele>2374.6000976562</ele>
        <time>2023-08-12T06:33:00.000Z</time>
      </trkpt>
      <trkpt lat="45.19978" lon="5.99507">
        <ele>2374</ele>
        <time>2023-08-12T06:33:03.000Z</time>
      </trkpt>
      <trkpt lat="45.19978" lon="5.99504">
        <ele>2372.8000488281</ele>
        <time>2023-08-12T06:33:10.000Z</time>
      </trkpt>
      <trkpt lat="45.19978" lon="5.99499">
        <ele>2371.8000488281</ele>
        <time>2023-08-12T06:33:18.000Z</time>
      </trkpt>
      <trkpt lat="45.19979" lon="5.99498">
        <ele>2371.1999511719</ele>
        <time>2023-08-12T06:33:21.000Z</time>
      </trkpt>
      <trkpt lat="45.19978" lon="5.99495">
        <ele>2370.6000976562</ele>
        <time>2023-08-12T06:33:25.000Z</time>
      </trkpt>
      <trkpt lat="45.19977" lon="5.99494">
        <ele>2370</ele>
        <time>2023-08-12T06:33:29.000Z</time>
      </trkpt>
      <trkpt lat="45.19977" lon="5.99496">
        <ele>2369.6000976562</ele>
        <time>2023-08-12T06:33:32.000Z</time>
      </trkpt>
      <trkpt lat="45.19974" lon="5.99495">
        <ele>2369</ele>
        <time>2023-08-12T06:33:36.000Z</time>
      </trkpt>
      <trkpt lat="45.19972" lon="5.99491">
        <ele>2368.3999023438</ele>
        <time>2023-08-12T06:33:41.000Z</time>
      </trkpt>
      <trkpt lat="45.19971" lon="5.99491">
        <ele>2368</ele>
        <time>2023-08-12T06:33:44.000Z</time>
      </trkpt>
      <trkpt lat="45.19972" lon="5.99494">
        <ele>2367.3999023438</ele>
        <time>2023-08-12T06:33:48.000Z</time>
      </trkpt>
      <trkpt lat="45.19972" lon="5.99495">
        <ele>2367</ele>
        <time>2023-08-12T06:33:51.000Z</time>
      </trkpt>
      <trkpt lat="45.19971" lon="5.99494">
        <ele>2366.1999511719</ele>
        <time>2023-08-12T06:33:55.000Z</time>
      </trkpt>
      <trkpt lat="45.1997" lon="5.99491">
        <ele>2365.1999511719</ele>
        <time>2023-08-12T06:34:01.000Z</time>
      </trkpt>
      <trkpt lat="45.19968" lon="5.9949">
        <ele>2364.1999511719</ele>
        <time>2023-08-12T06:34:09.000Z</time>
      </trkpt>
      <trkpt lat="45.19968" lon="5.99489">
        <ele>2364</ele>
        <time>2023-08-12T06:34:10.000Z</time>
      </trkpt>
      <trkpt lat="45.19967" lon="5.99488">
        <ele>2363</ele>
        <time>2023-08-12T06:34:18.000Z</time>
      </trkpt>
      <trkpt lat="45.19967" lon="5.99484">
        <ele>2362.3999023438</ele>
        <time>2023-08-12T06:34:26.000Z</time>
      </trkpt>
      <trkpt lat="45.19968" lon="5.99481">
        <ele>2361.8000488281</ele>
        <time>2023-08-12T06:34:30.000Z</time>
      </trkpt>
      <trkpt lat="45.19968" lon="5.99475">
        <ele>2360.8000488281</ele>
        <time>2023-08-12T06:34:36.000Z</time>
      </trkpt>
      <trkpt lat="45.19968" lon="5.99474">
        <ele>2360.8000488281</ele>
        <time>2023-08-12T06:34:37.000Z</time>
      </trkpt>
      <trkpt lat="45.19967" lon="5.99471">
        <ele>2359.8000488281</ele>
        <time>2023-08-12T06:34:44.000Z</time>
      </trkpt>
      <trkpt lat="45.19967" lon="5.9947">
        <ele>2359.6000976562</ele>
        <time>2023-08-12T06:34:45.000Z</time>
      </trkpt>
      <trkpt lat="45.19964" lon="5.99467">
        <ele>2358.3999023438</ele>
        <time>2023-08-12T06:34:52.000Z</time>
      </trkpt>
      <trkpt lat="45.19963" lon="5.99465">
        <ele>2357.3999023438</ele>
        <time>2023-08-12T06:34:58.000Z</time>
      </trkpt>
      <trkpt lat="45.19963" lon="5.99465">
        <ele>2357.3999023438</ele>
        <time>2023-08-12T06:34:59.000Z</time>
      </trkpt>
      <trkpt lat="45.19962" lon="5.99461">
        <ele>2356.3999023438</ele>
        <time>2023-08-12T06:35:06.000Z</time>
      </trkpt>
      <trkpt lat="45.19961" lon="5.9946">
        <ele>2356</ele>
        <time>2023-08-12T06:35:09.000Z</time>
      </trkpt>
      <trkpt lat="45.19962" lon="5.99459">
        <ele>2355.3999023438</ele>
        <time>2023-08-12T06:35:15.000Z</time>
      </trkpt>
      <trkpt lat="45.19962" lon="5.99458">
        <ele>2354.8000488281</ele>
        <time>2023-08-12T06:35:18.000Z</time>
      </trkpt>
      <trkpt lat="45.19962" lon="5.99456">
        <ele>2354.3999023438</ele>
        <time>2023-08-12T06:35:22.000Z</time>
      </trkpt>
      <trkpt lat="45.19962" lon="5.99455">
        <ele>2354</ele>
        <time>2023-08-12T06:35:24.000Z</time>
      </trkpt>
      <trkpt lat="45.19961" lon="5.99454">
        <ele>2353.3999023438</ele>
        <time>2023-08-12T06:35:34.000Z</time>
      </trkpt>
      <trkpt lat="45.19961" lon="5.99453">
        <ele>2353.3999023438</ele>
        <time>2023-08-12T06:35:35.000Z</time>
      </trkpt>
      <trkpt lat="45.19959" lon="5.99449">
        <ele>2352.3999023438</ele>
        <time>2023-08-12T06:35:43.000Z</time>
      </trkpt>
      <trkpt lat="45.19959" lon="5.99449">
        <ele>2352.1999511719</ele>
        <time>2023-08-12T06:35:44.000Z</time>
      </trkpt>
      <trkpt lat="45.19958" lon="5.99446">
        <ele>2351.3999023438</ele>
        <time>2023-08-12T06:35:49.000Z</time>
      </trkpt>
      <trkpt lat="45.19958" lon="5.99445">
        <ele>2351.1999511719</ele>
        <time>2023-08-12T06:35:50.000Z</time>
      </trkpt>
      <trkpt lat="45.19959" lon="5.99441">
        <ele>2351</ele>
        <time>2023-08-12T06:35:57.000Z</time>
      </trkpt>
      <trkpt lat="45.19961" lon="5.99439">
        <ele>2350.6000976562</ele>
        <time>2023-08-12T06:36:05.000Z</time>
      </trkpt>
      <trkpt lat="45.1996" lon="5.99435">
        <ele>2350</ele>
        <time>2023-08-12T06:36:11.000Z</time>
      </trkpt>
      <trkpt lat="45.1996" lon="5.99435">
        <ele>2349.8000488281</ele>
        <time>2023-08-12T06:36:12.000Z</time>
      </trkpt>
      <trkpt lat="45.1996" lon="5.9943">
        <ele>2349.1999511719</ele>
        <time>2023-08-12T06:36:19.000Z</time>
      </trkpt>
      <trkpt lat="45.1996" lon="5.99428">
        <ele>2349</ele>
        <time>2023-08-12T06:36:21.000Z</time>
      </trkpt>
      <trkpt lat="45.19961" lon="5.99425">
        <ele>2348.3999023438</ele>
        <time>2023-08-12T06:36:27.000Z</time>
      </trkpt>
      <trkpt lat="45.19962" lon="5.99421">
        <ele>2348</ele>
        <time>2023-08-12T06:36:32.000Z</time>
      </trkpt>
      <trkpt lat="45.19962" lon="5.99421">
        <ele>2347.6000976562</ele>
        <time>2023-08-12T06:36:35.000Z</time>
      </trkpt>
      <trkpt lat="45.19962" lon="5.99424">
        <ele>2347.3999023438</ele>
        <time>2023-08-12T06:36:44.000Z</time>
      </trkpt>
      <trkpt lat="45.19962" lon="5.99423">
        <ele>2347.3999023438</ele>
        <time>2023-08-12T06:36:50.000Z</time>
      </trkpt>
      <trkpt lat="45.19961" lon="5.9942">
        <ele>2347.3999023438</ele>
        <time>2023-08-12T06:36:58.000Z</time>
      </trkpt>
      <trkpt lat="45.19957" lon="5.9942">
        <ele>2347</ele>
        <time>2023-08-12T06:37:06.000Z</time>
      </trkpt>
      <trkpt lat="45.19955" lon="5.99418">
        <ele>2346.1999511719</ele>
        <time>2023-08-12T06:37:16.000Z</time>
      </trkpt>
      <trkpt lat="45.19955" lon="5.99418">
        <ele>2345.8000488281</ele>
        <time>2023-08-12T06:37:18.000Z</time>
      </trkpt>
      <trkpt lat="45.19954" lon="5.99419">
        <ele>2345.1999511719</ele>
        <time>2023-08-12T06:37:24.000Z</time>
      </trkpt>
      <trkpt lat="45.19954" lon="5.9942">
        <ele>2344.8000488281</ele>
        <time>2023-08-12T06:37:27.000Z</time>
      </trkpt>
      <trkpt lat="45.19952" lon="5.99421">
        <ele>2344.3999023438</ele>
        <time>2023-08-12T06:37:32.000Z</time>
      </trkpt>
      <trkpt lat="45.19949" lon="5.9942">
        <ele>2344.1999511719</ele>
        <time>2023-08-12T06:37:38.000Z</time>
      </trkpt>
      <trkpt lat="45.1995" lon="5.99419">
        <ele>2344.1999511719</ele>
        <time>2023-08-12T06:37:48.000Z</time>
      </trkpt>
      <trkpt lat="45.1995" lon="5.9942">
        <ele>2344.1999511719</ele>
        <time>2023-08-12T06:37:54.000Z</time>
      </trkpt>
      <trkpt lat="45.19948" lon="5.99422">
        <ele>2344</ele>
        <time>2023-08-12T06:38:01.000Z</time>
      </trkpt>
      <trkpt lat="45.19947" lon="5.99421">
        <ele>2343.8000488281</ele>
        <time>2023-08-12T06:38:03.000Z</time>
      </trkpt>
      <trkpt lat="45.19947" lon="5.99423">
        <ele>2343.1999511719</ele>
        <time>2023-08-12T06:38:08.000Z</time>
      </trkpt>
      <trkpt lat="45.19943" lon="5.99425">
        <ele>2342.6000976562</ele>
        <time>2023-08-12T06:38:15.000Z</time>
      </trkpt>
      <trkpt lat="45.19942" lon="5.99427">
        <ele>2342.1999511719</ele>
        <time>2023-08-12T06:38:18.000Z</time>
      </trkpt>
      <trkpt lat="45.19941" lon="5.99428">
        <ele>2341.6000976562</ele>
        <time>2023-08-12T06:38:22.000Z</time>
      </trkpt>
      <trkpt lat="45.19939" lon="5.99428">
        <ele>2341.3999023438</ele>
        <time>2023-08-12T06:38:26.000Z</time>
      </trkpt>
      <trkpt lat="45.19933" lon="5.99429">
        <ele>2341.3999023438</ele>
        <time>2023-08-12T06:38:34.000Z</time>
      </trkpt>
      <trkpt lat="45.19929" lon="5.99434">
        <ele>2341.1999511719</ele>
        <time>2023-08-12T06:38:40.000Z</time>
      </trkpt>
      <trkpt lat="45.19922" lon="5.99439">
        <ele>2341.1999511719</ele>
        <time>2023-08-12T06:38:51.000Z</time>
      </trkpt>
      <trkpt lat="45.19918" lon="5.99443">
        <ele>2342</ele>
        <time>2023-08-12T06:38:59.000Z</time>
      </trkpt>
      <trkpt lat="45.19916" lon="5.99446">
        <ele>2342.6000976562</ele>
        <time>2023-08-12T06:39:04.000Z</time>
      </trkpt>
      <trkpt lat="45.19915" lon="5.99446">
        <ele>2342.6000976562</ele>
        <time>2023-08-12T06:39:05.000Z</time>
      </trkpt>
      <trkpt lat="45.19912" lon="5.99447">
        <ele>2342.6000976562</ele>
        <time>2023-08-12T06:39:14.000Z</time>
      </trkpt>
      <trkpt lat="45.19912" lon="5.99452">
        <ele>2342.6000976562</ele>
        <time>2023-08-12T06:39:24.000Z</time>
      </trkpt>
      <trkpt lat="45.19911" lon="5.99453">
        <ele>2342.6000976562</ele>
        <time>2023-08-12T06:39:30.000Z</time>
      </trkpt>
      <trkpt lat="45.19913" lon="5.99451">
        <ele>2342.8000488281</ele>
        <time>2023-08-12T06:39:37.000Z</time>
      </trkpt>
      <trkpt lat="45.19909" lon="5.9945">
        <ele>2342.6000976562</ele>
        <time>2023-08-12T06:39:45.000Z</time>
      </trkpt>
      <trkpt lat="45.19909" lon="5.99455">
        <ele>2342.6000976562</ele>
        <time>2023-08-12T06:39:54.000Z</time>
      </trkpt>
      <trkpt lat="45.19907" lon="5.99461">
        <ele>2343.3999023438</ele>
        <time>2023-08-12T06:40:02.000Z</time>
      </trkpt>
      <trkpt lat="45.19899" lon="5.99461">
        <ele>2343</ele>
        <time>2023-08-12T06:40:11.000Z</time>
      </trkpt>
      <trkpt lat="45.19897" lon="5.99461">
        <ele>2343.3999023438</ele>
        <time>2023-08-12T06:40:19.000Z</time>
      </trkpt>
      <trkpt lat="45.19895" lon="5.99462">
        <ele>2343.3999023438</ele>
        <time>2023-08-12T06:40:27.000Z</time>
      </trkpt>
      <trkpt lat="45.19897" lon="5.99466">
        <ele>2343.8000488281</ele>
        <time>2023-08-12T06:40:35.000Z</time>
      </trkpt>
      <trkpt lat="45.19895" lon="5.99464">
        <ele>2344.3999023438</ele>
        <time>2023-08-12T06:40:42.000Z</time>
      </trkpt>
      <trkpt lat="45.19892" lon="5.99466">
        <ele>2344.8000488281</ele>
        <time>2023-08-12T06:40:48.000Z</time>
      </trkpt>
      <trkpt lat="45.19892" lon="5.99466">
        <ele>2344.8000488281</ele>
        <time>2023-08-12T06:40:50.000Z</time>
      </trkpt>
      <trkpt lat="45.19888" lon="5.99465">
        <ele>2345</ele>
        <time>2023-08-12T06:40:58.000Z</time>
      </trkpt>
      <trkpt lat="45.19886" lon="5.99468">
        <ele>2344.3999023438</ele>
        <time>2023-08-12T06:41:04.000Z</time>
      </trkpt>
      <trkpt lat="45.19882" lon="5.99466">
        <ele>2344.3999023438</ele>
        <time>2023-08-12T06:41:13.000Z</time>
      </trkpt>
      <trkpt lat="45.19878" lon="5.99466">
        <ele>2344.3999023438</ele>
        <time>2023-08-12T06:41:18.000Z</time>
      </trkpt>
      <trkpt lat="45.19875" lon="5.99463">
        <ele>2344.3999023438</ele>
        <time>2023-08-12T06:41:25.000Z</time>
      </trkpt>
      <trkpt lat="45.19872" lon="5.9946">
        <ele>2344.3999023438</ele>
        <time>2023-08-12T06:41:32.000Z</time>
      </trkpt>
      <trkpt lat="45.19873" lon="5.99455">
        <ele>2343.8000488281</ele>
        <time>2023-08-12T06:41:40.000Z</time>
      </trkpt>
      <trkpt lat="45.19876" lon="5.99451">
        <ele>2343.1999511719</ele>
        <time>2023-08-12T06:41:47.000Z</time>
      </trkpt>
      <trkpt lat="45.19877" lon="5.99447">
        <ele>2343.6000976562</ele>
        <time>2023-08-12T06:41:53.000Z</time>
      </trkpt>
      <trkpt lat="45.19877" lon="5.99443">
        <ele>2343.8000488281</ele>
        <time>2023-08-12T06:42:00.000Z</time>
      </trkpt>
      <trkpt lat="45.19876" lon="5.9944">
        <ele>2343.6000976562</ele>
        <time>2023-08-12T06:42:08.000Z</time>
      </trkpt>
      <trkpt lat="45.19875" lon="5.99437">
        <ele>2343.6000976562</ele>
        <time>2023-08-12T06:42:14.000Z</time>
      </trkpt>
      <trkpt lat="45.19874" lon="5.99433">
        <ele>2343.8000488281</ele>
        <time>2023-08-12T06:42:21.000Z</time>
      </trkpt>
      <trkpt lat="45.19872" lon="5.99427">
        <ele>2343.8000488281</ele>
        <time>2023-08-12T06:42:29.000Z</time>
      </trkpt>
      <trkpt lat="45.19869" lon="5.99418">
        <ele>2344</ele>
        <time>2023-08-12T06:42:38.000Z</time>
      </trkpt>
      <trkpt lat="45.19872" lon="5.99421">
        <ele>2344</ele>
        <time>2023-08-12T06:42:45.000Z</time>
      </trkpt>
      <trkpt lat="45.19874" lon="5.9942">
        <ele>2343.8000488281</ele>
        <time>2023-08-12T06:42:52.000Z</time>
      </trkpt>
      <trkpt lat="45.19874" lon="5.99419">
        <ele>2343.8000488281</ele>
        <time>2023-08-12T06:43:00.000Z</time>
      </trkpt>
      <trkpt lat="45.19873" lon="5.9942">
        <ele>2343.8000488281</ele>
        <time>2023-08-12T06:43:05.000Z</time>
      </trkpt>
      <trkpt lat="45.19869" lon="5.99415">
        <ele>2344.1999511719</ele>
        <time>2023-08-12T06:43:12.000Z</time>
      </trkpt>
      <trkpt lat="45.19866" lon="5.99413">
        <ele>2345</ele>
        <time>2023-08-12T06:43:18.000Z</time>
      </trkpt>
      <trkpt lat="45.19864" lon="5.9941">
        <ele>2346</ele>
        <time>2023-08-12T06:43:25.000Z</time>
      </trkpt>
      <trkpt lat="45.19865" lon="5.99408">
        <ele>2346.1999511719</ele>
        <time>2023-08-12T06:43:32.000Z</time>
      </trkpt>
      <trkpt lat="45.19864" lon="5.99404">
        <ele>2346.8000488281</ele>
        <time>2023-08-12T06:43:38.000Z</time>
      </trkpt>
      <trkpt lat="45.19864" lon="5.99403">
        <ele>2347</ele>
        <time>2023-08-12T06:43:39.000Z</time>
      </trkpt>
      <trkpt lat="45.19862" lon="5.99401">
        <ele>2348</ele>
        <time>2023-08-12T06:43:45.000Z</time>
      </trkpt>
      <trkpt lat="45.19862" lon="5.99401">
        <ele>2348.3999023438</ele>
        <time>2023-08-12T06:43:47.000Z</time>
      </trkpt>
      <trkpt lat="45.19863" lon="5.99394">
        <ele>2348.6000976562</ele>
        <time>2023-08-12T06:43:54.000Z</time>
      </trkpt>
      <trkpt lat="45.19863" lon="5.99389">
        <ele>2349</ele>
        <time>2023-08-12T06:44:00.000Z</time>
      </trkpt>
      <trkpt lat="45.19864" lon="5.99388">
        <ele>2349.1999511719</ele>
        <time>2023-08-12T06:44:02.000Z</time>
      </trkpt>
      <trkpt lat="45.19863" lon="5.99386">
        <ele>2349.1999511719</ele>
        <time>2023-08-12T06:44:12.000Z</time>
      </trkpt>
      <trkpt lat="45.19864" lon="5.99384">
        <ele>2349.1999511719</ele>
        <time>2023-08-12T06:44:20.000Z</time>
      </trkpt>
      <trkpt lat="45.19865" lon="5.99378">
        <ele>2348.1999511719</ele>
        <time>2023-08-12T06:44:31.000Z</time>
      </trkpt>
      <trkpt lat="45.19866" lon="5.99377">
        <ele>2347.8000488281</ele>
        <time>2023-08-12T06:44:33.000Z</time>
      </trkpt>
      <trkpt lat="45.19866" lon="5.99376">
        <ele>2347</ele>
        <time>2023-08-12T06:44:38.000Z</time>
      </trkpt>
      <trkpt lat="45.19867" lon="5.99374">
        <ele>2346.8000488281</ele>
        <time>2023-08-12T06:44:42.000Z</time>
      </trkpt>
      <trkpt lat="45.19867" lon="5.99375">
        <ele>2346.6000976562</ele>
        <time>2023-08-12T06:44:46.000Z</time>
      </trkpt>
      <trkpt lat="45.19866" lon="5.99373">
        <ele>2346.3999023438</ele>
        <time>2023-08-12T06:44:52.000Z</time>
      </trkpt>
      <trkpt lat="45.19865" lon="5.99371">
        <ele>2346.3999023438</ele>
        <time>2023-08-12T06:44:58.000Z</time>
      </trkpt>
      <trkpt lat="45.19863" lon="5.99367">
        <ele>2346.3999023438</ele>
        <time>2023-08-12T06:45:05.000Z</time>
      </trkpt>
      <trkpt lat="45.19861" lon="5.99365">
        <ele>2347</ele>
        <time>2023-08-12T06:45:15.000Z</time>
      </trkpt>
      <trkpt lat="45.1986" lon="5.9936">
        <ele>2347.8000488281</ele>
        <time>2023-08-12T06:45:23.000Z</time>
      </trkpt>
      <trkpt lat="45.19858" lon="5.99355">
        <ele>2348.8000488281</ele>
        <time>2023-08-12T06:45:32.000Z</time>
      </trkpt>
      <trkpt lat="45.19858" lon="5.99354">
        <ele>2349</ele>
        <time>2023-08-12T06:45:33.000Z</time>
      </trkpt>
      <trkpt lat="45.19855" lon="5.99354">
        <ele>2350</ele>
        <time>2023-08-12T06:45:41.000Z</time>
      </trkpt>
      <trkpt lat="45.19853" lon="5.99352">
        <ele>2351.1999511719</ele>
        <time>2023-08-12T06:45:50.000Z</time>
      </trkpt>
      <trkpt lat="45.1985" lon="5.99352">
        <ele>2352</ele>
        <time>2023-08-12T06:45:57.000Z</time>
      </trkpt>
      <trkpt lat="45.1985" lon="5.99353">
        <ele>2352.1999511719</ele>
        <time>2023-08-12T06:46:00.000Z</time>
      </trkpt>
      <trkpt lat="45.19846" lon="5.99355">
        <ele>2352.3999023438</ele>
        <time>2023-08-12T06:46:05.000Z</time>
      </trkpt>
      <trkpt lat="45.19847" lon="5.99351">
        <ele>2353.1999511719</ele>
        <time>2023-08-12T06:46:11.000Z</time>
      </trkpt>
      <trkpt lat="45.19847" lon="5.99351">
        <ele>2353.3999023438</ele>
        <time>2023-08-12T06:46:12.000Z</time>
      </trkpt>
      <trkpt lat="45.19851" lon="5.99347">
        <ele>2354.1999511719</ele>
        <time>2023-08-12T06:46:20.000Z</time>
      </trkpt>
      <trkpt lat="45.19854" lon="5.99343">
        <ele>2355</ele>
        <time>2023-08-12T06:46:25.000Z</time>
      </trkpt>
      <trkpt lat="45.19855" lon="5.99342">
        <ele>2355.3999023438</ele>
        <time>2023-08-12T06:46:27.000Z</time>
      </trkpt>
      <trkpt lat="45.19855" lon="5.99337">
        <ele>2356.3999023438</ele>
        <time>2023-08-12T06:46:34.000Z</time>
      </trkpt>
      <trkpt lat="45.19851" lon="5.99333">
        <ele>2357.3999023438</ele>
        <time>2023-08-12T06:46:41.000Z</time>
      </trkpt>
      <trkpt lat="45.1985" lon="5.99331">
        <ele>2358.3999023438</ele>
        <time>2023-08-12T06:46:47.000Z</time>
      </trkpt>
      <trkpt lat="45.1985" lon="5.9933">
        <ele>2358.6000976562</ele>
        <time>2023-08-12T06:46:49.000Z</time>
      </trkpt>
      <trkpt lat="45.19849" lon="5.99323">
        <ele>2359.1999511719</ele>
        <time>2023-08-12T06:46:57.000Z</time>
      </trkpt>
      <trkpt lat="45.19849" lon="5.99323">
        <ele>2359.6000976562</ele>
        <time>2023-08-12T06:46:59.000Z</time>
      </trkpt>
      <trkpt lat="45.19848" lon="5.99322">
        <ele>2359.6000976562</ele>
        <time>2023-08-12T06:47:03.000Z</time>
      </trkpt>
      <trkpt lat="45.1985" lon="5.99323">
        <ele>2359.6000976562</ele>
        <time>2023-08-12T06:47:13.000Z</time>
      </trkpt>
      <trkpt lat="45.1985" lon="5.99326">
        <ele>2359.3999023438</ele>
        <time>2023-08-12T06:47:20.000Z</time>
      </trkpt>
      <trkpt lat="45.19852" lon="5.99324">
        <ele>2359.3999023438</ele>
        <time>2023-08-12T06:47:29.000Z</time>
      </trkpt>
      <trkpt lat="45.19849" lon="5.99323">
        <ele>2359.1999511719</ele>
        <time>2023-08-12T06:47:39.000Z</time>
      </trkpt>
      <trkpt lat="45.19851" lon="5.99318">
        <ele>2359.1999511719</ele>
        <time>2023-08-12T06:47:47.000Z</time>
      </trkpt>
      <trkpt lat="45.19853" lon="5.99316">
        <ele>2359.6000976562</ele>
        <time>2023-08-12T06:47:52.000Z</time>
      </trkpt>
      <trkpt lat="45.19854" lon="5.9931">
        <ele>2360</ele>
        <time>2023-08-12T06:47:59.000Z</time>
      </trkpt>
      <trkpt lat="45.19856" lon="5.99302">
        <ele>2360.1999511719</ele>
        <time>2023-08-12T06:48:10.000Z</time>
      </trkpt>
      <trkpt lat="45.19857" lon="5.993">
        <ele>2360.6000976562</ele>
        <time>2023-08-12T06:48:16.000Z</time>
      </trkpt>
      <trkpt lat="45.19858" lon="5.99299">
        <ele>2360.6000976562</ele>
        <time>2023-08-12T06:48:17.000Z</time>
      </trkpt>
      <trkpt lat="45.1986" lon="5.99295">
        <ele>2361</ele>
        <time>2023-08-12T06:48:24.000Z</time>
      </trkpt>
      <trkpt lat="45.1986" lon="5.99285">
        <ele>2361.1999511719</ele>
        <time>2023-08-12T06:48:34.000Z</time>
      </trkpt>
      <trkpt lat="45.19857" lon="5.9928">
        <ele>2361.3999023438</ele>
        <time>2023-08-12T06:48:39.000Z</time>
      </trkpt>
      <trkpt lat="45.19857" lon="5.99276">
        <ele>2361.8000488281</ele>
        <time>2023-08-12T06:48:45.000Z</time>
      </trkpt>
      <trkpt lat="45.19857" lon="5.99275">
        <ele>2362.1999511719</ele>
        <time>2023-08-12T06:48:48.000Z</time>
      </trkpt>
      <trkpt lat="45.19856" lon="5.99272">
        <ele>2363</ele>
        <time>2023-08-12T06:48:54.000Z</time>
      </trkpt>
      <trkpt lat="45.19853" lon="5.99269">
        <ele>2363.1999511719</ele>
        <time>2023-08-12T06:49:02.000Z</time>
      </trkpt>
      <trkpt lat="45.19851" lon="5.99265">
        <ele>2363.1999511719</ele>
        <time>2023-08-12T06:49:10.000Z</time>
      </trkpt>
      <trkpt lat="45.19851" lon="5.9926">
        <ele>2363.6000976562</ele>
        <time>2023-08-12T06:49:19.000Z</time>
      </trkpt>
      <trkpt lat="45.19851" lon="5.9926">
        <ele>2364</ele>
        <time>2023-08-12T06:49:20.000Z</time>
      </trkpt>
      <trkpt lat="45.1985" lon="5.9926">
        <ele>2364</ele>
        <time>2023-08-12T06:49:27.000Z</time>
      </trkpt>
      <trkpt lat="45.19851" lon="5.99261">
        <ele>2363.8000488281</ele>
        <time>2023-08-12T06:49:36.000Z</time>
      </trkpt>
      <trkpt lat="45.19851" lon="5.99261">
        <ele>2363</ele>
        <time>2023-08-12T06:49:42.000Z</time>
      </trkpt>
      <trkpt lat="45.19851" lon="5.9926">
        <ele>2362.8000488281</ele>
        <time>2023-08-12T06:49:43.000Z</time>
      </trkpt>
      <trkpt lat="45.19849" lon="5.99257">
        <ele>2362.6000976562</ele>
        <time>2023-08-12T06:49:51.000Z</time>
      </trkpt>
      <trkpt lat="45.1985" lon="5.99254">
        <ele>2362.3999023438</ele>
        <time>2023-08-12T06:49:58.000Z</time>
      </trkpt>
      <trkpt lat="45.19852" lon="5.9925">
        <ele>2362</ele>
        <time>2023-08-12T06:50:07.000Z</time>
      </trkpt>
      <trkpt lat="45.19856" lon="5.99247">
        <ele>2362.6000976562</ele>
        <time>2023-08-12T06:50:15.000Z</time>
      </trkpt>
      <trkpt lat="45.19858" lon="5.99246">
        <ele>2362.8000488281</ele>
        <time>2023-08-12T06:50:22.000Z</time>
      </trkpt>
      <trkpt lat="45.19862" lon="5.99241">
        <ele>2363.8000488281</ele>
        <time>2023-08-12T06:50:31.000Z</time>
      </trkpt>
      <trkpt lat="45.19863" lon="5.99241">
        <ele>2364</ele>
        <time>2023-08-12T06:50:32.000Z</time>
      </trkpt>
      <trkpt lat="45.19865" lon="5.99239">
        <ele>2364.6000976562</ele>
        <time>2023-08-12T06:50:38.000Z</time>
      </trkpt>
      <trkpt lat="45.19866" lon="5.99236">
        <ele>2365</ele>
        <time>2023-08-12T06:50:41.000Z</time>
      </trkpt>
      <trkpt lat="45.19868" lon="5.99233">
        <ele>2365.8000488281</ele>
        <time>2023-08-12T06:50:47.000Z</time>
      </trkpt>
      <trkpt lat="45.19868" lon="5.99232">
        <ele>2366.1999511719</ele>
        <time>2023-08-12T06:50:50.000Z</time>
      </trkpt>
      <trkpt lat="45.1987" lon="5.99227">
        <ele>2366.8000488281</ele>
        <time>2023-08-12T06:50:56.000Z</time>
      </trkpt>
      <trkpt lat="45.19872" lon="5.99224">
        <ele>2367.1999511719</ele>
        <time>2023-08-12T06:51:01.000Z</time>
      </trkpt>
      <trkpt lat="45.19873" lon="5.99222">
        <ele>2367.6000976562</ele>
        <time>2023-08-12T06:51:05.000Z</time>
      </trkpt>
      <trkpt lat="45.19875" lon="5.99221">
        <ele>2368.1999511719</ele>
        <time>2023-08-12T06:51:14.000Z</time>
      </trkpt>
      <trkpt lat="45.19875" lon="5.99221">
        <ele>2368.3999023438</ele>
        <time>2023-08-12T06:51:15.000Z</time>
      </trkpt>
      <trkpt lat="45.1988" lon="5.99219">
        <ele>2368.8000488281</ele>
        <time>2023-08-12T06:51:22.000Z</time>
      </trkpt>
      <trkpt lat="45.19883" lon="5.99212">
        <ele>2369.3999023438</ele>
        <time>2023-08-12T06:51:30.000Z</time>
      </trkpt>
      <trkpt lat="45.19883" lon="5.9921">
        <ele>2369.6000976562</ele>
        <time>2023-08-12T06:51:32.000Z</time>
      </trkpt>
      <trkpt lat="45.19881" lon="5.99208">
        <ele>2369.8000488281</ele>
        <time>2023-08-12T06:51:35.000Z</time>
      </trkpt>
      <trkpt lat="45.19879" lon="5.99208">
        <ele>2369.8000488281</ele>
        <time>2023-08-12T06:51:38.000Z</time>
      </trkpt>
      <trkpt lat="45.19878" lon="5.99204">
        <ele>2369.3999023438</ele>
        <time>2023-08-12T06:51:45.000Z</time>
      </trkpt>
      <trkpt lat="45.19878" lon="5.99198">
        <ele>2369.6000976562</ele>
        <time>2023-08-12T06:51:53.000Z</time>
      </trkpt>
      <trkpt lat="45.19878" lon="5.99197">
        <ele>2370.3999023438</ele>
        <time>2023-08-12T06:52:00.000Z</time>
      </trkpt>
      <trkpt lat="45.19877" lon="5.99197">
        <ele>2370.6000976562</ele>
        <time>2023-08-12T06:52:02.000Z</time>
      </trkpt>
      <trkpt lat="45.19872" lon="5.99197">
        <ele>2371.6000976562</ele>
        <time>2023-08-12T06:52:09.000Z</time>
      </trkpt>
      <trkpt lat="45.19871" lon="5.99197">
        <ele>2371.8000488281</ele>
        <time>2023-08-12T06:52:10.000Z</time>
      </trkpt>
      <trkpt lat="45.19873" lon="5.99193">
        <ele>2372.6000976562</ele>
        <time>2023-08-12T06:52:20.000Z</time>
      </trkpt>
      <trkpt lat="45.19873" lon="5.99192">
        <ele>2372.6000976562</ele>
        <time>2023-08-12T06:52:22.000Z</time>
      </trkpt>
      <trkpt lat="45.1987" lon="5.99191">
        <ele>2373</ele>
        <time>2023-08-12T06:52:29.000Z</time>
      </trkpt>
      <trkpt lat="45.19869" lon="5.9919">
        <ele>2373.6000976562</ele>
        <time>2023-08-12T06:52:35.000Z</time>
      </trkpt>
      <trkpt lat="45.19869" lon="5.99189">
        <ele>2373.8000488281</ele>
        <time>2023-08-12T06:52:37.000Z</time>
      </trkpt>
      <trkpt lat="45.19867" lon="5.99186">
        <ele>2374.6000976562</ele>
        <time>2023-08-12T06:52:44.000Z</time>
      </trkpt>
      <trkpt lat="45.19866" lon="5.99185">
        <ele>2374.8000488281</ele>
        <time>2023-08-12T06:52:45.000Z</time>
      </trkpt>
      <trkpt lat="45.19866" lon="5.99183">
        <ele>2375.8000488281</ele>
        <time>2023-08-12T06:52:51.000Z</time>
      </trkpt>
      <trkpt lat="45.19866" lon="5.99182">
        <ele>2376</ele>
        <time>2023-08-12T06:52:52.000Z</time>
      </trkpt>
      <trkpt lat="45.19867" lon="5.9918">
        <ele>2377</ele>
        <time>2023-08-12T06:52:59.000Z</time>
      </trkpt>
      <trkpt lat="45.19865" lon="5.99176">
        <ele>2377.6000976562</ele>
        <time>2023-08-12T06:53:07.000Z</time>
      </trkpt>
      <trkpt lat="45.19863" lon="5.99175">
        <ele>2378</ele>
        <time>2023-08-12T06:53:14.000Z</time>
      </trkpt>
      <trkpt lat="45.19863" lon="5.99176">
        <ele>2378.1999511719</ele>
        <time>2023-08-12T06:53:15.000Z</time>
      </trkpt>
      <trkpt lat="45.19863" lon="5.99174">
        <ele>2378.3999023438</ele>
        <time>2023-08-12T06:53:23.000Z</time>
      </trkpt>
      <trkpt lat="45.19867" lon="5.9917">
        <ele>2378.6000976562</ele>
        <time>2023-08-12T06:53:33.000Z</time>
      </trkpt>
      <trkpt lat="45.19864" lon="5.99164">
        <ele>2378.3999023438</ele>
        <time>2023-08-12T06:53:39.000Z</time>
      </trkpt>
      <trkpt lat="45.19862" lon="5.99158">
        <ele>2378.1999511719</ele>
        <time>2023-08-12T06:53:46.000Z</time>
      </trkpt>
      <trkpt lat="45.19859" lon="5.99151">
        <ele>2378.6000976562</ele>
        <time>2023-08-12T06:53:53.000Z</time>
      </trkpt>
      <trkpt lat="45.19859" lon="5.99148">
        <ele>2379</ele>
        <time>2023-08-12T06:54:00.000Z</time>
      </trkpt>
      <trkpt lat="45.19859" lon="5.99147">
        <ele>2379.1999511719</ele>
        <time>2023-08-12T06:54:01.000Z</time>
      </trkpt>
      <trkpt lat="45.19855" lon="5.99141">
        <ele>2380</ele>
        <time>2023-08-12T06:54:09.000Z</time>
      </trkpt>
      <trkpt lat="45.19855" lon="5.99141">
        <ele>2380.1999511719</ele>
        <time>2023-08-12T06:54:10.000Z</time>
      </trkpt>
      <trkpt lat="45.19856" lon="5.99141">
        <ele>2380.3999023438</ele>
        <time>2023-08-12T06:54:17.000Z</time>
      </trkpt>
      <trkpt lat="45.19853" lon="5.9914">
        <ele>2380.3999023438</ele>
        <time>2023-08-12T06:54:26.000Z</time>
      </trkpt>
      <trkpt lat="45.19848" lon="5.99137">
        <ele>2380.3999023438</ele>
        <time>2023-08-12T06:54:35.000Z</time>
      </trkpt>
      <trkpt lat="45.19845" lon="5.99136">
        <ele>2380.6000976562</ele>
        <time>2023-08-12T06:54:40.000Z</time>
      </trkpt>
      <trkpt lat="45.19842" lon="5.99133">
        <ele>2380.3999023438</ele>
        <time>2023-08-12T06:54:46.000Z</time>
      </trkpt>
      <trkpt lat="45.19838" lon="5.99133">
        <ele>2380.3999023438</ele>
        <time>2023-08-12T06:54:52.000Z</time>
      </trkpt>
      <trkpt lat="45.19839" lon="5.99132">
        <ele>2380.1999511719</ele>
        <time>2023-08-12T06:54:55.000Z</time>
      </trkpt>
      <trkpt lat="45.1984" lon="5.99133">
        <ele>2380.1999511719</ele>
        <time>2023-08-12T06:54:59.000Z</time>
      </trkpt>
      <trkpt lat="45.1984" lon="5.99133">
        <ele>2380.1999511719</ele>
        <time>2023-08-12T06:55:01.000Z</time>
      </trkpt>
      <trkpt lat="45.19842" lon="5.99132">
        <ele>2380.1999511719</ele>
        <time>2023-08-12T06:55:06.000Z</time>
      </trkpt>
      <trkpt lat="45.19843" lon="5.99131">
        <ele>2380</ele>
        <time>2023-08-12T06:55:14.000Z</time>
      </trkpt>
      <trkpt lat="45.1984" lon="5.99131">
        <ele>2380</ele>
        <time>2023-08-12T06:55:21.000Z</time>
      </trkpt>
      <trkpt lat="45.19835" lon="5.99129">
        <ele>2379.6000976562</ele>
        <time>2023-08-12T06:55:28.000Z</time>
      </trkpt>
      <trkpt lat="45.19831" lon="5.99127">
        <ele>2379.6000976562</ele>
        <time>2023-08-12T06:55:34.000Z</time>
      </trkpt>
      <trkpt lat="45.19827" lon="5.99126">
        <ele>2379.1999511719</ele>
        <time>2023-08-12T06:55:42.000Z</time>
      </trkpt>
      <trkpt lat="45.19825" lon="5.99124">
        <ele>2379</ele>
        <time>2023-08-12T06:55:45.000Z</time>
      </trkpt>
      <trkpt lat="45.19821" lon="5.99121">
        <ele>2378.6000976562</ele>
        <time>2023-08-12T06:55:50.000Z</time>
      </trkpt>
      <trkpt lat="45.19817" lon="5.99121">
        <ele>2378.6000976562</ele>
        <time>2023-08-12T06:55:59.000Z</time>
      </trkpt>
      <trkpt lat="45.19812" lon="5.99122">
        <ele>2378.6000976562</ele>
        <time>2023-08-12T06:56:05.000Z</time>
      </trkpt>
      <trkpt lat="45.19808" lon="5.99124">
        <ele>2379.3999023438</ele>
        <time>2023-08-12T06:56:12.000Z</time>
      </trkpt>
      <trkpt lat="45.19805" lon="5.99124">
        <ele>2380.1999511719</ele>
        <time>2023-08-12T06:56:18.000Z</time>
      </trkpt>
      <trkpt lat="45.19805" lon="5.99124">
        <ele>2380.1999511719</ele>
        <time>2023-08-12T06:56:19.000Z</time>
      </trkpt>
      <trkpt lat="45.19798" lon="5.9912">
        <ele>2381.1999511719</ele>
        <time>2023-08-12T06:56:27.000Z</time>
      </trkpt>
      <trkpt lat="45.19795" lon="5.99117">
        <ele>2382</ele>
        <time>2023-08-12T06:56:35.000Z</time>
      </trkpt>
      <trkpt lat="45.19794" lon="5.99116">
        <ele>2382.3999023438</ele>
        <time>2023-08-12T06:56:38.000Z</time>
      </trkpt>
      <trkpt lat="45.19792" lon="5.99111">
        <ele>2382.8000488281</ele>
        <time>2023-08-12T06:56:43.000Z</time>
      </trkpt>
      <trkpt lat="45.19793" lon="5.9911">
        <ele>2383.1999511719</ele>
        <time>2023-08-12T06:56:49.000Z</time>
      </trkpt>
      <trkpt lat="45.19791" lon="5.99104">
        <ele>2382.6000976562</ele>
        <time>2023-08-12T06:56:59.000Z</time>
      </trkpt>
      <trkpt lat="45.19789" lon="5.991">
        <ele>2381.8000488281</ele>
        <time>2023-08-12T06:57:07.000Z</time>
      </trkpt>
      <trkpt lat="45.19788" lon="5.99097">
        <ele>2381.1999511719</ele>
        <time>2023-08-12T06:57:11.000Z</time>
      </trkpt>
      <trkpt lat="45.19788" lon="5.99097">
        <ele>2381.1999511719</ele>
        <time>2023-08-12T06:57:13.000Z</time>
      </trkpt>
      <trkpt lat="45.19787" lon="5.99092">
        <ele>2381.3999023438</ele>
        <time>2023-08-12T06:57:20.000Z</time>
      </trkpt>
      <trkpt lat="45.19788" lon="5.99088">
        <ele>2381.8000488281</ele>
        <time>2023-08-12T06:57:27.000Z</time>
      </trkpt>
      <trkpt lat="45.19787" lon="5.99083">
        <ele>2381.6000976562</ele>
        <time>2023-08-12T06:57:34.000Z</time>
      </trkpt>
      <trkpt lat="45.19786" lon="5.9908">
        <ele>2381.1999511719</ele>
        <time>2023-08-12T06:57:40.000Z</time>
      </trkpt>
      <trkpt lat="45.19781" lon="5.99077">
        <ele>2380.8000488281</ele>
        <time>2023-08-12T06:57:48.000Z</time>
      </trkpt>
      <trkpt lat="45.19778" lon="5.99074">
        <ele>2380.3999023438</ele>
        <time>2023-08-12T06:57:54.000Z</time>
      </trkpt>
      <trkpt lat="45.19778" lon="5.99073">
        <ele>2380.1999511719</ele>
        <time>2023-08-12T06:57:55.000Z</time>
      </trkpt>
      <trkpt lat="45.19778" lon="5.99068">
        <ele>2379.3999023438</ele>
        <time>2023-08-12T06:58:03.000Z</time>
      </trkpt>
      <trkpt lat="45.19778" lon="5.99067">
        <ele>2379</ele>
        <time>2023-08-12T06:58:05.000Z</time>
      </trkpt>
      <trkpt lat="45.1978" lon="5.99062">
        <ele>2378.1999511719</ele>
        <time>2023-08-12T06:58:12.000Z</time>
      </trkpt>
      <trkpt lat="45.1978" lon="5.99061">
        <ele>2378</ele>
        <time>2023-08-12T06:58:13.000Z</time>
      </trkpt>
      <trkpt lat="45.19781" lon="5.99056">
        <ele>2377.6000976562</ele>
        <time>2023-08-12T06:58:20.000Z</time>
      </trkpt>
      <trkpt lat="45.19779" lon="5.99051">
        <ele>2378.3999023438</ele>
        <time>2023-08-12T06:58:28.000Z</time>
      </trkpt>
      <trkpt lat="45.19777" lon="5.99048">
        <ele>2378.8000488281</ele>
        <time>2023-08-12T06:58:34.000Z</time>
      </trkpt>
      <trkpt lat="45.19776" lon="5.99045">
        <ele>2379</ele>
        <time>2023-08-12T06:58:37.000Z</time>
      </trkpt>
      <trkpt lat="45.19775" lon="5.99041">
        <ele>2379.6000976562</ele>
        <time>2023-08-12T06:58:43.000Z</time>
      </trkpt>
      <trkpt lat="45.19773" lon="5.99039">
        <ele>2380</ele>
        <time>2023-08-12T06:58:46.000Z</time>
      </trkpt>
      <trkpt lat="45.19772" lon="5.99035">
        <ele>2381</ele>
        <time>2023-08-12T06:58:52.000Z</time>
      </trkpt>
      <trkpt lat="45.19772" lon="5.99036">
        <ele>2381.1999511719</ele>
        <time>2023-08-12T06:58:53.000Z</time>
      </trkpt>
      <trkpt lat="45.19771" lon="5.99033">
        <ele>2381.1999511719</ele>
        <time>2023-08-12T06:58:59.000Z</time>
      </trkpt>
      <trkpt lat="45.19766" lon="5.9903">
        <ele>2381.1999511719</ele>
        <time>2023-08-12T06:59:05.000Z</time>
      </trkpt>
      <trkpt lat="45.19764" lon="5.99025">
        <ele>2381.3999023438</ele>
        <time>2023-08-12T06:59:11.000Z</time>
      </trkpt>
      <trkpt lat="45.19762" lon="5.99022">
        <ele>2382.1999511719</ele>
        <time>2023-08-12T06:59:15.000Z</time>
      </trkpt>
      <trkpt lat="45.19761" lon="5.9902">
        <ele>2382.8000488281</ele>
        <time>2023-08-12T06:59:18.000Z</time>
      </trkpt>
      <trkpt lat="45.19761" lon="5.9902">
        <ele>2383.3999023438</ele>
        <time>2023-08-12T06:59:22.000Z</time>
      </trkpt>
      <trkpt lat="45.1976" lon="5.9902">
        <ele>2383.6000976562</ele>
        <time>2023-08-12T06:59:24.000Z</time>
      </trkpt>
      <trkpt lat="45.19758" lon="5.99019">
        <ele>2384.3999023438</ele>
        <time>2023-08-12T06:59:27.000Z</time>
      </trkpt>
      <trkpt lat="45.19759" lon="5.99019">
        <ele>2384.8000488281</ele>
        <time>2023-08-12T06:59:29.000Z</time>
      </trkpt>
      <trkpt lat="45.19759" lon="5.99019">
        <ele>2384.8000488281</ele>
        <time>2023-08-12T06:59:30.000Z</time>
      </trkpt>
      <trkpt lat="45.19758" lon="5.99017">
        <ele>2385</ele>
        <time>2023-08-12T06:59:31.000Z</time>
      </trkpt>
      <trkpt lat="45.19757" lon="5.99013">
        <ele>2385.3999023438</ele>
        <time>2023-08-12T06:59:36.000Z</time>
      </trkpt>
      <trkpt lat="45.19757" lon="5.99011">
        <ele>2385.6000976562</ele>
        <time>2023-08-12T06:59:38.000Z</time>
      </trkpt>
      <trkpt lat="45.19756" lon="5.9901">
        <ele>2386.3999023438</ele>
        <time>2023-08-12T06:59:42.000Z</time>
      </trkpt>
      <trkpt lat="45.19755" lon="5.99009">
        <ele>2387</ele>
        <time>2023-08-12T06:59:45.000Z</time>
      </trkpt>
      <trkpt lat="45.19754" lon="5.99008">
        <ele>2387.6000976562</ele>
        <time>2023-08-12T06:59:47.000Z</time>
      </trkpt>
      <trkpt lat="45.19752" lon="5.99004">
        <ele>2388.6000976562</ele>
        <time>2023-08-12T06:59:52.000Z</time>
      </trkpt>
      <trkpt lat="45.19751" lon="5.99003">
        <ele>2388.8000488281</ele>
        <time>2023-08-12T06:59:53.000Z</time>
      </trkpt>
      <trkpt lat="45.19752" lon="5.98996">
        <ele>2389.3999023438</ele>
        <time>2023-08-12T07:00:01.000Z</time>
      </trkpt>
      <trkpt lat="45.19754" lon="5.9899">
        <ele>2389.8000488281</ele>
        <time>2023-08-12T07:00:09.000Z</time>
      </trkpt>
      <trkpt lat="45.19754" lon="5.98987">
        <ele>2389.8000488281</ele>
        <time>2023-08-12T07:00:11.000Z</time>
      </trkpt>
      <trkpt lat="45.19755" lon="5.98983">
        <ele>2390.8000488281</ele>
        <time>2023-08-12T07:00:18.000Z</time>
      </trkpt>
      <trkpt lat="45.19755" lon="5.98979">
        <ele>2391.6000976562</ele>
        <time>2023-08-12T07:00:22.000Z</time>
      </trkpt>
      <trkpt lat="45.19755" lon="5.98978">
        <ele>2392</ele>
        <time>2023-08-12T07:00:24.000Z</time>
      </trkpt>
      <trkpt lat="45.19755" lon="5.98974">
        <ele>2392.1999511719</ele>
        <time>2023-08-12T07:00:30.000Z</time>
      </trkpt>
      <trkpt lat="45.19758" lon="5.98969">
        <ele>2391.6000976562</ele>
        <time>2023-08-12T07:00:38.000Z</time>
      </trkpt>
      <trkpt lat="45.19759" lon="5.98966">
        <ele>2391.6000976562</ele>
        <time>2023-08-12T07:00:44.000Z</time>
      </trkpt>
      <trkpt lat="45.19764" lon="5.98963">
        <ele>2392.3999023438</ele>
        <time>2023-08-12T07:00:53.000Z</time>
      </trkpt>
      <trkpt lat="45.19764" lon="5.9896">
        <ele>2392.6000976562</ele>
        <time>2023-08-12T07:00:56.000Z</time>
      </trkpt>
      <trkpt lat="45.19762" lon="5.98958">
        <ele>2392.6000976562</ele>
        <time>2023-08-12T07:01:00.000Z</time>
      </trkpt>
      <trkpt lat="45.1976" lon="5.98953">
        <ele>2393</ele>
        <time>2023-08-12T07:01:06.000Z</time>
      </trkpt>
      <trkpt lat="45.1976" lon="5.98953">
        <ele>2393.1999511719</ele>
        <time>2023-08-12T07:01:09.000Z</time>
      </trkpt>
      <trkpt lat="45.19763" lon="5.98946">
        <ele>2393.8000488281</ele>
        <time>2023-08-12T07:01:17.000Z</time>
      </trkpt>
      <trkpt lat="45.19762" lon="5.98944">
        <ele>2394</ele>
        <time>2023-08-12T07:01:26.000Z</time>
      </trkpt>
      <trkpt lat="45.19762" lon="5.98947">
        <ele>2393.6000976562</ele>
        <time>2023-08-12T07:01:35.000Z</time>
      </trkpt>
      <trkpt lat="45.19767" lon="5.98947">
        <ele>2394</ele>
        <time>2023-08-12T07:01:42.000Z</time>
      </trkpt>
      <trkpt lat="45.19768" lon="5.98947">
        <ele>2394</ele>
        <time>2023-08-12T07:01:43.000Z</time>
      </trkpt>
      <trkpt lat="45.19762" lon="5.98947">
        <ele>2394.1999511719</ele>
        <time>2023-08-12T07:01:50.000Z</time>
      </trkpt>
      <trkpt lat="45.19761" lon="5.9895">
        <ele>2394.1999511719</ele>
        <time>2023-08-12T07:01:59.000Z</time>
      </trkpt>
      <trkpt lat="45.19762" lon="5.98951">
        <ele>2394.1999511719</ele>
        <time>2023-08-12T07:02:07.000Z</time>
      </trkpt>
      <trkpt lat="45.19761" lon="5.98948">
        <ele>2394.1999511719</ele>
        <time>2023-08-12T07:02:17.000Z</time>
      </trkpt>
      <trkpt lat="45.19762" lon="5.98947">
        <ele>2394.1999511719</ele>
        <time>2023-08-12T07:02:24.000Z</time>
      </trkpt>
      <trkpt lat="45.19765" lon="5.98945">
        <ele>2394.1999511719</ele>
        <time>2023-08-12T07:02:30.000Z</time>
      </trkpt>
      <trkpt lat="45.19763" lon="5.98938">
        <ele>2394.1999511719</ele>
        <time>2023-08-12T07:02:37.000Z</time>
      </trkpt>
      <trkpt lat="45.19756" lon="5.98925">
        <ele>2393.8000488281</ele>
        <time>2023-08-12T07:02:48.000Z</time>
      </trkpt>
      <trkpt lat="45.19755" lon="5.98918">
        <ele>2394.3999023438</ele>
        <time>2023-08-12T07:02:56.000Z</time>
      </trkpt>
      <trkpt lat="45.19753" lon="5.98915">
        <ele>2395</ele>
        <time>2023-08-12T07:03:00.000Z</time>
      </trkpt>
      <trkpt lat="45.19752" lon="5.98914">
        <ele>2395.3999023438</ele>
        <time>2023-08-12T07:03:02.000Z</time>
      </trkpt>
      <trkpt lat="45.19749" lon="5.9891">
        <ele>2396</ele>
        <time>2023-08-12T07:03:07.000Z</time>
      </trkpt>
      <trkpt lat="45.19747" lon="5.98908">
        <ele>2396.3999023438</ele>
        <time>2023-08-12T07:03:10.000Z</time>
      </trkpt>
      <trkpt lat="45.19745" lon="5.98904">
        <ele>2397.1999511719</ele>
        <time>2023-08-12T07:03:14.000Z</time>
      </trkpt>
      <trkpt lat="45.19745" lon="5.98901">
        <ele>2397.8000488281</ele>
        <time>2023-08-12T07:03:17.000Z</time>
      </trkpt>
      <trkpt lat="45.19745" lon="5.98899">
        <ele>2398.1999511719</ele>
        <time>2023-08-12T07:03:20.000Z</time>
      </trkpt>
      <trkpt lat="45.19744" lon="5.98894">
        <ele>2399.1999511719</ele>
        <time>2023-08-12T07:03:25.000Z</time>
      </trkpt>
      <trkpt lat="45.19744" lon="5.98891">
        <ele>2399.1999511719</ele>
        <time>2023-08-12T07:03:27.000Z</time>
      </trkpt>
      <trkpt lat="45.19744" lon="5.98885">
        <ele>2399.3999023438</ele>
        <time>2023-08-12T07:03:33.000Z</time>
      </trkpt>
      <trkpt lat="45.19746" lon="5.98883">
        <ele>2398.8000488281</ele>
        <time>2023-08-12T07:03:39.000Z</time>
      </trkpt>
      <trkpt lat="45.19747" lon="5.98883">
        <ele>2398.6000976562</ele>
        <time>2023-08-12T07:03:40.000Z</time>
      </trkpt>
      <trkpt lat="45.19747" lon="5.98877">
        <ele>2398.1999511719</ele>
        <time>2023-08-12T07:03:46.000Z</time>
      </trkpt>
      <trkpt lat="45.19747" lon="5.98875">
        <ele>2398.1999511719</ele>
        <time>2023-08-12T07:03:47.000Z</time>
      </trkpt>
      <trkpt lat="45.19744" lon="5.98867">
        <ele>2397.1999511719</ele>
        <time>2023-08-12T07:03:53.000Z</time>
      </trkpt>
      <trkpt lat="45.19744" lon="5.98866">
        <ele>2397.1999511719</ele>
        <time>2023-08-12T07:03:54.000Z</time>
      </trkpt>
      <trkpt lat="45.19742" lon="5.9886">
        <ele>2396.8000488281</ele>
        <time>2023-08-12T07:03:58.000Z</time>
      </trkpt>
      <trkpt lat="45.19739" lon="5.98851">
        <ele>2397.1999511719</ele>
        <time>2023-08-12T07:04:05.000Z</time>
      </trkpt>
      <trkpt lat="45.19736" lon="5.98845">
        <ele>2398.1999511719</ele>
        <time>2023-08-12T07:04:11.000Z</time>
      </trkpt>
      <trkpt lat="45.19735" lon="5.98844">
        <ele>2398.3999023438</ele>
        <time>2023-08-12T07:04:12.000Z</time>
      </trkpt>
      <trkpt lat="45.19735" lon="5.9884">
        <ele>2399.3999023438</ele>
        <time>2023-08-12T07:04:17.000Z</time>
      </trkpt>
      <trkpt lat="45.19735" lon="5.98837">
        <ele>2400.3999023438</ele>
        <time>2023-08-12T07:04:22.000Z</time>
      </trkpt>
      <trkpt lat="45.19736" lon="5.9883">
        <ele>2401.6000976562</ele>
        <time>2023-08-12T07:04:29.000Z</time>
      </trkpt>
      <trkpt lat="45.19736" lon="5.98829">
        <ele>2401.8000488281</ele>
        <time>2023-08-12T07:04:30.000Z</time>
      </trkpt>
      <trkpt lat="45.1973" lon="5.98819">
        <ele>2402.3999023438</ele>
        <time>2023-08-12T07:04:38.000Z</time>
      </trkpt>
      <trkpt lat="45.19728" lon="5.98816">
        <ele>2402.6000976562</ele>
        <time>2023-08-12T07:04:40.000Z</time>
      </trkpt>
      <trkpt lat="45.19725" lon="5.98811">
        <ele>2403</ele>
        <time>2023-08-12T07:04:44.000Z</time>
      </trkpt>
      <trkpt lat="45.19723" lon="5.98804">
        <ele>2403.3999023438</ele>
        <time>2023-08-12T07:04:50.000Z</time>
      </trkpt>
      <trkpt lat="45.19721" lon="5.98802">
        <ele>2403.8000488281</ele>
        <time>2023-08-12T07:04:54.000Z</time>
      </trkpt>
      <trkpt lat="45.1972" lon="5.98801">
        <ele>2404</ele>
        <time>2023-08-12T07:04:55.000Z</time>
      </trkpt>
      <trkpt lat="45.19719" lon="5.988">
        <ele>2404</ele>
        <time>2023-08-12T07:05:00.000Z</time>
      </trkpt>
      <trkpt lat="45.19719" lon="5.98799">
        <ele>2403.8000488281</ele>
        <time>2023-08-12T07:05:08.000Z</time>
      </trkpt>
      <trkpt lat="45.19721" lon="5.988">
        <ele>2404</ele>
        <time>2023-08-12T07:05:16.000Z</time>
      </trkpt>
      <trkpt lat="45.19721" lon="5.988">
        <ele>2404.1999511719</ele>
        <time>2023-08-12T07:05:24.000Z</time>
      </trkpt>
      <trkpt lat="45.1972" lon="5.98803">
        <ele>2404.1999511719</ele>
        <time>2023-08-12T07:05:33.000Z</time>
      </trkpt>
      <trkpt lat="45.19722" lon="5.98802">
        <ele>2404</ele>
        <time>2023-08-12T07:05:42.000Z</time>
      </trkpt>
      <trkpt lat="45.19722" lon="5.98798">
        <ele>2404.3999023438</ele>
        <time>2023-08-12T07:05:54.000Z</time>
      </trkpt>
      <trkpt lat="45.19723" lon="5.98796">
        <ele>2404.3999023438</ele>
        <time>2023-08-12T07:06:04.000Z</time>
      </trkpt>
      <trkpt lat="45.19722" lon="5.98801">
        <ele>2404.3999023438</ele>
        <time>2023-08-12T07:06:14.000Z</time>
      </trkpt>
      <trkpt lat="45.19722" lon="5.98801">
        <ele>2404.3999023438</ele>
        <time>2023-08-12T07:06:21.000Z</time>
      </trkpt>
      <trkpt lat="45.19723" lon="5.98799">
        <ele>2404.3999023438</ele>
        <time>2023-08-12T07:06:30.000Z</time>
      </trkpt>
      <trkpt lat="45.19722" lon="5.98799">
        <ele>2404.6000976562</ele>
        <time>2023-08-12T07:06:37.000Z</time>
      </trkpt>
      <trkpt lat="45.19722" lon="5.98798">
        <ele>2404.6000976562</ele>
        <time>2023-08-12T07:06:46.000Z</time>
      </trkpt>
      <trkpt lat="45.19718" lon="5.988">
        <ele>2404.6000976562</ele>
        <time>2023-08-12T07:06:55.000Z</time>
      </trkpt>
      <trkpt lat="45.19721" lon="5.98802">
        <ele>2404.6000976562</ele>
        <time>2023-08-12T07:07:17.000Z</time>
      </trkpt>
      <trkpt lat="45.19721" lon="5.98801">
        <ele>2404.3999023438</ele>
        <time>2023-08-12T07:07:24.000Z</time>
      </trkpt>
      <trkpt lat="45.19721" lon="5.98801">
        <ele>2404.6000976562</ele>
        <time>2023-08-12T07:07:35.000Z</time>
      </trkpt>
      <trkpt lat="45.19722" lon="5.98798">
        <ele>2404.6000976562</ele>
        <time>2023-08-12T07:07:45.000Z</time>
      </trkpt>
      <trkpt lat="45.1972" lon="5.98796">
        <ele>2404.6000976562</ele>
        <time>2023-08-12T07:07:52.000Z</time>
      </trkpt>
      <trkpt lat="45.1972" lon="5.98801">
        <ele>2404.3999023438</ele>
        <time>2023-08-12T07:07:59.000Z</time>
      </trkpt>
      <trkpt lat="45.19717" lon="5.98797">
        <ele>2404.3999023438</ele>
        <time>2023-08-12T07:08:06.000Z</time>
      </trkpt>
      <trkpt lat="45.19719" lon="5.98796">
        <ele>2404.1999511719</ele>
        <time>2023-08-12T07:08:13.000Z</time>
      </trkpt>
      <trkpt lat="45.19721" lon="5.988">
        <ele>2404.6000976562</ele>
        <time>2023-08-12T07:08:23.000Z</time>
      </trkpt>
      <trkpt lat="45.1972" lon="5.98803">
        <ele>2404.6000976562</ele>
        <time>2023-08-12T07:08:31.000Z</time>
      </trkpt>
      <trkpt lat="45.19719" lon="5.98805">
        <ele>2404.6000976562</ele>
        <time>2023-08-12T07:08:38.000Z</time>
      </trkpt>
      <trkpt lat="45.19718" lon="5.98806">
        <ele>2404.6000976562</ele>
        <time>2023-08-12T07:08:47.000Z</time>
      </trkpt>
      <trkpt lat="45.19719" lon="5.98801">
        <ele>2404.3999023438</ele>
        <time>2023-08-12T07:08:56.000Z</time>
      </trkpt>
      <trkpt lat="45.19719" lon="5.98797">
        <ele>2404.3999023438</ele>
        <time>2023-08-12T07:09:02.000Z</time>
      </trkpt>
      <trkpt lat="45.19716" lon="5.98795">
        <ele>2404.6000976562</ele>
        <time>2023-08-12T07:09:13.000Z</time>
      </trkpt>
      <trkpt lat="45.19717" lon="5.98796">
        <ele>2404</ele>
        <time>2023-08-12T07:09:20.000Z</time>
      </trkpt>
      <trkpt lat="45.19717" lon="5.98801">
        <ele>2404.6000976562</ele>
        <time>2023-08-12T07:09:29.000Z</time>
      </trkpt>
      <trkpt lat="45.19718" lon="5.98802">
        <ele>2405</ele>
        <time>2023-08-12T07:09:31.000Z</time>
      </trkpt>
      <trkpt lat="45.19719" lon="5.98801">
        <ele>2405.1999511719</ele>
        <time>2023-08-12T07:09:34.000Z</time>
      </trkpt>
      <trkpt lat="45.19717" lon="5.98799">
        <ele>2405</ele>
        <time>2023-08-12T07:09:41.000Z</time>
      </trkpt>
      <trkpt lat="45.19713" lon="5.98794">
        <ele>2404.1999511719</ele>
        <time>2023-08-12T07:09:49.000Z</time>
      </trkpt>
      <trkpt lat="45.19712" lon="5.98794">
        <ele>2404</ele>
        <time>2023-08-12T07:09:52.000Z</time>
      </trkpt>
      <trkpt lat="45.1971" lon="5.9879">
        <ele>2401.8000488281</ele>
        <time>2023-08-12T07:10:00.000Z</time>
      </trkpt>
      <trkpt lat="45.1971" lon="5.98789">
        <ele>2401.3999023438</ele>
        <time>2023-08-12T07:10:01.000Z</time>
      </trkpt>
      <trkpt lat="45.19709" lon="5.98788">
        <ele>2400.8000488281</ele>
        <time>2023-08-12T07:10:06.000Z</time>
      </trkpt>
      <trkpt lat="45.19709" lon="5.98789">
        <ele>2400.6000976562</ele>
        <time>2023-08-12T07:10:09.000Z</time>
      </trkpt>
      <trkpt lat="45.19709" lon="5.9879">
        <ele>2400.3999023438</ele>
        <time>2023-08-12T07:10:10.000Z</time>
      </trkpt>
      <trkpt lat="45.19708" lon="5.9879">
        <ele>2400.1999511719</ele>
        <time>2023-08-12T07:10:11.000Z</time>
      </trkpt>
      <trkpt lat="45.19707" lon="5.9879">
        <ele>2399.1999511719</ele>
        <time>2023-08-12T07:10:16.000Z</time>
      </trkpt>
      <trkpt lat="45.19706" lon="5.98789">
        <ele>2398.6000976562</ele>
        <time>2023-08-12T07:10:18.000Z</time>
      </trkpt>
      <trkpt lat="45.19706" lon="5.98789">
        <ele>2398.1999511719</ele>
        <time>2023-08-12T07:10:20.000Z</time>
      </trkpt>
      <trkpt lat="45.19705" lon="5.98787">
        <ele>2397</ele>
        <time>2023-08-12T07:10:25.000Z</time>
      </trkpt>
      <trkpt lat="45.19703" lon="5.98787">
        <ele>2397</ele>
        <time>2023-08-12T07:10:27.000Z</time>
      </trkpt>
      <trkpt lat="45.197" lon="5.9879">
        <ele>2396.6000976562</ele>
        <time>2023-08-12T07:10:32.000Z</time>
      </trkpt>
      <trkpt lat="45.19698" lon="5.98789">
        <ele>2395</ele>
        <time>2023-08-12T07:10:41.000Z</time>
      </trkpt>
      <trkpt lat="45.19698" lon="5.98789">
        <ele>2394.8000488281</ele>
        <time>2023-08-12T07:10:42.000Z</time>
      </trkpt>
      <trkpt lat="45.19697" lon="5.9879">
        <ele>2394</ele>
        <time>2023-08-12T07:10:49.000Z</time>
      </trkpt>
      <trkpt lat="45.19697" lon="5.9879">
        <ele>2394</ele>
        <time>2023-08-12T07:10:50.000Z</time>
      </trkpt>
      <trkpt lat="45.19697" lon="5.98789">
        <ele>2393.6000976562</ele>
        <time>2023-08-12T07:10:53.000Z</time>
      </trkpt>
      <trkpt lat="45.19697" lon="5.98789">
        <ele>2392.8000488281</ele>
        <time>2023-08-12T07:10:57.000Z</time>
      </trkpt>
      <trkpt lat="45.19697" lon="5.98789">
        <ele>2392.6000976562</ele>
        <time>2023-08-12T07:10:59.000Z</time>
      </trkpt>
      <trkpt lat="45.19692" lon="5.98788">
        <ele>2390.6000976562</ele>
        <time>2023-08-12T07:11:13.000Z</time>
      </trkpt>
      <trkpt lat="45.19692" lon="5.98789">
        <ele>2390.1999511719</ele>
        <time>2023-08-12T07:11:15.000Z</time>
      </trkpt>
      <trkpt lat="45.19691" lon="5.98786">
        <ele>2389</ele>
        <time>2023-08-12T07:11:24.000Z</time>
      </trkpt>
      <trkpt lat="45.19691" lon="5.9878">
        <ele>2388.3999023438</ele>
        <time>2023-08-12T07:11:30.000Z</time>
      </trkpt>
      <trkpt lat="45.1969" lon="5.9878">
        <ele>2388.3999023438</ele>
        <time>2023-08-12T07:11:32.000Z</time>
      </trkpt>
      <trkpt lat="45.1969" lon="5.9878">
        <ele>2388.3999023438</ele>
        <time>2023-08-12T07:11:33.000Z</time>
      </trkpt>
      <trkpt lat="45.19689" lon="5.98778">
        <ele>2387.3999023438</ele>
        <time>2023-08-12T07:11:39.000Z</time>
      </trkpt>
      <trkpt lat="45.19689" lon="5.98776">
        <ele>2386.3999023438</ele>
        <time>2023-08-12T07:11:45.000Z</time>
      </trkpt>
      <trkpt lat="45.19688" lon="5.98776">
        <ele>2386.1999511719</ele>
        <time>2023-08-12T07:11:47.000Z</time>
      </trkpt>
      <trkpt lat="45.19684" lon="5.98781">
        <ele>2385</ele>
        <time>2023-08-12T07:11:56.000Z</time>
      </trkpt>
      <trkpt lat="45.19673" lon="5.98783">
        <ele>2380.6000976562</ele>
        <time>2023-08-12T07:12:19.000Z</time>
      </trkpt>
      <trkpt lat="45.19673" lon="5.98781">
        <ele>2379.8000488281</ele>
        <time>2023-08-12T07:12:24.000Z</time>
      </trkpt>
      <trkpt lat="45.19673" lon="5.98782">
        <ele>2379.6000976562</ele>
        <time>2023-08-12T07:12:29.000Z</time>
      </trkpt>
      <trkpt lat="45.1967" lon="5.98781">
        <ele>2379</ele>
        <time>2023-08-12T07:12:36.000Z</time>
      </trkpt>
      <trkpt lat="45.1967" lon="5.98781">
        <ele>2378.3999023438</ele>
        <time>2023-08-12T07:12:41.000Z</time>
      </trkpt>
      <trkpt lat="45.19669" lon="5.9878">
        <ele>2377.6000976562</ele>
        <time>2023-08-12T07:12:46.000Z</time>
      </trkpt>
      <trkpt lat="45.19669" lon="5.9878">
        <ele>2377.3999023438</ele>
        <time>2023-08-12T07:12:48.000Z</time>
      </trkpt>
      <trkpt lat="45.19666" lon="5.98781">
        <ele>2376.6000976562</ele>
        <time>2023-08-12T07:12:54.000Z</time>
      </trkpt>
      <trkpt lat="45.19665" lon="5.98781">
        <ele>2376.1999511719</ele>
        <time>2023-08-12T07:12:55.000Z</time>
      </trkpt>
      <trkpt lat="45.19659" lon="5.98782">
        <ele>2375.1999511719</ele>
        <time>2023-08-12T07:13:02.000Z</time>
      </trkpt>
      <trkpt lat="45.19658" lon="5.98782">
        <ele>2374.1999511719</ele>
        <time>2023-08-12T07:13:08.000Z</time>
      </trkpt>
      <trkpt lat="45.19658" lon="5.98782">
        <ele>2374</ele>
        <time>2023-08-12T07:13:09.000Z</time>
      </trkpt>
      <trkpt lat="45.19648" lon="5.98787">
        <ele>2371</ele>
        <time>2023-08-12T07:13:32.000Z</time>
      </trkpt>
      <trkpt lat="45.19649" lon="5.98787">
        <ele>2370.8000488281</ele>
        <time>2023-08-12T07:13:34.000Z</time>
      </trkpt>
      <trkpt lat="45.19652" lon="5.98789">
        <ele>2370.8000488281</ele>
        <time>2023-08-12T07:13:43.000Z</time>
      </trkpt>
      <trkpt lat="45.19654" lon="5.98779">
        <ele>2370.8000488281</ele>
        <time>2023-08-12T07:13:51.000Z</time>
      </trkpt>
      <trkpt lat="45.19652" lon="5.98779">
        <ele>2369.8000488281</ele>
        <time>2023-08-12T07:13:58.000Z</time>
      </trkpt>
      <trkpt lat="45.19648" lon="5.98784">
        <ele>2367.8000488281</ele>
        <time>2023-08-12T07:14:10.000Z</time>
      </trkpt>
      <trkpt lat="45.19646" lon="5.98784">
        <ele>2367.6000976562</ele>
        <time>2023-08-12T07:14:16.000Z</time>
      </trkpt>
      <trkpt lat="45.19645" lon="5.98782">
        <ele>2367.6000976562</ele>
        <time>2023-08-12T07:14:20.000Z</time>
      </trkpt>
      <trkpt lat="45.19646" lon="5.9878">
        <ele>2367</ele>
        <time>2023-08-12T07:14:26.000Z</time>
      </trkpt>
      <trkpt lat="45.19645" lon="5.98782">
        <ele>2366.6000976562</ele>
        <time>2023-08-12T07:14:29.000Z</time>
      </trkpt>
      <trkpt lat="45.19642" lon="5.98781">
        <ele>2366</ele>
        <time>2023-08-12T07:14:33.000Z</time>
      </trkpt>
      <trkpt lat="45.19643" lon="5.9878">
        <ele>2365.8000488281</ele>
        <time>2023-08-12T07:14:35.000Z</time>
      </trkpt>
      <trkpt lat="45.19642" lon="5.98779">
        <ele>2365.6000976562</ele>
        <time>2023-08-12T07:14:36.000Z</time>
      </trkpt>
      <trkpt lat="45.19639" lon="5.98777">
        <ele>2365</ele>
        <time>2023-08-12T07:14:41.000Z</time>
      </trkpt>
      <trkpt lat="45.19638" lon="5.98776">
        <ele>2364.3999023438</ele>
        <time>2023-08-12T07:14:43.000Z</time>
      </trkpt>
      <trkpt lat="45.19639" lon="5.98773">
        <ele>2364</ele>
        <time>2023-08-12T07:14:46.000Z</time>
      </trkpt>
      <trkpt lat="45.19638" lon="5.98769">
        <ele>2363.3999023438</ele>
        <time>2023-08-12T07:14:49.000Z</time>
      </trkpt>
      <trkpt lat="45.19636" lon="5.98769">
        <ele>2363</ele>
        <time>2023-08-12T07:14:52.000Z</time>
      </trkpt>
      <trkpt lat="45.19634" lon="5.98766">
        <ele>2362.3999023438</ele>
        <time>2023-08-12T07:14:56.000Z</time>
      </trkpt>
      <trkpt lat="45.19633" lon="5.98767">
        <ele>2362.3999023438</ele>
        <time>2023-08-12T07:14:57.000Z</time>
      </trkpt>
      <trkpt lat="45.19633" lon="5.98767">
        <ele>2362.1999511719</ele>
        <time>2023-08-12T07:14:58.000Z</time>
      </trkpt>
      <trkpt lat="45.19635" lon="5.98766">
        <ele>2360.1999511719</ele>
        <time>2023-08-12T07:15:09.000Z</time>
      </trkpt>
      <trkpt lat="45.19635" lon="5.98765">
        <ele>2360</ele>
        <time>2023-08-12T07:15:10.000Z</time>
      </trkpt>
      <trkpt lat="45.19639" lon="5.98762">
        <ele>2359.6000976562</ele>
        <time>2023-08-12T07:15:16.000Z</time>
      </trkpt>
      <trkpt lat="45.1964" lon="5.9876">
        <ele>2359</ele>
        <time>2023-08-12T07:15:19.000Z</time>
      </trkpt>
      <trkpt lat="45.1964" lon="5.98759">
        <ele>2358.6000976562</ele>
        <time>2023-08-12T07:15:24.000Z</time>
      </trkpt>
      <trkpt lat="45.19637" lon="5.98757">
        <ele>2358</ele>
        <time>2023-08-12T07:15:29.000Z</time>
      </trkpt>
      <trkpt lat="45.19636" lon="5.98754">
        <ele>2357.6000976562</ele>
        <time>2023-08-12T07:15:32.000Z</time>
      </trkpt>
      <trkpt lat="45.19635" lon="5.98752">
        <ele>2357</ele>
        <time>2023-08-12T07:15:35.000Z</time>
      </trkpt>
      <trkpt lat="45.19632" lon="5.98751">
        <ele>2356.3999023438</ele>
        <time>2023-08-12T07:15:39.000Z</time>
      </trkpt>
      <trkpt lat="45.19631" lon="5.98752">
        <ele>2356.3999023438</ele>
        <time>2023-08-12T07:15:40.000Z</time>
      </trkpt>
      <trkpt lat="45.19628" lon="5.98751">
        <ele>2356</ele>
        <time>2023-08-12T07:15:42.000Z</time>
      </trkpt>
      <trkpt lat="45.19627" lon="5.98749">
        <ele>2355.6000976562</ele>
        <time>2023-08-12T07:15:45.000Z</time>
      </trkpt>
      <trkpt lat="45.19627" lon="5.98746">
        <ele>2355</ele>
        <time>2023-08-12T07:15:49.000Z</time>
      </trkpt>
      <trkpt lat="45.19627" lon="5.98746">
        <ele>2354.6000976562</ele>
        <time>2023-08-12T07:15:52.000Z</time>
      </trkpt>
      <trkpt lat="45.19627" lon="5.98747">
        <ele>2354.3999023438</ele>
        <time>2023-08-12T07:15:54.000Z</time>
      </trkpt>
      <trkpt lat="45.19625" lon="5.98748">
        <ele>2353.8000488281</ele>
        <time>2023-08-12T07:15:58.000Z</time>
      </trkpt>
      <trkpt lat="45.19622" lon="5.9875">
        <ele>2352.3999023438</ele>
        <time>2023-08-12T07:16:07.000Z</time>
      </trkpt>
      <trkpt lat="45.19612" lon="5.98751">
        <ele>2350.8000488281</ele>
        <time>2023-08-12T07:16:18.000Z</time>
      </trkpt>
      <trkpt lat="45.19613" lon="5.98752">
        <ele>2349.3999023438</ele>
        <time>2023-08-12T07:16:26.000Z</time>
      </trkpt>
      <trkpt lat="45.19612" lon="5.98751">
        <ele>2349.1999511719</ele>
        <time>2023-08-12T07:16:29.000Z</time>
      </trkpt>
      <trkpt lat="45.1961" lon="5.98747">
        <ele>2348.3999023438</ele>
        <time>2023-08-12T07:16:33.000Z</time>
      </trkpt>
      <trkpt lat="45.1961" lon="5.98745">
        <ele>2348</ele>
        <time>2023-08-12T07:16:36.000Z</time>
      </trkpt>
      <trkpt lat="45.19611" lon="5.98747">
        <ele>2347.1999511719</ele>
        <time>2023-08-12T07:16:42.000Z</time>
      </trkpt>
      <trkpt lat="45.19611" lon="5.98746">
        <ele>2347</ele>
        <time>2023-08-12T07:16:46.000Z</time>
      </trkpt>
      <trkpt lat="45.19609" lon="5.98746">
        <ele>2347.1999511719</ele>
        <time>2023-08-12T07:16:55.000Z</time>
      </trkpt>
      <trkpt lat="45.19604" lon="5.98744">
        <ele>2346.1999511719</ele>
        <time>2023-08-12T07:17:02.000Z</time>
      </trkpt>
      <trkpt lat="45.19605" lon="5.98744">
        <ele>2346</ele>
        <time>2023-08-12T07:17:03.000Z</time>
      </trkpt>
      <trkpt lat="45.19604" lon="5.98738">
        <ele>2345</ele>
        <time>2023-08-12T07:17:10.000Z</time>
      </trkpt>
      <trkpt lat="45.19605" lon="5.98735">
        <ele>2344.6000976562</ele>
        <time>2023-08-12T07:17:13.000Z</time>
      </trkpt>
      <trkpt lat="45.19605" lon="5.98734">
        <ele>2344.3999023438</ele>
        <time>2023-08-12T07:17:14.000Z</time>
      </trkpt>
      <trkpt lat="45.19605" lon="5.98733">
        <ele>2344</ele>
        <time>2023-08-12T07:17:16.000Z</time>
      </trkpt>
      <trkpt lat="45.19604" lon="5.98729">
        <ele>2343</ele>
        <time>2023-08-12T07:17:20.000Z</time>
      </trkpt>
      <trkpt lat="45.19604" lon="5.98729">
        <ele>2342.8000488281</ele>
        <time>2023-08-12T07:17:21.000Z</time>
      </trkpt>
      <trkpt lat="45.19605" lon="5.98722">
        <ele>2341.6000976562</ele>
        <time>2023-08-12T07:17:27.000Z</time>
      </trkpt>
      <trkpt lat="45.19606" lon="5.98719">
        <ele>2340.6000976562</ele>
        <time>2023-08-12T07:17:33.000Z</time>
      </trkpt>
      <trkpt lat="45.19607" lon="5.98716">
        <ele>2339.8000488281</ele>
        <time>2023-08-12T07:17:37.000Z</time>
      </trkpt>
      <trkpt lat="45.19608" lon="5.98714">
        <ele>2339.3999023438</ele>
        <time>2023-08-12T07:17:39.000Z</time>
      </trkpt>
      <trkpt lat="45.19609" lon="5.98706">
        <ele>2338.1999511719</ele>
        <time>2023-08-12T07:17:45.000Z</time>
      </trkpt>
      <trkpt lat="45.19609" lon="5.98705">
        <ele>2338</ele>
        <time>2023-08-12T07:17:46.000Z</time>
      </trkpt>
      <trkpt lat="45.19606" lon="5.98697">
        <ele>2337</ele>
        <time>2023-08-12T07:17:53.000Z</time>
      </trkpt>
      <trkpt lat="45.19605" lon="5.98695">
        <ele>2336.6000976562</ele>
        <time>2023-08-12T07:17:55.000Z</time>
      </trkpt>
      <trkpt lat="45.19601" lon="5.98683">
        <ele>2336.1999511719</ele>
        <time>2023-08-12T07:18:03.000Z</time>
      </trkpt>
      <trkpt lat="45.196" lon="5.98681">
        <ele>2335.8000488281</ele>
        <time>2023-08-12T07:18:05.000Z</time>
      </trkpt>
      <trkpt lat="45.19599" lon="5.98675">
        <ele>2335.1999511719</ele>
        <time>2023-08-12T07:18:10.000Z</time>
      </trkpt>
      <trkpt lat="45.19595" lon="5.98669">
        <ele>2334.8000488281</ele>
        <time>2023-08-12T07:18:14.000Z</time>
      </trkpt>
      <trkpt lat="45.19595" lon="5.98667">
        <ele>2334.6000976562</ele>
        <time>2023-08-12T07:18:15.000Z</time>
      </trkpt>
      <trkpt lat="45.19592" lon="5.98657">
        <ele>2333.8000488281</ele>
        <time>2023-08-12T07:18:24.000Z</time>
      </trkpt>
      <trkpt lat="45.1959" lon="5.9865">
        <ele>2332.8000488281</ele>
        <time>2023-08-12T07:18:30.000Z</time>
      </trkpt>
      <trkpt lat="45.19589" lon="5.98648">
        <ele>2332.8000488281</ele>
        <time>2023-08-12T07:18:32.000Z</time>
      </trkpt>
      <trkpt lat="45.19582" lon="5.98645">
        <ele>2331.8000488281</ele>
        <time>2023-08-12T07:18:37.000Z</time>
      </trkpt>
      <trkpt lat="45.19578" lon="5.98641">
        <ele>2330.8000488281</ele>
        <time>2023-08-12T07:18:41.000Z</time>
      </trkpt>
      <trkpt lat="45.19578" lon="5.9864">
        <ele>2329.6000976562</ele>
        <time>2023-08-12T07:18:46.000Z</time>
      </trkpt>
      <trkpt lat="45.19578" lon="5.9864">
        <ele>2329.6000976562</ele>
        <time>2023-08-12T07:18:47.000Z</time>
      </trkpt>
      <trkpt lat="45.19584" lon="5.98638">
        <ele>2329.3999023438</ele>
        <time>2023-08-12T07:18:55.000Z</time>
      </trkpt>
      <trkpt lat="45.19581" lon="5.98633">
        <ele>2329.3999023438</ele>
        <time>2023-08-12T07:19:03.000Z</time>
      </trkpt>
      <trkpt lat="45.19582" lon="5.9864">
        <ele>2329.3999023438</ele>
        <time>2023-08-12T07:19:11.000Z</time>
      </trkpt>
      <trkpt lat="45.19579" lon="5.98643">
        <ele>2329.3999023438</ele>
        <time>2023-08-12T07:19:16.000Z</time>
      </trkpt>
      <trkpt lat="45.19579" lon="5.98638">
        <ele>2329.6000976562</ele>
        <time>2023-08-12T07:19:21.000Z</time>
      </trkpt>
      <trkpt lat="45.1958" lon="5.98636">
        <ele>2329.6000976562</ele>
        <time>2023-08-12T07:19:24.000Z</time>
      </trkpt>
      <trkpt lat="45.19581" lon="5.98634">
        <ele>2329.6000976562</ele>
        <time>2023-08-12T07:19:28.000Z</time>
      </trkpt>
      <trkpt lat="45.19581" lon="5.9863">
        <ele>2329</ele>
        <time>2023-08-12T07:19:35.000Z</time>
      </trkpt>
      <trkpt lat="45.19582" lon="5.98628">
        <ele>2328.6000976562</ele>
        <time>2023-08-12T07:19:37.000Z</time>
      </trkpt>
      <trkpt lat="45.19582" lon="5.98619">
        <ele>2327.3999023438</ele>
        <time>2023-08-12T07:19:42.000Z</time>
      </trkpt>
      <trkpt lat="45.19582" lon="5.98619">
        <ele>2327</ele>
        <time>2023-08-12T07:19:44.000Z</time>
      </trkpt>
      <trkpt lat="45.19581" lon="5.98616">
        <ele>2326.1999511719</ele>
        <time>2023-08-12T07:19:49.000Z</time>
      </trkpt>
      <trkpt lat="45.19579" lon="5.98615">
        <ele>2325.6000976562</ele>
        <time>2023-08-12T07:19:52.000Z</time>
      </trkpt>
      <trkpt lat="45.19576" lon="5.98612">
        <ele>2325</ele>
        <time>2023-08-12T07:19:56.000Z</time>
      </trkpt>
      <trkpt lat="45.19573" lon="5.98609">
        <ele>2324.1999511719</ele>
        <time>2023-08-12T07:20:00.000Z</time>
      </trkpt>
      <trkpt lat="45.19573" lon="5.98609">
        <ele>2323.8000488281</ele>
        <time>2023-08-12T07:20:01.000Z</time>
      </trkpt>
      <trkpt lat="45.19569" lon="5.98602">
        <ele>2322.8000488281</ele>
        <time>2023-08-12T07:20:07.000Z</time>
      </trkpt>
      <trkpt lat="45.19568" lon="5.986">
        <ele>2321.6000976562</ele>
        <time>2023-08-12T07:20:12.000Z</time>
      </trkpt>
      <trkpt lat="45.19568" lon="5.98598">
        <ele>2321.3999023438</ele>
        <time>2023-08-12T07:20:14.000Z</time>
      </trkpt>
      <trkpt lat="45.19569" lon="5.98594">
        <ele>2320.6000976562</ele>
        <time>2023-08-12T07:20:17.000Z</time>
      </trkpt>
      <trkpt lat="45.19568" lon="5.98585">
        <ele>2319.6000976562</ele>
        <time>2023-08-12T07:20:23.000Z</time>
      </trkpt>
      <trkpt lat="45.19567" lon="5.98585">
        <ele>2319.3999023438</ele>
        <time>2023-08-12T07:20:24.000Z</time>
      </trkpt>
      <trkpt lat="45.19565" lon="5.98583">
        <ele>2318.1999511719</ele>
        <time>2023-08-12T07:20:29.000Z</time>
      </trkpt>
      <trkpt lat="45.19565" lon="5.98579">
        <ele>2317.8000488281</ele>
        <time>2023-08-12T07:20:32.000Z</time>
      </trkpt>
      <trkpt lat="45.19566" lon="5.98575">
        <ele>2317</ele>
        <time>2023-08-12T07:20:36.000Z</time>
      </trkpt>
      <trkpt lat="45.19566" lon="5.98574">
        <ele>2316.8000488281</ele>
        <time>2023-08-12T07:20:37.000Z</time>
      </trkpt>
      <trkpt lat="45.19565" lon="5.9857">
        <ele>2316</ele>
        <time>2023-08-12T07:20:41.000Z</time>
      </trkpt>
      <trkpt lat="45.19566" lon="5.98567">
        <ele>2315.1999511719</ele>
        <time>2023-08-12T07:20:45.000Z</time>
      </trkpt>
      <trkpt lat="45.19566" lon="5.98566">
        <ele>2315</ele>
        <time>2023-08-12T07:20:46.000Z</time>
      </trkpt>
      <trkpt lat="45.19566" lon="5.98561">
        <ele>2313.8000488281</ele>
        <time>2023-08-12T07:20:51.000Z</time>
      </trkpt>
      <trkpt lat="45.19565" lon="5.98557">
        <ele>2313.1999511719</ele>
        <time>2023-08-12T07:20:54.000Z</time>
      </trkpt>
      <trkpt lat="45.19565" lon="5.98556">
        <ele>2312.8000488281</ele>
        <time>2023-08-12T07:20:56.000Z</time>
      </trkpt>
      <trkpt lat="45.19565" lon="5.9855">
        <ele>2311.6000976562</ele>
        <time>2023-08-12T07:21:01.000Z</time>
      </trkpt>
      <trkpt lat="45.19565" lon="5.9855">
        <ele>2311.6000976562</ele>
        <time>2023-08-12T07:21:02.000Z</time>
      </trkpt>
      <trkpt lat="45.19559" lon="5.98547">
        <ele>2310.8000488281</ele>
        <time>2023-08-12T07:21:10.000Z</time>
      </trkpt>
      <trkpt lat="45.19559" lon="5.98551">
        <ele>2310.6000976562</ele>
        <time>2023-08-12T07:21:17.000Z</time>
      </trkpt>
      <trkpt lat="45.19561" lon="5.98545">
        <ele>2310.6000976562</ele>
        <time>2023-08-12T07:21:26.000Z</time>
      </trkpt>
      <trkpt lat="45.1956" lon="5.98545">
        <ele>2310.8000488281</ele>
        <time>2023-08-12T07:21:32.000Z</time>
      </trkpt>
      <trkpt lat="45.19565" lon="5.9854">
        <ele>2310.6000976562</ele>
        <time>2023-08-12T07:21:39.000Z</time>
      </trkpt>
      <trkpt lat="45.19565" lon="5.98541">
        <ele>2310.6000976562</ele>
        <time>2023-08-12T07:21:47.000Z</time>
      </trkpt>
      <trkpt lat="45.19564" lon="5.98541">
        <ele>2310.6000976562</ele>
        <time>2023-08-12T07:21:48.000Z</time>
      </trkpt>
      <trkpt lat="45.19562" lon="5.98533">
        <ele>2309.6000976562</ele>
        <time>2023-08-12T07:21:54.000Z</time>
      </trkpt>
      <trkpt lat="45.19559" lon="5.98529">
        <ele>2309.3999023438</ele>
        <time>2023-08-12T07:21:57.000Z</time>
      </trkpt>
      <trkpt lat="45.1956" lon="5.98528">
        <ele>2308.8000488281</ele>
        <time>2023-08-12T07:22:01.000Z</time>
      </trkpt>
      <trkpt lat="45.19561" lon="5.98529">
        <ele>2308.1999511719</ele>
        <time>2023-08-12T07:22:06.000Z</time>
      </trkpt>
      <trkpt lat="45.19561" lon="5.98528">
        <ele>2308</ele>
        <time>2023-08-12T07:22:07.000Z</time>
      </trkpt>
      <trkpt lat="45.19565" lon="5.98526">
        <ele>2307.1999511719</ele>
        <time>2023-08-12T07:22:11.000Z</time>
      </trkpt>
      <trkpt lat="45.19565" lon="5.98524">
        <ele>2306.1999511719</ele>
        <time>2023-08-12T07:22:16.000Z</time>
      </trkpt>
      <trkpt lat="45.19565" lon="5.98523">
        <ele>2306</ele>
        <time>2023-08-12T07:22:17.000Z</time>
      </trkpt>
      <trkpt lat="45.19565" lon="5.9852">
        <ele>2304.6000976562</ele>
        <time>2023-08-12T07:22:22.000Z</time>
      </trkpt>
      <trkpt lat="45.19565" lon="5.98519">
        <ele>2303.8000488281</ele>
        <time>2023-08-12T07:22:25.000Z</time>
      </trkpt>
      <trkpt lat="45.19566" lon="5.98517">
        <ele>2303.6000976562</ele>
        <time>2023-08-12T07:22:27.000Z</time>
      </trkpt>
      <trkpt lat="45.19567" lon="5.98511">
        <ele>2302.6000976562</ele>
        <time>2023-08-12T07:22:33.000Z</time>
      </trkpt>
      <trkpt lat="45.19567" lon="5.98511">
        <ele>2302.3999023438</ele>
        <time>2023-08-12T07:22:34.000Z</time>
      </trkpt>
      <trkpt lat="45.19569" lon="5.98509">
        <ele>2301.1999511719</ele>
        <time>2023-08-12T07:22:40.000Z</time>
      </trkpt>
      <trkpt lat="45.19573" lon="5.98503">
        <ele>2300</ele>
        <time>2023-08-12T07:22:45.000Z</time>
      </trkpt>
      <trkpt lat="45.19573" lon="5.98502">
        <ele>2299.1999511719</ele>
        <time>2023-08-12T07:22:49.000Z</time>
      </trkpt>
      <trkpt lat="45.19573" lon="5.98501">
        <ele>2299</ele>
        <time>2023-08-12T07:22:50.000Z</time>
      </trkpt>
      <trkpt lat="45.19574" lon="5.98498">
        <ele>2297.8000488281</ele>
        <time>2023-08-12T07:22:55.000Z</time>
      </trkpt>
      <trkpt lat="45.19575" lon="5.98497">
        <ele>2297.3999023438</ele>
        <time>2023-08-12T07:22:57.000Z</time>
      </trkpt>
      <trkpt lat="45.19578" lon="5.98492">
        <ele>2296.8000488281</ele>
        <time>2023-08-12T07:23:01.000Z</time>
      </trkpt>
      <trkpt lat="45.19579" lon="5.98489">
        <ele>2295.8000488281</ele>
        <time>2023-08-12T07:23:06.000Z</time>
      </trkpt>
      <trkpt lat="45.19581" lon="5.98483">
        <ele>2294.6000976562</ele>
        <time>2023-08-12T07:23:12.000Z</time>
      </trkpt>
      <trkpt lat="45.19581" lon="5.98482">
        <ele>2294.1999511719</ele>
        <time>2023-08-12T07:23:14.000Z</time>
      </trkpt>
      <trkpt lat="45.19582" lon="5.9848">
        <ele>2293.6000976562</ele>
        <time>2023-08-12T07:23:17.000Z</time>
      </trkpt>
      <trkpt lat="45.19582" lon="5.98479">
        <ele>2293</ele>
        <time>2023-08-12T07:23:20.000Z</time>
      </trkpt>
      <trkpt lat="45.19582" lon="5.9848">
        <ele>2292.3999023438</ele>
        <time>2023-08-12T07:23:22.000Z</time>
      </trkpt>
      <trkpt lat="45.19581" lon="5.98478">
        <ele>2291.3999023438</ele>
        <time>2023-08-12T07:23:26.000Z</time>
      </trkpt>
      <trkpt lat="45.19581" lon="5.98477">
        <ele>2291.1999511719</ele>
        <time>2023-08-12T07:23:27.000Z</time>
      </trkpt>
      <trkpt lat="45.1958" lon="5.98478">
        <ele>2290</ele>
        <time>2023-08-12T07:23:32.000Z</time>
      </trkpt>
      <trkpt lat="45.1958" lon="5.98478">
        <ele>2290</ele>
        <time>2023-08-12T07:23:33.000Z</time>
      </trkpt>
      <trkpt lat="45.19578" lon="5.98476">
        <ele>2289</ele>
        <time>2023-08-12T07:23:37.000Z</time>
      </trkpt>
      <trkpt lat="45.19575" lon="5.98476">
        <ele>2288</ele>
        <time>2023-08-12T07:23:44.000Z</time>
      </trkpt>
      <trkpt lat="45.19573" lon="5.98472">
        <ele>2286.8000488281</ele>
        <time>2023-08-12T07:23:50.000Z</time>
      </trkpt>
      <trkpt lat="45.19573" lon="5.9847">
        <ele>2286.6000976562</ele>
        <time>2023-08-12T07:23:51.000Z</time>
      </trkpt>
      <trkpt lat="45.19573" lon="5.98466">
        <ele>2286.1999511719</ele>
        <time>2023-08-12T07:23:53.000Z</time>
      </trkpt>
      <trkpt lat="45.19573" lon="5.98467">
        <ele>2285.8000488281</ele>
        <time>2023-08-12T07:23:56.000Z</time>
      </trkpt>
      <trkpt lat="45.19573" lon="5.98468">
        <ele>2285.6000976562</ele>
        <time>2023-08-12T07:23:57.000Z</time>
      </trkpt>
      <trkpt lat="45.19573" lon="5.98476">
        <ele>2285.6000976562</ele>
        <time>2023-08-12T07:24:04.000Z</time>
      </trkpt>
      <trkpt lat="45.19565" lon="5.98472">
        <ele>2285.6000976562</ele>
        <time>2023-08-12T07:24:12.000Z</time>
      </trkpt>
      <trkpt lat="45.1957" lon="5.98472">
        <ele>2284.8000488281</ele>
        <time>2023-08-12T07:24:18.000Z</time>
      </trkpt>
      <trkpt lat="45.1957" lon="5.9847">
        <ele>2284.6000976562</ele>
        <time>2023-08-12T07:24:19.000Z</time>
      </trkpt>
      <trkpt lat="45.19571" lon="5.98465">
        <ele>2283.8000488281</ele>
        <time>2023-08-12T07:24:24.000Z</time>
      </trkpt>
      <trkpt lat="45.19571" lon="5.98464">
        <ele>2283.3999023438</ele>
        <time>2023-08-12T07:24:27.000Z</time>
      </trkpt>
      <trkpt lat="45.1957" lon="5.98464">
        <ele>2282.8000488281</ele>
        <time>2023-08-12T07:24:30.000Z</time>
      </trkpt>
      <trkpt lat="45.19568" lon="5.98463">
        <ele>2282.3999023438</ele>
        <time>2023-08-12T07:24:33.000Z</time>
      </trkpt>
      <trkpt lat="45.19566" lon="5.98463">
        <ele>2281.3999023438</ele>
        <time>2023-08-12T07:24:38.000Z</time>
      </trkpt>
      <trkpt lat="45.19564" lon="5.98462">
        <ele>2280.1999511719</ele>
        <time>2023-08-12T07:24:43.000Z</time>
      </trkpt>
      <trkpt lat="45.19563" lon="5.98461">
        <ele>2280</ele>
        <time>2023-08-12T07:24:46.000Z</time>
      </trkpt>
      <trkpt lat="45.19562" lon="5.98459">
        <ele>2279</ele>
        <time>2023-08-12T07:24:50.000Z</time>
      </trkpt>
      <trkpt lat="45.19559" lon="5.98458">
        <ele>2278.3999023438</ele>
        <time>2023-08-12T07:24:54.000Z</time>
      </trkpt>
      <trkpt lat="45.19559" lon="5.98459">
        <ele>2278</ele>
        <time>2023-08-12T07:24:56.000Z</time>
      </trkpt>
      <trkpt lat="45.19558" lon="5.98461">
        <ele>2277</ele>
        <time>2023-08-12T07:25:02.000Z</time>
      </trkpt>
      <trkpt lat="45.19558" lon="5.98461">
        <ele>2277</ele>
        <time>2023-08-12T07:25:03.000Z</time>
      </trkpt>
      <trkpt lat="45.19557" lon="5.98457">
        <ele>2276.1999511719</ele>
        <time>2023-08-12T07:25:08.000Z</time>
      </trkpt>
      <trkpt lat="45.19557" lon="5.98456">
        <ele>2275.8000488281</ele>
        <time>2023-08-12T07:25:10.000Z</time>
      </trkpt>
      <trkpt lat="45.19554" lon="5.98456">
        <ele>2274.8000488281</ele>
        <time>2023-08-12T07:25:16.000Z</time>
      </trkpt>
      <trkpt lat="45.19554" lon="5.98456">
        <ele>2274.6000976562</ele>
        <time>2023-08-12T07:25:17.000Z</time>
      </trkpt>
      <trkpt lat="45.19552" lon="5.98458">
        <ele>2273.6000976562</ele>
        <time>2023-08-12T07:25:23.000Z</time>
      </trkpt>
      <trkpt lat="45.19552" lon="5.98458">
        <ele>2273.3999023438</ele>
        <time>2023-08-12T07:25:24.000Z</time>
      </trkpt>
      <trkpt lat="45.19551" lon="5.98457">
        <ele>2272.3999023438</ele>
        <time>2023-08-12T07:25:28.000Z</time>
      </trkpt>
      <trkpt lat="45.1955" lon="5.98454">
        <ele>2271.8000488281</ele>
        <time>2023-08-12T07:25:32.000Z</time>
      </trkpt>
      <trkpt lat="45.1955" lon="5.98453">
        <ele>2271.3999023438</ele>
        <time>2023-08-12T07:25:35.000Z</time>
      </trkpt>
      <trkpt lat="45.19549" lon="5.98454">
        <ele>2270.1999511719</ele>
        <time>2023-08-12T07:25:41.000Z</time>
      </trkpt>
      <trkpt lat="45.19548" lon="5.98454">
        <ele>2269.8000488281</ele>
        <time>2023-08-12T07:25:42.000Z</time>
      </trkpt>
      <trkpt lat="45.19548" lon="5.98455">
        <ele>2269.1999511719</ele>
        <time>2023-08-12T07:25:46.000Z</time>
      </trkpt>
      <trkpt lat="45.19547" lon="5.98453">
        <ele>2268.6000976562</ele>
        <time>2023-08-12T07:25:49.000Z</time>
      </trkpt>
      <trkpt lat="45.19547" lon="5.98454">
        <ele>2268.1999511719</ele>
        <time>2023-08-12T07:25:53.000Z</time>
      </trkpt>
      <trkpt lat="45.19547" lon="5.98455">
        <ele>2267.6000976562</ele>
        <time>2023-08-12T07:25:57.000Z</time>
      </trkpt>
      <trkpt lat="45.19544" lon="5.98456">
        <ele>2267.1999511719</ele>
        <time>2023-08-12T07:26:00.000Z</time>
      </trkpt>
      <trkpt lat="45.19542" lon="5.98456">
        <ele>2266</ele>
        <time>2023-08-12T07:26:07.000Z</time>
      </trkpt>
      <trkpt lat="45.19542" lon="5.98455">
        <ele>2265</ele>
        <time>2023-08-12T07:26:13.000Z</time>
      </trkpt>
      <trkpt lat="45.19539" lon="5.98452">
        <ele>2264.3999023438</ele>
        <time>2023-08-12T07:26:17.000Z</time>
      </trkpt>
      <trkpt lat="45.1954" lon="5.98451">
        <ele>2264</ele>
        <time>2023-08-12T07:26:21.000Z</time>
      </trkpt>
      <trkpt lat="45.19541" lon="5.9845">
        <ele>2263.6000976562</ele>
        <time>2023-08-12T07:26:24.000Z</time>
      </trkpt>
      <trkpt lat="45.1954" lon="5.98447">
        <ele>2261.6000976562</ele>
        <time>2023-08-12T07:26:33.000Z</time>
      </trkpt>
      <trkpt lat="45.19538" lon="5.98445">
        <ele>2261.3999023438</ele>
        <time>2023-08-12T07:26:37.000Z</time>
      </trkpt>
      <trkpt lat="45.19536" lon="5.98446">
        <ele>2261.8000488281</ele>
        <time>2023-08-12T07:26:44.000Z</time>
      </trkpt>
      <trkpt lat="45.1953" lon="5.98451">
        <ele>2261.8000488281</ele>
        <time>2023-08-12T07:26:52.000Z</time>
      </trkpt>
      <trkpt lat="45.19536" lon="5.98444">
        <ele>2261.1999511719</ele>
        <time>2023-08-12T07:26:59.000Z</time>
      </trkpt>
      <trkpt lat="45.19537" lon="5.98445">
        <ele>2260.3999023438</ele>
        <time>2023-08-12T07:27:01.000Z</time>
      </trkpt>
      <trkpt lat="45.1954" lon="5.98442">
        <ele>2259.8000488281</ele>
        <time>2023-08-12T07:27:05.000Z</time>
      </trkpt>
      <trkpt lat="45.1954" lon="5.98439">
        <ele>2259.3999023438</ele>
        <time>2023-08-12T07:27:08.000Z</time>
      </trkpt>
      <trkpt lat="45.1954" lon="5.98435">
        <ele>2258.6000976562</ele>
        <time>2023-08-12T07:27:12.000Z</time>
      </trkpt>
      <trkpt lat="45.19541" lon="5.98431">
        <ele>2258.1999511719</ele>
        <time>2023-08-12T07:27:14.000Z</time>
      </trkpt>
      <trkpt lat="45.19541" lon="5.9843">
        <ele>2257.1999511719</ele>
        <time>2023-08-12T07:27:20.000Z</time>
      </trkpt>
      <trkpt lat="45.19541" lon="5.9843">
        <ele>2257</ele>
        <time>2023-08-12T07:27:21.000Z</time>
      </trkpt>
      <trkpt lat="45.19541" lon="5.98427">
        <ele>2256</ele>
        <time>2023-08-12T07:27:29.000Z</time>
      </trkpt>
      <trkpt lat="45.19541" lon="5.98426">
        <ele>2255.6000976562</ele>
        <time>2023-08-12T07:27:31.000Z</time>
      </trkpt>
      <trkpt lat="45.19541" lon="5.98427">
        <ele>2254.8000488281</ele>
        <time>2023-08-12T07:27:34.000Z</time>
      </trkpt>
      <trkpt lat="45.19542" lon="5.98426">
        <ele>2253.8000488281</ele>
        <time>2023-08-12T07:27:40.000Z</time>
      </trkpt>
      <trkpt lat="45.19543" lon="5.98425">
        <ele>2253.6000976562</ele>
        <time>2023-08-12T07:27:41.000Z</time>
      </trkpt>
      <trkpt lat="45.19542" lon="5.98418">
        <ele>2252.6000976562</ele>
        <time>2023-08-12T07:27:47.000Z</time>
      </trkpt>
      <trkpt lat="45.19542" lon="5.98416">
        <ele>2252</ele>
        <time>2023-08-12T07:27:49.000Z</time>
      </trkpt>
      <trkpt lat="45.19542" lon="5.98415">
        <ele>2251.3999023438</ele>
        <time>2023-08-12T07:27:52.000Z</time>
      </trkpt>
      <trkpt lat="45.19543" lon="5.98413">
        <ele>2250.8000488281</ele>
        <time>2023-08-12T07:27:55.000Z</time>
      </trkpt>
      <trkpt lat="45.19543" lon="5.98411">
        <ele>2250.3999023438</ele>
        <time>2023-08-12T07:27:57.000Z</time>
      </trkpt>
      <trkpt lat="45.19543" lon="5.98408">
        <ele>2249.1999511719</ele>
        <time>2023-08-12T07:28:01.000Z</time>
      </trkpt>
      <trkpt lat="45.19543" lon="5.98406">
        <ele>2248.8000488281</ele>
        <time>2023-08-12T07:28:03.000Z</time>
      </trkpt>
      <trkpt lat="45.19543" lon="5.98404">
        <ele>2248.1999511719</ele>
        <time>2023-08-12T07:28:06.000Z</time>
      </trkpt>
      <trkpt lat="45.19544" lon="5.984">
        <ele>2247.3999023438</ele>
        <time>2023-08-12T07:28:10.000Z</time>
      </trkpt>
      <trkpt lat="45.19544" lon="5.98398">
        <ele>2247</ele>
        <time>2023-08-12T07:28:12.000Z</time>
      </trkpt>
      <trkpt lat="45.19543" lon="5.98391">
        <ele>2246</ele>
        <time>2023-08-12T07:28:17.000Z</time>
      </trkpt>
      <trkpt lat="45.19543" lon="5.9839">
        <ele>2245.6000976562</ele>
        <time>2023-08-12T07:28:18.000Z</time>
      </trkpt>
      <trkpt lat="45.19542" lon="5.98386">
        <ele>2244.8000488281</ele>
        <time>2023-08-12T07:28:22.000Z</time>
      </trkpt>
      <trkpt lat="45.19541" lon="5.98384">
        <ele>2244.3999023438</ele>
        <time>2023-08-12T07:28:25.000Z</time>
      </trkpt>
      <trkpt lat="45.1954" lon="5.98381">
        <ele>2243.8000488281</ele>
        <time>2023-08-12T07:28:28.000Z</time>
      </trkpt>
      <trkpt lat="45.19541" lon="5.98376">
        <ele>2242.8000488281</ele>
        <time>2023-08-12T07:28:32.000Z</time>
      </trkpt>
      <trkpt lat="45.19541" lon="5.98374">
        <ele>2242.3999023438</ele>
        <time>2023-08-12T07:28:34.000Z</time>
      </trkpt>
      <trkpt lat="45.19543" lon="5.98366">
        <ele>2241.6000976562</ele>
        <time>2023-08-12T07:28:42.000Z</time>
      </trkpt>
      <trkpt lat="45.19543" lon="5.98366">
        <ele>2241.3999023438</ele>
        <time>2023-08-12T07:28:43.000Z</time>
      </trkpt>
      <trkpt lat="45.19543" lon="5.9836">
        <ele>2240.3999023438</ele>
        <time>2023-08-12T07:28:51.000Z</time>
      </trkpt>
      <trkpt lat="45.19544" lon="5.98359">
        <ele>2240.1999511719</ele>
        <time>2023-08-12T07:28:52.000Z</time>
      </trkpt>
      <trkpt lat="45.19544" lon="5.98356">
        <ele>2239.1999511719</ele>
        <time>2023-08-12T07:28:58.000Z</time>
      </trkpt>
      <trkpt lat="45.19544" lon="5.98355">
        <ele>2238.8000488281</ele>
        <time>2023-08-12T07:29:00.000Z</time>
      </trkpt>
      <trkpt lat="45.19544" lon="5.98353">
        <ele>2238</ele>
        <time>2023-08-12T07:29:04.000Z</time>
      </trkpt>
      <trkpt lat="45.19544" lon="5.98353">
        <ele>2237.3999023438</ele>
        <time>2023-08-12T07:29:08.000Z</time>
      </trkpt>
      <trkpt lat="45.19544" lon="5.98352">
        <ele>2236.8000488281</ele>
        <time>2023-08-12T07:29:10.000Z</time>
      </trkpt>
      <trkpt lat="45.19543" lon="5.98352">
        <ele>2235.8000488281</ele>
        <time>2023-08-12T07:29:15.000Z</time>
      </trkpt>
      <trkpt lat="45.19542" lon="5.98349">
        <ele>2235.6000976562</ele>
        <time>2023-08-12T07:29:17.000Z</time>
      </trkpt>
      <trkpt lat="45.19544" lon="5.98347">
        <ele>2234.6000976562</ele>
        <time>2023-08-12T07:29:22.000Z</time>
      </trkpt>
      <trkpt lat="45.19546" lon="5.98345">
        <ele>2234.1999511719</ele>
        <time>2023-08-12T07:29:24.000Z</time>
      </trkpt>
      <trkpt lat="45.19547" lon="5.98346">
        <ele>2233.6000976562</ele>
        <time>2023-08-12T07:29:27.000Z</time>
      </trkpt>
      <trkpt lat="45.19553" lon="5.98345">
        <ele>2232</ele>
        <time>2023-08-12T07:29:40.000Z</time>
      </trkpt>
      <trkpt lat="45.19553" lon="5.98343">
        <ele>2231.6000976562</ele>
        <time>2023-08-12T07:29:45.000Z</time>
      </trkpt>
      <trkpt lat="45.19553" lon="5.98341">
        <ele>2231.1999511719</ele>
        <time>2023-08-12T07:29:48.000Z</time>
      </trkpt>
      <trkpt lat="45.19555" lon="5.98342">
        <ele>2230.3999023438</ele>
        <time>2023-08-12T07:29:53.000Z</time>
      </trkpt>
      <trkpt lat="45.19558" lon="5.9834">
        <ele>2229.3999023438</ele>
        <time>2023-08-12T07:29:58.000Z</time>
      </trkpt>
      <trkpt lat="45.1956" lon="5.98339">
        <ele>2229.3999023438</ele>
        <time>2023-08-12T07:29:59.000Z</time>
      </trkpt>
      <trkpt lat="45.19563" lon="5.98336">
        <ele>2229.1999511719</ele>
        <time>2023-08-12T07:30:04.000Z</time>
      </trkpt>
      <trkpt lat="45.19568" lon="5.98332">
        <ele>2228.8000488281</ele>
        <time>2023-08-12T07:30:16.000Z</time>
      </trkpt>
      <trkpt lat="45.19568" lon="5.98328">
        <ele>2228.8000488281</ele>
        <time>2023-08-12T07:30:21.000Z</time>
      </trkpt>
      <trkpt lat="45.19568" lon="5.98329">
        <ele>2228.1999511719</ele>
        <time>2023-08-12T07:30:26.000Z</time>
      </trkpt>
      <trkpt lat="45.19569" lon="5.98328">
        <ele>2228</ele>
        <time>2023-08-12T07:30:29.000Z</time>
      </trkpt>
      <trkpt lat="45.19568" lon="5.98323">
        <ele>2228</ele>
        <time>2023-08-12T07:30:37.000Z</time>
      </trkpt>
      <trkpt lat="45.19569" lon="5.9832">
        <ele>2227.1999511719</ele>
        <time>2023-08-12T07:30:45.000Z</time>
      </trkpt>
      <trkpt lat="45.19569" lon="5.98319">
        <ele>2227</ele>
        <time>2023-08-12T07:30:46.000Z</time>
      </trkpt>
      <trkpt lat="45.19572" lon="5.98314">
        <ele>2226.1999511719</ele>
        <time>2023-08-12T07:30:53.000Z</time>
      </trkpt>
      <trkpt lat="45.19574" lon="5.98309">
        <ele>2226</ele>
        <time>2023-08-12T07:30:56.000Z</time>
      </trkpt>
      <trkpt lat="45.19575" lon="5.98307">
        <ele>2226</ele>
        <time>2023-08-12T07:30:59.000Z</time>
      </trkpt>
      <trkpt lat="45.19577" lon="5.98304">
        <ele>2225.6000976562</ele>
        <time>2023-08-12T07:31:07.000Z</time>
      </trkpt>
      <trkpt lat="45.1958" lon="5.98299">
        <ele>2225.1999511719</ele>
        <time>2023-08-12T07:31:13.000Z</time>
      </trkpt>
      <trkpt lat="45.19579" lon="5.98298">
        <ele>2224.8000488281</ele>
        <time>2023-08-12T07:31:15.000Z</time>
      </trkpt>
      <trkpt lat="45.19578" lon="5.98292">
        <ele>2224</ele>
        <time>2023-08-12T07:31:22.000Z</time>
      </trkpt>
      <trkpt lat="45.19578" lon="5.9829">
        <ele>2223.8000488281</ele>
        <time>2023-08-12T07:31:24.000Z</time>
      </trkpt>
      <trkpt lat="45.19579" lon="5.98284">
        <ele>2223.6000976562</ele>
        <time>2023-08-12T07:31:29.000Z</time>
      </trkpt>
      <trkpt lat="45.19579" lon="5.98281">
        <ele>2223.3999023438</ele>
        <time>2023-08-12T07:31:36.000Z</time>
      </trkpt>
      <trkpt lat="45.19579" lon="5.98278">
        <ele>2222.8000488281</ele>
        <time>2023-08-12T07:31:44.000Z</time>
      </trkpt>
      <trkpt lat="45.19577" lon="5.98271">
        <ele>2221.6000976562</ele>
        <time>2023-08-12T07:31:50.000Z</time>
      </trkpt>
      <trkpt lat="45.19575" lon="5.98265">
        <ele>2220.6000976562</ele>
        <time>2023-08-12T07:31:57.000Z</time>
      </trkpt>
      <trkpt lat="45.19575" lon="5.98262">
        <ele>2220.1999511719</ele>
        <time>2023-08-12T07:31:59.000Z</time>
      </trkpt>
      <trkpt lat="45.19576" lon="5.98255">
        <ele>2219.3999023438</ele>
        <time>2023-08-12T07:32:05.000Z</time>
      </trkpt>
      <trkpt lat="45.19576" lon="5.9825">
        <ele>2218.3999023438</ele>
        <time>2023-08-12T07:32:13.000Z</time>
      </trkpt>
      <trkpt lat="45.19576" lon="5.98245">
        <ele>2217.1999511719</ele>
        <time>2023-08-12T07:32:19.000Z</time>
      </trkpt>
      <trkpt lat="45.19576" lon="5.98242">
        <ele>2217</ele>
        <time>2023-08-12T07:32:21.000Z</time>
      </trkpt>
      <trkpt lat="45.19576" lon="5.98238">
        <ele>2216.1999511719</ele>
        <time>2023-08-12T07:32:24.000Z</time>
      </trkpt>
      <trkpt lat="45.19576" lon="5.98233">
        <ele>2215</ele>
        <time>2023-08-12T07:32:30.000Z</time>
      </trkpt>
      <trkpt lat="45.19577" lon="5.98222">
        <ele>2214</ele>
        <time>2023-08-12T07:32:38.000Z</time>
      </trkpt>
      <trkpt lat="45.19577" lon="5.98221">
        <ele>2213.8000488281</ele>
        <time>2023-08-12T07:32:39.000Z</time>
      </trkpt>
      <trkpt lat="45.19578" lon="5.98212">
        <ele>2212.8000488281</ele>
        <time>2023-08-12T07:32:46.000Z</time>
      </trkpt>
      <trkpt lat="45.19578" lon="5.98209">
        <ele>2211.8000488281</ele>
        <time>2023-08-12T07:32:50.000Z</time>
      </trkpt>
      <trkpt lat="45.19579" lon="5.98207">
        <ele>2211.3999023438</ele>
        <time>2023-08-12T07:32:52.000Z</time>
      </trkpt>
      <trkpt lat="45.19579" lon="5.982">
        <ele>2210.6000976562</ele>
        <time>2023-08-12T07:32:56.000Z</time>
      </trkpt>
      <trkpt lat="45.19579" lon="5.98198">
        <ele>2210.1999511719</ele>
        <time>2023-08-12T07:32:58.000Z</time>
      </trkpt>
      <trkpt lat="45.1958" lon="5.98196">
        <ele>2209.6000976562</ele>
        <time>2023-08-12T07:33:01.000Z</time>
      </trkpt>
      <trkpt lat="45.19581" lon="5.98192">
        <ele>2208.6000976562</ele>
        <time>2023-08-12T07:33:06.000Z</time>
      </trkpt>
      <trkpt lat="45.19583" lon="5.98186">
        <ele>2207.3999023438</ele>
        <time>2023-08-12T07:33:12.000Z</time>
      </trkpt>
      <trkpt lat="45.19583" lon="5.98184">
        <ele>2207</ele>
        <time>2023-08-12T07:33:14.000Z</time>
      </trkpt>
      <trkpt lat="45.19584" lon="5.9818">
        <ele>2206.3999023438</ele>
        <time>2023-08-12T07:33:17.000Z</time>
      </trkpt>
      <trkpt lat="45.19585" lon="5.98177">
        <ele>2205.3999023438</ele>
        <time>2023-08-12T07:33:22.000Z</time>
      </trkpt>
      <trkpt lat="45.19585" lon="5.98175">
        <ele>2205.1999511719</ele>
        <time>2023-08-12T07:33:23.000Z</time>
      </trkpt>
      <trkpt lat="45.19585" lon="5.9817">
        <ele>2204</ele>
        <time>2023-08-12T07:33:28.000Z</time>
      </trkpt>
      <trkpt lat="45.19586" lon="5.98167">
        <ele>2203.3999023438</ele>
        <time>2023-08-12T07:33:31.000Z</time>
      </trkpt>
      <trkpt lat="45.19586" lon="5.98162">
        <ele>2203</ele>
        <time>2023-08-12T07:33:34.000Z</time>
      </trkpt>
      <trkpt lat="45.19588" lon="5.98156">
        <ele>2201.8000488281</ele>
        <time>2023-08-12T07:33:39.000Z</time>
      </trkpt>
      <trkpt lat="45.19592" lon="5.98149">
        <ele>2200.8000488281</ele>
        <time>2023-08-12T07:33:45.000Z</time>
      </trkpt>
      <trkpt lat="45.19593" lon="5.98148">
        <ele>2200.6000976562</ele>
        <time>2023-08-12T07:33:46.000Z</time>
      </trkpt>
      <trkpt lat="45.19594" lon="5.98143">
        <ele>2199.8000488281</ele>
        <time>2023-08-12T07:33:50.000Z</time>
      </trkpt>
      <trkpt lat="45.19595" lon="5.9814">
        <ele>2199.1999511719</ele>
        <time>2023-08-12T07:33:54.000Z</time>
      </trkpt>
      <trkpt lat="45.19595" lon="5.98139">
        <ele>2198.8000488281</ele>
        <time>2023-08-12T07:33:56.000Z</time>
      </trkpt>
      <trkpt lat="45.19596" lon="5.98134">
        <ele>2197.6000976562</ele>
        <time>2023-08-12T07:34:02.000Z</time>
      </trkpt>
      <trkpt lat="45.19597" lon="5.98125">
        <ele>2196.6000976562</ele>
        <time>2023-08-12T07:34:09.000Z</time>
      </trkpt>
      <trkpt lat="45.19599" lon="5.98121">
        <ele>2195.6000976562</ele>
        <time>2023-08-12T07:34:15.000Z</time>
      </trkpt>
      <trkpt lat="45.19599" lon="5.98116">
        <ele>2194.8000488281</ele>
        <time>2023-08-12T07:34:19.000Z</time>
      </trkpt>
      <trkpt lat="45.196" lon="5.98114">
        <ele>2194.3999023438</ele>
        <time>2023-08-12T07:34:21.000Z</time>
      </trkpt>
      <trkpt lat="45.19601" lon="5.98109">
        <ele>2193.8000488281</ele>
        <time>2023-08-12T07:34:27.000Z</time>
      </trkpt>
      <trkpt lat="45.19601" lon="5.98105">
        <ele>2193.3999023438</ele>
        <time>2023-08-12T07:34:30.000Z</time>
      </trkpt>
      <trkpt lat="45.196" lon="5.98101">
        <ele>2193</ele>
        <time>2023-08-12T07:34:34.000Z</time>
      </trkpt>
      <trkpt lat="45.196" lon="5.98093">
        <ele>2192.1999511719</ele>
        <time>2023-08-12T07:34:40.000Z</time>
      </trkpt>
      <trkpt lat="45.196" lon="5.9809">
        <ele>2192.1999511719</ele>
        <time>2023-08-12T07:34:41.000Z</time>
      </trkpt>
      <trkpt lat="45.196" lon="5.98082">
        <ele>2191.1999511719</ele>
        <time>2023-08-12T07:34:48.000Z</time>
      </trkpt>
      <trkpt lat="45.196" lon="5.98077">
        <ele>2190</ele>
        <time>2023-08-12T07:34:54.000Z</time>
      </trkpt>
      <trkpt lat="45.19601" lon="5.9807">
        <ele>2188.6000976562</ele>
        <time>2023-08-12T07:35:00.000Z</time>
      </trkpt>
      <trkpt lat="45.196" lon="5.98069">
        <ele>2188.6000976562</ele>
        <time>2023-08-12T07:35:01.000Z</time>
      </trkpt>
      <trkpt lat="45.19599" lon="5.98062">
        <ele>2187.6000976562</ele>
        <time>2023-08-12T07:35:08.000Z</time>
      </trkpt>
      <trkpt lat="45.19598" lon="5.98054">
        <ele>2186.8000488281</ele>
        <time>2023-08-12T07:35:15.000Z</time>
      </trkpt>
      <trkpt lat="45.19597" lon="5.9805">
        <ele>2186.3999023438</ele>
        <time>2023-08-12T07:35:18.000Z</time>
      </trkpt>
      <trkpt lat="45.19596" lon="5.98045">
        <ele>2185.6000976562</ele>
        <time>2023-08-12T07:35:22.000Z</time>
      </trkpt>
      <trkpt lat="45.19596" lon="5.98044">
        <ele>2185.1999511719</ele>
        <time>2023-08-12T07:35:23.000Z</time>
      </trkpt>
      <trkpt lat="45.19595" lon="5.98043">
        <ele>2184.1999511719</ele>
        <time>2023-08-12T07:35:27.000Z</time>
      </trkpt>
      <trkpt lat="45.19594" lon="5.98042">
        <ele>2183.6000976562</ele>
        <time>2023-08-12T07:35:31.000Z</time>
      </trkpt>
      <trkpt lat="45.19592" lon="5.98042">
        <ele>2183.3999023438</ele>
        <time>2023-08-12T07:35:34.000Z</time>
      </trkpt>
      <trkpt lat="45.19591" lon="5.98042">
        <ele>2183.1999511719</ele>
        <time>2023-08-12T07:35:36.000Z</time>
      </trkpt>
      <trkpt lat="45.1959" lon="5.98042">
        <ele>2182.8000488281</ele>
        <time>2023-08-12T07:35:38.000Z</time>
      </trkpt>
      <trkpt lat="45.19588" lon="5.98041">
        <ele>2182</ele>
        <time>2023-08-12T07:35:45.000Z</time>
      </trkpt>
      <trkpt lat="45.19585" lon="5.98037">
        <ele>2181.3999023438</ele>
        <time>2023-08-12T07:35:49.000Z</time>
      </trkpt>
      <trkpt lat="45.19585" lon="5.98034">
        <ele>2181</ele>
        <time>2023-08-12T07:35:51.000Z</time>
      </trkpt>
      <trkpt lat="45.19584" lon="5.98026">
        <ele>2180</ele>
        <time>2023-08-12T07:35:55.000Z</time>
      </trkpt>
      <trkpt lat="45.19584" lon="5.98021">
        <ele>2178.8000488281</ele>
        <time>2023-08-12T07:36:00.000Z</time>
      </trkpt>
      <trkpt lat="45.19582" lon="5.98013">
        <ele>2177.6000976562</ele>
        <time>2023-08-12T07:36:06.000Z</time>
      </trkpt>
      <trkpt lat="45.19582" lon="5.98011">
        <ele>2177.1999511719</ele>
        <time>2023-08-12T07:36:08.000Z</time>
      </trkpt>
      <trkpt lat="45.19581" lon="5.98009">
        <ele>2176.6000976562</ele>
        <time>2023-08-12T07:36:12.000Z</time>
      </trkpt>
      <trkpt lat="45.1958" lon="5.98007">
        <ele>2176</ele>
        <time>2023-08-12T07:36:15.000Z</time>
      </trkpt>
      <trkpt lat="45.19579" lon="5.98006">
        <ele>2175.3999023438</ele>
        <time>2023-08-12T07:36:17.000Z</time>
      </trkpt>
      <trkpt lat="45.19576" lon="5.98">
        <ele>2174.1999511719</ele>
        <time>2023-08-12T07:36:23.000Z</time>
      </trkpt>
      <trkpt lat="45.19576" lon="5.97999">
        <ele>2173.3999023438</ele>
        <time>2023-08-12T07:36:27.000Z</time>
      </trkpt>
      <trkpt lat="45.19575" lon="5.97999">
        <ele>2173.1999511719</ele>
        <time>2023-08-12T07:36:28.000Z</time>
      </trkpt>
      <trkpt lat="45.19575" lon="5.97997">
        <ele>2172.8000488281</ele>
        <time>2023-08-12T07:36:30.000Z</time>
      </trkpt>
      <trkpt lat="45.19575" lon="5.97994">
        <ele>2172</ele>
        <time>2023-08-12T07:36:33.000Z</time>
      </trkpt>
      <trkpt lat="45.19572" lon="5.97989">
        <ele>2170.8000488281</ele>
        <time>2023-08-12T07:36:38.000Z</time>
      </trkpt>
      <trkpt lat="45.1957" lon="5.97982">
        <ele>2169.6000976562</ele>
        <time>2023-08-12T07:36:45.000Z</time>
      </trkpt>
      <trkpt lat="45.1957" lon="5.97982">
        <ele>2169.3999023438</ele>
        <time>2023-08-12T07:36:46.000Z</time>
      </trkpt>
      <trkpt lat="45.19569" lon="5.97982">
        <ele>2168.6000976562</ele>
        <time>2023-08-12T07:36:49.000Z</time>
      </trkpt>
      <trkpt lat="45.19567" lon="5.97981">
        <ele>2167.3999023438</ele>
        <time>2023-08-12T07:36:53.000Z</time>
      </trkpt>
      <trkpt lat="45.19566" lon="5.97981">
        <ele>2167.1999511719</ele>
        <time>2023-08-12T07:36:54.000Z</time>
      </trkpt>
      <trkpt lat="45.19566" lon="5.97983">
        <ele>2166.3999023438</ele>
        <time>2023-08-12T07:36:58.000Z</time>
      </trkpt>
      <trkpt lat="45.19566" lon="5.97984">
        <ele>2165.8000488281</ele>
        <time>2023-08-12T07:37:00.000Z</time>
      </trkpt>
      <trkpt lat="45.19564" lon="5.97984">
        <ele>2165.3999023438</ele>
        <time>2023-08-12T07:37:02.000Z</time>
      </trkpt>
      <trkpt lat="45.19559" lon="5.97983">
        <ele>2164.1999511719</ele>
        <time>2023-08-12T07:37:08.000Z</time>
      </trkpt>
      <trkpt lat="45.19555" lon="5.97977">
        <ele>2162.8000488281</ele>
        <time>2023-08-12T07:37:15.000Z</time>
      </trkpt>
      <trkpt lat="45.19554" lon="5.97975">
        <ele>2162</ele>
        <time>2023-08-12T07:37:20.000Z</time>
      </trkpt>
      <trkpt lat="45.19554" lon="5.97975">
        <ele>2161.8000488281</ele>
        <time>2023-08-12T07:37:21.000Z</time>
      </trkpt>
      <trkpt lat="45.19553" lon="5.97977">
        <ele>2160.6000976562</ele>
        <time>2023-08-12T07:37:26.000Z</time>
      </trkpt>
      <trkpt lat="45.19551" lon="5.97975">
        <ele>2159.8000488281</ele>
        <time>2023-08-12T07:37:33.000Z</time>
      </trkpt>
      <trkpt lat="45.19549" lon="5.97973">
        <ele>2159.3999023438</ele>
        <time>2023-08-12T07:37:35.000Z</time>
      </trkpt>
      <trkpt lat="45.19547" lon="5.97973">
        <ele>2158.8000488281</ele>
        <time>2023-08-12T07:37:39.000Z</time>
      </trkpt>
      <trkpt lat="45.19546" lon="5.97974">
        <ele>2158.1999511719</ele>
        <time>2023-08-12T07:37:41.000Z</time>
      </trkpt>
      <trkpt lat="45.19543" lon="5.97976">
        <ele>2157.1999511719</ele>
        <time>2023-08-12T07:37:46.000Z</time>
      </trkpt>
      <trkpt lat="45.19542" lon="5.97976">
        <ele>2157</ele>
        <time>2023-08-12T07:37:48.000Z</time>
      </trkpt>
      <trkpt lat="45.19539" lon="5.97976">
        <ele>2156.6000976562</ele>
        <time>2023-08-12T07:37:53.000Z</time>
      </trkpt>
      <trkpt lat="45.19532" lon="5.9797">
        <ele>2157</ele>
        <time>2023-08-12T07:38:02.000Z</time>
      </trkpt>
      <trkpt lat="45.1953" lon="5.97965">
        <ele>2157.6000976562</ele>
        <time>2023-08-12T07:38:10.000Z</time>
      </trkpt>
      <trkpt lat="45.19527" lon="5.97957">
        <ele>2157</ele>
        <time>2023-08-12T07:38:17.000Z</time>
      </trkpt>
      <trkpt lat="45.19524" lon="5.97951">
        <ele>2157.1999511719</ele>
        <time>2023-08-12T07:38:24.000Z</time>
      </trkpt>
      <trkpt lat="45.19521" lon="5.97946">
        <ele>2157.6000976562</ele>
        <time>2023-08-12T07:38:32.000Z</time>
      </trkpt>
      <trkpt lat="45.19515" lon="5.97944">
        <ele>2157.1999511719</ele>
        <time>2023-08-12T07:38:38.000Z</time>
      </trkpt>
      <trkpt lat="45.19513" lon="5.97938">
        <ele>2156.1999511719</ele>
        <time>2023-08-12T07:38:46.000Z</time>
      </trkpt>
      <trkpt lat="45.19514" lon="5.9793">
        <ele>2157</ele>
        <time>2023-08-12T07:38:53.000Z</time>
      </trkpt>
      <trkpt lat="45.1951" lon="5.9792">
        <ele>2157.3999023438</ele>
        <time>2023-08-12T07:39:01.000Z</time>
      </trkpt>
      <trkpt lat="45.19505" lon="5.97914">
        <ele>2157.3999023438</ele>
        <time>2023-08-12T07:39:09.000Z</time>
      </trkpt>
      <trkpt lat="45.19498" lon="5.97911">
        <ele>2157.3999023438</ele>
        <time>2023-08-12T07:39:15.000Z</time>
      </trkpt>
      <trkpt lat="45.19495" lon="5.97908">
        <ele>2157.6000976562</ele>
        <time>2023-08-12T07:39:23.000Z</time>
      </trkpt>
      <trkpt lat="45.19494" lon="5.97907">
        <ele>2156.3999023438</ele>
        <time>2023-08-12T07:39:31.000Z</time>
      </trkpt>
      <trkpt lat="45.19493" lon="5.97907">
        <ele>2155.8000488281</ele>
        <time>2023-08-12T07:39:34.000Z</time>
      </trkpt>
      <trkpt lat="45.19492" lon="5.97906">
        <ele>2155.3999023438</ele>
        <time>2023-08-12T07:39:37.000Z</time>
      </trkpt>
      <trkpt lat="45.19489" lon="5.97904">
        <ele>2154.8000488281</ele>
        <time>2023-08-12T07:39:41.000Z</time>
      </trkpt>
      <trkpt lat="45.19486" lon="5.97902">
        <ele>2154</ele>
        <time>2023-08-12T07:39:46.000Z</time>
      </trkpt>
      <trkpt lat="45.19486" lon="5.97902">
        <ele>2153.6000976562</ele>
        <time>2023-08-12T07:39:47.000Z</time>
      </trkpt>
      <trkpt lat="45.19489" lon="5.97898">
        <ele>2152.3999023438</ele>
        <time>2023-08-12T07:39:53.000Z</time>
      </trkpt>
      <trkpt lat="45.19486" lon="5.9789">
        <ele>2151.3999023438</ele>
        <time>2023-08-12T07:39:59.000Z</time>
      </trkpt>
      <trkpt lat="45.19483" lon="5.97883">
        <ele>2150.1999511719</ele>
        <time>2023-08-12T07:40:08.000Z</time>
      </trkpt>
      <trkpt lat="45.19482" lon="5.97879">
        <ele>2149.1999511719</ele>
        <time>2023-08-12T07:40:15.000Z</time>
      </trkpt>
      <trkpt lat="45.19483" lon="5.97879">
        <ele>2148.8000488281</ele>
        <time>2023-08-12T07:40:17.000Z</time>
      </trkpt>
      <trkpt lat="45.19486" lon="5.97875">
        <ele>2148</ele>
        <time>2023-08-12T07:40:25.000Z</time>
      </trkpt>
      <trkpt lat="45.19486" lon="5.97871">
        <ele>2147</ele>
        <time>2023-08-12T07:40:30.000Z</time>
      </trkpt>
      <trkpt lat="45.19486" lon="5.97868">
        <ele>2146.1999511719</ele>
        <time>2023-08-12T07:40:33.000Z</time>
      </trkpt>
      <trkpt lat="45.19486" lon="5.97865">
        <ele>2145.8000488281</ele>
        <time>2023-08-12T07:40:35.000Z</time>
      </trkpt>
      <trkpt lat="45.19486" lon="5.9786">
        <ele>2144.8000488281</ele>
        <time>2023-08-12T07:40:41.000Z</time>
      </trkpt>
      <trkpt lat="45.19484" lon="5.97857">
        <ele>2144.3999023438</ele>
        <time>2023-08-12T07:40:43.000Z</time>
      </trkpt>
      <trkpt lat="45.19483" lon="5.97858">
        <ele>2143.6000976562</ele>
        <time>2023-08-12T07:40:48.000Z</time>
      </trkpt>
      <trkpt lat="45.19483" lon="5.97858">
        <ele>2143.1999511719</ele>
        <time>2023-08-12T07:40:50.000Z</time>
      </trkpt>
      <trkpt lat="45.1948" lon="5.97853">
        <ele>2142.6000976562</ele>
        <time>2023-08-12T07:40:55.000Z</time>
      </trkpt>
      <trkpt lat="45.19479" lon="5.97851">
        <ele>2142.1999511719</ele>
        <time>2023-08-12T07:40:57.000Z</time>
      </trkpt>
      <trkpt lat="45.19479" lon="5.97848">
        <ele>2141.3999023438</ele>
        <time>2023-08-12T07:41:01.000Z</time>
      </trkpt>
      <trkpt lat="45.19478" lon="5.97842">
        <ele>2141.3999023438</ele>
        <time>2023-08-12T07:41:04.000Z</time>
      </trkpt>
      <trkpt lat="45.19475" lon="5.97828">
        <ele>2141</ele>
        <time>2023-08-12T07:41:12.000Z</time>
      </trkpt>
      <trkpt lat="45.19473" lon="5.97818">
        <ele>2140.8000488281</ele>
        <time>2023-08-12T07:41:21.000Z</time>
      </trkpt>
      <trkpt lat="45.19471" lon="5.97805">
        <ele>2140.8000488281</ele>
        <time>2023-08-12T07:41:30.000Z</time>
      </trkpt>
      <trkpt lat="45.19472" lon="5.97795">
        <ele>2140.3999023438</ele>
        <time>2023-08-12T07:41:35.000Z</time>
      </trkpt>
      <trkpt lat="45.19472" lon="5.97791">
        <ele>2140.3999023438</ele>
        <time>2023-08-12T07:41:38.000Z</time>
      </trkpt>
      <trkpt lat="45.19471" lon="5.97777">
        <ele>2139.8000488281</ele>
        <time>2023-08-12T07:41:46.000Z</time>
      </trkpt>
      <trkpt lat="45.1947" lon="5.97769">
        <ele>2139.6000976562</ele>
        <time>2023-08-12T07:41:53.000Z</time>
      </trkpt>
      <trkpt lat="45.19471" lon="5.97763">
        <ele>2139.3999023438</ele>
        <time>2023-08-12T07:41:57.000Z</time>
      </trkpt>
      <trkpt lat="45.19471" lon="5.9776">
        <ele>2139</ele>
        <time>2023-08-12T07:42:00.000Z</time>
      </trkpt>
      <trkpt lat="45.19473" lon="5.97748">
        <ele>2138.3999023438</ele>
        <time>2023-08-12T07:42:08.000Z</time>
      </trkpt>
      <trkpt lat="45.19473" lon="5.97746">
        <ele>2138.3999023438</ele>
        <time>2023-08-12T07:42:09.000Z</time>
      </trkpt>
      <trkpt lat="45.19474" lon="5.97738">
        <ele>2138.6000976562</ele>
        <time>2023-08-12T07:42:17.000Z</time>
      </trkpt>
      <trkpt lat="45.19477" lon="5.97733">
        <ele>2138.6000976562</ele>
        <time>2023-08-12T07:42:24.000Z</time>
      </trkpt>
      <trkpt lat="45.19479" lon="5.97719">
        <ele>2137.6000976562</ele>
        <time>2023-08-12T07:42:34.000Z</time>
      </trkpt>
      <trkpt lat="45.19479" lon="5.97712">
        <ele>2137.3999023438</ele>
        <time>2023-08-12T07:42:40.000Z</time>
      </trkpt>
      <trkpt lat="45.19479" lon="5.97708">
        <ele>2137.1999511719</ele>
        <time>2023-08-12T07:42:43.000Z</time>
      </trkpt>
      <trkpt lat="45.19478" lon="5.97696">
        <ele>2137.6000976562</ele>
        <time>2023-08-12T07:42:52.000Z</time>
      </trkpt>
      <trkpt lat="45.19479" lon="5.97688">
        <ele>2138</ele>
        <time>2023-08-12T07:42:58.000Z</time>
      </trkpt>
      <trkpt lat="45.19478" lon="5.97681">
        <ele>2138.3999023438</ele>
        <time>2023-08-12T07:43:03.000Z</time>
      </trkpt>
      <trkpt lat="45.19477" lon="5.97679">
        <ele>2138.3999023438</ele>
        <time>2023-08-12T07:43:04.000Z</time>
      </trkpt>
      <trkpt lat="45.1947" lon="5.97673">
        <ele>2138.3999023438</ele>
        <time>2023-08-12T07:43:10.000Z</time>
      </trkpt>
      <trkpt lat="45.19466" lon="5.97669">
        <ele>2137.8000488281</ele>
        <time>2023-08-12T07:43:16.000Z</time>
      </trkpt>
      <trkpt lat="45.19462" lon="5.97663">
        <ele>2138</ele>
        <time>2023-08-12T07:43:23.000Z</time>
      </trkpt>
      <trkpt lat="45.19465" lon="5.97655">
        <ele>2137.8000488281</ele>
        <time>2023-08-12T07:43:33.000Z</time>
      </trkpt>
      <trkpt lat="45.19466" lon="5.97651">
        <ele>2137.3999023438</ele>
        <time>2023-08-12T07:43:38.000Z</time>
      </trkpt>
      <trkpt lat="45.19466" lon="5.9765">
        <ele>2137</ele>
        <time>2023-08-12T07:43:40.000Z</time>
      </trkpt>
      <trkpt lat="45.19466" lon="5.97647">
        <ele>2136.3999023438</ele>
        <time>2023-08-12T07:43:45.000Z</time>
      </trkpt>
      <trkpt lat="45.19465" lon="5.97647">
        <ele>2136</ele>
        <time>2023-08-12T07:43:48.000Z</time>
      </trkpt>
      <trkpt lat="45.19469" lon="5.97649">
        <ele>2135.8000488281</ele>
        <time>2023-08-12T07:43:56.000Z</time>
      </trkpt>
      <trkpt lat="45.19468" lon="5.97643">
        <ele>2135.3999023438</ele>
        <time>2023-08-12T07:44:06.000Z</time>
      </trkpt>
      <trkpt lat="45.19469" lon="5.97643">
        <ele>2135.1999511719</ele>
        <time>2023-08-12T07:44:08.000Z</time>
      </trkpt>
      <trkpt lat="45.1947" lon="5.9764">
        <ele>2134.3999023438</ele>
        <time>2023-08-12T07:44:13.000Z</time>
      </trkpt>
      <trkpt lat="45.1947" lon="5.97639">
        <ele>2134.1999511719</ele>
        <time>2023-08-12T07:44:14.000Z</time>
      </trkpt>
      <trkpt lat="45.19468" lon="5.97636">
        <ele>2133</ele>
        <time>2023-08-12T07:44:19.000Z</time>
      </trkpt>
      <trkpt lat="45.19468" lon="5.97636">
        <ele>2132.8000488281</ele>
        <time>2023-08-12T07:44:20.000Z</time>
      </trkpt>
      <trkpt lat="45.19467" lon="5.97632">
        <ele>2132</ele>
        <time>2023-08-12T07:44:24.000Z</time>
      </trkpt>
      <trkpt lat="45.19468" lon="5.9763">
        <ele>2131.3999023438</ele>
        <time>2023-08-12T07:44:27.000Z</time>
      </trkpt>
      <trkpt lat="45.19468" lon="5.97628">
        <ele>2130.8000488281</ele>
        <time>2023-08-12T07:44:30.000Z</time>
      </trkpt>
      <trkpt lat="45.19468" lon="5.97625">
        <ele>2129.8000488281</ele>
        <time>2023-08-12T07:44:35.000Z</time>
      </trkpt>
      <trkpt lat="45.19468" lon="5.97623">
        <ele>2129.6000976562</ele>
        <time>2023-08-12T07:44:36.000Z</time>
      </trkpt>
      <trkpt lat="45.19466" lon="5.97617">
        <ele>2128.6000976562</ele>
        <time>2023-08-12T07:44:42.000Z</time>
      </trkpt>
      <trkpt lat="45.19465" lon="5.97613">
        <ele>2127.6000976562</ele>
        <time>2023-08-12T07:44:47.000Z</time>
      </trkpt>
      <trkpt lat="45.19465" lon="5.97613">
        <ele>2127.1999511719</ele>
        <time>2023-08-12T07:44:48.000Z</time>
      </trkpt>
      <trkpt lat="45.19465" lon="5.97609">
        <ele>2126.3999023438</ele>
        <time>2023-08-12T07:44:52.000Z</time>
      </trkpt>
      <trkpt lat="45.19466" lon="5.97602">
        <ele>2125.8000488281</ele>
        <time>2023-08-12T07:44:56.000Z</time>
      </trkpt>
      <trkpt lat="45.19465" lon="5.97594">
        <ele>2125.1999511719</ele>
        <time>2023-08-12T07:45:00.000Z</time>
      </trkpt>
      <trkpt lat="45.19462" lon="5.97593">
        <ele>2125.1999511719</ele>
        <time>2023-08-12T07:45:03.000Z</time>
      </trkpt>
      <trkpt lat="45.19456" lon="5.97589">
        <ele>2125</ele>
        <time>2023-08-12T07:45:10.000Z</time>
      </trkpt>
      <trkpt lat="45.19453" lon="5.97589">
        <ele>2124.8000488281</ele>
        <time>2023-08-12T07:45:16.000Z</time>
      </trkpt>
      <trkpt lat="45.19452" lon="5.9759">
        <ele>2124.8000488281</ele>
        <time>2023-08-12T07:45:18.000Z</time>
      </trkpt>
      <trkpt lat="45.19449" lon="5.97591">
        <ele>2124.1999511719</ele>
        <time>2023-08-12T07:45:22.000Z</time>
      </trkpt>
      <trkpt lat="45.19448" lon="5.9759">
        <ele>2124</ele>
        <time>2023-08-12T07:45:23.000Z</time>
      </trkpt>
      <trkpt lat="45.19443" lon="5.97587">
        <ele>2123.1999511719</ele>
        <time>2023-08-12T07:45:29.000Z</time>
      </trkpt>
      <trkpt lat="45.19441" lon="5.97587">
        <ele>2122.8000488281</ele>
        <time>2023-08-12T07:45:31.000Z</time>
      </trkpt>
      <trkpt lat="45.19441" lon="5.97587">
        <ele>2122.1999511719</ele>
        <time>2023-08-12T07:45:35.000Z</time>
      </trkpt>
      <trkpt lat="45.19438" lon="5.97589">
        <ele>2121.3999023438</ele>
        <time>2023-08-12T07:45:39.000Z</time>
      </trkpt>
      <trkpt lat="45.19438" lon="5.97588">
        <ele>2121.1999511719</ele>
        <time>2023-08-12T07:45:40.000Z</time>
      </trkpt>
      <trkpt lat="45.19437" lon="5.97587">
        <ele>2120.6000976562</ele>
        <time>2023-08-12T07:45:42.000Z</time>
      </trkpt>
      <trkpt lat="45.19437" lon="5.97586">
        <ele>2120</ele>
        <time>2023-08-12T07:45:45.000Z</time>
      </trkpt>
      <trkpt lat="45.19436" lon="5.97585">
        <ele>2120</ele>
        <time>2023-08-12T07:45:46.000Z</time>
      </trkpt>
      <trkpt lat="45.19433" lon="5.97583">
        <ele>2119</ele>
        <time>2023-08-12T07:45:52.000Z</time>
      </trkpt>
      <trkpt lat="45.19433" lon="5.97583">
        <ele>2119</ele>
        <time>2023-08-12T07:45:53.000Z</time>
      </trkpt>
      <trkpt lat="45.19429" lon="5.97584">
        <ele>2118</ele>
        <time>2023-08-12T07:45:59.000Z</time>
      </trkpt>
      <trkpt lat="45.19426" lon="5.97586">
        <ele>2117.6000976562</ele>
        <time>2023-08-12T07:46:01.000Z</time>
      </trkpt>
      <trkpt lat="45.19422" lon="5.97588">
        <ele>2117</ele>
        <time>2023-08-12T07:46:05.000Z</time>
      </trkpt>
      <trkpt lat="45.19421" lon="5.9759">
        <ele>2116.8000488281</ele>
        <time>2023-08-12T07:46:06.000Z</time>
      </trkpt>
      <trkpt lat="45.19421" lon="5.9759">
        <ele>2116.6000976562</ele>
        <time>2023-08-12T07:46:07.000Z</time>
      </trkpt>
      <trkpt lat="45.1942" lon="5.97589">
        <ele>2115.8000488281</ele>
        <time>2023-08-12T07:46:11.000Z</time>
      </trkpt>
      <trkpt lat="45.19419" lon="5.97585">
        <ele>2115.3999023438</ele>
        <time>2023-08-12T07:46:13.000Z</time>
      </trkpt>
      <trkpt lat="45.19419" lon="5.9758">
        <ele>2114.8000488281</ele>
        <time>2023-08-12T07:46:16.000Z</time>
      </trkpt>
      <trkpt lat="45.19418" lon="5.97576">
        <ele>2114.1999511719</ele>
        <time>2023-08-12T07:46:21.000Z</time>
      </trkpt>
      <trkpt lat="45.19418" lon="5.97576">
        <ele>2113.8000488281</ele>
        <time>2023-08-12T07:46:23.000Z</time>
      </trkpt>
      <trkpt lat="45.19416" lon="5.97572">
        <ele>2112.6000976562</ele>
        <time>2023-08-12T07:46:29.000Z</time>
      </trkpt>
      <trkpt lat="45.19415" lon="5.9757">
        <ele>2112.3999023438</ele>
        <time>2023-08-12T07:46:30.000Z</time>
      </trkpt>
      <trkpt lat="45.1941" lon="5.97566">
        <ele>2111.8000488281</ele>
        <time>2023-08-12T07:46:36.000Z</time>
      </trkpt>
      <trkpt lat="45.19407" lon="5.97565">
        <ele>2111.6000976562</ele>
        <time>2023-08-12T07:46:41.000Z</time>
      </trkpt>
      <trkpt lat="45.19407" lon="5.97563">
        <ele>2111.6000976562</ele>
        <time>2023-08-12T07:46:44.000Z</time>
      </trkpt>
      <trkpt lat="45.1941" lon="5.9756">
        <ele>2111.6000976562</ele>
        <time>2023-08-12T07:46:51.000Z</time>
      </trkpt>
      <trkpt lat="45.19405" lon="5.97562">
        <ele>2111.3999023438</ele>
        <time>2023-08-12T07:46:57.000Z</time>
      </trkpt>
      <trkpt lat="45.19405" lon="5.97561">
        <ele>2111.6000976562</ele>
        <time>2023-08-12T07:47:04.000Z</time>
      </trkpt>
      <trkpt lat="45.19404" lon="5.97559">
        <ele>2111.6000976562</ele>
        <time>2023-08-12T07:47:11.000Z</time>
      </trkpt>
      <trkpt lat="45.194" lon="5.97561">
        <ele>2111.1999511719</ele>
        <time>2023-08-12T07:47:18.000Z</time>
      </trkpt>
      <trkpt lat="45.19399" lon="5.97559">
        <ele>2110.6000976562</ele>
        <time>2023-08-12T07:47:22.000Z</time>
      </trkpt>
      <trkpt lat="45.19396" lon="5.97557">
        <ele>2110.3999023438</ele>
        <time>2023-08-12T07:47:25.000Z</time>
      </trkpt>
      <trkpt lat="45.19389" lon="5.97555">
        <ele>2109.3999023438</ele>
        <time>2023-08-12T07:47:33.000Z</time>
      </trkpt>
      <trkpt lat="45.19389" lon="5.97555">
        <ele>2109</ele>
        <time>2023-08-12T07:47:34.000Z</time>
      </trkpt>
      <trkpt lat="45.19385" lon="5.97552">
        <ele>2108.1999511719</ele>
        <time>2023-08-12T07:47:40.000Z</time>
      </trkpt>
      <trkpt lat="45.19385" lon="5.97551">
        <ele>2107.8000488281</ele>
        <time>2023-08-12T07:47:42.000Z</time>
      </trkpt>
      <trkpt lat="45.19382" lon="5.97549">
        <ele>2107.1999511719</ele>
        <time>2023-08-12T07:47:47.000Z</time>
      </trkpt>
      <trkpt lat="45.19381" lon="5.97548">
        <ele>2106.6000976562</ele>
        <time>2023-08-12T07:47:49.000Z</time>
      </trkpt>
      <trkpt lat="45.19379" lon="5.97545">
        <ele>2106</ele>
        <time>2023-08-12T07:47:52.000Z</time>
      </trkpt>
      <trkpt lat="45.19377" lon="5.97543">
        <ele>2105.3999023438</ele>
        <time>2023-08-12T07:47:56.000Z</time>
      </trkpt>
      <trkpt lat="45.19376" lon="5.97542">
        <ele>2104.8000488281</ele>
        <time>2023-08-12T07:48:00.000Z</time>
      </trkpt>
      <trkpt lat="45.19376" lon="5.97539">
        <ele>2104.1999511719</ele>
        <time>2023-08-12T07:48:04.000Z</time>
      </trkpt>
      <trkpt lat="45.19375" lon="5.97539">
        <ele>2103.8000488281</ele>
        <time>2023-08-12T07:48:06.000Z</time>
      </trkpt>
      <trkpt lat="45.19375" lon="5.9754">
        <ele>2103</ele>
        <time>2023-08-12T07:48:10.000Z</time>
      </trkpt>
      <trkpt lat="45.19375" lon="5.9754">
        <ele>2102.6000976562</ele>
        <time>2023-08-12T07:48:12.000Z</time>
      </trkpt>
      <trkpt lat="45.19372" lon="5.97532">
        <ele>2101.6000976562</ele>
        <time>2023-08-12T07:48:18.000Z</time>
      </trkpt>
      <trkpt lat="45.19371" lon="5.97534">
        <ele>2101.1999511719</ele>
        <time>2023-08-12T07:48:21.000Z</time>
      </trkpt>
      <trkpt lat="45.1937" lon="5.97536">
        <ele>2100.8000488281</ele>
        <time>2023-08-12T07:48:24.000Z</time>
      </trkpt>
      <trkpt lat="45.1937" lon="5.97535">
        <ele>2100.3999023438</ele>
        <time>2023-08-12T07:48:26.000Z</time>
      </trkpt>
      <trkpt lat="45.19369" lon="5.97529">
        <ele>2099.6000976562</ele>
        <time>2023-08-12T07:48:32.000Z</time>
      </trkpt>
      <trkpt lat="45.19369" lon="5.97528">
        <ele>2099.3999023438</ele>
        <time>2023-08-12T07:48:33.000Z</time>
      </trkpt>
      <trkpt lat="45.19367" lon="5.97524">
        <ele>2098.6000976562</ele>
        <time>2023-08-12T07:48:38.000Z</time>
      </trkpt>
      <trkpt lat="45.19365" lon="5.97525">
        <ele>2098.1999511719</ele>
        <time>2023-08-12T07:48:42.000Z</time>
      </trkpt>
      <trkpt lat="45.19362" lon="5.97527">
        <ele>2097.6000976562</ele>
        <time>2023-08-12T07:48:46.000Z</time>
      </trkpt>
      <trkpt lat="45.19361" lon="5.97527">
        <ele>2097</ele>
        <time>2023-08-12T07:48:49.000Z</time>
      </trkpt>
      <trkpt lat="45.19356" lon="5.97522">
        <ele>2096</ele>
        <time>2023-08-12T07:48:54.000Z</time>
      </trkpt>
      <trkpt lat="45.19354" lon="5.97521">
        <ele>2095</ele>
        <time>2023-08-12T07:49:00.000Z</time>
      </trkpt>
      <trkpt lat="45.19353" lon="5.9752">
        <ele>2094.8000488281</ele>
        <time>2023-08-12T07:49:01.000Z</time>
      </trkpt>
      <trkpt lat="45.19352" lon="5.97519">
        <ele>2094</ele>
        <time>2023-08-12T07:49:07.000Z</time>
      </trkpt>
      <trkpt lat="45.19352" lon="5.97518">
        <ele>2093.8000488281</ele>
        <time>2023-08-12T07:49:08.000Z</time>
      </trkpt>
      <trkpt lat="45.1935" lon="5.97515">
        <ele>2093</ele>
        <time>2023-08-12T07:49:14.000Z</time>
      </trkpt>
      <trkpt lat="45.1935" lon="5.97514">
        <ele>2092.6000976562</ele>
        <time>2023-08-12T07:49:15.000Z</time>
      </trkpt>
      <trkpt lat="45.19347" lon="5.97513">
        <ele>2091.8000488281</ele>
        <time>2023-08-12T07:49:21.000Z</time>
      </trkpt>
      <trkpt lat="45.19346" lon="5.97512">
        <ele>2091.8000488281</ele>
        <time>2023-08-12T07:49:22.000Z</time>
      </trkpt>
      <trkpt lat="45.19345" lon="5.97515">
        <ele>2090.8000488281</ele>
        <time>2023-08-12T07:49:28.000Z</time>
      </trkpt>
      <trkpt lat="45.19344" lon="5.97516">
        <ele>2090.6000976562</ele>
        <time>2023-08-12T07:49:29.000Z</time>
      </trkpt>
      <trkpt lat="45.19343" lon="5.97515">
        <ele>2090</ele>
        <time>2023-08-12T07:49:35.000Z</time>
      </trkpt>
      <trkpt lat="45.19343" lon="5.97515">
        <ele>2089.8000488281</ele>
        <time>2023-08-12T07:49:36.000Z</time>
      </trkpt>
      <trkpt lat="45.1934" lon="5.97513">
        <ele>2088.6000976562</ele>
        <time>2023-08-12T07:49:42.000Z</time>
      </trkpt>
      <trkpt lat="45.1934" lon="5.97506">
        <ele>2087.6000976562</ele>
        <time>2023-08-12T07:49:48.000Z</time>
      </trkpt>
      <trkpt lat="45.1934" lon="5.97504">
        <ele>2087.3999023438</ele>
        <time>2023-08-12T07:49:50.000Z</time>
      </trkpt>
      <trkpt lat="45.1934" lon="5.97497">
        <ele>2086.6000976562</ele>
        <time>2023-08-12T07:49:54.000Z</time>
      </trkpt>
      <trkpt lat="45.19341" lon="5.97496">
        <ele>2086.1999511719</ele>
        <time>2023-08-12T07:49:57.000Z</time>
      </trkpt>
      <trkpt lat="45.1934" lon="5.97493">
        <ele>2085.6000976562</ele>
        <time>2023-08-12T07:50:00.000Z</time>
      </trkpt>
      <trkpt lat="45.19337" lon="5.97485">
        <ele>2084.3999023438</ele>
        <time>2023-08-12T07:50:06.000Z</time>
      </trkpt>
      <trkpt lat="45.19334" lon="5.97481">
        <ele>2083.6000976562</ele>
        <time>2023-08-12T07:50:12.000Z</time>
      </trkpt>
      <trkpt lat="45.19334" lon="5.97472">
        <ele>2083.3999023438</ele>
        <time>2023-08-12T07:50:18.000Z</time>
      </trkpt>
      <trkpt lat="45.19334" lon="5.9747">
        <ele>2083.1999511719</ele>
        <time>2023-08-12T07:50:19.000Z</time>
      </trkpt>
      <trkpt lat="45.19339" lon="5.97467">
        <ele>2082.8000488281</ele>
        <time>2023-08-12T07:50:25.000Z</time>
      </trkpt>
      <trkpt lat="45.19339" lon="5.97468">
        <ele>2082.6000976562</ele>
        <time>2023-08-12T07:50:27.000Z</time>
      </trkpt>
      <trkpt lat="45.19339" lon="5.97466">
        <ele>2082.1999511719</ele>
        <time>2023-08-12T07:50:29.000Z</time>
      </trkpt>
      <trkpt lat="45.1934" lon="5.97464">
        <ele>2082</ele>
        <time>2023-08-12T07:50:31.000Z</time>
      </trkpt>
      <trkpt lat="45.1934" lon="5.97461">
        <ele>2081.6000976562</ele>
        <time>2023-08-12T07:50:34.000Z</time>
      </trkpt>
      <trkpt lat="45.19338" lon="5.9746">
        <ele>2081.1999511719</ele>
        <time>2023-08-12T07:50:37.000Z</time>
      </trkpt>
      <trkpt lat="45.19337" lon="5.9746">
        <ele>2080.8000488281</ele>
        <time>2023-08-12T07:50:39.000Z</time>
      </trkpt>
      <trkpt lat="45.19335" lon="5.97457">
        <ele>2080</ele>
        <time>2023-08-12T07:50:44.000Z</time>
      </trkpt>
      <trkpt lat="45.19333" lon="5.97455">
        <ele>2079.3999023438</ele>
        <time>2023-08-12T07:50:47.000Z</time>
      </trkpt>
      <trkpt lat="45.19332" lon="5.97452">
        <ele>2079</ele>
        <time>2023-08-12T07:50:50.000Z</time>
      </trkpt>
      <trkpt lat="45.19327" lon="5.97443">
        <ele>2077.8000488281</ele>
        <time>2023-08-12T07:50:57.000Z</time>
      </trkpt>
      <trkpt lat="45.19322" lon="5.97439">
        <ele>2077</ele>
        <time>2023-08-12T07:51:04.000Z</time>
      </trkpt>
      <trkpt lat="45.19321" lon="5.97439">
        <ele>2076.8000488281</ele>
        <time>2023-08-12T07:51:07.000Z</time>
      </trkpt>
      <trkpt lat="45.19318" lon="5.97437">
        <ele>2076.3999023438</ele>
        <time>2023-08-12T07:51:10.000Z</time>
      </trkpt>
      <trkpt lat="45.19313" lon="5.97432">
        <ele>2075.8000488281</ele>
        <time>2023-08-12T07:51:16.000Z</time>
      </trkpt>
      <trkpt lat="45.19313" lon="5.97431">
        <ele>2075.8000488281</ele>
        <time>2023-08-12T07:51:18.000Z</time>
      </trkpt>
      <trkpt lat="45.19307" lon="5.97425">
        <ele>2075.3999023438</ele>
        <time>2023-08-12T07:51:25.000Z</time>
      </trkpt>
      <trkpt lat="45.19301" lon="5.9742">
        <ele>2075</ele>
        <time>2023-08-12T07:51:31.000Z</time>
      </trkpt>
      <trkpt lat="45.19294" lon="5.97419">
        <ele>2074.8000488281</ele>
        <time>2023-08-12T07:51:37.000Z</time>
      </trkpt>
      <trkpt lat="45.19285" lon="5.97416">
        <ele>2073.8000488281</ele>
        <time>2023-08-12T07:51:44.000Z</time>
      </trkpt>
      <trkpt lat="45.19284" lon="5.97414">
        <ele>2073.8000488281</ele>
        <time>2023-08-12T07:51:46.000Z</time>
      </trkpt>
      <trkpt lat="45.19281" lon="5.97407">
        <ele>2072.8000488281</ele>
        <time>2023-08-12T07:51:52.000Z</time>
      </trkpt>
      <trkpt lat="45.1928" lon="5.97405">
        <ele>2072.6000976562</ele>
        <time>2023-08-12T07:51:53.000Z</time>
      </trkpt>
      <trkpt lat="45.19277" lon="5.97403">
        <ele>2071.6000976562</ele>
        <time>2023-08-12T07:51:58.000Z</time>
      </trkpt>
      <trkpt lat="45.19277" lon="5.97404">
        <ele>2071.3999023438</ele>
        <time>2023-08-12T07:51:59.000Z</time>
      </trkpt>
      <trkpt lat="45.19277" lon="5.97406">
        <ele>2070.8000488281</ele>
        <time>2023-08-12T07:52:05.000Z</time>
      </trkpt>
      <trkpt lat="45.19277" lon="5.97406">
        <ele>2071</ele>
        <time>2023-08-12T07:52:08.000Z</time>
      </trkpt>
      <trkpt lat="45.19273" lon="5.97404">
        <ele>2070.8000488281</ele>
        <time>2023-08-12T07:52:13.000Z</time>
      </trkpt>
      <trkpt lat="45.19268" lon="5.974">
        <ele>2070.1999511719</ele>
        <time>2023-08-12T07:52:17.000Z</time>
      </trkpt>
      <trkpt lat="45.19267" lon="5.97401">
        <ele>2070</ele>
        <time>2023-08-12T07:52:20.000Z</time>
      </trkpt>
      <trkpt lat="45.19264" lon="5.974">
        <ele>2069</ele>
        <time>2023-08-12T07:52:25.000Z</time>
      </trkpt>
      <trkpt lat="45.19261" lon="5.97396">
        <ele>2068.6000976562</ele>
        <time>2023-08-12T07:52:29.000Z</time>
      </trkpt>
      <trkpt lat="45.19259" lon="5.97392">
        <ele>2068</ele>
        <time>2023-08-12T07:52:32.000Z</time>
      </trkpt>
      <trkpt lat="45.19257" lon="5.97387">
        <ele>2067</ele>
        <time>2023-08-12T07:52:36.000Z</time>
      </trkpt>
      <trkpt lat="45.19256" lon="5.97386">
        <ele>2067</ele>
        <time>2023-08-12T07:52:38.000Z</time>
      </trkpt>
      <trkpt lat="45.19253" lon="5.97383">
        <ele>2066</ele>
        <time>2023-08-12T07:52:44.000Z</time>
      </trkpt>
      <trkpt lat="45.19252" lon="5.97382">
        <ele>2065.8000488281</ele>
        <time>2023-08-12T07:52:45.000Z</time>
      </trkpt>
      <trkpt lat="45.19245" lon="5.97378">
        <ele>2064.8000488281</ele>
        <time>2023-08-12T07:52:51.000Z</time>
      </trkpt>
      <trkpt lat="45.19245" lon="5.97377">
        <ele>2064.8000488281</ele>
        <time>2023-08-12T07:52:52.000Z</time>
      </trkpt>
      <trkpt lat="45.19239" lon="5.97369">
        <ele>2063.8000488281</ele>
        <time>2023-08-12T07:52:59.000Z</time>
      </trkpt>
      <trkpt lat="45.19236" lon="5.97365">
        <ele>2063.6000976562</ele>
        <time>2023-08-12T07:53:04.000Z</time>
      </trkpt>
      <trkpt lat="45.19235" lon="5.97363">
        <ele>2063.6000976562</ele>
        <time>2023-08-12T07:53:05.000Z</time>
      </trkpt>
      <trkpt lat="45.19232" lon="5.97358">
        <ele>2063.3999023438</ele>
        <time>2023-08-12T07:53:11.000Z</time>
      </trkpt>
      <trkpt lat="45.19229" lon="5.97353">
        <ele>2063</ele>
        <time>2023-08-12T07:53:17.000Z</time>
      </trkpt>
      <trkpt lat="45.19227" lon="5.97344">
        <ele>2062.6000976562</ele>
        <time>2023-08-12T07:53:24.000Z</time>
      </trkpt>
      <trkpt lat="45.19226" lon="5.97342">
        <ele>2062.3999023438</ele>
        <time>2023-08-12T07:53:26.000Z</time>
      </trkpt>
      <trkpt lat="45.19223" lon="5.97336">
        <ele>2061.3999023438</ele>
        <time>2023-08-12T07:53:32.000Z</time>
      </trkpt>
      <trkpt lat="45.19223" lon="5.97334">
        <ele>2061.1999511719</ele>
        <time>2023-08-12T07:53:33.000Z</time>
      </trkpt>
      <trkpt lat="45.19222" lon="5.9732">
        <ele>2061.3999023438</ele>
        <time>2023-08-12T07:53:41.000Z</time>
      </trkpt>
      <trkpt lat="45.19219" lon="5.97311">
        <ele>2062.1999511719</ele>
        <time>2023-08-12T07:53:48.000Z</time>
      </trkpt>
      <trkpt lat="45.19218" lon="5.97309">
        <ele>2062.3999023438</ele>
        <time>2023-08-12T07:53:51.000Z</time>
      </trkpt>
      <trkpt lat="45.19215" lon="5.97301">
        <ele>2062.6000976562</ele>
        <time>2023-08-12T07:53:57.000Z</time>
      </trkpt>
      <trkpt lat="45.19212" lon="5.97297">
        <ele>2062.1999511719</ele>
        <time>2023-08-12T07:54:04.000Z</time>
      </trkpt>
      <trkpt lat="45.19209" lon="5.97287">
        <ele>2061.3999023438</ele>
        <time>2023-08-12T07:54:11.000Z</time>
      </trkpt>
      <trkpt lat="45.19203" lon="5.97278">
        <ele>2061</ele>
        <time>2023-08-12T07:54:21.000Z</time>
      </trkpt>
      <trkpt lat="45.19196" lon="5.97271">
        <ele>2060.3999023438</ele>
        <time>2023-08-12T07:54:29.000Z</time>
      </trkpt>
      <trkpt lat="45.19196" lon="5.9727">
        <ele>2060.1999511719</ele>
        <time>2023-08-12T07:54:30.000Z</time>
      </trkpt>
      <trkpt lat="45.19189" lon="5.97263">
        <ele>2059.6000976562</ele>
        <time>2023-08-12T07:54:39.000Z</time>
      </trkpt>
      <trkpt lat="45.19185" lon="5.97259">
        <ele>2059.1999511719</ele>
        <time>2023-08-12T07:54:45.000Z</time>
      </trkpt>
      <trkpt lat="45.19184" lon="5.97258">
        <ele>2059</ele>
        <time>2023-08-12T07:54:47.000Z</time>
      </trkpt>
      <trkpt lat="45.1918" lon="5.97249">
        <ele>2058.6000976562</ele>
        <time>2023-08-12T07:54:54.000Z</time>
      </trkpt>
      <trkpt lat="45.19175" lon="5.97243">
        <ele>2058.1999511719</ele>
        <time>2023-08-12T07:55:00.000Z</time>
      </trkpt>
      <trkpt lat="45.19174" lon="5.97242">
        <ele>2058</ele>
        <time>2023-08-12T07:55:01.000Z</time>
      </trkpt>
      <trkpt lat="45.1917" lon="5.97237">
        <ele>2056.8000488281</ele>
        <time>2023-08-12T07:55:08.000Z</time>
      </trkpt>
      <trkpt lat="45.1917" lon="5.97236">
        <ele>2056.1999511719</ele>
        <time>2023-08-12T07:55:11.000Z</time>
      </trkpt>
      <trkpt lat="45.19169" lon="5.97234">
        <ele>2055.6000976562</ele>
        <time>2023-08-12T07:55:13.000Z</time>
      </trkpt>
      <trkpt lat="45.19168" lon="5.97231">
        <ele>2054.6000976562</ele>
        <time>2023-08-12T07:55:18.000Z</time>
      </trkpt>
      <trkpt lat="45.19168" lon="5.97229">
        <ele>2054.3999023438</ele>
        <time>2023-08-12T07:55:19.000Z</time>
      </trkpt>
      <trkpt lat="45.19166" lon="5.97222">
        <ele>2053.3999023438</ele>
        <time>2023-08-12T07:55:24.000Z</time>
      </trkpt>
      <trkpt lat="45.19165" lon="5.97218">
        <ele>2052.8000488281</ele>
        <time>2023-08-12T07:55:27.000Z</time>
      </trkpt>
      <trkpt lat="45.19165" lon="5.97214">
        <ele>2052.3999023438</ele>
        <time>2023-08-12T07:55:29.000Z</time>
      </trkpt>
      <trkpt lat="45.19163" lon="5.97212">
        <ele>2051.6000976562</ele>
        <time>2023-08-12T07:55:33.000Z</time>
      </trkpt>
      <trkpt lat="45.19163" lon="5.97211">
        <ele>2051.1999511719</ele>
        <time>2023-08-12T07:55:35.000Z</time>
      </trkpt>
      <trkpt lat="45.19162" lon="5.9721">
        <ele>2050.1999511719</ele>
        <time>2023-08-12T07:55:41.000Z</time>
      </trkpt>
      <trkpt lat="45.19162" lon="5.97209">
        <ele>2050</ele>
        <time>2023-08-12T07:55:42.000Z</time>
      </trkpt>
      <trkpt lat="45.19162" lon="5.97202">
        <ele>2049</ele>
        <time>2023-08-12T07:55:48.000Z</time>
      </trkpt>
      <trkpt lat="45.19162" lon="5.97198">
        <ele>2047.8000488281</ele>
        <time>2023-08-12T07:55:53.000Z</time>
      </trkpt>
      <trkpt lat="45.19161" lon="5.97195">
        <ele>2047.4000244141</ele>
        <time>2023-08-12T07:55:55.000Z</time>
      </trkpt>
      <trkpt lat="45.1916" lon="5.97191">
        <ele>2046.5999755859</ele>
        <time>2023-08-12T07:55:58.000Z</time>
      </trkpt>
      <trkpt lat="45.19157" lon="5.97188">
        <ele>2046</ele>
        <time>2023-08-12T07:56:01.000Z</time>
      </trkpt>
      <trkpt lat="45.19157" lon="5.97188">
        <ele>2045.5999755859</ele>
        <time>2023-08-12T07:56:03.000Z</time>
      </trkpt>
      <trkpt lat="45.19155" lon="5.97186">
        <ele>2045</ele>
        <time>2023-08-12T07:56:08.000Z</time>
      </trkpt>
      <trkpt lat="45.19155" lon="5.97185">
        <ele>2044.4000244141</ele>
        <time>2023-08-12T07:56:10.000Z</time>
      </trkpt>
      <trkpt lat="45.19155" lon="5.97178">
        <ele>2043.4000244141</ele>
        <time>2023-08-12T07:56:15.000Z</time>
      </trkpt>
      <trkpt lat="45.19155" lon="5.97177">
        <ele>2043.1999511719</ele>
        <time>2023-08-12T07:56:16.000Z</time>
      </trkpt>
      <trkpt lat="45.19153" lon="5.9717">
        <ele>2042.1999511719</ele>
        <time>2023-08-12T07:56:21.000Z</time>
      </trkpt>
      <trkpt lat="45.19153" lon="5.97167">
        <ele>2041.8000488281</ele>
        <time>2023-08-12T07:56:24.000Z</time>
      </trkpt>
      <trkpt lat="45.19152" lon="5.97161">
        <ele>2041</ele>
        <time>2023-08-12T07:56:28.000Z</time>
      </trkpt>
      <trkpt lat="45.19152" lon="5.97159">
        <ele>2040.5999755859</ele>
        <time>2023-08-12T07:56:32.000Z</time>
      </trkpt>
      <trkpt lat="45.19153" lon="5.97158">
        <ele>2040</ele>
        <time>2023-08-12T07:56:34.000Z</time>
      </trkpt>
      <trkpt lat="45.19154" lon="5.97153">
        <ele>2039.4000244141</ele>
        <time>2023-08-12T07:56:39.000Z</time>
      </trkpt>
      <trkpt lat="45.19155" lon="5.97151">
        <ele>2039</ele>
        <time>2023-08-12T07:56:41.000Z</time>
      </trkpt>
      <trkpt lat="45.19157" lon="5.97143">
        <ele>2038</ele>
        <time>2023-08-12T07:56:47.000Z</time>
      </trkpt>
      <trkpt lat="45.19157" lon="5.97142">
        <ele>2037.8000488281</ele>
        <time>2023-08-12T07:56:48.000Z</time>
      </trkpt>
      <trkpt lat="45.19155" lon="5.97139">
        <ele>2036.5999755859</ele>
        <time>2023-08-12T07:56:53.000Z</time>
      </trkpt>
      <trkpt lat="45.19154" lon="5.97138">
        <ele>2036.4000244141</ele>
        <time>2023-08-12T07:56:55.000Z</time>
      </trkpt>
      <trkpt lat="45.19154" lon="5.97137">
        <ele>2035.5999755859</ele>
        <time>2023-08-12T07:56:59.000Z</time>
      </trkpt>
      <trkpt lat="45.19152" lon="5.97132">
        <ele>2034.8000488281</ele>
        <time>2023-08-12T07:57:03.000Z</time>
      </trkpt>
      <trkpt lat="45.19152" lon="5.97131">
        <ele>2034.5999755859</ele>
        <time>2023-08-12T07:57:04.000Z</time>
      </trkpt>
      <trkpt lat="45.1915" lon="5.97129">
        <ele>2033.5999755859</ele>
        <time>2023-08-12T07:57:09.000Z</time>
      </trkpt>
      <trkpt lat="45.19149" lon="5.97127">
        <ele>2032.8000488281</ele>
        <time>2023-08-12T07:57:12.000Z</time>
      </trkpt>
      <trkpt lat="45.19148" lon="5.97125">
        <ele>2032.4000244141</ele>
        <time>2023-08-12T07:57:14.000Z</time>
      </trkpt>
      <trkpt lat="45.19149" lon="5.97124">
        <ele>2031.8000488281</ele>
        <time>2023-08-12T07:57:18.000Z</time>
      </trkpt>
      <trkpt lat="45.19149" lon="5.97123">
        <ele>2031.1999511719</ele>
        <time>2023-08-12T07:57:20.000Z</time>
      </trkpt>
      <trkpt lat="45.19149" lon="5.97117">
        <ele>2030.4000244141</ele>
        <time>2023-08-12T07:57:26.000Z</time>
      </trkpt>
      <trkpt lat="45.1915" lon="5.97116">
        <ele>2030.1999511719</ele>
        <time>2023-08-12T07:57:27.000Z</time>
      </trkpt>
      <trkpt lat="45.1915" lon="5.97112">
        <ele>2029.1999511719</ele>
        <time>2023-08-12T07:57:33.000Z</time>
      </trkpt>
      <trkpt lat="45.19149" lon="5.97105">
        <ele>2028.1999511719</ele>
        <time>2023-08-12T07:57:39.000Z</time>
      </trkpt>
      <trkpt lat="45.19148" lon="5.97104">
        <ele>2028</ele>
        <time>2023-08-12T07:57:40.000Z</time>
      </trkpt>
      <trkpt lat="45.19145" lon="5.97099">
        <ele>2027.1999511719</ele>
        <time>2023-08-12T07:57:47.000Z</time>
      </trkpt>
      <trkpt lat="45.19145" lon="5.97097">
        <ele>2027</ele>
        <time>2023-08-12T07:57:48.000Z</time>
      </trkpt>
      <trkpt lat="45.19144" lon="5.97093">
        <ele>2026.1999511719</ele>
        <time>2023-08-12T07:57:53.000Z</time>
      </trkpt>
      <trkpt lat="45.19143" lon="5.97092">
        <ele>2025.8000488281</ele>
        <time>2023-08-12T07:57:55.000Z</time>
      </trkpt>
      <trkpt lat="45.19143" lon="5.97088">
        <ele>2025.1999511719</ele>
        <time>2023-08-12T07:58:00.000Z</time>
      </trkpt>
      <trkpt lat="45.19142" lon="5.97084">
        <ele>2024.8000488281</ele>
        <time>2023-08-12T07:58:02.000Z</time>
      </trkpt>
      <trkpt lat="45.19142" lon="5.97078">
        <ele>2024.1999511719</ele>
        <time>2023-08-12T07:58:06.000Z</time>
      </trkpt>
      <trkpt lat="45.19142" lon="5.97074">
        <ele>2023.8000488281</ele>
        <time>2023-08-12T07:58:09.000Z</time>
      </trkpt>
      <trkpt lat="45.19143" lon="5.97067">
        <ele>2023.4000244141</ele>
        <time>2023-08-12T07:58:13.000Z</time>
      </trkpt>
      <trkpt lat="45.19147" lon="5.97059">
        <ele>2023.8000488281</ele>
        <time>2023-08-12T07:58:20.000Z</time>
      </trkpt>
      <trkpt lat="45.19157" lon="5.97053">
        <ele>2023.1999511719</ele>
        <time>2023-08-12T07:58:28.000Z</time>
      </trkpt>
      <trkpt lat="45.19161" lon="5.97048">
        <ele>2022.8000488281</ele>
        <time>2023-08-12T07:58:32.000Z</time>
      </trkpt>
      <trkpt lat="45.19162" lon="5.97046">
        <ele>2022.5999755859</ele>
        <time>2023-08-12T07:58:35.000Z</time>
      </trkpt>
      <trkpt lat="45.19166" lon="5.97035">
        <ele>2021.5999755859</ele>
        <time>2023-08-12T07:58:42.000Z</time>
      </trkpt>
      <trkpt lat="45.19167" lon="5.97032">
        <ele>2020.5999755859</ele>
        <time>2023-08-12T07:58:49.000Z</time>
      </trkpt>
      <trkpt lat="45.19165" lon="5.97033">
        <ele>2020.4000244141</ele>
        <time>2023-08-12T07:58:50.000Z</time>
      </trkpt>
      <trkpt lat="45.19165" lon="5.9703">
        <ele>2020.1999511719</ele>
        <time>2023-08-12T07:58:55.000Z</time>
      </trkpt>
      <trkpt lat="45.19168" lon="5.97029">
        <ele>2020.4000244141</ele>
        <time>2023-08-12T07:59:04.000Z</time>
      </trkpt>
      <trkpt lat="45.19171" lon="5.9703">
        <ele>2020</ele>
        <time>2023-08-12T07:59:12.000Z</time>
      </trkpt>
      <trkpt lat="45.1917" lon="5.97032">
        <ele>2019.5999755859</ele>
        <time>2023-08-12T07:59:17.000Z</time>
      </trkpt>
      <trkpt lat="45.19174" lon="5.97032">
        <ele>2019.4000244141</ele>
        <time>2023-08-12T07:59:21.000Z</time>
      </trkpt>
      <trkpt lat="45.19174" lon="5.97028">
        <ele>2018.5999755859</ele>
        <time>2023-08-12T07:59:28.000Z</time>
      </trkpt>
      <trkpt lat="45.19173" lon="5.97027">
        <ele>2018.4000244141</ele>
        <time>2023-08-12T07:59:29.000Z</time>
      </trkpt>
      <trkpt lat="45.19171" lon="5.97021">
        <ele>2017.4000244141</ele>
        <time>2023-08-12T07:59:33.000Z</time>
      </trkpt>
      <trkpt lat="45.19169" lon="5.97018">
        <ele>2016.8000488281</ele>
        <time>2023-08-12T07:59:36.000Z</time>
      </trkpt>
      <trkpt lat="45.19169" lon="5.97018">
        <ele>2016.4000244141</ele>
        <time>2023-08-12T07:59:38.000Z</time>
      </trkpt>
      <trkpt lat="45.1917" lon="5.97017">
        <ele>2015.4000244141</ele>
        <time>2023-08-12T07:59:42.000Z</time>
      </trkpt>
      <trkpt lat="45.19171" lon="5.97011">
        <ele>2014.1999511719</ele>
        <time>2023-08-12T07:59:47.000Z</time>
      </trkpt>
      <trkpt lat="45.19171" lon="5.97007">
        <ele>2013</ele>
        <time>2023-08-12T07:59:51.000Z</time>
      </trkpt>
      <trkpt lat="45.1917" lon="5.97004">
        <ele>2012.1999511719</ele>
        <time>2023-08-12T07:59:54.000Z</time>
      </trkpt>
      <trkpt lat="45.1917" lon="5.97004">
        <ele>2012</ele>
        <time>2023-08-12T07:59:55.000Z</time>
      </trkpt>
      <trkpt lat="45.19171" lon="5.97003">
        <ele>2011</ele>
        <time>2023-08-12T08:00:01.000Z</time>
      </trkpt>
      <trkpt lat="45.1917" lon="5.96997">
        <ele>2009.8000488281</ele>
        <time>2023-08-12T08:00:08.000Z</time>
      </trkpt>
      <trkpt lat="45.19169" lon="5.96996">
        <ele>2009.1999511719</ele>
        <time>2023-08-12T08:00:10.000Z</time>
      </trkpt>
      <trkpt lat="45.19168" lon="5.96994">
        <ele>2008.8000488281</ele>
        <time>2023-08-12T08:00:13.000Z</time>
      </trkpt>
      <trkpt lat="45.19168" lon="5.96994">
        <ele>2008.4000244141</ele>
        <time>2023-08-12T08:00:16.000Z</time>
      </trkpt>
      <trkpt lat="45.19169" lon="5.96992">
        <ele>2007.4000244141</ele>
        <time>2023-08-12T08:00:19.000Z</time>
      </trkpt>
      <trkpt lat="45.19169" lon="5.96989">
        <ele>2006.4000244141</ele>
        <time>2023-08-12T08:00:24.000Z</time>
      </trkpt>
      <trkpt lat="45.19169" lon="5.96988">
        <ele>2006.1999511719</ele>
        <time>2023-08-12T08:00:25.000Z</time>
      </trkpt>
      <trkpt lat="45.19168" lon="5.96982">
        <ele>2005.1999511719</ele>
        <time>2023-08-12T08:00:30.000Z</time>
      </trkpt>
      <trkpt lat="45.19167" lon="5.96978">
        <ele>2004.1999511719</ele>
        <time>2023-08-12T08:00:35.000Z</time>
      </trkpt>
      <trkpt lat="45.19167" lon="5.96978">
        <ele>2004</ele>
        <time>2023-08-12T08:00:36.000Z</time>
      </trkpt>
      <trkpt lat="45.19167" lon="5.96977">
        <ele>2002.8000488281</ele>
        <time>2023-08-12T08:00:40.000Z</time>
      </trkpt>
      <trkpt lat="45.19166" lon="5.96975">
        <ele>2002.1999511719</ele>
        <time>2023-08-12T08:00:42.000Z</time>
      </trkpt>
      <trkpt lat="45.19163" lon="5.96973">
        <ele>2001.8000488281</ele>
        <time>2023-08-12T08:00:45.000Z</time>
      </trkpt>
      <trkpt lat="45.19162" lon="5.96972">
        <ele>2001.4000244141</ele>
        <time>2023-08-12T08:00:48.000Z</time>
      </trkpt>
      <trkpt lat="45.19157" lon="5.96971">
        <ele>2001</ele>
        <time>2023-08-12T08:00:55.000Z</time>
      </trkpt>
      <trkpt lat="45.19155" lon="5.96971">
        <ele>2000.5999755859</ele>
        <time>2023-08-12T08:00:57.000Z</time>
      </trkpt>
      <trkpt lat="45.19149" lon="5.9697">
        <ele>1999.4000244141</ele>
        <time>2023-08-12T08:01:03.000Z</time>
      </trkpt>
      <trkpt lat="45.19141" lon="5.96967">
        <ele>1998.4000244141</ele>
        <time>2023-08-12T08:01:10.000Z</time>
      </trkpt>
      <trkpt lat="45.1914" lon="5.96967">
        <ele>1998.1999511719</ele>
        <time>2023-08-12T08:01:11.000Z</time>
      </trkpt>
      <trkpt lat="45.19136" lon="5.96963">
        <ele>1997.1999511719</ele>
        <time>2023-08-12T08:01:17.000Z</time>
      </trkpt>
      <trkpt lat="45.19135" lon="5.96963">
        <ele>1997.1999511719</ele>
        <time>2023-08-12T08:01:18.000Z</time>
      </trkpt>
      <trkpt lat="45.1913" lon="5.96966">
        <ele>1996</ele>
        <time>2023-08-12T08:01:24.000Z</time>
      </trkpt>
      <trkpt lat="45.19128" lon="5.9697">
        <ele>1995</ele>
        <time>2023-08-12T08:01:29.000Z</time>
      </trkpt>
      <trkpt lat="45.19126" lon="5.96973">
        <ele>1994.5999755859</ele>
        <time>2023-08-12T08:01:31.000Z</time>
      </trkpt>
      <trkpt lat="45.19123" lon="5.96977">
        <ele>1993.8000488281</ele>
        <time>2023-08-12T08:01:35.000Z</time>
      </trkpt>
      <trkpt lat="45.1912" lon="5.96982">
        <ele>1993.4000244141</ele>
        <time>2023-08-12T08:01:38.000Z</time>
      </trkpt>
      <trkpt lat="45.19118" lon="5.96986">
        <ele>1992.8000488281</ele>
        <time>2023-08-12T08:01:40.000Z</time>
      </trkpt>
      <trkpt lat="45.19116" lon="5.9699">
        <ele>1992.1999511719</ele>
        <time>2023-08-12T08:01:44.000Z</time>
      </trkpt>
      <trkpt lat="45.19113" lon="5.96996">
        <ele>1991.8000488281</ele>
        <time>2023-08-12T08:01:48.000Z</time>
      </trkpt>
      <trkpt lat="45.19109" lon="5.97001">
        <ele>1990.8000488281</ele>
        <time>2023-08-12T08:01:53.000Z</time>
      </trkpt>
      <trkpt lat="45.19108" lon="5.97002">
        <ele>1990.5999755859</ele>
        <time>2023-08-12T08:01:54.000Z</time>
      </trkpt>
      <trkpt lat="45.19104" lon="5.97">
        <ele>1990.1999511719</ele>
        <time>2023-08-12T08:01:57.000Z</time>
      </trkpt>
      <trkpt lat="45.19104" lon="5.96999">
        <ele>1990.1999511719</ele>
        <time>2023-08-12T08:01:58.000Z</time>
      </trkpt>
      <trkpt lat="45.19105" lon="5.96993">
        <ele>1989.5999755859</ele>
        <time>2023-08-12T08:02:02.000Z</time>
      </trkpt>
      <trkpt lat="45.19105" lon="5.96989">
        <ele>1989.1999511719</ele>
        <time>2023-08-12T08:02:05.000Z</time>
      </trkpt>
      <trkpt lat="45.19104" lon="5.96983">
        <ele>1988.4000244141</ele>
        <time>2023-08-12T08:02:10.000Z</time>
      </trkpt>
      <trkpt lat="45.19105" lon="5.96977">
        <ele>1988</ele>
        <time>2023-08-12T08:02:14.000Z</time>
      </trkpt>
      <trkpt lat="45.19107" lon="5.9697">
        <ele>1987.4000244141</ele>
        <time>2023-08-12T08:02:18.000Z</time>
      </trkpt>
      <trkpt lat="45.19111" lon="5.96964">
        <ele>1986.5999755859</ele>
        <time>2023-08-12T08:02:22.000Z</time>
      </trkpt>
      <trkpt lat="45.19112" lon="5.96963">
        <ele>1986.4000244141</ele>
        <time>2023-08-12T08:02:23.000Z</time>
      </trkpt>
      <trkpt lat="45.19118" lon="5.96956">
        <ele>1985.1999511719</ele>
        <time>2023-08-12T08:02:29.000Z</time>
      </trkpt>
      <trkpt lat="45.1912" lon="5.96955">
        <ele>1984.8000488281</ele>
        <time>2023-08-12T08:02:31.000Z</time>
      </trkpt>
      <trkpt lat="45.19123" lon="5.96954">
        <ele>1984.1999511719</ele>
        <time>2023-08-12T08:02:35.000Z</time>
      </trkpt>
      <trkpt lat="45.19127" lon="5.96951">
        <ele>1983.1999511719</ele>
        <time>2023-08-12T08:02:40.000Z</time>
      </trkpt>
      <trkpt lat="45.19128" lon="5.9695">
        <ele>1983.1999511719</ele>
        <time>2023-08-12T08:02:41.000Z</time>
      </trkpt>
      <trkpt lat="45.1913" lon="5.96943">
        <ele>1982.4000244141</ele>
        <time>2023-08-12T08:02:46.000Z</time>
      </trkpt>
      <trkpt lat="45.19126" lon="5.96945">
        <ele>1982</ele>
        <time>2023-08-12T08:02:50.000Z</time>
      </trkpt>
      <trkpt lat="45.19124" lon="5.96945">
        <ele>1981.8000488281</ele>
        <time>2023-08-12T08:02:52.000Z</time>
      </trkpt>
      <trkpt lat="45.19119" lon="5.96947">
        <ele>1981</ele>
        <time>2023-08-12T08:02:56.000Z</time>
      </trkpt>
      <trkpt lat="45.19116" lon="5.96948">
        <ele>1980.1999511719</ele>
        <time>2023-08-12T08:03:00.000Z</time>
      </trkpt>
      <trkpt lat="45.19113" lon="5.9695">
        <ele>1979.8000488281</ele>
        <time>2023-08-12T08:03:02.000Z</time>
      </trkpt>
      <trkpt lat="45.19108" lon="5.96951">
        <ele>1979</ele>
        <time>2023-08-12T08:03:07.000Z</time>
      </trkpt>
      <trkpt lat="45.19107" lon="5.96952">
        <ele>1978.5999755859</ele>
        <time>2023-08-12T08:03:08.000Z</time>
      </trkpt>
      <trkpt lat="45.19104" lon="5.96952">
        <ele>1977.5999755859</ele>
        <time>2023-08-12T08:03:15.000Z</time>
      </trkpt>
      <trkpt lat="45.19104" lon="5.96951">
        <ele>1977</ele>
        <time>2023-08-12T08:03:18.000Z</time>
      </trkpt>
      <trkpt lat="45.19107" lon="5.96948">
        <ele>1976.4000244141</ele>
        <time>2023-08-12T08:03:22.000Z</time>
      </trkpt>
      <trkpt lat="45.19113" lon="5.96942">
        <ele>1975.5999755859</ele>
        <time>2023-08-12T08:03:29.000Z</time>
      </trkpt>
      <trkpt lat="45.19115" lon="5.96939">
        <ele>1975.4000244141</ele>
        <time>2023-08-12T08:03:31.000Z</time>
      </trkpt>
      <trkpt lat="45.1912" lon="5.96932">
        <ele>1974.1999511719</ele>
        <time>2023-08-12T08:03:37.000Z</time>
      </trkpt>
      <trkpt lat="45.19121" lon="5.96931">
        <ele>1974</ele>
        <time>2023-08-12T08:03:38.000Z</time>
      </trkpt>
      <trkpt lat="45.19127" lon="5.96924">
        <ele>1973</ele>
        <time>2023-08-12T08:03:45.000Z</time>
      </trkpt>
      <trkpt lat="45.19128" lon="5.96923">
        <ele>1973</ele>
        <time>2023-08-12T08:03:46.000Z</time>
      </trkpt>
      <trkpt lat="45.19129" lon="5.96919">
        <ele>1972.1999511719</ele>
        <time>2023-08-12T08:03:51.000Z</time>
      </trkpt>
      <trkpt lat="45.19127" lon="5.96919">
        <ele>1972.1999511719</ele>
        <time>2023-08-12T08:03:53.000Z</time>
      </trkpt>
      <trkpt lat="45.19126" lon="5.96919">
        <ele>1972</ele>
        <time>2023-08-12T08:03:54.000Z</time>
      </trkpt>
      <trkpt lat="45.19121" lon="5.96921">
        <ele>1971.1999511719</ele>
        <time>2023-08-12T08:04:00.000Z</time>
      </trkpt>
      <trkpt lat="45.1912" lon="5.96922">
        <ele>1971</ele>
        <time>2023-08-12T08:04:01.000Z</time>
      </trkpt>
      <trkpt lat="45.19114" lon="5.96924">
        <ele>1969.8000488281</ele>
        <time>2023-08-12T08:04:07.000Z</time>
      </trkpt>
      <trkpt lat="45.19113" lon="5.96925">
        <ele>1969.5999755859</ele>
        <time>2023-08-12T08:04:08.000Z</time>
      </trkpt>
      <trkpt lat="45.19112" lon="5.96926">
        <ele>1969.4000244141</ele>
        <time>2023-08-12T08:04:10.000Z</time>
      </trkpt>
      <trkpt lat="45.19112" lon="5.96926">
        <ele>1969.4000244141</ele>
        <time>2023-08-12T08:04:13.000Z</time>
      </trkpt>
      <trkpt lat="45.19112" lon="5.96925">
        <ele>1969.1999511719</ele>
        <time>2023-08-12T08:04:15.000Z</time>
      </trkpt>
      <trkpt lat="45.19112" lon="5.96926">
        <ele>1969.1999511719</ele>
        <time>2023-08-12T08:04:16.000Z</time>
      </trkpt>
      <trkpt lat="45.19111" lon="5.96926">
        <ele>1969.1999511719</ele>
        <time>2023-08-12T08:04:17.000Z</time>
      </trkpt>
      <trkpt lat="45.19112" lon="5.96926">
        <ele>1969.1999511719</ele>
        <time>2023-08-12T08:04:25.000Z</time>
      </trkpt>
      <trkpt lat="45.1911" lon="5.96928">
        <ele>1969.1999511719</ele>
        <time>2023-08-12T08:04:32.000Z</time>
      </trkpt>
      <trkpt lat="45.19103" lon="5.96931">
        <ele>1968.5999755859</ele>
        <time>2023-08-12T08:04:36.000Z</time>
      </trkpt>
      <trkpt lat="45.19099" lon="5.96932">
        <ele>1968</ele>
        <time>2023-08-12T08:04:40.000Z</time>
      </trkpt>
      <trkpt lat="45.19097" lon="5.96933">
        <ele>1967.5999755859</ele>
        <time>2023-08-12T08:04:42.000Z</time>
      </trkpt>
      <trkpt lat="45.1909" lon="5.96934">
        <ele>1966.5999755859</ele>
        <time>2023-08-12T08:04:47.000Z</time>
      </trkpt>
      <trkpt lat="45.19089" lon="5.96934">
        <ele>1966.5999755859</ele>
        <time>2023-08-12T08:04:48.000Z</time>
      </trkpt>
      <trkpt lat="45.19089" lon="5.96934">
        <ele>1965.8000488281</ele>
        <time>2023-08-12T08:04:52.000Z</time>
      </trkpt>
      <trkpt lat="45.19091" lon="5.96934">
        <ele>1965.5999755859</ele>
        <time>2023-08-12T08:04:53.000Z</time>
      </trkpt>
      <trkpt lat="45.19092" lon="5.96933">
        <ele>1965.4000244141</ele>
        <time>2023-08-12T08:04:54.000Z</time>
      </trkpt>
      <trkpt lat="45.19099" lon="5.96931">
        <ele>1964.1999511719</ele>
        <time>2023-08-12T08:05:01.000Z</time>
      </trkpt>
      <trkpt lat="45.19102" lon="5.96927">
        <ele>1963</ele>
        <time>2023-08-12T08:05:07.000Z</time>
      </trkpt>
      <trkpt lat="45.19103" lon="5.96925">
        <ele>1962.5999755859</ele>
        <time>2023-08-12T08:05:09.000Z</time>
      </trkpt>
      <trkpt lat="45.19107" lon="5.96919">
        <ele>1962</ele>
        <time>2023-08-12T08:05:14.000Z</time>
      </trkpt>
      <trkpt lat="45.19109" lon="5.96916">
        <ele>1961.4000244141</ele>
        <time>2023-08-12T08:05:17.000Z</time>
      </trkpt>
      <trkpt lat="45.19112" lon="5.96914">
        <ele>1960.5999755859</ele>
        <time>2023-08-12T08:05:21.000Z</time>
      </trkpt>
      <trkpt lat="45.19115" lon="5.96913">
        <ele>1960.4000244141</ele>
        <time>2023-08-12T08:05:23.000Z</time>
      </trkpt>
      <trkpt lat="45.19118" lon="5.9691">
        <ele>1959.5999755859</ele>
        <time>2023-08-12T08:05:27.000Z</time>
      </trkpt>
      <trkpt lat="45.1912" lon="5.96907">
        <ele>1959.1999511719</ele>
        <time>2023-08-12T08:05:31.000Z</time>
      </trkpt>
      <trkpt lat="45.19122" lon="5.96903">
        <ele>1958.5999755859</ele>
        <time>2023-08-12T08:05:34.000Z</time>
      </trkpt>
      <trkpt lat="45.19127" lon="5.96896">
        <ele>1957.8000488281</ele>
        <time>2023-08-12T08:05:39.000Z</time>
      </trkpt>
      <trkpt lat="45.19127" lon="5.96895">
        <ele>1957.4000244141</ele>
        <time>2023-08-12T08:05:40.000Z</time>
      </trkpt>
      <trkpt lat="45.19133" lon="5.96891">
        <ele>1956.4000244141</ele>
        <time>2023-08-12T08:05:45.000Z</time>
      </trkpt>
      <trkpt lat="45.19133" lon="5.96891">
        <ele>1956.1999511719</ele>
        <time>2023-08-12T08:05:46.000Z</time>
      </trkpt>
      <trkpt lat="45.19139" lon="5.96887">
        <ele>1955.1999511719</ele>
        <time>2023-08-12T08:05:51.000Z</time>
      </trkpt>
      <trkpt lat="45.19143" lon="5.96886">
        <ele>1954.5999755859</ele>
        <time>2023-08-12T08:05:54.000Z</time>
      </trkpt>
      <trkpt lat="45.19144" lon="5.96885">
        <ele>1954.1999511719</ele>
        <time>2023-08-12T08:05:55.000Z</time>
      </trkpt>
      <trkpt lat="45.19148" lon="5.96881">
        <ele>1953.4000244141</ele>
        <time>2023-08-12T08:06:02.000Z</time>
      </trkpt>
      <trkpt lat="45.1915" lon="5.96879">
        <ele>1953.1999511719</ele>
        <time>2023-08-12T08:06:04.000Z</time>
      </trkpt>
      <trkpt lat="45.19153" lon="5.96876">
        <ele>1952.1999511719</ele>
        <time>2023-08-12T08:06:09.000Z</time>
      </trkpt>
      <trkpt lat="45.19154" lon="5.96876">
        <ele>1952</ele>
        <time>2023-08-12T08:06:10.000Z</time>
      </trkpt>
      <trkpt lat="45.1916" lon="5.96871">
        <ele>1951</ele>
        <time>2023-08-12T08:06:17.000Z</time>
      </trkpt>
      <trkpt lat="45.19167" lon="5.96864">
        <ele>1949.8000488281</ele>
        <time>2023-08-12T08:06:24.000Z</time>
      </trkpt>
      <trkpt lat="45.19168" lon="5.96863">
        <ele>1949.5999755859</ele>
        <time>2023-08-12T08:06:25.000Z</time>
      </trkpt>
      <trkpt lat="45.19174" lon="5.96859">
        <ele>1948.5999755859</ele>
        <time>2023-08-12T08:06:31.000Z</time>
      </trkpt>
      <trkpt lat="45.19178" lon="5.96857">
        <ele>1947.8000488281</ele>
        <time>2023-08-12T08:06:35.000Z</time>
      </trkpt>
      <trkpt lat="45.1918" lon="5.96856">
        <ele>1947.4000244141</ele>
        <time>2023-08-12T08:06:37.000Z</time>
      </trkpt>
      <trkpt lat="45.19184" lon="5.96855">
        <ele>1946.8000488281</ele>
        <time>2023-08-12T08:06:42.000Z</time>
      </trkpt>
      <trkpt lat="45.19189" lon="5.96856">
        <ele>1946.4000244141</ele>
        <time>2023-08-12T08:06:45.000Z</time>
      </trkpt>
      <trkpt lat="45.19193" lon="5.96856">
        <ele>1945.5999755859</ele>
        <time>2023-08-12T08:06:49.000Z</time>
      </trkpt>
      <trkpt lat="45.19206" lon="5.96853">
        <ele>1944.1999511719</ele>
        <time>2023-08-12T08:07:00.000Z</time>
      </trkpt>
      <trkpt lat="45.19214" lon="5.96851">
        <ele>1943.1999511719</ele>
        <time>2023-08-12T08:07:08.000Z</time>
      </trkpt>
      <trkpt lat="45.19221" lon="5.96847">
        <ele>1942.5999755859</ele>
        <time>2023-08-12T08:07:15.000Z</time>
      </trkpt>
      <trkpt lat="45.19223" lon="5.96845">
        <ele>1942.1999511719</ele>
        <time>2023-08-12T08:07:19.000Z</time>
      </trkpt>
      <trkpt lat="45.19221" lon="5.96843">
        <ele>1942</ele>
        <time>2023-08-12T08:07:23.000Z</time>
      </trkpt>
      <trkpt lat="45.1922" lon="5.96845">
        <ele>1941.5999755859</ele>
        <time>2023-08-12T08:07:29.000Z</time>
      </trkpt>
      <trkpt lat="45.19221" lon="5.96844">
        <ele>1941.5999755859</ele>
        <time>2023-08-12T08:07:31.000Z</time>
      </trkpt>
      <trkpt lat="45.19222" lon="5.96842">
        <ele>1941.5999755859</ele>
        <time>2023-08-12T08:07:39.000Z</time>
      </trkpt>
      <trkpt lat="45.19223" lon="5.96844">
        <ele>1942</ele>
        <time>2023-08-12T08:07:45.000Z</time>
      </trkpt>
      <trkpt lat="45.1922" lon="5.96842">
        <ele>1942.1999511719</ele>
        <time>2023-08-12T08:07:54.000Z</time>
      </trkpt>
      <trkpt lat="45.19221" lon="5.96845">
        <ele>1942.5999755859</ele>
        <time>2023-08-12T08:08:04.000Z</time>
      </trkpt>
      <trkpt lat="45.19221" lon="5.96845">
        <ele>1942.8000488281</ele>
        <time>2023-08-12T08:08:13.000Z</time>
      </trkpt>
      <trkpt lat="45.19221" lon="5.96846">
        <ele>1943</ele>
        <time>2023-08-12T08:08:21.000Z</time>
      </trkpt>
      <trkpt lat="45.19221" lon="5.96846">
        <ele>1943.1999511719</ele>
        <time>2023-08-12T08:08:22.000Z</time>
      </trkpt>
      <trkpt lat="45.19222" lon="5.96844">
        <ele>1943.5999755859</ele>
        <time>2023-08-12T08:08:30.000Z</time>
      </trkpt>
      <trkpt lat="45.19221" lon="5.96842">
        <ele>1944</ele>
        <time>2023-08-12T08:08:36.000Z</time>
      </trkpt>
      <trkpt lat="45.19218" lon="5.96843">
        <ele>1944.1999511719</ele>
        <time>2023-08-12T08:08:40.000Z</time>
      </trkpt>
      <trkpt lat="45.19218" lon="5.96844">
        <ele>1944.1999511719</ele>
        <time>2023-08-12T08:08:42.000Z</time>
      </trkpt>
      <trkpt lat="45.19218" lon="5.96845">
        <ele>1944.1999511719</ele>
        <time>2023-08-12T08:08:52.000Z</time>
      </trkpt>
      <trkpt lat="45.1922" lon="5.96843">
        <ele>1944.1999511719</ele>
        <time>2023-08-12T08:08:59.000Z</time>
      </trkpt>
      <trkpt lat="45.19226" lon="5.96842">
        <ele>1944.5999755859</ele>
        <time>2023-08-12T08:09:07.000Z</time>
      </trkpt>
      <trkpt lat="45.1923" lon="5.96836">
        <ele>1945.4000244141</ele>
        <time>2023-08-12T08:09:14.000Z</time>
      </trkpt>
      <trkpt lat="45.19232" lon="5.96827">
        <ele>1946.1999511719</ele>
        <time>2023-08-12T08:09:20.000Z</time>
      </trkpt>
      <trkpt lat="45.19233" lon="5.96822">
        <ele>1946.5999755859</ele>
        <time>2023-08-12T08:09:23.000Z</time>
      </trkpt>
      <trkpt lat="45.19233" lon="5.96817">
        <ele>1947</ele>
        <time>2023-08-12T08:09:26.000Z</time>
      </trkpt>
      <trkpt lat="45.19232" lon="5.96811">
        <ele>1947.5999755859</ele>
        <time>2023-08-12T08:09:31.000Z</time>
      </trkpt>
      <trkpt lat="45.19232" lon="5.9681">
        <ele>1947.8000488281</ele>
        <time>2023-08-12T08:09:32.000Z</time>
      </trkpt>
      <trkpt lat="45.19231" lon="5.968">
        <ele>1948.5999755859</ele>
        <time>2023-08-12T08:09:38.000Z</time>
      </trkpt>
      <trkpt lat="45.19231" lon="5.96789">
        <ele>1949.1999511719</ele>
        <time>2023-08-12T08:09:43.000Z</time>
      </trkpt>
      <trkpt lat="45.19231" lon="5.96776">
        <ele>1949.5999755859</ele>
        <time>2023-08-12T08:09:50.000Z</time>
      </trkpt>
      <trkpt lat="45.19231" lon="5.96775">
        <ele>1949.5999755859</ele>
        <time>2023-08-12T08:09:51.000Z</time>
      </trkpt>
      <trkpt lat="45.19233" lon="5.96771">
        <ele>1949.5999755859</ele>
        <time>2023-08-12T08:09:55.000Z</time>
      </trkpt>
      <trkpt lat="45.19237" lon="5.96763">
        <ele>1949.8000488281</ele>
        <time>2023-08-12T08:10:00.000Z</time>
      </trkpt>
      <trkpt lat="45.1924" lon="5.96758">
        <ele>1949.8000488281</ele>
        <time>2023-08-12T08:10:05.000Z</time>
      </trkpt>
      <trkpt lat="45.19245" lon="5.96748">
        <ele>1950.1999511719</ele>
        <time>2023-08-12T08:10:12.000Z</time>
      </trkpt>
      <trkpt lat="45.19244" lon="5.96739">
        <ele>1950.8000488281</ele>
        <time>2023-08-12T08:10:16.000Z</time>
      </trkpt>
      <trkpt lat="45.19245" lon="5.96736">
        <ele>1951</ele>
        <time>2023-08-12T08:10:18.000Z</time>
      </trkpt>
      <trkpt lat="45.19247" lon="5.96731">
        <ele>1951.4000244141</ele>
        <time>2023-08-12T08:10:22.000Z</time>
      </trkpt>
      <trkpt lat="45.19247" lon="5.96731">
        <ele>1951.8000488281</ele>
        <time>2023-08-12T08:10:24.000Z</time>
      </trkpt>
      <trkpt lat="45.19248" lon="5.96733">
        <ele>1952.1999511719</ele>
        <time>2023-08-12T08:10:27.000Z</time>
      </trkpt>
      <trkpt lat="45.19247" lon="5.96735">
        <ele>1952.1999511719</ele>
        <time>2023-08-12T08:10:29.000Z</time>
      </trkpt>
      <trkpt lat="45.19242" lon="5.96727">
        <ele>1950.4000244141</ele>
        <time>2023-08-12T08:24:30.000Z</time>
      </trkpt>
      <trkpt lat="45.19247" lon="5.96733">
        <ele>1950.1999511719</ele>
        <time>2023-08-12T08:25:00.000Z</time>
      </trkpt>
      <trkpt lat="45.19248" lon="5.96737">
        <ele>1949.8000488281</ele>
        <time>2023-08-12T08:25:06.000Z</time>
      </trkpt>
      <trkpt lat="45.19248" lon="5.96736">
        <ele>1949.5999755859</ele>
        <time>2023-08-12T08:25:07.000Z</time>
      </trkpt>
      <trkpt lat="45.19249" lon="5.96731">
        <ele>1949</ele>
        <time>2023-08-12T08:26:08.000Z</time>
      </trkpt>
      <trkpt lat="45.19249" lon="5.96732">
        <ele>1948.5999755859</ele>
        <time>2023-08-12T08:26:12.000Z</time>
      </trkpt>
      <trkpt lat="45.19249" lon="5.96734">
        <ele>1948.4000244141</ele>
        <time>2023-08-12T08:26:15.000Z</time>
      </trkpt>
      <trkpt lat="45.19245" lon="5.96744">
        <ele>1947.1999511719</ele>
        <time>2023-08-12T08:26:51.000Z</time>
      </trkpt>
      <trkpt lat="45.19243" lon="5.96751">
        <ele>1946.4000244141</ele>
        <time>2023-08-12T08:26:55.000Z</time>
      </trkpt>
      <trkpt lat="45.19242" lon="5.96758">
        <ele>1945.5999755859</ele>
        <time>2023-08-12T08:26:59.000Z</time>
      </trkpt>
      <trkpt lat="45.19241" lon="5.96761">
        <ele>1945.4000244141</ele>
        <time>2023-08-12T08:27:01.000Z</time>
      </trkpt>
      <trkpt lat="45.1924" lon="5.96767">
        <ele>1945</ele>
        <time>2023-08-12T08:27:05.000Z</time>
      </trkpt>
      <trkpt lat="45.19239" lon="5.9673">
        <ele>1946.8000488281</ele>
        <time>2023-08-12T08:28:59.000Z</time>
      </trkpt>
      <trkpt lat="45.19235" lon="5.96769">
        <ele>1944.1999511719</ele>
        <time>2023-08-12T08:32:00.000Z</time>
      </trkpt>
      <trkpt lat="45.19238" lon="5.9676">
        <ele>1944.4000244141</ele>
        <time>2023-08-12T08:34:43.000Z</time>
      </trkpt>
      <trkpt lat="45.19239" lon="5.96752">
        <ele>1944.4000244141</ele>
        <time>2023-08-12T08:34:49.000Z</time>
      </trkpt>
      <trkpt lat="45.19239" lon="5.96742">
        <ele>1944.5999755859</ele>
        <time>2023-08-12T08:34:55.000Z</time>
      </trkpt>
      <trkpt lat="45.19237" lon="5.9673">
        <ele>1944.8000488281</ele>
        <time>2023-08-12T08:35:01.000Z</time>
      </trkpt>
      <trkpt lat="45.1924" lon="5.9673">
        <ele>1945.1999511719</ele>
        <time>2023-08-12T08:35:05.000Z</time>
      </trkpt>
      <trkpt lat="45.19242" lon="5.96729">
        <ele>1945.4000244141</ele>
        <time>2023-08-12T08:35:08.000Z</time>
      </trkpt>
      <trkpt lat="45.19242" lon="5.96736">
        <ele>1945.1999511719</ele>
        <time>2023-08-12T08:35:32.000Z</time>
      </trkpt>
      <trkpt lat="45.19243" lon="5.96739">
        <ele>1944.4000244141</ele>
        <time>2023-08-12T08:35:38.000Z</time>
      </trkpt>
      <trkpt lat="45.19243" lon="5.96739">
        <ele>1944.1999511719</ele>
        <time>2023-08-12T08:35:39.000Z</time>
      </trkpt>
      <trkpt lat="45.19245" lon="5.96739">
        <ele>1943.4000244141</ele>
        <time>2023-08-12T08:35:48.000Z</time>
      </trkpt>
      <trkpt lat="45.19245" lon="5.96735">
        <ele>1943.1999511719</ele>
        <time>2023-08-12T08:36:01.000Z</time>
      </trkpt>
      <trkpt lat="45.19245" lon="5.96737">
        <ele>1942.8000488281</ele>
        <time>2023-08-12T08:36:13.000Z</time>
      </trkpt>
      <trkpt lat="45.19246" lon="5.96738">
        <ele>1942.4000244141</ele>
        <time>2023-08-12T08:36:18.000Z</time>
      </trkpt>
      <trkpt lat="45.19247" lon="5.96738">
        <ele>1942.1999511719</ele>
        <time>2023-08-12T08:36:27.000Z</time>
      </trkpt>
      <trkpt lat="45.19245" lon="5.9674">
        <ele>1941.8000488281</ele>
        <time>2023-08-12T08:37:04.000Z</time>
      </trkpt>
      <trkpt lat="45.19245" lon="5.96742">
        <ele>1941.5999755859</ele>
        <time>2023-08-12T08:37:12.000Z</time>
      </trkpt>
      <trkpt lat="45.19247" lon="5.9674">
        <ele>1941.1999511719</ele>
        <time>2023-08-12T08:37:17.000Z</time>
      </trkpt>
      <trkpt lat="45.19248" lon="5.96731">
        <ele>1941.5999755859</ele>
        <time>2023-08-12T08:37:24.000Z</time>
      </trkpt>
      <trkpt lat="45.19251" lon="5.96733">
        <ele>1941.1999511719</ele>
        <time>2023-08-12T08:37:32.000Z</time>
      </trkpt>
      <trkpt lat="45.19251" lon="5.96734">
        <ele>1941.1999511719</ele>
        <time>2023-08-12T08:37:33.000Z</time>
      </trkpt>
      <trkpt lat="45.19251" lon="5.96736">
        <ele>1940.8000488281</ele>
        <time>2023-08-12T08:38:18.000Z</time>
      </trkpt>
      <trkpt lat="45.1925" lon="5.96735">
        <ele>1940.4000244141</ele>
        <time>2023-08-12T08:38:25.000Z</time>
      </trkpt>
      <trkpt lat="45.19249" lon="5.96729">
        <ele>1940.4000244141</ele>
        <time>2023-08-12T08:39:15.000Z</time>
      </trkpt>
      <trkpt lat="45.19249" lon="5.9673">
        <ele>1940.1999511719</ele>
        <time>2023-08-12T08:39:18.000Z</time>
      </trkpt>
      <trkpt lat="45.19249" lon="5.9673">
        <ele>1939.8000488281</ele>
        <time>2023-08-12T08:39:21.000Z</time>
      </trkpt>
      <trkpt lat="45.19254" lon="5.96738">
        <ele>1921.4000244141</ele>
        <time>2023-08-12T08:39:48.000Z</time>
      </trkpt>
      <trkpt lat="45.19251" lon="5.96734">
        <ele>1921.4000244141</ele>
        <time>2023-08-12T08:40:28.000Z</time>
      </trkpt>
      <trkpt lat="45.19247" lon="5.96733">
        <ele>1921.4000244141</ele>
        <time>2023-08-12T08:40:40.000Z</time>
      </trkpt>
      <trkpt lat="45.19244" lon="5.96736">
        <ele>1921.1999511719</ele>
        <time>2023-08-12T08:40:47.000Z</time>
      </trkpt>
      <trkpt lat="45.19241" lon="5.96743">
        <ele>1920.5999755859</ele>
        <time>2023-08-12T08:40:54.000Z</time>
      </trkpt>
      <trkpt lat="45.19241" lon="5.96743">
        <ele>1920.1999511719</ele>
        <time>2023-08-12T08:40:56.000Z</time>
      </trkpt>
      <trkpt lat="45.19242" lon="5.96743">
        <ele>1920.1999511719</ele>
        <time>2023-08-12T08:41:02.000Z</time>
      </trkpt>
      <trkpt lat="45.19239" lon="5.96757">
        <ele>1920</ele>
        <time>2023-08-12T08:41:11.000Z</time>
      </trkpt>
      <trkpt lat="45.19233" lon="5.96772">
        <ele>1920.4000244141</ele>
        <time>2023-08-12T08:41:19.000Z</time>
      </trkpt>
      <trkpt lat="45.19232" lon="5.9679">
        <ele>1921</ele>
        <time>2023-08-12T08:41:29.000Z</time>
      </trkpt>
      <trkpt lat="45.19232" lon="5.96794">
        <ele>1921.4000244141</ele>
        <time>2023-08-12T08:41:31.000Z</time>
      </trkpt>
      <trkpt lat="45.19233" lon="5.96804">
        <ele>1921.5999755859</ele>
        <time>2023-08-12T08:41:37.000Z</time>
      </trkpt>
      <trkpt lat="45.19233" lon="5.96816">
        <ele>1922.4000244141</ele>
        <time>2023-08-12T08:41:45.000Z</time>
      </trkpt>
      <trkpt lat="45.19231" lon="5.96833">
        <ele>1923</ele>
        <time>2023-08-12T08:41:54.000Z</time>
      </trkpt>
      <trkpt lat="45.1923" lon="5.96836">
        <ele>1923.4000244141</ele>
        <time>2023-08-12T08:41:57.000Z</time>
      </trkpt>
      <trkpt lat="45.19227" lon="5.96841">
        <ele>1924.1999511719</ele>
        <time>2023-08-12T08:42:01.000Z</time>
      </trkpt>
      <trkpt lat="45.19222" lon="5.96846">
        <ele>1924.4000244141</ele>
        <time>2023-08-12T08:42:07.000Z</time>
      </trkpt>
      <trkpt lat="45.19221" lon="5.96846">
        <ele>1924.5999755859</ele>
        <time>2023-08-12T08:42:08.000Z</time>
      </trkpt>
      <trkpt lat="45.19218" lon="5.96845">
        <ele>1924.8000488281</ele>
        <time>2023-08-12T08:42:15.000Z</time>
      </trkpt>
      <trkpt lat="45.19217" lon="5.96846">
        <ele>1925</ele>
        <time>2023-08-12T08:42:20.000Z</time>
      </trkpt>
      <trkpt lat="45.19216" lon="5.96843">
        <ele>1925.5999755859</ele>
        <time>2023-08-12T08:42:25.000Z</time>
      </trkpt>
      <trkpt lat="45.19213" lon="5.96841">
        <ele>1926</ele>
        <time>2023-08-12T08:42:27.000Z</time>
      </trkpt>
      <trkpt lat="45.19209" lon="5.96837">
        <ele>1926.1999511719</ele>
        <time>2023-08-12T08:42:33.000Z</time>
      </trkpt>
      <trkpt lat="45.19205" lon="5.96834">
        <ele>1926.4000244141</ele>
        <time>2023-08-12T08:42:41.000Z</time>
      </trkpt>
      <trkpt lat="45.19202" lon="5.96836">
        <ele>1925.1999511719</ele>
        <time>2023-08-12T08:42:57.000Z</time>
      </trkpt>
      <trkpt lat="45.19204" lon="5.96842">
        <ele>1925.8000488281</ele>
        <time>2023-08-12T08:43:11.000Z</time>
      </trkpt>
      <trkpt lat="45.19205" lon="5.96838">
        <ele>1926.8000488281</ele>
        <time>2023-08-12T08:43:17.000Z</time>
      </trkpt>
      <trkpt lat="45.19205" lon="5.96838">
        <ele>1926.8000488281</ele>
        <time>2023-08-12T08:43:18.000Z</time>
      </trkpt>
      <trkpt lat="45.19201" lon="5.96834">
        <ele>1927.8000488281</ele>
        <time>2023-08-12T08:43:25.000Z</time>
      </trkpt>
      <trkpt lat="45.19201" lon="5.96834">
        <ele>1927.8000488281</ele>
        <time>2023-08-12T08:43:26.000Z</time>
      </trkpt>
      <trkpt lat="45.19197" lon="5.96831">
        <ele>1927</ele>
        <time>2023-08-12T08:43:34.000Z</time>
      </trkpt>
      <trkpt lat="45.19193" lon="5.96825">
        <ele>1925.5999755859</ele>
        <time>2023-08-12T08:43:42.000Z</time>
      </trkpt>
      <trkpt lat="45.19192" lon="5.96825">
        <ele>1925.5999755859</ele>
        <time>2023-08-12T08:43:43.000Z</time>
      </trkpt>
      <trkpt lat="45.19188" lon="5.96822">
        <ele>1925</ele>
        <time>2023-08-12T08:43:49.000Z</time>
      </trkpt>
      <trkpt lat="45.19187" lon="5.96822">
        <ele>1924.5999755859</ele>
        <time>2023-08-12T08:43:53.000Z</time>
      </trkpt>
      <trkpt lat="45.19186" lon="5.96821">
        <ele>1924.4000244141</ele>
        <time>2023-08-12T08:43:55.000Z</time>
      </trkpt>
      <trkpt lat="45.19186" lon="5.96821">
        <ele>1923.5999755859</ele>
        <time>2023-08-12T08:44:00.000Z</time>
      </trkpt>
      <trkpt lat="45.19187" lon="5.96821">
        <ele>1923.1999511719</ele>
        <time>2023-08-12T08:44:02.000Z</time>
      </trkpt>
      <trkpt lat="45.1919" lon="5.96818">
        <ele>1921.8000488281</ele>
        <time>2023-08-12T08:44:12.000Z</time>
      </trkpt>
      <trkpt lat="45.19192" lon="5.96814">
        <ele>1920.5999755859</ele>
        <time>2023-08-12T08:44:21.000Z</time>
      </trkpt>
      <trkpt lat="45.19195" lon="5.9681">
        <ele>1920.4000244141</ele>
        <time>2023-08-12T08:44:23.000Z</time>
      </trkpt>
      <trkpt lat="45.19194" lon="5.96809">
        <ele>1920.1999511719</ele>
        <time>2023-08-12T08:44:25.000Z</time>
      </trkpt>
      <trkpt lat="45.19194" lon="5.96809">
        <ele>1920.1999511719</ele>
        <time>2023-08-12T08:44:27.000Z</time>
      </trkpt>
      <trkpt lat="45.1919" lon="5.96806">
        <ele>1918.8000488281</ele>
        <time>2023-08-12T08:44:37.000Z</time>
      </trkpt>
      <trkpt lat="45.19189" lon="5.96806">
        <ele>1918.1999511719</ele>
        <time>2023-08-12T08:44:40.000Z</time>
      </trkpt>
      <trkpt lat="45.19178" lon="5.96801">
        <ele>1912.4000244141</ele>
        <time>2023-08-12T08:45:08.000Z</time>
      </trkpt>
      <trkpt lat="45.19181" lon="5.96803">
        <ele>1911.8000488281</ele>
        <time>2023-08-12T08:45:14.000Z</time>
      </trkpt>
      <trkpt lat="45.1918" lon="5.96802">
        <ele>1912.1999511719</ele>
        <time>2023-08-12T08:45:20.000Z</time>
      </trkpt>
      <trkpt lat="45.19172" lon="5.96793">
        <ele>1912</ele>
        <time>2023-08-12T08:45:33.000Z</time>
      </trkpt>
      <trkpt lat="45.1917" lon="5.96792">
        <ele>1911.4000244141</ele>
        <time>2023-08-12T08:45:35.000Z</time>
      </trkpt>
      <trkpt lat="45.19163" lon="5.96794">
        <ele>1909.8000488281</ele>
        <time>2023-08-12T08:45:45.000Z</time>
      </trkpt>
      <trkpt lat="45.19162" lon="5.96793">
        <ele>1909.1999511719</ele>
        <time>2023-08-12T08:45:48.000Z</time>
      </trkpt>
      <trkpt lat="45.19158" lon="5.9679">
        <ele>1908.1999511719</ele>
        <time>2023-08-12T08:45:54.000Z</time>
      </trkpt>
      <trkpt lat="45.19157" lon="5.9679">
        <ele>1908</ele>
        <time>2023-08-12T08:45:55.000Z</time>
      </trkpt>
      <trkpt lat="45.19153" lon="5.9679">
        <ele>1907</ele>
        <time>2023-08-12T08:46:00.000Z</time>
      </trkpt>
      <trkpt lat="45.19151" lon="5.96791">
        <ele>1906.4000244141</ele>
        <time>2023-08-12T08:46:03.000Z</time>
      </trkpt>
      <trkpt lat="45.19145" lon="5.96791">
        <ele>1904.8000488281</ele>
        <time>2023-08-12T08:46:14.000Z</time>
      </trkpt>
      <trkpt lat="45.1914" lon="5.9679">
        <ele>1903.8000488281</ele>
        <time>2023-08-12T08:46:19.000Z</time>
      </trkpt>
      <trkpt lat="45.19138" lon="5.96789">
        <ele>1903.4000244141</ele>
        <time>2023-08-12T08:46:22.000Z</time>
      </trkpt>
      <trkpt lat="45.19137" lon="5.96789">
        <ele>1902.5999755859</ele>
        <time>2023-08-12T08:46:25.000Z</time>
      </trkpt>
      <trkpt lat="45.19136" lon="5.9679">
        <ele>1902.5999755859</ele>
        <time>2023-08-12T08:46:26.000Z</time>
      </trkpt>
      <trkpt lat="45.19134" lon="5.9679">
        <ele>1902</ele>
        <time>2023-08-12T08:46:29.000Z</time>
      </trkpt>
      <trkpt lat="45.19134" lon="5.96788">
        <ele>1901.5999755859</ele>
        <time>2023-08-12T08:46:32.000Z</time>
      </trkpt>
      <trkpt lat="45.19135" lon="5.96786">
        <ele>1900.4000244141</ele>
        <time>2023-08-12T08:46:37.000Z</time>
      </trkpt>
      <trkpt lat="45.19133" lon="5.96784">
        <ele>1899.4000244141</ele>
        <time>2023-08-12T08:46:43.000Z</time>
      </trkpt>
      <trkpt lat="45.19131" lon="5.96783">
        <ele>1899</ele>
        <time>2023-08-12T08:46:46.000Z</time>
      </trkpt>
      <trkpt lat="45.19129" lon="5.9678">
        <ele>1898.1999511719</ele>
        <time>2023-08-12T08:46:50.000Z</time>
      </trkpt>
      <trkpt lat="45.19128" lon="5.9678">
        <ele>1898</ele>
        <time>2023-08-12T08:46:52.000Z</time>
      </trkpt>
      <trkpt lat="45.19125" lon="5.96778">
        <ele>1897.1999511719</ele>
        <time>2023-08-12T08:46:56.000Z</time>
      </trkpt>
      <trkpt lat="45.19125" lon="5.96778">
        <ele>1897</ele>
        <time>2023-08-12T08:46:57.000Z</time>
      </trkpt>
      <trkpt lat="45.19123" lon="5.96777">
        <ele>1896</ele>
        <time>2023-08-12T08:47:02.000Z</time>
      </trkpt>
      <trkpt lat="45.19121" lon="5.96777">
        <ele>1894.5999755859</ele>
        <time>2023-08-12T08:47:10.000Z</time>
      </trkpt>
      <trkpt lat="45.19118" lon="5.96778">
        <ele>1893.8000488281</ele>
        <time>2023-08-12T08:47:14.000Z</time>
      </trkpt>
      <trkpt lat="45.19114" lon="5.96777">
        <ele>1893.1999511719</ele>
        <time>2023-08-12T08:47:17.000Z</time>
      </trkpt>
      <trkpt lat="45.19113" lon="5.96778">
        <ele>1892.5999755859</ele>
        <time>2023-08-12T08:47:20.000Z</time>
      </trkpt>
      <trkpt lat="45.19111" lon="5.96778">
        <ele>1892</ele>
        <time>2023-08-12T08:47:23.000Z</time>
      </trkpt>
      <trkpt lat="45.19109" lon="5.96777">
        <ele>1891.4000244141</ele>
        <time>2023-08-12T08:47:26.000Z</time>
      </trkpt>
      <trkpt lat="45.19103" lon="5.96779">
        <ele>1890.1999511719</ele>
        <time>2023-08-12T08:47:32.000Z</time>
      </trkpt>
      <trkpt lat="45.19098" lon="5.96785">
        <ele>1890.5999755859</ele>
        <time>2023-08-12T08:47:42.000Z</time>
      </trkpt>
      <trkpt lat="45.19095" lon="5.96788">
        <ele>1890.4000244141</ele>
        <time>2023-08-12T08:47:49.000Z</time>
      </trkpt>
      <trkpt lat="45.19094" lon="5.96784">
        <ele>1890</ele>
        <time>2023-08-12T08:47:58.000Z</time>
      </trkpt>
      <trkpt lat="45.19093" lon="5.96784">
        <ele>1889.8000488281</ele>
        <time>2023-08-12T08:48:09.000Z</time>
      </trkpt>
      <trkpt lat="45.19095" lon="5.96788">
        <ele>1889.8000488281</ele>
        <time>2023-08-12T08:48:20.000Z</time>
      </trkpt>
      <trkpt lat="45.19093" lon="5.96795">
        <ele>1889.8000488281</ele>
        <time>2023-08-12T08:48:26.000Z</time>
      </trkpt>
      <trkpt lat="45.19085" lon="5.96796">
        <ele>1890</ele>
        <time>2023-08-12T08:48:36.000Z</time>
      </trkpt>
      <trkpt lat="45.19076" lon="5.96787">
        <ele>1889.1999511719</ele>
        <time>2023-08-12T08:48:41.000Z</time>
      </trkpt>
      <trkpt lat="45.19073" lon="5.96792">
        <ele>1888.1999511719</ele>
        <time>2023-08-12T08:48:46.000Z</time>
      </trkpt>
      <trkpt lat="45.19071" lon="5.96792">
        <ele>1888</ele>
        <time>2023-08-12T08:48:49.000Z</time>
      </trkpt>
      <trkpt lat="45.19068" lon="5.96792">
        <ele>1887.5999755859</ele>
        <time>2023-08-12T08:48:51.000Z</time>
      </trkpt>
      <trkpt lat="45.19065" lon="5.96792">
        <ele>1887</ele>
        <time>2023-08-12T08:48:54.000Z</time>
      </trkpt>
      <trkpt lat="45.19065" lon="5.96793">
        <ele>1886.8000488281</ele>
        <time>2023-08-12T08:48:56.000Z</time>
      </trkpt>
      <trkpt lat="45.19062" lon="5.96795">
        <ele>1886</ele>
        <time>2023-08-12T08:48:59.000Z</time>
      </trkpt>
      <trkpt lat="45.19065" lon="5.96797">
        <ele>1885.8000488281</ele>
        <time>2023-08-12T08:49:05.000Z</time>
      </trkpt>
      <trkpt lat="45.19064" lon="5.96801">
        <ele>1886</ele>
        <time>2023-08-12T08:49:16.000Z</time>
      </trkpt>
      <trkpt lat="45.19062" lon="5.96799">
        <ele>1886.1999511719</ele>
        <time>2023-08-12T08:49:25.000Z</time>
      </trkpt>
      <trkpt lat="45.19053" lon="5.96799">
        <ele>1886.4000244141</ele>
        <time>2023-08-12T08:49:46.000Z</time>
      </trkpt>
      <trkpt lat="45.19048" lon="5.96796">
        <ele>1885.8000488281</ele>
        <time>2023-08-12T08:49:53.000Z</time>
      </trkpt>
      <trkpt lat="45.19045" lon="5.96789">
        <ele>1884.8000488281</ele>
        <time>2023-08-12T08:50:01.000Z</time>
      </trkpt>
      <trkpt lat="45.19045" lon="5.96789">
        <ele>1884.5999755859</ele>
        <time>2023-08-12T08:50:02.000Z</time>
      </trkpt>
      <trkpt lat="45.19045" lon="5.96787">
        <ele>1882.5999755859</ele>
        <time>2023-08-12T08:50:13.000Z</time>
      </trkpt>
      <trkpt lat="45.19045" lon="5.96787">
        <ele>1882.5999755859</ele>
        <time>2023-08-12T08:50:14.000Z</time>
      </trkpt>
      <trkpt lat="45.19046" lon="5.96785">
        <ele>1881.5999755859</ele>
        <time>2023-08-12T08:50:18.000Z</time>
      </trkpt>
      <trkpt lat="45.19047" lon="5.96782">
        <ele>1880.5999755859</ele>
        <time>2023-08-12T08:50:25.000Z</time>
      </trkpt>
      <trkpt lat="45.19047" lon="5.96779">
        <ele>1880.4000244141</ele>
        <time>2023-08-12T08:50:26.000Z</time>
      </trkpt>
      <trkpt lat="45.19048" lon="5.96773">
        <ele>1879.4000244141</ele>
        <time>2023-08-12T08:50:31.000Z</time>
      </trkpt>
      <trkpt lat="45.19049" lon="5.96771">
        <ele>1878.4000244141</ele>
        <time>2023-08-12T08:50:37.000Z</time>
      </trkpt>
      <trkpt lat="45.19048" lon="5.96771">
        <ele>1878.1999511719</ele>
        <time>2023-08-12T08:50:38.000Z</time>
      </trkpt>
      <trkpt lat="45.19045" lon="5.9677">
        <ele>1877.1999511719</ele>
        <time>2023-08-12T08:50:45.000Z</time>
      </trkpt>
      <trkpt lat="45.19044" lon="5.9677">
        <ele>1877.1999511719</ele>
        <time>2023-08-12T08:50:46.000Z</time>
      </trkpt>
      <trkpt lat="45.19044" lon="5.96766">
        <ele>1876</ele>
        <time>2023-08-12T08:50:54.000Z</time>
      </trkpt>
      <trkpt lat="45.19044" lon="5.96765">
        <ele>1876</ele>
        <time>2023-08-12T08:50:55.000Z</time>
      </trkpt>
      <trkpt lat="45.19046" lon="5.96761">
        <ele>1875</ele>
        <time>2023-08-12T08:51:00.000Z</time>
      </trkpt>
      <trkpt lat="45.19047" lon="5.9676">
        <ele>1874.5999755859</ele>
        <time>2023-08-12T08:51:03.000Z</time>
      </trkpt>
      <trkpt lat="45.19046" lon="5.96759">
        <ele>1874</ele>
        <time>2023-08-12T08:51:07.000Z</time>
      </trkpt>
      <trkpt lat="45.19044" lon="5.96755">
        <ele>1873.4000244141</ele>
        <time>2023-08-12T08:51:10.000Z</time>
      </trkpt>
      <trkpt lat="45.19044" lon="5.96754">
        <ele>1872.8000488281</ele>
        <time>2023-08-12T08:51:13.000Z</time>
      </trkpt>
      <trkpt lat="45.19044" lon="5.96753">
        <ele>1872.1999511719</ele>
        <time>2023-08-12T08:51:17.000Z</time>
      </trkpt>
      <trkpt lat="45.19046" lon="5.9675">
        <ele>1871.8000488281</ele>
        <time>2023-08-12T08:51:20.000Z</time>
      </trkpt>
      <trkpt lat="45.19048" lon="5.96746">
        <ele>1870.8000488281</ele>
        <time>2023-08-12T08:51:27.000Z</time>
      </trkpt>
      <trkpt lat="45.19048" lon="5.96745">
        <ele>1870.4000244141</ele>
        <time>2023-08-12T08:51:29.000Z</time>
      </trkpt>
      <trkpt lat="45.19047" lon="5.96744">
        <ele>1869.5999755859</ele>
        <time>2023-08-12T08:51:33.000Z</time>
      </trkpt>
      <trkpt lat="45.19046" lon="5.96744">
        <ele>1869</ele>
        <time>2023-08-12T08:51:36.000Z</time>
      </trkpt>
      <trkpt lat="45.19046" lon="5.96743">
        <ele>1868.5999755859</ele>
        <time>2023-08-12T08:51:39.000Z</time>
      </trkpt>
      <trkpt lat="45.19045" lon="5.96741">
        <ele>1867.5999755859</ele>
        <time>2023-08-12T08:51:44.000Z</time>
      </trkpt>
      <trkpt lat="45.19045" lon="5.96742">
        <ele>1867</ele>
        <time>2023-08-12T08:51:47.000Z</time>
      </trkpt>
      <trkpt lat="45.19045" lon="5.96741">
        <ele>1866.4000244141</ele>
        <time>2023-08-12T08:51:51.000Z</time>
      </trkpt>
      <trkpt lat="45.19045" lon="5.96738">
        <ele>1866.4000244141</ele>
        <time>2023-08-12T08:51:58.000Z</time>
      </trkpt>
      <trkpt lat="45.19043" lon="5.9674">
        <ele>1866.1999511719</ele>
        <time>2023-08-12T08:52:09.000Z</time>
      </trkpt>
      <trkpt lat="45.19044" lon="5.96737">
        <ele>1866</ele>
        <time>2023-08-12T08:52:17.000Z</time>
      </trkpt>
      <trkpt lat="45.19043" lon="5.96735">
        <ele>1865.8000488281</ele>
        <time>2023-08-12T08:52:24.000Z</time>
      </trkpt>
      <trkpt lat="45.19043" lon="5.9673">
        <ele>1865.4000244141</ele>
        <time>2023-08-12T08:52:27.000Z</time>
      </trkpt>
      <trkpt lat="45.19042" lon="5.96724">
        <ele>1864.1999511719</ele>
        <time>2023-08-12T08:52:33.000Z</time>
      </trkpt>
      <trkpt lat="45.19042" lon="5.96724">
        <ele>1864</ele>
        <time>2023-08-12T08:52:34.000Z</time>
      </trkpt>
      <trkpt lat="45.19041" lon="5.96723">
        <ele>1863.1999511719</ele>
        <time>2023-08-12T08:52:37.000Z</time>
      </trkpt>
      <trkpt lat="45.19042" lon="5.96723">
        <ele>1862.1999511719</ele>
        <time>2023-08-12T08:52:42.000Z</time>
      </trkpt>
      <trkpt lat="45.19042" lon="5.96724">
        <ele>1862</ele>
        <time>2023-08-12T08:52:43.000Z</time>
      </trkpt>
      <trkpt lat="45.19042" lon="5.96724">
        <ele>1861.8000488281</ele>
        <time>2023-08-12T08:52:44.000Z</time>
      </trkpt>
      <trkpt lat="45.19043" lon="5.96724">
        <ele>1861.1999511719</ele>
        <time>2023-08-12T08:52:47.000Z</time>
      </trkpt>
      <trkpt lat="45.19044" lon="5.96725">
        <ele>1861</ele>
        <time>2023-08-12T08:52:48.000Z</time>
      </trkpt>
      <trkpt lat="45.19047" lon="5.96725">
        <ele>1860.5999755859</ele>
        <time>2023-08-12T08:52:51.000Z</time>
      </trkpt>
      <trkpt lat="45.19051" lon="5.96723">
        <ele>1859.8000488281</ele>
        <time>2023-08-12T08:52:54.000Z</time>
      </trkpt>
      <trkpt lat="45.1905" lon="5.96721">
        <ele>1859.1999511719</ele>
        <time>2023-08-12T08:52:57.000Z</time>
      </trkpt>
      <trkpt lat="45.19049" lon="5.96718">
        <ele>1858.5999755859</ele>
        <time>2023-08-12T08:53:00.000Z</time>
      </trkpt>
      <trkpt lat="45.19046" lon="5.96715">
        <ele>1857.4000244141</ele>
        <time>2023-08-12T08:53:04.000Z</time>
      </trkpt>
      <trkpt lat="45.19043" lon="5.96709">
        <ele>1856.4000244141</ele>
        <time>2023-08-12T08:53:09.000Z</time>
      </trkpt>
      <trkpt lat="45.19041" lon="5.96705">
        <ele>1855.4000244141</ele>
        <time>2023-08-12T08:53:12.000Z</time>
      </trkpt>
      <trkpt lat="45.1904" lon="5.96704">
        <ele>1855.1999511719</ele>
        <time>2023-08-12T08:53:13.000Z</time>
      </trkpt>
      <trkpt lat="45.19037" lon="5.96702">
        <ele>1854</ele>
        <time>2023-08-12T08:53:18.000Z</time>
      </trkpt>
      <trkpt lat="45.19035" lon="5.967">
        <ele>1853</ele>
        <time>2023-08-12T08:53:23.000Z</time>
      </trkpt>
      <trkpt lat="45.19034" lon="5.96699">
        <ele>1852</ele>
        <time>2023-08-12T08:53:28.000Z</time>
      </trkpt>
      <trkpt lat="45.19032" lon="5.96695">
        <ele>1850.8000488281</ele>
        <time>2023-08-12T08:53:33.000Z</time>
      </trkpt>
      <trkpt lat="45.19032" lon="5.96695">
        <ele>1850.5999755859</ele>
        <time>2023-08-12T08:53:34.000Z</time>
      </trkpt>
      <trkpt lat="45.19031" lon="5.96693">
        <ele>1849.5999755859</ele>
        <time>2023-08-12T08:53:38.000Z</time>
      </trkpt>
      <trkpt lat="45.1903" lon="5.96693">
        <ele>1848.4000244141</ele>
        <time>2023-08-12T08:53:43.000Z</time>
      </trkpt>
      <trkpt lat="45.1903" lon="5.96693">
        <ele>1848</ele>
        <time>2023-08-12T08:53:44.000Z</time>
      </trkpt>
      <trkpt lat="45.19029" lon="5.96692">
        <ele>1847.1999511719</ele>
        <time>2023-08-12T08:53:48.000Z</time>
      </trkpt>
      <trkpt lat="45.19029" lon="5.96692">
        <ele>1846.4000244141</ele>
        <time>2023-08-12T08:53:52.000Z</time>
      </trkpt>
      <trkpt lat="45.1903" lon="5.96691">
        <ele>1846.1999511719</ele>
        <time>2023-08-12T08:53:53.000Z</time>
      </trkpt>
      <trkpt lat="45.19028" lon="5.96686">
        <ele>1845.4000244141</ele>
        <time>2023-08-12T08:53:58.000Z</time>
      </trkpt>
      <trkpt lat="45.19027" lon="5.96684">
        <ele>1845</ele>
        <time>2023-08-12T08:54:00.000Z</time>
      </trkpt>
      <trkpt lat="45.19027" lon="5.96683">
        <ele>1844</ele>
        <time>2023-08-12T08:54:05.000Z</time>
      </trkpt>
      <trkpt lat="45.19027" lon="5.96681">
        <ele>1843.5999755859</ele>
        <time>2023-08-12T08:54:07.000Z</time>
      </trkpt>
      <trkpt lat="45.19026" lon="5.96677">
        <ele>1843</ele>
        <time>2023-08-12T08:54:10.000Z</time>
      </trkpt>
      <trkpt lat="45.19025" lon="5.96672">
        <ele>1841.4000244141</ele>
        <time>2023-08-12T08:54:17.000Z</time>
      </trkpt>
      <trkpt lat="45.19024" lon="5.9667">
        <ele>1840.5999755859</ele>
        <time>2023-08-12T08:54:22.000Z</time>
      </trkpt>
      <trkpt lat="45.19022" lon="5.96667">
        <ele>1840</ele>
        <time>2023-08-12T08:54:25.000Z</time>
      </trkpt>
      <trkpt lat="45.19021" lon="5.96665">
        <ele>1839.4000244141</ele>
        <time>2023-08-12T08:54:28.000Z</time>
      </trkpt>
      <trkpt lat="45.19019" lon="5.96664">
        <ele>1838.4000244141</ele>
        <time>2023-08-12T08:54:33.000Z</time>
      </trkpt>
      <trkpt lat="45.1902" lon="5.96666">
        <ele>1837.1999511719</ele>
        <time>2023-08-12T08:54:39.000Z</time>
      </trkpt>
      <trkpt lat="45.1902" lon="5.96666">
        <ele>1837</ele>
        <time>2023-08-12T08:54:40.000Z</time>
      </trkpt>
      <trkpt lat="45.19022" lon="5.96667">
        <ele>1836.1999511719</ele>
        <time>2023-08-12T08:54:45.000Z</time>
      </trkpt>
      <trkpt lat="45.19024" lon="5.96667">
        <ele>1835.5999755859</ele>
        <time>2023-08-12T08:54:48.000Z</time>
      </trkpt>
      <trkpt lat="45.19027" lon="5.96666">
        <ele>1835.1999511719</ele>
        <time>2023-08-12T08:54:51.000Z</time>
      </trkpt>
      <trkpt lat="45.19028" lon="5.9666">
        <ele>1834</ele>
        <time>2023-08-12T08:54:59.000Z</time>
      </trkpt>
      <trkpt lat="45.19025" lon="5.96656">
        <ele>1833</ele>
        <time>2023-08-12T08:55:04.000Z</time>
      </trkpt>
      <trkpt lat="45.19023" lon="5.96657">
        <ele>1832.5999755859</ele>
        <time>2023-08-12T08:55:06.000Z</time>
      </trkpt>
      <trkpt lat="45.19021" lon="5.96654">
        <ele>1831.8000488281</ele>
        <time>2023-08-12T08:55:09.000Z</time>
      </trkpt>
      <trkpt lat="45.19021" lon="5.96648">
        <ele>1830.5999755859</ele>
        <time>2023-08-12T08:55:15.000Z</time>
      </trkpt>
      <trkpt lat="45.19021" lon="5.96649">
        <ele>1829.4000244141</ele>
        <time>2023-08-12T08:55:21.000Z</time>
      </trkpt>
      <trkpt lat="45.1902" lon="5.96646">
        <ele>1828.4000244141</ele>
        <time>2023-08-12T08:55:26.000Z</time>
      </trkpt>
      <trkpt lat="45.1902" lon="5.96644">
        <ele>1827.8000488281</ele>
        <time>2023-08-12T08:55:28.000Z</time>
      </trkpt>
      <trkpt lat="45.19019" lon="5.96642">
        <ele>1827.1999511719</ele>
        <time>2023-08-12T08:55:31.000Z</time>
      </trkpt>
      <trkpt lat="45.19016" lon="5.96638">
        <ele>1826</ele>
        <time>2023-08-12T08:55:37.000Z</time>
      </trkpt>
      <trkpt lat="45.19015" lon="5.96638">
        <ele>1826</ele>
        <time>2023-08-12T08:55:38.000Z</time>
      </trkpt>
      <trkpt lat="45.19014" lon="5.96638">
        <ele>1824.8000488281</ele>
        <time>2023-08-12T08:55:44.000Z</time>
      </trkpt>
      <trkpt lat="45.19014" lon="5.96638">
        <ele>1824.8000488281</ele>
        <time>2023-08-12T08:55:45.000Z</time>
      </trkpt>
      <trkpt lat="45.19013" lon="5.96637">
        <ele>1823.8000488281</ele>
        <time>2023-08-12T08:55:51.000Z</time>
      </trkpt>
      <trkpt lat="45.1901" lon="5.96633">
        <ele>1822.8000488281</ele>
        <time>2023-08-12T08:55:57.000Z</time>
      </trkpt>
      <trkpt lat="45.19008" lon="5.96633">
        <ele>1821.8000488281</ele>
        <time>2023-08-12T08:56:02.000Z</time>
      </trkpt>
      <trkpt lat="45.19008" lon="5.96633">
        <ele>1821.5999755859</ele>
        <time>2023-08-12T08:56:03.000Z</time>
      </trkpt>
      <trkpt lat="45.1901" lon="5.96634">
        <ele>1821.4000244141</ele>
        <time>2023-08-12T08:56:09.000Z</time>
      </trkpt>
      <trkpt lat="45.19009" lon="5.9663">
        <ele>1821</ele>
        <time>2023-08-12T08:56:17.000Z</time>
      </trkpt>
      <trkpt lat="45.19008" lon="5.96627">
        <ele>1820.5999755859</ele>
        <time>2023-08-12T08:56:20.000Z</time>
      </trkpt>
      <trkpt lat="45.19007" lon="5.96624">
        <ele>1820</ele>
        <time>2023-08-12T08:56:23.000Z</time>
      </trkpt>
      <trkpt lat="45.19006" lon="5.96621">
        <ele>1819.1999511719</ele>
        <time>2023-08-12T08:56:26.000Z</time>
      </trkpt>
      <trkpt lat="45.19005" lon="5.96619">
        <ele>1818.8000488281</ele>
        <time>2023-08-12T08:56:29.000Z</time>
      </trkpt>
      <trkpt lat="45.19005" lon="5.96618">
        <ele>1818.1999511719</ele>
        <time>2023-08-12T08:56:32.000Z</time>
      </trkpt>
      <trkpt lat="45.19004" lon="5.96618">
        <ele>1817.1999511719</ele>
        <time>2023-08-12T08:56:36.000Z</time>
      </trkpt>
      <trkpt lat="45.19004" lon="5.96617">
        <ele>1817.1999511719</ele>
        <time>2023-08-12T08:56:37.000Z</time>
      </trkpt>
      <trkpt lat="45.19001" lon="5.96614">
        <ele>1816.1999511719</ele>
        <time>2023-08-12T08:56:43.000Z</time>
      </trkpt>
      <trkpt lat="45.19001" lon="5.96613">
        <ele>1816</ele>
        <time>2023-08-12T08:56:44.000Z</time>
      </trkpt>
      <trkpt lat="45.18999" lon="5.96611">
        <ele>1815</ele>
        <time>2023-08-12T08:56:49.000Z</time>
      </trkpt>
      <trkpt lat="45.18998" lon="5.96611">
        <ele>1814.5999755859</ele>
        <time>2023-08-12T08:56:51.000Z</time>
      </trkpt>
      <trkpt lat="45.18997" lon="5.96612">
        <ele>1813.8000488281</ele>
        <time>2023-08-12T08:56:56.000Z</time>
      </trkpt>
      <trkpt lat="45.18997" lon="5.96612">
        <ele>1813.1999511719</ele>
        <time>2023-08-12T08:57:00.000Z</time>
      </trkpt>
      <trkpt lat="45.18999" lon="5.96612">
        <ele>1812.5999755859</ele>
        <time>2023-08-12T08:57:03.000Z</time>
      </trkpt>
      <trkpt lat="45.18998" lon="5.96609">
        <ele>1811.5999755859</ele>
        <time>2023-08-12T08:57:09.000Z</time>
      </trkpt>
      <trkpt lat="45.18998" lon="5.96608">
        <ele>1810.5999755859</ele>
        <time>2023-08-12T08:57:16.000Z</time>
      </trkpt>
      <trkpt lat="45.18998" lon="5.96609">
        <ele>1810.5999755859</ele>
        <time>2023-08-12T08:57:18.000Z</time>
      </trkpt>
      <trkpt lat="45.18995" lon="5.96607">
        <ele>1810.1999511719</ele>
        <time>2023-08-12T08:57:23.000Z</time>
      </trkpt>
      <trkpt lat="45.18994" lon="5.96601">
        <ele>1809.4000244141</ele>
        <time>2023-08-12T08:57:30.000Z</time>
      </trkpt>
      <trkpt lat="45.18994" lon="5.96601">
        <ele>1809.1999511719</ele>
        <time>2023-08-12T08:57:31.000Z</time>
      </trkpt>
      <trkpt lat="45.18993" lon="5.966">
        <ele>1808.1999511719</ele>
        <time>2023-08-12T08:57:35.000Z</time>
      </trkpt>
      <trkpt lat="45.18993" lon="5.96599">
        <ele>1807.8000488281</ele>
        <time>2023-08-12T08:57:37.000Z</time>
      </trkpt>
      <trkpt lat="45.18991" lon="5.96597">
        <ele>1807.1999511719</ele>
        <time>2023-08-12T08:57:42.000Z</time>
      </trkpt>
      <trkpt lat="45.1899" lon="5.96597">
        <ele>1806.8000488281</ele>
        <time>2023-08-12T08:57:45.000Z</time>
      </trkpt>
      <trkpt lat="45.18987" lon="5.96593">
        <ele>1806.1999511719</ele>
        <time>2023-08-12T08:57:49.000Z</time>
      </trkpt>
      <trkpt lat="45.18986" lon="5.96593">
        <ele>1805.8000488281</ele>
        <time>2023-08-12T08:57:51.000Z</time>
      </trkpt>
      <trkpt lat="45.18985" lon="5.96592">
        <ele>1805</ele>
        <time>2023-08-12T08:57:54.000Z</time>
      </trkpt>
      <trkpt lat="45.18985" lon="5.96589">
        <ele>1804.4000244141</ele>
        <time>2023-08-12T08:57:58.000Z</time>
      </trkpt>
      <trkpt lat="45.18985" lon="5.96588">
        <ele>1804</ele>
        <time>2023-08-12T08:58:00.000Z</time>
      </trkpt>
      <trkpt lat="45.18985" lon="5.96586">
        <ele>1803</ele>
        <time>2023-08-12T08:58:04.000Z</time>
      </trkpt>
      <trkpt lat="45.18984" lon="5.96585">
        <ele>1802.8000488281</ele>
        <time>2023-08-12T08:58:05.000Z</time>
      </trkpt>
      <trkpt lat="45.1898" lon="5.96581">
        <ele>1801.8000488281</ele>
        <time>2023-08-12T08:58:12.000Z</time>
      </trkpt>
      <trkpt lat="45.18977" lon="5.96578">
        <ele>1800.8000488281</ele>
        <time>2023-08-12T08:58:17.000Z</time>
      </trkpt>
      <trkpt lat="45.18976" lon="5.96578">
        <ele>1800.5999755859</ele>
        <time>2023-08-12T08:58:18.000Z</time>
      </trkpt>
      <trkpt lat="45.18975" lon="5.96577">
        <ele>1799.8000488281</ele>
        <time>2023-08-12T08:58:23.000Z</time>
      </trkpt>
      <trkpt lat="45.18973" lon="5.96577">
        <ele>1799</ele>
        <time>2023-08-12T08:58:29.000Z</time>
      </trkpt>
      <trkpt lat="45.18973" lon="5.96577">
        <ele>1798.5999755859</ele>
        <time>2023-08-12T08:58:31.000Z</time>
      </trkpt>
      <trkpt lat="45.18973" lon="5.96575">
        <ele>1797.5999755859</ele>
        <time>2023-08-12T08:58:37.000Z</time>
      </trkpt>
      <trkpt lat="45.18973" lon="5.96574">
        <ele>1797.4000244141</ele>
        <time>2023-08-12T08:58:38.000Z</time>
      </trkpt>
      <trkpt lat="45.18971" lon="5.96571">
        <ele>1796.4000244141</ele>
        <time>2023-08-12T08:58:44.000Z</time>
      </trkpt>
      <trkpt lat="45.18971" lon="5.96571">
        <ele>1796.1999511719</ele>
        <time>2023-08-12T08:58:45.000Z</time>
      </trkpt>
      <trkpt lat="45.18969" lon="5.96568">
        <ele>1795.1999511719</ele>
        <time>2023-08-12T08:58:50.000Z</time>
      </trkpt>
      <trkpt lat="45.18969" lon="5.96567">
        <ele>1794.8000488281</ele>
        <time>2023-08-12T08:58:52.000Z</time>
      </trkpt>
      <trkpt lat="45.18967" lon="5.96564">
        <ele>1794.1999511719</ele>
        <time>2023-08-12T08:58:56.000Z</time>
      </trkpt>
      <trkpt lat="45.18966" lon="5.9656">
        <ele>1793.4000244141</ele>
        <time>2023-08-12T08:59:00.000Z</time>
      </trkpt>
      <trkpt lat="45.18965" lon="5.96558">
        <ele>1793</ele>
        <time>2023-08-12T08:59:02.000Z</time>
      </trkpt>
      <trkpt lat="45.18964" lon="5.96554">
        <ele>1792</ele>
        <time>2023-08-12T08:59:08.000Z</time>
      </trkpt>
      <trkpt lat="45.1896" lon="5.9655">
        <ele>1790.8000488281</ele>
        <time>2023-08-12T08:59:14.000Z</time>
      </trkpt>
      <trkpt lat="45.18959" lon="5.96549">
        <ele>1790.5999755859</ele>
        <time>2023-08-12T08:59:16.000Z</time>
      </trkpt>
      <trkpt lat="45.18958" lon="5.96549">
        <ele>1789.8000488281</ele>
        <time>2023-08-12T08:59:20.000Z</time>
      </trkpt>
      <trkpt lat="45.18959" lon="5.96549">
        <ele>1789.4000244141</ele>
        <time>2023-08-12T08:59:22.000Z</time>
      </trkpt>
      <trkpt lat="45.1896" lon="5.96549">
        <ele>1789</ele>
        <time>2023-08-12T08:59:24.000Z</time>
      </trkpt>
      <trkpt lat="45.1896" lon="5.96548">
        <ele>1789</ele>
        <time>2023-08-12T08:59:25.000Z</time>
      </trkpt>
      <trkpt lat="45.18961" lon="5.96548">
        <ele>1788.5999755859</ele>
        <time>2023-08-12T08:59:27.000Z</time>
      </trkpt>
      <trkpt lat="45.1896" lon="5.96548">
        <ele>1788</ele>
        <time>2023-08-12T08:59:30.000Z</time>
      </trkpt>
      <trkpt lat="45.18961" lon="5.96548">
        <ele>1787.4000244141</ele>
        <time>2023-08-12T08:59:33.000Z</time>
      </trkpt>
      <trkpt lat="45.18965" lon="5.96548">
        <ele>1786.4000244141</ele>
        <time>2023-08-12T08:59:40.000Z</time>
      </trkpt>
      <trkpt lat="45.1897" lon="5.96549">
        <ele>1785</ele>
        <time>2023-08-12T08:59:47.000Z</time>
      </trkpt>
      <trkpt lat="45.18971" lon="5.96548">
        <ele>1784.4000244141</ele>
        <time>2023-08-12T08:59:50.000Z</time>
      </trkpt>
      <trkpt lat="45.18972" lon="5.96548">
        <ele>1784.1999511719</ele>
        <time>2023-08-12T08:59:51.000Z</time>
      </trkpt>
      <trkpt lat="45.18974" lon="5.96547">
        <ele>1783.1999511719</ele>
        <time>2023-08-12T08:59:57.000Z</time>
      </trkpt>
      <trkpt lat="45.18975" lon="5.96546">
        <ele>1782.8000488281</ele>
        <time>2023-08-12T08:59:58.000Z</time>
      </trkpt>
      <trkpt lat="45.18977" lon="5.96546">
        <ele>1782</ele>
        <time>2023-08-12T09:00:02.000Z</time>
      </trkpt>
      <trkpt lat="45.18979" lon="5.96547">
        <ele>1781.1999511719</ele>
        <time>2023-08-12T09:00:06.000Z</time>
      </trkpt>
      <trkpt lat="45.18981" lon="5.96547">
        <ele>1780.8000488281</ele>
        <time>2023-08-12T09:00:08.000Z</time>
      </trkpt>
      <trkpt lat="45.18987" lon="5.9655">
        <ele>1779.5999755859</ele>
        <time>2023-08-12T09:00:18.000Z</time>
      </trkpt>
      <trkpt lat="45.18992" lon="5.9655">
        <ele>1778.8000488281</ele>
        <time>2023-08-12T09:00:24.000Z</time>
      </trkpt>
      <trkpt lat="45.18992" lon="5.96546">
        <ele>1777.5999755859</ele>
        <time>2023-08-12T09:00:29.000Z</time>
      </trkpt>
      <trkpt lat="45.18995" lon="5.96546">
        <ele>1776.5999755859</ele>
        <time>2023-08-12T09:00:33.000Z</time>
      </trkpt>
      <trkpt lat="45.18997" lon="5.96548">
        <ele>1776.5999755859</ele>
        <time>2023-08-12T09:00:34.000Z</time>
      </trkpt>
      <trkpt lat="45.18998" lon="5.9655">
        <ele>1775.5999755859</ele>
        <time>2023-08-12T09:00:39.000Z</time>
      </trkpt>
      <trkpt lat="45.18998" lon="5.9655">
        <ele>1775.5999755859</ele>
        <time>2023-08-12T09:00:42.000Z</time>
      </trkpt>
      <trkpt lat="45.19004" lon="5.96553">
        <ele>1775.4000244141</ele>
        <time>2023-08-12T09:00:50.000Z</time>
      </trkpt>
      <trkpt lat="45.19003" lon="5.9655">
        <ele>1775</ele>
        <time>2023-08-12T09:00:52.000Z</time>
      </trkpt>
      <trkpt lat="45.19003" lon="5.96545">
        <ele>1774.4000244141</ele>
        <time>2023-08-12T09:00:56.000Z</time>
      </trkpt>
      <trkpt lat="45.19003" lon="5.96543">
        <ele>1773.8000488281</ele>
        <time>2023-08-12T09:00:59.000Z</time>
      </trkpt>
      <trkpt lat="45.19003" lon="5.96541">
        <ele>1773.4000244141</ele>
        <time>2023-08-12T09:01:01.000Z</time>
      </trkpt>
      <trkpt lat="45.19004" lon="5.96538">
        <ele>1772.4000244141</ele>
        <time>2023-08-12T09:01:06.000Z</time>
      </trkpt>
      <trkpt lat="45.19005" lon="5.96538">
        <ele>1771.8000488281</ele>
        <time>2023-08-12T09:01:09.000Z</time>
      </trkpt>
      <trkpt lat="45.19006" lon="5.96537">
        <ele>1771.1999511719</ele>
        <time>2023-08-12T09:01:12.000Z</time>
      </trkpt>
      <trkpt lat="45.19009" lon="5.96536">
        <ele>1770.1999511719</ele>
        <time>2023-08-12T09:01:17.000Z</time>
      </trkpt>
      <trkpt lat="45.1901" lon="5.96536">
        <ele>1769.8000488281</ele>
        <time>2023-08-12T09:01:19.000Z</time>
      </trkpt>
      <trkpt lat="45.19013" lon="5.96535">
        <ele>1769.1999511719</ele>
        <time>2023-08-12T09:01:22.000Z</time>
      </trkpt>
      <trkpt lat="45.19018" lon="5.96534">
        <ele>1768.1999511719</ele>
        <time>2023-08-12T09:01:27.000Z</time>
      </trkpt>
      <trkpt lat="45.19022" lon="5.96533">
        <ele>1767</ele>
        <time>2023-08-12T09:01:33.000Z</time>
      </trkpt>
      <trkpt lat="45.19022" lon="5.96533">
        <ele>1767</ele>
        <time>2023-08-12T09:01:34.000Z</time>
      </trkpt>
      <trkpt lat="45.19025" lon="5.96532">
        <ele>1766</ele>
        <time>2023-08-12T09:01:38.000Z</time>
      </trkpt>
      <trkpt lat="45.19027" lon="5.96529">
        <ele>1765</ele>
        <time>2023-08-12T09:01:44.000Z</time>
      </trkpt>
      <trkpt lat="45.19027" lon="5.96529">
        <ele>1764.8000488281</ele>
        <time>2023-08-12T09:01:45.000Z</time>
      </trkpt>
      <trkpt lat="45.19029" lon="5.96527">
        <ele>1763.8000488281</ele>
        <time>2023-08-12T09:01:50.000Z</time>
      </trkpt>
      <trkpt lat="45.19032" lon="5.96526">
        <ele>1763</ele>
        <time>2023-08-12T09:01:54.000Z</time>
      </trkpt>
      <trkpt lat="45.19033" lon="5.96525">
        <ele>1762.8000488281</ele>
        <time>2023-08-12T09:01:55.000Z</time>
      </trkpt>
      <trkpt lat="45.19035" lon="5.96525">
        <ele>1761.5999755859</ele>
        <time>2023-08-12T09:02:01.000Z</time>
      </trkpt>
      <trkpt lat="45.19036" lon="5.96524">
        <ele>1761.1999511719</ele>
        <time>2023-08-12T09:02:03.000Z</time>
      </trkpt>
      <trkpt lat="45.19037" lon="5.96522">
        <ele>1760.5999755859</ele>
        <time>2023-08-12T09:02:06.000Z</time>
      </trkpt>
      <trkpt lat="45.19037" lon="5.96519">
        <ele>1759.8000488281</ele>
        <time>2023-08-12T09:02:09.000Z</time>
      </trkpt>
      <trkpt lat="45.19037" lon="5.96517">
        <ele>1759.4000244141</ele>
        <time>2023-08-12T09:02:11.000Z</time>
      </trkpt>
      <trkpt lat="45.19034" lon="5.96511">
        <ele>1758.1999511719</ele>
        <time>2023-08-12T09:02:17.000Z</time>
      </trkpt>
      <trkpt lat="45.19033" lon="5.96509">
        <ele>1757.5999755859</ele>
        <time>2023-08-12T09:02:20.000Z</time>
      </trkpt>
      <trkpt lat="45.19033" lon="5.96509">
        <ele>1757.1999511719</ele>
        <time>2023-08-12T09:02:22.000Z</time>
      </trkpt>
      <trkpt lat="45.19033" lon="5.9651">
        <ele>1756</ele>
        <time>2023-08-12T09:02:27.000Z</time>
      </trkpt>
      <trkpt lat="45.19033" lon="5.96509">
        <ele>1755.8000488281</ele>
        <time>2023-08-12T09:02:29.000Z</time>
      </trkpt>
      <trkpt lat="45.19033" lon="5.96507">
        <ele>1754.8000488281</ele>
        <time>2023-08-12T09:02:34.000Z</time>
      </trkpt>
      <trkpt lat="45.19031" lon="5.96506">
        <ele>1754.4000244141</ele>
        <time>2023-08-12T09:02:37.000Z</time>
      </trkpt>
      <trkpt lat="45.19029" lon="5.96504">
        <ele>1753.8000488281</ele>
        <time>2023-08-12T09:02:40.000Z</time>
      </trkpt>
      <trkpt lat="45.19026" lon="5.96501">
        <ele>1752.8000488281</ele>
        <time>2023-08-12T09:02:45.000Z</time>
      </trkpt>
      <trkpt lat="45.19026" lon="5.96501">
        <ele>1752.5999755859</ele>
        <time>2023-08-12T09:02:46.000Z</time>
      </trkpt>
      <trkpt lat="45.19021" lon="5.96498">
        <ele>1750.8000488281</ele>
        <time>2023-08-12T09:02:56.000Z</time>
      </trkpt>
      <trkpt lat="45.19019" lon="5.96498">
        <ele>1749.5999755859</ele>
        <time>2023-08-12T09:03:02.000Z</time>
      </trkpt>
      <trkpt lat="45.19019" lon="5.96494">
        <ele>1748.8000488281</ele>
        <time>2023-08-12T09:03:07.000Z</time>
      </trkpt>
      <trkpt lat="45.19019" lon="5.96493">
        <ele>1748.5999755859</ele>
        <time>2023-08-12T09:03:08.000Z</time>
      </trkpt>
      <trkpt lat="45.19017" lon="5.96491">
        <ele>1747.5999755859</ele>
        <time>2023-08-12T09:03:15.000Z</time>
      </trkpt>
      <trkpt lat="45.19016" lon="5.9649">
        <ele>1747.4000244141</ele>
        <time>2023-08-12T09:03:16.000Z</time>
      </trkpt>
      <trkpt lat="45.19013" lon="5.96487">
        <ele>1746.4000244141</ele>
        <time>2023-08-12T09:03:22.000Z</time>
      </trkpt>
      <trkpt lat="45.19012" lon="5.96484">
        <ele>1745</ele>
        <time>2023-08-12T09:03:29.000Z</time>
      </trkpt>
      <trkpt lat="45.19009" lon="5.96479">
        <ele>1744.1999511719</ele>
        <time>2023-08-12T09:03:34.000Z</time>
      </trkpt>
      <trkpt lat="45.19007" lon="5.9648">
        <ele>1743.8000488281</ele>
        <time>2023-08-12T09:03:36.000Z</time>
      </trkpt>
      <trkpt lat="45.19004" lon="5.96477">
        <ele>1741.8000488281</ele>
        <time>2023-08-12T09:03:46.000Z</time>
      </trkpt>
      <trkpt lat="45.19003" lon="5.96474">
        <ele>1740.8000488281</ele>
        <time>2023-08-12T09:03:51.000Z</time>
      </trkpt>
      <trkpt lat="45.19002" lon="5.96474">
        <ele>1740.1999511719</ele>
        <time>2023-08-12T09:03:54.000Z</time>
      </trkpt>
      <trkpt lat="45.19002" lon="5.96475">
        <ele>1739.8000488281</ele>
        <time>2023-08-12T09:03:56.000Z</time>
      </trkpt>
      <trkpt lat="45.19001" lon="5.96476">
        <ele>1739.1999511719</ele>
        <time>2023-08-12T09:03:59.000Z</time>
      </trkpt>
      <trkpt lat="45.18998" lon="5.96474">
        <ele>1738.1999511719</ele>
        <time>2023-08-12T09:04:08.000Z</time>
      </trkpt>
      <trkpt lat="45.18994" lon="5.96468">
        <ele>1737.4000244141</ele>
        <time>2023-08-12T09:04:13.000Z</time>
      </trkpt>
      <trkpt lat="45.18993" lon="5.96466">
        <ele>1736.8000488281</ele>
        <time>2023-08-12T09:04:16.000Z</time>
      </trkpt>
      <trkpt lat="45.18993" lon="5.96466">
        <ele>1736.4000244141</ele>
        <time>2023-08-12T09:04:18.000Z</time>
      </trkpt>
      <trkpt lat="45.1899" lon="5.96464">
        <ele>1735.1999511719</ele>
        <time>2023-08-12T09:04:25.000Z</time>
      </trkpt>
      <trkpt lat="45.1899" lon="5.96464">
        <ele>1735.1999511719</ele>
        <time>2023-08-12T09:04:26.000Z</time>
      </trkpt>
      <trkpt lat="45.18975" lon="5.96451">
        <ele>1732</ele>
        <time>2023-08-12T09:05:07.000Z</time>
      </trkpt>
      <trkpt lat="45.18975" lon="5.96449">
        <ele>1731.8000488281</ele>
        <time>2023-08-12T09:05:09.000Z</time>
      </trkpt>
      <trkpt lat="45.18972" lon="5.96442">
        <ele>1730.8000488281</ele>
        <time>2023-08-12T09:05:15.000Z</time>
      </trkpt>
      <trkpt lat="45.18972" lon="5.9644">
        <ele>1730.5999755859</ele>
        <time>2023-08-12T09:05:16.000Z</time>
      </trkpt>
      <trkpt lat="45.18967" lon="5.96431">
        <ele>1730.4000244141</ele>
        <time>2023-08-12T09:05:23.000Z</time>
      </trkpt>
      <trkpt lat="45.18963" lon="5.96427">
        <ele>1730</ele>
        <time>2023-08-12T09:05:32.000Z</time>
      </trkpt>
      <trkpt lat="45.18953" lon="5.96428">
        <ele>1727.4000244141</ele>
        <time>2023-08-12T09:05:45.000Z</time>
      </trkpt>
      <trkpt lat="45.18952" lon="5.9643">
        <ele>1726.8000488281</ele>
        <time>2023-08-12T09:05:49.000Z</time>
      </trkpt>
      <trkpt lat="45.18946" lon="5.9643">
        <ele>1725</ele>
        <time>2023-08-12T09:06:10.000Z</time>
      </trkpt>
      <trkpt lat="45.18941" lon="5.96422">
        <ele>1724.1999511719</ele>
        <time>2023-08-12T09:06:21.000Z</time>
      </trkpt>
      <trkpt lat="45.18941" lon="5.96421">
        <ele>1724.1999511719</ele>
        <time>2023-08-12T09:06:22.000Z</time>
      </trkpt>
      <trkpt lat="45.18938" lon="5.96415">
        <ele>1723.4000244141</ele>
        <time>2023-08-12T09:06:28.000Z</time>
      </trkpt>
      <trkpt lat="45.18938" lon="5.96414">
        <ele>1723.1999511719</ele>
        <time>2023-08-12T09:06:29.000Z</time>
      </trkpt>
      <trkpt lat="45.18935" lon="5.96409">
        <ele>1722.1999511719</ele>
        <time>2023-08-12T09:06:34.000Z</time>
      </trkpt>
      <trkpt lat="45.18934" lon="5.96405">
        <ele>1722</ele>
        <time>2023-08-12T09:06:37.000Z</time>
      </trkpt>
      <trkpt lat="45.18933" lon="5.96401">
        <ele>1721.8000488281</ele>
        <time>2023-08-12T09:06:39.000Z</time>
      </trkpt>
      <trkpt lat="45.1893" lon="5.96391">
        <ele>1721.1999511719</ele>
        <time>2023-08-12T09:06:46.000Z</time>
      </trkpt>
      <trkpt lat="45.18929" lon="5.96391">
        <ele>1721</ele>
        <time>2023-08-12T09:06:47.000Z</time>
      </trkpt>
      <trkpt lat="45.18925" lon="5.96383">
        <ele>1720</ele>
        <time>2023-08-12T09:06:55.000Z</time>
      </trkpt>
      <trkpt lat="45.1892" lon="5.96381">
        <ele>1719</ele>
        <time>2023-08-12T09:07:02.000Z</time>
      </trkpt>
      <trkpt lat="45.1892" lon="5.96378">
        <ele>1718.1999511719</ele>
        <time>2023-08-12T09:07:06.000Z</time>
      </trkpt>
      <trkpt lat="45.1892" lon="5.96377">
        <ele>1717.8000488281</ele>
        <time>2023-08-12T09:07:08.000Z</time>
      </trkpt>
      <trkpt lat="45.18922" lon="5.96375">
        <ele>1717</ele>
        <time>2023-08-12T09:07:12.000Z</time>
      </trkpt>
      <trkpt lat="45.18922" lon="5.96374">
        <ele>1716.8000488281</ele>
        <time>2023-08-12T09:07:13.000Z</time>
      </trkpt>
      <trkpt lat="45.18923" lon="5.96371">
        <ele>1716.5999755859</ele>
        <time>2023-08-12T09:07:14.000Z</time>
      </trkpt>
      <trkpt lat="45.18922" lon="5.96361">
        <ele>1715.5999755859</ele>
        <time>2023-08-12T09:07:19.000Z</time>
      </trkpt>
      <trkpt lat="45.18921" lon="5.9636">
        <ele>1715.4000244141</ele>
        <time>2023-08-12T09:07:20.000Z</time>
      </trkpt>
      <trkpt lat="45.18919" lon="5.96353">
        <ele>1714.4000244141</ele>
        <time>2023-08-12T09:07:26.000Z</time>
      </trkpt>
      <trkpt lat="45.18918" lon="5.96348">
        <ele>1714</ele>
        <time>2023-08-12T09:07:29.000Z</time>
      </trkpt>
      <trkpt lat="45.18916" lon="5.96341">
        <ele>1713.4000244141</ele>
        <time>2023-08-12T09:07:34.000Z</time>
      </trkpt>
      <trkpt lat="45.18915" lon="5.96338">
        <ele>1713</ele>
        <time>2023-08-12T09:07:36.000Z</time>
      </trkpt>
      <trkpt lat="45.18914" lon="5.96337">
        <ele>1712.4000244141</ele>
        <time>2023-08-12T09:07:40.000Z</time>
      </trkpt>
      <trkpt lat="45.18913" lon="5.96336">
        <ele>1711.8000488281</ele>
        <time>2023-08-12T09:07:43.000Z</time>
      </trkpt>
      <trkpt lat="45.18912" lon="5.96334">
        <ele>1711.1999511719</ele>
        <time>2023-08-12T09:07:46.000Z</time>
      </trkpt>
      <trkpt lat="45.18909" lon="5.96329">
        <ele>1710.1999511719</ele>
        <time>2023-08-12T09:07:52.000Z</time>
      </trkpt>
      <trkpt lat="45.18908" lon="5.96327">
        <ele>1709.8000488281</ele>
        <time>2023-08-12T09:07:53.000Z</time>
      </trkpt>
      <trkpt lat="45.18907" lon="5.96324">
        <ele>1709</ele>
        <time>2023-08-12T09:07:57.000Z</time>
      </trkpt>
      <trkpt lat="45.18906" lon="5.9632">
        <ele>1707.8000488281</ele>
        <time>2023-08-12T09:08:02.000Z</time>
      </trkpt>
      <trkpt lat="45.18906" lon="5.96321">
        <ele>1707.5999755859</ele>
        <time>2023-08-12T09:08:03.000Z</time>
      </trkpt>
      <trkpt lat="45.18904" lon="5.9632">
        <ele>1706.8000488281</ele>
        <time>2023-08-12T09:08:07.000Z</time>
      </trkpt>
      <trkpt lat="45.18902" lon="5.96317">
        <ele>1705.8000488281</ele>
        <time>2023-08-12T09:08:12.000Z</time>
      </trkpt>
      <trkpt lat="45.18898" lon="5.96312">
        <ele>1704.5999755859</ele>
        <time>2023-08-12T09:08:18.000Z</time>
      </trkpt>
      <trkpt lat="45.18893" lon="5.96304">
        <ele>1703.8000488281</ele>
        <time>2023-08-12T09:08:22.000Z</time>
      </trkpt>
      <trkpt lat="45.18891" lon="5.96301">
        <ele>1703.4000244141</ele>
        <time>2023-08-12T09:08:24.000Z</time>
      </trkpt>
      <trkpt lat="45.18889" lon="5.96299">
        <ele>1703</ele>
        <time>2023-08-12T09:08:29.000Z</time>
      </trkpt>
      <trkpt lat="45.18888" lon="5.96297">
        <ele>1702.1999511719</ele>
        <time>2023-08-12T09:08:33.000Z</time>
      </trkpt>
      <trkpt lat="45.18884" lon="5.96292">
        <ele>1701.4000244141</ele>
        <time>2023-08-12T09:08:37.000Z</time>
      </trkpt>
      <trkpt lat="45.18884" lon="5.96291">
        <ele>1701.1999511719</ele>
        <time>2023-08-12T09:08:38.000Z</time>
      </trkpt>
      <trkpt lat="45.1888" lon="5.96287">
        <ele>1700</ele>
        <time>2023-08-12T09:08:43.000Z</time>
      </trkpt>
      <trkpt lat="45.18878" lon="5.96285">
        <ele>1699.5999755859</ele>
        <time>2023-08-12T09:08:46.000Z</time>
      </trkpt>
      <trkpt lat="45.18877" lon="5.96283">
        <ele>1699</ele>
        <time>2023-08-12T09:08:56.000Z</time>
      </trkpt>
      <trkpt lat="45.18879" lon="5.96278">
        <ele>1697.8000488281</ele>
        <time>2023-08-12T09:09:02.000Z</time>
      </trkpt>
      <trkpt lat="45.18879" lon="5.96277">
        <ele>1697.8000488281</ele>
        <time>2023-08-12T09:09:03.000Z</time>
      </trkpt>
      <trkpt lat="45.18875" lon="5.96268">
        <ele>1697</ele>
        <time>2023-08-12T09:09:11.000Z</time>
      </trkpt>
      <trkpt lat="45.18874" lon="5.96268">
        <ele>1696.8000488281</ele>
        <time>2023-08-12T09:09:12.000Z</time>
      </trkpt>
      <trkpt lat="45.18871" lon="5.96266">
        <ele>1696.5999755859</ele>
        <time>2023-08-12T09:09:18.000Z</time>
      </trkpt>
      <trkpt lat="45.18868" lon="5.96262">
        <ele>1696.1999511719</ele>
        <time>2023-08-12T09:09:24.000Z</time>
      </trkpt>
      <trkpt lat="45.18867" lon="5.9626">
        <ele>1695.5999755859</ele>
        <time>2023-08-12T09:09:27.000Z</time>
      </trkpt>
      <trkpt lat="45.18865" lon="5.96259">
        <ele>1695.1999511719</ele>
        <time>2023-08-12T09:09:31.000Z</time>
      </trkpt>
      <trkpt lat="45.18865" lon="5.96253">
        <ele>1694.4000244141</ele>
        <time>2023-08-12T09:09:37.000Z</time>
      </trkpt>
      <trkpt lat="45.18864" lon="5.9625">
        <ele>1694.1999511719</ele>
        <time>2023-08-12T09:09:39.000Z</time>
      </trkpt>
      <trkpt lat="45.18859" lon="5.96239">
        <ele>1693.1999511719</ele>
        <time>2023-08-12T09:09:46.000Z</time>
      </trkpt>
      <trkpt lat="45.18859" lon="5.96236">
        <ele>1693</ele>
        <time>2023-08-12T09:09:48.000Z</time>
      </trkpt>
      <trkpt lat="45.18858" lon="5.96235">
        <ele>1692.5999755859</ele>
        <time>2023-08-12T09:09:51.000Z</time>
      </trkpt>
      <trkpt lat="45.18857" lon="5.96234">
        <ele>1692.1999511719</ele>
        <time>2023-08-12T09:09:54.000Z</time>
      </trkpt>
      <trkpt lat="45.18853" lon="5.96224">
        <ele>1691.8000488281</ele>
        <time>2023-08-12T09:10:01.000Z</time>
      </trkpt>
      <trkpt lat="45.18852" lon="5.96221">
        <ele>1692</ele>
        <time>2023-08-12T09:10:06.000Z</time>
      </trkpt>
      <trkpt lat="45.18846" lon="5.96213">
        <ele>1691.4000244141</ele>
        <time>2023-08-12T09:10:15.000Z</time>
      </trkpt>
      <trkpt lat="45.18839" lon="5.96204">
        <ele>1691.1999511719</ele>
        <time>2023-08-12T09:10:23.000Z</time>
      </trkpt>
      <trkpt lat="45.18838" lon="5.96201">
        <ele>1691.5999755859</ele>
        <time>2023-08-12T09:10:29.000Z</time>
      </trkpt>
      <trkpt lat="45.18832" lon="5.96188">
        <ele>1692.5999755859</ele>
        <time>2023-08-12T09:10:36.000Z</time>
      </trkpt>
      <trkpt lat="45.18826" lon="5.96187">
        <ele>1692.4000244141</ele>
        <time>2023-08-12T09:10:43.000Z</time>
      </trkpt>
      <trkpt lat="45.18819" lon="5.96188">
        <ele>1691.5999755859</ele>
        <time>2023-08-12T09:10:50.000Z</time>
      </trkpt>
      <trkpt lat="45.18816" lon="5.9619">
        <ele>1691.1999511719</ele>
        <time>2023-08-12T09:10:53.000Z</time>
      </trkpt>
      <trkpt lat="45.18811" lon="5.96196">
        <ele>1690.5999755859</ele>
        <time>2023-08-12T09:10:58.000Z</time>
      </trkpt>
      <trkpt lat="45.18806" lon="5.96199">
        <ele>1690.4000244141</ele>
        <time>2023-08-12T09:11:04.000Z</time>
      </trkpt>
      <trkpt lat="45.18805" lon="5.962">
        <ele>1690</ele>
        <time>2023-08-12T09:11:06.000Z</time>
      </trkpt>
      <trkpt lat="45.18802" lon="5.96201">
        <ele>1688.8000488281</ele>
        <time>2023-08-12T09:11:12.000Z</time>
      </trkpt>
      <trkpt lat="45.18799" lon="5.96199">
        <ele>1687.8000488281</ele>
        <time>2023-08-12T09:11:17.000Z</time>
      </trkpt>
      <trkpt lat="45.18794" lon="5.96197">
        <ele>1687.1999511719</ele>
        <time>2023-08-12T09:11:20.000Z</time>
      </trkpt>
      <trkpt lat="45.1879" lon="5.96195">
        <ele>1686.5999755859</ele>
        <time>2023-08-12T09:11:23.000Z</time>
      </trkpt>
      <trkpt lat="45.18784" lon="5.96188">
        <ele>1685.5999755859</ele>
        <time>2023-08-12T09:11:29.000Z</time>
      </trkpt>
      <trkpt lat="45.18783" lon="5.96187">
        <ele>1685.5999755859</ele>
        <time>2023-08-12T09:11:30.000Z</time>
      </trkpt>
      <trkpt lat="45.18778" lon="5.96185">
        <ele>1684.5999755859</ele>
        <time>2023-08-12T09:11:35.000Z</time>
      </trkpt>
      <trkpt lat="45.18777" lon="5.96185">
        <ele>1684.4000244141</ele>
        <time>2023-08-12T09:11:36.000Z</time>
      </trkpt>
      <trkpt lat="45.18774" lon="5.96176">
        <ele>1683.5999755859</ele>
        <time>2023-08-12T09:11:44.000Z</time>
      </trkpt>
      <trkpt lat="45.18769" lon="5.96169">
        <ele>1683.5999755859</ele>
        <time>2023-08-12T09:11:51.000Z</time>
      </trkpt>
      <trkpt lat="45.18765" lon="5.96165">
        <ele>1684.1999511719</ele>
        <time>2023-08-12T09:11:58.000Z</time>
      </trkpt>
      <trkpt lat="45.18761" lon="5.96165">
        <ele>1684.4000244141</ele>
        <time>2023-08-12T09:12:07.000Z</time>
      </trkpt>
      <trkpt lat="45.18758" lon="5.96163">
        <ele>1683.4000244141</ele>
        <time>2023-08-12T09:12:13.000Z</time>
      </trkpt>
      <trkpt lat="45.18757" lon="5.96161">
        <ele>1683</ele>
        <time>2023-08-12T09:12:15.000Z</time>
      </trkpt>
      <trkpt lat="45.18755" lon="5.96157">
        <ele>1682.1999511719</ele>
        <time>2023-08-12T09:12:19.000Z</time>
      </trkpt>
      <trkpt lat="45.18754" lon="5.96155">
        <ele>1681.5999755859</ele>
        <time>2023-08-12T09:12:23.000Z</time>
      </trkpt>
      <trkpt lat="45.18753" lon="5.96156">
        <ele>1681.1999511719</ele>
        <time>2023-08-12T09:12:25.000Z</time>
      </trkpt>
      <trkpt lat="45.18748" lon="5.96156">
        <ele>1680.4000244141</ele>
        <time>2023-08-12T09:12:30.000Z</time>
      </trkpt>
      <trkpt lat="45.18747" lon="5.96156">
        <ele>1680.1999511719</ele>
        <time>2023-08-12T09:12:31.000Z</time>
      </trkpt>
      <trkpt lat="45.18744" lon="5.96155">
        <ele>1679.1999511719</ele>
        <time>2023-08-12T09:12:37.000Z</time>
      </trkpt>
      <trkpt lat="45.18743" lon="5.96154">
        <ele>1679.1999511719</ele>
        <time>2023-08-12T09:12:38.000Z</time>
      </trkpt>
      <trkpt lat="45.18739" lon="5.96151">
        <ele>1678.1999511719</ele>
        <time>2023-08-12T09:12:44.000Z</time>
      </trkpt>
      <trkpt lat="45.18736" lon="5.96151">
        <ele>1677.8000488281</ele>
        <time>2023-08-12T09:12:46.000Z</time>
      </trkpt>
      <trkpt lat="45.1873" lon="5.96149">
        <ele>1677</ele>
        <time>2023-08-12T09:12:51.000Z</time>
      </trkpt>
      <trkpt lat="45.18727" lon="5.96148">
        <ele>1677</ele>
        <time>2023-08-12T09:12:52.000Z</time>
      </trkpt>
      <trkpt lat="45.18724" lon="5.9615">
        <ele>1676</ele>
        <time>2023-08-12T09:12:59.000Z</time>
      </trkpt>
      <trkpt lat="45.18721" lon="5.96154">
        <ele>1675.8000488281</ele>
        <time>2023-08-12T09:13:08.000Z</time>
      </trkpt>
      <trkpt lat="45.18713" lon="5.96161">
        <ele>1676.5999755859</ele>
        <time>2023-08-12T09:13:18.000Z</time>
      </trkpt>
      <trkpt lat="45.18705" lon="5.96162">
        <ele>1676.8000488281</ele>
        <time>2023-08-12T09:13:25.000Z</time>
      </trkpt>
      <trkpt lat="45.18704" lon="5.96163">
        <ele>1677.1999511719</ele>
        <time>2023-08-12T09:13:27.000Z</time>
      </trkpt>
      <trkpt lat="45.187" lon="5.96166">
        <ele>1677.4000244141</ele>
        <time>2023-08-12T09:13:33.000Z</time>
      </trkpt>
      <trkpt lat="45.18696" lon="5.96165">
        <ele>1677.8000488281</ele>
        <time>2023-08-12T09:13:40.000Z</time>
      </trkpt>
      <trkpt lat="45.1869" lon="5.96167">
        <ele>1677.5999755859</ele>
        <time>2023-08-12T09:13:48.000Z</time>
      </trkpt>
      <trkpt lat="45.18685" lon="5.96164">
        <ele>1677.5999755859</ele>
        <time>2023-08-12T09:13:56.000Z</time>
      </trkpt>
      <trkpt lat="45.18683" lon="5.9616">
        <ele>1676.5999755859</ele>
        <time>2023-08-12T09:14:02.000Z</time>
      </trkpt>
      <trkpt lat="45.18679" lon="5.96159">
        <ele>1676.1999511719</ele>
        <time>2023-08-12T09:14:08.000Z</time>
      </trkpt>
      <trkpt lat="45.18677" lon="5.96158">
        <ele>1676</ele>
        <time>2023-08-12T09:14:11.000Z</time>
      </trkpt>
      <trkpt lat="45.18673" lon="5.96151">
        <ele>1675.4000244141</ele>
        <time>2023-08-12T09:14:20.000Z</time>
      </trkpt>
      <trkpt lat="45.18671" lon="5.96145">
        <ele>1675.1999511719</ele>
        <time>2023-08-12T09:14:28.000Z</time>
      </trkpt>
      <trkpt lat="45.18672" lon="5.96151">
        <ele>1675.1999511719</ele>
        <time>2023-08-12T09:14:38.000Z</time>
      </trkpt>
      <trkpt lat="45.18672" lon="5.96151">
        <ele>1675</ele>
        <time>2023-08-12T09:14:40.000Z</time>
      </trkpt>
      <trkpt lat="45.1867" lon="5.96154">
        <ele>1674.5999755859</ele>
        <time>2023-08-12T09:14:46.000Z</time>
      </trkpt>
      <trkpt lat="45.18671" lon="5.96156">
        <ele>1674.4000244141</ele>
        <time>2023-08-12T09:14:53.000Z</time>
      </trkpt>
      <trkpt lat="45.1867" lon="5.96153">
        <ele>1674.5999755859</ele>
        <time>2023-08-12T09:15:06.000Z</time>
      </trkpt>
      <trkpt lat="45.18669" lon="5.96154">
        <ele>1674.5999755859</ele>
        <time>2023-08-12T09:15:13.000Z</time>
      </trkpt>
      <trkpt lat="45.18669" lon="5.96154">
        <ele>1674.4000244141</ele>
        <time>2023-08-12T09:15:22.000Z</time>
      </trkpt>
      <trkpt lat="45.18669" lon="5.96156">
        <ele>1675</ele>
        <time>2023-08-12T09:15:32.000Z</time>
      </trkpt>
      <trkpt lat="45.18669" lon="5.96147">
        <ele>1675.1999511719</ele>
        <time>2023-08-12T09:15:41.000Z</time>
      </trkpt>
      <trkpt lat="45.18669" lon="5.96147">
        <ele>1676</ele>
        <time>2023-08-12T09:15:48.000Z</time>
      </trkpt>
      <trkpt lat="45.18669" lon="5.96145">
        <ele>1675.8000488281</ele>
        <time>2023-08-12T09:15:57.000Z</time>
      </trkpt>
      <trkpt lat="45.1867" lon="5.96147">
        <ele>1676</ele>
        <time>2023-08-12T09:16:07.000Z</time>
      </trkpt>
      <trkpt lat="45.18671" lon="5.96147">
        <ele>1676.1999511719</ele>
        <time>2023-08-12T09:16:11.000Z</time>
      </trkpt>
      <trkpt lat="45.18672" lon="5.96148">
        <ele>1676.1999511719</ele>
        <time>2023-08-12T09:16:13.000Z</time>
      </trkpt>
      <trkpt lat="45.18671" lon="5.96149">
        <ele>1676.4000244141</ele>
        <time>2023-08-12T09:16:22.000Z</time>
      </trkpt>
      <trkpt lat="45.18671" lon="5.9615">
        <ele>1676.5999755859</ele>
        <time>2023-08-12T09:16:31.000Z</time>
      </trkpt>
      <trkpt lat="45.1867" lon="5.96147">
        <ele>1676.5999755859</ele>
        <time>2023-08-12T09:16:46.000Z</time>
      </trkpt>
      <trkpt lat="45.18668" lon="5.96148">
        <ele>1676.5999755859</ele>
        <time>2023-08-12T09:16:53.000Z</time>
      </trkpt>
      <trkpt lat="45.18664" lon="5.9615">
        <ele>1676.8000488281</ele>
        <time>2023-08-12T09:16:58.000Z</time>
      </trkpt>
      <trkpt lat="45.18663" lon="5.96144">
        <ele>1677</ele>
        <time>2023-08-12T09:17:05.000Z</time>
      </trkpt>
      <trkpt lat="45.18661" lon="5.96138">
        <ele>1677.1999511719</ele>
        <time>2023-08-12T09:17:09.000Z</time>
      </trkpt>
      <trkpt lat="45.1866" lon="5.96134">
        <ele>1677.5999755859</ele>
        <time>2023-08-12T09:17:14.000Z</time>
      </trkpt>
      <trkpt lat="45.1866" lon="5.96131">
        <ele>1678.1999511719</ele>
        <time>2023-08-12T09:17:17.000Z</time>
      </trkpt>
      <trkpt lat="45.18659" lon="5.96128">
        <ele>1679.1999511719</ele>
        <time>2023-08-12T09:17:22.000Z</time>
      </trkpt>
      <trkpt lat="45.18654" lon="5.96131">
        <ele>1680.4000244141</ele>
        <time>2023-08-12T09:17:29.000Z</time>
      </trkpt>
      <trkpt lat="45.18651" lon="5.96129">
        <ele>1681.4000244141</ele>
        <time>2023-08-12T09:17:36.000Z</time>
      </trkpt>
      <trkpt lat="45.18651" lon="5.96128">
        <ele>1681.5999755859</ele>
        <time>2023-08-12T09:17:37.000Z</time>
      </trkpt>
      <trkpt lat="45.18651" lon="5.96127">
        <ele>1682</ele>
        <time>2023-08-12T09:17:39.000Z</time>
      </trkpt>
      <trkpt lat="45.1865" lon="5.96125">
        <ele>1682.5999755859</ele>
        <time>2023-08-12T09:17:41.000Z</time>
      </trkpt>
      <trkpt lat="45.18649" lon="5.96122">
        <ele>1682.8000488281</ele>
        <time>2023-08-12T09:17:43.000Z</time>
      </trkpt>
      <trkpt lat="45.18647" lon="5.96117">
        <ele>1683.4000244141</ele>
        <time>2023-08-12T09:17:50.000Z</time>
      </trkpt>
      <trkpt lat="45.18646" lon="5.96115">
        <ele>1683.5999755859</ele>
        <time>2023-08-12T09:17:52.000Z</time>
      </trkpt>
      <trkpt lat="45.18643" lon="5.96112">
        <ele>1684.5999755859</ele>
        <time>2023-08-12T09:17:58.000Z</time>
      </trkpt>
      <trkpt lat="45.18643" lon="5.96112">
        <ele>1684.5999755859</ele>
        <time>2023-08-12T09:17:59.000Z</time>
      </trkpt>
      <trkpt lat="45.18643" lon="5.96113">
        <ele>1685.1999511719</ele>
        <time>2023-08-12T09:18:04.000Z</time>
      </trkpt>
      <trkpt lat="45.18644" lon="5.96113">
        <ele>1685.1999511719</ele>
        <time>2023-08-12T09:18:07.000Z</time>
      </trkpt>
      <trkpt lat="45.18647" lon="5.96115">
        <ele>1685.1999511719</ele>
        <time>2023-08-12T09:18:20.000Z</time>
      </trkpt>
      <trkpt lat="45.18645" lon="5.96111">
        <ele>1685</ele>
        <time>2023-08-12T09:18:31.000Z</time>
      </trkpt>
      <trkpt lat="45.18641" lon="5.96113">
        <ele>1685.1999511719</ele>
        <time>2023-08-12T09:18:41.000Z</time>
      </trkpt>
      <trkpt lat="45.18645" lon="5.96112">
        <ele>1685.1999511719</ele>
        <time>2023-08-12T09:18:49.000Z</time>
      </trkpt>
      <trkpt lat="45.18646" lon="5.96108">
        <ele>1685.4000244141</ele>
        <time>2023-08-12T09:18:58.000Z</time>
      </trkpt>
      <trkpt lat="45.18639" lon="5.96105">
        <ele>1685.8000488281</ele>
        <time>2023-08-12T09:19:03.000Z</time>
      </trkpt>
      <trkpt lat="45.18638" lon="5.96103">
        <ele>1686</ele>
        <time>2023-08-12T09:19:04.000Z</time>
      </trkpt>
      <trkpt lat="45.18638" lon="5.96101">
        <ele>1686</ele>
        <time>2023-08-12T09:19:05.000Z</time>
      </trkpt>
      <trkpt lat="45.18635" lon="5.96096">
        <ele>1686.4000244141</ele>
        <time>2023-08-12T09:19:10.000Z</time>
      </trkpt>
      <trkpt lat="45.18634" lon="5.96097">
        <ele>1686.5999755859</ele>
        <time>2023-08-12T09:19:12.000Z</time>
      </trkpt>
      <trkpt lat="45.18631" lon="5.96098">
        <ele>1686.8000488281</ele>
        <time>2023-08-12T09:19:17.000Z</time>
      </trkpt>
      <trkpt lat="45.1863" lon="5.96099">
        <ele>1687</ele>
        <time>2023-08-12T09:19:18.000Z</time>
      </trkpt>
      <trkpt lat="45.18628" lon="5.96101">
        <ele>1687.5999755859</ele>
        <time>2023-08-12T09:19:24.000Z</time>
      </trkpt>
      <trkpt lat="45.18627" lon="5.96102">
        <ele>1688</ele>
        <time>2023-08-12T09:19:26.000Z</time>
      </trkpt>
      <trkpt lat="45.18625" lon="5.96101">
        <ele>1688.4000244141</ele>
        <time>2023-08-12T09:19:29.000Z</time>
      </trkpt>
      <trkpt lat="45.18624" lon="5.96101">
        <ele>1688.8000488281</ele>
        <time>2023-08-12T09:19:31.000Z</time>
      </trkpt>
      <trkpt lat="45.18624" lon="5.96101">
        <ele>1689</ele>
        <time>2023-08-12T09:19:32.000Z</time>
      </trkpt>
      <trkpt lat="45.1862" lon="5.96096">
        <ele>1689.5999755859</ele>
        <time>2023-08-12T09:19:38.000Z</time>
      </trkpt>
      <trkpt lat="45.18619" lon="5.96085">
        <ele>1689.4000244141</ele>
        <time>2023-08-12T09:19:46.000Z</time>
      </trkpt>
      <trkpt lat="45.18618" lon="5.96079">
        <ele>1689.1999511719</ele>
        <time>2023-08-12T09:19:53.000Z</time>
      </trkpt>
      <trkpt lat="45.18615" lon="5.96072">
        <ele>1689.8000488281</ele>
        <time>2023-08-12T09:20:01.000Z</time>
      </trkpt>
      <trkpt lat="45.18611" lon="5.96064">
        <ele>1689.5999755859</ele>
        <time>2023-08-12T09:20:10.000Z</time>
      </trkpt>
      <trkpt lat="45.18608" lon="5.96058">
        <ele>1689.1999511719</ele>
        <time>2023-08-12T09:20:18.000Z</time>
      </trkpt>
      <trkpt lat="45.18607" lon="5.96057">
        <ele>1689.4000244141</ele>
        <time>2023-08-12T09:20:19.000Z</time>
      </trkpt>
      <trkpt lat="45.18604" lon="5.96051">
        <ele>1690</ele>
        <time>2023-08-12T09:20:24.000Z</time>
      </trkpt>
      <trkpt lat="45.18603" lon="5.9605">
        <ele>1690.4000244141</ele>
        <time>2023-08-12T09:20:26.000Z</time>
      </trkpt>
      <trkpt lat="45.18598" lon="5.96044">
        <ele>1691.1999511719</ele>
        <time>2023-08-12T09:20:34.000Z</time>
      </trkpt>
      <trkpt lat="45.18595" lon="5.9604">
        <ele>1692.1999511719</ele>
        <time>2023-08-12T09:20:41.000Z</time>
      </trkpt>
      <trkpt lat="45.18594" lon="5.96039">
        <ele>1692.5999755859</ele>
        <time>2023-08-12T09:20:43.000Z</time>
      </trkpt>
      <trkpt lat="45.18594" lon="5.96039">
        <ele>1693.4000244141</ele>
        <time>2023-08-12T09:20:47.000Z</time>
      </trkpt>
      <trkpt lat="45.18594" lon="5.96039">
        <ele>1694</ele>
        <time>2023-08-12T09:20:52.000Z</time>
      </trkpt>
      <trkpt lat="45.18593" lon="5.96038">
        <ele>1694.5999755859</ele>
        <time>2023-08-12T09:20:54.000Z</time>
      </trkpt>
      <trkpt lat="45.18591" lon="5.96038">
        <ele>1695.4000244141</ele>
        <time>2023-08-12T09:21:00.000Z</time>
      </trkpt>
      <trkpt lat="45.18591" lon="5.96038">
        <ele>1695.5999755859</ele>
        <time>2023-08-12T09:21:01.000Z</time>
      </trkpt>
      <trkpt lat="45.1859" lon="5.96038">
        <ele>1696.5999755859</ele>
        <time>2023-08-12T09:21:06.000Z</time>
      </trkpt>
      <trkpt lat="45.18589" lon="5.96038">
        <ele>1696.5999755859</ele>
        <time>2023-08-12T09:21:07.000Z</time>
      </trkpt>
      <trkpt lat="45.18588" lon="5.96039">
        <ele>1696.8000488281</ele>
        <time>2023-08-12T09:21:08.000Z</time>
      </trkpt>
      <trkpt lat="45.18585" lon="5.96036">
        <ele>1697.8000488281</ele>
        <time>2023-08-12T09:21:14.000Z</time>
      </trkpt>
      <trkpt lat="45.18584" lon="5.96035">
        <ele>1698.1999511719</ele>
        <time>2023-08-12T09:21:17.000Z</time>
      </trkpt>
      <trkpt lat="45.18583" lon="5.96035">
        <ele>1699</ele>
        <time>2023-08-12T09:21:20.000Z</time>
      </trkpt>
      <trkpt lat="45.18584" lon="5.96037">
        <ele>1699.4000244141</ele>
        <time>2023-08-12T09:21:25.000Z</time>
      </trkpt>
      <trkpt lat="45.18579" lon="5.96035">
        <ele>1700</ele>
        <time>2023-08-12T09:21:30.000Z</time>
      </trkpt>
      <trkpt lat="45.18575" lon="5.96031">
        <ele>1700.5999755859</ele>
        <time>2023-08-12T09:21:34.000Z</time>
      </trkpt>
      <trkpt lat="45.18574" lon="5.96028">
        <ele>1702.8000488281</ele>
        <time>2023-08-12T09:21:51.000Z</time>
      </trkpt>
      <trkpt lat="45.18572" lon="5.96023">
        <ele>1703.1999511719</ele>
        <time>2023-08-12T09:22:00.000Z</time>
      </trkpt>
      <trkpt lat="45.18568" lon="5.96014">
        <ele>1704.1999511719</ele>
        <time>2023-08-12T09:22:07.000Z</time>
      </trkpt>
      <trkpt lat="45.18568" lon="5.96014">
        <ele>1704.5999755859</ele>
        <time>2023-08-12T09:22:08.000Z</time>
      </trkpt>
      <trkpt lat="45.18568" lon="5.96011">
        <ele>1705.1999511719</ele>
        <time>2023-08-12T09:22:14.000Z</time>
      </trkpt>
      <trkpt lat="45.18565" lon="5.96007">
        <ele>1706.1999511719</ele>
        <time>2023-08-12T09:22:20.000Z</time>
      </trkpt>
      <trkpt lat="45.18565" lon="5.96007">
        <ele>1706.4000244141</ele>
        <time>2023-08-12T09:22:21.000Z</time>
      </trkpt>
      <trkpt lat="45.18563" lon="5.9601">
        <ele>1707.4000244141</ele>
        <time>2023-08-12T09:22:27.000Z</time>
      </trkpt>
      <trkpt lat="45.18557" lon="5.96012">
        <ele>1708.4000244141</ele>
        <time>2023-08-12T09:22:33.000Z</time>
      </trkpt>
      <trkpt lat="45.18557" lon="5.96012">
        <ele>1708.5999755859</ele>
        <time>2023-08-12T09:22:34.000Z</time>
      </trkpt>
      <trkpt lat="45.18554" lon="5.96007">
        <ele>1709.5999755859</ele>
        <time>2023-08-12T09:22:39.000Z</time>
      </trkpt>
      <trkpt lat="45.18555" lon="5.96005">
        <ele>1709.8000488281</ele>
        <time>2023-08-12T09:22:41.000Z</time>
      </trkpt>
      <trkpt lat="45.18555" lon="5.96">
        <ele>1710.5999755859</ele>
        <time>2023-08-12T09:22:46.000Z</time>
      </trkpt>
      <trkpt lat="45.18555" lon="5.96001">
        <ele>1711.1999511719</ele>
        <time>2023-08-12T09:22:50.000Z</time>
      </trkpt>
      <trkpt lat="45.18555" lon="5.96">
        <ele>1711.5999755859</ele>
        <time>2023-08-12T09:22:52.000Z</time>
      </trkpt>
      <trkpt lat="45.18553" lon="5.95997">
        <ele>1712.1999511719</ele>
        <time>2023-08-12T09:22:57.000Z</time>
      </trkpt>
      <trkpt lat="45.18553" lon="5.95996">
        <ele>1712.5999755859</ele>
        <time>2023-08-12T09:22:59.000Z</time>
      </trkpt>
      <trkpt lat="45.18552" lon="5.95995">
        <ele>1713.1999511719</ele>
        <time>2023-08-12T09:23:02.000Z</time>
      </trkpt>
      <trkpt lat="45.18552" lon="5.95995">
        <ele>1713.8000488281</ele>
        <time>2023-08-12T09:23:05.000Z</time>
      </trkpt>
      <trkpt lat="45.18551" lon="5.95993">
        <ele>1714.5999755859</ele>
        <time>2023-08-12T09:23:11.000Z</time>
      </trkpt>
      <trkpt lat="45.18551" lon="5.95994">
        <ele>1714.4000244141</ele>
        <time>2023-08-12T09:23:20.000Z</time>
      </trkpt>
      <trkpt lat="45.18553" lon="5.95998">
        <ele>1714.4000244141</ele>
        <time>2023-08-12T09:23:28.000Z</time>
      </trkpt>
      <trkpt lat="45.18553" lon="5.95997">
        <ele>1714.4000244141</ele>
        <time>2023-08-12T09:23:36.000Z</time>
      </trkpt>
      <trkpt lat="45.1855" lon="5.95992">
        <ele>1715</ele>
        <time>2023-08-12T09:23:40.000Z</time>
      </trkpt>
      <trkpt lat="45.18549" lon="5.95987">
        <ele>1716</ele>
        <time>2023-08-12T09:23:45.000Z</time>
      </trkpt>
      <trkpt lat="45.18549" lon="5.95986">
        <ele>1716</ele>
        <time>2023-08-12T09:23:46.000Z</time>
      </trkpt>
      <trkpt lat="45.18547" lon="5.95981">
        <ele>1717</ele>
        <time>2023-08-12T09:23:53.000Z</time>
      </trkpt>
      <trkpt lat="45.18547" lon="5.9598">
        <ele>1717.1999511719</ele>
        <time>2023-08-12T09:23:54.000Z</time>
      </trkpt>
      <trkpt lat="45.18544" lon="5.95978">
        <ele>1718.1999511719</ele>
        <time>2023-08-12T09:24:00.000Z</time>
      </trkpt>
      <trkpt lat="45.18543" lon="5.95978">
        <ele>1718.4000244141</ele>
        <time>2023-08-12T09:24:02.000Z</time>
      </trkpt>
      <trkpt lat="45.18541" lon="5.95975">
        <ele>1719.1999511719</ele>
        <time>2023-08-12T09:24:06.000Z</time>
      </trkpt>
      <trkpt lat="45.18542" lon="5.95973">
        <ele>1719.5999755859</ele>
        <time>2023-08-12T09:24:08.000Z</time>
      </trkpt>
      <trkpt lat="45.18539" lon="5.95964">
        <ele>1720.1999511719</ele>
        <time>2023-08-12T09:24:16.000Z</time>
      </trkpt>
      <trkpt lat="45.18538" lon="5.95963">
        <ele>1720.4000244141</ele>
        <time>2023-08-12T09:24:17.000Z</time>
      </trkpt>
      <trkpt lat="45.18535" lon="5.95961">
        <ele>1721.4000244141</ele>
        <time>2023-08-12T09:24:26.000Z</time>
      </trkpt>
      <trkpt lat="45.1853" lon="5.95953">
        <ele>1721.5999755859</ele>
        <time>2023-08-12T09:24:35.000Z</time>
      </trkpt>
      <trkpt lat="45.18522" lon="5.95947">
        <ele>1722</ele>
        <time>2023-08-12T09:24:43.000Z</time>
      </trkpt>
      <trkpt lat="45.1852" lon="5.95947">
        <ele>1722.4000244141</ele>
        <time>2023-08-12T09:24:48.000Z</time>
      </trkpt>
      <trkpt lat="45.18518" lon="5.95944">
        <ele>1722.5999755859</ele>
        <time>2023-08-12T09:24:52.000Z</time>
      </trkpt>
      <trkpt lat="45.18515" lon="5.95937">
        <ele>1722.4000244141</ele>
        <time>2023-08-12T09:24:58.000Z</time>
      </trkpt>
      <trkpt lat="45.18513" lon="5.95933">
        <ele>1722.1999511719</ele>
        <time>2023-08-12T09:25:04.000Z</time>
      </trkpt>
      <trkpt lat="45.18512" lon="5.95923">
        <ele>1721.8000488281</ele>
        <time>2023-08-12T09:25:11.000Z</time>
      </trkpt>
      <trkpt lat="45.18511" lon="5.95919">
        <ele>1721.1999511719</ele>
        <time>2023-08-12T09:25:14.000Z</time>
      </trkpt>
      <trkpt lat="45.18507" lon="5.95913">
        <ele>1720.8000488281</ele>
        <time>2023-08-12T09:25:19.000Z</time>
      </trkpt>
      <trkpt lat="45.18501" lon="5.95902">
        <ele>1721</ele>
        <time>2023-08-12T09:25:26.000Z</time>
      </trkpt>
      <trkpt lat="45.18499" lon="5.95896">
        <ele>1720.1999511719</ele>
        <time>2023-08-12T09:25:34.000Z</time>
      </trkpt>
      <trkpt lat="45.18497" lon="5.95896">
        <ele>1720</ele>
        <time>2023-08-12T09:25:36.000Z</time>
      </trkpt>
      <trkpt lat="45.18491" lon="5.95894">
        <ele>1719.8000488281</ele>
        <time>2023-08-12T09:25:44.000Z</time>
      </trkpt>
      <trkpt lat="45.18486" lon="5.95888">
        <ele>1719.5999755859</ele>
        <time>2023-08-12T09:25:52.000Z</time>
      </trkpt>
      <trkpt lat="45.18485" lon="5.95887">
        <ele>1719.1999511719</ele>
        <time>2023-08-12T09:25:56.000Z</time>
      </trkpt>
      <trkpt lat="45.18483" lon="5.95886">
        <ele>1718.8000488281</ele>
        <time>2023-08-12T09:25:59.000Z</time>
      </trkpt>
      <trkpt lat="45.18475" lon="5.95883">
        <ele>1718</ele>
        <time>2023-08-12T09:26:06.000Z</time>
      </trkpt>
      <trkpt lat="45.18474" lon="5.95883">
        <ele>1717.8000488281</ele>
        <time>2023-08-12T09:26:07.000Z</time>
      </trkpt>
      <trkpt lat="45.18465" lon="5.9588">
        <ele>1718.5999755859</ele>
        <time>2023-08-12T09:26:18.000Z</time>
      </trkpt>
      <trkpt lat="45.18463" lon="5.95878">
        <ele>1719</ele>
        <time>2023-08-12T09:26:22.000Z</time>
      </trkpt>
      <trkpt lat="45.18461" lon="5.95875">
        <ele>1719.4000244141</ele>
        <time>2023-08-12T09:26:25.000Z</time>
      </trkpt>
      <trkpt lat="45.18457" lon="5.95869">
        <ele>1719.8000488281</ele>
        <time>2023-08-12T09:26:33.000Z</time>
      </trkpt>
      <trkpt lat="45.18453" lon="5.95863">
        <ele>1720.1999511719</ele>
        <time>2023-08-12T09:26:39.000Z</time>
      </trkpt>
      <trkpt lat="45.18452" lon="5.95862">
        <ele>1720.4000244141</ele>
        <time>2023-08-12T09:26:41.000Z</time>
      </trkpt>
      <trkpt lat="45.18453" lon="5.95857">
        <ele>1721</ele>
        <time>2023-08-12T09:26:48.000Z</time>
      </trkpt>
      <trkpt lat="45.18454" lon="5.95854">
        <ele>1721.1999511719</ele>
        <time>2023-08-12T09:26:50.000Z</time>
      </trkpt>
      <trkpt lat="45.18457" lon="5.95844">
        <ele>1721.5999755859</ele>
        <time>2023-08-12T09:26:57.000Z</time>
      </trkpt>
      <trkpt lat="45.18458" lon="5.95835">
        <ele>1722</ele>
        <time>2023-08-12T09:27:06.000Z</time>
      </trkpt>
      <trkpt lat="45.18458" lon="5.95834">
        <ele>1722.1999511719</ele>
        <time>2023-08-12T09:27:07.000Z</time>
      </trkpt>
      <trkpt lat="45.1846" lon="5.95823">
        <ele>1723.1999511719</ele>
        <time>2023-08-12T09:27:15.000Z</time>
      </trkpt>
      <trkpt lat="45.1846" lon="5.95821">
        <ele>1723.4000244141</ele>
        <time>2023-08-12T09:27:17.000Z</time>
      </trkpt>
      <trkpt lat="45.18458" lon="5.95818">
        <ele>1724.1999511719</ele>
        <time>2023-08-12T09:27:25.000Z</time>
      </trkpt>
      <trkpt lat="45.18458" lon="5.95818">
        <ele>1724.4000244141</ele>
        <time>2023-08-12T09:27:26.000Z</time>
      </trkpt>
      <trkpt lat="45.18454" lon="5.9582">
        <ele>1725.4000244141</ele>
        <time>2023-08-12T09:27:33.000Z</time>
      </trkpt>
      <trkpt lat="45.18451" lon="5.95824">
        <ele>1726.4000244141</ele>
        <time>2023-08-12T09:27:41.000Z</time>
      </trkpt>
      <trkpt lat="45.18451" lon="5.95825">
        <ele>1726.4000244141</ele>
        <time>2023-08-12T09:27:42.000Z</time>
      </trkpt>
      <trkpt lat="45.1845" lon="5.95826">
        <ele>1727.5999755859</ele>
        <time>2023-08-12T09:27:48.000Z</time>
      </trkpt>
      <trkpt lat="45.1845" lon="5.95826">
        <ele>1727.8000488281</ele>
        <time>2023-08-12T09:27:50.000Z</time>
      </trkpt>
      <trkpt lat="45.1845" lon="5.95827">
        <ele>1728.8000488281</ele>
        <time>2023-08-12T09:27:56.000Z</time>
      </trkpt>
      <trkpt lat="45.18449" lon="5.9583">
        <ele>1729.1999511719</ele>
        <time>2023-08-12T09:28:00.000Z</time>
      </trkpt>
      <trkpt lat="45.18448" lon="5.95833">
        <ele>1729.8000488281</ele>
        <time>2023-08-12T09:28:03.000Z</time>
      </trkpt>
      <trkpt lat="45.18445" lon="5.95835">
        <ele>1730.5999755859</ele>
        <time>2023-08-12T09:28:08.000Z</time>
      </trkpt>
      <trkpt lat="45.18445" lon="5.95835">
        <ele>1730.8000488281</ele>
        <time>2023-08-12T09:28:09.000Z</time>
      </trkpt>
      <trkpt lat="45.18443" lon="5.95839">
        <ele>1732</ele>
        <time>2023-08-12T09:28:15.000Z</time>
      </trkpt>
      <trkpt lat="45.18441" lon="5.95841">
        <ele>1732.5999755859</ele>
        <time>2023-08-12T09:28:18.000Z</time>
      </trkpt>
      <trkpt lat="45.18436" lon="5.95844">
        <ele>1733.1999511719</ele>
        <time>2023-08-12T09:28:23.000Z</time>
      </trkpt>
      <trkpt lat="45.18435" lon="5.95845">
        <ele>1733.5999755859</ele>
        <time>2023-08-12T09:28:26.000Z</time>
      </trkpt>
      <trkpt lat="45.18428" lon="5.95844">
        <ele>1737.4000244141</ele>
        <time>2023-08-12T09:28:52.000Z</time>
      </trkpt>
      <trkpt lat="45.18428" lon="5.95844">
        <ele>1737.5999755859</ele>
        <time>2023-08-12T09:28:53.000Z</time>
      </trkpt>
      <trkpt lat="45.18423" lon="5.95843">
        <ele>1738.8000488281</ele>
        <time>2023-08-12T09:28:59.000Z</time>
      </trkpt>
      <trkpt lat="45.18422" lon="5.95842">
        <ele>1739.4000244141</ele>
        <time>2023-08-12T09:29:06.000Z</time>
      </trkpt>
      <trkpt lat="45.1842" lon="5.95842">
        <ele>1740</ele>
        <time>2023-08-12T09:29:10.000Z</time>
      </trkpt>
      <trkpt lat="45.1842" lon="5.95842">
        <ele>1740.4000244141</ele>
        <time>2023-08-12T09:29:14.000Z</time>
      </trkpt>
      <trkpt lat="45.18411" lon="5.95847">
        <ele>1743.8000488281</ele>
        <time>2023-08-12T09:29:36.000Z</time>
      </trkpt>
      <trkpt lat="45.18408" lon="5.95846">
        <ele>1744.1999511719</ele>
        <time>2023-08-12T09:29:40.000Z</time>
      </trkpt>
      <trkpt lat="45.18406" lon="5.95846">
        <ele>1744.5999755859</ele>
        <time>2023-08-12T09:29:43.000Z</time>
      </trkpt>
      <trkpt lat="45.1839" lon="5.95857">
        <ele>1747.4000244141</ele>
        <time>2023-08-12T09:30:06.000Z</time>
      </trkpt>
      <trkpt lat="45.18389" lon="5.95857">
        <ele>1748.1999511719</ele>
        <time>2023-08-12T09:30:10.000Z</time>
      </trkpt>
      <trkpt lat="45.18388" lon="5.95857">
        <ele>1748.5999755859</ele>
        <time>2023-08-12T09:30:12.000Z</time>
      </trkpt>
      <trkpt lat="45.18387" lon="5.95856">
        <ele>1749.5999755859</ele>
        <time>2023-08-12T09:30:17.000Z</time>
      </trkpt>
      <trkpt lat="45.18386" lon="5.95857">
        <ele>1749.8000488281</ele>
        <time>2023-08-12T09:30:18.000Z</time>
      </trkpt>
      <trkpt lat="45.18384" lon="5.95854">
        <ele>1750.8000488281</ele>
        <time>2023-08-12T09:30:25.000Z</time>
      </trkpt>
      <trkpt lat="45.18383" lon="5.95853">
        <ele>1751</ele>
        <time>2023-08-12T09:30:26.000Z</time>
      </trkpt>
      <trkpt lat="45.18381" lon="5.95853">
        <ele>1751.8000488281</ele>
        <time>2023-08-12T09:30:30.000Z</time>
      </trkpt>
      <trkpt lat="45.18378" lon="5.95854">
        <ele>1752.5999755859</ele>
        <time>2023-08-12T09:30:34.000Z</time>
      </trkpt>
      <trkpt lat="45.18376" lon="5.95854">
        <ele>1753</ele>
        <time>2023-08-12T09:30:37.000Z</time>
      </trkpt>
      <trkpt lat="45.18365" lon="5.95855">
        <ele>1755.5999755859</ele>
        <time>2023-08-12T09:30:56.000Z</time>
      </trkpt>
      <trkpt lat="45.18364" lon="5.95855">
        <ele>1756.1999511719</ele>
        <time>2023-08-12T09:30:59.000Z</time>
      </trkpt>
      <trkpt lat="45.18363" lon="5.95855">
        <ele>1757</ele>
        <time>2023-08-12T09:31:03.000Z</time>
      </trkpt>
      <trkpt lat="45.18361" lon="5.95855">
        <ele>1757.4000244141</ele>
        <time>2023-08-12T09:31:05.000Z</time>
      </trkpt>
      <trkpt lat="45.18357" lon="5.95856">
        <ele>1758.4000244141</ele>
        <time>2023-08-12T09:31:14.000Z</time>
      </trkpt>
      <trkpt lat="45.18348" lon="5.95863">
        <ele>1761.8000488281</ele>
        <time>2023-08-12T09:31:36.000Z</time>
      </trkpt>
      <trkpt lat="45.18347" lon="5.95862">
        <ele>1762.5999755859</ele>
        <time>2023-08-12T09:31:40.000Z</time>
      </trkpt>
      <trkpt lat="45.18347" lon="5.95863">
        <ele>1762.8000488281</ele>
        <time>2023-08-12T09:31:41.000Z</time>
      </trkpt>
      <trkpt lat="45.18343" lon="5.95863">
        <ele>1764</ele>
        <time>2023-08-12T09:31:47.000Z</time>
      </trkpt>
      <trkpt lat="45.18339" lon="5.95863">
        <ele>1765</ele>
        <time>2023-08-12T09:31:52.000Z</time>
      </trkpt>
      <trkpt lat="45.18337" lon="5.95865">
        <ele>1765.8000488281</ele>
        <time>2023-08-12T09:31:57.000Z</time>
      </trkpt>
      <trkpt lat="45.18336" lon="5.95866">
        <ele>1766.1999511719</ele>
        <time>2023-08-12T09:31:59.000Z</time>
      </trkpt>
      <trkpt lat="45.18337" lon="5.95868">
        <ele>1767.1999511719</ele>
        <time>2023-08-12T09:32:04.000Z</time>
      </trkpt>
      <trkpt lat="45.18337" lon="5.95869">
        <ele>1767.1999511719</ele>
        <time>2023-08-12T09:32:05.000Z</time>
      </trkpt>
      <trkpt lat="45.18334" lon="5.95868">
        <ele>1768.1999511719</ele>
        <time>2023-08-12T09:32:11.000Z</time>
      </trkpt>
      <trkpt lat="45.18332" lon="5.95867">
        <ele>1768.1999511719</ele>
        <time>2023-08-12T09:32:12.000Z</time>
      </trkpt>
      <trkpt lat="45.18328" lon="5.95867">
        <ele>1770</ele>
        <time>2023-08-12T09:32:23.000Z</time>
      </trkpt>
      <trkpt lat="45.18328" lon="5.95867">
        <ele>1770.4000244141</ele>
        <time>2023-08-12T09:32:25.000Z</time>
      </trkpt>
      <trkpt lat="45.18316" lon="5.95868">
        <ele>1773</ele>
        <time>2023-08-12T09:32:43.000Z</time>
      </trkpt>
      <trkpt lat="45.18305" lon="5.95879">
        <ele>1776.8000488281</ele>
        <time>2023-08-12T09:33:11.000Z</time>
      </trkpt>
      <trkpt lat="45.18299" lon="5.95891">
        <ele>1779</ele>
        <time>2023-08-12T09:33:27.000Z</time>
      </trkpt>
      <trkpt lat="45.183" lon="5.95891">
        <ele>1779.4000244141</ele>
        <time>2023-08-12T09:33:29.000Z</time>
      </trkpt>
      <trkpt lat="45.183" lon="5.95891">
        <ele>1780</ele>
        <time>2023-08-12T09:33:33.000Z</time>
      </trkpt>
      <trkpt lat="45.18297" lon="5.95894">
        <ele>1781</ele>
        <time>2023-08-12T09:33:38.000Z</time>
      </trkpt>
      <trkpt lat="45.18296" lon="5.95899">
        <ele>1782.1999511719</ele>
        <time>2023-08-12T09:33:45.000Z</time>
      </trkpt>
      <trkpt lat="45.18296" lon="5.95898">
        <ele>1782.4000244141</ele>
        <time>2023-08-12T09:33:46.000Z</time>
      </trkpt>
      <trkpt lat="45.18296" lon="5.95897">
        <ele>1782.5999755859</ele>
        <time>2023-08-12T09:33:48.000Z</time>
      </trkpt>
      <trkpt lat="45.18296" lon="5.95894">
        <ele>1783.4000244141</ele>
        <time>2023-08-12T09:33:53.000Z</time>
      </trkpt>
      <trkpt lat="45.18296" lon="5.95894">
        <ele>1783.5999755859</ele>
        <time>2023-08-12T09:33:54.000Z</time>
      </trkpt>
      <trkpt lat="45.18294" lon="5.95896">
        <ele>1784.4000244141</ele>
        <time>2023-08-12T09:34:00.000Z</time>
      </trkpt>
      <trkpt lat="45.18294" lon="5.95896">
        <ele>1784.8000488281</ele>
        <time>2023-08-12T09:34:03.000Z</time>
      </trkpt>
      <trkpt lat="45.18293" lon="5.95896">
        <ele>1785.5999755859</ele>
        <time>2023-08-12T09:34:09.000Z</time>
      </trkpt>
      <trkpt lat="45.18292" lon="5.95896">
        <ele>1785.8000488281</ele>
        <time>2023-08-12T09:34:11.000Z</time>
      </trkpt>
      <trkpt lat="45.18288" lon="5.95901">
        <ele>1787.5999755859</ele>
        <time>2023-08-12T09:34:22.000Z</time>
      </trkpt>
      <trkpt lat="45.18288" lon="5.95899">
        <ele>1787.8000488281</ele>
        <time>2023-08-12T09:34:24.000Z</time>
      </trkpt>
      <trkpt lat="45.18287" lon="5.95897">
        <ele>1788.8000488281</ele>
        <time>2023-08-12T09:34:30.000Z</time>
      </trkpt>
      <trkpt lat="45.18287" lon="5.95898">
        <ele>1788.8000488281</ele>
        <time>2023-08-12T09:34:31.000Z</time>
      </trkpt>
      <trkpt lat="45.18283" lon="5.95898">
        <ele>1789.8000488281</ele>
        <time>2023-08-12T09:34:37.000Z</time>
      </trkpt>
      <trkpt lat="45.18283" lon="5.95899">
        <ele>1789.8000488281</ele>
        <time>2023-08-12T09:34:38.000Z</time>
      </trkpt>
      <trkpt lat="45.18279" lon="5.959">
        <ele>1791.1999511719</ele>
        <time>2023-08-12T09:34:57.000Z</time>
      </trkpt>
      <trkpt lat="45.18279" lon="5.95897">
        <ele>1791.8000488281</ele>
        <time>2023-08-12T09:35:05.000Z</time>
      </trkpt>
      <trkpt lat="45.18279" lon="5.95899">
        <ele>1792</ele>
        <time>2023-08-12T09:35:07.000Z</time>
      </trkpt>
      <trkpt lat="45.18278" lon="5.95899">
        <ele>1792.5999755859</ele>
        <time>2023-08-12T09:35:12.000Z</time>
      </trkpt>
      <trkpt lat="45.18276" lon="5.95899">
        <ele>1793.1999511719</ele>
        <time>2023-08-12T09:35:15.000Z</time>
      </trkpt>
      <trkpt lat="45.18276" lon="5.95898">
        <ele>1794</ele>
        <time>2023-08-12T09:35:21.000Z</time>
      </trkpt>
      <trkpt lat="45.18275" lon="5.95898">
        <ele>1794.1999511719</ele>
        <time>2023-08-12T09:35:22.000Z</time>
      </trkpt>
      <trkpt lat="45.18273" lon="5.95896">
        <ele>1795</ele>
        <time>2023-08-12T09:35:29.000Z</time>
      </trkpt>
      <trkpt lat="45.18273" lon="5.95895">
        <ele>1795.4000244141</ele>
        <time>2023-08-12T09:35:31.000Z</time>
      </trkpt>
      <trkpt lat="45.18272" lon="5.95896">
        <ele>1795.5999755859</ele>
        <time>2023-08-12T09:35:44.000Z</time>
      </trkpt>
      <trkpt lat="45.18269" lon="5.95895">
        <ele>1795.5999755859</ele>
        <time>2023-08-12T09:35:59.000Z</time>
      </trkpt>
      <trkpt lat="45.1827" lon="5.95895">
        <ele>1795.5999755859</ele>
        <time>2023-08-12T09:36:05.000Z</time>
      </trkpt>
      <trkpt lat="45.18272" lon="5.95894">
        <ele>1795.5999755859</ele>
        <time>2023-08-12T09:36:16.000Z</time>
      </trkpt>
      <trkpt lat="45.18272" lon="5.95893">
        <ele>1796.4000244141</ele>
        <time>2023-08-12T09:36:24.000Z</time>
      </trkpt>
      <trkpt lat="45.18271" lon="5.95893">
        <ele>1796.4000244141</ele>
        <time>2023-08-12T09:36:25.000Z</time>
      </trkpt>
      <trkpt lat="45.18271" lon="5.95889">
        <ele>1797.1999511719</ele>
        <time>2023-08-12T09:36:32.000Z</time>
      </trkpt>
      <trkpt lat="45.18271" lon="5.9589">
        <ele>1797.4000244141</ele>
        <time>2023-08-12T09:36:33.000Z</time>
      </trkpt>
      <trkpt lat="45.18272" lon="5.95887">
        <ele>1798.1999511719</ele>
        <time>2023-08-12T09:36:38.000Z</time>
      </trkpt>
      <trkpt lat="45.18271" lon="5.95888">
        <ele>1798.5999755859</ele>
        <time>2023-08-12T09:36:40.000Z</time>
      </trkpt>
      <trkpt lat="45.18271" lon="5.95888">
        <ele>1799.4000244141</ele>
        <time>2023-08-12T09:36:45.000Z</time>
      </trkpt>
      <trkpt lat="45.18271" lon="5.95887">
        <ele>1799.5999755859</ele>
        <time>2023-08-12T09:36:46.000Z</time>
      </trkpt>
      <trkpt lat="45.1827" lon="5.95886">
        <ele>1800.8000488281</ele>
        <time>2023-08-12T09:36:52.000Z</time>
      </trkpt>
      <trkpt lat="45.18265" lon="5.95889">
        <ele>1801.8000488281</ele>
        <time>2023-08-12T09:37:00.000Z</time>
      </trkpt>
      <trkpt lat="45.18263" lon="5.9589">
        <ele>1803</ele>
        <time>2023-08-12T09:37:10.000Z</time>
      </trkpt>
      <trkpt lat="45.1826" lon="5.95892">
        <ele>1803.1999511719</ele>
        <time>2023-08-12T09:37:13.000Z</time>
      </trkpt>
      <trkpt lat="45.18259" lon="5.95893">
        <ele>1804</ele>
        <time>2023-08-12T09:37:17.000Z</time>
      </trkpt>
      <trkpt lat="45.18258" lon="5.95888">
        <ele>1805.4000244141</ele>
        <time>2023-08-12T09:37:27.000Z</time>
      </trkpt>
      <trkpt lat="45.18258" lon="5.9589">
        <ele>1805.4000244141</ele>
        <time>2023-08-12T09:37:35.000Z</time>
      </trkpt>
      <trkpt lat="45.18257" lon="5.95885">
        <ele>1806.5999755859</ele>
        <time>2023-08-12T09:37:46.000Z</time>
      </trkpt>
      <trkpt lat="45.18257" lon="5.95884">
        <ele>1807.1999511719</ele>
        <time>2023-08-12T09:37:49.000Z</time>
      </trkpt>
      <trkpt lat="45.18256" lon="5.95882">
        <ele>1807.8000488281</ele>
        <time>2023-08-12T09:37:54.000Z</time>
      </trkpt>
      <trkpt lat="45.18255" lon="5.9588">
        <ele>1808.1999511719</ele>
        <time>2023-08-12T09:37:58.000Z</time>
      </trkpt>
      <trkpt lat="45.18254" lon="5.9588">
        <ele>1808.4000244141</ele>
        <time>2023-08-12T09:37:59.000Z</time>
      </trkpt>
      <trkpt lat="45.1825" lon="5.95878">
        <ele>1809</ele>
        <time>2023-08-12T09:38:09.000Z</time>
      </trkpt>
      <trkpt lat="45.1825" lon="5.9588">
        <ele>1809</ele>
        <time>2023-08-12T09:38:15.000Z</time>
      </trkpt>
      <trkpt lat="45.18251" lon="5.9588">
        <ele>1809</ele>
        <time>2023-08-12T09:38:22.000Z</time>
      </trkpt>
      <trkpt lat="45.1825" lon="5.95884">
        <ele>1809.4000244141</ele>
        <time>2023-08-12T09:38:34.000Z</time>
      </trkpt>
      <trkpt lat="45.1825" lon="5.95884">
        <ele>1809.5999755859</ele>
        <time>2023-08-12T09:38:35.000Z</time>
      </trkpt>
      <trkpt lat="45.18249" lon="5.95883">
        <ele>1810.4000244141</ele>
        <time>2023-08-12T09:38:39.000Z</time>
      </trkpt>
      <trkpt lat="45.18246" lon="5.9588">
        <ele>1812.4000244141</ele>
        <time>2023-08-12T09:38:55.000Z</time>
      </trkpt>
      <trkpt lat="45.18238" lon="5.95886">
        <ele>1814.5999755859</ele>
        <time>2023-08-12T09:39:12.000Z</time>
      </trkpt>
      <trkpt lat="45.18235" lon="5.95887">
        <ele>1816.1999511719</ele>
        <time>2023-08-12T09:39:22.000Z</time>
      </trkpt>
      <trkpt lat="45.18234" lon="5.95888">
        <ele>1816.8000488281</ele>
        <time>2023-08-12T09:39:26.000Z</time>
      </trkpt>
      <trkpt lat="45.18228" lon="5.95889">
        <ele>1818.5999755859</ele>
        <time>2023-08-12T09:39:39.000Z</time>
      </trkpt>
      <trkpt lat="45.18225" lon="5.95893">
        <ele>1819</ele>
        <time>2023-08-12T09:39:42.000Z</time>
      </trkpt>
      <trkpt lat="45.18223" lon="5.95895">
        <ele>1819.8000488281</ele>
        <time>2023-08-12T09:39:46.000Z</time>
      </trkpt>
      <trkpt lat="45.18223" lon="5.95893">
        <ele>1820.1999511719</ele>
        <time>2023-08-12T09:39:48.000Z</time>
      </trkpt>
      <trkpt lat="45.18218" lon="5.95888">
        <ele>1823</ele>
        <time>2023-08-12T09:40:08.000Z</time>
      </trkpt>
      <trkpt lat="45.1821" lon="5.95888">
        <ele>1827.5999755859</ele>
        <time>2023-08-12T09:40:37.000Z</time>
      </trkpt>
      <trkpt lat="45.18208" lon="5.95889">
        <ele>1828</ele>
        <time>2023-08-12T09:40:40.000Z</time>
      </trkpt>
      <trkpt lat="45.18207" lon="5.95884">
        <ele>1829.5999755859</ele>
        <time>2023-08-12T09:40:52.000Z</time>
      </trkpt>
      <trkpt lat="45.18211" lon="5.95873">
        <ele>1830.8000488281</ele>
        <time>2023-08-12T09:41:02.000Z</time>
      </trkpt>
      <trkpt lat="45.18212" lon="5.95868">
        <ele>1831.5999755859</ele>
        <time>2023-08-12T09:41:07.000Z</time>
      </trkpt>
      <trkpt lat="45.18212" lon="5.95867">
        <ele>1831.8000488281</ele>
        <time>2023-08-12T09:41:08.000Z</time>
      </trkpt>
      <trkpt lat="45.18214" lon="5.95862">
        <ele>1833</ele>
        <time>2023-08-12T09:41:15.000Z</time>
      </trkpt>
      <trkpt lat="45.18216" lon="5.9586">
        <ele>1834</ele>
        <time>2023-08-12T09:41:23.000Z</time>
      </trkpt>
      <trkpt lat="45.18216" lon="5.95857">
        <ele>1835.1999511719</ele>
        <time>2023-08-12T09:41:31.000Z</time>
      </trkpt>
      <trkpt lat="45.18215" lon="5.95851">
        <ele>1836.4000244141</ele>
        <time>2023-08-12T09:41:39.000Z</time>
      </trkpt>
      <trkpt lat="45.18215" lon="5.95849">
        <ele>1836.5999755859</ele>
        <time>2023-08-12T09:41:40.000Z</time>
      </trkpt>
      <trkpt lat="45.18216" lon="5.95842">
        <ele>1838.4000244141</ele>
        <time>2023-08-12T09:41:52.000Z</time>
      </trkpt>
      <trkpt lat="45.18216" lon="5.95842">
        <ele>1839.4000244141</ele>
        <time>2023-08-12T09:41:58.000Z</time>
      </trkpt>
      <trkpt lat="45.18218" lon="5.95838">
        <ele>1840.5999755859</ele>
        <time>2023-08-12T09:42:06.000Z</time>
      </trkpt>
      <trkpt lat="45.18218" lon="5.95839">
        <ele>1841.4000244141</ele>
        <time>2023-08-12T09:42:12.000Z</time>
      </trkpt>
      <trkpt lat="45.18219" lon="5.95839">
        <ele>1841.5999755859</ele>
        <time>2023-08-12T09:42:13.000Z</time>
      </trkpt>
      <trkpt lat="45.18221" lon="5.95836">
        <ele>1842.5999755859</ele>
        <time>2023-08-12T09:42:19.000Z</time>
      </trkpt>
      <trkpt lat="45.18221" lon="5.95836">
        <ele>1842.8000488281</ele>
        <time>2023-08-12T09:42:20.000Z</time>
      </trkpt>
      <trkpt lat="45.18226" lon="5.95827">
        <ele>1844.5999755859</ele>
        <time>2023-08-12T09:42:34.000Z</time>
      </trkpt>
      <trkpt lat="45.18229" lon="5.95826">
        <ele>1844.8000488281</ele>
        <time>2023-08-12T09:42:39.000Z</time>
      </trkpt>
      <trkpt lat="45.18227" lon="5.9582">
        <ele>1845</ele>
        <time>2023-08-12T09:42:43.000Z</time>
      </trkpt>
      <trkpt lat="45.18228" lon="5.95817">
        <ele>1845.8000488281</ele>
        <time>2023-08-12T09:42:50.000Z</time>
      </trkpt>
      <trkpt lat="45.18227" lon="5.95816">
        <ele>1846</ele>
        <time>2023-08-12T09:42:51.000Z</time>
      </trkpt>
      <trkpt lat="45.18228" lon="5.95813">
        <ele>1847</ele>
        <time>2023-08-12T09:42:59.000Z</time>
      </trkpt>
      <trkpt lat="45.1823" lon="5.95805">
        <ele>1848</ele>
        <time>2023-08-12T09:43:09.000Z</time>
      </trkpt>
      <trkpt lat="45.1823" lon="5.95804">
        <ele>1848.1999511719</ele>
        <time>2023-08-12T09:43:10.000Z</time>
      </trkpt>
      <trkpt lat="45.18231" lon="5.95804">
        <ele>1849.1999511719</ele>
        <time>2023-08-12T09:43:17.000Z</time>
      </trkpt>
      <trkpt lat="45.18235" lon="5.95798">
        <ele>1852</ele>
        <time>2023-08-12T09:43:33.000Z</time>
      </trkpt>
      <trkpt lat="45.18255" lon="5.95782">
        <ele>1855.5999755859</ele>
        <time>2023-08-12T09:44:02.000Z</time>
      </trkpt>
      <trkpt lat="45.18256" lon="5.95781">
        <ele>1855.8000488281</ele>
        <time>2023-08-12T09:44:03.000Z</time>
      </trkpt>
      <trkpt lat="45.18256" lon="5.95777">
        <ele>1856.8000488281</ele>
        <time>2023-08-12T09:44:10.000Z</time>
      </trkpt>
      <trkpt lat="45.18257" lon="5.95776">
        <ele>1856.8000488281</ele>
        <time>2023-08-12T09:44:12.000Z</time>
      </trkpt>
      <trkpt lat="45.18258" lon="5.95776">
        <ele>1857.8000488281</ele>
        <time>2023-08-12T09:44:17.000Z</time>
      </trkpt>
      <trkpt lat="45.18258" lon="5.95776">
        <ele>1858</ele>
        <time>2023-08-12T09:44:18.000Z</time>
      </trkpt>
      <trkpt lat="45.18259" lon="5.95773">
        <ele>1859</ele>
        <time>2023-08-12T09:44:24.000Z</time>
      </trkpt>
      <trkpt lat="45.18259" lon="5.95771">
        <ele>1859.1999511719</ele>
        <time>2023-08-12T09:44:26.000Z</time>
      </trkpt>
      <trkpt lat="45.18263" lon="5.95767">
        <ele>1862</ele>
        <time>2023-08-12T09:44:40.000Z</time>
      </trkpt>
      <trkpt lat="45.18264" lon="5.9577">
        <ele>1863</ele>
        <time>2023-08-12T09:44:47.000Z</time>
      </trkpt>
      <trkpt lat="45.18264" lon="5.95771">
        <ele>1863.5999755859</ele>
        <time>2023-08-12T09:44:50.000Z</time>
      </trkpt>
      <trkpt lat="45.18264" lon="5.95771">
        <ele>1864.1999511719</ele>
        <time>2023-08-12T09:44:52.000Z</time>
      </trkpt>
      <trkpt lat="45.18268" lon="5.95767">
        <ele>1864.4000244141</ele>
        <time>2023-08-12T09:44:54.000Z</time>
      </trkpt>
      <trkpt lat="45.1827" lon="5.95763">
        <ele>1864.8000488281</ele>
        <time>2023-08-12T09:44:57.000Z</time>
      </trkpt>
      <trkpt lat="45.18275" lon="5.9576">
        <ele>1866</ele>
        <time>2023-08-12T09:45:06.000Z</time>
      </trkpt>
      <trkpt lat="45.18276" lon="5.9576">
        <ele>1866.4000244141</ele>
        <time>2023-08-12T09:45:09.000Z</time>
      </trkpt>
      <trkpt lat="45.1828" lon="5.95754">
        <ele>1867.5999755859</ele>
        <time>2023-08-12T09:45:17.000Z</time>
      </trkpt>
      <trkpt lat="45.18285" lon="5.95743">
        <ele>1869</ele>
        <time>2023-08-12T09:45:27.000Z</time>
      </trkpt>
      <trkpt lat="45.18289" lon="5.9574">
        <ele>1870.4000244141</ele>
        <time>2023-08-12T09:45:37.000Z</time>
      </trkpt>
      <trkpt lat="45.18289" lon="5.95742">
        <ele>1870.8000488281</ele>
        <time>2023-08-12T09:45:39.000Z</time>
      </trkpt>
      <trkpt lat="45.18287" lon="5.95745">
        <ele>1870.8000488281</ele>
        <time>2023-08-12T09:45:45.000Z</time>
      </trkpt>
      <trkpt lat="45.18289" lon="5.95743">
        <ele>1870.8000488281</ele>
        <time>2023-08-12T09:45:51.000Z</time>
      </trkpt>
      <trkpt lat="45.18288" lon="5.95744">
        <ele>1871</ele>
        <time>2023-08-12T09:46:32.000Z</time>
      </trkpt>
      <trkpt lat="45.18289" lon="5.95742">
        <ele>1871.8000488281</ele>
        <time>2023-08-12T09:46:37.000Z</time>
      </trkpt>
      <trkpt lat="45.18288" lon="5.95739">
        <ele>1872.5999755859</ele>
        <time>2023-08-12T09:46:42.000Z</time>
      </trkpt>
      <trkpt lat="45.18289" lon="5.95739">
        <ele>1873</ele>
        <time>2023-08-12T09:46:44.000Z</time>
      </trkpt>
      <trkpt lat="45.18291" lon="5.95737">
        <ele>1873.5999755859</ele>
        <time>2023-08-12T09:46:49.000Z</time>
      </trkpt>
      <trkpt lat="45.18292" lon="5.95731">
        <ele>1874</ele>
        <time>2023-08-12T09:46:52.000Z</time>
      </trkpt>
      <trkpt lat="45.18293" lon="5.9573">
        <ele>1874.1999511719</ele>
        <time>2023-08-12T09:46:53.000Z</time>
      </trkpt>
      <trkpt lat="45.18293" lon="5.95729">
        <ele>1874.1999511719</ele>
        <time>2023-08-12T09:46:54.000Z</time>
      </trkpt>
      <trkpt lat="45.18292" lon="5.95729">
        <ele>1875.1999511719</ele>
        <time>2023-08-12T09:47:00.000Z</time>
      </trkpt>
      <trkpt lat="45.18292" lon="5.95729">
        <ele>1875.4000244141</ele>
        <time>2023-08-12T09:47:02.000Z</time>
      </trkpt>
      <trkpt lat="45.18295" lon="5.95729">
        <ele>1876.1999511719</ele>
        <time>2023-08-12T09:47:07.000Z</time>
      </trkpt>
      <trkpt lat="45.18295" lon="5.95728">
        <ele>1876.5999755859</ele>
        <time>2023-08-12T09:47:09.000Z</time>
      </trkpt>
      <trkpt lat="45.18296" lon="5.95722">
        <ele>1878.4000244141</ele>
        <time>2023-08-12T09:47:24.000Z</time>
      </trkpt>
      <trkpt lat="45.18296" lon="5.95721">
        <ele>1878.5999755859</ele>
        <time>2023-08-12T09:47:26.000Z</time>
      </trkpt>
      <trkpt lat="45.18298" lon="5.95719">
        <ele>1879.4000244141</ele>
        <time>2023-08-12T09:47:33.000Z</time>
      </trkpt>
      <trkpt lat="45.18299" lon="5.95713">
        <ele>1880</ele>
        <time>2023-08-12T09:47:37.000Z</time>
      </trkpt>
      <trkpt lat="45.18298" lon="5.95705">
        <ele>1880.4000244141</ele>
        <time>2023-08-12T09:47:42.000Z</time>
      </trkpt>
      <trkpt lat="45.18299" lon="5.95703">
        <ele>1880.5999755859</ele>
        <time>2023-08-12T09:47:43.000Z</time>
      </trkpt>
      <trkpt lat="45.18301" lon="5.95697">
        <ele>1881.4000244141</ele>
        <time>2023-08-12T09:47:50.000Z</time>
      </trkpt>
      <trkpt lat="45.18303" lon="5.95694">
        <ele>1883.5999755859</ele>
        <time>2023-08-12T09:48:04.000Z</time>
      </trkpt>
      <trkpt lat="45.18302" lon="5.95694">
        <ele>1883.8000488281</ele>
        <time>2023-08-12T09:48:05.000Z</time>
      </trkpt>
      <trkpt lat="45.18303" lon="5.95689">
        <ele>1884.8000488281</ele>
        <time>2023-08-12T09:48:10.000Z</time>
      </trkpt>
      <trkpt lat="45.18304" lon="5.95687">
        <ele>1885.1999511719</ele>
        <time>2023-08-12T09:48:13.000Z</time>
      </trkpt>
      <trkpt lat="45.18306" lon="5.95681">
        <ele>1885.8000488281</ele>
        <time>2023-08-12T09:48:17.000Z</time>
      </trkpt>
      <trkpt lat="45.18306" lon="5.95678">
        <ele>1886</ele>
        <time>2023-08-12T09:48:20.000Z</time>
      </trkpt>
      <trkpt lat="45.18306" lon="5.95675">
        <ele>1886.8000488281</ele>
        <time>2023-08-12T09:48:28.000Z</time>
      </trkpt>
      <trkpt lat="45.18304" lon="5.95671">
        <ele>1887.4000244141</ele>
        <time>2023-08-12T09:48:31.000Z</time>
      </trkpt>
      <trkpt lat="45.18303" lon="5.9567">
        <ele>1888</ele>
        <time>2023-08-12T09:48:35.000Z</time>
      </trkpt>
      <trkpt lat="45.18302" lon="5.95667">
        <ele>1888.5999755859</ele>
        <time>2023-08-12T09:48:39.000Z</time>
      </trkpt>
      <trkpt lat="45.18302" lon="5.95666">
        <ele>1889</ele>
        <time>2023-08-12T09:48:41.000Z</time>
      </trkpt>
      <trkpt lat="45.18305" lon="5.95664">
        <ele>1889.8000488281</ele>
        <time>2023-08-12T09:48:46.000Z</time>
      </trkpt>
      <trkpt lat="45.18307" lon="5.95662">
        <ele>1890.5999755859</ele>
        <time>2023-08-12T09:48:52.000Z</time>
      </trkpt>
      <trkpt lat="45.18308" lon="5.95642">
        <ele>1896.4000244141</ele>
        <time>2023-08-12T09:49:27.000Z</time>
      </trkpt>
      <trkpt lat="45.18307" lon="5.95638">
        <ele>1897.8000488281</ele>
        <time>2023-08-12T09:49:36.000Z</time>
      </trkpt>
      <trkpt lat="45.18306" lon="5.95634">
        <ele>1898.8000488281</ele>
        <time>2023-08-12T09:49:42.000Z</time>
      </trkpt>
      <trkpt lat="45.18305" lon="5.95632">
        <ele>1899.1999511719</ele>
        <time>2023-08-12T09:49:44.000Z</time>
      </trkpt>
      <trkpt lat="45.18305" lon="5.95629">
        <ele>1900</ele>
        <time>2023-08-12T09:49:49.000Z</time>
      </trkpt>
      <trkpt lat="45.18305" lon="5.95627">
        <ele>1900.4000244141</ele>
        <time>2023-08-12T09:49:51.000Z</time>
      </trkpt>
      <trkpt lat="45.18306" lon="5.95624">
        <ele>1900.8000488281</ele>
        <time>2023-08-12T09:49:58.000Z</time>
      </trkpt>
      <trkpt lat="45.18306" lon="5.95623">
        <ele>1901</ele>
        <time>2023-08-12T09:50:00.000Z</time>
      </trkpt>
      <trkpt lat="45.18304" lon="5.95621">
        <ele>1901.4000244141</ele>
        <time>2023-08-12T09:50:05.000Z</time>
      </trkpt>
      <trkpt lat="45.18302" lon="5.95618">
        <ele>1902</ele>
        <time>2023-08-12T09:50:10.000Z</time>
      </trkpt>
      <trkpt lat="45.18301" lon="5.95618">
        <ele>1902.5999755859</ele>
        <time>2023-08-12T09:50:12.000Z</time>
      </trkpt>
      <trkpt lat="45.183" lon="5.95617">
        <ele>1903</ele>
        <time>2023-08-12T09:50:15.000Z</time>
      </trkpt>
      <trkpt lat="45.18299" lon="5.95616">
        <ele>1903.8000488281</ele>
        <time>2023-08-12T09:50:19.000Z</time>
      </trkpt>
      <trkpt lat="45.18299" lon="5.95616">
        <ele>1904.1999511719</ele>
        <time>2023-08-12T09:50:21.000Z</time>
      </trkpt>
      <trkpt lat="45.18299" lon="5.95616">
        <ele>1905.1999511719</ele>
        <time>2023-08-12T09:50:27.000Z</time>
      </trkpt>
      <trkpt lat="45.18299" lon="5.95615">
        <ele>1905.4000244141</ele>
        <time>2023-08-12T09:50:28.000Z</time>
      </trkpt>
      <trkpt lat="45.18297" lon="5.95615">
        <ele>1906.1999511719</ele>
        <time>2023-08-12T09:50:34.000Z</time>
      </trkpt>
      <trkpt lat="45.18296" lon="5.95613">
        <ele>1906.4000244141</ele>
        <time>2023-08-12T09:50:36.000Z</time>
      </trkpt>
      <trkpt lat="45.18295" lon="5.95612">
        <ele>1907.1999511719</ele>
        <time>2023-08-12T09:50:40.000Z</time>
      </trkpt>
      <trkpt lat="45.18295" lon="5.95611">
        <ele>1907.5999755859</ele>
        <time>2023-08-12T09:50:42.000Z</time>
      </trkpt>
      <trkpt lat="45.18293" lon="5.95606">
        <ele>1908.4000244141</ele>
        <time>2023-08-12T09:50:49.000Z</time>
      </trkpt>
      <trkpt lat="45.18292" lon="5.95603">
        <ele>1908.5999755859</ele>
        <time>2023-08-12T09:50:51.000Z</time>
      </trkpt>
      <trkpt lat="45.18292" lon="5.956">
        <ele>1909.5999755859</ele>
        <time>2023-08-12T09:50:57.000Z</time>
      </trkpt>
      <trkpt lat="45.18292" lon="5.956">
        <ele>1910</ele>
        <time>2023-08-12T09:50:59.000Z</time>
      </trkpt>
      <trkpt lat="45.18293" lon="5.95599">
        <ele>1910.5999755859</ele>
        <time>2023-08-12T09:51:04.000Z</time>
      </trkpt>
      <trkpt lat="45.18294" lon="5.95599">
        <ele>1911.8000488281</ele>
        <time>2023-08-12T09:51:10.000Z</time>
      </trkpt>
      <trkpt lat="45.18291" lon="5.95597">
        <ele>1912.5999755859</ele>
        <time>2023-08-12T09:51:17.000Z</time>
      </trkpt>
      <trkpt lat="45.18291" lon="5.95597">
        <ele>1912.8000488281</ele>
        <time>2023-08-12T09:51:18.000Z</time>
      </trkpt>
      <trkpt lat="45.18294" lon="5.95596">
        <ele>1914</ele>
        <time>2023-08-12T09:51:26.000Z</time>
      </trkpt>
      <trkpt lat="45.18296" lon="5.95596">
        <ele>1914.1999511719</ele>
        <time>2023-08-12T09:51:28.000Z</time>
      </trkpt>
      <trkpt lat="45.18309" lon="5.95593">
        <ele>1918</ele>
        <time>2023-08-12T09:51:50.000Z</time>
      </trkpt>
      <trkpt lat="45.18309" lon="5.95593">
        <ele>1918.1999511719</ele>
        <time>2023-08-12T09:51:51.000Z</time>
      </trkpt>
      <trkpt lat="45.18312" lon="5.95592">
        <ele>1919.1999511719</ele>
        <time>2023-08-12T09:51:58.000Z</time>
      </trkpt>
      <trkpt lat="45.18312" lon="5.95592">
        <ele>1919.1999511719</ele>
        <time>2023-08-12T09:51:59.000Z</time>
      </trkpt>
      <trkpt lat="45.18319" lon="5.95583">
        <ele>1920.4000244141</ele>
        <time>2023-08-12T09:52:09.000Z</time>
      </trkpt>
      <trkpt lat="45.18323" lon="5.95581">
        <ele>1922.4000244141</ele>
        <time>2023-08-12T09:52:21.000Z</time>
      </trkpt>
      <trkpt lat="45.18323" lon="5.9558">
        <ele>1922.4000244141</ele>
        <time>2023-08-12T09:52:22.000Z</time>
      </trkpt>
      <trkpt lat="45.18327" lon="5.95575">
        <ele>1923.1999511719</ele>
        <time>2023-08-12T09:52:28.000Z</time>
      </trkpt>
      <trkpt lat="45.18327" lon="5.95575">
        <ele>1923.5999755859</ele>
        <time>2023-08-12T09:52:30.000Z</time>
      </trkpt>
      <trkpt lat="45.18325" lon="5.95571">
        <ele>1924.4000244141</ele>
        <time>2023-08-12T09:52:37.000Z</time>
      </trkpt>
      <trkpt lat="45.18324" lon="5.95571">
        <ele>1924.5999755859</ele>
        <time>2023-08-12T09:52:38.000Z</time>
      </trkpt>
      <trkpt lat="45.18321" lon="5.95569">
        <ele>1925.8000488281</ele>
        <time>2023-08-12T09:52:46.000Z</time>
      </trkpt>
      <trkpt lat="45.18321" lon="5.9557">
        <ele>1926.8000488281</ele>
        <time>2023-08-12T09:52:52.000Z</time>
      </trkpt>
      <trkpt lat="45.18321" lon="5.95569">
        <ele>1927.1999511719</ele>
        <time>2023-08-12T09:52:55.000Z</time>
      </trkpt>
      <trkpt lat="45.1832" lon="5.95568">
        <ele>1928</ele>
        <time>2023-08-12T09:52:59.000Z</time>
      </trkpt>
      <trkpt lat="45.18321" lon="5.95565">
        <ele>1928.5999755859</ele>
        <time>2023-08-12T09:53:03.000Z</time>
      </trkpt>
      <trkpt lat="45.18321" lon="5.95563">
        <ele>1929</ele>
        <time>2023-08-12T09:53:07.000Z</time>
      </trkpt>
      <trkpt lat="45.18322" lon="5.95559">
        <ele>1930</ele>
        <time>2023-08-12T09:53:12.000Z</time>
      </trkpt>
      <trkpt lat="45.18323" lon="5.95557">
        <ele>1930.4000244141</ele>
        <time>2023-08-12T09:53:14.000Z</time>
      </trkpt>
      <trkpt lat="45.18324" lon="5.95553">
        <ele>1931.1999511719</ele>
        <time>2023-08-12T09:53:19.000Z</time>
      </trkpt>
      <trkpt lat="45.18322" lon="5.95552">
        <ele>1931.5999755859</ele>
        <time>2023-08-12T09:53:23.000Z</time>
      </trkpt>
      <trkpt lat="45.18322" lon="5.95551">
        <ele>1932.4000244141</ele>
        <time>2023-08-12T09:53:28.000Z</time>
      </trkpt>
      <trkpt lat="45.18322" lon="5.95551">
        <ele>1932.8000488281</ele>
        <time>2023-08-12T09:53:31.000Z</time>
      </trkpt>
      <trkpt lat="45.18323" lon="5.95549">
        <ele>1933.4000244141</ele>
        <time>2023-08-12T09:53:36.000Z</time>
      </trkpt>
      <trkpt lat="45.18323" lon="5.95546">
        <ele>1934</ele>
        <time>2023-08-12T09:53:39.000Z</time>
      </trkpt>
      <trkpt lat="45.18324" lon="5.95544">
        <ele>1934.4000244141</ele>
        <time>2023-08-12T09:53:41.000Z</time>
      </trkpt>
      <trkpt lat="45.18327" lon="5.95537">
        <ele>1935.1999511719</ele>
        <time>2023-08-12T09:53:47.000Z</time>
      </trkpt>
      <trkpt lat="45.18328" lon="5.95535">
        <ele>1935.5999755859</ele>
        <time>2023-08-12T09:53:49.000Z</time>
      </trkpt>
      <trkpt lat="45.18328" lon="5.9553">
        <ele>1936.1999511719</ele>
        <time>2023-08-12T09:53:56.000Z</time>
      </trkpt>
      <trkpt lat="45.18326" lon="5.9553">
        <ele>1936.5999755859</ele>
        <time>2023-08-12T09:53:59.000Z</time>
      </trkpt>
      <trkpt lat="45.18322" lon="5.95529">
        <ele>1937.1999511719</ele>
        <time>2023-08-12T09:54:04.000Z</time>
      </trkpt>
      <trkpt lat="45.18318" lon="5.95528">
        <ele>1937.5999755859</ele>
        <time>2023-08-12T09:54:11.000Z</time>
      </trkpt>
      <trkpt lat="45.18318" lon="5.95528">
        <ele>1937.8000488281</ele>
        <time>2023-08-12T09:54:12.000Z</time>
      </trkpt>
      <trkpt lat="45.18315" lon="5.95526">
        <ele>1938.1999511719</ele>
        <time>2023-08-12T09:54:19.000Z</time>
      </trkpt>
      <trkpt lat="45.18314" lon="5.95526">
        <ele>1938.5999755859</ele>
        <time>2023-08-12T09:54:21.000Z</time>
      </trkpt>
      <trkpt lat="45.18313" lon="5.95524">
        <ele>1939.4000244141</ele>
        <time>2023-08-12T09:54:28.000Z</time>
      </trkpt>
      <trkpt lat="45.18311" lon="5.95522">
        <ele>1939.8000488281</ele>
        <time>2023-08-12T09:54:32.000Z</time>
      </trkpt>
      <trkpt lat="45.18308" lon="5.95519">
        <ele>1940.4000244141</ele>
        <time>2023-08-12T09:54:37.000Z</time>
      </trkpt>
      <trkpt lat="45.18307" lon="5.95518">
        <ele>1940.8000488281</ele>
        <time>2023-08-12T09:54:41.000Z</time>
      </trkpt>
      <trkpt lat="45.18305" lon="5.95517">
        <ele>1941.5999755859</ele>
        <time>2023-08-12T09:54:46.000Z</time>
      </trkpt>
      <trkpt lat="45.18305" lon="5.95516">
        <ele>1942</ele>
        <time>2023-08-12T09:54:48.000Z</time>
      </trkpt>
      <trkpt lat="45.18302" lon="5.95514">
        <ele>1943</ele>
        <time>2023-08-12T09:54:52.000Z</time>
      </trkpt>
      <trkpt lat="45.18303" lon="5.95513">
        <ele>1943.5999755859</ele>
        <time>2023-08-12T09:54:55.000Z</time>
      </trkpt>
      <trkpt lat="45.18301" lon="5.9551">
        <ele>1944.1999511719</ele>
        <time>2023-08-12T09:54:59.000Z</time>
      </trkpt>
      <trkpt lat="45.183" lon="5.95509">
        <ele>1944.4000244141</ele>
        <time>2023-08-12T09:55:01.000Z</time>
      </trkpt>
      <trkpt lat="45.18299" lon="5.95508">
        <ele>1945.1999511719</ele>
        <time>2023-08-12T09:55:05.000Z</time>
      </trkpt>
      <trkpt lat="45.18299" lon="5.95508">
        <ele>1946</ele>
        <time>2023-08-12T09:55:09.000Z</time>
      </trkpt>
      <trkpt lat="45.18298" lon="5.95509">
        <ele>1946.4000244141</ele>
        <time>2023-08-12T09:55:12.000Z</time>
      </trkpt>
      <trkpt lat="45.18298" lon="5.95506">
        <ele>1947.4000244141</ele>
        <time>2023-08-12T09:55:18.000Z</time>
      </trkpt>
      <trkpt lat="45.18298" lon="5.95507">
        <ele>1947.5999755859</ele>
        <time>2023-08-12T09:55:20.000Z</time>
      </trkpt>
      <trkpt lat="45.18297" lon="5.95506">
        <ele>1948.4000244141</ele>
        <time>2023-08-12T09:55:25.000Z</time>
      </trkpt>
      <trkpt lat="45.18296" lon="5.95503">
        <ele>1949</ele>
        <time>2023-08-12T09:55:28.000Z</time>
      </trkpt>
      <trkpt lat="45.18295" lon="5.95501">
        <ele>1949.5999755859</ele>
        <time>2023-08-12T09:55:33.000Z</time>
      </trkpt>
      <trkpt lat="45.18296" lon="5.955">
        <ele>1949.8000488281</ele>
        <time>2023-08-12T09:55:36.000Z</time>
      </trkpt>
      <trkpt lat="45.18296" lon="5.95497">
        <ele>1950.8000488281</ele>
        <time>2023-08-12T09:55:44.000Z</time>
      </trkpt>
      <trkpt lat="45.18292" lon="5.95492">
        <ele>1951.8000488281</ele>
        <time>2023-08-12T09:55:52.000Z</time>
      </trkpt>
      <trkpt lat="45.18292" lon="5.95492">
        <ele>1952</ele>
        <time>2023-08-12T09:55:54.000Z</time>
      </trkpt>
      <trkpt lat="45.18291" lon="5.95492">
        <ele>1952.8000488281</ele>
        <time>2023-08-12T09:56:05.000Z</time>
      </trkpt>
      <trkpt lat="45.1829" lon="5.95492">
        <ele>1953</ele>
        <time>2023-08-12T09:56:06.000Z</time>
      </trkpt>
      <trkpt lat="45.18289" lon="5.95491">
        <ele>1953.5999755859</ele>
        <time>2023-08-12T09:56:10.000Z</time>
      </trkpt>
      <trkpt lat="45.18288" lon="5.95491">
        <ele>1954.1999511719</ele>
        <time>2023-08-12T09:56:13.000Z</time>
      </trkpt>
      <trkpt lat="45.18286" lon="5.9549">
        <ele>1954.8000488281</ele>
        <time>2023-08-12T09:56:18.000Z</time>
      </trkpt>
      <trkpt lat="45.18285" lon="5.95488">
        <ele>1955.4000244141</ele>
        <time>2023-08-12T09:56:21.000Z</time>
      </trkpt>
      <trkpt lat="45.18285" lon="5.95485">
        <ele>1956.1999511719</ele>
        <time>2023-08-12T09:56:26.000Z</time>
      </trkpt>
      <trkpt lat="45.18285" lon="5.95484">
        <ele>1956.4000244141</ele>
        <time>2023-08-12T09:56:27.000Z</time>
      </trkpt>
      <trkpt lat="45.18283" lon="5.95484">
        <ele>1957.4000244141</ele>
        <time>2023-08-12T09:56:34.000Z</time>
      </trkpt>
      <trkpt lat="45.18283" lon="5.95483">
        <ele>1957.5999755859</ele>
        <time>2023-08-12T09:56:35.000Z</time>
      </trkpt>
      <trkpt lat="45.18281" lon="5.95479">
        <ele>1958.5999755859</ele>
        <time>2023-08-12T09:56:41.000Z</time>
      </trkpt>
      <trkpt lat="45.18281" lon="5.95478">
        <ele>1958.8000488281</ele>
        <time>2023-08-12T09:56:42.000Z</time>
      </trkpt>
      <trkpt lat="45.18281" lon="5.95474">
        <ele>1959.8000488281</ele>
        <time>2023-08-12T09:56:49.000Z</time>
      </trkpt>
      <trkpt lat="45.18281" lon="5.95473">
        <ele>1960</ele>
        <time>2023-08-12T09:56:51.000Z</time>
      </trkpt>
      <trkpt lat="45.18281" lon="5.9547">
        <ele>1960.8000488281</ele>
        <time>2023-08-12T09:56:54.000Z</time>
      </trkpt>
      <trkpt lat="45.18281" lon="5.95467">
        <ele>1961.8000488281</ele>
        <time>2023-08-12T09:56:59.000Z</time>
      </trkpt>
      <trkpt lat="45.18281" lon="5.95467">
        <ele>1962</ele>
        <time>2023-08-12T09:57:00.000Z</time>
      </trkpt>
      <trkpt lat="45.18281" lon="5.95466">
        <ele>1963</ele>
        <time>2023-08-12T09:57:04.000Z</time>
      </trkpt>
      <trkpt lat="45.1828" lon="5.95465">
        <ele>1963.5999755859</ele>
        <time>2023-08-12T09:57:10.000Z</time>
      </trkpt>
      <trkpt lat="45.1828" lon="5.95462">
        <ele>1963.8000488281</ele>
        <time>2023-08-12T09:57:18.000Z</time>
      </trkpt>
      <trkpt lat="45.18283" lon="5.95463">
        <ele>1963.8000488281</ele>
        <time>2023-08-12T09:57:26.000Z</time>
      </trkpt>
      <trkpt lat="45.1828" lon="5.95463">
        <ele>1964</ele>
        <time>2023-08-12T09:57:37.000Z</time>
      </trkpt>
      <trkpt lat="45.1828" lon="5.95463">
        <ele>1964</ele>
        <time>2023-08-12T09:57:38.000Z</time>
      </trkpt>
      <trkpt lat="45.18277" lon="5.95456">
        <ele>1964.8000488281</ele>
        <time>2023-08-12T09:57:44.000Z</time>
      </trkpt>
      <trkpt lat="45.18277" lon="5.95455">
        <ele>1965</ele>
        <time>2023-08-12T09:57:45.000Z</time>
      </trkpt>
      <trkpt lat="45.18276" lon="5.95456">
        <ele>1966</ele>
        <time>2023-08-12T09:57:51.000Z</time>
      </trkpt>
      <trkpt lat="45.18276" lon="5.95457">
        <ele>1966.1999511719</ele>
        <time>2023-08-12T09:57:52.000Z</time>
      </trkpt>
      <trkpt lat="45.18278" lon="5.95454">
        <ele>1966.4000244141</ele>
        <time>2023-08-12T09:57:59.000Z</time>
      </trkpt>
      <trkpt lat="45.18277" lon="5.95456">
        <ele>1966.1999511719</ele>
        <time>2023-08-12T09:58:15.000Z</time>
      </trkpt>
      <trkpt lat="45.18278" lon="5.95454">
        <ele>1967.1999511719</ele>
        <time>2023-08-12T09:58:22.000Z</time>
      </trkpt>
      <trkpt lat="45.18277" lon="5.95454">
        <ele>1967.5999755859</ele>
        <time>2023-08-12T09:58:23.000Z</time>
      </trkpt>
      <trkpt lat="45.18275" lon="5.95449">
        <ele>1968.4000244141</ele>
        <time>2023-08-12T09:58:29.000Z</time>
      </trkpt>
      <trkpt lat="45.18274" lon="5.95449">
        <ele>1968.8000488281</ele>
        <time>2023-08-12T09:58:30.000Z</time>
      </trkpt>
      <trkpt lat="45.18274" lon="5.95447">
        <ele>1969.8000488281</ele>
        <time>2023-08-12T09:58:36.000Z</time>
      </trkpt>
      <trkpt lat="45.18274" lon="5.95447">
        <ele>1970</ele>
        <time>2023-08-12T09:58:37.000Z</time>
      </trkpt>
      <trkpt lat="45.18273" lon="5.95444">
        <ele>1970.8000488281</ele>
        <time>2023-08-12T09:58:42.000Z</time>
      </trkpt>
      <trkpt lat="45.18272" lon="5.95444">
        <ele>1971.8000488281</ele>
        <time>2023-08-12T09:58:46.000Z</time>
      </trkpt>
      <trkpt lat="45.18271" lon="5.95444">
        <ele>1972</ele>
        <time>2023-08-12T09:58:47.000Z</time>
      </trkpt>
      <trkpt lat="45.18268" lon="5.95444">
        <ele>1973</ele>
        <time>2023-08-12T09:58:53.000Z</time>
      </trkpt>
      <trkpt lat="45.18267" lon="5.95444">
        <ele>1973.1999511719</ele>
        <time>2023-08-12T09:58:54.000Z</time>
      </trkpt>
      <trkpt lat="45.18265" lon="5.95444">
        <ele>1974</ele>
        <time>2023-08-12T09:58:59.000Z</time>
      </trkpt>
      <trkpt lat="45.18264" lon="5.95443">
        <ele>1974.5999755859</ele>
        <time>2023-08-12T09:59:02.000Z</time>
      </trkpt>
      <trkpt lat="45.18264" lon="5.95443">
        <ele>1975</ele>
        <time>2023-08-12T09:59:05.000Z</time>
      </trkpt>
      <trkpt lat="45.18266" lon="5.95439">
        <ele>1975.5999755859</ele>
        <time>2023-08-12T09:59:13.000Z</time>
      </trkpt>
      <trkpt lat="45.18265" lon="5.95438">
        <ele>1976.1999511719</ele>
        <time>2023-08-12T09:59:17.000Z</time>
      </trkpt>
      <trkpt lat="45.18265" lon="5.95438">
        <ele>1977.1999511719</ele>
        <time>2023-08-12T09:59:22.000Z</time>
      </trkpt>
      <trkpt lat="45.18265" lon="5.95438">
        <ele>1977.4000244141</ele>
        <time>2023-08-12T09:59:23.000Z</time>
      </trkpt>
      <trkpt lat="45.18269" lon="5.9543">
        <ele>1978.5999755859</ele>
        <time>2023-08-12T09:59:37.000Z</time>
      </trkpt>
      <trkpt lat="45.1827" lon="5.95424">
        <ele>1980.4000244141</ele>
        <time>2023-08-12T09:59:50.000Z</time>
      </trkpt>
      <trkpt lat="45.18271" lon="5.95422">
        <ele>1980.8000488281</ele>
        <time>2023-08-12T09:59:52.000Z</time>
      </trkpt>
      <trkpt lat="45.18271" lon="5.95419">
        <ele>1981.8000488281</ele>
        <time>2023-08-12T09:59:57.000Z</time>
      </trkpt>
      <trkpt lat="45.18272" lon="5.95418">
        <ele>1982.4000244141</ele>
        <time>2023-08-12T10:00:00.000Z</time>
      </trkpt>
      <trkpt lat="45.18271" lon="5.95412">
        <ele>1984</ele>
        <time>2023-08-12T10:00:13.000Z</time>
      </trkpt>
      <trkpt lat="45.18271" lon="5.95406">
        <ele>1985.8000488281</ele>
        <time>2023-08-12T10:00:24.000Z</time>
      </trkpt>
      <trkpt lat="45.1827" lon="5.95407">
        <ele>1986.1999511719</ele>
        <time>2023-08-12T10:00:26.000Z</time>
      </trkpt>
      <trkpt lat="45.18271" lon="5.95401">
        <ele>1988.4000244141</ele>
        <time>2023-08-12T10:00:39.000Z</time>
      </trkpt>
      <trkpt lat="45.18273" lon="5.95399">
        <ele>1988.5999755859</ele>
        <time>2023-08-12T10:00:41.000Z</time>
      </trkpt>
      <trkpt lat="45.18273" lon="5.95398">
        <ele>1989.4000244141</ele>
        <time>2023-08-12T10:00:46.000Z</time>
      </trkpt>
      <trkpt lat="45.18271" lon="5.95393">
        <ele>1990.1999511719</ele>
        <time>2023-08-12T10:00:51.000Z</time>
      </trkpt>
      <trkpt lat="45.18272" lon="5.95392">
        <ele>1990.5999755859</ele>
        <time>2023-08-12T10:00:53.000Z</time>
      </trkpt>
      <trkpt lat="45.18272" lon="5.95389">
        <ele>1992.1999511719</ele>
        <time>2023-08-12T10:01:02.000Z</time>
      </trkpt>
      <trkpt lat="45.18272" lon="5.95385">
        <ele>1993.1999511719</ele>
        <time>2023-08-12T10:01:08.000Z</time>
      </trkpt>
      <trkpt lat="45.18273" lon="5.95385">
        <ele>1993.5999755859</ele>
        <time>2023-08-12T10:01:11.000Z</time>
      </trkpt>
      <trkpt lat="45.18272" lon="5.95382">
        <ele>1994.1999511719</ele>
        <time>2023-08-12T10:01:15.000Z</time>
      </trkpt>
      <trkpt lat="45.18272" lon="5.9538">
        <ele>1994.5999755859</ele>
        <time>2023-08-12T10:01:19.000Z</time>
      </trkpt>
      <trkpt lat="45.18275" lon="5.95378">
        <ele>1995.1999511719</ele>
        <time>2023-08-12T10:01:23.000Z</time>
      </trkpt>
      <trkpt lat="45.18277" lon="5.95375">
        <ele>1995.8000488281</ele>
        <time>2023-08-12T10:01:28.000Z</time>
      </trkpt>
      <trkpt lat="45.18279" lon="5.95377">
        <ele>1996.4000244141</ele>
        <time>2023-08-12T10:01:32.000Z</time>
      </trkpt>
      <trkpt lat="45.18279" lon="5.95378">
        <ele>1997</ele>
        <time>2023-08-12T10:01:35.000Z</time>
      </trkpt>
      <trkpt lat="45.18279" lon="5.95377">
        <ele>1997.5999755859</ele>
        <time>2023-08-12T10:01:56.000Z</time>
      </trkpt>
      <trkpt lat="45.18282" lon="5.95371">
        <ele>1999</ele>
        <time>2023-08-12T10:02:05.000Z</time>
      </trkpt>
      <trkpt lat="45.18281" lon="5.95369">
        <ele>1999.5999755859</ele>
        <time>2023-08-12T10:02:09.000Z</time>
      </trkpt>
      <trkpt lat="45.18281" lon="5.95368">
        <ele>2000</ele>
        <time>2023-08-12T10:02:13.000Z</time>
      </trkpt>
      <trkpt lat="45.1828" lon="5.95366">
        <ele>2000.5999755859</ele>
        <time>2023-08-12T10:02:16.000Z</time>
      </trkpt>
      <trkpt lat="45.1828" lon="5.95364">
        <ele>2001.1999511719</ele>
        <time>2023-08-12T10:02:20.000Z</time>
      </trkpt>
      <trkpt lat="45.1828" lon="5.95364">
        <ele>2001.5999755859</ele>
        <time>2023-08-12T10:02:22.000Z</time>
      </trkpt>
      <trkpt lat="45.1828" lon="5.95363">
        <ele>2002.1999511719</ele>
        <time>2023-08-12T10:02:26.000Z</time>
      </trkpt>
      <trkpt lat="45.18281" lon="5.95359">
        <ele>2003.8000488281</ele>
        <time>2023-08-12T10:02:37.000Z</time>
      </trkpt>
      <trkpt lat="45.18286" lon="5.95357">
        <ele>2005</ele>
        <time>2023-08-12T10:02:45.000Z</time>
      </trkpt>
      <trkpt lat="45.18288" lon="5.95354">
        <ele>2006</ele>
        <time>2023-08-12T10:02:51.000Z</time>
      </trkpt>
      <trkpt lat="45.18288" lon="5.95352">
        <ele>2006.4000244141</ele>
        <time>2023-08-12T10:02:55.000Z</time>
      </trkpt>
      <trkpt lat="45.18289" lon="5.95349">
        <ele>2007</ele>
        <time>2023-08-12T10:02:59.000Z</time>
      </trkpt>
      <trkpt lat="45.18289" lon="5.95345">
        <ele>2007.8000488281</ele>
        <time>2023-08-12T10:03:04.000Z</time>
      </trkpt>
      <trkpt lat="45.18289" lon="5.95344">
        <ele>2008.1999511719</ele>
        <time>2023-08-12T10:03:07.000Z</time>
      </trkpt>
      <trkpt lat="45.18287" lon="5.9534">
        <ele>2008.8000488281</ele>
        <time>2023-08-12T10:03:12.000Z</time>
      </trkpt>
      <trkpt lat="45.18286" lon="5.95339">
        <ele>2009.1999511719</ele>
        <time>2023-08-12T10:03:14.000Z</time>
      </trkpt>
      <trkpt lat="45.18284" lon="5.95339">
        <ele>2010.1999511719</ele>
        <time>2023-08-12T10:03:21.000Z</time>
      </trkpt>
      <trkpt lat="45.18282" lon="5.95341">
        <ele>2012.1999511719</ele>
        <time>2023-08-12T10:03:45.000Z</time>
      </trkpt>
      <trkpt lat="45.18285" lon="5.95334">
        <ele>2012.4000244141</ele>
        <time>2023-08-12T10:03:52.000Z</time>
      </trkpt>
      <trkpt lat="45.18284" lon="5.95337">
        <ele>2012.4000244141</ele>
        <time>2023-08-12T10:03:59.000Z</time>
      </trkpt>
      <trkpt lat="45.18283" lon="5.95337">
        <ele>2012.5999755859</ele>
        <time>2023-08-12T10:04:01.000Z</time>
      </trkpt>
      <trkpt lat="45.18282" lon="5.95335">
        <ele>2012.5999755859</ele>
        <time>2023-08-12T10:04:08.000Z</time>
      </trkpt>
      <trkpt lat="45.18282" lon="5.95335">
        <ele>2012.8000488281</ele>
        <time>2023-08-12T10:04:14.000Z</time>
      </trkpt>
      <trkpt lat="45.18282" lon="5.95335">
        <ele>2013</ele>
        <time>2023-08-12T10:04:22.000Z</time>
      </trkpt>
      <trkpt lat="45.18281" lon="5.95335">
        <ele>2013</ele>
        <time>2023-08-12T10:04:29.000Z</time>
      </trkpt>
      <trkpt lat="45.18278" lon="5.95336">
        <ele>2013.5999755859</ele>
        <time>2023-08-12T10:04:34.000Z</time>
      </trkpt>
      <trkpt lat="45.18279" lon="5.9533">
        <ele>2016.5999755859</ele>
        <time>2023-08-12T10:04:53.000Z</time>
      </trkpt>
      <trkpt lat="45.18278" lon="5.95329">
        <ele>2016.8000488281</ele>
        <time>2023-08-12T10:04:55.000Z</time>
      </trkpt>
      <trkpt lat="45.18277" lon="5.95327">
        <ele>2017.1999511719</ele>
        <time>2023-08-12T10:04:58.000Z</time>
      </trkpt>
      <trkpt lat="45.18275" lon="5.95326">
        <ele>2018</ele>
        <time>2023-08-12T10:05:02.000Z</time>
      </trkpt>
      <trkpt lat="45.18275" lon="5.95325">
        <ele>2018.1999511719</ele>
        <time>2023-08-12T10:05:05.000Z</time>
      </trkpt>
      <trkpt lat="45.18276" lon="5.95325">
        <ele>2019</ele>
        <time>2023-08-12T10:05:09.000Z</time>
      </trkpt>
      <trkpt lat="45.18275" lon="5.95323">
        <ele>2019.1999511719</ele>
        <time>2023-08-12T10:05:11.000Z</time>
      </trkpt>
      <trkpt lat="45.18274" lon="5.95321">
        <ele>2020</ele>
        <time>2023-08-12T10:05:16.000Z</time>
      </trkpt>
      <trkpt lat="45.18274" lon="5.9532">
        <ele>2020.1999511719</ele>
        <time>2023-08-12T10:05:17.000Z</time>
      </trkpt>
      <trkpt lat="45.18274" lon="5.95317">
        <ele>2021</ele>
        <time>2023-08-12T10:05:21.000Z</time>
      </trkpt>
      <trkpt lat="45.18274" lon="5.95316">
        <ele>2021.5999755859</ele>
        <time>2023-08-12T10:05:25.000Z</time>
      </trkpt>
      <trkpt lat="45.18273" lon="5.95315">
        <ele>2022</ele>
        <time>2023-08-12T10:05:28.000Z</time>
      </trkpt>
      <trkpt lat="45.18273" lon="5.95315">
        <ele>2022.4000244141</ele>
        <time>2023-08-12T10:05:31.000Z</time>
      </trkpt>
      <trkpt lat="45.18276" lon="5.9531">
        <ele>2024</ele>
        <time>2023-08-12T10:05:41.000Z</time>
      </trkpt>
      <trkpt lat="45.18276" lon="5.95311">
        <ele>2025.4000244141</ele>
        <time>2023-08-12T10:05:51.000Z</time>
      </trkpt>
      <trkpt lat="45.18276" lon="5.9531">
        <ele>2025.5999755859</ele>
        <time>2023-08-12T10:05:52.000Z</time>
      </trkpt>
      <trkpt lat="45.18275" lon="5.95308">
        <ele>2026.5999755859</ele>
        <time>2023-08-12T10:05:58.000Z</time>
      </trkpt>
      <trkpt lat="45.18275" lon="5.95308">
        <ele>2026.8000488281</ele>
        <time>2023-08-12T10:06:00.000Z</time>
      </trkpt>
      <trkpt lat="45.18273" lon="5.95306">
        <ele>2027.5999755859</ele>
        <time>2023-08-12T10:06:07.000Z</time>
      </trkpt>
      <trkpt lat="45.18273" lon="5.95302">
        <ele>2028.8000488281</ele>
        <time>2023-08-12T10:06:13.000Z</time>
      </trkpt>
      <trkpt lat="45.18274" lon="5.95302">
        <ele>2029</ele>
        <time>2023-08-12T10:06:15.000Z</time>
      </trkpt>
      <trkpt lat="45.18274" lon="5.95301">
        <ele>2029.8000488281</ele>
        <time>2023-08-12T10:06:19.000Z</time>
      </trkpt>
      <trkpt lat="45.18274" lon="5.953">
        <ele>2030</ele>
        <time>2023-08-12T10:06:22.000Z</time>
      </trkpt>
      <trkpt lat="45.18272" lon="5.95301">
        <ele>2030.8000488281</ele>
        <time>2023-08-12T10:06:27.000Z</time>
      </trkpt>
      <trkpt lat="45.18271" lon="5.953">
        <ele>2031.5999755859</ele>
        <time>2023-08-12T10:06:31.000Z</time>
      </trkpt>
      <trkpt lat="45.18269" lon="5.95294">
        <ele>2033</ele>
        <time>2023-08-12T10:06:40.000Z</time>
      </trkpt>
      <trkpt lat="45.18268" lon="5.95295">
        <ele>2034</ele>
        <time>2023-08-12T10:06:48.000Z</time>
      </trkpt>
      <trkpt lat="45.1827" lon="5.95292">
        <ele>2035</ele>
        <time>2023-08-12T10:06:56.000Z</time>
      </trkpt>
      <trkpt lat="45.1827" lon="5.95289">
        <ele>2036.1999511719</ele>
        <time>2023-08-12T10:07:02.000Z</time>
      </trkpt>
      <trkpt lat="45.18271" lon="5.95287">
        <ele>2036.5999755859</ele>
        <time>2023-08-12T10:07:06.000Z</time>
      </trkpt>
      <trkpt lat="45.18272" lon="5.95283">
        <ele>2037.1999511719</ele>
        <time>2023-08-12T10:07:10.000Z</time>
      </trkpt>
      <trkpt lat="45.18272" lon="5.95283">
        <ele>2038.1999511719</ele>
        <time>2023-08-12T10:07:16.000Z</time>
      </trkpt>
      <trkpt lat="45.18272" lon="5.95282">
        <ele>2038.4000244141</ele>
        <time>2023-08-12T10:07:17.000Z</time>
      </trkpt>
      <trkpt lat="45.1827" lon="5.95281">
        <ele>2039.5999755859</ele>
        <time>2023-08-12T10:07:23.000Z</time>
      </trkpt>
      <trkpt lat="45.18269" lon="5.9528">
        <ele>2039.8000488281</ele>
        <time>2023-08-12T10:07:25.000Z</time>
      </trkpt>
      <trkpt lat="45.18269" lon="5.95282">
        <ele>2040.8000488281</ele>
        <time>2023-08-12T10:07:28.000Z</time>
      </trkpt>
      <trkpt lat="45.18269" lon="5.95282">
        <ele>2041.1999511719</ele>
        <time>2023-08-12T10:07:32.000Z</time>
      </trkpt>
      <trkpt lat="45.18266" lon="5.95279">
        <ele>2041.1999511719</ele>
        <time>2023-08-12T10:07:50.000Z</time>
      </trkpt>
      <trkpt lat="45.18266" lon="5.95277">
        <ele>2042</ele>
        <time>2023-08-12T10:07:56.000Z</time>
      </trkpt>
      <trkpt lat="45.18267" lon="5.95276">
        <ele>2042.4000244141</ele>
        <time>2023-08-12T10:07:59.000Z</time>
      </trkpt>
      <trkpt lat="45.18267" lon="5.95275">
        <ele>2043</ele>
        <time>2023-08-12T10:08:02.000Z</time>
      </trkpt>
      <trkpt lat="45.18267" lon="5.95275">
        <ele>2043.5999755859</ele>
        <time>2023-08-12T10:08:06.000Z</time>
      </trkpt>
      <trkpt lat="45.18257" lon="5.95267">
        <ele>2048.3999023438</ele>
        <time>2023-08-12T10:08:36.000Z</time>
      </trkpt>
      <trkpt lat="45.18256" lon="5.95265">
        <ele>2048.8000488281</ele>
        <time>2023-08-12T10:08:37.000Z</time>
      </trkpt>
      <trkpt lat="45.18255" lon="5.95264">
        <ele>2049.6000976562</ele>
        <time>2023-08-12T10:08:42.000Z</time>
      </trkpt>
      <trkpt lat="45.18255" lon="5.95264">
        <ele>2050</ele>
        <time>2023-08-12T10:08:44.000Z</time>
      </trkpt>
      <trkpt lat="45.18253" lon="5.95262">
        <ele>2050.6000976562</ele>
        <time>2023-08-12T10:08:48.000Z</time>
      </trkpt>
      <trkpt lat="45.18253" lon="5.95261">
        <ele>2051.6000976562</ele>
        <time>2023-08-12T10:08:55.000Z</time>
      </trkpt>
      <trkpt lat="45.18256" lon="5.95261">
        <ele>2053</ele>
        <time>2023-08-12T10:09:03.000Z</time>
      </trkpt>
      <trkpt lat="45.1826" lon="5.95256">
        <ele>2054.8000488281</ele>
        <time>2023-08-12T10:09:14.000Z</time>
      </trkpt>
      <trkpt lat="45.1826" lon="5.95255">
        <ele>2055</ele>
        <time>2023-08-12T10:09:15.000Z</time>
      </trkpt>
      <trkpt lat="45.18261" lon="5.95255">
        <ele>2055.3999023438</ele>
        <time>2023-08-12T10:09:18.000Z</time>
      </trkpt>
      <trkpt lat="45.18261" lon="5.95254">
        <ele>2056</ele>
        <time>2023-08-12T10:09:21.000Z</time>
      </trkpt>
      <trkpt lat="45.1826" lon="5.9525">
        <ele>2057.8000488281</ele>
        <time>2023-08-12T10:09:30.000Z</time>
      </trkpt>
      <trkpt lat="45.18259" lon="5.95249">
        <ele>2058.1999511719</ele>
        <time>2023-08-12T10:09:32.000Z</time>
      </trkpt>
      <trkpt lat="45.18258" lon="5.95246">
        <ele>2059.1999511719</ele>
        <time>2023-08-12T10:09:37.000Z</time>
      </trkpt>
      <trkpt lat="45.18257" lon="5.95246">
        <ele>2059.3999023438</ele>
        <time>2023-08-12T10:09:38.000Z</time>
      </trkpt>
      <trkpt lat="45.18256" lon="5.95246">
        <ele>2060.3999023438</ele>
        <time>2023-08-12T10:09:44.000Z</time>
      </trkpt>
      <trkpt lat="45.18255" lon="5.95246">
        <ele>2060.8000488281</ele>
        <time>2023-08-12T10:09:46.000Z</time>
      </trkpt>
      <trkpt lat="45.18252" lon="5.95245">
        <ele>2061.6000976562</ele>
        <time>2023-08-12T10:09:50.000Z</time>
      </trkpt>
      <trkpt lat="45.18252" lon="5.95245">
        <ele>2062</ele>
        <time>2023-08-12T10:09:52.000Z</time>
      </trkpt>
      <trkpt lat="45.18252" lon="5.95242">
        <ele>2062.6000976562</ele>
        <time>2023-08-12T10:10:01.000Z</time>
      </trkpt>
      <trkpt lat="45.18253" lon="5.95242">
        <ele>2062.6000976562</ele>
        <time>2023-08-12T10:10:07.000Z</time>
      </trkpt>
      <trkpt lat="45.18253" lon="5.95242">
        <ele>2062.6000976562</ele>
        <time>2023-08-12T10:10:08.000Z</time>
      </trkpt>
      <trkpt lat="45.18249" lon="5.9524">
        <ele>2063.6000976562</ele>
        <time>2023-08-12T10:10:16.000Z</time>
      </trkpt>
      <trkpt lat="45.18248" lon="5.9524">
        <ele>2063.6000976562</ele>
        <time>2023-08-12T10:10:17.000Z</time>
      </trkpt>
      <trkpt lat="45.18244" lon="5.95239">
        <ele>2065</ele>
        <time>2023-08-12T10:10:24.000Z</time>
      </trkpt>
      <trkpt lat="45.18244" lon="5.95236">
        <ele>2066</ele>
        <time>2023-08-12T10:10:31.000Z</time>
      </trkpt>
      <trkpt lat="45.18245" lon="5.95236">
        <ele>2066.1999511719</ele>
        <time>2023-08-12T10:10:32.000Z</time>
      </trkpt>
      <trkpt lat="45.18245" lon="5.95234">
        <ele>2067</ele>
        <time>2023-08-12T10:10:36.000Z</time>
      </trkpt>
      <trkpt lat="45.18244" lon="5.95233">
        <ele>2069</ele>
        <time>2023-08-12T10:10:48.000Z</time>
      </trkpt>
      <trkpt lat="45.18248" lon="5.95227">
        <ele>2070.3999023438</ele>
        <time>2023-08-12T10:10:58.000Z</time>
      </trkpt>
      <trkpt lat="45.18251" lon="5.95226">
        <ele>2071.3999023438</ele>
        <time>2023-08-12T10:11:03.000Z</time>
      </trkpt>
      <trkpt lat="45.18256" lon="5.95224">
        <ele>2075</ele>
        <time>2023-08-12T10:11:21.000Z</time>
      </trkpt>
      <trkpt lat="45.18251" lon="5.95222">
        <ele>2076</ele>
        <time>2023-08-12T10:11:28.000Z</time>
      </trkpt>
      <trkpt lat="45.18252" lon="5.9522">
        <ele>2076.1999511719</ele>
        <time>2023-08-12T10:11:33.000Z</time>
      </trkpt>
      <trkpt lat="45.18251" lon="5.9522">
        <ele>2077</ele>
        <time>2023-08-12T10:11:40.000Z</time>
      </trkpt>
      <trkpt lat="45.18249" lon="5.95221">
        <ele>2078</ele>
        <time>2023-08-12T10:11:44.000Z</time>
      </trkpt>
      <trkpt lat="45.18249" lon="5.9522">
        <ele>2078.1999511719</ele>
        <time>2023-08-12T10:11:45.000Z</time>
      </trkpt>
      <trkpt lat="45.18248" lon="5.95218">
        <ele>2080.1999511719</ele>
        <time>2023-08-12T10:11:58.000Z</time>
      </trkpt>
      <trkpt lat="45.1825" lon="5.95216">
        <ele>2080.3999023438</ele>
        <time>2023-08-12T10:11:59.000Z</time>
      </trkpt>
      <trkpt lat="45.18251" lon="5.95213">
        <ele>2081.1999511719</ele>
        <time>2023-08-12T10:12:03.000Z</time>
      </trkpt>
      <trkpt lat="45.18252" lon="5.95215">
        <ele>2081.6000976562</ele>
        <time>2023-08-12T10:12:07.000Z</time>
      </trkpt>
      <trkpt lat="45.1825" lon="5.95214">
        <ele>2081.8000488281</ele>
        <time>2023-08-12T10:12:14.000Z</time>
      </trkpt>
      <trkpt lat="45.18248" lon="5.95213">
        <ele>2082.3999023438</ele>
        <time>2023-08-12T10:12:19.000Z</time>
      </trkpt>
      <trkpt lat="45.18247" lon="5.95212">
        <ele>2082.3999023438</ele>
        <time>2023-08-12T10:12:20.000Z</time>
      </trkpt>
      <trkpt lat="45.18244" lon="5.9521">
        <ele>2083.3999023438</ele>
        <time>2023-08-12T10:12:26.000Z</time>
      </trkpt>
      <trkpt lat="45.18243" lon="5.95208">
        <ele>2084.1999511719</ele>
        <time>2023-08-12T10:12:30.000Z</time>
      </trkpt>
      <trkpt lat="45.18244" lon="5.95208">
        <ele>2084.3999023438</ele>
        <time>2023-08-12T10:12:32.000Z</time>
      </trkpt>
      <trkpt lat="45.18245" lon="5.95207">
        <ele>2085.3999023438</ele>
        <time>2023-08-12T10:12:37.000Z</time>
      </trkpt>
      <trkpt lat="45.18244" lon="5.95208">
        <ele>2085.6000976562</ele>
        <time>2023-08-12T10:12:44.000Z</time>
      </trkpt>
      <trkpt lat="45.18242" lon="5.95204">
        <ele>2086.6000976562</ele>
        <time>2023-08-12T10:12:50.000Z</time>
      </trkpt>
      <trkpt lat="45.18241" lon="5.95203">
        <ele>2087</ele>
        <time>2023-08-12T10:12:53.000Z</time>
      </trkpt>
      <trkpt lat="45.18243" lon="5.95201">
        <ele>2087.1999511719</ele>
        <time>2023-08-12T10:13:01.000Z</time>
      </trkpt>
      <trkpt lat="45.18242" lon="5.95198">
        <ele>2087.8000488281</ele>
        <time>2023-08-12T10:13:04.000Z</time>
      </trkpt>
      <trkpt lat="45.18243" lon="5.95198">
        <ele>2088.8000488281</ele>
        <time>2023-08-12T10:13:09.000Z</time>
      </trkpt>
      <trkpt lat="45.18244" lon="5.95196">
        <ele>2090</ele>
        <time>2023-08-12T10:13:20.000Z</time>
      </trkpt>
      <trkpt lat="45.18244" lon="5.95191">
        <ele>2091</ele>
        <time>2023-08-12T10:13:27.000Z</time>
      </trkpt>
      <trkpt lat="45.18246" lon="5.95193">
        <ele>2092</ele>
        <time>2023-08-12T10:13:39.000Z</time>
      </trkpt>
      <trkpt lat="45.18245" lon="5.95192">
        <ele>2092.3999023438</ele>
        <time>2023-08-12T10:13:41.000Z</time>
      </trkpt>
      <trkpt lat="45.18244" lon="5.95191">
        <ele>2093.1999511719</ele>
        <time>2023-08-12T10:13:45.000Z</time>
      </trkpt>
      <trkpt lat="45.18243" lon="5.95188">
        <ele>2094.1999511719</ele>
        <time>2023-08-12T10:13:52.000Z</time>
      </trkpt>
      <trkpt lat="45.18243" lon="5.95188">
        <ele>2095.3999023438</ele>
        <time>2023-08-12T10:13:59.000Z</time>
      </trkpt>
      <trkpt lat="45.18243" lon="5.95188">
        <ele>2096</ele>
        <time>2023-08-12T10:14:02.000Z</time>
      </trkpt>
      <trkpt lat="45.1824" lon="5.95181">
        <ele>2098.8000488281</ele>
        <time>2023-08-12T10:14:14.000Z</time>
      </trkpt>
      <trkpt lat="45.18238" lon="5.95176">
        <ele>2099.1999511719</ele>
        <time>2023-08-12T10:14:27.000Z</time>
      </trkpt>
      <trkpt lat="45.1824" lon="5.95175">
        <ele>2099.3999023438</ele>
        <time>2023-08-12T10:14:35.000Z</time>
      </trkpt>
      <trkpt lat="45.18244" lon="5.95177">
        <ele>2099.6000976562</ele>
        <time>2023-08-12T10:14:46.000Z</time>
      </trkpt>
      <trkpt lat="45.18241" lon="5.95179">
        <ele>2099.6000976562</ele>
        <time>2023-08-12T10:14:53.000Z</time>
      </trkpt>
      <trkpt lat="45.1824" lon="5.95178">
        <ele>2099.8000488281</ele>
        <time>2023-08-12T10:14:55.000Z</time>
      </trkpt>
      <trkpt lat="45.18237" lon="5.95175">
        <ele>2100.6000976562</ele>
        <time>2023-08-12T10:15:00.000Z</time>
      </trkpt>
      <trkpt lat="45.18237" lon="5.95173">
        <ele>2100.8000488281</ele>
        <time>2023-08-12T10:15:03.000Z</time>
      </trkpt>
      <trkpt lat="45.18234" lon="5.95171">
        <ele>2101.8000488281</ele>
        <time>2023-08-12T10:15:08.000Z</time>
      </trkpt>
      <trkpt lat="45.18233" lon="5.95175">
        <ele>2102.1999511719</ele>
        <time>2023-08-12T10:15:11.000Z</time>
      </trkpt>
      <trkpt lat="45.18233" lon="5.95176">
        <ele>2103</ele>
        <time>2023-08-12T10:15:15.000Z</time>
      </trkpt>
      <trkpt lat="45.18232" lon="5.95176">
        <ele>2103.8000488281</ele>
        <time>2023-08-12T10:15:21.000Z</time>
      </trkpt>
      <trkpt lat="45.18231" lon="5.95176">
        <ele>2104.1999511719</ele>
        <time>2023-08-12T10:15:23.000Z</time>
      </trkpt>
      <trkpt lat="45.1823" lon="5.95172">
        <ele>2104.8000488281</ele>
        <time>2023-08-12T10:15:28.000Z</time>
      </trkpt>
      <trkpt lat="45.18229" lon="5.9517">
        <ele>2105.1999511719</ele>
        <time>2023-08-12T10:15:30.000Z</time>
      </trkpt>
      <trkpt lat="45.18228" lon="5.95165">
        <ele>2106.3999023438</ele>
        <time>2023-08-12T10:15:37.000Z</time>
      </trkpt>
      <trkpt lat="45.1823" lon="5.95166">
        <ele>2108.6000976562</ele>
        <time>2023-08-12T10:15:49.000Z</time>
      </trkpt>
      <trkpt lat="45.18231" lon="5.95165">
        <ele>2109.1999511719</ele>
        <time>2023-08-12T10:15:54.000Z</time>
      </trkpt>
      <trkpt lat="45.18231" lon="5.95164">
        <ele>2109.6000976562</ele>
        <time>2023-08-12T10:15:56.000Z</time>
      </trkpt>
      <trkpt lat="45.1823" lon="5.95166">
        <ele>2110.1999511719</ele>
        <time>2023-08-12T10:16:04.000Z</time>
      </trkpt>
      <trkpt lat="45.18237" lon="5.95156">
        <ele>2112.6000976562</ele>
        <time>2023-08-12T10:16:26.000Z</time>
      </trkpt>
      <trkpt lat="45.18237" lon="5.95156">
        <ele>2112.8000488281</ele>
        <time>2023-08-12T10:16:27.000Z</time>
      </trkpt>
      <trkpt lat="45.18238" lon="5.95156">
        <ele>2113.8000488281</ele>
        <time>2023-08-12T10:16:34.000Z</time>
      </trkpt>
      <trkpt lat="45.18241" lon="5.95155">
        <ele>2115</ele>
        <time>2023-08-12T10:16:42.000Z</time>
      </trkpt>
      <trkpt lat="45.18244" lon="5.95153">
        <ele>2115.8000488281</ele>
        <time>2023-08-12T10:16:50.000Z</time>
      </trkpt>
      <trkpt lat="45.18244" lon="5.95152">
        <ele>2116</ele>
        <time>2023-08-12T10:16:51.000Z</time>
      </trkpt>
      <trkpt lat="45.18247" lon="5.95152">
        <ele>2117.1999511719</ele>
        <time>2023-08-12T10:17:00.000Z</time>
      </trkpt>
      <trkpt lat="45.18247" lon="5.95148">
        <ele>2117.6000976562</ele>
        <time>2023-08-12T10:17:03.000Z</time>
      </trkpt>
      <trkpt lat="45.1825" lon="5.95146">
        <ele>2118.1999511719</ele>
        <time>2023-08-12T10:17:08.000Z</time>
      </trkpt>
      <trkpt lat="45.1825" lon="5.95146">
        <ele>2119</ele>
        <time>2023-08-12T10:17:11.000Z</time>
      </trkpt>
      <trkpt lat="45.18251" lon="5.95144">
        <ele>2119.3999023438</ele>
        <time>2023-08-12T10:17:14.000Z</time>
      </trkpt>
      <trkpt lat="45.18251" lon="5.95143">
        <ele>2119.8000488281</ele>
        <time>2023-08-12T10:17:17.000Z</time>
      </trkpt>
      <trkpt lat="45.18251" lon="5.95143">
        <ele>2120.1999511719</ele>
        <time>2023-08-12T10:17:25.000Z</time>
      </trkpt>
      <trkpt lat="45.18253" lon="5.95141">
        <ele>2120.6000976562</ele>
        <time>2023-08-12T10:17:34.000Z</time>
      </trkpt>
      <trkpt lat="45.18253" lon="5.95137">
        <ele>2121.6000976562</ele>
        <time>2023-08-12T10:17:42.000Z</time>
      </trkpt>
      <trkpt lat="45.18253" lon="5.95137">
        <ele>2121.8000488281</ele>
        <time>2023-08-12T10:17:43.000Z</time>
      </trkpt>
      <trkpt lat="45.18254" lon="5.95136">
        <ele>2122.6000976562</ele>
        <time>2023-08-12T10:17:46.000Z</time>
      </trkpt>
      <trkpt lat="45.18256" lon="5.95134">
        <ele>2123.3999023438</ele>
        <time>2023-08-12T10:17:53.000Z</time>
      </trkpt>
      <trkpt lat="45.18256" lon="5.95133">
        <ele>2123.6000976562</ele>
        <time>2023-08-12T10:17:57.000Z</time>
      </trkpt>
      <trkpt lat="45.1826" lon="5.9513">
        <ele>2125.6000976562</ele>
        <time>2023-08-12T10:18:08.000Z</time>
      </trkpt>
      <trkpt lat="45.1826" lon="5.95129">
        <ele>2125.8000488281</ele>
        <time>2023-08-12T10:18:09.000Z</time>
      </trkpt>
      <trkpt lat="45.18261" lon="5.95126">
        <ele>2126.6000976562</ele>
        <time>2023-08-12T10:18:15.000Z</time>
      </trkpt>
      <trkpt lat="45.18261" lon="5.95126">
        <ele>2126.8000488281</ele>
        <time>2023-08-12T10:18:16.000Z</time>
      </trkpt>
      <trkpt lat="45.18263" lon="5.95124">
        <ele>2128</ele>
        <time>2023-08-12T10:18:21.000Z</time>
      </trkpt>
      <trkpt lat="45.1826" lon="5.95121">
        <ele>2128.8000488281</ele>
        <time>2023-08-12T10:18:29.000Z</time>
      </trkpt>
      <trkpt lat="45.18259" lon="5.95121">
        <ele>2129</ele>
        <time>2023-08-12T10:18:31.000Z</time>
      </trkpt>
      <trkpt lat="45.18259" lon="5.95123">
        <ele>2130</ele>
        <time>2023-08-12T10:18:44.000Z</time>
      </trkpt>
      <trkpt lat="45.18266" lon="5.9512">
        <ele>2132.1999511719</ele>
        <time>2023-08-12T10:18:57.000Z</time>
      </trkpt>
      <trkpt lat="45.18264" lon="5.95117">
        <ele>2133.1999511719</ele>
        <time>2023-08-12T10:19:04.000Z</time>
      </trkpt>
      <trkpt lat="45.18263" lon="5.95115">
        <ele>2133.6000976562</ele>
        <time>2023-08-12T10:19:07.000Z</time>
      </trkpt>
      <trkpt lat="45.18262" lon="5.95114">
        <ele>2134.3999023438</ele>
        <time>2023-08-12T10:19:12.000Z</time>
      </trkpt>
      <trkpt lat="45.18263" lon="5.95115">
        <ele>2134.8000488281</ele>
        <time>2023-08-12T10:19:15.000Z</time>
      </trkpt>
      <trkpt lat="45.18261" lon="5.95116">
        <ele>2135</ele>
        <time>2023-08-12T10:19:23.000Z</time>
      </trkpt>
      <trkpt lat="45.1826" lon="5.95115">
        <ele>2136</ele>
        <time>2023-08-12T10:19:32.000Z</time>
      </trkpt>
      <trkpt lat="45.1826" lon="5.95114">
        <ele>2136.3999023438</ele>
        <time>2023-08-12T10:19:34.000Z</time>
      </trkpt>
      <trkpt lat="45.18261" lon="5.9511">
        <ele>2137.1999511719</ele>
        <time>2023-08-12T10:19:41.000Z</time>
      </trkpt>
      <trkpt lat="45.1826" lon="5.95112">
        <ele>2137.1999511719</ele>
        <time>2023-08-12T10:19:47.000Z</time>
      </trkpt>
      <trkpt lat="45.18258" lon="5.9511">
        <ele>2137.3999023438</ele>
        <time>2023-08-12T10:19:51.000Z</time>
      </trkpt>
      <trkpt lat="45.18257" lon="5.95109">
        <ele>2138.1999511719</ele>
        <time>2023-08-12T10:19:56.000Z</time>
      </trkpt>
      <trkpt lat="45.18257" lon="5.95108">
        <ele>2138.6000976562</ele>
        <time>2023-08-12T10:19:59.000Z</time>
      </trkpt>
      <trkpt lat="45.18255" lon="5.95107">
        <ele>2139.3999023438</ele>
        <time>2023-08-12T10:20:04.000Z</time>
      </trkpt>
      <trkpt lat="45.18254" lon="5.95106">
        <ele>2139.6000976562</ele>
        <time>2023-08-12T10:20:06.000Z</time>
      </trkpt>
      <trkpt lat="45.18252" lon="5.95105">
        <ele>2140.6000976562</ele>
        <time>2023-08-12T10:20:12.000Z</time>
      </trkpt>
      <trkpt lat="45.18251" lon="5.95103">
        <ele>2140.8000488281</ele>
        <time>2023-08-12T10:20:14.000Z</time>
      </trkpt>
      <trkpt lat="45.18253" lon="5.95101">
        <ele>2141.8000488281</ele>
        <time>2023-08-12T10:20:21.000Z</time>
      </trkpt>
      <trkpt lat="45.18254" lon="5.951">
        <ele>2141.8000488281</ele>
        <time>2023-08-12T10:20:22.000Z</time>
      </trkpt>
      <trkpt lat="45.18256" lon="5.95099">
        <ele>2144</ele>
        <time>2023-08-12T10:20:35.000Z</time>
      </trkpt>
      <trkpt lat="45.18254" lon="5.95099">
        <ele>2145</ele>
        <time>2023-08-12T10:20:42.000Z</time>
      </trkpt>
      <trkpt lat="45.18253" lon="5.95099">
        <ele>2145.1999511719</ele>
        <time>2023-08-12T10:20:43.000Z</time>
      </trkpt>
      <trkpt lat="45.18251" lon="5.95098">
        <ele>2146</ele>
        <time>2023-08-12T10:20:48.000Z</time>
      </trkpt>
      <trkpt lat="45.18251" lon="5.95098">
        <ele>2146.1999511719</ele>
        <time>2023-08-12T10:20:51.000Z</time>
      </trkpt>
      <trkpt lat="45.1825" lon="5.95096">
        <ele>2147.1999511719</ele>
        <time>2023-08-12T10:20:57.000Z</time>
      </trkpt>
      <trkpt lat="45.1825" lon="5.95095">
        <ele>2147.3999023438</ele>
        <time>2023-08-12T10:20:58.000Z</time>
      </trkpt>
      <trkpt lat="45.1825" lon="5.95092">
        <ele>2148.1999511719</ele>
        <time>2023-08-12T10:21:04.000Z</time>
      </trkpt>
      <trkpt lat="45.18251" lon="5.95092">
        <ele>2148.3999023438</ele>
        <time>2023-08-12T10:21:05.000Z</time>
      </trkpt>
      <trkpt lat="45.18251" lon="5.95091">
        <ele>2148.6000976562</ele>
        <time>2023-08-12T10:21:07.000Z</time>
      </trkpt>
      <trkpt lat="45.18252" lon="5.95088">
        <ele>2149.3999023438</ele>
        <time>2023-08-12T10:21:11.000Z</time>
      </trkpt>
      <trkpt lat="45.18253" lon="5.95087">
        <ele>2149.8000488281</ele>
        <time>2023-08-12T10:21:14.000Z</time>
      </trkpt>
      <trkpt lat="45.18254" lon="5.95085">
        <ele>2150.3999023438</ele>
        <time>2023-08-12T10:21:17.000Z</time>
      </trkpt>
      <trkpt lat="45.18258" lon="5.95079">
        <ele>2151.3999023438</ele>
        <time>2023-08-12T10:21:23.000Z</time>
      </trkpt>
      <trkpt lat="45.18258" lon="5.95078">
        <ele>2151.3999023438</ele>
        <time>2023-08-12T10:21:24.000Z</time>
      </trkpt>
      <trkpt lat="45.18256" lon="5.95075">
        <ele>2152.6000976562</ele>
        <time>2023-08-12T10:21:31.000Z</time>
      </trkpt>
      <trkpt lat="45.18255" lon="5.95071">
        <ele>2153.6000976562</ele>
        <time>2023-08-12T10:21:38.000Z</time>
      </trkpt>
      <trkpt lat="45.18254" lon="5.9507">
        <ele>2154</ele>
        <time>2023-08-12T10:21:40.000Z</time>
      </trkpt>
      <trkpt lat="45.18258" lon="5.95069">
        <ele>2154.1999511719</ele>
        <time>2023-08-12T10:21:48.000Z</time>
      </trkpt>
      <trkpt lat="45.18261" lon="5.95069">
        <ele>2154.3999023438</ele>
        <time>2023-08-12T10:21:59.000Z</time>
      </trkpt>
      <trkpt lat="45.18256" lon="5.95071">
        <ele>2154.1999511719</ele>
        <time>2023-08-12T10:22:07.000Z</time>
      </trkpt>
      <trkpt lat="45.18259" lon="5.95069">
        <ele>2154.1999511719</ele>
        <time>2023-08-12T10:22:15.000Z</time>
      </trkpt>
      <trkpt lat="45.18258" lon="5.95068">
        <ele>2154</ele>
        <time>2023-08-12T10:22:22.000Z</time>
      </trkpt>
      <trkpt lat="45.18259" lon="5.95068">
        <ele>2153.3999023438</ele>
        <time>2023-08-12T10:22:32.000Z</time>
      </trkpt>
      <trkpt lat="45.18258" lon="5.95067">
        <ele>2153.6000976562</ele>
        <time>2023-08-12T10:22:43.000Z</time>
      </trkpt>
      <trkpt lat="45.18258" lon="5.95067">
        <ele>2153.3999023438</ele>
        <time>2023-08-12T10:22:52.000Z</time>
      </trkpt>
      <trkpt lat="45.18258" lon="5.95067">
        <ele>2153.1999511719</ele>
        <time>2023-08-12T10:23:01.000Z</time>
      </trkpt>
      <trkpt lat="45.18258" lon="5.95066">
        <ele>2153</ele>
        <time>2023-08-12T10:23:08.000Z</time>
      </trkpt>
      <trkpt lat="45.1826" lon="5.95065">
        <ele>2152.8000488281</ele>
        <time>2023-08-12T10:23:17.000Z</time>
      </trkpt>
      <trkpt lat="45.18263" lon="5.95062">
        <ele>2152.8000488281</ele>
        <time>2023-08-12T10:23:25.000Z</time>
      </trkpt>
      <trkpt lat="45.18263" lon="5.95064">
        <ele>2152.8000488281</ele>
        <time>2023-08-12T10:23:34.000Z</time>
      </trkpt>
      <trkpt lat="45.18262" lon="5.95066">
        <ele>2152.6000976562</ele>
        <time>2023-08-12T10:23:38.000Z</time>
      </trkpt>
      <trkpt lat="45.18261" lon="5.95068">
        <ele>2152.6000976562</ele>
        <time>2023-08-12T10:23:41.000Z</time>
      </trkpt>
      <trkpt lat="45.1826" lon="5.95068">
        <ele>2152</ele>
        <time>2023-08-12T10:23:48.000Z</time>
      </trkpt>
      <trkpt lat="45.1826" lon="5.95069">
        <ele>2151.6000976562</ele>
        <time>2023-08-12T10:23:57.000Z</time>
      </trkpt>
      <trkpt lat="45.1826" lon="5.95067">
        <ele>2151.3999023438</ele>
        <time>2023-08-12T10:24:04.000Z</time>
      </trkpt>
      <trkpt lat="45.1826" lon="5.95067">
        <ele>2151.3999023438</ele>
        <time>2023-08-12T10:24:12.000Z</time>
      </trkpt>
      <trkpt lat="45.18259" lon="5.95068">
        <ele>2151.1999511719</ele>
        <time>2023-08-12T10:24:22.000Z</time>
      </trkpt>
      <trkpt lat="45.1826" lon="5.9507">
        <ele>2151</ele>
        <time>2023-08-12T10:24:33.000Z</time>
      </trkpt>
      <trkpt lat="45.18258" lon="5.95069">
        <ele>2150.8000488281</ele>
        <time>2023-08-12T10:24:40.000Z</time>
      </trkpt>
      <trkpt lat="45.1826" lon="5.95065">
        <ele>2150.6000976562</ele>
        <time>2023-08-12T10:24:49.000Z</time>
      </trkpt>
      <trkpt lat="45.18261" lon="5.95063">
        <ele>2150.6000976562</ele>
        <time>2023-08-12T10:24:52.000Z</time>
      </trkpt>
      <trkpt lat="45.1826" lon="5.95065">
        <ele>2150.3999023438</ele>
        <time>2023-08-12T10:24:59.000Z</time>
      </trkpt>
      <trkpt lat="45.18258" lon="5.95069">
        <ele>2150.1999511719</ele>
        <time>2023-08-12T10:25:06.000Z</time>
      </trkpt>
      <trkpt lat="45.18259" lon="5.95068">
        <ele>2150.1999511719</ele>
        <time>2023-08-12T10:25:13.000Z</time>
      </trkpt>
      <trkpt lat="45.1826" lon="5.95067">
        <ele>2150</ele>
        <time>2023-08-12T10:25:20.000Z</time>
      </trkpt>
      <trkpt lat="45.18261" lon="5.95066">
        <ele>2150</ele>
        <time>2023-08-12T10:25:30.000Z</time>
      </trkpt>
      <trkpt lat="45.18261" lon="5.95067">
        <ele>2150</ele>
        <time>2023-08-12T10:25:40.000Z</time>
      </trkpt>
      <trkpt lat="45.18263" lon="5.95067">
        <ele>2149.8000488281</ele>
        <time>2023-08-12T10:25:50.000Z</time>
      </trkpt>
      <trkpt lat="45.18261" lon="5.95065">
        <ele>2149.6000976562</ele>
        <time>2023-08-12T10:26:00.000Z</time>
      </trkpt>
      <trkpt lat="45.18261" lon="5.95067">
        <ele>2149.6000976562</ele>
        <time>2023-08-12T10:26:04.000Z</time>
      </trkpt>
      <trkpt lat="45.18261" lon="5.95066">
        <ele>2149.3999023438</ele>
        <time>2023-08-12T10:26:08.000Z</time>
      </trkpt>
      <trkpt lat="45.1826" lon="5.95064">
        <ele>2149.3999023438</ele>
        <time>2023-08-12T10:26:14.000Z</time>
      </trkpt>
      <trkpt lat="45.18261" lon="5.95064">
        <ele>2149.1999511719</ele>
        <time>2023-08-12T10:26:22.000Z</time>
      </trkpt>
      <trkpt lat="45.18262" lon="5.95065">
        <ele>2149</ele>
        <time>2023-08-12T10:26:29.000Z</time>
      </trkpt>
      <trkpt lat="45.1826" lon="5.95069">
        <ele>2148.8000488281</ele>
        <time>2023-08-12T10:26:36.000Z</time>
      </trkpt>
      <trkpt lat="45.18261" lon="5.95067">
        <ele>2148.8000488281</ele>
        <time>2023-08-12T10:26:44.000Z</time>
      </trkpt>
      <trkpt lat="45.18261" lon="5.95069">
        <ele>2148.6000976562</ele>
        <time>2023-08-12T10:26:52.000Z</time>
      </trkpt>
      <trkpt lat="45.1826" lon="5.95069">
        <ele>2148.6000976562</ele>
        <time>2023-08-12T10:26:54.000Z</time>
      </trkpt>
      <trkpt lat="45.18261" lon="5.95069">
        <ele>2148.3999023438</ele>
        <time>2023-08-12T10:27:01.000Z</time>
      </trkpt>
      <trkpt lat="45.18259" lon="5.95069">
        <ele>2148.3999023438</ele>
        <time>2023-08-12T10:27:10.000Z</time>
      </trkpt>
      <trkpt lat="45.18259" lon="5.95068">
        <ele>2148.3999023438</ele>
        <time>2023-08-12T10:27:19.000Z</time>
      </trkpt>
      <trkpt lat="45.1826" lon="5.95067">
        <ele>2148.1999511719</ele>
        <time>2023-08-12T10:27:27.000Z</time>
      </trkpt>
      <trkpt lat="45.18261" lon="5.95067">
        <ele>2148.1999511719</ele>
        <time>2023-08-12T10:27:36.000Z</time>
      </trkpt>
      <trkpt lat="45.1826" lon="5.95067">
        <ele>2148.1999511719</ele>
        <time>2023-08-12T10:27:46.000Z</time>
      </trkpt>
      <trkpt lat="45.18259" lon="5.95067">
        <ele>2148.1999511719</ele>
        <time>2023-08-12T10:27:54.000Z</time>
      </trkpt>
      <trkpt lat="45.1826" lon="5.95067">
        <ele>2148</ele>
        <time>2023-08-12T10:28:05.000Z</time>
      </trkpt>
      <trkpt lat="45.1826" lon="5.95064">
        <ele>2148</ele>
        <time>2023-08-12T10:28:13.000Z</time>
      </trkpt>
      <trkpt lat="45.1826" lon="5.95067">
        <ele>2148</ele>
        <time>2023-08-12T10:28:20.000Z</time>
      </trkpt>
      <trkpt lat="45.18259" lon="5.95067">
        <ele>2147.8000488281</ele>
        <time>2023-08-12T10:28:30.000Z</time>
      </trkpt>
      <trkpt lat="45.18259" lon="5.95068">
        <ele>2147.8000488281</ele>
        <time>2023-08-12T10:28:39.000Z</time>
      </trkpt>
      <trkpt lat="45.18259" lon="5.95068">
        <ele>2147.8000488281</ele>
        <time>2023-08-12T10:28:49.000Z</time>
      </trkpt>
      <trkpt lat="45.1826" lon="5.95067">
        <ele>2147.8000488281</ele>
        <time>2023-08-12T10:28:59.000Z</time>
      </trkpt>
      <trkpt lat="45.18259" lon="5.95068">
        <ele>2147.8000488281</ele>
        <time>2023-08-12T10:29:08.000Z</time>
      </trkpt>
      <trkpt lat="45.1826" lon="5.95068">
        <ele>2147.6000976562</ele>
        <time>2023-08-12T10:29:19.000Z</time>
      </trkpt>
      <trkpt lat="45.1826" lon="5.95067">
        <ele>2147.8000488281</ele>
        <time>2023-08-12T10:29:27.000Z</time>
      </trkpt>
      <trkpt lat="45.18259" lon="5.95067">
        <ele>2147.8000488281</ele>
        <time>2023-08-12T10:29:37.000Z</time>
      </trkpt>
      <trkpt lat="45.18258" lon="5.95068">
        <ele>2147.6000976562</ele>
        <time>2023-08-12T10:29:45.000Z</time>
      </trkpt>
      <trkpt lat="45.18258" lon="5.95068">
        <ele>2147.6000976562</ele>
        <time>2023-08-12T10:29:47.000Z</time>
      </trkpt>
      <trkpt lat="45.18258" lon="5.9507">
        <ele>2147.8000488281</ele>
        <time>2023-08-12T10:29:58.000Z</time>
      </trkpt>
      <trkpt lat="45.18258" lon="5.95069">
        <ele>2147.6000976562</ele>
        <time>2023-08-12T10:30:07.000Z</time>
      </trkpt>
      <trkpt lat="45.18258" lon="5.9507">
        <ele>2147.6000976562</ele>
        <time>2023-08-12T10:30:18.000Z</time>
      </trkpt>
      <trkpt lat="45.18259" lon="5.9507">
        <ele>2147.6000976562</ele>
        <time>2023-08-12T10:30:26.000Z</time>
      </trkpt>
      <trkpt lat="45.18258" lon="5.95069">
        <ele>2147.6000976562</ele>
        <time>2023-08-12T10:30:34.000Z</time>
      </trkpt>
      <trkpt lat="45.18259" lon="5.95068">
        <ele>2147.1999511719</ele>
        <time>2023-08-12T10:30:45.000Z</time>
      </trkpt>
      <trkpt lat="45.18259" lon="5.95068">
        <ele>2147.1999511719</ele>
        <time>2023-08-12T10:30:54.000Z</time>
      </trkpt>
      <trkpt lat="45.18258" lon="5.95068">
        <ele>2147.3999023438</ele>
        <time>2023-08-12T10:31:03.000Z</time>
      </trkpt>
      <trkpt lat="45.18258" lon="5.95067">
        <ele>2147.1999511719</ele>
        <time>2023-08-12T10:31:11.000Z</time>
      </trkpt>
      <trkpt lat="45.18259" lon="5.9507">
        <ele>2147</ele>
        <time>2023-08-12T10:31:20.000Z</time>
      </trkpt>
      <trkpt lat="45.18258" lon="5.95069">
        <ele>2146.8000488281</ele>
        <time>2023-08-12T10:31:27.000Z</time>
      </trkpt>
      <trkpt lat="45.18259" lon="5.95071">
        <ele>2146.8000488281</ele>
        <time>2023-08-12T10:31:35.000Z</time>
      </trkpt>
      <trkpt lat="45.18259" lon="5.9507">
        <ele>2146.8000488281</ele>
        <time>2023-08-12T10:31:46.000Z</time>
      </trkpt>
      <trkpt lat="45.18258" lon="5.9507">
        <ele>2146.8000488281</ele>
        <time>2023-08-12T10:31:54.000Z</time>
      </trkpt>
      <trkpt lat="45.18259" lon="5.95069">
        <ele>2146.6000976562</ele>
        <time>2023-08-12T10:32:05.000Z</time>
      </trkpt>
      <trkpt lat="45.18258" lon="5.95068">
        <ele>2146.6000976562</ele>
        <time>2023-08-12T10:32:14.000Z</time>
      </trkpt>
      <trkpt lat="45.18259" lon="5.95068">
        <ele>2146.6000976562</ele>
        <time>2023-08-12T10:32:22.000Z</time>
      </trkpt>
      <trkpt lat="45.1826" lon="5.95067">
        <ele>2146.3999023438</ele>
        <time>2023-08-12T10:32:29.000Z</time>
      </trkpt>
      <trkpt lat="45.18259" lon="5.95066">
        <ele>2146.6000976562</ele>
        <time>2023-08-12T10:32:38.000Z</time>
      </trkpt>
      <trkpt lat="45.18258" lon="5.95069">
        <ele>2146.3999023438</ele>
        <time>2023-08-12T10:32:47.000Z</time>
      </trkpt>
      <trkpt lat="45.18259" lon="5.95069">
        <ele>2146.1999511719</ele>
        <time>2023-08-12T10:32:58.000Z</time>
      </trkpt>
      <trkpt lat="45.18258" lon="5.95069">
        <ele>2146</ele>
        <time>2023-08-12T10:33:09.000Z</time>
      </trkpt>
      <trkpt lat="45.18257" lon="5.9507">
        <ele>2146</ele>
        <time>2023-08-12T10:33:20.000Z</time>
      </trkpt>
      <trkpt lat="45.18257" lon="5.9507">
        <ele>2146</ele>
        <time>2023-08-12T10:33:31.000Z</time>
      </trkpt>
      <trkpt lat="45.18258" lon="5.95067">
        <ele>2146.1999511719</ele>
        <time>2023-08-12T10:33:39.000Z</time>
      </trkpt>
      <trkpt lat="45.18258" lon="5.95068">
        <ele>2146.1999511719</ele>
        <time>2023-08-12T10:33:49.000Z</time>
      </trkpt>
      <trkpt lat="45.18259" lon="5.95068">
        <ele>2146</ele>
        <time>2023-08-12T10:33:59.000Z</time>
      </trkpt>
      <trkpt lat="45.18259" lon="5.95068">
        <ele>2146.1999511719</ele>
        <time>2023-08-12T10:34:08.000Z</time>
      </trkpt>
      <trkpt lat="45.18259" lon="5.95069">
        <ele>2146</ele>
        <time>2023-08-12T10:34:16.000Z</time>
      </trkpt>
      <trkpt lat="45.18259" lon="5.95068">
        <ele>2146.6000976562</ele>
        <time>2023-08-12T10:34:23.000Z</time>
      </trkpt>
      <trkpt lat="45.1826" lon="5.95065">
        <ele>2146.3999023438</ele>
        <time>2023-08-12T10:34:30.000Z</time>
      </trkpt>
      <trkpt lat="45.18261" lon="5.95068">
        <ele>2146.3999023438</ele>
        <time>2023-08-12T10:34:36.000Z</time>
      </trkpt>
      <trkpt lat="45.18258" lon="5.95068">
        <ele>2146.6000976562</ele>
        <time>2023-08-12T10:34:43.000Z</time>
      </trkpt>
      <trkpt lat="45.18259" lon="5.95069">
        <ele>2146.3999023438</ele>
        <time>2023-08-12T10:34:50.000Z</time>
      </trkpt>
      <trkpt lat="45.18257" lon="5.95068">
        <ele>2146.1999511719</ele>
        <time>2023-08-12T10:35:01.000Z</time>
      </trkpt>
      <trkpt lat="45.18258" lon="5.95071">
        <ele>2146.1999511719</ele>
        <time>2023-08-12T10:35:11.000Z</time>
      </trkpt>
      <trkpt lat="45.18261" lon="5.95069">
        <ele>2146.1999511719</ele>
        <time>2023-08-12T10:35:21.000Z</time>
      </trkpt>
      <trkpt lat="45.18259" lon="5.95069">
        <ele>2146.1999511719</ele>
        <time>2023-08-12T10:35:30.000Z</time>
      </trkpt>
      <trkpt lat="45.18257" lon="5.95068">
        <ele>2146.1999511719</ele>
        <time>2023-08-12T10:35:39.000Z</time>
      </trkpt>
      <trkpt lat="45.18259" lon="5.95069">
        <ele>2146.3999023438</ele>
        <time>2023-08-12T10:35:46.000Z</time>
      </trkpt>
      <trkpt lat="45.18259" lon="5.95074">
        <ele>2146</ele>
        <time>2023-08-12T10:35:55.000Z</time>
      </trkpt>
      <trkpt lat="45.18259" lon="5.95077">
        <ele>2145.3999023438</ele>
        <time>2023-08-12T10:35:59.000Z</time>
      </trkpt>
      <trkpt lat="45.18257" lon="5.95076">
        <ele>2144.8000488281</ele>
        <time>2023-08-12T10:36:06.000Z</time>
      </trkpt>
      <trkpt lat="45.18256" lon="5.95075">
        <ele>2144.8000488281</ele>
        <time>2023-08-12T10:36:13.000Z</time>
      </trkpt>
      <trkpt lat="45.18256" lon="5.95073">
        <ele>2144.6000976562</ele>
        <time>2023-08-12T10:36:21.000Z</time>
      </trkpt>
      <trkpt lat="45.18257" lon="5.95069">
        <ele>2145.8000488281</ele>
        <time>2023-08-12T10:36:28.000Z</time>
      </trkpt>
      <trkpt lat="45.18258" lon="5.95069">
        <ele>2146.3999023438</ele>
        <time>2023-08-12T10:36:37.000Z</time>
      </trkpt>
      <trkpt lat="45.18257" lon="5.95072">
        <ele>2146.1999511719</ele>
        <time>2023-08-12T10:36:46.000Z</time>
      </trkpt>
      <trkpt lat="45.18256" lon="5.95073">
        <ele>2146.1999511719</ele>
        <time>2023-08-12T10:36:54.000Z</time>
      </trkpt>
      <trkpt lat="45.18259" lon="5.95066">
        <ele>2146.3999023438</ele>
        <time>2023-08-12T10:37:02.000Z</time>
      </trkpt>
      <trkpt lat="45.18259" lon="5.9507">
        <ele>2146.3999023438</ele>
        <time>2023-08-12T10:37:06.000Z</time>
      </trkpt>
      <trkpt lat="45.18256" lon="5.95063">
        <ele>2146.1999511719</ele>
        <time>2023-08-12T10:37:11.000Z</time>
      </trkpt>
      <trkpt lat="45.18251" lon="5.95059">
        <ele>2144.6000976562</ele>
        <time>2023-08-12T10:37:18.000Z</time>
      </trkpt>
      <trkpt lat="45.18251" lon="5.95058">
        <ele>2144.3999023438</ele>
        <time>2023-08-12T10:37:19.000Z</time>
      </trkpt>
      <trkpt lat="45.18252" lon="5.95055">
        <ele>2143.3999023438</ele>
        <time>2023-08-12T10:37:23.000Z</time>
      </trkpt>
      <trkpt lat="45.18251" lon="5.95058">
        <ele>2143</ele>
        <time>2023-08-12T10:37:26.000Z</time>
      </trkpt>
      <trkpt lat="45.1825" lon="5.9506">
        <ele>2142.8000488281</ele>
        <time>2023-08-12T10:37:28.000Z</time>
      </trkpt>
      <trkpt lat="45.18248" lon="5.95061">
        <ele>2142</ele>
        <time>2023-08-12T10:37:31.000Z</time>
      </trkpt>
      <trkpt lat="45.18248" lon="5.9506">
        <ele>2142</ele>
        <time>2023-08-12T10:37:32.000Z</time>
      </trkpt>
      <trkpt lat="45.18246" lon="5.95059">
        <ele>2141.1999511719</ele>
        <time>2023-08-12T10:37:35.000Z</time>
      </trkpt>
      <trkpt lat="45.18244" lon="5.95057">
        <ele>2141</ele>
        <time>2023-08-12T10:37:37.000Z</time>
      </trkpt>
      <trkpt lat="45.18243" lon="5.95057">
        <ele>2140.3999023438</ele>
        <time>2023-08-12T10:37:39.000Z</time>
      </trkpt>
      <trkpt lat="45.18243" lon="5.95055">
        <ele>2139.8000488281</ele>
        <time>2023-08-12T10:37:43.000Z</time>
      </trkpt>
      <trkpt lat="45.18243" lon="5.95054">
        <ele>2139.1999511719</ele>
        <time>2023-08-12T10:37:46.000Z</time>
      </trkpt>
      <trkpt lat="45.18243" lon="5.95053">
        <ele>2138.8000488281</ele>
        <time>2023-08-12T10:37:47.000Z</time>
      </trkpt>
      <trkpt lat="45.18245" lon="5.9505">
        <ele>2137.6000976562</ele>
        <time>2023-08-12T10:37:53.000Z</time>
      </trkpt>
      <trkpt lat="45.18246" lon="5.95047">
        <ele>2137.1999511719</ele>
        <time>2023-08-12T10:37:56.000Z</time>
      </trkpt>
      <trkpt lat="45.18245" lon="5.95044">
        <ele>2136.6000976562</ele>
        <time>2023-08-12T10:37:59.000Z</time>
      </trkpt>
      <trkpt lat="45.18244" lon="5.95045">
        <ele>2136</ele>
        <time>2023-08-12T10:38:03.000Z</time>
      </trkpt>
      <trkpt lat="45.18242" lon="5.95047">
        <ele>2135.3999023438</ele>
        <time>2023-08-12T10:38:06.000Z</time>
      </trkpt>
      <trkpt lat="45.18239" lon="5.95049">
        <ele>2134.8000488281</ele>
        <time>2023-08-12T10:38:11.000Z</time>
      </trkpt>
      <trkpt lat="45.18237" lon="5.9505">
        <ele>2134.3999023438</ele>
        <time>2023-08-12T10:38:13.000Z</time>
      </trkpt>
      <trkpt lat="45.18237" lon="5.95051">
        <ele>2133.3999023438</ele>
        <time>2023-08-12T10:38:18.000Z</time>
      </trkpt>
      <trkpt lat="45.18234" lon="5.95054">
        <ele>2132.1999511719</ele>
        <time>2023-08-12T10:38:24.000Z</time>
      </trkpt>
      <trkpt lat="45.18233" lon="5.95057">
        <ele>2131.3999023438</ele>
        <time>2023-08-12T10:38:28.000Z</time>
      </trkpt>
      <trkpt lat="45.18232" lon="5.95057">
        <ele>2131.1999511719</ele>
        <time>2023-08-12T10:38:29.000Z</time>
      </trkpt>
      <trkpt lat="45.18229" lon="5.95062">
        <ele>2130.1999511719</ele>
        <time>2023-08-12T10:38:35.000Z</time>
      </trkpt>
      <trkpt lat="45.18228" lon="5.95062">
        <ele>2129.8000488281</ele>
        <time>2023-08-12T10:38:36.000Z</time>
      </trkpt>
      <trkpt lat="45.18227" lon="5.95064">
        <ele>2128.6000976562</ele>
        <time>2023-08-12T10:38:42.000Z</time>
      </trkpt>
      <trkpt lat="45.18227" lon="5.95065">
        <ele>2128.1999511719</ele>
        <time>2023-08-12T10:38:44.000Z</time>
      </trkpt>
      <trkpt lat="45.18226" lon="5.95066">
        <ele>2127.6000976562</ele>
        <time>2023-08-12T10:38:47.000Z</time>
      </trkpt>
      <trkpt lat="45.18226" lon="5.95067">
        <ele>2126.6000976562</ele>
        <time>2023-08-12T10:38:51.000Z</time>
      </trkpt>
      <trkpt lat="45.18223" lon="5.95068">
        <ele>2125.8000488281</ele>
        <time>2023-08-12T10:38:55.000Z</time>
      </trkpt>
      <trkpt lat="45.18221" lon="5.95069">
        <ele>2125.3999023438</ele>
        <time>2023-08-12T10:38:57.000Z</time>
      </trkpt>
      <trkpt lat="45.18217" lon="5.95072">
        <ele>2124.3999023438</ele>
        <time>2023-08-12T10:39:03.000Z</time>
      </trkpt>
      <trkpt lat="45.18216" lon="5.95072">
        <ele>2124.1999511719</ele>
        <time>2023-08-12T10:39:04.000Z</time>
      </trkpt>
      <trkpt lat="45.18214" lon="5.95073">
        <ele>2123.3999023438</ele>
        <time>2023-08-12T10:39:08.000Z</time>
      </trkpt>
      <trkpt lat="45.1821" lon="5.95075">
        <ele>2122.6000976562</ele>
        <time>2023-08-12T10:39:13.000Z</time>
      </trkpt>
      <trkpt lat="45.18209" lon="5.95075">
        <ele>2122.1999511719</ele>
        <time>2023-08-12T10:39:16.000Z</time>
      </trkpt>
      <trkpt lat="45.18205" lon="5.95074">
        <ele>2121.1999511719</ele>
        <time>2023-08-12T10:39:21.000Z</time>
      </trkpt>
      <trkpt lat="45.18204" lon="5.95074">
        <ele>2121</ele>
        <time>2023-08-12T10:39:22.000Z</time>
      </trkpt>
      <trkpt lat="45.18202" lon="5.95076">
        <ele>2119.8000488281</ele>
        <time>2023-08-12T10:39:28.000Z</time>
      </trkpt>
      <trkpt lat="45.182" lon="5.95078">
        <ele>2118.8000488281</ele>
        <time>2023-08-12T10:39:34.000Z</time>
      </trkpt>
      <trkpt lat="45.18199" lon="5.95079">
        <ele>2118.3999023438</ele>
        <time>2023-08-12T10:39:36.000Z</time>
      </trkpt>
      <trkpt lat="45.18196" lon="5.9508">
        <ele>2117.6000976562</ele>
        <time>2023-08-12T10:39:41.000Z</time>
      </trkpt>
      <trkpt lat="45.18194" lon="5.95081">
        <ele>2117.1999511719</ele>
        <time>2023-08-12T10:39:43.000Z</time>
      </trkpt>
      <trkpt lat="45.18191" lon="5.95083">
        <ele>2116.6000976562</ele>
        <time>2023-08-12T10:39:46.000Z</time>
      </trkpt>
      <trkpt lat="45.18187" lon="5.95086">
        <ele>2115.3999023438</ele>
        <time>2023-08-12T10:39:52.000Z</time>
      </trkpt>
      <trkpt lat="45.18185" lon="5.95088">
        <ele>2114.3999023438</ele>
        <time>2023-08-12T10:39:58.000Z</time>
      </trkpt>
      <trkpt lat="45.18184" lon="5.9509">
        <ele>2114.1999511719</ele>
        <time>2023-08-12T10:40:07.000Z</time>
      </trkpt>
      <trkpt lat="45.18177" lon="5.95099">
        <ele>2114</ele>
        <time>2023-08-12T10:40:16.000Z</time>
      </trkpt>
      <trkpt lat="45.18171" lon="5.95101">
        <ele>2113.3999023438</ele>
        <time>2023-08-12T10:40:23.000Z</time>
      </trkpt>
      <trkpt lat="45.1817" lon="5.95102">
        <ele>2113.1999511719</ele>
        <time>2023-08-12T10:40:24.000Z</time>
      </trkpt>
      <trkpt lat="45.18162" lon="5.95106">
        <ele>2112.3999023438</ele>
        <time>2023-08-12T10:40:31.000Z</time>
      </trkpt>
      <trkpt lat="45.18161" lon="5.95107">
        <ele>2112.1999511719</ele>
        <time>2023-08-12T10:40:33.000Z</time>
      </trkpt>
      <trkpt lat="45.18155" lon="5.95114">
        <ele>2112.3999023438</ele>
        <time>2023-08-12T10:40:40.000Z</time>
      </trkpt>
      <trkpt lat="45.18152" lon="5.95119">
        <ele>2113.3999023438</ele>
        <time>2023-08-12T10:40:47.000Z</time>
      </trkpt>
      <trkpt lat="45.18151" lon="5.9512">
        <ele>2113.6000976562</ele>
        <time>2023-08-12T10:40:49.000Z</time>
      </trkpt>
      <trkpt lat="45.18146" lon="5.95125">
        <ele>2114.3999023438</ele>
        <time>2023-08-12T10:40:55.000Z</time>
      </trkpt>
      <trkpt lat="45.18145" lon="5.95127">
        <ele>2114.8000488281</ele>
        <time>2023-08-12T10:40:57.000Z</time>
      </trkpt>
      <trkpt lat="45.18141" lon="5.95132">
        <ele>2115.3999023438</ele>
        <time>2023-08-12T10:41:02.000Z</time>
      </trkpt>
      <trkpt lat="45.18139" lon="5.95134">
        <ele>2116</ele>
        <time>2023-08-12T10:41:05.000Z</time>
      </trkpt>
      <trkpt lat="45.18139" lon="5.95135">
        <ele>2116.6000976562</ele>
        <time>2023-08-12T10:41:08.000Z</time>
      </trkpt>
      <trkpt lat="45.18139" lon="5.95137">
        <ele>2117.6000976562</ele>
        <time>2023-08-12T10:41:13.000Z</time>
      </trkpt>
      <trkpt lat="45.18138" lon="5.95137">
        <ele>2117.8000488281</ele>
        <time>2023-08-12T10:41:14.000Z</time>
      </trkpt>
      <trkpt lat="45.18136" lon="5.95141">
        <ele>2118.8000488281</ele>
        <time>2023-08-12T10:41:20.000Z</time>
      </trkpt>
      <trkpt lat="45.18134" lon="5.95143">
        <ele>2119.8000488281</ele>
        <time>2023-08-12T10:41:26.000Z</time>
      </trkpt>
      <trkpt lat="45.18131" lon="5.95146">
        <ele>2120.3999023438</ele>
        <time>2023-08-12T10:41:31.000Z</time>
      </trkpt>
      <trkpt lat="45.18128" lon="5.95148">
        <ele>2121</ele>
        <time>2023-08-12T10:41:35.000Z</time>
      </trkpt>
      <trkpt lat="45.18127" lon="5.95149">
        <ele>2121.3999023438</ele>
        <time>2023-08-12T10:41:40.000Z</time>
      </trkpt>
      <trkpt lat="45.18134" lon="5.95154">
        <ele>2122</ele>
        <time>2023-08-12T10:41:57.000Z</time>
      </trkpt>
      <trkpt lat="45.18134" lon="5.95153">
        <ele>2123.6000976562</ele>
        <time>2023-08-12T10:42:05.000Z</time>
      </trkpt>
      <trkpt lat="45.18128" lon="5.95157">
        <ele>2125.3999023438</ele>
        <time>2023-08-12T10:42:17.000Z</time>
      </trkpt>
      <trkpt lat="45.18113" lon="5.95172">
        <ele>2131.8000488281</ele>
        <time>2023-08-12T10:43:05.000Z</time>
      </trkpt>
      <trkpt lat="45.18113" lon="5.95173">
        <ele>2132</ele>
        <time>2023-08-12T10:43:07.000Z</time>
      </trkpt>
      <trkpt lat="45.18112" lon="5.95175">
        <ele>2132.3999023438</ele>
        <time>2023-08-12T10:43:11.000Z</time>
      </trkpt>
      <trkpt lat="45.18113" lon="5.95176">
        <ele>2133</ele>
        <time>2023-08-12T10:43:17.000Z</time>
      </trkpt>
      <trkpt lat="45.18112" lon="5.95176">
        <ele>2133.1999511719</ele>
        <time>2023-08-12T10:43:18.000Z</time>
      </trkpt>
      <trkpt lat="45.18111" lon="5.95177">
        <ele>2133.6000976562</ele>
        <time>2023-08-12T10:43:25.000Z</time>
      </trkpt>
      <trkpt lat="45.18111" lon="5.95178">
        <ele>2134.1999511719</ele>
        <time>2023-08-12T10:43:27.000Z</time>
      </trkpt>
      <trkpt lat="45.1811" lon="5.95177">
        <ele>2135</ele>
        <time>2023-08-12T10:43:32.000Z</time>
      </trkpt>
      <trkpt lat="45.18107" lon="5.95176">
        <ele>2136.1999511719</ele>
        <time>2023-08-12T10:43:51.000Z</time>
      </trkpt>
      <trkpt lat="45.18106" lon="5.95174">
        <ele>2136.1999511719</ele>
        <time>2023-08-12T10:43:55.000Z</time>
      </trkpt>
      <trkpt lat="45.18106" lon="5.95174">
        <ele>2136.8000488281</ele>
        <time>2023-08-12T10:43:57.000Z</time>
      </trkpt>
      <trkpt lat="45.18105" lon="5.95172">
        <ele>2137.3999023438</ele>
        <time>2023-08-12T10:44:02.000Z</time>
      </trkpt>
      <trkpt lat="45.18105" lon="5.95171">
        <ele>2137.6000976562</ele>
        <time>2023-08-12T10:44:03.000Z</time>
      </trkpt>
      <trkpt lat="45.18106" lon="5.95169">
        <ele>2138.6000976562</ele>
        <time>2023-08-12T10:44:10.000Z</time>
      </trkpt>
      <trkpt lat="45.18105" lon="5.9517">
        <ele>2139</ele>
        <time>2023-08-12T10:44:12.000Z</time>
      </trkpt>
      <trkpt lat="45.18105" lon="5.95168">
        <ele>2139.6000976562</ele>
        <time>2023-08-12T10:44:18.000Z</time>
      </trkpt>
      <trkpt lat="45.18105" lon="5.95169">
        <ele>2139.6000976562</ele>
        <time>2023-08-12T10:44:19.000Z</time>
      </trkpt>
      <trkpt lat="45.18105" lon="5.95164">
        <ele>2140.6000976562</ele>
        <time>2023-08-12T10:44:25.000Z</time>
      </trkpt>
      <trkpt lat="45.18104" lon="5.95163">
        <ele>2140.8000488281</ele>
        <time>2023-08-12T10:44:26.000Z</time>
      </trkpt>
      <trkpt lat="45.18101" lon="5.95163">
        <ele>2141.8000488281</ele>
        <time>2023-08-12T10:44:32.000Z</time>
      </trkpt>
      <trkpt lat="45.18084" lon="5.9516">
        <ele>2144.8000488281</ele>
        <time>2023-08-12T10:45:11.000Z</time>
      </trkpt>
      <trkpt lat="45.18039" lon="5.95172">
        <ele>2148.1999511719</ele>
        <time>2023-08-12T10:46:02.000Z</time>
      </trkpt>
      <trkpt lat="45.1803" lon="5.95175">
        <ele>2149</ele>
        <time>2023-08-12T10:46:10.000Z</time>
      </trkpt>
      <trkpt lat="45.1803" lon="5.95176">
        <ele>2149.1999511719</ele>
        <time>2023-08-12T10:46:11.000Z</time>
      </trkpt>
      <trkpt lat="45.18026" lon="5.9518">
        <ele>2149.8000488281</ele>
        <time>2023-08-12T10:46:16.000Z</time>
      </trkpt>
      <trkpt lat="45.18024" lon="5.95184">
        <ele>2149.3999023438</ele>
        <time>2023-08-12T10:46:22.000Z</time>
      </trkpt>
      <trkpt lat="45.1802" lon="5.9519">
        <ele>2149.3999023438</ele>
        <time>2023-08-12T10:46:28.000Z</time>
      </trkpt>
      <trkpt lat="45.18015" lon="5.95195">
        <ele>2150.1999511719</ele>
        <time>2023-08-12T10:46:34.000Z</time>
      </trkpt>
      <trkpt lat="45.18014" lon="5.95197">
        <ele>2150.3999023438</ele>
        <time>2023-08-12T10:46:35.000Z</time>
      </trkpt>
      <trkpt lat="45.18007" lon="5.95217">
        <ele>2152.8000488281</ele>
        <time>2023-08-12T10:47:20.000Z</time>
      </trkpt>
      <trkpt lat="45.18003" lon="5.95229">
        <ele>2152.3999023438</ele>
        <time>2023-08-12T10:47:32.000Z</time>
      </trkpt>
      <trkpt lat="45.18001" lon="5.95234">
        <ele>2152</ele>
        <time>2023-08-12T10:47:38.000Z</time>
      </trkpt>
      <trkpt lat="45.17996" lon="5.9524">
        <ele>2152.3999023438</ele>
        <time>2023-08-12T10:47:45.000Z</time>
      </trkpt>
      <trkpt lat="45.1799" lon="5.95246">
        <ele>2152</ele>
        <time>2023-08-12T10:47:51.000Z</time>
      </trkpt>
      <trkpt lat="45.17983" lon="5.95254">
        <ele>2151.6000976562</ele>
        <time>2023-08-12T10:47:59.000Z</time>
      </trkpt>
      <trkpt lat="45.17982" lon="5.95255">
        <ele>2151.3999023438</ele>
        <time>2023-08-12T10:48:00.000Z</time>
      </trkpt>
      <trkpt lat="45.17975" lon="5.95262">
        <ele>2151.1999511719</ele>
        <time>2023-08-12T10:48:06.000Z</time>
      </trkpt>
      <trkpt lat="45.17963" lon="5.95277">
        <ele>2151.3999023438</ele>
        <time>2023-08-12T10:48:23.000Z</time>
      </trkpt>
      <trkpt lat="45.17945" lon="5.95284">
        <ele>2151.3999023438</ele>
        <time>2023-08-12T10:48:38.000Z</time>
      </trkpt>
      <trkpt lat="45.17926" lon="5.95322">
        <ele>2161.3999023438</ele>
        <time>2023-08-12T10:50:01.000Z</time>
      </trkpt>
      <trkpt lat="45.17917" lon="5.95346">
        <ele>2169.8000488281</ele>
        <time>2023-08-12T10:50:57.000Z</time>
      </trkpt>
      <trkpt lat="45.17911" lon="5.95351">
        <ele>2172.1999511719</ele>
        <time>2023-08-12T10:51:12.000Z</time>
      </trkpt>
      <trkpt lat="45.17902" lon="5.95354">
        <ele>2172.8000488281</ele>
        <time>2023-08-12T10:51:21.000Z</time>
      </trkpt>
      <trkpt lat="45.17899" lon="5.95355">
        <ele>2173</ele>
        <time>2023-08-12T10:51:24.000Z</time>
      </trkpt>
      <trkpt lat="45.17898" lon="5.95355">
        <ele>2173.3999023438</ele>
        <time>2023-08-12T10:51:29.000Z</time>
      </trkpt>
      <trkpt lat="45.17895" lon="5.95355">
        <ele>2174</ele>
        <time>2023-08-12T10:51:34.000Z</time>
      </trkpt>
      <trkpt lat="45.17894" lon="5.95355">
        <ele>2174</ele>
        <time>2023-08-12T10:51:37.000Z</time>
      </trkpt>
      <trkpt lat="45.1789" lon="5.95355">
        <ele>2174.3999023438</ele>
        <time>2023-08-12T10:51:46.000Z</time>
      </trkpt>
      <trkpt lat="45.17884" lon="5.95357">
        <ele>2175</ele>
        <time>2023-08-12T10:51:54.000Z</time>
      </trkpt>
      <trkpt lat="45.17883" lon="5.95357">
        <ele>2176.1999511719</ele>
        <time>2023-08-12T10:52:00.000Z</time>
      </trkpt>
      <trkpt lat="45.1788" lon="5.95358">
        <ele>2177</ele>
        <time>2023-08-12T10:52:05.000Z</time>
      </trkpt>
      <trkpt lat="45.17878" lon="5.95358">
        <ele>2177.1999511719</ele>
        <time>2023-08-12T10:52:08.000Z</time>
      </trkpt>
      <trkpt lat="45.17863" lon="5.95354">
        <ele>2179.1999511719</ele>
        <time>2023-08-12T10:52:29.000Z</time>
      </trkpt>
      <trkpt lat="45.17862" lon="5.95355">
        <ele>2179.6000976562</ele>
        <time>2023-08-12T10:52:38.000Z</time>
      </trkpt>
      <trkpt lat="45.17861" lon="5.95355">
        <ele>2179.6000976562</ele>
        <time>2023-08-12T10:52:39.000Z</time>
      </trkpt>
      <trkpt lat="45.17861" lon="5.95351">
        <ele>2180.6000976562</ele>
        <time>2023-08-12T10:52:50.000Z</time>
      </trkpt>
      <trkpt lat="45.17862" lon="5.95354">
        <ele>2181.3999023438</ele>
        <time>2023-08-12T10:52:53.000Z</time>
      </trkpt>
      <trkpt lat="45.17862" lon="5.95354">
        <ele>2181.8000488281</ele>
        <time>2023-08-12T10:52:54.000Z</time>
      </trkpt>
      <trkpt lat="45.17859" lon="5.95356">
        <ele>2183</ele>
        <time>2023-08-12T10:52:59.000Z</time>
      </trkpt>
      <trkpt lat="45.17855" lon="5.95358">
        <ele>2183.8000488281</ele>
        <time>2023-08-12T10:53:02.000Z</time>
      </trkpt>
      <trkpt lat="45.17853" lon="5.95359">
        <ele>2184</ele>
        <time>2023-08-12T10:53:04.000Z</time>
      </trkpt>
      <trkpt lat="45.17798" lon="5.95345">
        <ele>2198</ele>
        <time>2023-08-12T10:54:48.000Z</time>
      </trkpt>
      <trkpt lat="45.17758" lon="5.95342">
        <ele>2206.3999023438</ele>
        <time>2023-08-12T10:55:57.000Z</time>
      </trkpt>
      <trkpt lat="45.17757" lon="5.95344">
        <ele>2207.8000488281</ele>
        <time>2023-08-12T10:56:07.000Z</time>
      </trkpt>
      <trkpt lat="45.17754" lon="5.95345">
        <ele>2208.3999023438</ele>
        <time>2023-08-12T10:56:11.000Z</time>
      </trkpt>
      <trkpt lat="45.1774" lon="5.95346">
        <ele>2210.8000488281</ele>
        <time>2023-08-12T10:56:26.000Z</time>
      </trkpt>
      <trkpt lat="45.17737" lon="5.95348">
        <ele>2211.6000976562</ele>
        <time>2023-08-12T10:56:39.000Z</time>
      </trkpt>
      <trkpt lat="45.17736" lon="5.95346">
        <ele>2211.8000488281</ele>
        <time>2023-08-12T10:56:46.000Z</time>
      </trkpt>
      <trkpt lat="45.17736" lon="5.95347">
        <ele>2211.8000488281</ele>
        <time>2023-08-12T10:56:47.000Z</time>
      </trkpt>
      <trkpt lat="45.1773" lon="5.95339">
        <ele>2213.3999023438</ele>
        <time>2023-08-12T10:57:09.000Z</time>
      </trkpt>
      <trkpt lat="45.17729" lon="5.95337">
        <ele>2213.8000488281</ele>
        <time>2023-08-12T10:57:16.000Z</time>
      </trkpt>
      <trkpt lat="45.17728" lon="5.95334">
        <ele>2214</ele>
        <time>2023-08-12T10:57:21.000Z</time>
      </trkpt>
      <trkpt lat="45.17727" lon="5.95333">
        <ele>2214.6000976562</ele>
        <time>2023-08-12T10:57:26.000Z</time>
      </trkpt>
      <trkpt lat="45.17723" lon="5.95332">
        <ele>2214.8000488281</ele>
        <time>2023-08-12T10:57:33.000Z</time>
      </trkpt>
      <trkpt lat="45.17721" lon="5.9533">
        <ele>2215</ele>
        <time>2023-08-12T10:57:39.000Z</time>
      </trkpt>
      <trkpt lat="45.17721" lon="5.95328">
        <ele>2215.8000488281</ele>
        <time>2023-08-12T10:57:47.000Z</time>
      </trkpt>
      <trkpt lat="45.17721" lon="5.95327">
        <ele>2216</ele>
        <time>2023-08-12T10:57:49.000Z</time>
      </trkpt>
      <trkpt lat="45.17722" lon="5.95328">
        <ele>2216</ele>
        <time>2023-08-12T10:57:55.000Z</time>
      </trkpt>
      <trkpt lat="45.17719" lon="5.95323">
        <ele>2217</ele>
        <time>2023-08-12T10:58:11.000Z</time>
      </trkpt>
      <trkpt lat="45.17717" lon="5.95319">
        <ele>2216.6000976562</ele>
        <time>2023-08-12T10:58:19.000Z</time>
      </trkpt>
      <trkpt lat="45.17717" lon="5.95317">
        <ele>2217</ele>
        <time>2023-08-12T10:58:26.000Z</time>
      </trkpt>
      <trkpt lat="45.17716" lon="5.95317">
        <ele>2217.1999511719</ele>
        <time>2023-08-12T10:58:27.000Z</time>
      </trkpt>
      <trkpt lat="45.17706" lon="5.95305">
        <ele>2219</ele>
        <time>2023-08-12T10:58:47.000Z</time>
      </trkpt>
      <trkpt lat="45.17706" lon="5.95305">
        <ele>2219.1999511719</ele>
        <time>2023-08-12T10:58:48.000Z</time>
      </trkpt>
      <trkpt lat="45.17707" lon="5.95307">
        <ele>2219.8000488281</ele>
        <time>2023-08-12T10:58:55.000Z</time>
      </trkpt>
      <trkpt lat="45.17707" lon="5.95313">
        <ele>2220</ele>
        <time>2023-08-12T10:59:02.000Z</time>
      </trkpt>
      <trkpt lat="45.17709" lon="5.95314">
        <ele>2220.1999511719</ele>
        <time>2023-08-12T10:59:09.000Z</time>
      </trkpt>
      <trkpt lat="45.1771" lon="5.95314">
        <ele>2220.1999511719</ele>
        <time>2023-08-12T10:59:11.000Z</time>
      </trkpt>
      <trkpt lat="45.17708" lon="5.95318">
        <ele>2220.6000976562</ele>
        <time>2023-08-12T10:59:20.000Z</time>
      </trkpt>
      <trkpt lat="45.17702" lon="5.95314">
        <ele>2221.8000488281</ele>
        <time>2023-08-12T10:59:34.000Z</time>
      </trkpt>
      <trkpt lat="45.17696" lon="5.95311">
        <ele>2225.1999511719</ele>
        <time>2023-08-12T10:59:58.000Z</time>
      </trkpt>
      <trkpt lat="45.17695" lon="5.95311">
        <ele>2225.3999023438</ele>
        <time>2023-08-12T11:00:00.000Z</time>
      </trkpt>
      <trkpt lat="45.17687" lon="5.95308">
        <ele>2226</ele>
        <time>2023-08-12T11:00:06.000Z</time>
      </trkpt>
      <trkpt lat="45.17688" lon="5.95307">
        <ele>2226.3999023438</ele>
        <time>2023-08-12T11:00:08.000Z</time>
      </trkpt>
      <trkpt lat="45.17686" lon="5.95305">
        <ele>2226.8000488281</ele>
        <time>2023-08-12T11:00:12.000Z</time>
      </trkpt>
      <trkpt lat="45.17684" lon="5.95302">
        <ele>2227.3999023438</ele>
        <time>2023-08-12T11:00:16.000Z</time>
      </trkpt>
      <trkpt lat="45.17683" lon="5.95302">
        <ele>2227.3999023438</ele>
        <time>2023-08-12T11:00:17.000Z</time>
      </trkpt>
      <trkpt lat="45.17683" lon="5.95298">
        <ele>2228.6000976562</ele>
        <time>2023-08-12T11:00:25.000Z</time>
      </trkpt>
      <trkpt lat="45.17683" lon="5.953">
        <ele>2229.6000976562</ele>
        <time>2023-08-12T11:00:30.000Z</time>
      </trkpt>
      <trkpt lat="45.1768" lon="5.95296">
        <ele>2230.3999023438</ele>
        <time>2023-08-12T11:00:36.000Z</time>
      </trkpt>
      <trkpt lat="45.1768" lon="5.95295">
        <ele>2230.6000976562</ele>
        <time>2023-08-12T11:00:37.000Z</time>
      </trkpt>
      <trkpt lat="45.17676" lon="5.95289">
        <ele>2231.6000976562</ele>
        <time>2023-08-12T11:00:44.000Z</time>
      </trkpt>
      <trkpt lat="45.17675" lon="5.95287">
        <ele>2231.8000488281</ele>
        <time>2023-08-12T11:00:46.000Z</time>
      </trkpt>
      <trkpt lat="45.17674" lon="5.95289">
        <ele>2231.6000976562</ele>
        <time>2023-08-12T11:00:51.000Z</time>
      </trkpt>
      <trkpt lat="45.17666" lon="5.95276">
        <ele>2233.8000488281</ele>
        <time>2023-08-12T11:01:13.000Z</time>
      </trkpt>
      <trkpt lat="45.17665" lon="5.95275">
        <ele>2234</ele>
        <time>2023-08-12T11:01:17.000Z</time>
      </trkpt>
      <trkpt lat="45.17664" lon="5.95274">
        <ele>2234.3999023438</ele>
        <time>2023-08-12T11:01:20.000Z</time>
      </trkpt>
      <trkpt lat="45.17663" lon="5.95269">
        <ele>2235</ele>
        <time>2023-08-12T11:01:27.000Z</time>
      </trkpt>
      <trkpt lat="45.17662" lon="5.95268">
        <ele>2235.1999511719</ele>
        <time>2023-08-12T11:01:28.000Z</time>
      </trkpt>
      <trkpt lat="45.1766" lon="5.95266">
        <ele>2236</ele>
        <time>2023-08-12T11:01:35.000Z</time>
      </trkpt>
      <trkpt lat="45.17657" lon="5.95263">
        <ele>2237.1999511719</ele>
        <time>2023-08-12T11:01:40.000Z</time>
      </trkpt>
      <trkpt lat="45.17654" lon="5.95262">
        <ele>2237.3999023438</ele>
        <time>2023-08-12T11:01:43.000Z</time>
      </trkpt>
      <trkpt lat="45.17655" lon="5.95259">
        <ele>2237.6000976562</ele>
        <time>2023-08-12T11:01:52.000Z</time>
      </trkpt>
      <trkpt lat="45.17653" lon="5.95252">
        <ele>2238.1999511719</ele>
        <time>2023-08-12T11:02:00.000Z</time>
      </trkpt>
      <trkpt lat="45.17653" lon="5.95252">
        <ele>2238.3999023438</ele>
        <time>2023-08-12T11:02:01.000Z</time>
      </trkpt>
      <trkpt lat="45.1765" lon="5.95249">
        <ele>2239.1999511719</ele>
        <time>2023-08-12T11:02:09.000Z</time>
      </trkpt>
      <trkpt lat="45.17649" lon="5.95249">
        <ele>2239.3999023438</ele>
        <time>2023-08-12T11:02:10.000Z</time>
      </trkpt>
      <trkpt lat="45.17641" lon="5.95242">
        <ele>2240.1999511719</ele>
        <time>2023-08-12T11:02:18.000Z</time>
      </trkpt>
      <trkpt lat="45.1764" lon="5.95241">
        <ele>2240.3999023438</ele>
        <time>2023-08-12T11:02:19.000Z</time>
      </trkpt>
      <trkpt lat="45.17638" lon="5.95236">
        <ele>2241.1999511719</ele>
        <time>2023-08-12T11:02:28.000Z</time>
      </trkpt>
      <trkpt lat="45.17637" lon="5.95235">
        <ele>2241.1999511719</ele>
        <time>2023-08-12T11:02:30.000Z</time>
      </trkpt>
      <trkpt lat="45.17635" lon="5.95233">
        <ele>2241.6000976562</ele>
        <time>2023-08-12T11:02:34.000Z</time>
      </trkpt>
      <trkpt lat="45.17629" lon="5.95228">
        <ele>2242.3999023438</ele>
        <time>2023-08-12T11:02:42.000Z</time>
      </trkpt>
      <trkpt lat="45.17628" lon="5.95228">
        <ele>2242.6000976562</ele>
        <time>2023-08-12T11:02:43.000Z</time>
      </trkpt>
      <trkpt lat="45.17625" lon="5.95226">
        <ele>2243</ele>
        <time>2023-08-12T11:02:48.000Z</time>
      </trkpt>
      <trkpt lat="45.17622" lon="5.95223">
        <ele>2243.3999023438</ele>
        <time>2023-08-12T11:02:51.000Z</time>
      </trkpt>
      <trkpt lat="45.1762" lon="5.95222">
        <ele>2243.6000976562</ele>
        <time>2023-08-12T11:02:54.000Z</time>
      </trkpt>
      <trkpt lat="45.17617" lon="5.95217">
        <ele>2244.1999511719</ele>
        <time>2023-08-12T11:03:02.000Z</time>
      </trkpt>
      <trkpt lat="45.17615" lon="5.95214">
        <ele>2244.6000976562</ele>
        <time>2023-08-12T11:03:07.000Z</time>
      </trkpt>
      <trkpt lat="45.17613" lon="5.95211">
        <ele>2245</ele>
        <time>2023-08-12T11:03:10.000Z</time>
      </trkpt>
      <trkpt lat="45.1761" lon="5.95208">
        <ele>2245.6000976562</ele>
        <time>2023-08-12T11:03:17.000Z</time>
      </trkpt>
      <trkpt lat="45.1761" lon="5.95207">
        <ele>2245.8000488281</ele>
        <time>2023-08-12T11:03:18.000Z</time>
      </trkpt>
      <trkpt lat="45.17607" lon="5.95205">
        <ele>2246.6000976562</ele>
        <time>2023-08-12T11:03:24.000Z</time>
      </trkpt>
      <trkpt lat="45.17606" lon="5.95204">
        <ele>2246.8000488281</ele>
        <time>2023-08-12T11:03:25.000Z</time>
      </trkpt>
      <trkpt lat="45.17603" lon="5.95202">
        <ele>2247</ele>
        <time>2023-08-12T11:03:31.000Z</time>
      </trkpt>
      <trkpt lat="45.176" lon="5.95201">
        <ele>2247.6000976562</ele>
        <time>2023-08-12T11:03:37.000Z</time>
      </trkpt>
      <trkpt lat="45.17598" lon="5.952">
        <ele>2247.8000488281</ele>
        <time>2023-08-12T11:03:39.000Z</time>
      </trkpt>
      <trkpt lat="45.17596" lon="5.95198">
        <ele>2248.1999511719</ele>
        <time>2023-08-12T11:03:42.000Z</time>
      </trkpt>
      <trkpt lat="45.17595" lon="5.95198">
        <ele>2248.3999023438</ele>
        <time>2023-08-12T11:03:46.000Z</time>
      </trkpt>
      <trkpt lat="45.17591" lon="5.95194">
        <ele>2249</ele>
        <time>2023-08-12T11:03:53.000Z</time>
      </trkpt>
      <trkpt lat="45.17587" lon="5.9519">
        <ele>2249.8000488281</ele>
        <time>2023-08-12T11:03:59.000Z</time>
      </trkpt>
      <trkpt lat="45.17585" lon="5.95187">
        <ele>2250</ele>
        <time>2023-08-12T11:04:02.000Z</time>
      </trkpt>
      <trkpt lat="45.17583" lon="5.95185">
        <ele>2250.1999511719</ele>
        <time>2023-08-12T11:04:06.000Z</time>
      </trkpt>
      <trkpt lat="45.17579" lon="5.95184">
        <ele>2250.8000488281</ele>
        <time>2023-08-12T11:04:13.000Z</time>
      </trkpt>
      <trkpt lat="45.17577" lon="5.95183">
        <ele>2251</ele>
        <time>2023-08-12T11:04:16.000Z</time>
      </trkpt>
      <trkpt lat="45.17574" lon="5.95181">
        <ele>2251.6000976562</ele>
        <time>2023-08-12T11:04:21.000Z</time>
      </trkpt>
      <trkpt lat="45.17571" lon="5.95178">
        <ele>2252</ele>
        <time>2023-08-12T11:04:26.000Z</time>
      </trkpt>
      <trkpt lat="45.17571" lon="5.95178">
        <ele>2252.1999511719</ele>
        <time>2023-08-12T11:04:28.000Z</time>
      </trkpt>
      <trkpt lat="45.17568" lon="5.95176">
        <ele>2253.1999511719</ele>
        <time>2023-08-12T11:04:34.000Z</time>
      </trkpt>
      <trkpt lat="45.17568" lon="5.95174">
        <ele>2254.1999511719</ele>
        <time>2023-08-12T11:04:40.000Z</time>
      </trkpt>
      <trkpt lat="45.17567" lon="5.95171">
        <ele>2255.1999511719</ele>
        <time>2023-08-12T11:04:46.000Z</time>
      </trkpt>
      <trkpt lat="45.17566" lon="5.9517">
        <ele>2255.1999511719</ele>
        <time>2023-08-12T11:04:47.000Z</time>
      </trkpt>
      <trkpt lat="45.17566" lon="5.9517">
        <ele>2255</ele>
        <time>2023-08-12T11:04:53.000Z</time>
      </trkpt>
      <trkpt lat="45.17568" lon="5.95168">
        <ele>2254.8000488281</ele>
        <time>2023-08-12T11:05:04.000Z</time>
      </trkpt>
      <trkpt lat="45.17565" lon="5.95164">
        <ele>2256</ele>
        <time>2023-08-12T11:05:12.000Z</time>
      </trkpt>
      <trkpt lat="45.17564" lon="5.95164">
        <ele>2256.1999511719</ele>
        <time>2023-08-12T11:05:13.000Z</time>
      </trkpt>
      <trkpt lat="45.17563" lon="5.95162">
        <ele>2257.1999511719</ele>
        <time>2023-08-12T11:05:20.000Z</time>
      </trkpt>
      <trkpt lat="45.17562" lon="5.95162">
        <ele>2257.1999511719</ele>
        <time>2023-08-12T11:05:21.000Z</time>
      </trkpt>
      <trkpt lat="45.1756" lon="5.9516">
        <ele>2258.3999023438</ele>
        <time>2023-08-12T11:05:28.000Z</time>
      </trkpt>
      <trkpt lat="45.17559" lon="5.9516">
        <ele>2258.3999023438</ele>
        <time>2023-08-12T11:05:29.000Z</time>
      </trkpt>
      <trkpt lat="45.17558" lon="5.95161">
        <ele>2259.3999023438</ele>
        <time>2023-08-12T11:05:37.000Z</time>
      </trkpt>
      <trkpt lat="45.17558" lon="5.95161">
        <ele>2259.6000976562</ele>
        <time>2023-08-12T11:05:38.000Z</time>
      </trkpt>
      <trkpt lat="45.17555" lon="5.95161">
        <ele>2260.1999511719</ele>
        <time>2023-08-12T11:05:43.000Z</time>
      </trkpt>
      <trkpt lat="45.17555" lon="5.9516">
        <ele>2260.3999023438</ele>
        <time>2023-08-12T11:05:45.000Z</time>
      </trkpt>
      <trkpt lat="45.17553" lon="5.95159">
        <ele>2261.3999023438</ele>
        <time>2023-08-12T11:05:53.000Z</time>
      </trkpt>
      <trkpt lat="45.1755" lon="5.95159">
        <ele>2261.6000976562</ele>
        <time>2023-08-12T11:06:07.000Z</time>
      </trkpt>
      <trkpt lat="45.17551" lon="5.95159">
        <ele>2261.8000488281</ele>
        <time>2023-08-12T11:06:14.000Z</time>
      </trkpt>
      <trkpt lat="45.17553" lon="5.9516">
        <ele>2261.6000976562</ele>
        <time>2023-08-12T11:06:20.000Z</time>
      </trkpt>
      <trkpt lat="45.17551" lon="5.95158">
        <ele>2262.3999023438</ele>
        <time>2023-08-12T11:06:26.000Z</time>
      </trkpt>
      <trkpt lat="45.17551" lon="5.95157">
        <ele>2262.6000976562</ele>
        <time>2023-08-12T11:06:28.000Z</time>
      </trkpt>
      <trkpt lat="45.1755" lon="5.95159">
        <ele>2263.3999023438</ele>
        <time>2023-08-12T11:06:31.000Z</time>
      </trkpt>
      <trkpt lat="45.17549" lon="5.95158">
        <ele>2263.8000488281</ele>
        <time>2023-08-12T11:06:34.000Z</time>
      </trkpt>
      <trkpt lat="45.17548" lon="5.95159">
        <ele>2264.3999023438</ele>
        <time>2023-08-12T11:06:38.000Z</time>
      </trkpt>
      <trkpt lat="45.17547" lon="5.9516">
        <ele>2264.8000488281</ele>
        <time>2023-08-12T11:06:42.000Z</time>
      </trkpt>
      <trkpt lat="45.17547" lon="5.95163">
        <ele>2265.1999511719</ele>
        <time>2023-08-12T11:06:44.000Z</time>
      </trkpt>
      <trkpt lat="45.17547" lon="5.95165">
        <ele>2265.6000976562</ele>
        <time>2023-08-12T11:06:50.000Z</time>
      </trkpt>
      <trkpt lat="45.17547" lon="5.95166">
        <ele>2265.8000488281</ele>
        <time>2023-08-12T11:06:57.000Z</time>
      </trkpt>
      <trkpt lat="45.17546" lon="5.95166">
        <ele>2266</ele>
        <time>2023-08-12T11:07:00.000Z</time>
      </trkpt>
      <trkpt lat="45.17546" lon="5.95164">
        <ele>2266.6000976562</ele>
        <time>2023-08-12T11:07:03.000Z</time>
      </trkpt>
      <trkpt lat="45.17546" lon="5.95162">
        <ele>2267</ele>
        <time>2023-08-12T11:07:06.000Z</time>
      </trkpt>
      <trkpt lat="45.17544" lon="5.9516">
        <ele>2267.3999023438</ele>
        <time>2023-08-12T11:07:10.000Z</time>
      </trkpt>
      <trkpt lat="45.17542" lon="5.95157">
        <ele>2268.1999511719</ele>
        <time>2023-08-12T11:07:17.000Z</time>
      </trkpt>
      <trkpt lat="45.17539" lon="5.95155">
        <ele>2269.1999511719</ele>
        <time>2023-08-12T11:07:25.000Z</time>
      </trkpt>
      <trkpt lat="45.17538" lon="5.95154">
        <ele>2269.1999511719</ele>
        <time>2023-08-12T11:07:30.000Z</time>
      </trkpt>
      <trkpt lat="45.17536" lon="5.95155">
        <ele>2270.1999511719</ele>
        <time>2023-08-12T11:07:39.000Z</time>
      </trkpt>
      <trkpt lat="45.17535" lon="5.95155">
        <ele>2270.3999023438</ele>
        <time>2023-08-12T11:07:41.000Z</time>
      </trkpt>
      <trkpt lat="45.17533" lon="5.95155">
        <ele>2271.1999511719</ele>
        <time>2023-08-12T11:07:47.000Z</time>
      </trkpt>
      <trkpt lat="45.17533" lon="5.95154">
        <ele>2271.3999023438</ele>
        <time>2023-08-12T11:07:48.000Z</time>
      </trkpt>
      <trkpt lat="45.1753" lon="5.95154">
        <ele>2271.8000488281</ele>
        <time>2023-08-12T11:07:57.000Z</time>
      </trkpt>
      <trkpt lat="45.17529" lon="5.95153">
        <ele>2272.3999023438</ele>
        <time>2023-08-12T11:08:03.000Z</time>
      </trkpt>
      <trkpt lat="45.17526" lon="5.95149">
        <ele>2272.3999023438</ele>
        <time>2023-08-12T11:08:14.000Z</time>
      </trkpt>
      <trkpt lat="45.17524" lon="5.95147">
        <ele>2272.8000488281</ele>
        <time>2023-08-12T11:08:21.000Z</time>
      </trkpt>
      <trkpt lat="45.17522" lon="5.95145">
        <ele>2273.1999511719</ele>
        <time>2023-08-12T11:08:29.000Z</time>
      </trkpt>
      <trkpt lat="45.17522" lon="5.95144">
        <ele>2273.3999023438</ele>
        <time>2023-08-12T11:08:31.000Z</time>
      </trkpt>
      <trkpt lat="45.1752" lon="5.9514">
        <ele>2273.6000976562</ele>
        <time>2023-08-12T11:08:36.000Z</time>
      </trkpt>
      <trkpt lat="45.1752" lon="5.95138">
        <ele>2274</ele>
        <time>2023-08-12T11:08:41.000Z</time>
      </trkpt>
      <trkpt lat="45.17519" lon="5.95136">
        <ele>2274.3999023438</ele>
        <time>2023-08-12T11:08:45.000Z</time>
      </trkpt>
      <trkpt lat="45.17518" lon="5.95135">
        <ele>2275</ele>
        <time>2023-08-12T11:08:48.000Z</time>
      </trkpt>
      <trkpt lat="45.17518" lon="5.95135">
        <ele>2275.6000976562</ele>
        <time>2023-08-12T11:08:51.000Z</time>
      </trkpt>
      <trkpt lat="45.17517" lon="5.95136">
        <ele>2276.1999511719</ele>
        <time>2023-08-12T11:08:56.000Z</time>
      </trkpt>
      <trkpt lat="45.17516" lon="5.95136">
        <ele>2276.6000976562</ele>
        <time>2023-08-12T11:08:59.000Z</time>
      </trkpt>
      <trkpt lat="45.17513" lon="5.95135">
        <ele>2277.1999511719</ele>
        <time>2023-08-12T11:09:03.000Z</time>
      </trkpt>
      <trkpt lat="45.1751" lon="5.95132">
        <ele>2277.8000488281</ele>
        <time>2023-08-12T11:09:07.000Z</time>
      </trkpt>
      <trkpt lat="45.1751" lon="5.95132">
        <ele>2278.1999511719</ele>
        <time>2023-08-12T11:09:10.000Z</time>
      </trkpt>
      <trkpt lat="45.1751" lon="5.95131">
        <ele>2278.8000488281</ele>
        <time>2023-08-12T11:09:16.000Z</time>
      </trkpt>
      <trkpt lat="45.17509" lon="5.9513">
        <ele>2279.1999511719</ele>
        <time>2023-08-12T11:09:21.000Z</time>
      </trkpt>
      <trkpt lat="45.17507" lon="5.95128">
        <ele>2279.8000488281</ele>
        <time>2023-08-12T11:09:26.000Z</time>
      </trkpt>
      <trkpt lat="45.17506" lon="5.95128">
        <ele>2280</ele>
        <time>2023-08-12T11:09:28.000Z</time>
      </trkpt>
      <trkpt lat="45.17504" lon="5.95126">
        <ele>2280.8000488281</ele>
        <time>2023-08-12T11:09:34.000Z</time>
      </trkpt>
      <trkpt lat="45.17504" lon="5.95126">
        <ele>2281</ele>
        <time>2023-08-12T11:09:35.000Z</time>
      </trkpt>
      <trkpt lat="45.17499" lon="5.95124">
        <ele>2281.6000976562</ele>
        <time>2023-08-12T11:09:44.000Z</time>
      </trkpt>
      <trkpt lat="45.17499" lon="5.95123">
        <ele>2281.8000488281</ele>
        <time>2023-08-12T11:09:47.000Z</time>
      </trkpt>
      <trkpt lat="45.175" lon="5.95121">
        <ele>2282.6000976562</ele>
        <time>2023-08-12T11:09:51.000Z</time>
      </trkpt>
      <trkpt lat="45.17501" lon="5.95121">
        <ele>2283</ele>
        <time>2023-08-12T11:09:54.000Z</time>
      </trkpt>
      <trkpt lat="45.175" lon="5.9512">
        <ele>2283.1999511719</ele>
        <time>2023-08-12T11:09:58.000Z</time>
      </trkpt>
      <trkpt lat="45.17498" lon="5.95118">
        <ele>2284.1999511719</ele>
        <time>2023-08-12T11:10:06.000Z</time>
      </trkpt>
      <trkpt lat="45.17493" lon="5.95119">
        <ele>2285</ele>
        <time>2023-08-12T11:10:16.000Z</time>
      </trkpt>
      <trkpt lat="45.17493" lon="5.95118">
        <ele>2285.1999511719</ele>
        <time>2023-08-12T11:10:23.000Z</time>
      </trkpt>
      <trkpt lat="45.17492" lon="5.95118">
        <ele>2285.6000976562</ele>
        <time>2023-08-12T11:10:25.000Z</time>
      </trkpt>
      <trkpt lat="45.17491" lon="5.95118">
        <ele>2286.1999511719</ele>
        <time>2023-08-12T11:10:30.000Z</time>
      </trkpt>
      <trkpt lat="45.1749" lon="5.95118">
        <ele>2286.3999023438</ele>
        <time>2023-08-12T11:10:31.000Z</time>
      </trkpt>
      <trkpt lat="45.17489" lon="5.95117">
        <ele>2287.3999023438</ele>
        <time>2023-08-12T11:10:37.000Z</time>
      </trkpt>
      <trkpt lat="45.17489" lon="5.95117">
        <ele>2287.6000976562</ele>
        <time>2023-08-12T11:10:38.000Z</time>
      </trkpt>
      <trkpt lat="45.17489" lon="5.95115">
        <ele>2288.3999023438</ele>
        <time>2023-08-12T11:10:45.000Z</time>
      </trkpt>
      <trkpt lat="45.17488" lon="5.95115">
        <ele>2288.3999023438</ele>
        <time>2023-08-12T11:10:46.000Z</time>
      </trkpt>
      <trkpt lat="45.17488" lon="5.95114">
        <ele>2289.3999023438</ele>
        <time>2023-08-12T11:10:54.000Z</time>
      </trkpt>
      <trkpt lat="45.17488" lon="5.95112">
        <ele>2289.3999023438</ele>
        <time>2023-08-12T11:10:59.000Z</time>
      </trkpt>
      <trkpt lat="45.17486" lon="5.9511">
        <ele>2289.6000976562</ele>
        <time>2023-08-12T11:11:03.000Z</time>
      </trkpt>
      <trkpt lat="45.17484" lon="5.95108">
        <ele>2290</ele>
        <time>2023-08-12T11:11:06.000Z</time>
      </trkpt>
      <trkpt lat="45.17483" lon="5.95105">
        <ele>2290.1999511719</ele>
        <time>2023-08-12T11:11:10.000Z</time>
      </trkpt>
      <trkpt lat="45.17479" lon="5.95099">
        <ele>2290.8000488281</ele>
        <time>2023-08-12T11:11:18.000Z</time>
      </trkpt>
      <trkpt lat="45.17478" lon="5.95098">
        <ele>2290.8000488281</ele>
        <time>2023-08-12T11:11:19.000Z</time>
      </trkpt>
      <trkpt lat="45.17477" lon="5.95096">
        <ele>2291.1999511719</ele>
        <time>2023-08-12T11:11:26.000Z</time>
      </trkpt>
      <trkpt lat="45.17476" lon="5.95092">
        <ele>2290.8000488281</ele>
        <time>2023-08-12T11:11:35.000Z</time>
      </trkpt>
      <trkpt lat="45.17477" lon="5.9509">
        <ele>2291.1999511719</ele>
        <time>2023-08-12T11:11:40.000Z</time>
      </trkpt>
      <trkpt lat="45.17477" lon="5.9509">
        <ele>2291.8000488281</ele>
        <time>2023-08-12T11:11:47.000Z</time>
      </trkpt>
      <trkpt lat="45.17477" lon="5.95091">
        <ele>2291.8000488281</ele>
        <time>2023-08-12T11:11:49.000Z</time>
      </trkpt>
      <trkpt lat="45.17475" lon="5.95088">
        <ele>2292.3999023438</ele>
        <time>2023-08-12T11:11:57.000Z</time>
      </trkpt>
      <trkpt lat="45.17474" lon="5.95085">
        <ele>2292.8000488281</ele>
        <time>2023-08-12T11:12:01.000Z</time>
      </trkpt>
      <trkpt lat="45.17472" lon="5.95082">
        <ele>2293.1999511719</ele>
        <time>2023-08-12T11:12:05.000Z</time>
      </trkpt>
      <trkpt lat="45.17469" lon="5.95075">
        <ele>2293.3999023438</ele>
        <time>2023-08-12T11:12:13.000Z</time>
      </trkpt>
      <trkpt lat="45.17465" lon="5.95067">
        <ele>2293.3999023438</ele>
        <time>2023-08-12T11:12:21.000Z</time>
      </trkpt>
      <trkpt lat="45.17464" lon="5.95063">
        <ele>2293.8000488281</ele>
        <time>2023-08-12T11:12:28.000Z</time>
      </trkpt>
      <trkpt lat="45.17464" lon="5.95059">
        <ele>2294.1999511719</ele>
        <time>2023-08-12T11:12:34.000Z</time>
      </trkpt>
      <trkpt lat="45.17465" lon="5.95059">
        <ele>2294.8000488281</ele>
        <time>2023-08-12T11:12:40.000Z</time>
      </trkpt>
      <trkpt lat="45.17465" lon="5.95059">
        <ele>2295.1999511719</ele>
        <time>2023-08-12T11:12:42.000Z</time>
      </trkpt>
      <trkpt lat="45.17466" lon="5.9506">
        <ele>2295.8000488281</ele>
        <time>2023-08-12T11:12:47.000Z</time>
      </trkpt>
      <trkpt lat="45.17467" lon="5.9506">
        <ele>2296</ele>
        <time>2023-08-12T11:12:48.000Z</time>
      </trkpt>
      <trkpt lat="45.17463" lon="5.95057">
        <ele>2297</ele>
        <time>2023-08-12T11:12:56.000Z</time>
      </trkpt>
      <trkpt lat="45.17463" lon="5.95057">
        <ele>2297</ele>
        <time>2023-08-12T11:12:57.000Z</time>
      </trkpt>
      <trkpt lat="45.17459" lon="5.95051">
        <ele>2297.8000488281</ele>
        <time>2023-08-12T11:13:04.000Z</time>
      </trkpt>
      <trkpt lat="45.17459" lon="5.9505">
        <ele>2298</ele>
        <time>2023-08-12T11:13:06.000Z</time>
      </trkpt>
      <trkpt lat="45.17459" lon="5.95046">
        <ele>2298.8000488281</ele>
        <time>2023-08-12T11:13:13.000Z</time>
      </trkpt>
      <trkpt lat="45.17459" lon="5.95042">
        <ele>2299.1999511719</ele>
        <time>2023-08-12T11:13:17.000Z</time>
      </trkpt>
      <trkpt lat="45.17459" lon="5.95038">
        <ele>2299.6000976562</ele>
        <time>2023-08-12T11:13:21.000Z</time>
      </trkpt>
      <trkpt lat="45.17457" lon="5.95037">
        <ele>2300.1999511719</ele>
        <time>2023-08-12T11:13:26.000Z</time>
      </trkpt>
      <trkpt lat="45.17454" lon="5.95036">
        <ele>2301</ele>
        <time>2023-08-12T11:13:31.000Z</time>
      </trkpt>
      <trkpt lat="45.17454" lon="5.95035">
        <ele>2301.3999023438</ele>
        <time>2023-08-12T11:13:33.000Z</time>
      </trkpt>
      <trkpt lat="45.17453" lon="5.9503">
        <ele>2302.6000976562</ele>
        <time>2023-08-12T11:13:39.000Z</time>
      </trkpt>
      <trkpt lat="45.17453" lon="5.9503">
        <ele>2302.6000976562</ele>
        <time>2023-08-12T11:13:40.000Z</time>
      </trkpt>
      <trkpt lat="45.17453" lon="5.95027">
        <ele>2303.6000976562</ele>
        <time>2023-08-12T11:13:46.000Z</time>
      </trkpt>
      <trkpt lat="45.17453" lon="5.95027">
        <ele>2303.8000488281</ele>
        <time>2023-08-12T11:13:48.000Z</time>
      </trkpt>
      <trkpt lat="45.17454" lon="5.95026">
        <ele>2304.6000976562</ele>
        <time>2023-08-12T11:13:52.000Z</time>
      </trkpt>
      <trkpt lat="45.17454" lon="5.95022">
        <ele>2305.1999511719</ele>
        <time>2023-08-12T11:13:56.000Z</time>
      </trkpt>
      <trkpt lat="45.17455" lon="5.95024">
        <ele>2305.6000976562</ele>
        <time>2023-08-12T11:13:58.000Z</time>
      </trkpt>
      <trkpt lat="45.17455" lon="5.95025">
        <ele>2306.1999511719</ele>
        <time>2023-08-12T11:14:02.000Z</time>
      </trkpt>
      <trkpt lat="45.17453" lon="5.95022">
        <ele>2306.8000488281</ele>
        <time>2023-08-12T11:14:06.000Z</time>
      </trkpt>
      <trkpt lat="45.17453" lon="5.95022">
        <ele>2307.1999511719</ele>
        <time>2023-08-12T11:14:09.000Z</time>
      </trkpt>
      <trkpt lat="45.17452" lon="5.95022">
        <ele>2307.8000488281</ele>
        <time>2023-08-12T11:14:12.000Z</time>
      </trkpt>
      <trkpt lat="45.17452" lon="5.9502">
        <ele>2308.3999023438</ele>
        <time>2023-08-12T11:14:17.000Z</time>
      </trkpt>
      <trkpt lat="45.17451" lon="5.95016">
        <ele>2309</ele>
        <time>2023-08-12T11:14:22.000Z</time>
      </trkpt>
      <trkpt lat="45.17451" lon="5.95016">
        <ele>2309.1999511719</ele>
        <time>2023-08-12T11:14:23.000Z</time>
      </trkpt>
      <trkpt lat="45.17449" lon="5.95016">
        <ele>2310</ele>
        <time>2023-08-12T11:14:27.000Z</time>
      </trkpt>
      <trkpt lat="45.17445" lon="5.95013">
        <ele>2310.6000976562</ele>
        <time>2023-08-12T11:14:30.000Z</time>
      </trkpt>
      <trkpt lat="45.17444" lon="5.95013">
        <ele>2311</ele>
        <time>2023-08-12T11:14:32.000Z</time>
      </trkpt>
      <trkpt lat="45.17445" lon="5.95012">
        <ele>2312</ele>
        <time>2023-08-12T11:14:37.000Z</time>
      </trkpt>
      <trkpt lat="45.17446" lon="5.95012">
        <ele>2312.1999511719</ele>
        <time>2023-08-12T11:14:38.000Z</time>
      </trkpt>
      <trkpt lat="45.17446" lon="5.9501">
        <ele>2313.1999511719</ele>
        <time>2023-08-12T11:14:45.000Z</time>
      </trkpt>
      <trkpt lat="45.17446" lon="5.95008">
        <ele>2314.3999023438</ele>
        <time>2023-08-12T11:14:50.000Z</time>
      </trkpt>
      <trkpt lat="45.17446" lon="5.95007">
        <ele>2314.6000976562</ele>
        <time>2023-08-12T11:14:51.000Z</time>
      </trkpt>
      <trkpt lat="45.17447" lon="5.95006">
        <ele>2315.3999023438</ele>
        <time>2023-08-12T11:14:56.000Z</time>
      </trkpt>
      <trkpt lat="45.17446" lon="5.95004">
        <ele>2316</ele>
        <time>2023-08-12T11:15:00.000Z</time>
      </trkpt>
      <trkpt lat="45.17445" lon="5.95003">
        <ele>2316.3999023438</ele>
        <time>2023-08-12T11:15:02.000Z</time>
      </trkpt>
      <trkpt lat="45.17443" lon="5.94999">
        <ele>2317.1999511719</ele>
        <time>2023-08-12T11:15:06.000Z</time>
      </trkpt>
      <trkpt lat="45.17442" lon="5.94997">
        <ele>2317.6000976562</ele>
        <time>2023-08-12T11:15:08.000Z</time>
      </trkpt>
      <trkpt lat="45.17443" lon="5.94995">
        <ele>2318.6000976562</ele>
        <time>2023-08-12T11:15:14.000Z</time>
      </trkpt>
      <trkpt lat="45.17447" lon="5.94994">
        <ele>2320</ele>
        <time>2023-08-12T11:15:23.000Z</time>
      </trkpt>
      <trkpt lat="45.17446" lon="5.94994">
        <ele>2320.3999023438</ele>
        <time>2023-08-12T11:15:32.000Z</time>
      </trkpt>
      <trkpt lat="45.17445" lon="5.94991">
        <ele>2320.6000976562</ele>
        <time>2023-08-12T11:15:42.000Z</time>
      </trkpt>
      <trkpt lat="45.17445" lon="5.94988">
        <ele>2320.8000488281</ele>
        <time>2023-08-12T11:15:49.000Z</time>
      </trkpt>
      <trkpt lat="45.17445" lon="5.94988">
        <ele>2320.8000488281</ele>
        <time>2023-08-12T11:15:50.000Z</time>
      </trkpt>
      <trkpt lat="45.17445" lon="5.94987">
        <ele>2321.1999511719</ele>
        <time>2023-08-12T11:15:54.000Z</time>
      </trkpt>
      <trkpt lat="45.17442" lon="5.94982">
        <ele>2321.8000488281</ele>
        <time>2023-08-12T11:16:00.000Z</time>
      </trkpt>
      <trkpt lat="45.17443" lon="5.94977">
        <ele>2322.6000976562</ele>
        <time>2023-08-12T11:16:07.000Z</time>
      </trkpt>
      <trkpt lat="45.17443" lon="5.94972">
        <ele>2323</ele>
        <time>2023-08-12T11:16:14.000Z</time>
      </trkpt>
      <trkpt lat="45.17443" lon="5.9497">
        <ele>2323</ele>
        <time>2023-08-12T11:16:15.000Z</time>
      </trkpt>
      <trkpt lat="45.17442" lon="5.94967">
        <ele>2324</ele>
        <time>2023-08-12T11:16:22.000Z</time>
      </trkpt>
      <trkpt lat="45.17442" lon="5.94967">
        <ele>2324</ele>
        <time>2023-08-12T11:16:23.000Z</time>
      </trkpt>
      <trkpt lat="45.17442" lon="5.94963">
        <ele>2325.1999511719</ele>
        <time>2023-08-12T11:16:29.000Z</time>
      </trkpt>
      <trkpt lat="45.17441" lon="5.94962">
        <ele>2325.3999023438</ele>
        <time>2023-08-12T11:16:31.000Z</time>
      </trkpt>
      <trkpt lat="45.1744" lon="5.94956">
        <ele>2326.1999511719</ele>
        <time>2023-08-12T11:16:38.000Z</time>
      </trkpt>
      <trkpt lat="45.17438" lon="5.94954">
        <ele>2326.8000488281</ele>
        <time>2023-08-12T11:16:41.000Z</time>
      </trkpt>
      <trkpt lat="45.17438" lon="5.9495">
        <ele>2327.1999511719</ele>
        <time>2023-08-12T11:16:45.000Z</time>
      </trkpt>
      <trkpt lat="45.17439" lon="5.94948">
        <ele>2327.6000976562</ele>
        <time>2023-08-12T11:16:47.000Z</time>
      </trkpt>
      <trkpt lat="45.1744" lon="5.94946">
        <ele>2328.1999511719</ele>
        <time>2023-08-12T11:16:55.000Z</time>
      </trkpt>
      <trkpt lat="45.17442" lon="5.94946">
        <ele>2328.1999511719</ele>
        <time>2023-08-12T11:17:01.000Z</time>
      </trkpt>
      <trkpt lat="45.17441" lon="5.94944">
        <ele>2328.1999511719</ele>
        <time>2023-08-12T11:17:09.000Z</time>
      </trkpt>
      <trkpt lat="45.17437" lon="5.94943">
        <ele>2328.1999511719</ele>
        <time>2023-08-12T11:17:19.000Z</time>
      </trkpt>
      <trkpt lat="45.17436" lon="5.94941">
        <ele>2328.1999511719</ele>
        <time>2023-08-12T11:17:25.000Z</time>
      </trkpt>
      <trkpt lat="45.17437" lon="5.94942">
        <ele>2328.1999511719</ele>
        <time>2023-08-12T11:17:34.000Z</time>
      </trkpt>
      <trkpt lat="45.17434" lon="5.94943">
        <ele>2328.8000488281</ele>
        <time>2023-08-12T11:17:45.000Z</time>
      </trkpt>
      <trkpt lat="45.17433" lon="5.94947">
        <ele>2329.6000976562</ele>
        <time>2023-08-12T11:17:52.000Z</time>
      </trkpt>
      <trkpt lat="45.17431" lon="5.94948">
        <ele>2330.6000976562</ele>
        <time>2023-08-12T11:17:57.000Z</time>
      </trkpt>
      <trkpt lat="45.1743" lon="5.94948">
        <ele>2331.8000488281</ele>
        <time>2023-08-12T11:18:05.000Z</time>
      </trkpt>
      <trkpt lat="45.17427" lon="5.94949">
        <ele>2332.8000488281</ele>
        <time>2023-08-12T11:18:11.000Z</time>
      </trkpt>
      <trkpt lat="45.17427" lon="5.94949">
        <ele>2333</ele>
        <time>2023-08-12T11:18:12.000Z</time>
      </trkpt>
      <trkpt lat="45.17428" lon="5.94946">
        <ele>2333.6000976562</ele>
        <time>2023-08-12T11:18:17.000Z</time>
      </trkpt>
      <trkpt lat="45.17428" lon="5.94944">
        <ele>2333.8000488281</ele>
        <time>2023-08-12T11:18:19.000Z</time>
      </trkpt>
      <trkpt lat="45.17428" lon="5.94943">
        <ele>2334.3999023438</ele>
        <time>2023-08-12T11:18:24.000Z</time>
      </trkpt>
      <trkpt lat="45.17426" lon="5.94941">
        <ele>2334.8000488281</ele>
        <time>2023-08-12T11:18:27.000Z</time>
      </trkpt>
      <trkpt lat="45.17427" lon="5.94936">
        <ele>2335.6000976562</ele>
        <time>2023-08-12T11:18:34.000Z</time>
      </trkpt>
      <trkpt lat="45.17428" lon="5.94935">
        <ele>2336</ele>
        <time>2023-08-12T11:18:36.000Z</time>
      </trkpt>
      <trkpt lat="45.17429" lon="5.94931">
        <ele>2336</ele>
        <time>2023-08-12T11:18:41.000Z</time>
      </trkpt>
      <trkpt lat="45.17424" lon="5.94923">
        <ele>2336.3999023438</ele>
        <time>2023-08-12T11:18:48.000Z</time>
      </trkpt>
      <trkpt lat="45.17423" lon="5.9492">
        <ele>2337</ele>
        <time>2023-08-12T11:18:51.000Z</time>
      </trkpt>
      <trkpt lat="45.17421" lon="5.94916">
        <ele>2337.6000976562</ele>
        <time>2023-08-12T11:18:56.000Z</time>
      </trkpt>
      <trkpt lat="45.17421" lon="5.94913">
        <ele>2338</ele>
        <time>2023-08-12T11:19:01.000Z</time>
      </trkpt>
      <trkpt lat="45.17421" lon="5.94907">
        <ele>2338.8000488281</ele>
        <time>2023-08-12T11:19:09.000Z</time>
      </trkpt>
      <trkpt lat="45.17421" lon="5.94906">
        <ele>2339.1999511719</ele>
        <time>2023-08-12T11:19:12.000Z</time>
      </trkpt>
      <trkpt lat="45.17422" lon="5.949">
        <ele>2340</ele>
        <time>2023-08-12T11:19:20.000Z</time>
      </trkpt>
      <trkpt lat="45.17425" lon="5.94896">
        <ele>2339.6000976562</ele>
        <time>2023-08-12T11:19:26.000Z</time>
      </trkpt>
      <trkpt lat="45.17427" lon="5.94894">
        <ele>2339.3999023438</ele>
        <time>2023-08-12T11:19:33.000Z</time>
      </trkpt>
      <trkpt lat="45.1743" lon="5.9489">
        <ele>2339.3999023438</ele>
        <time>2023-08-12T11:19:39.000Z</time>
      </trkpt>
      <trkpt lat="45.17431" lon="5.94888">
        <ele>2339.3999023438</ele>
        <time>2023-08-12T11:19:46.000Z</time>
      </trkpt>
      <trkpt lat="45.17433" lon="5.94885">
        <ele>2340</ele>
        <time>2023-08-12T11:19:54.000Z</time>
      </trkpt>
      <trkpt lat="45.17433" lon="5.94885">
        <ele>2340.3999023438</ele>
        <time>2023-08-12T11:19:58.000Z</time>
      </trkpt>
      <trkpt lat="45.17433" lon="5.94885">
        <ele>2340.6000976562</ele>
        <time>2023-08-12T11:20:01.000Z</time>
      </trkpt>
      <trkpt lat="45.17435" lon="5.94885">
        <ele>2341.3999023438</ele>
        <time>2023-08-12T11:20:06.000Z</time>
      </trkpt>
      <trkpt lat="45.17437" lon="5.94884">
        <ele>2341.8000488281</ele>
        <time>2023-08-12T11:20:09.000Z</time>
      </trkpt>
      <trkpt lat="45.17439" lon="5.94884">
        <ele>2342.6000976562</ele>
        <time>2023-08-12T11:20:13.000Z</time>
      </trkpt>
      <trkpt lat="45.1744" lon="5.94884">
        <ele>2342.8000488281</ele>
        <time>2023-08-12T11:20:15.000Z</time>
      </trkpt>
      <trkpt lat="45.17445" lon="5.94883">
        <ele>2344.6000976562</ele>
        <time>2023-08-12T11:20:26.000Z</time>
      </trkpt>
      <trkpt lat="45.17445" lon="5.94883">
        <ele>2344.8000488281</ele>
        <time>2023-08-12T11:20:27.000Z</time>
      </trkpt>
      <trkpt lat="45.17444" lon="5.94882">
        <ele>2345.8000488281</ele>
        <time>2023-08-12T11:20:33.000Z</time>
      </trkpt>
      <trkpt lat="45.17445" lon="5.9488">
        <ele>2346.3999023438</ele>
        <time>2023-08-12T11:20:39.000Z</time>
      </trkpt>
      <trkpt lat="45.17445" lon="5.94878">
        <ele>2346.8000488281</ele>
        <time>2023-08-12T11:20:43.000Z</time>
      </trkpt>
      <trkpt lat="45.17445" lon="5.94877">
        <ele>2347</ele>
        <time>2023-08-12T11:20:45.000Z</time>
      </trkpt>
      <trkpt lat="45.17446" lon="5.94874">
        <ele>2347.8000488281</ele>
        <time>2023-08-12T11:20:52.000Z</time>
      </trkpt>
      <trkpt lat="45.17447" lon="5.94873">
        <ele>2348</ele>
        <time>2023-08-12T11:20:55.000Z</time>
      </trkpt>
      <trkpt lat="45.17449" lon="5.94872">
        <ele>2348.8000488281</ele>
        <time>2023-08-12T11:21:01.000Z</time>
      </trkpt>
      <trkpt lat="45.1745" lon="5.94871">
        <ele>2349.1999511719</ele>
        <time>2023-08-12T11:21:03.000Z</time>
      </trkpt>
      <trkpt lat="45.17453" lon="5.94869">
        <ele>2349.8000488281</ele>
        <time>2023-08-12T11:21:09.000Z</time>
      </trkpt>
      <trkpt lat="45.17453" lon="5.94868">
        <ele>2350</ele>
        <time>2023-08-12T11:21:11.000Z</time>
      </trkpt>
      <trkpt lat="45.17448" lon="5.94864">
        <ele>2350.3999023438</ele>
        <time>2023-08-12T11:21:18.000Z</time>
      </trkpt>
      <trkpt lat="45.17447" lon="5.94862">
        <ele>2351</ele>
        <time>2023-08-12T11:21:21.000Z</time>
      </trkpt>
      <trkpt lat="45.17444" lon="5.94861">
        <ele>2351.6000976562</ele>
        <time>2023-08-12T11:21:26.000Z</time>
      </trkpt>
      <trkpt lat="45.17444" lon="5.94861">
        <ele>2352</ele>
        <time>2023-08-12T11:21:29.000Z</time>
      </trkpt>
      <trkpt lat="45.17441" lon="5.9486">
        <ele>2352.6000976562</ele>
        <time>2023-08-12T11:21:34.000Z</time>
      </trkpt>
      <trkpt lat="45.1744" lon="5.94858">
        <ele>2353</ele>
        <time>2023-08-12T11:21:37.000Z</time>
      </trkpt>
      <trkpt lat="45.17437" lon="5.94854">
        <ele>2353.8000488281</ele>
        <time>2023-08-12T11:21:42.000Z</time>
      </trkpt>
      <trkpt lat="45.17436" lon="5.94851">
        <ele>2354.1999511719</ele>
        <time>2023-08-12T11:21:44.000Z</time>
      </trkpt>
      <trkpt lat="45.17432" lon="5.94848">
        <ele>2355.1999511719</ele>
        <time>2023-08-12T11:21:50.000Z</time>
      </trkpt>
      <trkpt lat="45.17432" lon="5.94849">
        <ele>2355.3999023438</ele>
        <time>2023-08-12T11:21:51.000Z</time>
      </trkpt>
      <trkpt lat="45.17435" lon="5.94854">
        <ele>2355.3999023438</ele>
        <time>2023-08-12T11:21:58.000Z</time>
      </trkpt>
      <trkpt lat="45.17433" lon="5.94852">
        <ele>2355.3999023438</ele>
        <time>2023-08-12T11:22:05.000Z</time>
      </trkpt>
      <trkpt lat="45.17433" lon="5.94849">
        <ele>2355.3999023438</ele>
        <time>2023-08-12T11:22:13.000Z</time>
      </trkpt>
      <trkpt lat="45.17434" lon="5.94846">
        <ele>2355.1999511719</ele>
        <time>2023-08-12T11:22:20.000Z</time>
      </trkpt>
      <trkpt lat="45.17432" lon="5.94841">
        <ele>2356.3999023438</ele>
        <time>2023-08-12T11:22:28.000Z</time>
      </trkpt>
      <trkpt lat="45.17431" lon="5.94841">
        <ele>2356.3999023438</ele>
        <time>2023-08-12T11:22:29.000Z</time>
      </trkpt>
      <trkpt lat="45.17427" lon="5.94836">
        <ele>2357.1999511719</ele>
        <time>2023-08-12T11:22:38.000Z</time>
      </trkpt>
      <trkpt lat="45.17427" lon="5.94835">
        <ele>2357.3999023438</ele>
        <time>2023-08-12T11:22:39.000Z</time>
      </trkpt>
      <trkpt lat="45.17424" lon="5.9483">
        <ele>2358.3999023438</ele>
        <time>2023-08-12T11:22:46.000Z</time>
      </trkpt>
      <trkpt lat="45.17423" lon="5.94829">
        <ele>2358.8000488281</ele>
        <time>2023-08-12T11:22:48.000Z</time>
      </trkpt>
      <trkpt lat="45.17421" lon="5.94828">
        <ele>2359.3999023438</ele>
        <time>2023-08-12T11:22:52.000Z</time>
      </trkpt>
      <trkpt lat="45.17421" lon="5.94827">
        <ele>2360</ele>
        <time>2023-08-12T11:22:55.000Z</time>
      </trkpt>
      <trkpt lat="45.1742" lon="5.94829">
        <ele>2360.1999511719</ele>
        <time>2023-08-12T11:23:05.000Z</time>
      </trkpt>
      <trkpt lat="45.17419" lon="5.9483">
        <ele>2360.1999511719</ele>
        <time>2023-08-12T11:23:11.000Z</time>
      </trkpt>
      <trkpt lat="45.1742" lon="5.94827">
        <ele>2360.1999511719</ele>
        <time>2023-08-12T11:23:17.000Z</time>
      </trkpt>
      <trkpt lat="45.17419" lon="5.9483">
        <ele>2360.1999511719</ele>
        <time>2023-08-12T11:23:24.000Z</time>
      </trkpt>
      <trkpt lat="45.17417" lon="5.94829">
        <ele>2360.6000976562</ele>
        <time>2023-08-12T11:23:27.000Z</time>
      </trkpt>
      <trkpt lat="45.17416" lon="5.94825">
        <ele>2361.3999023438</ele>
        <time>2023-08-12T11:23:32.000Z</time>
      </trkpt>
      <trkpt lat="45.17416" lon="5.94824">
        <ele>2361.6000976562</ele>
        <time>2023-08-12T11:23:33.000Z</time>
      </trkpt>
      <trkpt lat="45.17412" lon="5.94822">
        <ele>2362.3999023438</ele>
        <time>2023-08-12T11:23:38.000Z</time>
      </trkpt>
      <trkpt lat="45.17411" lon="5.94821">
        <ele>2362.6000976562</ele>
        <time>2023-08-12T11:23:41.000Z</time>
      </trkpt>
      <trkpt lat="45.17406" lon="5.94819">
        <ele>2363.1999511719</ele>
        <time>2023-08-12T11:23:46.000Z</time>
      </trkpt>
      <trkpt lat="45.17402" lon="5.94817">
        <ele>2363.8000488281</ele>
        <time>2023-08-12T11:23:51.000Z</time>
      </trkpt>
      <trkpt lat="45.17399" lon="5.94816">
        <ele>2364.1999511719</ele>
        <time>2023-08-12T11:23:54.000Z</time>
      </trkpt>
      <trkpt lat="45.17395" lon="5.94815">
        <ele>2364.1999511719</ele>
        <time>2023-08-12T11:23:59.000Z</time>
      </trkpt>
      <trkpt lat="45.17393" lon="5.94813">
        <ele>2364.8000488281</ele>
        <time>2023-08-12T11:24:03.000Z</time>
      </trkpt>
      <trkpt lat="45.17392" lon="5.94812">
        <ele>2365.8000488281</ele>
        <time>2023-08-12T11:24:08.000Z</time>
      </trkpt>
      <trkpt lat="45.17392" lon="5.94811">
        <ele>2365.8000488281</ele>
        <time>2023-08-12T11:24:09.000Z</time>
      </trkpt>
      <trkpt lat="45.17392" lon="5.94809">
        <ele>2366.8000488281</ele>
        <time>2023-08-12T11:24:13.000Z</time>
      </trkpt>
      <trkpt lat="45.17392" lon="5.94808">
        <ele>2366.8000488281</ele>
        <time>2023-08-12T11:24:14.000Z</time>
      </trkpt>
      <trkpt lat="45.17391" lon="5.94805">
        <ele>2367</ele>
        <time>2023-08-12T11:24:17.000Z</time>
      </trkpt>
      <trkpt lat="45.1739" lon="5.94802">
        <ele>2367.8000488281</ele>
        <time>2023-08-12T11:24:21.000Z</time>
      </trkpt>
      <trkpt lat="45.17389" lon="5.948">
        <ele>2368</ele>
        <time>2023-08-12T11:24:23.000Z</time>
      </trkpt>
      <trkpt lat="45.17388" lon="5.94799">
        <ele>2368.6000976562</ele>
        <time>2023-08-12T11:24:29.000Z</time>
      </trkpt>
      <trkpt lat="45.17387" lon="5.94799">
        <ele>2369</ele>
        <time>2023-08-12T11:24:32.000Z</time>
      </trkpt>
      <trkpt lat="45.17386" lon="5.94799">
        <ele>2369.8000488281</ele>
        <time>2023-08-12T11:24:37.000Z</time>
      </trkpt>
      <trkpt lat="45.17385" lon="5.94799">
        <ele>2370</ele>
        <time>2023-08-12T11:24:39.000Z</time>
      </trkpt>
      <trkpt lat="45.17382" lon="5.94798">
        <ele>2371</ele>
        <time>2023-08-12T11:24:46.000Z</time>
      </trkpt>
      <trkpt lat="45.17382" lon="5.94798">
        <ele>2371.1999511719</ele>
        <time>2023-08-12T11:24:47.000Z</time>
      </trkpt>
      <trkpt lat="45.1738" lon="5.94795">
        <ele>2372</ele>
        <time>2023-08-12T11:24:53.000Z</time>
      </trkpt>
      <trkpt lat="45.17379" lon="5.94797">
        <ele>2372</ele>
        <time>2023-08-12T11:25:03.000Z</time>
      </trkpt>
      <trkpt lat="45.17378" lon="5.94793">
        <ele>2371.8000488281</ele>
        <time>2023-08-12T11:25:10.000Z</time>
      </trkpt>
      <trkpt lat="45.17379" lon="5.94797">
        <ele>2371.6000976562</ele>
        <time>2023-08-12T11:25:18.000Z</time>
      </trkpt>
      <trkpt lat="45.1738" lon="5.94796">
        <ele>2371.6000976562</ele>
        <time>2023-08-12T11:25:25.000Z</time>
      </trkpt>
      <trkpt lat="45.17383" lon="5.94802">
        <ele>2371.6000976562</ele>
        <time>2023-08-12T11:25:36.000Z</time>
      </trkpt>
      <trkpt lat="45.17382" lon="5.94796">
        <ele>2371.8000488281</ele>
        <time>2023-08-12T11:25:44.000Z</time>
      </trkpt>
      <trkpt lat="45.1738" lon="5.94793">
        <ele>2371.3999023438</ele>
        <time>2023-08-12T11:25:52.000Z</time>
      </trkpt>
      <trkpt lat="45.17379" lon="5.94795">
        <ele>2371.3999023438</ele>
        <time>2023-08-12T11:25:58.000Z</time>
      </trkpt>
      <trkpt lat="45.1738" lon="5.94794">
        <ele>2371.6000976562</ele>
        <time>2023-08-12T11:26:05.000Z</time>
      </trkpt>
      <trkpt lat="45.17381" lon="5.94794">
        <ele>2371.6000976562</ele>
        <time>2023-08-12T11:26:12.000Z</time>
      </trkpt>
      <trkpt lat="45.1738" lon="5.94793">
        <ele>2371.6000976562</ele>
        <time>2023-08-12T11:26:20.000Z</time>
      </trkpt>
      <trkpt lat="45.17379" lon="5.94796">
        <ele>2371.3999023438</ele>
        <time>2023-08-12T11:26:26.000Z</time>
      </trkpt>
      <trkpt lat="45.1738" lon="5.94795">
        <ele>2371.3999023438</ele>
        <time>2023-08-12T11:26:33.000Z</time>
      </trkpt>
      <trkpt lat="45.1738" lon="5.94794">
        <ele>2371.3999023438</ele>
        <time>2023-08-12T11:26:40.000Z</time>
      </trkpt>
      <trkpt lat="45.1738" lon="5.94794">
        <ele>2370.6000976562</ele>
        <time>2023-08-12T11:26:48.000Z</time>
      </trkpt>
      <trkpt lat="45.17379" lon="5.94791">
        <ele>2370.1999511719</ele>
        <time>2023-08-12T11:26:52.000Z</time>
      </trkpt>
      <trkpt lat="45.17377" lon="5.94791">
        <ele>2369.6000976562</ele>
        <time>2023-08-12T11:26:57.000Z</time>
      </trkpt>
      <trkpt lat="45.17377" lon="5.9479">
        <ele>2369</ele>
        <time>2023-08-12T11:27:01.000Z</time>
      </trkpt>
      <trkpt lat="45.17378" lon="5.94789">
        <ele>2368.6000976562</ele>
        <time>2023-08-12T11:27:06.000Z</time>
      </trkpt>
      <trkpt lat="45.17379" lon="5.94788">
        <ele>2368</ele>
        <time>2023-08-12T11:27:11.000Z</time>
      </trkpt>
      <trkpt lat="45.17378" lon="5.94787">
        <ele>2367.8000488281</ele>
        <time>2023-08-12T11:27:13.000Z</time>
      </trkpt>
      <trkpt lat="45.17378" lon="5.94784">
        <ele>2366.8000488281</ele>
        <time>2023-08-12T11:27:19.000Z</time>
      </trkpt>
      <trkpt lat="45.17379" lon="5.94782">
        <ele>2366.3999023438</ele>
        <time>2023-08-12T11:27:23.000Z</time>
      </trkpt>
      <trkpt lat="45.17379" lon="5.94782">
        <ele>2365.8000488281</ele>
        <time>2023-08-12T11:27:28.000Z</time>
      </trkpt>
      <trkpt lat="45.17379" lon="5.94783">
        <ele>2365.3999023438</ele>
        <time>2023-08-12T11:27:32.000Z</time>
      </trkpt>
      <trkpt lat="45.17379" lon="5.94783">
        <ele>2364.6000976562</ele>
        <time>2023-08-12T11:27:37.000Z</time>
      </trkpt>
      <trkpt lat="45.17378" lon="5.9478">
        <ele>2364.3999023438</ele>
        <time>2023-08-12T11:27:41.000Z</time>
      </trkpt>
      <trkpt lat="45.17379" lon="5.94779">
        <ele>2363.8000488281</ele>
        <time>2023-08-12T11:27:48.000Z</time>
      </trkpt>
      <trkpt lat="45.1738" lon="5.94777">
        <ele>2363.6000976562</ele>
        <time>2023-08-12T11:27:51.000Z</time>
      </trkpt>
      <trkpt lat="45.17381" lon="5.94774">
        <ele>2362.8000488281</ele>
        <time>2023-08-12T11:27:57.000Z</time>
      </trkpt>
      <trkpt lat="45.17381" lon="5.94774">
        <ele>2362.3999023438</ele>
        <time>2023-08-12T11:27:58.000Z</time>
      </trkpt>
      <trkpt lat="45.17382" lon="5.94771">
        <ele>2361.6000976562</ele>
        <time>2023-08-12T11:28:05.000Z</time>
      </trkpt>
      <trkpt lat="45.17381" lon="5.94769">
        <ele>2361.3999023438</ele>
        <time>2023-08-12T11:28:08.000Z</time>
      </trkpt>
      <trkpt lat="45.1738" lon="5.94766">
        <ele>2360.6000976562</ele>
        <time>2023-08-12T11:28:13.000Z</time>
      </trkpt>
      <trkpt lat="45.1738" lon="5.94764">
        <ele>2360.1999511719</ele>
        <time>2023-08-12T11:28:17.000Z</time>
      </trkpt>
      <trkpt lat="45.17379" lon="5.94762">
        <ele>2360</ele>
        <time>2023-08-12T11:28:19.000Z</time>
      </trkpt>
      <trkpt lat="45.1738" lon="5.94761">
        <ele>2359.1999511719</ele>
        <time>2023-08-12T11:28:25.000Z</time>
      </trkpt>
      <trkpt lat="45.17379" lon="5.94757">
        <ele>2358.1999511719</ele>
        <time>2023-08-12T11:28:34.000Z</time>
      </trkpt>
      <trkpt lat="45.17378" lon="5.94753">
        <ele>2357.1999511719</ele>
        <time>2023-08-12T11:28:42.000Z</time>
      </trkpt>
      <trkpt lat="45.17377" lon="5.94753">
        <ele>2357.1999511719</ele>
        <time>2023-08-12T11:28:43.000Z</time>
      </trkpt>
      <trkpt lat="45.17376" lon="5.94751">
        <ele>2356</ele>
        <time>2023-08-12T11:28:50.000Z</time>
      </trkpt>
      <trkpt lat="45.17376" lon="5.94744">
        <ele>2355</ele>
        <time>2023-08-12T11:28:58.000Z</time>
      </trkpt>
      <trkpt lat="45.17377" lon="5.94741">
        <ele>2354</ele>
        <time>2023-08-12T11:29:05.000Z</time>
      </trkpt>
      <trkpt lat="45.17377" lon="5.94741">
        <ele>2354</ele>
        <time>2023-08-12T11:29:06.000Z</time>
      </trkpt>
      <trkpt lat="45.17375" lon="5.94736">
        <ele>2353.1999511719</ele>
        <time>2023-08-12T11:29:14.000Z</time>
      </trkpt>
      <trkpt lat="45.17376" lon="5.94734">
        <ele>2352.8000488281</ele>
        <time>2023-08-12T11:29:17.000Z</time>
      </trkpt>
      <trkpt lat="45.17376" lon="5.94732">
        <ele>2352.6000976562</ele>
        <time>2023-08-12T11:29:22.000Z</time>
      </trkpt>
      <trkpt lat="45.17377" lon="5.94733">
        <ele>2352</ele>
        <time>2023-08-12T11:29:29.000Z</time>
      </trkpt>
      <trkpt lat="45.17376" lon="5.94731">
        <ele>2351.8000488281</ele>
        <time>2023-08-12T11:29:35.000Z</time>
      </trkpt>
      <trkpt lat="45.17376" lon="5.94725">
        <ele>2351.6000976562</ele>
        <time>2023-08-12T11:29:39.000Z</time>
      </trkpt>
      <trkpt lat="45.17374" lon="5.94721">
        <ele>2350.8000488281</ele>
        <time>2023-08-12T11:29:45.000Z</time>
      </trkpt>
      <trkpt lat="45.17373" lon="5.94721">
        <ele>2350.6000976562</ele>
        <time>2023-08-12T11:29:46.000Z</time>
      </trkpt>
      <trkpt lat="45.17372" lon="5.94721">
        <ele>2349.6000976562</ele>
        <time>2023-08-12T11:29:51.000Z</time>
      </trkpt>
      <trkpt lat="45.17372" lon="5.94719">
        <ele>2349.1999511719</ele>
        <time>2023-08-12T11:29:56.000Z</time>
      </trkpt>
      <trkpt lat="45.17371" lon="5.94717">
        <ele>2348.6000976562</ele>
        <time>2023-08-12T11:30:00.000Z</time>
      </trkpt>
      <trkpt lat="45.1737" lon="5.94716">
        <ele>2348.1999511719</ele>
        <time>2023-08-12T11:30:02.000Z</time>
      </trkpt>
      <trkpt lat="45.17369" lon="5.94712">
        <ele>2347.3999023438</ele>
        <time>2023-08-12T11:30:08.000Z</time>
      </trkpt>
      <trkpt lat="45.1737" lon="5.94711">
        <ele>2347.1999511719</ele>
        <time>2023-08-12T11:30:10.000Z</time>
      </trkpt>
      <trkpt lat="45.17371" lon="5.9471">
        <ele>2346.3999023438</ele>
        <time>2023-08-12T11:30:16.000Z</time>
      </trkpt>
      <trkpt lat="45.17369" lon="5.94709">
        <ele>2345.6000976562</ele>
        <time>2023-08-12T11:30:23.000Z</time>
      </trkpt>
      <trkpt lat="45.1737" lon="5.94709">
        <ele>2345.3999023438</ele>
        <time>2023-08-12T11:30:25.000Z</time>
      </trkpt>
      <trkpt lat="45.17372" lon="5.94711">
        <ele>2344.6000976562</ele>
        <time>2023-08-12T11:30:32.000Z</time>
      </trkpt>
      <trkpt lat="45.17372" lon="5.94711">
        <ele>2344.3999023438</ele>
        <time>2023-08-12T11:30:34.000Z</time>
      </trkpt>
      <trkpt lat="45.17369" lon="5.94709">
        <ele>2343.6000976562</ele>
        <time>2023-08-12T11:30:40.000Z</time>
      </trkpt>
      <trkpt lat="45.17368" lon="5.94709">
        <ele>2343.1999511719</ele>
        <time>2023-08-12T11:30:43.000Z</time>
      </trkpt>
      <trkpt lat="45.17368" lon="5.94708">
        <ele>2342.3999023438</ele>
        <time>2023-08-12T11:30:49.000Z</time>
      </trkpt>
      <trkpt lat="45.17367" lon="5.94708">
        <ele>2342.1999511719</ele>
        <time>2023-08-12T11:30:53.000Z</time>
      </trkpt>
      <trkpt lat="45.17366" lon="5.94709">
        <ele>2342</ele>
        <time>2023-08-12T11:30:57.000Z</time>
      </trkpt>
      <trkpt lat="45.17365" lon="5.94708">
        <ele>2341</ele>
        <time>2023-08-12T11:31:04.000Z</time>
      </trkpt>
      <trkpt lat="45.17365" lon="5.94708">
        <ele>2341</ele>
        <time>2023-08-12T11:31:06.000Z</time>
      </trkpt>
      <trkpt lat="45.17365" lon="5.94709">
        <ele>2340</ele>
        <time>2023-08-12T11:31:09.000Z</time>
      </trkpt>
      <trkpt lat="45.17367" lon="5.94707">
        <ele>2339.8000488281</ele>
        <time>2023-08-12T11:31:14.000Z</time>
      </trkpt>
      <trkpt lat="45.17367" lon="5.94705">
        <ele>2339.6000976562</ele>
        <time>2023-08-12T11:31:23.000Z</time>
      </trkpt>
      <trkpt lat="45.17365" lon="5.94704">
        <ele>2339</ele>
        <time>2023-08-12T11:31:29.000Z</time>
      </trkpt>
      <trkpt lat="45.17365" lon="5.94704">
        <ele>2339</ele>
        <time>2023-08-12T11:31:30.000Z</time>
      </trkpt>
      <trkpt lat="45.17363" lon="5.94703">
        <ele>2338</ele>
        <time>2023-08-12T11:31:37.000Z</time>
      </trkpt>
      <trkpt lat="45.17362" lon="5.94703">
        <ele>2337.6000976562</ele>
        <time>2023-08-12T11:31:39.000Z</time>
      </trkpt>
      <trkpt lat="45.17359" lon="5.94702">
        <ele>2337.1999511719</ele>
        <time>2023-08-12T11:31:45.000Z</time>
      </trkpt>
      <trkpt lat="45.17359" lon="5.947">
        <ele>2336.8000488281</ele>
        <time>2023-08-12T11:31:54.000Z</time>
      </trkpt>
      <trkpt lat="45.17359" lon="5.947">
        <ele>2336.3999023438</ele>
        <time>2023-08-12T11:31:58.000Z</time>
      </trkpt>
      <trkpt lat="45.1736" lon="5.94703">
        <ele>2336.1999511719</ele>
        <time>2023-08-12T11:32:01.000Z</time>
      </trkpt>
      <trkpt lat="45.17359" lon="5.94703">
        <ele>2335.3999023438</ele>
        <time>2023-08-12T11:32:03.000Z</time>
      </trkpt>
      <trkpt lat="45.17357" lon="5.94703">
        <ele>2335</ele>
        <time>2023-08-12T11:32:09.000Z</time>
      </trkpt>
      <trkpt lat="45.17356" lon="5.94703">
        <ele>2334.8000488281</ele>
        <time>2023-08-12T11:32:15.000Z</time>
      </trkpt>
      <trkpt lat="45.17357" lon="5.94706">
        <ele>2334.3999023438</ele>
        <time>2023-08-12T11:32:21.000Z</time>
      </trkpt>
      <trkpt lat="45.17357" lon="5.94705">
        <ele>2334.1999511719</ele>
        <time>2023-08-12T11:32:22.000Z</time>
      </trkpt>
      <trkpt lat="45.17355" lon="5.94704">
        <ele>2334</ele>
        <time>2023-08-12T11:32:29.000Z</time>
      </trkpt>
      <trkpt lat="45.17355" lon="5.94705">
        <ele>2333.3999023438</ele>
        <time>2023-08-12T11:32:36.000Z</time>
      </trkpt>
      <trkpt lat="45.17354" lon="5.94704">
        <ele>2333.3999023438</ele>
        <time>2023-08-12T11:32:38.000Z</time>
      </trkpt>
      <trkpt lat="45.17354" lon="5.947">
        <ele>2332.3999023438</ele>
        <time>2023-08-12T11:32:45.000Z</time>
      </trkpt>
      <trkpt lat="45.17353" lon="5.94702">
        <ele>2331.6000976562</ele>
        <time>2023-08-12T11:32:51.000Z</time>
      </trkpt>
      <trkpt lat="45.17352" lon="5.94701">
        <ele>2331.1999511719</ele>
        <time>2023-08-12T11:32:54.000Z</time>
      </trkpt>
      <trkpt lat="45.17351" lon="5.94698">
        <ele>2330.3999023438</ele>
        <time>2023-08-12T11:32:58.000Z</time>
      </trkpt>
      <trkpt lat="45.17351" lon="5.94696">
        <ele>2330</ele>
        <time>2023-08-12T11:33:00.000Z</time>
      </trkpt>
      <trkpt lat="45.17349" lon="5.94692">
        <ele>2329.3999023438</ele>
        <time>2023-08-12T11:33:05.000Z</time>
      </trkpt>
      <trkpt lat="45.1735" lon="5.94689">
        <ele>2329</ele>
        <time>2023-08-12T11:33:09.000Z</time>
      </trkpt>
      <trkpt lat="45.17351" lon="5.94689">
        <ele>2328.1999511719</ele>
        <time>2023-08-12T11:33:14.000Z</time>
      </trkpt>
      <trkpt lat="45.1735" lon="5.94691">
        <ele>2328</ele>
        <time>2023-08-12T11:33:20.000Z</time>
      </trkpt>
      <trkpt lat="45.17348" lon="5.94693">
        <ele>2327.1999511719</ele>
        <time>2023-08-12T11:33:25.000Z</time>
      </trkpt>
      <trkpt lat="45.17348" lon="5.9469">
        <ele>2326.8000488281</ele>
        <time>2023-08-12T11:33:28.000Z</time>
      </trkpt>
      <trkpt lat="45.17348" lon="5.94688">
        <ele>2326.3999023438</ele>
        <time>2023-08-12T11:33:31.000Z</time>
      </trkpt>
      <trkpt lat="45.17348" lon="5.94687">
        <ele>2325.8000488281</ele>
        <time>2023-08-12T11:33:36.000Z</time>
      </trkpt>
      <trkpt lat="45.17348" lon="5.94685">
        <ele>2325.3999023438</ele>
        <time>2023-08-12T11:33:38.000Z</time>
      </trkpt>
      <trkpt lat="45.17347" lon="5.94683">
        <ele>2324.6000976562</ele>
        <time>2023-08-12T11:33:44.000Z</time>
      </trkpt>
      <trkpt lat="45.17345" lon="5.94685">
        <ele>2323.6000976562</ele>
        <time>2023-08-12T11:33:51.000Z</time>
      </trkpt>
      <trkpt lat="45.17344" lon="5.94685">
        <ele>2323.3999023438</ele>
        <time>2023-08-12T11:33:52.000Z</time>
      </trkpt>
      <trkpt lat="45.17341" lon="5.94682">
        <ele>2322.6000976562</ele>
        <time>2023-08-12T11:33:56.000Z</time>
      </trkpt>
      <trkpt lat="45.17341" lon="5.94682">
        <ele>2322.1999511719</ele>
        <time>2023-08-12T11:33:59.000Z</time>
      </trkpt>
      <trkpt lat="45.17342" lon="5.9468">
        <ele>2321.3999023438</ele>
        <time>2023-08-12T11:34:03.000Z</time>
      </trkpt>
      <trkpt lat="45.17341" lon="5.94678">
        <ele>2321.1999511719</ele>
        <time>2023-08-12T11:34:06.000Z</time>
      </trkpt>
      <trkpt lat="45.17342" lon="5.94673">
        <ele>2320.1999511719</ele>
        <time>2023-08-12T11:34:14.000Z</time>
      </trkpt>
      <trkpt lat="45.17341" lon="5.94671">
        <ele>2319.1999511719</ele>
        <time>2023-08-12T11:34:22.000Z</time>
      </trkpt>
      <trkpt lat="45.17341" lon="5.94671">
        <ele>2319</ele>
        <time>2023-08-12T11:34:24.000Z</time>
      </trkpt>
      <trkpt lat="45.1734" lon="5.94671">
        <ele>2318.3999023438</ele>
        <time>2023-08-12T11:34:27.000Z</time>
      </trkpt>
      <trkpt lat="45.17338" lon="5.94671">
        <ele>2317.8000488281</ele>
        <time>2023-08-12T11:34:30.000Z</time>
      </trkpt>
      <trkpt lat="45.17338" lon="5.94671">
        <ele>2317.6000976562</ele>
        <time>2023-08-12T11:34:32.000Z</time>
      </trkpt>
      <trkpt lat="45.17335" lon="5.9467">
        <ele>2316.8000488281</ele>
        <time>2023-08-12T11:34:38.000Z</time>
      </trkpt>
      <trkpt lat="45.17331" lon="5.94668">
        <ele>2315.6000976562</ele>
        <time>2023-08-12T11:34:45.000Z</time>
      </trkpt>
      <trkpt lat="45.17331" lon="5.94668">
        <ele>2315.3999023438</ele>
        <time>2023-08-12T11:34:46.000Z</time>
      </trkpt>
      <trkpt lat="45.17332" lon="5.94665">
        <ele>2314.6000976562</ele>
        <time>2023-08-12T11:34:51.000Z</time>
      </trkpt>
      <trkpt lat="45.17332" lon="5.94663">
        <ele>2314.1999511719</ele>
        <time>2023-08-12T11:34:54.000Z</time>
      </trkpt>
      <trkpt lat="45.17332" lon="5.94661">
        <ele>2313.3999023438</ele>
        <time>2023-08-12T11:34:58.000Z</time>
      </trkpt>
      <trkpt lat="45.17332" lon="5.94658">
        <ele>2313</ele>
        <time>2023-08-12T11:35:01.000Z</time>
      </trkpt>
      <trkpt lat="45.17332" lon="5.94656">
        <ele>2312.3999023438</ele>
        <time>2023-08-12T11:35:04.000Z</time>
      </trkpt>
      <trkpt lat="45.17331" lon="5.94656">
        <ele>2311.3999023438</ele>
        <time>2023-08-12T11:35:12.000Z</time>
      </trkpt>
      <trkpt lat="45.1733" lon="5.94656">
        <ele>2311.1999511719</ele>
        <time>2023-08-12T11:35:13.000Z</time>
      </trkpt>
      <trkpt lat="45.17329" lon="5.94656">
        <ele>2310.3999023438</ele>
        <time>2023-08-12T11:35:19.000Z</time>
      </trkpt>
      <trkpt lat="45.17329" lon="5.94655">
        <ele>2310</ele>
        <time>2023-08-12T11:35:22.000Z</time>
      </trkpt>
      <trkpt lat="45.17328" lon="5.94652">
        <ele>2309.1999511719</ele>
        <time>2023-08-12T11:35:28.000Z</time>
      </trkpt>
      <trkpt lat="45.17328" lon="5.94651">
        <ele>2309</ele>
        <time>2023-08-12T11:35:29.000Z</time>
      </trkpt>
      <trkpt lat="45.17327" lon="5.94651">
        <ele>2308</ele>
        <time>2023-08-12T11:35:36.000Z</time>
      </trkpt>
      <trkpt lat="45.17326" lon="5.94651">
        <ele>2307.8000488281</ele>
        <time>2023-08-12T11:35:37.000Z</time>
      </trkpt>
      <trkpt lat="45.17325" lon="5.94651">
        <ele>2307</ele>
        <time>2023-08-12T11:35:42.000Z</time>
      </trkpt>
      <trkpt lat="45.17326" lon="5.9465">
        <ele>2306.6000976562</ele>
        <time>2023-08-12T11:35:44.000Z</time>
      </trkpt>
      <trkpt lat="45.17326" lon="5.94648">
        <ele>2306</ele>
        <time>2023-08-12T11:35:46.000Z</time>
      </trkpt>
      <trkpt lat="45.17327" lon="5.94641">
        <ele>2305.1999511719</ele>
        <time>2023-08-12T11:35:52.000Z</time>
      </trkpt>
      <trkpt lat="45.17327" lon="5.94641">
        <ele>2305</ele>
        <time>2023-08-12T11:35:55.000Z</time>
      </trkpt>
      <trkpt lat="45.17327" lon="5.94642">
        <ele>2304.3999023438</ele>
        <time>2023-08-12T11:35:59.000Z</time>
      </trkpt>
      <trkpt lat="45.17327" lon="5.94637">
        <ele>2304</ele>
        <time>2023-08-12T11:36:05.000Z</time>
      </trkpt>
      <trkpt lat="45.17326" lon="5.94637">
        <ele>2303.8000488281</ele>
        <time>2023-08-12T11:36:06.000Z</time>
      </trkpt>
      <trkpt lat="45.17324" lon="5.94639">
        <ele>2302.8000488281</ele>
        <time>2023-08-12T11:36:10.000Z</time>
      </trkpt>
      <trkpt lat="45.17323" lon="5.94641">
        <ele>2302</ele>
        <time>2023-08-12T11:36:14.000Z</time>
      </trkpt>
      <trkpt lat="45.17323" lon="5.94639">
        <ele>2301.8000488281</ele>
        <time>2023-08-12T11:36:17.000Z</time>
      </trkpt>
      <trkpt lat="45.17324" lon="5.94639">
        <ele>2300.6000976562</ele>
        <time>2023-08-12T11:36:21.000Z</time>
      </trkpt>
      <trkpt lat="45.17326" lon="5.94637">
        <ele>2299.3999023438</ele>
        <time>2023-08-12T11:36:25.000Z</time>
      </trkpt>
      <trkpt lat="45.17328" lon="5.94635">
        <ele>2299.1999511719</ele>
        <time>2023-08-12T11:36:30.000Z</time>
      </trkpt>
      <trkpt lat="45.17326" lon="5.9463">
        <ele>2298.6000976562</ele>
        <time>2023-08-12T11:36:37.000Z</time>
      </trkpt>
      <trkpt lat="45.17326" lon="5.9463">
        <ele>2298.3999023438</ele>
        <time>2023-08-12T11:36:38.000Z</time>
      </trkpt>
      <trkpt lat="45.17324" lon="5.94628">
        <ele>2297.6000976562</ele>
        <time>2023-08-12T11:36:45.000Z</time>
      </trkpt>
      <trkpt lat="45.17323" lon="5.94627">
        <ele>2297.1999511719</ele>
        <time>2023-08-12T11:36:47.000Z</time>
      </trkpt>
      <trkpt lat="45.17321" lon="5.94622">
        <ele>2296</ele>
        <time>2023-08-12T11:36:53.000Z</time>
      </trkpt>
      <trkpt lat="45.1732" lon="5.94622">
        <ele>2295.6000976562</ele>
        <time>2023-08-12T11:36:55.000Z</time>
      </trkpt>
      <trkpt lat="45.17317" lon="5.94621">
        <ele>2294.8000488281</ele>
        <time>2023-08-12T11:37:01.000Z</time>
      </trkpt>
      <trkpt lat="45.17316" lon="5.9462">
        <ele>2294.1999511719</ele>
        <time>2023-08-12T11:37:03.000Z</time>
      </trkpt>
      <trkpt lat="45.17316" lon="5.9462">
        <ele>2293.8000488281</ele>
        <time>2023-08-12T11:37:05.000Z</time>
      </trkpt>
      <trkpt lat="45.17314" lon="5.94617">
        <ele>2292.3999023438</ele>
        <time>2023-08-12T11:37:10.000Z</time>
      </trkpt>
      <trkpt lat="45.17313" lon="5.94617">
        <ele>2292.1999511719</ele>
        <time>2023-08-12T11:37:12.000Z</time>
      </trkpt>
      <trkpt lat="45.1731" lon="5.94616">
        <ele>2291.3999023438</ele>
        <time>2023-08-12T11:37:19.000Z</time>
      </trkpt>
      <trkpt lat="45.17308" lon="5.94615">
        <ele>2290.3999023438</ele>
        <time>2023-08-12T11:37:24.000Z</time>
      </trkpt>
      <trkpt lat="45.17307" lon="5.94614">
        <ele>2289.8000488281</ele>
        <time>2023-08-12T11:37:27.000Z</time>
      </trkpt>
      <trkpt lat="45.17306" lon="5.94613">
        <ele>2289.1999511719</ele>
        <time>2023-08-12T11:37:30.000Z</time>
      </trkpt>
      <trkpt lat="45.17305" lon="5.94611">
        <ele>2288.6000976562</ele>
        <time>2023-08-12T11:37:35.000Z</time>
      </trkpt>
      <trkpt lat="45.17307" lon="5.9461">
        <ele>2288.1999511719</ele>
        <time>2023-08-12T11:37:38.000Z</time>
      </trkpt>
      <trkpt lat="45.17308" lon="5.94609">
        <ele>2287.1999511719</ele>
        <time>2023-08-12T11:37:43.000Z</time>
      </trkpt>
      <trkpt lat="45.17308" lon="5.94609">
        <ele>2287</ele>
        <time>2023-08-12T11:37:44.000Z</time>
      </trkpt>
      <trkpt lat="45.17307" lon="5.94607">
        <ele>2286.1999511719</ele>
        <time>2023-08-12T11:37:51.000Z</time>
      </trkpt>
      <trkpt lat="45.17306" lon="5.94606">
        <ele>2286</ele>
        <time>2023-08-12T11:37:52.000Z</time>
      </trkpt>
      <trkpt lat="45.17302" lon="5.94603">
        <ele>2285</ele>
        <time>2023-08-12T11:37:59.000Z</time>
      </trkpt>
      <trkpt lat="45.17302" lon="5.94603">
        <ele>2284.8000488281</ele>
        <time>2023-08-12T11:38:00.000Z</time>
      </trkpt>
      <trkpt lat="45.17301" lon="5.94605">
        <ele>2283.8000488281</ele>
        <time>2023-08-12T11:38:05.000Z</time>
      </trkpt>
      <trkpt lat="45.173" lon="5.94605">
        <ele>2283.6000976562</ele>
        <time>2023-08-12T11:38:06.000Z</time>
      </trkpt>
      <trkpt lat="45.17301" lon="5.94602">
        <ele>2282.6000976562</ele>
        <time>2023-08-12T11:38:10.000Z</time>
      </trkpt>
      <trkpt lat="45.173" lon="5.94602">
        <ele>2282.1999511719</ele>
        <time>2023-08-12T11:38:12.000Z</time>
      </trkpt>
      <trkpt lat="45.17298" lon="5.94603">
        <ele>2281.3999023438</ele>
        <time>2023-08-12T11:38:16.000Z</time>
      </trkpt>
      <trkpt lat="45.17297" lon="5.94603">
        <ele>2280.8000488281</ele>
        <time>2023-08-12T11:38:19.000Z</time>
      </trkpt>
      <trkpt lat="45.17296" lon="5.94603">
        <ele>2280.3999023438</ele>
        <time>2023-08-12T11:38:21.000Z</time>
      </trkpt>
      <trkpt lat="45.17292" lon="5.94602">
        <ele>2279.3999023438</ele>
        <time>2023-08-12T11:38:27.000Z</time>
      </trkpt>
      <trkpt lat="45.17291" lon="5.94601">
        <ele>2279.1999511719</ele>
        <time>2023-08-12T11:38:28.000Z</time>
      </trkpt>
      <trkpt lat="45.17292" lon="5.94599">
        <ele>2278.1999511719</ele>
        <time>2023-08-12T11:38:34.000Z</time>
      </trkpt>
      <trkpt lat="45.17291" lon="5.94596">
        <ele>2277</ele>
        <time>2023-08-12T11:38:42.000Z</time>
      </trkpt>
      <trkpt lat="45.1729" lon="5.94596">
        <ele>2276.8000488281</ele>
        <time>2023-08-12T11:38:43.000Z</time>
      </trkpt>
      <trkpt lat="45.17289" lon="5.94589">
        <ele>2276</ele>
        <time>2023-08-12T11:38:49.000Z</time>
      </trkpt>
      <trkpt lat="45.17289" lon="5.94588">
        <ele>2275.8000488281</ele>
        <time>2023-08-12T11:38:50.000Z</time>
      </trkpt>
      <trkpt lat="45.17291" lon="5.94586">
        <ele>2275</ele>
        <time>2023-08-12T11:38:57.000Z</time>
      </trkpt>
      <trkpt lat="45.17291" lon="5.94585">
        <ele>2274.6000976562</ele>
        <time>2023-08-12T11:38:59.000Z</time>
      </trkpt>
      <trkpt lat="45.17293" lon="5.94585">
        <ele>2273.8000488281</ele>
        <time>2023-08-12T11:39:02.000Z</time>
      </trkpt>
      <trkpt lat="45.17294" lon="5.94587">
        <ele>2273.1999511719</ele>
        <time>2023-08-12T11:39:08.000Z</time>
      </trkpt>
      <trkpt lat="45.17294" lon="5.94586">
        <ele>2272.8000488281</ele>
        <time>2023-08-12T11:39:10.000Z</time>
      </trkpt>
      <trkpt lat="45.17292" lon="5.94583">
        <ele>2272</ele>
        <time>2023-08-12T11:39:16.000Z</time>
      </trkpt>
      <trkpt lat="45.17291" lon="5.94582">
        <ele>2271.8000488281</ele>
        <time>2023-08-12T11:39:17.000Z</time>
      </trkpt>
      <trkpt lat="45.17289" lon="5.94582">
        <ele>2270.6000976562</ele>
        <time>2023-08-12T11:39:23.000Z</time>
      </trkpt>
      <trkpt lat="45.17285" lon="5.94578">
        <ele>2269.6000976562</ele>
        <time>2023-08-12T11:39:29.000Z</time>
      </trkpt>
      <trkpt lat="45.17285" lon="5.94577">
        <ele>2269.3999023438</ele>
        <time>2023-08-12T11:39:30.000Z</time>
      </trkpt>
      <trkpt lat="45.17285" lon="5.94576">
        <ele>2269</ele>
        <time>2023-08-12T11:39:32.000Z</time>
      </trkpt>
      <trkpt lat="45.17286" lon="5.94574">
        <ele>2268.3999023438</ele>
        <time>2023-08-12T11:39:36.000Z</time>
      </trkpt>
      <trkpt lat="45.17289" lon="5.94574">
        <ele>2267.3999023438</ele>
        <time>2023-08-12T11:39:41.000Z</time>
      </trkpt>
      <trkpt lat="45.1729" lon="5.94574">
        <ele>2267.1999511719</ele>
        <time>2023-08-12T11:39:42.000Z</time>
      </trkpt>
      <trkpt lat="45.1729" lon="5.94572">
        <ele>2266.6000976562</ele>
        <time>2023-08-12T11:39:48.000Z</time>
      </trkpt>
      <trkpt lat="45.17289" lon="5.9457">
        <ele>2266.1999511719</ele>
        <time>2023-08-12T11:39:50.000Z</time>
      </trkpt>
      <trkpt lat="45.17287" lon="5.94566">
        <ele>2265.1999511719</ele>
        <time>2023-08-12T11:39:56.000Z</time>
      </trkpt>
      <trkpt lat="45.17286" lon="5.94563">
        <ele>2264.6000976562</ele>
        <time>2023-08-12T11:39:59.000Z</time>
      </trkpt>
      <trkpt lat="45.17286" lon="5.94561">
        <ele>2264.1999511719</ele>
        <time>2023-08-12T11:40:02.000Z</time>
      </trkpt>
      <trkpt lat="45.17285" lon="5.94557">
        <ele>2263.1999511719</ele>
        <time>2023-08-12T11:40:06.000Z</time>
      </trkpt>
      <trkpt lat="45.17285" lon="5.94555">
        <ele>2263</ele>
        <time>2023-08-12T11:40:07.000Z</time>
      </trkpt>
      <trkpt lat="45.17285" lon="5.94551">
        <ele>2262.1999511719</ele>
        <time>2023-08-12T11:40:13.000Z</time>
      </trkpt>
      <trkpt lat="45.17285" lon="5.94551">
        <ele>2262</ele>
        <time>2023-08-12T11:40:15.000Z</time>
      </trkpt>
      <trkpt lat="45.17283" lon="5.94547">
        <ele>2260.8000488281</ele>
        <time>2023-08-12T11:40:22.000Z</time>
      </trkpt>
      <trkpt lat="45.1728" lon="5.94542">
        <ele>2259.6000976562</ele>
        <time>2023-08-12T11:40:27.000Z</time>
      </trkpt>
      <trkpt lat="45.1728" lon="5.9454">
        <ele>2259.3999023438</ele>
        <time>2023-08-12T11:40:29.000Z</time>
      </trkpt>
      <trkpt lat="45.17278" lon="5.94537">
        <ele>2258.6000976562</ele>
        <time>2023-08-12T11:40:33.000Z</time>
      </trkpt>
      <trkpt lat="45.17276" lon="5.94536">
        <ele>2257.8000488281</ele>
        <time>2023-08-12T11:40:37.000Z</time>
      </trkpt>
      <trkpt lat="45.17274" lon="5.94535">
        <ele>2257.3999023438</ele>
        <time>2023-08-12T11:40:39.000Z</time>
      </trkpt>
      <trkpt lat="45.17269" lon="5.94528">
        <ele>2256.8000488281</ele>
        <time>2023-08-12T11:40:47.000Z</time>
      </trkpt>
      <trkpt lat="45.17264" lon="5.9452">
        <ele>2255.6000976562</ele>
        <time>2023-08-12T11:41:02.000Z</time>
      </trkpt>
      <trkpt lat="45.17268" lon="5.94524">
        <ele>2255.6000976562</ele>
        <time>2023-08-12T11:41:13.000Z</time>
      </trkpt>
      <trkpt lat="45.17266" lon="5.94515">
        <ele>2255.8000488281</ele>
        <time>2023-08-12T11:41:20.000Z</time>
      </trkpt>
      <trkpt lat="45.1726" lon="5.94502">
        <ele>2256.1999511719</ele>
        <time>2023-08-12T11:41:29.000Z</time>
      </trkpt>
      <trkpt lat="45.17253" lon="5.94493">
        <ele>2257.3999023438</ele>
        <time>2023-08-12T11:41:38.000Z</time>
      </trkpt>
      <trkpt lat="45.17252" lon="5.94491">
        <ele>2257.6000976562</ele>
        <time>2023-08-12T11:41:40.000Z</time>
      </trkpt>
      <trkpt lat="45.1725" lon="5.94487">
        <ele>2258.1999511719</ele>
        <time>2023-08-12T11:41:47.000Z</time>
      </trkpt>
      <trkpt lat="45.17248" lon="5.94483">
        <ele>2258.6000976562</ele>
        <time>2023-08-12T11:41:50.000Z</time>
      </trkpt>
      <trkpt lat="45.17245" lon="5.94479">
        <ele>2258.8000488281</ele>
        <time>2023-08-12T11:41:54.000Z</time>
      </trkpt>
      <trkpt lat="45.17243" lon="5.94477">
        <ele>2259.6000976562</ele>
        <time>2023-08-12T11:42:01.000Z</time>
      </trkpt>
      <trkpt lat="45.17241" lon="5.94474">
        <ele>2259.6000976562</ele>
        <time>2023-08-12T11:42:06.000Z</time>
      </trkpt>
      <trkpt lat="45.17239" lon="5.9447">
        <ele>2259.6000976562</ele>
        <time>2023-08-12T11:42:09.000Z</time>
      </trkpt>
      <trkpt lat="45.17234" lon="5.94463">
        <ele>2259.6000976562</ele>
        <time>2023-08-12T11:42:16.000Z</time>
      </trkpt>
      <trkpt lat="45.17225" lon="5.94458">
        <ele>2258.6000976562</ele>
        <time>2023-08-12T11:42:24.000Z</time>
      </trkpt>
      <trkpt lat="45.17224" lon="5.94457">
        <ele>2258.6000976562</ele>
        <time>2023-08-12T11:42:25.000Z</time>
      </trkpt>
      <trkpt lat="45.17218" lon="5.94454">
        <ele>2257.6000976562</ele>
        <time>2023-08-12T11:42:34.000Z</time>
      </trkpt>
      <trkpt lat="45.17218" lon="5.94454">
        <ele>2257.3999023438</ele>
        <time>2023-08-12T11:42:35.000Z</time>
      </trkpt>
      <trkpt lat="45.17218" lon="5.94454">
        <ele>2257.1999511719</ele>
        <time>2023-08-12T11:42:36.000Z</time>
      </trkpt>
      <trkpt lat="45.17219" lon="5.94453">
        <ele>2256.8000488281</ele>
        <time>2023-08-12T11:42:39.000Z</time>
      </trkpt>
      <trkpt lat="45.17222" lon="5.9445">
        <ele>2256.3999023438</ele>
        <time>2023-08-12T11:42:44.000Z</time>
      </trkpt>
      <trkpt lat="45.17222" lon="5.94449">
        <ele>2256.1999511719</ele>
        <time>2023-08-12T11:42:45.000Z</time>
      </trkpt>
      <trkpt lat="45.17226" lon="5.94442">
        <ele>2255.3999023438</ele>
        <time>2023-08-12T11:42:51.000Z</time>
      </trkpt>
      <trkpt lat="45.17226" lon="5.94441">
        <ele>2255.1999511719</ele>
        <time>2023-08-12T11:42:52.000Z</time>
      </trkpt>
      <trkpt lat="45.17228" lon="5.94436">
        <ele>2254.1999511719</ele>
        <time>2023-08-12T11:42:57.000Z</time>
      </trkpt>
      <trkpt lat="45.17229" lon="5.94435">
        <ele>2253.8000488281</ele>
        <time>2023-08-12T11:42:59.000Z</time>
      </trkpt>
      <trkpt lat="45.17231" lon="5.94433">
        <ele>2253.1999511719</ele>
        <time>2023-08-12T11:43:04.000Z</time>
      </trkpt>
      <trkpt lat="45.17232" lon="5.94433">
        <ele>2253</ele>
        <time>2023-08-12T11:43:05.000Z</time>
      </trkpt>
      <trkpt lat="45.17234" lon="5.94431">
        <ele>2252</ele>
        <time>2023-08-12T11:43:09.000Z</time>
      </trkpt>
      <trkpt lat="45.17235" lon="5.94426">
        <ele>2251.1999511719</ele>
        <time>2023-08-12T11:43:15.000Z</time>
      </trkpt>
      <trkpt lat="45.17235" lon="5.94425">
        <ele>2251</ele>
        <time>2023-08-12T11:43:16.000Z</time>
      </trkpt>
      <trkpt lat="45.17239" lon="5.94418">
        <ele>2249.8000488281</ele>
        <time>2023-08-12T11:43:22.000Z</time>
      </trkpt>
      <trkpt lat="45.17244" lon="5.94412">
        <ele>2249</ele>
        <time>2023-08-12T11:43:29.000Z</time>
      </trkpt>
      <trkpt lat="45.17249" lon="5.94405">
        <ele>2249.3999023438</ele>
        <time>2023-08-12T11:43:36.000Z</time>
      </trkpt>
      <trkpt lat="45.17253" lon="5.944">
        <ele>2248.8000488281</ele>
        <time>2023-08-12T11:43:43.000Z</time>
      </trkpt>
      <trkpt lat="45.17254" lon="5.94399">
        <ele>2248.8000488281</ele>
        <time>2023-08-12T11:43:44.000Z</time>
      </trkpt>
      <trkpt lat="45.17259" lon="5.94397">
        <ele>2247.6000976562</ele>
        <time>2023-08-12T11:43:50.000Z</time>
      </trkpt>
      <trkpt lat="45.17259" lon="5.94397">
        <ele>2247.3999023438</ele>
        <time>2023-08-12T11:43:51.000Z</time>
      </trkpt>
      <trkpt lat="45.17258" lon="5.94397">
        <ele>2247</ele>
        <time>2023-08-12T11:43:56.000Z</time>
      </trkpt>
      <trkpt lat="45.17256" lon="5.94396">
        <ele>2246.8000488281</ele>
        <time>2023-08-12T11:44:01.000Z</time>
      </trkpt>
      <trkpt lat="45.17256" lon="5.94399">
        <ele>2246.8000488281</ele>
        <time>2023-08-12T11:44:09.000Z</time>
      </trkpt>
      <trkpt lat="45.17255" lon="5.94396">
        <ele>2246.6000976562</ele>
        <time>2023-08-12T11:44:22.000Z</time>
      </trkpt>
      <trkpt lat="45.17258" lon="5.94392">
        <ele>2246.3999023438</ele>
        <time>2023-08-12T11:44:25.000Z</time>
      </trkpt>
      <trkpt lat="45.1726" lon="5.94388">
        <ele>2245.6000976562</ele>
        <time>2023-08-12T11:44:30.000Z</time>
      </trkpt>
      <trkpt lat="45.17261" lon="5.94385">
        <ele>2245</ele>
        <time>2023-08-12T11:44:33.000Z</time>
      </trkpt>
      <trkpt lat="45.17261" lon="5.94383">
        <ele>2244.3999023438</ele>
        <time>2023-08-12T11:44:35.000Z</time>
      </trkpt>
      <trkpt lat="45.17263" lon="5.94378">
        <ele>2243.3999023438</ele>
        <time>2023-08-12T11:44:39.000Z</time>
      </trkpt>
      <trkpt lat="45.17263" lon="5.94376">
        <ele>2243</ele>
        <time>2023-08-12T11:44:41.000Z</time>
      </trkpt>
      <trkpt lat="45.17264" lon="5.94374">
        <ele>2242.3999023438</ele>
        <time>2023-08-12T11:44:43.000Z</time>
      </trkpt>
      <trkpt lat="45.17266" lon="5.94369">
        <ele>2241.1999511719</ele>
        <time>2023-08-12T11:44:49.000Z</time>
      </trkpt>
      <trkpt lat="45.17268" lon="5.94367">
        <ele>2240.8000488281</ele>
        <time>2023-08-12T11:44:51.000Z</time>
      </trkpt>
      <trkpt lat="45.17271" lon="5.94366">
        <ele>2240.1999511719</ele>
        <time>2023-08-12T11:44:55.000Z</time>
      </trkpt>
      <trkpt lat="45.17273" lon="5.94365">
        <ele>2239.6000976562</ele>
        <time>2023-08-12T11:44:58.000Z</time>
      </trkpt>
      <trkpt lat="45.17275" lon="5.94362">
        <ele>2239.1999511719</ele>
        <time>2023-08-12T11:45:03.000Z</time>
      </trkpt>
      <trkpt lat="45.17278" lon="5.94358">
        <ele>2238.3999023438</ele>
        <time>2023-08-12T11:45:07.000Z</time>
      </trkpt>
      <trkpt lat="45.17278" lon="5.94354">
        <ele>2238</ele>
        <time>2023-08-12T11:45:10.000Z</time>
      </trkpt>
      <trkpt lat="45.17279" lon="5.9435">
        <ele>2237</ele>
        <time>2023-08-12T11:45:14.000Z</time>
      </trkpt>
      <trkpt lat="45.1728" lon="5.94348">
        <ele>2235.8000488281</ele>
        <time>2023-08-12T11:45:19.000Z</time>
      </trkpt>
      <trkpt lat="45.1728" lon="5.94347">
        <ele>2235</ele>
        <time>2023-08-12T11:45:22.000Z</time>
      </trkpt>
      <trkpt lat="45.1728" lon="5.94345">
        <ele>2234.6000976562</ele>
        <time>2023-08-12T11:45:24.000Z</time>
      </trkpt>
      <trkpt lat="45.1728" lon="5.94342">
        <ele>2234</ele>
        <time>2023-08-12T11:45:29.000Z</time>
      </trkpt>
      <trkpt lat="45.1728" lon="5.9434">
        <ele>2233.6000976562</ele>
        <time>2023-08-12T11:45:31.000Z</time>
      </trkpt>
      <trkpt lat="45.17281" lon="5.94336">
        <ele>2232.3999023438</ele>
        <time>2023-08-12T11:45:36.000Z</time>
      </trkpt>
      <trkpt lat="45.17281" lon="5.94335">
        <ele>2232.3999023438</ele>
        <time>2023-08-12T11:45:37.000Z</time>
      </trkpt>
      <trkpt lat="45.17282" lon="5.94336">
        <ele>2231.3999023438</ele>
        <time>2023-08-12T11:45:42.000Z</time>
      </trkpt>
      <trkpt lat="45.17283" lon="5.94338">
        <ele>2231</ele>
        <time>2023-08-12T11:45:44.000Z</time>
      </trkpt>
      <trkpt lat="45.17285" lon="5.94339">
        <ele>2230.1999511719</ele>
        <time>2023-08-12T11:45:48.000Z</time>
      </trkpt>
      <trkpt lat="45.17286" lon="5.94343">
        <ele>2229.3999023438</ele>
        <time>2023-08-12T11:45:53.000Z</time>
      </trkpt>
      <trkpt lat="45.17287" lon="5.94346">
        <ele>2228</ele>
        <time>2023-08-12T11:46:00.000Z</time>
      </trkpt>
      <trkpt lat="45.17295" lon="5.94362">
        <ele>2224.8000488281</ele>
        <time>2023-08-12T11:46:17.000Z</time>
      </trkpt>
      <trkpt lat="45.17296" lon="5.94366">
        <ele>2224.6000976562</ele>
        <time>2023-08-12T11:46:19.000Z</time>
      </trkpt>
      <trkpt lat="45.17302" lon="5.94363">
        <ele>2222.3999023438</ele>
        <time>2023-08-12T11:46:30.000Z</time>
      </trkpt>
      <trkpt lat="45.17303" lon="5.94364">
        <ele>2222.3999023438</ele>
        <time>2023-08-12T11:46:31.000Z</time>
      </trkpt>
      <trkpt lat="45.17302" lon="5.94365">
        <ele>2221.3999023438</ele>
        <time>2023-08-12T11:46:38.000Z</time>
      </trkpt>
      <trkpt lat="45.17303" lon="5.94365">
        <ele>2221</ele>
        <time>2023-08-12T11:46:40.000Z</time>
      </trkpt>
      <trkpt lat="45.17303" lon="5.9437">
        <ele>2220.3999023438</ele>
        <time>2023-08-12T11:46:45.000Z</time>
      </trkpt>
      <trkpt lat="45.17304" lon="5.94374">
        <ele>2220</ele>
        <time>2023-08-12T11:46:48.000Z</time>
      </trkpt>
      <trkpt lat="45.17307" lon="5.94378">
        <ele>2219.1999511719</ele>
        <time>2023-08-12T11:46:53.000Z</time>
      </trkpt>
      <trkpt lat="45.17309" lon="5.94377">
        <ele>2218.8000488281</ele>
        <time>2023-08-12T11:46:56.000Z</time>
      </trkpt>
      <trkpt lat="45.17311" lon="5.94376">
        <ele>2217</ele>
        <time>2023-08-12T11:47:07.000Z</time>
      </trkpt>
      <trkpt lat="45.17313" lon="5.94376">
        <ele>2216</ele>
        <time>2023-08-12T11:47:16.000Z</time>
      </trkpt>
      <trkpt lat="45.17315" lon="5.94384">
        <ele>2214.8000488281</ele>
        <time>2023-08-12T11:47:25.000Z</time>
      </trkpt>
      <trkpt lat="45.17316" lon="5.94386">
        <ele>2214.6000976562</ele>
        <time>2023-08-12T11:47:27.000Z</time>
      </trkpt>
      <trkpt lat="45.17318" lon="5.9439">
        <ele>2213.8000488281</ele>
        <time>2023-08-12T11:47:33.000Z</time>
      </trkpt>
      <trkpt lat="45.17318" lon="5.94391">
        <ele>2213.3999023438</ele>
        <time>2023-08-12T11:47:35.000Z</time>
      </trkpt>
      <trkpt lat="45.17321" lon="5.94403">
        <ele>2209.6000976562</ele>
        <time>2023-08-12T11:47:57.000Z</time>
      </trkpt>
      <trkpt lat="45.17322" lon="5.94402">
        <ele>2208.6000976562</ele>
        <time>2023-08-12T11:48:01.000Z</time>
      </trkpt>
      <trkpt lat="45.17326" lon="5.94406">
        <ele>2208.6000976562</ele>
        <time>2023-08-12T11:48:05.000Z</time>
      </trkpt>
      <trkpt lat="45.17338" lon="5.94409">
        <ele>2208.6000976562</ele>
        <time>2023-08-12T11:48:17.000Z</time>
      </trkpt>
      <trkpt lat="45.17339" lon="5.94409">
        <ele>2208.3999023438</ele>
        <time>2023-08-12T11:48:18.000Z</time>
      </trkpt>
      <trkpt lat="45.17343" lon="5.94408">
        <ele>2207.3999023438</ele>
        <time>2023-08-12T11:48:24.000Z</time>
      </trkpt>
      <trkpt lat="45.17344" lon="5.94408">
        <ele>2207</ele>
        <time>2023-08-12T11:48:27.000Z</time>
      </trkpt>
      <trkpt lat="45.17347" lon="5.94407">
        <ele>2206</ele>
        <time>2023-08-12T11:48:33.000Z</time>
      </trkpt>
      <trkpt lat="45.17349" lon="5.94406">
        <ele>2205.6000976562</ele>
        <time>2023-08-12T11:48:37.000Z</time>
      </trkpt>
      <trkpt lat="45.17352" lon="5.94404">
        <ele>2205</ele>
        <time>2023-08-12T11:48:41.000Z</time>
      </trkpt>
      <trkpt lat="45.17355" lon="5.94402">
        <ele>2204.6000976562</ele>
        <time>2023-08-12T11:48:44.000Z</time>
      </trkpt>
      <trkpt lat="45.17358" lon="5.94402">
        <ele>2204</ele>
        <time>2023-08-12T11:48:48.000Z</time>
      </trkpt>
      <trkpt lat="45.17361" lon="5.944">
        <ele>2203.6000976562</ele>
        <time>2023-08-12T11:48:51.000Z</time>
      </trkpt>
      <trkpt lat="45.17364" lon="5.94398">
        <ele>2202.8000488281</ele>
        <time>2023-08-12T11:48:54.000Z</time>
      </trkpt>
      <trkpt lat="45.17366" lon="5.94397">
        <ele>2202.1999511719</ele>
        <time>2023-08-12T11:48:59.000Z</time>
      </trkpt>
      <trkpt lat="45.17366" lon="5.94397">
        <ele>2201.8000488281</ele>
        <time>2023-08-12T11:49:01.000Z</time>
      </trkpt>
      <trkpt lat="45.17368" lon="5.94396">
        <ele>2201.1999511719</ele>
        <time>2023-08-12T11:49:06.000Z</time>
      </trkpt>
      <trkpt lat="45.17369" lon="5.94397">
        <ele>2200.6000976562</ele>
        <time>2023-08-12T11:49:08.000Z</time>
      </trkpt>
      <trkpt lat="45.17371" lon="5.94398">
        <ele>2199.3999023438</ele>
        <time>2023-08-12T11:49:12.000Z</time>
      </trkpt>
      <trkpt lat="45.17372" lon="5.94399">
        <ele>2199</ele>
        <time>2023-08-12T11:49:15.000Z</time>
      </trkpt>
      <trkpt lat="45.17374" lon="5.944">
        <ele>2198.3999023438</ele>
        <time>2023-08-12T11:49:18.000Z</time>
      </trkpt>
      <trkpt lat="45.17393" lon="5.94408">
        <ele>2196.3999023438</ele>
        <time>2023-08-12T11:49:35.000Z</time>
      </trkpt>
      <trkpt lat="45.17395" lon="5.94403">
        <ele>2196.3999023438</ele>
        <time>2023-08-12T11:49:38.000Z</time>
      </trkpt>
      <trkpt lat="45.17395" lon="5.94399">
        <ele>2196</ele>
        <time>2023-08-12T11:49:41.000Z</time>
      </trkpt>
      <trkpt lat="45.17396" lon="5.94392">
        <ele>2195.3999023438</ele>
        <time>2023-08-12T11:49:47.000Z</time>
      </trkpt>
      <trkpt lat="45.17397" lon="5.94382">
        <ele>2194.1999511719</ele>
        <time>2023-08-12T11:49:53.000Z</time>
      </trkpt>
      <trkpt lat="45.17397" lon="5.94379">
        <ele>2194.1999511719</ele>
        <time>2023-08-12T11:49:55.000Z</time>
      </trkpt>
      <trkpt lat="45.17396" lon="5.94367">
        <ele>2193.1999511719</ele>
        <time>2023-08-12T11:50:03.000Z</time>
      </trkpt>
      <trkpt lat="45.17396" lon="5.94366">
        <ele>2193</ele>
        <time>2023-08-12T11:50:04.000Z</time>
      </trkpt>
      <trkpt lat="45.17396" lon="5.94358">
        <ele>2192</ele>
        <time>2023-08-12T11:50:09.000Z</time>
      </trkpt>
      <trkpt lat="45.17393" lon="5.94353">
        <ele>2190.8000488281</ele>
        <time>2023-08-12T11:50:15.000Z</time>
      </trkpt>
      <trkpt lat="45.17392" lon="5.9435">
        <ele>2189.8000488281</ele>
        <time>2023-08-12T11:50:20.000Z</time>
      </trkpt>
      <trkpt lat="45.17391" lon="5.94346">
        <ele>2189.3999023438</ele>
        <time>2023-08-12T11:50:23.000Z</time>
      </trkpt>
      <trkpt lat="45.1739" lon="5.94339">
        <ele>2188.6000976562</ele>
        <time>2023-08-12T11:50:26.000Z</time>
      </trkpt>
      <trkpt lat="45.1739" lon="5.94334">
        <ele>2188.1999511719</ele>
        <time>2023-08-12T11:50:29.000Z</time>
      </trkpt>
      <trkpt lat="45.1739" lon="5.94326">
        <ele>2187.6000976562</ele>
        <time>2023-08-12T11:50:34.000Z</time>
      </trkpt>
      <trkpt lat="45.1739" lon="5.94319">
        <ele>2186.3999023438</ele>
        <time>2023-08-12T11:50:39.000Z</time>
      </trkpt>
      <trkpt lat="45.17388" lon="5.94303">
        <ele>2185.6000976562</ele>
        <time>2023-08-12T11:50:47.000Z</time>
      </trkpt>
      <trkpt lat="45.17387" lon="5.94298">
        <ele>2185.6000976562</ele>
        <time>2023-08-12T11:50:55.000Z</time>
      </trkpt>
      <trkpt lat="45.17387" lon="5.94297">
        <ele>2185.1999511719</ele>
        <time>2023-08-12T11:50:57.000Z</time>
      </trkpt>
      <trkpt lat="45.17387" lon="5.94294">
        <ele>2184.6000976562</ele>
        <time>2023-08-12T11:51:02.000Z</time>
      </trkpt>
      <trkpt lat="45.17386" lon="5.94292">
        <ele>2184.1999511719</ele>
        <time>2023-08-12T11:51:09.000Z</time>
      </trkpt>
      <trkpt lat="45.17386" lon="5.94291">
        <ele>2184.1999511719</ele>
        <time>2023-08-12T11:51:10.000Z</time>
      </trkpt>
      <trkpt lat="45.17384" lon="5.94288">
        <ele>2183</ele>
        <time>2023-08-12T11:51:15.000Z</time>
      </trkpt>
      <trkpt lat="45.17382" lon="5.94287">
        <ele>2182.1999511719</ele>
        <time>2023-08-12T11:51:20.000Z</time>
      </trkpt>
      <trkpt lat="45.17381" lon="5.94286">
        <ele>2182</ele>
        <time>2023-08-12T11:51:22.000Z</time>
      </trkpt>
      <trkpt lat="45.17377" lon="5.94285">
        <ele>2181.1999511719</ele>
        <time>2023-08-12T11:51:26.000Z</time>
      </trkpt>
      <trkpt lat="45.17375" lon="5.94279">
        <ele>2179.8000488281</ele>
        <time>2023-08-12T11:51:37.000Z</time>
      </trkpt>
      <trkpt lat="45.17375" lon="5.94276">
        <ele>2179</ele>
        <time>2023-08-12T11:51:44.000Z</time>
      </trkpt>
      <trkpt lat="45.17376" lon="5.94276">
        <ele>2178.6000976562</ele>
        <time>2023-08-12T11:51:45.000Z</time>
      </trkpt>
      <trkpt lat="45.1738" lon="5.94277">
        <ele>2177.6000976562</ele>
        <time>2023-08-12T11:51:54.000Z</time>
      </trkpt>
      <trkpt lat="45.17381" lon="5.94276">
        <ele>2177.3999023438</ele>
        <time>2023-08-12T11:51:55.000Z</time>
      </trkpt>
      <trkpt lat="45.17383" lon="5.94277">
        <ele>2177</ele>
        <time>2023-08-12T11:52:01.000Z</time>
      </trkpt>
      <trkpt lat="45.17384" lon="5.94275">
        <ele>2176.3999023438</ele>
        <time>2023-08-12T11:52:04.000Z</time>
      </trkpt>
      <trkpt lat="45.17389" lon="5.94272">
        <ele>2175.3999023438</ele>
        <time>2023-08-12T11:52:08.000Z</time>
      </trkpt>
      <trkpt lat="45.17389" lon="5.94272">
        <ele>2175.3999023438</ele>
        <time>2023-08-12T11:52:09.000Z</time>
      </trkpt>
      <trkpt lat="45.17391" lon="5.94268">
        <ele>2174.3999023438</ele>
        <time>2023-08-12T11:52:17.000Z</time>
      </trkpt>
      <trkpt lat="45.1739" lon="5.94262">
        <ele>2173.3999023438</ele>
        <time>2023-08-12T11:52:25.000Z</time>
      </trkpt>
      <trkpt lat="45.1739" lon="5.94261">
        <ele>2173.1999511719</ele>
        <time>2023-08-12T11:52:26.000Z</time>
      </trkpt>
      <trkpt lat="45.1739" lon="5.94259">
        <ele>2172.1999511719</ele>
        <time>2023-08-12T11:52:35.000Z</time>
      </trkpt>
      <trkpt lat="45.1739" lon="5.94256">
        <ele>2172</ele>
        <time>2023-08-12T11:52:39.000Z</time>
      </trkpt>
      <trkpt lat="45.1739" lon="5.94251">
        <ele>2171.8000488281</ele>
        <time>2023-08-12T11:52:42.000Z</time>
      </trkpt>
      <trkpt lat="45.17391" lon="5.94244">
        <ele>2171</ele>
        <time>2023-08-12T11:52:47.000Z</time>
      </trkpt>
      <trkpt lat="45.17391" lon="5.94239">
        <ele>2170.8000488281</ele>
        <time>2023-08-12T11:52:50.000Z</time>
      </trkpt>
      <trkpt lat="45.17391" lon="5.94231">
        <ele>2170.6000976562</ele>
        <time>2023-08-12T11:52:57.000Z</time>
      </trkpt>
      <trkpt lat="45.17391" lon="5.94228">
        <ele>2170</ele>
        <time>2023-08-12T11:53:02.000Z</time>
      </trkpt>
      <trkpt lat="45.1739" lon="5.94227">
        <ele>2169.8000488281</ele>
        <time>2023-08-12T11:53:04.000Z</time>
      </trkpt>
      <trkpt lat="45.17387" lon="5.94221">
        <ele>2169</ele>
        <time>2023-08-12T11:53:10.000Z</time>
      </trkpt>
      <trkpt lat="45.17387" lon="5.9422">
        <ele>2168.8000488281</ele>
        <time>2023-08-12T11:53:11.000Z</time>
      </trkpt>
      <trkpt lat="45.17386" lon="5.94211">
        <ele>2167.8000488281</ele>
        <time>2023-08-12T11:53:19.000Z</time>
      </trkpt>
      <trkpt lat="45.17385" lon="5.94202">
        <ele>2166.6000976562</ele>
        <time>2023-08-12T11:53:28.000Z</time>
      </trkpt>
      <trkpt lat="45.17388" lon="5.942">
        <ele>2166</ele>
        <time>2023-08-12T11:53:36.000Z</time>
      </trkpt>
      <trkpt lat="45.17388" lon="5.94196">
        <ele>2165.6000976562</ele>
        <time>2023-08-12T11:53:40.000Z</time>
      </trkpt>
      <trkpt lat="45.17387" lon="5.94191">
        <ele>2165</ele>
        <time>2023-08-12T11:53:44.000Z</time>
      </trkpt>
      <trkpt lat="45.17387" lon="5.9419">
        <ele>2164.6000976562</ele>
        <time>2023-08-12T11:53:46.000Z</time>
      </trkpt>
      <trkpt lat="45.17387" lon="5.94185">
        <ele>2163.8000488281</ele>
        <time>2023-08-12T11:53:51.000Z</time>
      </trkpt>
      <trkpt lat="45.17388" lon="5.94184">
        <ele>2163.3999023438</ele>
        <time>2023-08-12T11:53:57.000Z</time>
      </trkpt>
      <trkpt lat="45.17388" lon="5.94184">
        <ele>2163.3999023438</ele>
        <time>2023-08-12T11:53:58.000Z</time>
      </trkpt>
      <trkpt lat="45.1739" lon="5.94182">
        <ele>2162.3999023438</ele>
        <time>2023-08-12T11:54:04.000Z</time>
      </trkpt>
      <trkpt lat="45.17393" lon="5.94178">
        <ele>2161.6000976562</ele>
        <time>2023-08-12T11:54:12.000Z</time>
      </trkpt>
      <trkpt lat="45.17393" lon="5.94176">
        <ele>2161.1999511719</ele>
        <time>2023-08-12T11:54:13.000Z</time>
      </trkpt>
      <trkpt lat="45.17395" lon="5.9417">
        <ele>2160.1999511719</ele>
        <time>2023-08-12T11:54:20.000Z</time>
      </trkpt>
      <trkpt lat="45.17394" lon="5.94163">
        <ele>2159.1999511719</ele>
        <time>2023-08-12T11:54:29.000Z</time>
      </trkpt>
      <trkpt lat="45.17394" lon="5.94155">
        <ele>2158.3999023438</ele>
        <time>2023-08-12T11:54:36.000Z</time>
      </trkpt>
      <trkpt lat="45.17394" lon="5.94154">
        <ele>2158.1999511719</ele>
        <time>2023-08-12T11:54:38.000Z</time>
      </trkpt>
      <trkpt lat="45.17394" lon="5.94151">
        <ele>2157.8000488281</ele>
        <time>2023-08-12T11:54:41.000Z</time>
      </trkpt>
      <trkpt lat="45.17395" lon="5.94145">
        <ele>2157</ele>
        <time>2023-08-12T11:54:48.000Z</time>
      </trkpt>
      <trkpt lat="45.17395" lon="5.94144">
        <ele>2157</ele>
        <time>2023-08-12T11:54:49.000Z</time>
      </trkpt>
      <trkpt lat="45.17396" lon="5.9414">
        <ele>2156</ele>
        <time>2023-08-12T11:54:55.000Z</time>
      </trkpt>
      <trkpt lat="45.17396" lon="5.94136">
        <ele>2155</ele>
        <time>2023-08-12T11:55:00.000Z</time>
      </trkpt>
      <trkpt lat="45.17396" lon="5.94135">
        <ele>2154.8000488281</ele>
        <time>2023-08-12T11:55:01.000Z</time>
      </trkpt>
      <trkpt lat="45.17393" lon="5.9413">
        <ele>2154</ele>
        <time>2023-08-12T11:55:06.000Z</time>
      </trkpt>
      <trkpt lat="45.17392" lon="5.94128">
        <ele>2153.8000488281</ele>
        <time>2023-08-12T11:55:08.000Z</time>
      </trkpt>
      <trkpt lat="45.17391" lon="5.94122">
        <ele>2152.6000976562</ele>
        <time>2023-08-12T11:55:14.000Z</time>
      </trkpt>
      <trkpt lat="45.1739" lon="5.94119">
        <ele>2151.6000976562</ele>
        <time>2023-08-12T11:55:19.000Z</time>
      </trkpt>
      <trkpt lat="45.17389" lon="5.94116">
        <ele>2151</ele>
        <time>2023-08-12T11:55:22.000Z</time>
      </trkpt>
      <trkpt lat="45.17388" lon="5.94113">
        <ele>2150.6000976562</ele>
        <time>2023-08-12T11:55:24.000Z</time>
      </trkpt>
      <trkpt lat="45.17385" lon="5.94105">
        <ele>2149.3999023438</ele>
        <time>2023-08-12T11:55:31.000Z</time>
      </trkpt>
      <trkpt lat="45.17382" lon="5.94098">
        <ele>2148.3999023438</ele>
        <time>2023-08-12T11:55:38.000Z</time>
      </trkpt>
      <trkpt lat="45.17382" lon="5.94097">
        <ele>2148.3999023438</ele>
        <time>2023-08-12T11:55:39.000Z</time>
      </trkpt>
      <trkpt lat="45.17379" lon="5.9409">
        <ele>2147.1999511719</ele>
        <time>2023-08-12T11:55:46.000Z</time>
      </trkpt>
      <trkpt lat="45.17379" lon="5.94088">
        <ele>2147</ele>
        <time>2023-08-12T11:55:47.000Z</time>
      </trkpt>
      <trkpt lat="45.17377" lon="5.94084">
        <ele>2145.8000488281</ele>
        <time>2023-08-12T11:55:52.000Z</time>
      </trkpt>
      <trkpt lat="45.17377" lon="5.94083">
        <ele>2145.6000976562</ele>
        <time>2023-08-12T11:55:53.000Z</time>
      </trkpt>
      <trkpt lat="45.17376" lon="5.94079">
        <ele>2144.8000488281</ele>
        <time>2023-08-12T11:55:58.000Z</time>
      </trkpt>
      <trkpt lat="45.17376" lon="5.94074">
        <ele>2144</ele>
        <time>2023-08-12T11:56:02.000Z</time>
      </trkpt>
      <trkpt lat="45.17376" lon="5.94074">
        <ele>2143.8000488281</ele>
        <time>2023-08-12T11:56:04.000Z</time>
      </trkpt>
      <trkpt lat="45.17375" lon="5.94075">
        <ele>2143.6000976562</ele>
        <time>2023-08-12T11:56:05.000Z</time>
      </trkpt>
      <trkpt lat="45.17375" lon="5.94072">
        <ele>2143.1999511719</ele>
        <time>2023-08-12T11:56:07.000Z</time>
      </trkpt>
      <trkpt lat="45.17375" lon="5.94071">
        <ele>2142.6000976562</ele>
        <time>2023-08-12T11:56:10.000Z</time>
      </trkpt>
      <trkpt lat="45.17376" lon="5.94067">
        <ele>2141.6000976562</ele>
        <time>2023-08-12T11:56:14.000Z</time>
      </trkpt>
      <trkpt lat="45.17375" lon="5.94064">
        <ele>2140.8000488281</ele>
        <time>2023-08-12T11:56:17.000Z</time>
      </trkpt>
      <trkpt lat="45.17375" lon="5.94063">
        <ele>2140.6000976562</ele>
        <time>2023-08-12T11:56:19.000Z</time>
      </trkpt>
      <trkpt lat="45.17373" lon="5.9406">
        <ele>2139.6000976562</ele>
        <time>2023-08-12T11:56:24.000Z</time>
      </trkpt>
      <trkpt lat="45.17373" lon="5.94058">
        <ele>2139.3999023438</ele>
        <time>2023-08-12T11:56:25.000Z</time>
      </trkpt>
      <trkpt lat="45.17371" lon="5.9405">
        <ele>2138.3999023438</ele>
        <time>2023-08-12T11:56:32.000Z</time>
      </trkpt>
      <trkpt lat="45.1737" lon="5.94045">
        <ele>2137.1999511719</ele>
        <time>2023-08-12T11:56:37.000Z</time>
      </trkpt>
      <trkpt lat="45.1737" lon="5.94041">
        <ele>2136.6000976562</ele>
        <time>2023-08-12T11:56:40.000Z</time>
      </trkpt>
      <trkpt lat="45.17371" lon="5.94037">
        <ele>2136.1999511719</ele>
        <time>2023-08-12T11:56:43.000Z</time>
      </trkpt>
      <trkpt lat="45.17371" lon="5.94036">
        <ele>2135.6000976562</ele>
        <time>2023-08-12T11:56:46.000Z</time>
      </trkpt>
      <trkpt lat="45.17372" lon="5.94035">
        <ele>2135</ele>
        <time>2023-08-12T11:56:50.000Z</time>
      </trkpt>
      <trkpt lat="45.17374" lon="5.94033">
        <ele>2134.3999023438</ele>
        <time>2023-08-12T11:56:55.000Z</time>
      </trkpt>
      <trkpt lat="45.17374" lon="5.94028">
        <ele>2134.1999511719</ele>
        <time>2023-08-12T11:57:02.000Z</time>
      </trkpt>
      <trkpt lat="45.17374" lon="5.94026">
        <ele>2133.8000488281</ele>
        <time>2023-08-12T11:57:04.000Z</time>
      </trkpt>
      <trkpt lat="45.17372" lon="5.94021">
        <ele>2132.8000488281</ele>
        <time>2023-08-12T11:57:10.000Z</time>
      </trkpt>
      <trkpt lat="45.17371" lon="5.9402">
        <ele>2132.6000976562</ele>
        <time>2023-08-12T11:57:11.000Z</time>
      </trkpt>
      <trkpt lat="45.17371" lon="5.94015">
        <ele>2131.3999023438</ele>
        <time>2023-08-12T11:57:15.000Z</time>
      </trkpt>
      <trkpt lat="45.1737" lon="5.94014">
        <ele>2131</ele>
        <time>2023-08-12T11:57:18.000Z</time>
      </trkpt>
      <trkpt lat="45.1737" lon="5.94012">
        <ele>2130.3999023438</ele>
        <time>2023-08-12T11:57:21.000Z</time>
      </trkpt>
      <trkpt lat="45.17371" lon="5.94008">
        <ele>2129.8000488281</ele>
        <time>2023-08-12T11:57:24.000Z</time>
      </trkpt>
      <trkpt lat="45.1737" lon="5.94003">
        <ele>2129</ele>
        <time>2023-08-12T11:57:30.000Z</time>
      </trkpt>
      <trkpt lat="45.1737" lon="5.94002">
        <ele>2128.8000488281</ele>
        <time>2023-08-12T11:57:31.000Z</time>
      </trkpt>
      <trkpt lat="45.17369" lon="5.93998">
        <ele>2128</ele>
        <time>2023-08-12T11:57:35.000Z</time>
      </trkpt>
      <trkpt lat="45.17369" lon="5.93991">
        <ele>2127.1999511719</ele>
        <time>2023-08-12T11:57:40.000Z</time>
      </trkpt>
      <trkpt lat="45.17369" lon="5.93988">
        <ele>2126.8000488281</ele>
        <time>2023-08-12T11:57:42.000Z</time>
      </trkpt>
      <trkpt lat="45.17369" lon="5.93982">
        <ele>2125.8000488281</ele>
        <time>2023-08-12T11:57:47.000Z</time>
      </trkpt>
      <trkpt lat="45.17369" lon="5.9398">
        <ele>2125.3999023438</ele>
        <time>2023-08-12T11:57:49.000Z</time>
      </trkpt>
      <trkpt lat="45.17368" lon="5.93978">
        <ele>2124.8000488281</ele>
        <time>2023-08-12T11:57:52.000Z</time>
      </trkpt>
      <trkpt lat="45.17367" lon="5.93971">
        <ele>2123.8000488281</ele>
        <time>2023-08-12T11:57:58.000Z</time>
      </trkpt>
      <trkpt lat="45.17367" lon="5.9397">
        <ele>2123.6000976562</ele>
        <time>2023-08-12T11:57:59.000Z</time>
      </trkpt>
      <trkpt lat="45.17363" lon="5.93959">
        <ele>2122.6000976562</ele>
        <time>2023-08-12T11:58:07.000Z</time>
      </trkpt>
      <trkpt lat="45.17363" lon="5.93958">
        <ele>2122.6000976562</ele>
        <time>2023-08-12T11:58:08.000Z</time>
      </trkpt>
      <trkpt lat="45.17366" lon="5.93951">
        <ele>2121.6000976562</ele>
        <time>2023-08-12T11:58:15.000Z</time>
      </trkpt>
      <trkpt lat="45.17368" lon="5.93946">
        <ele>2120.3999023438</ele>
        <time>2023-08-12T11:58:20.000Z</time>
      </trkpt>
      <trkpt lat="45.17368" lon="5.93946">
        <ele>2120.1999511719</ele>
        <time>2023-08-12T11:58:21.000Z</time>
      </trkpt>
      <trkpt lat="45.17368" lon="5.93942">
        <ele>2119.1999511719</ele>
        <time>2023-08-12T11:58:26.000Z</time>
      </trkpt>
      <trkpt lat="45.17367" lon="5.9394">
        <ele>2119</ele>
        <time>2023-08-12T11:58:29.000Z</time>
      </trkpt>
      <trkpt lat="45.17366" lon="5.93937">
        <ele>2118.1999511719</ele>
        <time>2023-08-12T11:58:35.000Z</time>
      </trkpt>
      <trkpt lat="45.17363" lon="5.93934">
        <ele>2117.1999511719</ele>
        <time>2023-08-12T11:58:40.000Z</time>
      </trkpt>
      <trkpt lat="45.1736" lon="5.9393">
        <ele>2116</ele>
        <time>2023-08-12T11:58:47.000Z</time>
      </trkpt>
      <trkpt lat="45.17359" lon="5.93929">
        <ele>2115.6000976562</ele>
        <time>2023-08-12T11:58:48.000Z</time>
      </trkpt>
      <trkpt lat="45.17358" lon="5.93925">
        <ele>2115</ele>
        <time>2023-08-12T11:58:51.000Z</time>
      </trkpt>
      <trkpt lat="45.17357" lon="5.9392">
        <ele>2113.8000488281</ele>
        <time>2023-08-12T11:58:56.000Z</time>
      </trkpt>
      <trkpt lat="45.17355" lon="5.93916">
        <ele>2112.8000488281</ele>
        <time>2023-08-12T11:59:02.000Z</time>
      </trkpt>
      <trkpt lat="45.17353" lon="5.93916">
        <ele>2112.3999023438</ele>
        <time>2023-08-12T11:59:04.000Z</time>
      </trkpt>
      <trkpt lat="45.17352" lon="5.93915">
        <ele>2111.8000488281</ele>
        <time>2023-08-12T11:59:07.000Z</time>
      </trkpt>
      <trkpt lat="45.17349" lon="5.93914">
        <ele>2110.6000976562</ele>
        <time>2023-08-12T11:59:12.000Z</time>
      </trkpt>
      <trkpt lat="45.17348" lon="5.93914">
        <ele>2110.3999023438</ele>
        <time>2023-08-12T11:59:13.000Z</time>
      </trkpt>
      <trkpt lat="45.17345" lon="5.93912">
        <ele>2109.6000976562</ele>
        <time>2023-08-12T11:59:17.000Z</time>
      </trkpt>
      <trkpt lat="45.17338" lon="5.93907">
        <ele>2108.6000976562</ele>
        <time>2023-08-12T11:59:23.000Z</time>
      </trkpt>
      <trkpt lat="45.17337" lon="5.93907">
        <ele>2108.3999023438</ele>
        <time>2023-08-12T11:59:24.000Z</time>
      </trkpt>
      <trkpt lat="45.17332" lon="5.93901">
        <ele>2107.6000976562</ele>
        <time>2023-08-12T11:59:32.000Z</time>
      </trkpt>
      <trkpt lat="45.1733" lon="5.93897">
        <ele>2107.1999511719</ele>
        <time>2023-08-12T11:59:35.000Z</time>
      </trkpt>
      <trkpt lat="45.17328" lon="5.93895">
        <ele>2106.3999023438</ele>
        <time>2023-08-12T11:59:40.000Z</time>
      </trkpt>
      <trkpt lat="45.17328" lon="5.93894">
        <ele>2106.1999511719</ele>
        <time>2023-08-12T11:59:41.000Z</time>
      </trkpt>
      <trkpt lat="45.17324" lon="5.93894">
        <ele>2105.1999511719</ele>
        <time>2023-08-12T11:59:47.000Z</time>
      </trkpt>
      <trkpt lat="45.17323" lon="5.93897">
        <ele>2104.8000488281</ele>
        <time>2023-08-12T11:59:49.000Z</time>
      </trkpt>
      <trkpt lat="45.17321" lon="5.93897">
        <ele>2104.1999511719</ele>
        <time>2023-08-12T11:59:52.000Z</time>
      </trkpt>
      <trkpt lat="45.17314" lon="5.93898">
        <ele>2103</ele>
        <time>2023-08-12T11:59:57.000Z</time>
      </trkpt>
      <trkpt lat="45.17311" lon="5.9389">
        <ele>2102</ele>
        <time>2023-08-12T12:00:03.000Z</time>
      </trkpt>
      <trkpt lat="45.1731" lon="5.93889">
        <ele>2101.8000488281</ele>
        <time>2023-08-12T12:00:04.000Z</time>
      </trkpt>
      <trkpt lat="45.17307" lon="5.9388">
        <ele>2101</ele>
        <time>2023-08-12T12:00:10.000Z</time>
      </trkpt>
      <trkpt lat="45.17305" lon="5.93876">
        <ele>2100.6000976562</ele>
        <time>2023-08-12T12:00:12.000Z</time>
      </trkpt>
      <trkpt lat="45.17302" lon="5.93871">
        <ele>2099.8000488281</ele>
        <time>2023-08-12T12:00:16.000Z</time>
      </trkpt>
      <trkpt lat="45.17299" lon="5.93866">
        <ele>2099.1999511719</ele>
        <time>2023-08-12T12:00:20.000Z</time>
      </trkpt>
      <trkpt lat="45.17297" lon="5.93863">
        <ele>2098.8000488281</ele>
        <time>2023-08-12T12:00:23.000Z</time>
      </trkpt>
      <trkpt lat="45.17294" lon="5.93859">
        <ele>2098.1999511719</ele>
        <time>2023-08-12T12:00:27.000Z</time>
      </trkpt>
      <trkpt lat="45.17293" lon="5.93857">
        <ele>2097.8000488281</ele>
        <time>2023-08-12T12:00:29.000Z</time>
      </trkpt>
      <trkpt lat="45.17289" lon="5.93847">
        <ele>2096.8000488281</ele>
        <time>2023-08-12T12:00:37.000Z</time>
      </trkpt>
      <trkpt lat="45.17289" lon="5.93847">
        <ele>2096.8000488281</ele>
        <time>2023-08-12T12:00:38.000Z</time>
      </trkpt>
      <trkpt lat="45.17285" lon="5.93837">
        <ele>2096</ele>
        <time>2023-08-12T12:00:45.000Z</time>
      </trkpt>
      <trkpt lat="45.17283" lon="5.93834">
        <ele>2095.6000976562</ele>
        <time>2023-08-12T12:00:49.000Z</time>
      </trkpt>
      <trkpt lat="45.17282" lon="5.93832">
        <ele>2095.3999023438</ele>
        <time>2023-08-12T12:00:51.000Z</time>
      </trkpt>
      <trkpt lat="45.1728" lon="5.93828">
        <ele>2094.3999023438</ele>
        <time>2023-08-12T12:00:57.000Z</time>
      </trkpt>
      <trkpt lat="45.17279" lon="5.93825">
        <ele>2093.6000976562</ele>
        <time>2023-08-12T12:01:01.000Z</time>
      </trkpt>
      <trkpt lat="45.17278" lon="5.93822">
        <ele>2093.1999511719</ele>
        <time>2023-08-12T12:01:03.000Z</time>
      </trkpt>
      <trkpt lat="45.17278" lon="5.93821">
        <ele>2093</ele>
        <time>2023-08-12T12:01:06.000Z</time>
      </trkpt>
      <trkpt lat="45.17278" lon="5.9382">
        <ele>2092.6000976562</ele>
        <time>2023-08-12T12:01:12.000Z</time>
      </trkpt>
      <trkpt lat="45.1728" lon="5.93826">
        <ele>2092.3999023438</ele>
        <time>2023-08-12T12:01:22.000Z</time>
      </trkpt>
      <trkpt lat="45.17278" lon="5.93818">
        <ele>2092.6000976562</ele>
        <time>2023-08-12T12:01:31.000Z</time>
      </trkpt>
      <trkpt lat="45.17278" lon="5.93817">
        <ele>2092.8000488281</ele>
        <time>2023-08-12T12:01:40.000Z</time>
      </trkpt>
      <trkpt lat="45.17279" lon="5.93818">
        <ele>2092.8000488281</ele>
        <time>2023-08-12T12:01:45.000Z</time>
      </trkpt>
      <trkpt lat="45.1728" lon="5.93821">
        <ele>2092.8000488281</ele>
        <time>2023-08-12T12:01:55.000Z</time>
      </trkpt>
      <trkpt lat="45.1728" lon="5.93829">
        <ele>2093</ele>
        <time>2023-08-12T12:02:05.000Z</time>
      </trkpt>
      <trkpt lat="45.17275" lon="5.93834">
        <ele>2093</ele>
        <time>2023-08-12T12:02:11.000Z</time>
      </trkpt>
      <trkpt lat="45.17269" lon="5.93834">
        <ele>2092.1999511719</ele>
        <time>2023-08-12T12:02:16.000Z</time>
      </trkpt>
      <trkpt lat="45.17267" lon="5.93828">
        <ele>2091.1999511719</ele>
        <time>2023-08-12T12:02:22.000Z</time>
      </trkpt>
      <trkpt lat="45.17267" lon="5.93827">
        <ele>2091</ele>
        <time>2023-08-12T12:02:23.000Z</time>
      </trkpt>
      <trkpt lat="45.17266" lon="5.93821">
        <ele>2090.1999511719</ele>
        <time>2023-08-12T12:02:28.000Z</time>
      </trkpt>
      <trkpt lat="45.17266" lon="5.93819">
        <ele>2090</ele>
        <time>2023-08-12T12:02:29.000Z</time>
      </trkpt>
      <trkpt lat="45.17263" lon="5.93814">
        <ele>2089.1999511719</ele>
        <time>2023-08-12T12:02:35.000Z</time>
      </trkpt>
      <trkpt lat="45.17262" lon="5.93813">
        <ele>2089</ele>
        <time>2023-08-12T12:02:36.000Z</time>
      </trkpt>
      <trkpt lat="45.17259" lon="5.93808">
        <ele>2088</ele>
        <time>2023-08-12T12:02:41.000Z</time>
      </trkpt>
      <trkpt lat="45.17256" lon="5.93805">
        <ele>2086.8000488281</ele>
        <time>2023-08-12T12:02:48.000Z</time>
      </trkpt>
      <trkpt lat="45.17254" lon="5.93801">
        <ele>2085.8000488281</ele>
        <time>2023-08-12T12:02:53.000Z</time>
      </trkpt>
      <trkpt lat="45.17253" lon="5.93799">
        <ele>2085.6000976562</ele>
        <time>2023-08-12T12:02:54.000Z</time>
      </trkpt>
      <trkpt lat="45.1725" lon="5.93796">
        <ele>2084.3999023438</ele>
        <time>2023-08-12T12:02:59.000Z</time>
      </trkpt>
      <trkpt lat="45.1725" lon="5.93795">
        <ele>2084.1999511719</ele>
        <time>2023-08-12T12:03:00.000Z</time>
      </trkpt>
      <trkpt lat="45.17248" lon="5.93795">
        <ele>2083.3999023438</ele>
        <time>2023-08-12T12:03:04.000Z</time>
      </trkpt>
      <trkpt lat="45.17244" lon="5.93793">
        <ele>2082.6000976562</ele>
        <time>2023-08-12T12:03:08.000Z</time>
      </trkpt>
      <trkpt lat="45.17243" lon="5.93792">
        <ele>2082.1999511719</ele>
        <time>2023-08-12T12:03:10.000Z</time>
      </trkpt>
      <trkpt lat="45.17241" lon="5.93793">
        <ele>2081.6000976562</ele>
        <time>2023-08-12T12:03:15.000Z</time>
      </trkpt>
      <trkpt lat="45.1724" lon="5.93797">
        <ele>2081.1999511719</ele>
        <time>2023-08-12T12:03:17.000Z</time>
      </trkpt>
      <trkpt lat="45.1724" lon="5.93807">
        <ele>2081</ele>
        <time>2023-08-12T12:03:21.000Z</time>
      </trkpt>
      <trkpt lat="45.1724" lon="5.9381">
        <ele>2081.1999511719</ele>
        <time>2023-08-12T12:03:22.000Z</time>
      </trkpt>
      <trkpt lat="45.1724" lon="5.93812">
        <ele>2081.1999511719</ele>
        <time>2023-08-12T12:03:23.000Z</time>
      </trkpt>
      <trkpt lat="45.17237" lon="5.93812">
        <ele>2081.1999511719</ele>
        <time>2023-08-12T12:03:25.000Z</time>
      </trkpt>
      <trkpt lat="45.17237" lon="5.93815">
        <ele>2081.1999511719</ele>
        <time>2023-08-12T12:03:27.000Z</time>
      </trkpt>
      <trkpt lat="45.17236" lon="5.93815">
        <ele>2081</ele>
        <time>2023-08-12T12:03:38.000Z</time>
      </trkpt>
      <trkpt lat="45.17237" lon="5.93816">
        <ele>2081</ele>
        <time>2023-08-12T12:03:44.000Z</time>
      </trkpt>
      <trkpt lat="45.17239" lon="5.93821">
        <ele>2080.8000488281</ele>
        <time>2023-08-12T12:03:50.000Z</time>
      </trkpt>
      <trkpt lat="45.17239" lon="5.9382">
        <ele>2080.8000488281</ele>
        <time>2023-08-12T12:03:55.000Z</time>
      </trkpt>
      <trkpt lat="45.1724" lon="5.93822">
        <ele>2081</ele>
        <time>2023-08-12T12:04:03.000Z</time>
      </trkpt>
      <trkpt lat="45.1724" lon="5.93818">
        <ele>2080.3999023438</ele>
        <time>2023-08-12T12:04:09.000Z</time>
      </trkpt>
      <trkpt lat="45.1724" lon="5.9382">
        <ele>2080.1999511719</ele>
        <time>2023-08-12T12:04:17.000Z</time>
      </trkpt>
      <trkpt lat="45.17242" lon="5.93824">
        <ele>2080.1999511719</ele>
        <time>2023-08-12T12:04:27.000Z</time>
      </trkpt>
      <trkpt lat="45.17242" lon="5.93828">
        <ele>2080.6000976562</ele>
        <time>2023-08-12T12:04:35.000Z</time>
      </trkpt>
      <trkpt lat="45.17239" lon="5.93827">
        <ele>2080.6000976562</ele>
        <time>2023-08-12T12:04:42.000Z</time>
      </trkpt>
      <trkpt lat="45.17238" lon="5.93822">
        <ele>2080.6000976562</ele>
        <time>2023-08-12T12:04:50.000Z</time>
      </trkpt>
      <trkpt lat="45.17239" lon="5.93819">
        <ele>2080.8000488281</ele>
        <time>2023-08-12T12:04:59.000Z</time>
      </trkpt>
      <trkpt lat="45.17239" lon="5.93819">
        <ele>2080.6000976562</ele>
        <time>2023-08-12T12:05:03.000Z</time>
      </trkpt>
      <trkpt lat="45.17237" lon="5.93816">
        <ele>2080.8000488281</ele>
        <time>2023-08-12T12:05:09.000Z</time>
      </trkpt>
      <trkpt lat="45.17237" lon="5.93813">
        <ele>2080.8000488281</ele>
        <time>2023-08-12T12:05:14.000Z</time>
      </trkpt>
      <trkpt lat="45.17237" lon="5.93811">
        <ele>2080.6000976562</ele>
        <time>2023-08-12T12:05:22.000Z</time>
      </trkpt>
      <trkpt lat="45.17237" lon="5.93815">
        <ele>2081</ele>
        <time>2023-08-12T12:05:28.000Z</time>
      </trkpt>
      <trkpt lat="45.17238" lon="5.93818">
        <ele>2081</ele>
        <time>2023-08-12T12:05:36.000Z</time>
      </trkpt>
      <trkpt lat="45.17239" lon="5.9382">
        <ele>2080.8000488281</ele>
        <time>2023-08-12T12:05:46.000Z</time>
      </trkpt>
      <trkpt lat="45.1724" lon="5.93821">
        <ele>2080.8000488281</ele>
        <time>2023-08-12T12:05:54.000Z</time>
      </trkpt>
      <trkpt lat="45.17239" lon="5.93819">
        <ele>2080.6000976562</ele>
        <time>2023-08-12T12:05:59.000Z</time>
      </trkpt>
      <trkpt lat="45.17237" lon="5.93817">
        <ele>2080</ele>
        <time>2023-08-12T12:06:03.000Z</time>
      </trkpt>
      <trkpt lat="45.17237" lon="5.93817">
        <ele>2079.8000488281</ele>
        <time>2023-08-12T12:06:05.000Z</time>
      </trkpt>
      <trkpt lat="45.17236" lon="5.93818">
        <ele>2079</ele>
        <time>2023-08-12T12:06:11.000Z</time>
      </trkpt>
      <trkpt lat="45.17236" lon="5.93818">
        <ele>2078.8000488281</ele>
        <time>2023-08-12T12:06:12.000Z</time>
      </trkpt>
      <trkpt lat="45.17233" lon="5.9382">
        <ele>2078.1999511719</ele>
        <time>2023-08-12T12:06:17.000Z</time>
      </trkpt>
      <trkpt lat="45.17232" lon="5.93819">
        <ele>2077.8000488281</ele>
        <time>2023-08-12T12:06:19.000Z</time>
      </trkpt>
      <trkpt lat="45.17228" lon="5.93815">
        <ele>2077.1999511719</ele>
        <time>2023-08-12T12:06:25.000Z</time>
      </trkpt>
      <trkpt lat="45.17226" lon="5.93814">
        <ele>2076.6000976562</ele>
        <time>2023-08-12T12:06:28.000Z</time>
      </trkpt>
      <trkpt lat="45.17226" lon="5.93815">
        <ele>2075.8000488281</ele>
        <time>2023-08-12T12:06:33.000Z</time>
      </trkpt>
      <trkpt lat="45.17226" lon="5.93815">
        <ele>2075.6000976562</ele>
        <time>2023-08-12T12:06:34.000Z</time>
      </trkpt>
      <trkpt lat="45.17224" lon="5.9381">
        <ele>2074.6000976562</ele>
        <time>2023-08-12T12:06:39.000Z</time>
      </trkpt>
      <trkpt lat="45.17224" lon="5.93808">
        <ele>2074.1999511719</ele>
        <time>2023-08-12T12:06:41.000Z</time>
      </trkpt>
      <trkpt lat="45.17222" lon="5.93805">
        <ele>2073.3999023438</ele>
        <time>2023-08-12T12:06:45.000Z</time>
      </trkpt>
      <trkpt lat="45.1722" lon="5.93802">
        <ele>2072.1999511719</ele>
        <time>2023-08-12T12:06:50.000Z</time>
      </trkpt>
      <trkpt lat="45.17219" lon="5.93805">
        <ele>2071.1999511719</ele>
        <time>2023-08-12T12:06:56.000Z</time>
      </trkpt>
      <trkpt lat="45.17218" lon="5.93805">
        <ele>2070.8000488281</ele>
        <time>2023-08-12T12:06:57.000Z</time>
      </trkpt>
      <trkpt lat="45.17217" lon="5.93804">
        <ele>2070.1999511719</ele>
        <time>2023-08-12T12:07:01.000Z</time>
      </trkpt>
      <trkpt lat="45.17216" lon="5.93804">
        <ele>2069</ele>
        <time>2023-08-12T12:07:06.000Z</time>
      </trkpt>
      <trkpt lat="45.17216" lon="5.93805">
        <ele>2068.8000488281</ele>
        <time>2023-08-12T12:07:07.000Z</time>
      </trkpt>
      <trkpt lat="45.17216" lon="5.93802">
        <ele>2068</ele>
        <time>2023-08-12T12:07:14.000Z</time>
      </trkpt>
      <trkpt lat="45.17215" lon="5.93802">
        <ele>2067.8000488281</ele>
        <time>2023-08-12T12:07:15.000Z</time>
      </trkpt>
      <trkpt lat="45.17212" lon="5.93804">
        <ele>2067</ele>
        <time>2023-08-12T12:07:21.000Z</time>
      </trkpt>
      <trkpt lat="45.17211" lon="5.93805">
        <ele>2066.6000976562</ele>
        <time>2023-08-12T12:07:23.000Z</time>
      </trkpt>
      <trkpt lat="45.17209" lon="5.93805">
        <ele>2065.8000488281</ele>
        <time>2023-08-12T12:07:27.000Z</time>
      </trkpt>
      <trkpt lat="45.17209" lon="5.93803">
        <ele>2065.6000976562</ele>
        <time>2023-08-12T12:07:29.000Z</time>
      </trkpt>
      <trkpt lat="45.1721" lon="5.93799">
        <ele>2064.8000488281</ele>
        <time>2023-08-12T12:07:33.000Z</time>
      </trkpt>
      <trkpt lat="45.17209" lon="5.93798">
        <ele>2064.3999023438</ele>
        <time>2023-08-12T12:07:35.000Z</time>
      </trkpt>
      <trkpt lat="45.17208" lon="5.93798">
        <ele>2064.1999511719</ele>
        <time>2023-08-12T12:07:43.000Z</time>
      </trkpt>
      <trkpt lat="45.17208" lon="5.93798">
        <ele>2063.8000488281</ele>
        <time>2023-08-12T12:07:45.000Z</time>
      </trkpt>
      <trkpt lat="45.17205" lon="5.93797">
        <ele>2062.8000488281</ele>
        <time>2023-08-12T12:07:50.000Z</time>
      </trkpt>
      <trkpt lat="45.17203" lon="5.93798">
        <ele>2062.6000976562</ele>
        <time>2023-08-12T12:07:51.000Z</time>
      </trkpt>
      <trkpt lat="45.17203" lon="5.93797">
        <ele>2061.6000976562</ele>
        <time>2023-08-12T12:07:57.000Z</time>
      </trkpt>
      <trkpt lat="45.17203" lon="5.93797">
        <ele>2061.3999023438</ele>
        <time>2023-08-12T12:07:58.000Z</time>
      </trkpt>
      <trkpt lat="45.17203" lon="5.93796">
        <ele>2061</ele>
        <time>2023-08-12T12:08:05.000Z</time>
      </trkpt>
      <trkpt lat="45.17202" lon="5.9379">
        <ele>2060.3999023438</ele>
        <time>2023-08-12T12:08:10.000Z</time>
      </trkpt>
      <trkpt lat="45.17202" lon="5.93789">
        <ele>2060.3999023438</ele>
        <time>2023-08-12T12:08:11.000Z</time>
      </trkpt>
      <trkpt lat="45.17203" lon="5.93788">
        <ele>2059.3999023438</ele>
        <time>2023-08-12T12:08:17.000Z</time>
      </trkpt>
      <trkpt lat="45.17204" lon="5.93787">
        <ele>2059.1999511719</ele>
        <time>2023-08-12T12:08:18.000Z</time>
      </trkpt>
      <trkpt lat="45.17205" lon="5.93786">
        <ele>2058.1999511719</ele>
        <time>2023-08-12T12:08:24.000Z</time>
      </trkpt>
      <trkpt lat="45.17205" lon="5.93786">
        <ele>2058</ele>
        <time>2023-08-12T12:08:25.000Z</time>
      </trkpt>
      <trkpt lat="45.17204" lon="5.93785">
        <ele>2057.6000976562</ele>
        <time>2023-08-12T12:08:32.000Z</time>
      </trkpt>
      <trkpt lat="45.17206" lon="5.93784">
        <ele>2056.8000488281</ele>
        <time>2023-08-12T12:08:36.000Z</time>
      </trkpt>
      <trkpt lat="45.17207" lon="5.93781">
        <ele>2056</ele>
        <time>2023-08-12T12:08:40.000Z</time>
      </trkpt>
      <trkpt lat="45.17208" lon="5.93779">
        <ele>2055.8000488281</ele>
        <time>2023-08-12T12:08:43.000Z</time>
      </trkpt>
      <trkpt lat="45.17206" lon="5.93777">
        <ele>2055</ele>
        <time>2023-08-12T12:08:47.000Z</time>
      </trkpt>
      <trkpt lat="45.17205" lon="5.93777">
        <ele>2054.6000976562</ele>
        <time>2023-08-12T12:08:49.000Z</time>
      </trkpt>
      <trkpt lat="45.17201" lon="5.9378">
        <ele>2053.8000488281</ele>
        <time>2023-08-12T12:08:56.000Z</time>
      </trkpt>
      <trkpt lat="45.172" lon="5.9378">
        <ele>2053.6000976562</ele>
        <time>2023-08-12T12:08:57.000Z</time>
      </trkpt>
      <trkpt lat="45.17196" lon="5.9378">
        <ele>2052.6000976562</ele>
        <time>2023-08-12T12:09:02.000Z</time>
      </trkpt>
      <trkpt lat="45.17195" lon="5.9378">
        <ele>2052.1999511719</ele>
        <time>2023-08-12T12:09:04.000Z</time>
      </trkpt>
      <trkpt lat="45.17192" lon="5.93779">
        <ele>2051.6000976562</ele>
        <time>2023-08-12T12:09:10.000Z</time>
      </trkpt>
      <trkpt lat="45.17192" lon="5.93779">
        <ele>2051.3999023438</ele>
        <time>2023-08-12T12:09:11.000Z</time>
      </trkpt>
      <trkpt lat="45.17192" lon="5.93779">
        <ele>2051.3999023438</ele>
        <time>2023-08-12T12:09:12.000Z</time>
      </trkpt>
      <trkpt lat="45.17194" lon="5.93778">
        <ele>2050.3999023438</ele>
        <time>2023-08-12T12:09:16.000Z</time>
      </trkpt>
      <trkpt lat="45.17193" lon="5.93777">
        <ele>2050</ele>
        <time>2023-08-12T12:09:20.000Z</time>
      </trkpt>
      <trkpt lat="45.17192" lon="5.93779">
        <ele>2049.8000488281</ele>
        <time>2023-08-12T12:09:23.000Z</time>
      </trkpt>
      <trkpt lat="45.17191" lon="5.93781">
        <ele>2049.1999511719</ele>
        <time>2023-08-12T12:09:26.000Z</time>
      </trkpt>
      <trkpt lat="45.1719" lon="5.9378">
        <ele>2048.8000488281</ele>
        <time>2023-08-12T12:09:29.000Z</time>
      </trkpt>
      <trkpt lat="45.17189" lon="5.93777">
        <ele>2048.1999511719</ele>
        <time>2023-08-12T12:09:36.000Z</time>
      </trkpt>
      <trkpt lat="45.17188" lon="5.93776">
        <ele>2048.1999511719</ele>
        <time>2023-08-12T12:09:37.000Z</time>
      </trkpt>
      <trkpt lat="45.1719" lon="5.93773">
        <ele>2047.1999511719</ele>
        <time>2023-08-12T12:09:43.000Z</time>
      </trkpt>
      <trkpt lat="45.17191" lon="5.9377">
        <ele>2046.1999511719</ele>
        <time>2023-08-12T12:09:50.000Z</time>
      </trkpt>
      <trkpt lat="45.17191" lon="5.9377">
        <ele>2046</ele>
        <time>2023-08-12T12:09:51.000Z</time>
      </trkpt>
      <trkpt lat="45.17192" lon="5.93772">
        <ele>2045.4000244141</ele>
        <time>2023-08-12T12:09:58.000Z</time>
      </trkpt>
      <trkpt lat="45.17191" lon="5.93772">
        <ele>2045</ele>
        <time>2023-08-12T12:10:00.000Z</time>
      </trkpt>
      <trkpt lat="45.17188" lon="5.93772">
        <ele>2044</ele>
        <time>2023-08-12T12:10:06.000Z</time>
      </trkpt>
      <trkpt lat="45.1719" lon="5.93768">
        <ele>2043.4000244141</ele>
        <time>2023-08-12T12:10:13.000Z</time>
      </trkpt>
      <trkpt lat="45.17189" lon="5.93768">
        <ele>2042.8000488281</ele>
        <time>2023-08-12T12:10:15.000Z</time>
      </trkpt>
      <trkpt lat="45.17188" lon="5.93765">
        <ele>2041.8000488281</ele>
        <time>2023-08-12T12:10:20.000Z</time>
      </trkpt>
      <trkpt lat="45.17187" lon="5.93764">
        <ele>2041.5999755859</ele>
        <time>2023-08-12T12:10:21.000Z</time>
      </trkpt>
      <trkpt lat="45.17182" lon="5.93765">
        <ele>2040.5999755859</ele>
        <time>2023-08-12T12:10:29.000Z</time>
      </trkpt>
      <trkpt lat="45.17182" lon="5.93765">
        <ele>2040.5999755859</ele>
        <time>2023-08-12T12:10:30.000Z</time>
      </trkpt>
      <trkpt lat="45.17184" lon="5.93762">
        <ele>2039.5999755859</ele>
        <time>2023-08-12T12:10:37.000Z</time>
      </trkpt>
      <trkpt lat="45.17185" lon="5.93761">
        <ele>2039.4000244141</ele>
        <time>2023-08-12T12:10:39.000Z</time>
      </trkpt>
      <trkpt lat="45.17184" lon="5.93758">
        <ele>2038.5999755859</ele>
        <time>2023-08-12T12:10:45.000Z</time>
      </trkpt>
      <trkpt lat="45.17184" lon="5.93757">
        <ele>2038.4000244141</ele>
        <time>2023-08-12T12:10:47.000Z</time>
      </trkpt>
      <trkpt lat="45.17183" lon="5.93754">
        <ele>2037.8000488281</ele>
        <time>2023-08-12T12:10:52.000Z</time>
      </trkpt>
      <trkpt lat="45.17182" lon="5.93754">
        <ele>2037.1999511719</ele>
        <time>2023-08-12T12:10:55.000Z</time>
      </trkpt>
      <trkpt lat="45.1718" lon="5.93753">
        <ele>2037.1999511719</ele>
        <time>2023-08-12T12:10:59.000Z</time>
      </trkpt>
      <trkpt lat="45.1718" lon="5.93758">
        <ele>2036.4000244141</ele>
        <time>2023-08-12T12:11:08.000Z</time>
      </trkpt>
      <trkpt lat="45.1718" lon="5.93757">
        <ele>2036</ele>
        <time>2023-08-12T12:11:14.000Z</time>
      </trkpt>
      <trkpt lat="45.1718" lon="5.93755">
        <ele>2035.8000488281</ele>
        <time>2023-08-12T12:11:16.000Z</time>
      </trkpt>
      <trkpt lat="45.1718" lon="5.93752">
        <ele>2035</ele>
        <time>2023-08-12T12:11:22.000Z</time>
      </trkpt>
      <trkpt lat="45.1718" lon="5.9375">
        <ele>2034.8000488281</ele>
        <time>2023-08-12T12:11:24.000Z</time>
      </trkpt>
      <trkpt lat="45.17179" lon="5.93747">
        <ele>2033.8000488281</ele>
        <time>2023-08-12T12:11:29.000Z</time>
      </trkpt>
      <trkpt lat="45.17178" lon="5.93745">
        <ele>2033.1999511719</ele>
        <time>2023-08-12T12:11:33.000Z</time>
      </trkpt>
      <trkpt lat="45.1718" lon="5.93744">
        <ele>2032.8000488281</ele>
        <time>2023-08-12T12:11:38.000Z</time>
      </trkpt>
      <trkpt lat="45.17179" lon="5.93743">
        <ele>2032.4000244141</ele>
        <time>2023-08-12T12:11:41.000Z</time>
      </trkpt>
      <trkpt lat="45.17179" lon="5.93741">
        <ele>2031.8000488281</ele>
        <time>2023-08-12T12:11:45.000Z</time>
      </trkpt>
      <trkpt lat="45.17181" lon="5.93737">
        <ele>2031.1999511719</ele>
        <time>2023-08-12T12:11:50.000Z</time>
      </trkpt>
      <trkpt lat="45.1718" lon="5.93735">
        <ele>2030.5999755859</ele>
        <time>2023-08-12T12:11:54.000Z</time>
      </trkpt>
      <trkpt lat="45.17179" lon="5.93731">
        <ele>2030.1999511719</ele>
        <time>2023-08-12T12:11:57.000Z</time>
      </trkpt>
      <trkpt lat="45.17179" lon="5.93732">
        <ele>2029.5999755859</ele>
        <time>2023-08-12T12:12:01.000Z</time>
      </trkpt>
      <trkpt lat="45.17179" lon="5.93731">
        <ele>2029</ele>
        <time>2023-08-12T12:12:03.000Z</time>
      </trkpt>
      <trkpt lat="45.17176" lon="5.93731">
        <ele>2028.4000244141</ele>
        <time>2023-08-12T12:12:07.000Z</time>
      </trkpt>
      <trkpt lat="45.17176" lon="5.93732">
        <ele>2028.1999511719</ele>
        <time>2023-08-12T12:12:09.000Z</time>
      </trkpt>
      <trkpt lat="45.17177" lon="5.93729">
        <ele>2027.1999511719</ele>
        <time>2023-08-12T12:12:14.000Z</time>
      </trkpt>
      <trkpt lat="45.17177" lon="5.9373">
        <ele>2027</ele>
        <time>2023-08-12T12:12:16.000Z</time>
      </trkpt>
      <trkpt lat="45.17176" lon="5.93726">
        <ele>2026.1999511719</ele>
        <time>2023-08-12T12:12:21.000Z</time>
      </trkpt>
      <trkpt lat="45.17174" lon="5.93722">
        <ele>2025.4000244141</ele>
        <time>2023-08-12T12:12:25.000Z</time>
      </trkpt>
      <trkpt lat="45.17172" lon="5.93722">
        <ele>2025</ele>
        <time>2023-08-12T12:12:27.000Z</time>
      </trkpt>
      <trkpt lat="45.17172" lon="5.93724">
        <ele>2024.1999511719</ele>
        <time>2023-08-12T12:12:32.000Z</time>
      </trkpt>
      <trkpt lat="45.17173" lon="5.93725">
        <ele>2024</ele>
        <time>2023-08-12T12:12:35.000Z</time>
      </trkpt>
      <trkpt lat="45.17174" lon="5.93723">
        <ele>2023.5999755859</ele>
        <time>2023-08-12T12:12:39.000Z</time>
      </trkpt>
      <trkpt lat="45.17173" lon="5.93721">
        <ele>2023</ele>
        <time>2023-08-12T12:12:44.000Z</time>
      </trkpt>
      <trkpt lat="45.17172" lon="5.9372">
        <ele>2022.5999755859</ele>
        <time>2023-08-12T12:12:46.000Z</time>
      </trkpt>
      <trkpt lat="45.17169" lon="5.93719">
        <ele>2021.8000488281</ele>
        <time>2023-08-12T12:12:50.000Z</time>
      </trkpt>
      <trkpt lat="45.17169" lon="5.93719">
        <ele>2021.5999755859</ele>
        <time>2023-08-12T12:12:51.000Z</time>
      </trkpt>
      <trkpt lat="45.17169" lon="5.93719">
        <ele>2021.4000244141</ele>
        <time>2023-08-12T12:12:52.000Z</time>
      </trkpt>
      <trkpt lat="45.17169" lon="5.93718">
        <ele>2020.5999755859</ele>
        <time>2023-08-12T12:12:57.000Z</time>
      </trkpt>
      <trkpt lat="45.17169" lon="5.93716">
        <ele>2020.1999511719</ele>
        <time>2023-08-12T12:13:00.000Z</time>
      </trkpt>
      <trkpt lat="45.17167" lon="5.93714">
        <ele>2019.5999755859</ele>
        <time>2023-08-12T12:13:02.000Z</time>
      </trkpt>
      <trkpt lat="45.17164" lon="5.93713">
        <ele>2018.5999755859</ele>
        <time>2023-08-12T12:13:06.000Z</time>
      </trkpt>
      <trkpt lat="45.17164" lon="5.93712">
        <ele>2018.4000244141</ele>
        <time>2023-08-12T12:13:07.000Z</time>
      </trkpt>
      <trkpt lat="45.17161" lon="5.93708">
        <ele>2017.1999511719</ele>
        <time>2023-08-12T12:13:13.000Z</time>
      </trkpt>
      <trkpt lat="45.1716" lon="5.93708">
        <ele>2017</ele>
        <time>2023-08-12T12:13:14.000Z</time>
      </trkpt>
      <trkpt lat="45.17158" lon="5.93706">
        <ele>2016.1999511719</ele>
        <time>2023-08-12T12:13:18.000Z</time>
      </trkpt>
      <trkpt lat="45.17158" lon="5.93705">
        <ele>2015.8000488281</ele>
        <time>2023-08-12T12:13:21.000Z</time>
      </trkpt>
      <trkpt lat="45.1716" lon="5.93705">
        <ele>2015</ele>
        <time>2023-08-12T12:13:25.000Z</time>
      </trkpt>
      <trkpt lat="45.1716" lon="5.93704">
        <ele>2014.8000488281</ele>
        <time>2023-08-12T12:13:27.000Z</time>
      </trkpt>
      <trkpt lat="45.17159" lon="5.93704">
        <ele>2014.5999755859</ele>
        <time>2023-08-12T12:13:35.000Z</time>
      </trkpt>
      <trkpt lat="45.17161" lon="5.93701">
        <ele>2014.5999755859</ele>
        <time>2023-08-12T12:13:43.000Z</time>
      </trkpt>
      <trkpt lat="45.17157" lon="5.93702">
        <ele>2014</ele>
        <time>2023-08-12T12:13:52.000Z</time>
      </trkpt>
      <trkpt lat="45.17154" lon="5.93705">
        <ele>2012.8000488281</ele>
        <time>2023-08-12T12:13:58.000Z</time>
      </trkpt>
      <trkpt lat="45.17154" lon="5.93705">
        <ele>2012.8000488281</ele>
        <time>2023-08-12T12:13:59.000Z</time>
      </trkpt>
      <trkpt lat="45.17151" lon="5.93704">
        <ele>2011.8000488281</ele>
        <time>2023-08-12T12:14:04.000Z</time>
      </trkpt>
      <trkpt lat="45.17149" lon="5.93702">
        <ele>2011.4000244141</ele>
        <time>2023-08-12T12:14:07.000Z</time>
      </trkpt>
      <trkpt lat="45.17148" lon="5.937">
        <ele>2010.8000488281</ele>
        <time>2023-08-12T12:14:11.000Z</time>
      </trkpt>
      <trkpt lat="45.17146" lon="5.93698">
        <ele>2010.4000244141</ele>
        <time>2023-08-12T12:14:14.000Z</time>
      </trkpt>
      <trkpt lat="45.17145" lon="5.93698">
        <ele>2009.5999755859</ele>
        <time>2023-08-12T12:14:18.000Z</time>
      </trkpt>
      <trkpt lat="45.17145" lon="5.93696">
        <ele>2009</ele>
        <time>2023-08-12T12:14:22.000Z</time>
      </trkpt>
      <trkpt lat="45.17144" lon="5.93695">
        <ele>2008.4000244141</ele>
        <time>2023-08-12T12:14:24.000Z</time>
      </trkpt>
      <trkpt lat="45.17143" lon="5.9369">
        <ele>2007.5999755859</ele>
        <time>2023-08-12T12:14:30.000Z</time>
      </trkpt>
      <trkpt lat="45.17145" lon="5.93687">
        <ele>2007.4000244141</ele>
        <time>2023-08-12T12:14:34.000Z</time>
      </trkpt>
      <trkpt lat="45.17146" lon="5.93686">
        <ele>2006.8000488281</ele>
        <time>2023-08-12T12:14:38.000Z</time>
      </trkpt>
      <trkpt lat="45.17147" lon="5.93685">
        <ele>2006.1999511719</ele>
        <time>2023-08-12T12:14:41.000Z</time>
      </trkpt>
      <trkpt lat="45.17148" lon="5.93683">
        <ele>2005.4000244141</ele>
        <time>2023-08-12T12:14:45.000Z</time>
      </trkpt>
      <trkpt lat="45.17149" lon="5.93682">
        <ele>2005.1999511719</ele>
        <time>2023-08-12T12:14:47.000Z</time>
      </trkpt>
      <trkpt lat="45.1715" lon="5.93678">
        <ele>2004.1999511719</ele>
        <time>2023-08-12T12:14:52.000Z</time>
      </trkpt>
      <trkpt lat="45.1715" lon="5.93676">
        <ele>2004</ele>
        <time>2023-08-12T12:14:53.000Z</time>
      </trkpt>
      <trkpt lat="45.17151" lon="5.93672">
        <ele>2003</ele>
        <time>2023-08-12T12:14:58.000Z</time>
      </trkpt>
      <trkpt lat="45.17153" lon="5.93668">
        <ele>2002.4000244141</ele>
        <time>2023-08-12T12:15:02.000Z</time>
      </trkpt>
      <trkpt lat="45.17154" lon="5.93666">
        <ele>2002</ele>
        <time>2023-08-12T12:15:04.000Z</time>
      </trkpt>
      <trkpt lat="45.17154" lon="5.93663">
        <ele>2001.1999511719</ele>
        <time>2023-08-12T12:15:09.000Z</time>
      </trkpt>
      <trkpt lat="45.17153" lon="5.9366">
        <ele>2001</ele>
        <time>2023-08-12T12:15:12.000Z</time>
      </trkpt>
      <trkpt lat="45.17152" lon="5.93655">
        <ele>2000.5999755859</ele>
        <time>2023-08-12T12:15:15.000Z</time>
      </trkpt>
      <trkpt lat="45.17151" lon="5.93654">
        <ele>2000.1999511719</ele>
        <time>2023-08-12T12:15:17.000Z</time>
      </trkpt>
      <trkpt lat="45.17149" lon="5.93653">
        <ele>1999.8000488281</ele>
        <time>2023-08-12T12:15:19.000Z</time>
      </trkpt>
      <trkpt lat="45.17149" lon="5.93652">
        <ele>1999.5999755859</ele>
        <time>2023-08-12T12:15:20.000Z</time>
      </trkpt>
      <trkpt lat="45.17148" lon="5.93649">
        <ele>1999.4000244141</ele>
        <time>2023-08-12T12:15:22.000Z</time>
      </trkpt>
      <trkpt lat="45.17147" lon="5.93646">
        <ele>1998.5999755859</ele>
        <time>2023-08-12T12:15:25.000Z</time>
      </trkpt>
      <trkpt lat="45.17146" lon="5.93641">
        <ele>1997.5999755859</ele>
        <time>2023-08-12T12:15:30.000Z</time>
      </trkpt>
      <trkpt lat="45.17146" lon="5.93636">
        <ele>1996.4000244141</ele>
        <time>2023-08-12T12:15:37.000Z</time>
      </trkpt>
      <trkpt lat="45.17146" lon="5.93632">
        <ele>1995.4000244141</ele>
        <time>2023-08-12T12:15:43.000Z</time>
      </trkpt>
      <trkpt lat="45.17146" lon="5.93627">
        <ele>1994</ele>
        <time>2023-08-12T12:15:49.000Z</time>
      </trkpt>
      <trkpt lat="45.17146" lon="5.93626">
        <ele>1993.5999755859</ele>
        <time>2023-08-12T12:15:51.000Z</time>
      </trkpt>
      <trkpt lat="45.17147" lon="5.93625">
        <ele>1993</ele>
        <time>2023-08-12T12:15:54.000Z</time>
      </trkpt>
      <trkpt lat="45.17146" lon="5.93625">
        <ele>1992.5999755859</ele>
        <time>2023-08-12T12:15:56.000Z</time>
      </trkpt>
      <trkpt lat="45.17146" lon="5.93625">
        <ele>1992.4000244141</ele>
        <time>2023-08-12T12:15:57.000Z</time>
      </trkpt>
      <trkpt lat="45.17143" lon="5.93623">
        <ele>1992</ele>
        <time>2023-08-12T12:16:01.000Z</time>
      </trkpt>
      <trkpt lat="45.17143" lon="5.93622">
        <ele>1991.8000488281</ele>
        <time>2023-08-12T12:16:02.000Z</time>
      </trkpt>
      <trkpt lat="45.17143" lon="5.9362">
        <ele>1991.5999755859</ele>
        <time>2023-08-12T12:16:03.000Z</time>
      </trkpt>
      <trkpt lat="45.17141" lon="5.93614">
        <ele>1990.8000488281</ele>
        <time>2023-08-12T12:16:09.000Z</time>
      </trkpt>
      <trkpt lat="45.1714" lon="5.93614">
        <ele>1990.5999755859</ele>
        <time>2023-08-12T12:16:10.000Z</time>
      </trkpt>
      <trkpt lat="45.1714" lon="5.93614">
        <ele>1990.4000244141</ele>
        <time>2023-08-12T12:16:12.000Z</time>
      </trkpt>
      <trkpt lat="45.17136" lon="5.93614">
        <ele>1990</ele>
        <time>2023-08-12T12:16:16.000Z</time>
      </trkpt>
      <trkpt lat="45.17135" lon="5.93615">
        <ele>1989.8000488281</ele>
        <time>2023-08-12T12:16:18.000Z</time>
      </trkpt>
      <trkpt lat="45.17133" lon="5.93616">
        <ele>1989.1999511719</ele>
        <time>2023-08-12T12:16:21.000Z</time>
      </trkpt>
      <trkpt lat="45.17131" lon="5.93617">
        <ele>1988.5999755859</ele>
        <time>2023-08-12T12:16:24.000Z</time>
      </trkpt>
      <trkpt lat="45.17125" lon="5.9362">
        <ele>1988</ele>
        <time>2023-08-12T12:16:29.000Z</time>
      </trkpt>
      <trkpt lat="45.17121" lon="5.93624">
        <ele>1987.5999755859</ele>
        <time>2023-08-12T12:16:32.000Z</time>
      </trkpt>
      <trkpt lat="45.17117" lon="5.93629">
        <ele>1987.4000244141</ele>
        <time>2023-08-12T12:16:36.000Z</time>
      </trkpt>
      <trkpt lat="45.17114" lon="5.93642">
        <ele>1986.8000488281</ele>
        <time>2023-08-12T12:16:43.000Z</time>
      </trkpt>
      <trkpt lat="45.17112" lon="5.93645">
        <ele>1986.5999755859</ele>
        <time>2023-08-12T12:16:47.000Z</time>
      </trkpt>
      <trkpt lat="45.17111" lon="5.93645">
        <ele>1986.4000244141</ele>
        <time>2023-08-12T12:16:49.000Z</time>
      </trkpt>
      <trkpt lat="45.1711" lon="5.93645">
        <ele>1986.4000244141</ele>
        <time>2023-08-12T12:16:52.000Z</time>
      </trkpt>
      <trkpt lat="45.17109" lon="5.93648">
        <ele>1985.8000488281</ele>
        <time>2023-08-12T12:16:56.000Z</time>
      </trkpt>
      <trkpt lat="45.17108" lon="5.93649">
        <ele>1985.5999755859</ele>
        <time>2023-08-12T12:16:58.000Z</time>
      </trkpt>
      <trkpt lat="45.17106" lon="5.93654">
        <ele>1985</ele>
        <time>2023-08-12T12:17:03.000Z</time>
      </trkpt>
      <trkpt lat="45.17102" lon="5.93658">
        <ele>1984.4000244141</ele>
        <time>2023-08-12T12:17:07.000Z</time>
      </trkpt>
      <trkpt lat="45.171" lon="5.93661">
        <ele>1984</ele>
        <time>2023-08-12T12:17:10.000Z</time>
      </trkpt>
      <trkpt lat="45.17097" lon="5.93667">
        <ele>1983.4000244141</ele>
        <time>2023-08-12T12:17:14.000Z</time>
      </trkpt>
      <trkpt lat="45.17093" lon="5.93674">
        <ele>1982.8000488281</ele>
        <time>2023-08-12T12:17:20.000Z</time>
      </trkpt>
      <trkpt lat="45.17086" lon="5.93677">
        <ele>1982.5999755859</ele>
        <time>2023-08-12T12:17:28.000Z</time>
      </trkpt>
      <trkpt lat="45.17077" lon="5.93686">
        <ele>1983.1999511719</ele>
        <time>2023-08-12T12:17:37.000Z</time>
      </trkpt>
      <trkpt lat="45.17075" lon="5.93699">
        <ele>1983.5999755859</ele>
        <time>2023-08-12T12:17:44.000Z</time>
      </trkpt>
      <trkpt lat="45.17073" lon="5.93714">
        <ele>1983.8000488281</ele>
        <time>2023-08-12T12:17:51.000Z</time>
      </trkpt>
      <trkpt lat="45.17072" lon="5.93719">
        <ele>1984.4000244141</ele>
        <time>2023-08-12T12:17:54.000Z</time>
      </trkpt>
      <trkpt lat="45.17072" lon="5.93722">
        <ele>1984.8000488281</ele>
        <time>2023-08-12T12:17:58.000Z</time>
      </trkpt>
      <trkpt lat="45.17067" lon="5.93728">
        <ele>1985.4000244141</ele>
        <time>2023-08-12T12:18:05.000Z</time>
      </trkpt>
      <trkpt lat="45.17067" lon="5.93729">
        <ele>1985.5999755859</ele>
        <time>2023-08-12T12:18:07.000Z</time>
      </trkpt>
      <trkpt lat="45.17067" lon="5.9373">
        <ele>1986.4000244141</ele>
        <time>2023-08-12T12:18:11.000Z</time>
      </trkpt>
      <trkpt lat="45.17066" lon="5.93731">
        <ele>1987.4000244141</ele>
        <time>2023-08-12T12:18:16.000Z</time>
      </trkpt>
      <trkpt lat="45.17066" lon="5.93731">
        <ele>1987.5999755859</ele>
        <time>2023-08-12T12:18:17.000Z</time>
      </trkpt>
      <trkpt lat="45.17062" lon="5.93733">
        <ele>1988.1999511719</ele>
        <time>2023-08-12T12:18:24.000Z</time>
      </trkpt>
      <trkpt lat="45.1706" lon="5.93732">
        <ele>1988.5999755859</ele>
        <time>2023-08-12T12:18:28.000Z</time>
      </trkpt>
      <trkpt lat="45.17056" lon="5.93732">
        <ele>1988.5999755859</ele>
        <time>2023-08-12T12:18:32.000Z</time>
      </trkpt>
      <trkpt lat="45.17049" lon="5.9373">
        <ele>1988.1999511719</ele>
        <time>2023-08-12T12:18:40.000Z</time>
      </trkpt>
      <trkpt lat="45.17044" lon="5.93722">
        <ele>1989.1999511719</ele>
        <time>2023-08-12T12:18:47.000Z</time>
      </trkpt>
      <trkpt lat="45.17041" lon="5.9372">
        <ele>1989.8000488281</ele>
        <time>2023-08-12T12:18:52.000Z</time>
      </trkpt>
      <trkpt lat="45.17037" lon="5.93719">
        <ele>1990</ele>
        <time>2023-08-12T12:18:55.000Z</time>
      </trkpt>
      <trkpt lat="45.17029" lon="5.93719">
        <ele>1990.1999511719</ele>
        <time>2023-08-12T12:19:01.000Z</time>
      </trkpt>
      <trkpt lat="45.17025" lon="5.93719">
        <ele>1990.8000488281</ele>
        <time>2023-08-12T12:19:08.000Z</time>
      </trkpt>
      <trkpt lat="45.17015" lon="5.93721">
        <ele>1991.8000488281</ele>
        <time>2023-08-12T12:19:16.000Z</time>
      </trkpt>
      <trkpt lat="45.17013" lon="5.93721">
        <ele>1992</ele>
        <time>2023-08-12T12:19:17.000Z</time>
      </trkpt>
      <trkpt lat="45.17009" lon="5.93723">
        <ele>1992.1999511719</ele>
        <time>2023-08-12T12:19:23.000Z</time>
      </trkpt>
      <trkpt lat="45.17002" lon="5.93724">
        <ele>1992.8000488281</ele>
        <time>2023-08-12T12:19:31.000Z</time>
      </trkpt>
      <trkpt lat="45.17001" lon="5.93724">
        <ele>1993</ele>
        <time>2023-08-12T12:19:32.000Z</time>
      </trkpt>
      <trkpt lat="45.16999" lon="5.93726">
        <ele>1993.8000488281</ele>
        <time>2023-08-12T12:19:39.000Z</time>
      </trkpt>
      <trkpt lat="45.16998" lon="5.93727">
        <ele>1994</ele>
        <time>2023-08-12T12:19:40.000Z</time>
      </trkpt>
      <trkpt lat="45.16995" lon="5.9373">
        <ele>1994.8000488281</ele>
        <time>2023-08-12T12:19:46.000Z</time>
      </trkpt>
      <trkpt lat="45.16994" lon="5.9373">
        <ele>1995</ele>
        <time>2023-08-12T12:19:48.000Z</time>
      </trkpt>
      <trkpt lat="45.16989" lon="5.93732">
        <ele>1995.1999511719</ele>
        <time>2023-08-12T12:19:55.000Z</time>
      </trkpt>
      <trkpt lat="45.16989" lon="5.93737">
        <ele>1996.1999511719</ele>
        <time>2023-08-12T12:20:05.000Z</time>
      </trkpt>
      <trkpt lat="45.16984" lon="5.93739">
        <ele>1997.1999511719</ele>
        <time>2023-08-12T12:20:13.000Z</time>
      </trkpt>
      <trkpt lat="45.16984" lon="5.93739">
        <ele>1997.4000244141</ele>
        <time>2023-08-12T12:20:14.000Z</time>
      </trkpt>
      <trkpt lat="45.16981" lon="5.93739">
        <ele>1997.8000488281</ele>
        <time>2023-08-12T12:20:19.000Z</time>
      </trkpt>
      <trkpt lat="45.16979" lon="5.93741">
        <ele>1998.1999511719</ele>
        <time>2023-08-12T12:20:23.000Z</time>
      </trkpt>
      <trkpt lat="45.16978" lon="5.93743">
        <ele>1998.5999755859</ele>
        <time>2023-08-12T12:20:25.000Z</time>
      </trkpt>
      <trkpt lat="45.16978" lon="5.93744">
        <ele>1998.5999755859</ele>
        <time>2023-08-12T12:20:26.000Z</time>
      </trkpt>
      <trkpt lat="45.16977" lon="5.93746">
        <ele>1999.4000244141</ele>
        <time>2023-08-12T12:20:34.000Z</time>
      </trkpt>
      <trkpt lat="45.16977" lon="5.93746">
        <ele>1999.5999755859</ele>
        <time>2023-08-12T12:20:36.000Z</time>
      </trkpt>
      <trkpt lat="45.16975" lon="5.93748">
        <ele>2000.5999755859</ele>
        <time>2023-08-12T12:20:40.000Z</time>
      </trkpt>
      <trkpt lat="45.16971" lon="5.93749">
        <ele>2000.8000488281</ele>
        <time>2023-08-12T12:20:45.000Z</time>
      </trkpt>
      <trkpt lat="45.16961" lon="5.93753">
        <ele>2001.1999511719</ele>
        <time>2023-08-12T12:20:56.000Z</time>
      </trkpt>
      <trkpt lat="45.16957" lon="5.93756">
        <ele>2001.5999755859</ele>
        <time>2023-08-12T12:21:02.000Z</time>
      </trkpt>
      <trkpt lat="45.16956" lon="5.93758">
        <ele>2002</ele>
        <time>2023-08-12T12:21:04.000Z</time>
      </trkpt>
      <trkpt lat="45.16954" lon="5.93759">
        <ele>2002.5999755859</ele>
        <time>2023-08-12T12:21:08.000Z</time>
      </trkpt>
      <trkpt lat="45.16954" lon="5.93761">
        <ele>2002.8000488281</ele>
        <time>2023-08-12T12:21:10.000Z</time>
      </trkpt>
      <trkpt lat="45.16951" lon="5.93767">
        <ele>2003.4000244141</ele>
        <time>2023-08-12T12:21:15.000Z</time>
      </trkpt>
      <trkpt lat="45.16951" lon="5.93768">
        <ele>2003.5999755859</ele>
        <time>2023-08-12T12:21:16.000Z</time>
      </trkpt>
      <trkpt lat="45.16947" lon="5.93774">
        <ele>2004.4000244141</ele>
        <time>2023-08-12T12:21:23.000Z</time>
      </trkpt>
      <trkpt lat="45.16944" lon="5.93778">
        <ele>2004.5999755859</ele>
        <time>2023-08-12T12:21:28.000Z</time>
      </trkpt>
      <trkpt lat="45.16943" lon="5.93779">
        <ele>2005</ele>
        <time>2023-08-12T12:21:30.000Z</time>
      </trkpt>
      <trkpt lat="45.1694" lon="5.93783">
        <ele>2005.5999755859</ele>
        <time>2023-08-12T12:21:37.000Z</time>
      </trkpt>
      <trkpt lat="45.16939" lon="5.93784">
        <ele>2005.8000488281</ele>
        <time>2023-08-12T12:21:38.000Z</time>
      </trkpt>
      <trkpt lat="45.16934" lon="5.93787">
        <ele>2006.5999755859</ele>
        <time>2023-08-12T12:21:45.000Z</time>
      </trkpt>
      <trkpt lat="45.16931" lon="5.9379">
        <ele>2007.4000244141</ele>
        <time>2023-08-12T12:21:52.000Z</time>
      </trkpt>
      <trkpt lat="45.1693" lon="5.93792">
        <ele>2007.8000488281</ele>
        <time>2023-08-12T12:21:54.000Z</time>
      </trkpt>
      <trkpt lat="45.16927" lon="5.93795">
        <ele>2009</ele>
        <time>2023-08-12T12:22:01.000Z</time>
      </trkpt>
      <trkpt lat="45.16925" lon="5.93798">
        <ele>2009.4000244141</ele>
        <time>2023-08-12T12:22:04.000Z</time>
      </trkpt>
      <trkpt lat="45.1692" lon="5.93805">
        <ele>2010.1999511719</ele>
        <time>2023-08-12T12:22:11.000Z</time>
      </trkpt>
      <trkpt lat="45.16919" lon="5.93807">
        <ele>2010.4000244141</ele>
        <time>2023-08-12T12:22:13.000Z</time>
      </trkpt>
      <trkpt lat="45.16916" lon="5.93814">
        <ele>2011.1999511719</ele>
        <time>2023-08-12T12:22:21.000Z</time>
      </trkpt>
      <trkpt lat="45.16916" lon="5.93815">
        <ele>2011.1999511719</ele>
        <time>2023-08-12T12:22:23.000Z</time>
      </trkpt>
      <trkpt lat="45.16914" lon="5.93816">
        <ele>2011.4000244141</ele>
        <time>2023-08-12T12:22:28.000Z</time>
      </trkpt>
      <trkpt lat="45.16912" lon="5.93819">
        <ele>2011.1999511719</ele>
        <time>2023-08-12T12:22:34.000Z</time>
      </trkpt>
      <trkpt lat="45.16907" lon="5.93826">
        <ele>2011.1999511719</ele>
        <time>2023-08-12T12:22:41.000Z</time>
      </trkpt>
      <trkpt lat="45.16903" lon="5.93831">
        <ele>2011.8000488281</ele>
        <time>2023-08-12T12:22:49.000Z</time>
      </trkpt>
      <trkpt lat="45.16899" lon="5.93836">
        <ele>2012</ele>
        <time>2023-08-12T12:22:56.000Z</time>
      </trkpt>
      <trkpt lat="45.16896" lon="5.93838">
        <ele>2012.1999511719</ele>
        <time>2023-08-12T12:23:00.000Z</time>
      </trkpt>
      <trkpt lat="45.16893" lon="5.93841">
        <ele>2012.5999755859</ele>
        <time>2023-08-12T12:23:04.000Z</time>
      </trkpt>
      <trkpt lat="45.1689" lon="5.93846">
        <ele>2013.1999511719</ele>
        <time>2023-08-12T12:23:11.000Z</time>
      </trkpt>
      <trkpt lat="45.16889" lon="5.93851">
        <ele>2013.8000488281</ele>
        <time>2023-08-12T12:23:17.000Z</time>
      </trkpt>
      <trkpt lat="45.16887" lon="5.93856">
        <ele>2014.1999511719</ele>
        <time>2023-08-12T12:23:22.000Z</time>
      </trkpt>
      <trkpt lat="45.16886" lon="5.93858">
        <ele>2015</ele>
        <time>2023-08-12T12:23:26.000Z</time>
      </trkpt>
      <trkpt lat="45.16885" lon="5.93859">
        <ele>2015.1999511719</ele>
        <time>2023-08-12T12:23:28.000Z</time>
      </trkpt>
      <trkpt lat="45.16883" lon="5.93861">
        <ele>2016</ele>
        <time>2023-08-12T12:23:33.000Z</time>
      </trkpt>
      <trkpt lat="45.16883" lon="5.93861">
        <ele>2016.4000244141</ele>
        <time>2023-08-12T12:23:35.000Z</time>
      </trkpt>
      <trkpt lat="45.1688" lon="5.93864">
        <ele>2016.8000488281</ele>
        <time>2023-08-12T12:23:41.000Z</time>
      </trkpt>
      <trkpt lat="45.16877" lon="5.93872">
        <ele>2017</ele>
        <time>2023-08-12T12:23:50.000Z</time>
      </trkpt>
      <trkpt lat="45.16874" lon="5.93876">
        <ele>2017.4000244141</ele>
        <time>2023-08-12T12:23:55.000Z</time>
      </trkpt>
      <trkpt lat="45.16872" lon="5.93877">
        <ele>2017.8000488281</ele>
        <time>2023-08-12T12:23:59.000Z</time>
      </trkpt>
      <trkpt lat="45.16869" lon="5.93879">
        <ele>2017.5999755859</ele>
        <time>2023-08-12T12:24:07.000Z</time>
      </trkpt>
      <trkpt lat="45.16868" lon="5.93882">
        <ele>2017.4000244141</ele>
        <time>2023-08-12T12:24:15.000Z</time>
      </trkpt>
      <trkpt lat="45.16865" lon="5.93886">
        <ele>2018</ele>
        <time>2023-08-12T12:24:22.000Z</time>
      </trkpt>
      <trkpt lat="45.16862" lon="5.93886">
        <ele>2018.4000244141</ele>
        <time>2023-08-12T12:24:27.000Z</time>
      </trkpt>
      <trkpt lat="45.16859" lon="5.93887">
        <ele>2018.4000244141</ele>
        <time>2023-08-12T12:24:30.000Z</time>
      </trkpt>
      <trkpt lat="45.16851" lon="5.93886">
        <ele>2018</ele>
        <time>2023-08-12T12:24:38.000Z</time>
      </trkpt>
      <trkpt lat="45.16844" lon="5.93891">
        <ele>2017.5999755859</ele>
        <time>2023-08-12T12:24:48.000Z</time>
      </trkpt>
      <trkpt lat="45.16841" lon="5.93896">
        <ele>2018.8000488281</ele>
        <time>2023-08-12T12:24:55.000Z</time>
      </trkpt>
      <trkpt lat="45.1684" lon="5.939">
        <ele>2019.5999755859</ele>
        <time>2023-08-12T12:25:01.000Z</time>
      </trkpt>
      <trkpt lat="45.16839" lon="5.93902">
        <ele>2019.8000488281</ele>
        <time>2023-08-12T12:25:04.000Z</time>
      </trkpt>
      <trkpt lat="45.16836" lon="5.93903">
        <ele>2020.5999755859</ele>
        <time>2023-08-12T12:25:08.000Z</time>
      </trkpt>
      <trkpt lat="45.16833" lon="5.93903">
        <ele>2021</ele>
        <time>2023-08-12T12:25:12.000Z</time>
      </trkpt>
      <trkpt lat="45.1683" lon="5.93902">
        <ele>2021.5999755859</ele>
        <time>2023-08-12T12:25:16.000Z</time>
      </trkpt>
      <trkpt lat="45.16828" lon="5.93901">
        <ele>2021.5999755859</ele>
        <time>2023-08-12T12:25:18.000Z</time>
      </trkpt>
      <trkpt lat="45.16826" lon="5.93899">
        <ele>2022</ele>
        <time>2023-08-12T12:25:25.000Z</time>
      </trkpt>
      <trkpt lat="45.16822" lon="5.93895">
        <ele>2022.5999755859</ele>
        <time>2023-08-12T12:25:30.000Z</time>
      </trkpt>
      <trkpt lat="45.16821" lon="5.93891">
        <ele>2023.4000244141</ele>
        <time>2023-08-12T12:25:34.000Z</time>
      </trkpt>
      <trkpt lat="45.16821" lon="5.93891">
        <ele>2023.5999755859</ele>
        <time>2023-08-12T12:25:36.000Z</time>
      </trkpt>
      <trkpt lat="45.16816" lon="5.93892">
        <ele>2024.5999755859</ele>
        <time>2023-08-12T12:25:41.000Z</time>
      </trkpt>
      <trkpt lat="45.16809" lon="5.93896">
        <ele>2025.8000488281</ele>
        <time>2023-08-12T12:25:50.000Z</time>
      </trkpt>
      <trkpt lat="45.16809" lon="5.93895">
        <ele>2026</ele>
        <time>2023-08-12T12:25:59.000Z</time>
      </trkpt>
      <trkpt lat="45.16806" lon="5.9389">
        <ele>2026.5999755859</ele>
        <time>2023-08-12T12:26:06.000Z</time>
      </trkpt>
      <trkpt lat="45.16804" lon="5.93888">
        <ele>2026.8000488281</ele>
        <time>2023-08-12T12:26:09.000Z</time>
      </trkpt>
      <trkpt lat="45.16802" lon="5.93887">
        <ele>2027.5999755859</ele>
        <time>2023-08-12T12:26:15.000Z</time>
      </trkpt>
      <trkpt lat="45.16802" lon="5.93888">
        <ele>2027.8000488281</ele>
        <time>2023-08-12T12:26:19.000Z</time>
      </trkpt>
      <trkpt lat="45.16798" lon="5.93887">
        <ele>2028.1999511719</ele>
        <time>2023-08-12T12:26:23.000Z</time>
      </trkpt>
      <trkpt lat="45.16794" lon="5.93887">
        <ele>2029</ele>
        <time>2023-08-12T12:26:28.000Z</time>
      </trkpt>
      <trkpt lat="45.16791" lon="5.93889">
        <ele>2029.5999755859</ele>
        <time>2023-08-12T12:26:32.000Z</time>
      </trkpt>
      <trkpt lat="45.16789" lon="5.93889">
        <ele>2030.1999511719</ele>
        <time>2023-08-12T12:26:36.000Z</time>
      </trkpt>
      <trkpt lat="45.16789" lon="5.93889">
        <ele>2030.5999755859</ele>
        <time>2023-08-12T12:26:40.000Z</time>
      </trkpt>
      <trkpt lat="45.16788" lon="5.93891">
        <ele>2031.1999511719</ele>
        <time>2023-08-12T12:26:44.000Z</time>
      </trkpt>
      <trkpt lat="45.16786" lon="5.93893">
        <ele>2031.5999755859</ele>
        <time>2023-08-12T12:26:47.000Z</time>
      </trkpt>
      <trkpt lat="45.16785" lon="5.93899">
        <ele>2032.1999511719</ele>
        <time>2023-08-12T12:26:54.000Z</time>
      </trkpt>
      <trkpt lat="45.16785" lon="5.93899">
        <ele>2032.4000244141</ele>
        <time>2023-08-12T12:26:55.000Z</time>
      </trkpt>
      <trkpt lat="45.16786" lon="5.939">
        <ele>2033.4000244141</ele>
        <time>2023-08-12T12:27:05.000Z</time>
      </trkpt>
      <trkpt lat="45.16783" lon="5.93903">
        <ele>2034.1999511719</ele>
        <time>2023-08-12T12:27:13.000Z</time>
      </trkpt>
      <trkpt lat="45.16782" lon="5.93903">
        <ele>2034.4000244141</ele>
        <time>2023-08-12T12:27:15.000Z</time>
      </trkpt>
      <trkpt lat="45.16779" lon="5.93903">
        <ele>2035.1999511719</ele>
        <time>2023-08-12T12:27:22.000Z</time>
      </trkpt>
      <trkpt lat="45.16778" lon="5.93902">
        <ele>2035.4000244141</ele>
        <time>2023-08-12T12:27:25.000Z</time>
      </trkpt>
      <trkpt lat="45.16777" lon="5.93901">
        <ele>2036</ele>
        <time>2023-08-12T12:27:29.000Z</time>
      </trkpt>
      <trkpt lat="45.16772" lon="5.93904">
        <ele>2036.5999755859</ele>
        <time>2023-08-12T12:27:36.000Z</time>
      </trkpt>
      <trkpt lat="45.16771" lon="5.93904">
        <ele>2036.8000488281</ele>
        <time>2023-08-12T12:27:37.000Z</time>
      </trkpt>
      <trkpt lat="45.16769" lon="5.93908">
        <ele>2037.5999755859</ele>
        <time>2023-08-12T12:27:41.000Z</time>
      </trkpt>
      <trkpt lat="45.16769" lon="5.93912">
        <ele>2037.8000488281</ele>
        <time>2023-08-12T12:27:45.000Z</time>
      </trkpt>
      <trkpt lat="45.16766" lon="5.9392">
        <ele>2038.5999755859</ele>
        <time>2023-08-12T12:27:54.000Z</time>
      </trkpt>
      <trkpt lat="45.16766" lon="5.9392">
        <ele>2038.5999755859</ele>
        <time>2023-08-12T12:27:56.000Z</time>
      </trkpt>
      <trkpt lat="45.16763" lon="5.93922">
        <ele>2039.4000244141</ele>
        <time>2023-08-12T12:28:03.000Z</time>
      </trkpt>
      <trkpt lat="45.16761" lon="5.93925">
        <ele>2039.5999755859</ele>
        <time>2023-08-12T12:28:10.000Z</time>
      </trkpt>
      <trkpt lat="45.1676" lon="5.93927">
        <ele>2039.8000488281</ele>
        <time>2023-08-12T12:28:12.000Z</time>
      </trkpt>
      <trkpt lat="45.16759" lon="5.93932">
        <ele>2040</ele>
        <time>2023-08-12T12:28:16.000Z</time>
      </trkpt>
      <trkpt lat="45.16757" lon="5.93941">
        <ele>2040.1999511719</ele>
        <time>2023-08-12T12:28:23.000Z</time>
      </trkpt>
      <trkpt lat="45.16752" lon="5.93952">
        <ele>2039.8000488281</ele>
        <time>2023-08-12T12:28:30.000Z</time>
      </trkpt>
      <trkpt lat="45.16751" lon="5.93964">
        <ele>2039.5999755859</ele>
        <time>2023-08-12T12:28:38.000Z</time>
      </trkpt>
      <trkpt lat="45.16752" lon="5.93969">
        <ele>2040.1999511719</ele>
        <time>2023-08-12T12:28:45.000Z</time>
      </trkpt>
      <trkpt lat="45.16749" lon="5.93974">
        <ele>2040.1999511719</ele>
        <time>2023-08-12T12:28:50.000Z</time>
      </trkpt>
      <trkpt lat="45.16744" lon="5.93982">
        <ele>2040.4000244141</ele>
        <time>2023-08-12T12:28:56.000Z</time>
      </trkpt>
      <trkpt lat="45.16744" lon="5.93989">
        <ele>2040.5999755859</ele>
        <time>2023-08-12T12:29:03.000Z</time>
      </trkpt>
      <trkpt lat="45.1674" lon="5.94">
        <ele>2040.5999755859</ele>
        <time>2023-08-12T12:29:11.000Z</time>
      </trkpt>
      <trkpt lat="45.1674" lon="5.94003">
        <ele>2040.8000488281</ele>
        <time>2023-08-12T12:29:13.000Z</time>
      </trkpt>
      <trkpt lat="45.16739" lon="5.94006">
        <ele>2041.1999511719</ele>
        <time>2023-08-12T12:29:17.000Z</time>
      </trkpt>
      <trkpt lat="45.16738" lon="5.94004">
        <ele>2041.5999755859</ele>
        <time>2023-08-12T12:29:21.000Z</time>
      </trkpt>
      <trkpt lat="45.16738" lon="5.94004">
        <ele>2041.8000488281</ele>
        <time>2023-08-12T12:29:23.000Z</time>
      </trkpt>
      <trkpt lat="45.16738" lon="5.94003">
        <ele>2041.8000488281</ele>
        <time>2023-08-12T12:29:24.000Z</time>
      </trkpt>
      <trkpt lat="45.16736" lon="5.94004">
        <ele>2041.8000488281</ele>
        <time>2023-08-12T12:29:32.000Z</time>
      </trkpt>
      <trkpt lat="45.1674" lon="5.94009">
        <ele>2041.8000488281</ele>
        <time>2023-08-12T12:29:40.000Z</time>
      </trkpt>
      <trkpt lat="45.16741" lon="5.94008">
        <ele>2041.8000488281</ele>
        <time>2023-08-12T12:29:49.000Z</time>
      </trkpt>
      <trkpt lat="45.16737" lon="5.9401">
        <ele>2041.8000488281</ele>
        <time>2023-08-12T12:29:55.000Z</time>
      </trkpt>
      <trkpt lat="45.16732" lon="5.94021">
        <ele>2042</ele>
        <time>2023-08-12T12:30:02.000Z</time>
      </trkpt>
      <trkpt lat="45.16728" lon="5.94031">
        <ele>2042</ele>
        <time>2023-08-12T12:30:09.000Z</time>
      </trkpt>
      <trkpt lat="45.16726" lon="5.94037">
        <ele>2042.8000488281</ele>
        <time>2023-08-12T12:30:17.000Z</time>
      </trkpt>
      <trkpt lat="45.16726" lon="5.94038">
        <ele>2042.8000488281</ele>
        <time>2023-08-12T12:30:19.000Z</time>
      </trkpt>
      <trkpt lat="45.16724" lon="5.94042">
        <ele>2043.8000488281</ele>
        <time>2023-08-12T12:30:25.000Z</time>
      </trkpt>
      <trkpt lat="45.16723" lon="5.94045">
        <ele>2044</ele>
        <time>2023-08-12T12:30:28.000Z</time>
      </trkpt>
      <trkpt lat="45.16722" lon="5.94046">
        <ele>2044.5999755859</ele>
        <time>2023-08-12T12:30:33.000Z</time>
      </trkpt>
      <trkpt lat="45.1672" lon="5.94046">
        <ele>2045.1999511719</ele>
        <time>2023-08-12T12:30:36.000Z</time>
      </trkpt>
      <trkpt lat="45.16715" lon="5.94044">
        <ele>2045.5999755859</ele>
        <time>2023-08-12T12:30:41.000Z</time>
      </trkpt>
      <trkpt lat="45.1671" lon="5.94041">
        <ele>2046.1999511719</ele>
        <time>2023-08-12T12:30:47.000Z</time>
      </trkpt>
      <trkpt lat="45.16709" lon="5.9404">
        <ele>2046.4000244141</ele>
        <time>2023-08-12T12:30:48.000Z</time>
      </trkpt>
      <trkpt lat="45.16705" lon="5.94037">
        <ele>2046.8000488281</ele>
        <time>2023-08-12T12:30:54.000Z</time>
      </trkpt>
      <trkpt lat="45.16701" lon="5.94035">
        <ele>2047.1999511719</ele>
        <time>2023-08-12T12:31:00.000Z</time>
      </trkpt>
      <trkpt lat="45.16701" lon="5.94035">
        <ele>2047.4000244141</ele>
        <time>2023-08-12T12:31:01.000Z</time>
      </trkpt>
      <trkpt lat="45.167" lon="5.94035">
        <ele>2047.4000244141</ele>
        <time>2023-08-12T12:31:02.000Z</time>
      </trkpt>
      <trkpt lat="45.16696" lon="5.94036">
        <ele>2048.1999511719</ele>
        <time>2023-08-12T12:31:06.000Z</time>
      </trkpt>
      <trkpt lat="45.16694" lon="5.94037">
        <ele>2048.6000976562</ele>
        <time>2023-08-12T12:31:08.000Z</time>
      </trkpt>
      <trkpt lat="45.16692" lon="5.94043">
        <ele>2049.1999511719</ele>
        <time>2023-08-12T12:31:14.000Z</time>
      </trkpt>
      <trkpt lat="45.16691" lon="5.94047">
        <ele>2049.6000976562</ele>
        <time>2023-08-12T12:31:16.000Z</time>
      </trkpt>
      <trkpt lat="45.1669" lon="5.94058">
        <ele>2049.8000488281</ele>
        <time>2023-08-12T12:31:22.000Z</time>
      </trkpt>
      <trkpt lat="45.16692" lon="5.94063">
        <ele>2050</ele>
        <time>2023-08-12T12:31:27.000Z</time>
      </trkpt>
      <trkpt lat="45.16692" lon="5.94065">
        <ele>2050</ele>
        <time>2023-08-12T12:31:28.000Z</time>
      </trkpt>
      <trkpt lat="45.16695" lon="5.9407">
        <ele>2050.6000976562</ele>
        <time>2023-08-12T12:31:35.000Z</time>
      </trkpt>
      <trkpt lat="45.16696" lon="5.94073">
        <ele>2050.8000488281</ele>
        <time>2023-08-12T12:31:37.000Z</time>
      </trkpt>
      <trkpt lat="45.167" lon="5.94082">
        <ele>2051.3999023438</ele>
        <time>2023-08-12T12:31:44.000Z</time>
      </trkpt>
      <trkpt lat="45.167" lon="5.94084">
        <ele>2051.6000976562</ele>
        <time>2023-08-12T12:31:46.000Z</time>
      </trkpt>
      <trkpt lat="45.167" lon="5.94088">
        <ele>2052</ele>
        <time>2023-08-12T12:31:51.000Z</time>
      </trkpt>
      <trkpt lat="45.167" lon="5.94092">
        <ele>2052.8000488281</ele>
        <time>2023-08-12T12:31:55.000Z</time>
      </trkpt>
      <trkpt lat="45.167" lon="5.94095">
        <ele>2053</ele>
        <time>2023-08-12T12:31:58.000Z</time>
      </trkpt>
      <trkpt lat="45.167" lon="5.94098">
        <ele>2053.8000488281</ele>
        <time>2023-08-12T12:32:06.000Z</time>
      </trkpt>
      <trkpt lat="45.16697" lon="5.94104">
        <ele>2054.8000488281</ele>
        <time>2023-08-12T12:32:14.000Z</time>
      </trkpt>
      <trkpt lat="45.16696" lon="5.94104">
        <ele>2054.8000488281</ele>
        <time>2023-08-12T12:32:15.000Z</time>
      </trkpt>
      <trkpt lat="45.16694" lon="5.94108">
        <ele>2055.8000488281</ele>
        <time>2023-08-12T12:32:21.000Z</time>
      </trkpt>
      <trkpt lat="45.16693" lon="5.94111">
        <ele>2056.1999511719</ele>
        <time>2023-08-12T12:32:25.000Z</time>
      </trkpt>
      <trkpt lat="45.16693" lon="5.94116">
        <ele>2057</ele>
        <time>2023-08-12T12:32:31.000Z</time>
      </trkpt>
      <trkpt lat="45.16693" lon="5.94117">
        <ele>2057.1999511719</ele>
        <time>2023-08-12T12:32:32.000Z</time>
      </trkpt>
      <trkpt lat="45.16691" lon="5.94123">
        <ele>2058</ele>
        <time>2023-08-12T12:32:41.000Z</time>
      </trkpt>
      <trkpt lat="45.1669" lon="5.94121">
        <ele>2058.6000976562</ele>
        <time>2023-08-12T12:32:48.000Z</time>
      </trkpt>
      <trkpt lat="45.16691" lon="5.9412">
        <ele>2058.6000976562</ele>
        <time>2023-08-12T12:32:56.000Z</time>
      </trkpt>
      <trkpt lat="45.1669" lon="5.94122">
        <ele>2058.3999023438</ele>
        <time>2023-08-12T12:33:03.000Z</time>
      </trkpt>
      <trkpt lat="45.16685" lon="5.94128">
        <ele>2058.8000488281</ele>
        <time>2023-08-12T12:33:10.000Z</time>
      </trkpt>
      <trkpt lat="45.16684" lon="5.9413">
        <ele>2059</ele>
        <time>2023-08-12T12:33:12.000Z</time>
      </trkpt>
      <trkpt lat="45.16682" lon="5.94135">
        <ele>2059.6000976562</ele>
        <time>2023-08-12T12:33:18.000Z</time>
      </trkpt>
      <trkpt lat="45.1668" lon="5.94138">
        <ele>2060</ele>
        <time>2023-08-12T12:33:22.000Z</time>
      </trkpt>
      <trkpt lat="45.16676" lon="5.94141">
        <ele>2060.6000976562</ele>
        <time>2023-08-12T12:33:27.000Z</time>
      </trkpt>
      <trkpt lat="45.16674" lon="5.94144">
        <ele>2061.1999511719</ele>
        <time>2023-08-12T12:33:31.000Z</time>
      </trkpt>
      <trkpt lat="45.16673" lon="5.94145">
        <ele>2061.3999023438</ele>
        <time>2023-08-12T12:33:34.000Z</time>
      </trkpt>
      <trkpt lat="45.1667" lon="5.94147">
        <ele>2062.1999511719</ele>
        <time>2023-08-12T12:33:38.000Z</time>
      </trkpt>
      <trkpt lat="45.16666" lon="5.94151">
        <ele>2062.8000488281</ele>
        <time>2023-08-12T12:33:43.000Z</time>
      </trkpt>
      <trkpt lat="45.16666" lon="5.94152">
        <ele>2063.1999511719</ele>
        <time>2023-08-12T12:33:45.000Z</time>
      </trkpt>
      <trkpt lat="45.16663" lon="5.94155">
        <ele>2063.8000488281</ele>
        <time>2023-08-12T12:33:50.000Z</time>
      </trkpt>
      <trkpt lat="45.16661" lon="5.94157">
        <ele>2064.1999511719</ele>
        <time>2023-08-12T12:33:53.000Z</time>
      </trkpt>
      <trkpt lat="45.16657" lon="5.9416">
        <ele>2065</ele>
        <time>2023-08-12T12:33:58.000Z</time>
      </trkpt>
      <trkpt lat="45.16655" lon="5.94162">
        <ele>2065.3999023438</ele>
        <time>2023-08-12T12:34:00.000Z</time>
      </trkpt>
      <trkpt lat="45.16653" lon="5.94165">
        <ele>2066</ele>
        <time>2023-08-12T12:34:06.000Z</time>
      </trkpt>
      <trkpt lat="45.16651" lon="5.94167">
        <ele>2066.6000976562</ele>
        <time>2023-08-12T12:34:09.000Z</time>
      </trkpt>
      <trkpt lat="45.16648" lon="5.94173">
        <ele>2067.3999023438</ele>
        <time>2023-08-12T12:34:15.000Z</time>
      </trkpt>
      <trkpt lat="45.16648" lon="5.94174">
        <ele>2067.6000976562</ele>
        <time>2023-08-12T12:34:16.000Z</time>
      </trkpt>
      <trkpt lat="45.16646" lon="5.94178">
        <ele>2068.3999023438</ele>
        <time>2023-08-12T12:34:22.000Z</time>
      </trkpt>
      <trkpt lat="45.16645" lon="5.94179">
        <ele>2068.6000976562</ele>
        <time>2023-08-12T12:34:24.000Z</time>
      </trkpt>
      <trkpt lat="45.1664" lon="5.94183">
        <ele>2069.3999023438</ele>
        <time>2023-08-12T12:34:30.000Z</time>
      </trkpt>
      <trkpt lat="45.16639" lon="5.94184">
        <ele>2069.6000976562</ele>
        <time>2023-08-12T12:34:32.000Z</time>
      </trkpt>
      <trkpt lat="45.16637" lon="5.94185">
        <ele>2070.8000488281</ele>
        <time>2023-08-12T12:34:37.000Z</time>
      </trkpt>
      <trkpt lat="45.16637" lon="5.94183">
        <ele>2071</ele>
        <time>2023-08-12T12:34:39.000Z</time>
      </trkpt>
      <trkpt lat="45.16637" lon="5.94173">
        <ele>2071.8000488281</ele>
        <time>2023-08-12T12:34:43.000Z</time>
      </trkpt>
      <trkpt lat="45.16636" lon="5.94172">
        <ele>2071.8000488281</ele>
        <time>2023-08-12T12:34:44.000Z</time>
      </trkpt>
      <trkpt lat="45.16629" lon="5.94168">
        <ele>2072</ele>
        <time>2023-08-12T12:34:52.000Z</time>
      </trkpt>
      <trkpt lat="45.16623" lon="5.94168">
        <ele>2071.6000976562</ele>
        <time>2023-08-12T12:34:59.000Z</time>
      </trkpt>
      <trkpt lat="45.16615" lon="5.94169">
        <ele>2071</ele>
        <time>2023-08-12T12:35:06.000Z</time>
      </trkpt>
      <trkpt lat="45.16609" lon="5.94167">
        <ele>2070.8000488281</ele>
        <time>2023-08-12T12:35:12.000Z</time>
      </trkpt>
      <trkpt lat="45.16605" lon="5.94165">
        <ele>2070.6000976562</ele>
        <time>2023-08-12T12:35:15.000Z</time>
      </trkpt>
      <trkpt lat="45.16602" lon="5.94163">
        <ele>2071</ele>
        <time>2023-08-12T12:35:22.000Z</time>
      </trkpt>
      <trkpt lat="45.166" lon="5.94162">
        <ele>2071.8000488281</ele>
        <time>2023-08-12T12:35:28.000Z</time>
      </trkpt>
      <trkpt lat="45.16599" lon="5.94161">
        <ele>2072</ele>
        <time>2023-08-12T12:35:29.000Z</time>
      </trkpt>
      <trkpt lat="45.16594" lon="5.94157">
        <ele>2072.3999023438</ele>
        <time>2023-08-12T12:35:35.000Z</time>
      </trkpt>
      <trkpt lat="45.16587" lon="5.94153">
        <ele>2072.6000976562</ele>
        <time>2023-08-12T12:35:42.000Z</time>
      </trkpt>
      <trkpt lat="45.16584" lon="5.94152">
        <ele>2073</ele>
        <time>2023-08-12T12:35:45.000Z</time>
      </trkpt>
      <trkpt lat="45.16581" lon="5.94153">
        <ele>2073.8000488281</ele>
        <time>2023-08-12T12:35:50.000Z</time>
      </trkpt>
      <trkpt lat="45.1658" lon="5.94153">
        <ele>2074</ele>
        <time>2023-08-12T12:35:51.000Z</time>
      </trkpt>
      <trkpt lat="45.16577" lon="5.94158">
        <ele>2074.3999023438</ele>
        <time>2023-08-12T12:35:56.000Z</time>
      </trkpt>
      <trkpt lat="45.16573" lon="5.94165">
        <ele>2075</ele>
        <time>2023-08-12T12:36:01.000Z</time>
      </trkpt>
      <trkpt lat="45.16573" lon="5.94167">
        <ele>2075.1999511719</ele>
        <time>2023-08-12T12:36:03.000Z</time>
      </trkpt>
      <trkpt lat="45.1657" lon="5.94177">
        <ele>2075.1999511719</ele>
        <time>2023-08-12T12:36:12.000Z</time>
      </trkpt>
      <trkpt lat="45.16567" lon="5.94187">
        <ele>2074.6000976562</ele>
        <time>2023-08-12T12:36:19.000Z</time>
      </trkpt>
      <trkpt lat="45.16564" lon="5.94194">
        <ele>2074.6000976562</ele>
        <time>2023-08-12T12:36:26.000Z</time>
      </trkpt>
      <trkpt lat="45.16561" lon="5.94201">
        <ele>2075.8000488281</ele>
        <time>2023-08-12T12:36:35.000Z</time>
      </trkpt>
      <trkpt lat="45.1656" lon="5.94202">
        <ele>2076</ele>
        <time>2023-08-12T12:36:36.000Z</time>
      </trkpt>
      <trkpt lat="45.16557" lon="5.94206">
        <ele>2077</ele>
        <time>2023-08-12T12:36:42.000Z</time>
      </trkpt>
      <trkpt lat="45.16556" lon="5.94207">
        <ele>2077.1999511719</ele>
        <time>2023-08-12T12:36:44.000Z</time>
      </trkpt>
      <trkpt lat="45.16551" lon="5.9421">
        <ele>2078</ele>
        <time>2023-08-12T12:36:51.000Z</time>
      </trkpt>
      <trkpt lat="45.16549" lon="5.94211">
        <ele>2078.1999511719</ele>
        <time>2023-08-12T12:36:52.000Z</time>
      </trkpt>
      <trkpt lat="45.16542" lon="5.94219">
        <ele>2079.1999511719</ele>
        <time>2023-08-12T12:37:00.000Z</time>
      </trkpt>
      <trkpt lat="45.16542" lon="5.94219">
        <ele>2079.1999511719</ele>
        <time>2023-08-12T12:37:01.000Z</time>
      </trkpt>
      <trkpt lat="45.16538" lon="5.94223">
        <ele>2080.1999511719</ele>
        <time>2023-08-12T12:37:08.000Z</time>
      </trkpt>
      <trkpt lat="45.16538" lon="5.94223">
        <ele>2080.3999023438</ele>
        <time>2023-08-12T12:37:09.000Z</time>
      </trkpt>
      <trkpt lat="45.16533" lon="5.9423">
        <ele>2080.3999023438</ele>
        <time>2023-08-12T12:37:18.000Z</time>
      </trkpt>
      <trkpt lat="45.16527" lon="5.94235">
        <ele>2079.8000488281</ele>
        <time>2023-08-12T12:37:26.000Z</time>
      </trkpt>
      <trkpt lat="45.1652" lon="5.94239">
        <ele>2079.1999511719</ele>
        <time>2023-08-12T12:37:32.000Z</time>
      </trkpt>
      <trkpt lat="45.16514" lon="5.94242">
        <ele>2079</ele>
        <time>2023-08-12T12:37:40.000Z</time>
      </trkpt>
      <trkpt lat="45.16508" lon="5.94242">
        <ele>2078.8000488281</ele>
        <time>2023-08-12T12:37:46.000Z</time>
      </trkpt>
      <trkpt lat="45.16503" lon="5.94242">
        <ele>2078.8000488281</ele>
        <time>2023-08-12T12:37:54.000Z</time>
      </trkpt>
      <trkpt lat="45.16498" lon="5.94246">
        <ele>2079.1999511719</ele>
        <time>2023-08-12T12:38:02.000Z</time>
      </trkpt>
      <trkpt lat="45.16492" lon="5.94249">
        <ele>2079.6000976562</ele>
        <time>2023-08-12T12:38:09.000Z</time>
      </trkpt>
      <trkpt lat="45.16486" lon="5.94252">
        <ele>2080.1999511719</ele>
        <time>2023-08-12T12:38:15.000Z</time>
      </trkpt>
      <trkpt lat="45.16485" lon="5.94255">
        <ele>2080.3999023438</ele>
        <time>2023-08-12T12:38:18.000Z</time>
      </trkpt>
      <trkpt lat="45.16479" lon="5.94259">
        <ele>2081.1999511719</ele>
        <time>2023-08-12T12:38:25.000Z</time>
      </trkpt>
      <trkpt lat="45.16478" lon="5.94259">
        <ele>2081.3999023438</ele>
        <time>2023-08-12T12:38:26.000Z</time>
      </trkpt>
      <trkpt lat="45.16473" lon="5.94261">
        <ele>2082.6000976562</ele>
        <time>2023-08-12T12:38:33.000Z</time>
      </trkpt>
      <trkpt lat="45.1647" lon="5.94269">
        <ele>2083.6000976562</ele>
        <time>2023-08-12T12:38:40.000Z</time>
      </trkpt>
      <trkpt lat="45.16466" lon="5.9428">
        <ele>2084.6000976562</ele>
        <time>2023-08-12T12:38:49.000Z</time>
      </trkpt>
      <trkpt lat="45.16465" lon="5.94282">
        <ele>2084.6000976562</ele>
        <time>2023-08-12T12:38:50.000Z</time>
      </trkpt>
      <trkpt lat="45.16463" lon="5.9429">
        <ele>2085.6000976562</ele>
        <time>2023-08-12T12:38:57.000Z</time>
      </trkpt>
      <trkpt lat="45.16458" lon="5.94296">
        <ele>2086.6000976562</ele>
        <time>2023-08-12T12:39:05.000Z</time>
      </trkpt>
      <trkpt lat="45.16457" lon="5.94297">
        <ele>2086.6000976562</ele>
        <time>2023-08-12T12:39:06.000Z</time>
      </trkpt>
      <trkpt lat="45.16457" lon="5.94301">
        <ele>2087.3999023438</ele>
        <time>2023-08-12T12:39:11.000Z</time>
      </trkpt>
      <trkpt lat="45.16457" lon="5.94303">
        <ele>2087.8000488281</ele>
        <time>2023-08-12T12:39:14.000Z</time>
      </trkpt>
      <trkpt lat="45.16456" lon="5.94306">
        <ele>2088.3999023438</ele>
        <time>2023-08-12T12:39:18.000Z</time>
      </trkpt>
      <trkpt lat="45.16456" lon="5.94309">
        <ele>2089</ele>
        <time>2023-08-12T12:39:21.000Z</time>
      </trkpt>
      <trkpt lat="45.16455" lon="5.94313">
        <ele>2089.6000976562</ele>
        <time>2023-08-12T12:39:26.000Z</time>
      </trkpt>
      <trkpt lat="45.16455" lon="5.94316">
        <ele>2090</ele>
        <time>2023-08-12T12:39:28.000Z</time>
      </trkpt>
      <trkpt lat="45.16454" lon="5.94322">
        <ele>2090.8000488281</ele>
        <time>2023-08-12T12:39:34.000Z</time>
      </trkpt>
      <trkpt lat="45.16454" lon="5.94323">
        <ele>2091</ele>
        <time>2023-08-12T12:39:35.000Z</time>
      </trkpt>
      <trkpt lat="45.16451" lon="5.94323">
        <ele>2092.1999511719</ele>
        <time>2023-08-12T12:39:40.000Z</time>
      </trkpt>
      <trkpt lat="45.16451" lon="5.94322">
        <ele>2092.3999023438</ele>
        <time>2023-08-12T12:39:41.000Z</time>
      </trkpt>
      <trkpt lat="45.16448" lon="5.9432">
        <ele>2093.1999511719</ele>
        <time>2023-08-12T12:39:46.000Z</time>
      </trkpt>
      <trkpt lat="45.16446" lon="5.94319">
        <ele>2093.6000976562</ele>
        <time>2023-08-12T12:39:50.000Z</time>
      </trkpt>
      <trkpt lat="45.16444" lon="5.94316">
        <ele>2094.1999511719</ele>
        <time>2023-08-12T12:39:54.000Z</time>
      </trkpt>
      <trkpt lat="45.16444" lon="5.94314">
        <ele>2095</ele>
        <time>2023-08-12T12:39:59.000Z</time>
      </trkpt>
      <trkpt lat="45.16444" lon="5.94312">
        <ele>2095.1999511719</ele>
        <time>2023-08-12T12:40:01.000Z</time>
      </trkpt>
      <trkpt lat="45.16442" lon="5.9431">
        <ele>2096.1999511719</ele>
        <time>2023-08-12T12:40:07.000Z</time>
      </trkpt>
      <trkpt lat="45.16442" lon="5.94311">
        <ele>2096.3999023438</ele>
        <time>2023-08-12T12:40:08.000Z</time>
      </trkpt>
      <trkpt lat="45.16443" lon="5.94312">
        <ele>2096.3999023438</ele>
        <time>2023-08-12T12:40:09.000Z</time>
      </trkpt>
      <trkpt lat="45.16443" lon="5.94314">
        <ele>2096.8000488281</ele>
        <time>2023-08-12T12:40:13.000Z</time>
      </trkpt>
      <trkpt lat="45.16442" lon="5.94318">
        <ele>2097.3999023438</ele>
        <time>2023-08-12T12:40:16.000Z</time>
      </trkpt>
      <trkpt lat="45.16443" lon="5.94323">
        <ele>2098</ele>
        <time>2023-08-12T12:40:21.000Z</time>
      </trkpt>
      <trkpt lat="45.16443" lon="5.94327">
        <ele>2098.3999023438</ele>
        <time>2023-08-12T12:40:24.000Z</time>
      </trkpt>
      <trkpt lat="45.16444" lon="5.94331">
        <ele>2099.1999511719</ele>
        <time>2023-08-12T12:40:29.000Z</time>
      </trkpt>
      <trkpt lat="45.16444" lon="5.94332">
        <ele>2099.6000976562</ele>
        <time>2023-08-12T12:40:31.000Z</time>
      </trkpt>
      <trkpt lat="45.16445" lon="5.94338">
        <ele>2100.6000976562</ele>
        <time>2023-08-12T12:40:37.000Z</time>
      </trkpt>
      <trkpt lat="45.16442" lon="5.94342">
        <ele>2101.6000976562</ele>
        <time>2023-08-12T12:40:45.000Z</time>
      </trkpt>
      <trkpt lat="45.16434" lon="5.94338">
        <ele>2102.6000976562</ele>
        <time>2023-08-12T12:40:52.000Z</time>
      </trkpt>
      <trkpt lat="45.16431" lon="5.94332">
        <ele>2103.8000488281</ele>
        <time>2023-08-12T12:40:59.000Z</time>
      </trkpt>
      <trkpt lat="45.16428" lon="5.94327">
        <ele>2105</ele>
        <time>2023-08-12T12:41:07.000Z</time>
      </trkpt>
      <trkpt lat="45.16426" lon="5.94324">
        <ele>2106</ele>
        <time>2023-08-12T12:41:14.000Z</time>
      </trkpt>
      <trkpt lat="45.16424" lon="5.94321">
        <ele>2106.6000976562</ele>
        <time>2023-08-12T12:41:18.000Z</time>
      </trkpt>
      <trkpt lat="45.16422" lon="5.94318">
        <ele>2107.1999511719</ele>
        <time>2023-08-12T12:41:21.000Z</time>
      </trkpt>
      <trkpt lat="45.16421" lon="5.94317">
        <ele>2107.6000976562</ele>
        <time>2023-08-12T12:41:25.000Z</time>
      </trkpt>
      <trkpt lat="45.16418" lon="5.94316">
        <ele>2108.1999511719</ele>
        <time>2023-08-12T12:41:29.000Z</time>
      </trkpt>
      <trkpt lat="45.16418" lon="5.94317">
        <ele>2108.3999023438</ele>
        <time>2023-08-12T12:41:30.000Z</time>
      </trkpt>
      <trkpt lat="45.16416" lon="5.9432">
        <ele>2109</ele>
        <time>2023-08-12T12:41:34.000Z</time>
      </trkpt>
      <trkpt lat="45.16417" lon="5.94322">
        <ele>2109.3999023438</ele>
        <time>2023-08-12T12:41:37.000Z</time>
      </trkpt>
      <trkpt lat="45.16416" lon="5.94327">
        <ele>2110</ele>
        <time>2023-08-12T12:41:42.000Z</time>
      </trkpt>
      <trkpt lat="45.16415" lon="5.94328">
        <ele>2110.3999023438</ele>
        <time>2023-08-12T12:41:45.000Z</time>
      </trkpt>
      <trkpt lat="45.16415" lon="5.9433">
        <ele>2111</ele>
        <time>2023-08-12T12:41:49.000Z</time>
      </trkpt>
      <trkpt lat="45.16415" lon="5.94333">
        <ele>2111.6000976562</ele>
        <time>2023-08-12T12:41:53.000Z</time>
      </trkpt>
      <trkpt lat="45.16416" lon="5.94337">
        <ele>2112.6000976562</ele>
        <time>2023-08-12T12:41:58.000Z</time>
      </trkpt>
      <trkpt lat="45.16417" lon="5.94338">
        <ele>2112.8000488281</ele>
        <time>2023-08-12T12:41:59.000Z</time>
      </trkpt>
      <trkpt lat="45.16422" lon="5.9434">
        <ele>2113.3999023438</ele>
        <time>2023-08-12T12:42:04.000Z</time>
      </trkpt>
      <trkpt lat="45.16423" lon="5.94341">
        <ele>2113.8000488281</ele>
        <time>2023-08-12T12:42:06.000Z</time>
      </trkpt>
      <trkpt lat="45.16426" lon="5.94345">
        <ele>2114.6000976562</ele>
        <time>2023-08-12T12:42:12.000Z</time>
      </trkpt>
      <trkpt lat="45.16425" lon="5.94345">
        <ele>2115</ele>
        <time>2023-08-12T12:42:14.000Z</time>
      </trkpt>
      <trkpt lat="45.16425" lon="5.94351">
        <ele>2115.8000488281</ele>
        <time>2023-08-12T12:42:20.000Z</time>
      </trkpt>
      <trkpt lat="45.16424" lon="5.94352">
        <ele>2116</ele>
        <time>2023-08-12T12:42:22.000Z</time>
      </trkpt>
      <trkpt lat="45.16423" lon="5.94353">
        <ele>2116.1999511719</ele>
        <time>2023-08-12T12:42:25.000Z</time>
      </trkpt>
      <trkpt lat="45.16422" lon="5.94355">
        <ele>2116.6000976562</ele>
        <time>2023-08-12T12:42:27.000Z</time>
      </trkpt>
      <trkpt lat="45.16421" lon="5.94355">
        <ele>2117</ele>
        <time>2023-08-12T12:42:29.000Z</time>
      </trkpt>
      <trkpt lat="45.1642" lon="5.94355">
        <ele>2117.1999511719</ele>
        <time>2023-08-12T12:42:30.000Z</time>
      </trkpt>
      <trkpt lat="45.16419" lon="5.94355">
        <ele>2117.6000976562</ele>
        <time>2023-08-12T12:42:34.000Z</time>
      </trkpt>
      <trkpt lat="45.16416" lon="5.94355">
        <ele>2118</ele>
        <time>2023-08-12T12:42:42.000Z</time>
      </trkpt>
      <trkpt lat="45.16416" lon="5.94356">
        <ele>2118.1999511719</ele>
        <time>2023-08-12T12:42:44.000Z</time>
      </trkpt>
      <trkpt lat="45.16416" lon="5.94357">
        <ele>2119</ele>
        <time>2023-08-12T12:42:51.000Z</time>
      </trkpt>
      <trkpt lat="45.16415" lon="5.94355">
        <ele>2119.3999023438</ele>
        <time>2023-08-12T12:42:55.000Z</time>
      </trkpt>
      <trkpt lat="45.16413" lon="5.94351">
        <ele>2120.1999511719</ele>
        <time>2023-08-12T12:43:00.000Z</time>
      </trkpt>
      <trkpt lat="45.16411" lon="5.94349">
        <ele>2120.6000976562</ele>
        <time>2023-08-12T12:43:03.000Z</time>
      </trkpt>
      <trkpt lat="45.16407" lon="5.94344">
        <ele>2121</ele>
        <time>2023-08-12T12:43:08.000Z</time>
      </trkpt>
      <trkpt lat="45.16406" lon="5.94343">
        <ele>2121.6000976562</ele>
        <time>2023-08-12T12:43:13.000Z</time>
      </trkpt>
      <trkpt lat="45.16406" lon="5.94343">
        <ele>2121.8000488281</ele>
        <time>2023-08-12T12:43:15.000Z</time>
      </trkpt>
      <trkpt lat="45.16407" lon="5.9435">
        <ele>2122.8000488281</ele>
        <time>2023-08-12T12:43:22.000Z</time>
      </trkpt>
      <trkpt lat="45.16407" lon="5.94351">
        <ele>2123</ele>
        <time>2023-08-12T12:43:23.000Z</time>
      </trkpt>
      <trkpt lat="45.16407" lon="5.94355">
        <ele>2123.8000488281</ele>
        <time>2023-08-12T12:43:30.000Z</time>
      </trkpt>
      <trkpt lat="45.16408" lon="5.94363">
        <ele>2125</ele>
        <time>2023-08-12T12:43:37.000Z</time>
      </trkpt>
      <trkpt lat="45.16408" lon="5.94365">
        <ele>2125.1999511719</ele>
        <time>2023-08-12T12:43:38.000Z</time>
      </trkpt>
      <trkpt lat="45.16408" lon="5.94371">
        <ele>2126</ele>
        <time>2023-08-12T12:43:47.000Z</time>
      </trkpt>
      <trkpt lat="45.16407" lon="5.9438">
        <ele>2126.8000488281</ele>
        <time>2023-08-12T12:43:56.000Z</time>
      </trkpt>
      <trkpt lat="45.16407" lon="5.94381">
        <ele>2127</ele>
        <time>2023-08-12T12:43:58.000Z</time>
      </trkpt>
      <trkpt lat="45.16408" lon="5.94386">
        <ele>2127.8000488281</ele>
        <time>2023-08-12T12:44:04.000Z</time>
      </trkpt>
      <trkpt lat="45.16408" lon="5.94387">
        <ele>2128</ele>
        <time>2023-08-12T12:44:06.000Z</time>
      </trkpt>
      <trkpt lat="45.16407" lon="5.94391">
        <ele>2128.8000488281</ele>
        <time>2023-08-12T12:44:10.000Z</time>
      </trkpt>
      <trkpt lat="45.16406" lon="5.94393">
        <ele>2129</ele>
        <time>2023-08-12T12:44:12.000Z</time>
      </trkpt>
      <trkpt lat="45.16406" lon="5.94392">
        <ele>2129.8000488281</ele>
        <time>2023-08-12T12:44:19.000Z</time>
      </trkpt>
      <trkpt lat="45.16408" lon="5.94387">
        <ele>2130.1999511719</ele>
        <time>2023-08-12T12:44:22.000Z</time>
      </trkpt>
      <trkpt lat="45.16407" lon="5.94385">
        <ele>2130.3999023438</ele>
        <time>2023-08-12T12:44:24.000Z</time>
      </trkpt>
      <trkpt lat="45.16405" lon="5.94382">
        <ele>2131.1999511719</ele>
        <time>2023-08-12T12:44:31.000Z</time>
      </trkpt>
      <trkpt lat="45.16403" lon="5.94382">
        <ele>2131.8000488281</ele>
        <time>2023-08-12T12:44:34.000Z</time>
      </trkpt>
      <trkpt lat="45.16401" lon="5.94386">
        <ele>2132.1999511719</ele>
        <time>2023-08-12T12:44:37.000Z</time>
      </trkpt>
      <trkpt lat="45.16401" lon="5.94389">
        <ele>2132.3999023438</ele>
        <time>2023-08-12T12:44:40.000Z</time>
      </trkpt>
      <trkpt lat="45.16399" lon="5.94395">
        <ele>2133.3999023438</ele>
        <time>2023-08-12T12:44:47.000Z</time>
      </trkpt>
      <trkpt lat="45.16399" lon="5.94395">
        <ele>2133.3999023438</ele>
        <time>2023-08-12T12:44:49.000Z</time>
      </trkpt>
      <trkpt lat="45.16398" lon="5.94398">
        <ele>2134.6000976562</ele>
        <time>2023-08-12T12:44:56.000Z</time>
      </trkpt>
      <trkpt lat="45.16398" lon="5.94398">
        <ele>2134.8000488281</ele>
        <time>2023-08-12T12:44:57.000Z</time>
      </trkpt>
      <trkpt lat="45.16396" lon="5.94397">
        <ele>2135.6000976562</ele>
        <time>2023-08-12T12:45:03.000Z</time>
      </trkpt>
      <trkpt lat="45.16395" lon="5.94397">
        <ele>2135.8000488281</ele>
        <time>2023-08-12T12:45:05.000Z</time>
      </trkpt>
      <trkpt lat="45.16392" lon="5.944">
        <ele>2136.1999511719</ele>
        <time>2023-08-12T12:45:08.000Z</time>
      </trkpt>
      <trkpt lat="45.16392" lon="5.94402">
        <ele>2136.6000976562</ele>
        <time>2023-08-12T12:45:10.000Z</time>
      </trkpt>
      <trkpt lat="45.16391" lon="5.94405">
        <ele>2137.1999511719</ele>
        <time>2023-08-12T12:45:14.000Z</time>
      </trkpt>
      <trkpt lat="45.1639" lon="5.94408">
        <ele>2137.8000488281</ele>
        <time>2023-08-12T12:45:17.000Z</time>
      </trkpt>
      <trkpt lat="45.16389" lon="5.94407">
        <ele>2138.3999023438</ele>
        <time>2023-08-12T12:45:22.000Z</time>
      </trkpt>
      <trkpt lat="45.16389" lon="5.94407">
        <ele>2138.8000488281</ele>
        <time>2023-08-12T12:45:23.000Z</time>
      </trkpt>
      <trkpt lat="45.1639" lon="5.9441">
        <ele>2139.1999511719</ele>
        <time>2023-08-12T12:45:25.000Z</time>
      </trkpt>
      <trkpt lat="45.1639" lon="5.94415">
        <ele>2139.3999023438</ele>
        <time>2023-08-12T12:45:29.000Z</time>
      </trkpt>
      <trkpt lat="45.1639" lon="5.94418">
        <ele>2139.8000488281</ele>
        <time>2023-08-12T12:45:32.000Z</time>
      </trkpt>
      <trkpt lat="45.1639" lon="5.94425">
        <ele>2140.6000976562</ele>
        <time>2023-08-12T12:45:39.000Z</time>
      </trkpt>
      <trkpt lat="45.1639" lon="5.94427">
        <ele>2140.8000488281</ele>
        <time>2023-08-12T12:45:41.000Z</time>
      </trkpt>
      <trkpt lat="45.16389" lon="5.94433">
        <ele>2142</ele>
        <time>2023-08-12T12:45:49.000Z</time>
      </trkpt>
      <trkpt lat="45.1639" lon="5.94441">
        <ele>2143</ele>
        <time>2023-08-12T12:45:58.000Z</time>
      </trkpt>
      <trkpt lat="45.16391" lon="5.94445">
        <ele>2144</ele>
        <time>2023-08-12T12:46:04.000Z</time>
      </trkpt>
      <trkpt lat="45.16392" lon="5.94446">
        <ele>2144.6000976562</ele>
        <time>2023-08-12T12:46:07.000Z</time>
      </trkpt>
      <trkpt lat="45.16395" lon="5.94448">
        <ele>2145.1999511719</ele>
        <time>2023-08-12T12:46:10.000Z</time>
      </trkpt>
      <trkpt lat="45.164" lon="5.94449">
        <ele>2145.8000488281</ele>
        <time>2023-08-12T12:46:15.000Z</time>
      </trkpt>
      <trkpt lat="45.16399" lon="5.94451">
        <ele>2146.3999023438</ele>
        <time>2023-08-12T12:46:19.000Z</time>
      </trkpt>
      <trkpt lat="45.16399" lon="5.94453">
        <ele>2146.8000488281</ele>
        <time>2023-08-12T12:46:21.000Z</time>
      </trkpt>
      <trkpt lat="45.16397" lon="5.94456">
        <ele>2147.6000976562</ele>
        <time>2023-08-12T12:46:27.000Z</time>
      </trkpt>
      <trkpt lat="45.16395" lon="5.94457">
        <ele>2148</ele>
        <time>2023-08-12T12:46:29.000Z</time>
      </trkpt>
      <trkpt lat="45.16392" lon="5.9446">
        <ele>2148.6000976562</ele>
        <time>2023-08-12T12:46:34.000Z</time>
      </trkpt>
      <trkpt lat="45.16389" lon="5.94462">
        <ele>2149.3999023438</ele>
        <time>2023-08-12T12:46:39.000Z</time>
      </trkpt>
      <trkpt lat="45.16388" lon="5.94463">
        <ele>2149.6000976562</ele>
        <time>2023-08-12T12:46:40.000Z</time>
      </trkpt>
      <trkpt lat="45.16385" lon="5.94464">
        <ele>2151.1999511719</ele>
        <time>2023-08-12T12:46:49.000Z</time>
      </trkpt>
      <trkpt lat="45.16382" lon="5.94463">
        <ele>2151.8000488281</ele>
        <time>2023-08-12T12:46:52.000Z</time>
      </trkpt>
      <trkpt lat="45.16382" lon="5.94464">
        <ele>2152</ele>
        <time>2023-08-12T12:46:58.000Z</time>
      </trkpt>
      <trkpt lat="45.16378" lon="5.94464">
        <ele>2152.8000488281</ele>
        <time>2023-08-12T12:47:03.000Z</time>
      </trkpt>
      <trkpt lat="45.16372" lon="5.94465">
        <ele>2153.3999023438</ele>
        <time>2023-08-12T12:47:07.000Z</time>
      </trkpt>
      <trkpt lat="45.16371" lon="5.94464">
        <ele>2154</ele>
        <time>2023-08-12T12:47:10.000Z</time>
      </trkpt>
      <trkpt lat="45.16368" lon="5.94459">
        <ele>2154.3999023438</ele>
        <time>2023-08-12T12:47:15.000Z</time>
      </trkpt>
      <trkpt lat="45.16368" lon="5.94457">
        <ele>2155</ele>
        <time>2023-08-12T12:47:18.000Z</time>
      </trkpt>
      <trkpt lat="45.16366" lon="5.94456">
        <ele>2155.8000488281</ele>
        <time>2023-08-12T12:47:24.000Z</time>
      </trkpt>
      <trkpt lat="45.16365" lon="5.94459">
        <ele>2156</ele>
        <time>2023-08-12T12:47:26.000Z</time>
      </trkpt>
      <trkpt lat="45.16365" lon="5.94464">
        <ele>2157</ele>
        <time>2023-08-12T12:47:32.000Z</time>
      </trkpt>
      <trkpt lat="45.16365" lon="5.94465">
        <ele>2157.1999511719</ele>
        <time>2023-08-12T12:47:33.000Z</time>
      </trkpt>
      <trkpt lat="45.16366" lon="5.94469">
        <ele>2158</ele>
        <time>2023-08-12T12:47:39.000Z</time>
      </trkpt>
      <trkpt lat="45.16366" lon="5.9447">
        <ele>2158.1999511719</ele>
        <time>2023-08-12T12:47:41.000Z</time>
      </trkpt>
      <trkpt lat="45.16366" lon="5.94477">
        <ele>2159</ele>
        <time>2023-08-12T12:47:47.000Z</time>
      </trkpt>
      <trkpt lat="45.16366" lon="5.94479">
        <ele>2159.1999511719</ele>
        <time>2023-08-12T12:47:48.000Z</time>
      </trkpt>
      <trkpt lat="45.16367" lon="5.94485">
        <ele>2160.1999511719</ele>
        <time>2023-08-12T12:47:55.000Z</time>
      </trkpt>
      <trkpt lat="45.16367" lon="5.94487">
        <ele>2160.3999023438</ele>
        <time>2023-08-12T12:47:56.000Z</time>
      </trkpt>
      <trkpt lat="45.16369" lon="5.94493">
        <ele>2160.8000488281</ele>
        <time>2023-08-12T12:48:02.000Z</time>
      </trkpt>
      <trkpt lat="45.1637" lon="5.94498">
        <ele>2161.3999023438</ele>
        <time>2023-08-12T12:48:07.000Z</time>
      </trkpt>
      <trkpt lat="45.1637" lon="5.94501">
        <ele>2162</ele>
        <time>2023-08-12T12:48:12.000Z</time>
      </trkpt>
      <trkpt lat="45.16369" lon="5.94504">
        <ele>2162.3999023438</ele>
        <time>2023-08-12T12:48:16.000Z</time>
      </trkpt>
      <trkpt lat="45.1637" lon="5.94507">
        <ele>2163</ele>
        <time>2023-08-12T12:48:20.000Z</time>
      </trkpt>
      <trkpt lat="45.16371" lon="5.94509">
        <ele>2163.6000976562</ele>
        <time>2023-08-12T12:48:23.000Z</time>
      </trkpt>
      <trkpt lat="45.16373" lon="5.94513">
        <ele>2164.1999511719</ele>
        <time>2023-08-12T12:48:28.000Z</time>
      </trkpt>
      <trkpt lat="45.16375" lon="5.94516">
        <ele>2164.6000976562</ele>
        <time>2023-08-12T12:48:32.000Z</time>
      </trkpt>
      <trkpt lat="45.16378" lon="5.9452">
        <ele>2165.1999511719</ele>
        <time>2023-08-12T12:48:36.000Z</time>
      </trkpt>
      <trkpt lat="45.16379" lon="5.94524">
        <ele>2165.6000976562</ele>
        <time>2023-08-12T12:48:40.000Z</time>
      </trkpt>
      <trkpt lat="45.16381" lon="5.94525">
        <ele>2165.8000488281</ele>
        <time>2023-08-12T12:48:43.000Z</time>
      </trkpt>
      <trkpt lat="45.16384" lon="5.94533">
        <ele>2166.1999511719</ele>
        <time>2023-08-12T12:48:49.000Z</time>
      </trkpt>
      <trkpt lat="45.16385" lon="5.94537">
        <ele>2166.8000488281</ele>
        <time>2023-08-12T12:48:54.000Z</time>
      </trkpt>
      <trkpt lat="45.16384" lon="5.94539">
        <ele>2167.3999023438</ele>
        <time>2023-08-12T12:48:58.000Z</time>
      </trkpt>
      <trkpt lat="45.16383" lon="5.94541">
        <ele>2167.8000488281</ele>
        <time>2023-08-12T12:49:01.000Z</time>
      </trkpt>
      <trkpt lat="45.16382" lon="5.94537">
        <ele>2168.3999023438</ele>
        <time>2023-08-12T12:49:06.000Z</time>
      </trkpt>
      <trkpt lat="45.1638" lon="5.94536">
        <ele>2169</ele>
        <time>2023-08-12T12:49:09.000Z</time>
      </trkpt>
      <trkpt lat="45.16379" lon="5.94533">
        <ele>2169.6000976562</ele>
        <time>2023-08-12T12:49:12.000Z</time>
      </trkpt>
      <trkpt lat="45.16377" lon="5.94533">
        <ele>2170.1999511719</ele>
        <time>2023-08-12T12:49:16.000Z</time>
      </trkpt>
      <trkpt lat="45.16372" lon="5.94533">
        <ele>2170.8000488281</ele>
        <time>2023-08-12T12:49:22.000Z</time>
      </trkpt>
      <trkpt lat="45.1636" lon="5.9454">
        <ele>2173.3999023438</ele>
        <time>2023-08-12T12:49:43.000Z</time>
      </trkpt>
      <trkpt lat="45.16363" lon="5.94538">
        <ele>2173.1999511719</ele>
        <time>2023-08-12T12:49:48.000Z</time>
      </trkpt>
      <trkpt lat="45.16362" lon="5.94538">
        <ele>2173.3999023438</ele>
        <time>2023-08-12T12:49:56.000Z</time>
      </trkpt>
      <trkpt lat="45.16361" lon="5.94538">
        <ele>2173.6000976562</ele>
        <time>2023-08-12T12:49:57.000Z</time>
      </trkpt>
      <trkpt lat="45.16358" lon="5.94539">
        <ele>2173.6000976562</ele>
        <time>2023-08-12T12:50:01.000Z</time>
      </trkpt>
      <trkpt lat="45.16355" lon="5.94541">
        <ele>2173.6000976562</ele>
        <time>2023-08-12T12:50:12.000Z</time>
      </trkpt>
      <trkpt lat="45.16357" lon="5.94541">
        <ele>2173.3999023438</ele>
        <time>2023-08-12T12:50:21.000Z</time>
      </trkpt>
      <trkpt lat="45.16359" lon="5.94539">
        <ele>2173.1999511719</ele>
        <time>2023-08-12T12:50:27.000Z</time>
      </trkpt>
      <trkpt lat="45.16355" lon="5.94534">
        <ele>2172.8000488281</ele>
        <time>2023-08-12T12:50:35.000Z</time>
      </trkpt>
      <trkpt lat="45.16354" lon="5.94533">
        <ele>2172.6000976562</ele>
        <time>2023-08-12T12:50:41.000Z</time>
      </trkpt>
      <trkpt lat="45.16353" lon="5.94533">
        <ele>2172.6000976562</ele>
        <time>2023-08-12T12:50:42.000Z</time>
      </trkpt>
      <trkpt lat="45.16348" lon="5.94536">
        <ele>2171.6000976562</ele>
        <time>2023-08-12T12:50:48.000Z</time>
      </trkpt>
      <trkpt lat="45.16339" lon="5.9454">
        <ele>2169.6000976562</ele>
        <time>2023-08-12T12:50:59.000Z</time>
      </trkpt>
      <trkpt lat="45.16339" lon="5.94542">
        <ele>2169.3999023438</ele>
        <time>2023-08-12T12:51:02.000Z</time>
      </trkpt>
      <trkpt lat="45.16338" lon="5.94542">
        <ele>2169.3999023438</ele>
        <time>2023-08-12T12:51:04.000Z</time>
      </trkpt>
      <trkpt lat="45.16338" lon="5.94541">
        <ele>2169.3999023438</ele>
        <time>2023-08-12T12:51:13.000Z</time>
      </trkpt>
      <trkpt lat="45.16334" lon="5.94539">
        <ele>2168.3999023438</ele>
        <time>2023-08-12T12:51:19.000Z</time>
      </trkpt>
      <trkpt lat="45.16334" lon="5.94539">
        <ele>2168.3999023438</ele>
        <time>2023-08-12T12:51:20.000Z</time>
      </trkpt>
      <trkpt lat="45.16326" lon="5.9454">
        <ele>2165.3999023438</ele>
        <time>2023-08-12T12:51:38.000Z</time>
      </trkpt>
      <trkpt lat="45.16325" lon="5.9454">
        <ele>2164.6000976562</ele>
        <time>2023-08-12T12:51:44.000Z</time>
      </trkpt>
      <trkpt lat="45.16313" lon="5.94544">
        <ele>2161.3999023438</ele>
        <time>2023-08-12T12:52:02.000Z</time>
      </trkpt>
      <trkpt lat="45.16312" lon="5.94545">
        <ele>2160.8000488281</ele>
        <time>2023-08-12T12:52:07.000Z</time>
      </trkpt>
      <trkpt lat="45.1631" lon="5.94547">
        <ele>2160.3999023438</ele>
        <time>2023-08-12T12:52:11.000Z</time>
      </trkpt>
      <trkpt lat="45.16305" lon="5.9455">
        <ele>2158.6000976562</ele>
        <time>2023-08-12T12:52:23.000Z</time>
      </trkpt>
      <trkpt lat="45.16303" lon="5.94552">
        <ele>2157.8000488281</ele>
        <time>2023-08-12T12:52:28.000Z</time>
      </trkpt>
      <trkpt lat="45.16302" lon="5.94552">
        <ele>2157.3999023438</ele>
        <time>2023-08-12T12:52:30.000Z</time>
      </trkpt>
      <trkpt lat="45.163" lon="5.94552">
        <ele>2156.6000976562</ele>
        <time>2023-08-12T12:52:36.000Z</time>
      </trkpt>
      <trkpt lat="45.163" lon="5.94551">
        <ele>2156.3999023438</ele>
        <time>2023-08-12T12:52:38.000Z</time>
      </trkpt>
      <trkpt lat="45.16297" lon="5.94544">
        <ele>2155.1999511719</ele>
        <time>2023-08-12T12:52:45.000Z</time>
      </trkpt>
      <trkpt lat="45.16293" lon="5.94548">
        <ele>2154.6000976562</ele>
        <time>2023-08-12T12:52:51.000Z</time>
      </trkpt>
      <trkpt lat="45.16292" lon="5.94554">
        <ele>2154</ele>
        <time>2023-08-12T12:52:55.000Z</time>
      </trkpt>
      <trkpt lat="45.16292" lon="5.94561">
        <ele>2153.3999023438</ele>
        <time>2023-08-12T12:52:59.000Z</time>
      </trkpt>
      <trkpt lat="45.16291" lon="5.94563">
        <ele>2153</ele>
        <time>2023-08-12T12:53:01.000Z</time>
      </trkpt>
      <trkpt lat="45.1629" lon="5.94565">
        <ele>2152.1999511719</ele>
        <time>2023-08-12T12:53:06.000Z</time>
      </trkpt>
      <trkpt lat="45.16289" lon="5.94566">
        <ele>2151.8000488281</ele>
        <time>2023-08-12T12:53:09.000Z</time>
      </trkpt>
      <trkpt lat="45.16288" lon="5.94569">
        <ele>2151.1999511719</ele>
        <time>2023-08-12T12:53:13.000Z</time>
      </trkpt>
      <trkpt lat="45.16287" lon="5.9457">
        <ele>2150.8000488281</ele>
        <time>2023-08-12T12:53:16.000Z</time>
      </trkpt>
      <trkpt lat="45.16284" lon="5.94574">
        <ele>2149.8000488281</ele>
        <time>2023-08-12T12:53:21.000Z</time>
      </trkpt>
      <trkpt lat="45.16284" lon="5.94574">
        <ele>2149.8000488281</ele>
        <time>2023-08-12T12:53:22.000Z</time>
      </trkpt>
      <trkpt lat="45.16283" lon="5.94573">
        <ele>2149.6000976562</ele>
        <time>2023-08-12T12:53:23.000Z</time>
      </trkpt>
      <trkpt lat="45.16282" lon="5.94571">
        <ele>2148.8000488281</ele>
        <time>2023-08-12T12:53:28.000Z</time>
      </trkpt>
      <trkpt lat="45.16282" lon="5.94571">
        <ele>2148.6000976562</ele>
        <time>2023-08-12T12:53:29.000Z</time>
      </trkpt>
      <trkpt lat="45.16282" lon="5.94568">
        <ele>2148</ele>
        <time>2023-08-12T12:53:33.000Z</time>
      </trkpt>
      <trkpt lat="45.16282" lon="5.94568">
        <ele>2147.6000976562</ele>
        <time>2023-08-12T12:53:38.000Z</time>
      </trkpt>
      <trkpt lat="45.16281" lon="5.94567">
        <ele>2147.3999023438</ele>
        <time>2023-08-12T12:53:42.000Z</time>
      </trkpt>
      <trkpt lat="45.16282" lon="5.94563">
        <ele>2147.3999023438</ele>
        <time>2023-08-12T12:53:49.000Z</time>
      </trkpt>
      <trkpt lat="45.16276" lon="5.94559">
        <ele>2146.8000488281</ele>
        <time>2023-08-12T12:53:58.000Z</time>
      </trkpt>
      <trkpt lat="45.16274" lon="5.94559">
        <ele>2146.3999023438</ele>
        <time>2023-08-12T12:54:01.000Z</time>
      </trkpt>
      <trkpt lat="45.16266" lon="5.94557">
        <ele>2145</ele>
        <time>2023-08-12T12:54:09.000Z</time>
      </trkpt>
      <trkpt lat="45.16262" lon="5.94555">
        <ele>2144.3999023438</ele>
        <time>2023-08-12T12:54:12.000Z</time>
      </trkpt>
      <trkpt lat="45.1626" lon="5.94551">
        <ele>2144.1999511719</ele>
        <time>2023-08-12T12:54:17.000Z</time>
      </trkpt>
      <trkpt lat="45.16259" lon="5.94521">
        <ele>2139.3999023438</ele>
        <time>2023-08-12T12:54:48.000Z</time>
      </trkpt>
      <trkpt lat="45.16259" lon="5.94514">
        <ele>2137.8000488281</ele>
        <time>2023-08-12T12:54:54.000Z</time>
      </trkpt>
      <trkpt lat="45.1621" lon="5.94529">
        <ele>2135.8000488281</ele>
        <time>2023-08-12T12:55:26.000Z</time>
      </trkpt>
      <trkpt lat="45.16198" lon="5.94527">
        <ele>2135.1999511719</ele>
        <time>2023-08-12T12:55:35.000Z</time>
      </trkpt>
      <trkpt lat="45.16192" lon="5.94523">
        <ele>2134.8000488281</ele>
        <time>2023-08-12T12:55:42.000Z</time>
      </trkpt>
      <trkpt lat="45.16191" lon="5.94521">
        <ele>2134.3999023438</ele>
        <time>2023-08-12T12:55:44.000Z</time>
      </trkpt>
      <trkpt lat="45.1619" lon="5.94519">
        <ele>2134.3999023438</ele>
        <time>2023-08-12T12:55:46.000Z</time>
      </trkpt>
      <trkpt lat="45.16188" lon="5.94508">
        <ele>2133.3999023438</ele>
        <time>2023-08-12T12:55:54.000Z</time>
      </trkpt>
      <trkpt lat="45.16186" lon="5.94509">
        <ele>2132.3999023438</ele>
        <time>2023-08-12T12:55:59.000Z</time>
      </trkpt>
      <trkpt lat="45.16186" lon="5.94509">
        <ele>2132.3999023438</ele>
        <time>2023-08-12T12:56:00.000Z</time>
      </trkpt>
      <trkpt lat="45.16184" lon="5.94509">
        <ele>2132.1999511719</ele>
        <time>2023-08-12T12:56:09.000Z</time>
      </trkpt>
      <trkpt lat="45.16184" lon="5.94505">
        <ele>2132</ele>
        <time>2023-08-12T12:56:18.000Z</time>
      </trkpt>
      <trkpt lat="45.1618" lon="5.94503">
        <ele>2131.3999023438</ele>
        <time>2023-08-12T12:56:39.000Z</time>
      </trkpt>
      <trkpt lat="45.16179" lon="5.94502">
        <ele>2131.1999511719</ele>
        <time>2023-08-12T12:56:40.000Z</time>
      </trkpt>
      <trkpt lat="45.16174" lon="5.94492">
        <ele>2130</ele>
        <time>2023-08-12T12:56:47.000Z</time>
      </trkpt>
      <trkpt lat="45.16174" lon="5.9449">
        <ele>2130</ele>
        <time>2023-08-12T12:56:48.000Z</time>
      </trkpt>
      <trkpt lat="45.16172" lon="5.94486">
        <ele>2128.6000976562</ele>
        <time>2023-08-12T12:56:54.000Z</time>
      </trkpt>
      <trkpt lat="45.16172" lon="5.94485">
        <ele>2128.3999023438</ele>
        <time>2023-08-12T12:56:55.000Z</time>
      </trkpt>
      <trkpt lat="45.16171" lon="5.94482">
        <ele>2127.3999023438</ele>
        <time>2023-08-12T12:57:02.000Z</time>
      </trkpt>
      <trkpt lat="45.16168" lon="5.94478">
        <ele>2126.6000976562</ele>
        <time>2023-08-12T12:57:05.000Z</time>
      </trkpt>
      <trkpt lat="45.16168" lon="5.94477">
        <ele>2126.3999023438</ele>
        <time>2023-08-12T12:57:06.000Z</time>
      </trkpt>
      <trkpt lat="45.16166" lon="5.94474">
        <ele>2125.6000976562</ele>
        <time>2023-08-12T12:57:11.000Z</time>
      </trkpt>
      <trkpt lat="45.16164" lon="5.94472">
        <ele>2125.3999023438</ele>
        <time>2023-08-12T12:57:14.000Z</time>
      </trkpt>
      <trkpt lat="45.16161" lon="5.94469">
        <ele>2124.6000976562</ele>
        <time>2023-08-12T12:57:18.000Z</time>
      </trkpt>
      <trkpt lat="45.1616" lon="5.94468">
        <ele>2124.1999511719</ele>
        <time>2023-08-12T12:57:19.000Z</time>
      </trkpt>
      <trkpt lat="45.16156" lon="5.94464">
        <ele>2123</ele>
        <time>2023-08-12T12:57:25.000Z</time>
      </trkpt>
      <trkpt lat="45.16155" lon="5.94463">
        <ele>2122.6000976562</ele>
        <time>2023-08-12T12:57:27.000Z</time>
      </trkpt>
      <trkpt lat="45.16153" lon="5.94461">
        <ele>2122</ele>
        <time>2023-08-12T12:57:31.000Z</time>
      </trkpt>
      <trkpt lat="45.16152" lon="5.94459">
        <ele>2121.8000488281</ele>
        <time>2023-08-12T12:57:33.000Z</time>
      </trkpt>
      <trkpt lat="45.16149" lon="5.94454">
        <ele>2120.8000488281</ele>
        <time>2023-08-12T12:57:41.000Z</time>
      </trkpt>
      <trkpt lat="45.16146" lon="5.94447">
        <ele>2119.8000488281</ele>
        <time>2023-08-12T12:57:48.000Z</time>
      </trkpt>
      <trkpt lat="45.16146" lon="5.94447">
        <ele>2119.6000976562</ele>
        <time>2023-08-12T12:57:49.000Z</time>
      </trkpt>
      <trkpt lat="45.16145" lon="5.9444">
        <ele>2118.6000976562</ele>
        <time>2023-08-12T12:57:55.000Z</time>
      </trkpt>
      <trkpt lat="45.16144" lon="5.94437">
        <ele>2117.8000488281</ele>
        <time>2023-08-12T12:57:58.000Z</time>
      </trkpt>
      <trkpt lat="45.16143" lon="5.94435">
        <ele>2117.3999023438</ele>
        <time>2023-08-12T12:57:59.000Z</time>
      </trkpt>
      <trkpt lat="45.16141" lon="5.94427">
        <ele>2116.3999023438</ele>
        <time>2023-08-12T12:58:05.000Z</time>
      </trkpt>
      <trkpt lat="45.1614" lon="5.94426">
        <ele>2116</ele>
        <time>2023-08-12T12:58:06.000Z</time>
      </trkpt>
      <trkpt lat="45.16136" lon="5.94415">
        <ele>2115.1999511719</ele>
        <time>2023-08-12T12:58:13.000Z</time>
      </trkpt>
      <trkpt lat="45.16133" lon="5.94413">
        <ele>2114.6000976562</ele>
        <time>2023-08-12T12:58:19.000Z</time>
      </trkpt>
      <trkpt lat="45.1613" lon="5.94412">
        <ele>2114.1999511719</ele>
        <time>2023-08-12T12:58:23.000Z</time>
      </trkpt>
      <trkpt lat="45.16125" lon="5.94423">
        <ele>2115.8000488281</ele>
        <time>2023-08-12T12:58:35.000Z</time>
      </trkpt>
      <trkpt lat="45.16125" lon="5.94425">
        <ele>2116</ele>
        <time>2023-08-12T12:58:36.000Z</time>
      </trkpt>
      <trkpt lat="45.16125" lon="5.94434">
        <ele>2116.3999023438</ele>
        <time>2023-08-12T12:58:41.000Z</time>
      </trkpt>
      <trkpt lat="45.16126" lon="5.94435">
        <ele>2116.3999023438</ele>
        <time>2023-08-12T12:58:43.000Z</time>
      </trkpt>
      <trkpt lat="45.16123" lon="5.94437">
        <ele>2116.8000488281</ele>
        <time>2023-08-12T12:58:49.000Z</time>
      </trkpt>
      <trkpt lat="45.16121" lon="5.94442">
        <ele>2116.6000976562</ele>
        <time>2023-08-12T12:58:59.000Z</time>
      </trkpt>
      <trkpt lat="45.16123" lon="5.94444">
        <ele>2116.6000976562</ele>
        <time>2023-08-12T12:59:09.000Z</time>
      </trkpt>
      <trkpt lat="45.16126" lon="5.94437">
        <ele>2116.3999023438</ele>
        <time>2023-08-12T12:59:16.000Z</time>
      </trkpt>
      <trkpt lat="45.16126" lon="5.94423">
        <ele>2116</ele>
        <time>2023-08-12T12:59:23.000Z</time>
      </trkpt>
      <trkpt lat="45.16127" lon="5.94417">
        <ele>2115.1999511719</ele>
        <time>2023-08-12T12:59:31.000Z</time>
      </trkpt>
      <trkpt lat="45.1613" lon="5.94412">
        <ele>2114.1999511719</ele>
        <time>2023-08-12T12:59:36.000Z</time>
      </trkpt>
      <trkpt lat="45.16131" lon="5.94411">
        <ele>2114</ele>
        <time>2023-08-12T12:59:38.000Z</time>
      </trkpt>
      <trkpt lat="45.16131" lon="5.94415">
        <ele>2114</ele>
        <time>2023-08-12T12:59:39.000Z</time>
      </trkpt>
      <trkpt lat="45.16131" lon="5.94416">
        <ele>2113.8000488281</ele>
        <time>2023-08-12T12:59:42.000Z</time>
      </trkpt>
      <trkpt lat="45.16131" lon="5.94421">
        <ele>2115</ele>
        <time>2023-08-12T12:59:51.000Z</time>
      </trkpt>
      <trkpt lat="45.1613" lon="5.94421">
        <ele>2115.3999023438</ele>
        <time>2023-08-12T12:59:52.000Z</time>
      </trkpt>
      <trkpt lat="45.16123" lon="5.94437">
        <ele>2116.3999023438</ele>
        <time>2023-08-12T13:06:12.000Z</time>
      </trkpt>
      <trkpt lat="45.16122" lon="5.9444">
        <ele>2116.6000976562</ele>
        <time>2023-08-12T13:06:38.000Z</time>
      </trkpt>
      <trkpt lat="45.1612" lon="5.94438">
        <ele>2116.6000976562</ele>
        <time>2023-08-12T13:06:45.000Z</time>
      </trkpt>
      <trkpt lat="45.16121" lon="5.94434">
        <ele>2116.8000488281</ele>
        <time>2023-08-12T13:06:53.000Z</time>
      </trkpt>
      <trkpt lat="45.16122" lon="5.94432">
        <ele>2116.8000488281</ele>
        <time>2023-08-12T13:07:03.000Z</time>
      </trkpt>
      <trkpt lat="45.16124" lon="5.9443">
        <ele>2116.8000488281</ele>
        <time>2023-08-12T13:07:10.000Z</time>
      </trkpt>
      <trkpt lat="45.16126" lon="5.94428">
        <ele>2116.8000488281</ele>
        <time>2023-08-12T13:07:17.000Z</time>
      </trkpt>
      <trkpt lat="45.16127" lon="5.94428">
        <ele>2116.6000976562</ele>
        <time>2023-08-12T13:07:24.000Z</time>
      </trkpt>
      <trkpt lat="45.1613" lon="5.94431">
        <ele>2116.3999023438</ele>
        <time>2023-08-12T13:07:31.000Z</time>
      </trkpt>
      <trkpt lat="45.16128" lon="5.94429">
        <ele>2116.6000976562</ele>
        <time>2023-08-12T13:07:40.000Z</time>
      </trkpt>
      <trkpt lat="45.1613" lon="5.94428">
        <ele>2116.6000976562</ele>
        <time>2023-08-12T13:07:51.000Z</time>
      </trkpt>
      <trkpt lat="45.1613" lon="5.94427">
        <ele>2116.6000976562</ele>
        <time>2023-08-12T13:07:59.000Z</time>
      </trkpt>
      <trkpt lat="45.16127" lon="5.94436">
        <ele>2116.6000976562</ele>
        <time>2023-08-12T13:08:09.000Z</time>
      </trkpt>
      <trkpt lat="45.16123" lon="5.9443">
        <ele>2116.3999023438</ele>
        <time>2023-08-12T13:08:17.000Z</time>
      </trkpt>
      <trkpt lat="45.16121" lon="5.94421">
        <ele>2116.3999023438</ele>
        <time>2023-08-12T13:08:31.000Z</time>
      </trkpt>
      <trkpt lat="45.16122" lon="5.94417">
        <ele>2116.1999511719</ele>
        <time>2023-08-12T13:08:39.000Z</time>
      </trkpt>
      <trkpt lat="45.16123" lon="5.94424">
        <ele>2116.1999511719</ele>
        <time>2023-08-12T13:08:53.000Z</time>
      </trkpt>
      <trkpt lat="45.16122" lon="5.94423">
        <ele>2116.3999023438</ele>
        <time>2023-08-12T13:09:04.000Z</time>
      </trkpt>
      <trkpt lat="45.16122" lon="5.94427">
        <ele>2116.1999511719</ele>
        <time>2023-08-12T13:09:12.000Z</time>
      </trkpt>
      <trkpt lat="45.16123" lon="5.94431">
        <ele>2116.3999023438</ele>
        <time>2023-08-12T13:09:20.000Z</time>
      </trkpt>
      <trkpt lat="45.16122" lon="5.94429">
        <ele>2116</ele>
        <time>2023-08-12T13:09:28.000Z</time>
      </trkpt>
      <trkpt lat="45.1612" lon="5.94426">
        <ele>2115.8000488281</ele>
        <time>2023-08-12T13:09:35.000Z</time>
      </trkpt>
      <trkpt lat="45.16119" lon="5.94427">
        <ele>2115.8000488281</ele>
        <time>2023-08-12T13:09:42.000Z</time>
      </trkpt>
      <trkpt lat="45.1612" lon="5.94427">
        <ele>2115.8000488281</ele>
        <time>2023-08-12T13:09:50.000Z</time>
      </trkpt>
      <trkpt lat="45.1612" lon="5.94426">
        <ele>2115.6000976562</ele>
        <time>2023-08-12T13:09:57.000Z</time>
      </trkpt>
      <trkpt lat="45.16119" lon="5.94425">
        <ele>2115.3999023438</ele>
        <time>2023-08-12T13:10:03.000Z</time>
      </trkpt>
      <trkpt lat="45.16117" lon="5.94425">
        <ele>2115.1999511719</ele>
        <time>2023-08-12T13:10:06.000Z</time>
      </trkpt>
      <trkpt lat="45.16118" lon="5.94424">
        <ele>2115</ele>
        <time>2023-08-12T13:10:14.000Z</time>
      </trkpt>
      <trkpt lat="45.16116" lon="5.94429">
        <ele>2115</ele>
        <time>2023-08-12T13:10:24.000Z</time>
      </trkpt>
      <trkpt lat="45.16117" lon="5.94426">
        <ele>2114.8000488281</ele>
        <time>2023-08-12T13:10:31.000Z</time>
      </trkpt>
      <trkpt lat="45.16118" lon="5.94427">
        <ele>2114.6000976562</ele>
        <time>2023-08-12T13:10:41.000Z</time>
      </trkpt>
      <trkpt lat="45.16117" lon="5.94425">
        <ele>2114.6000976562</ele>
        <time>2023-08-12T13:10:51.000Z</time>
      </trkpt>
      <trkpt lat="45.16117" lon="5.94424">
        <ele>2114.6000976562</ele>
        <time>2023-08-12T13:11:01.000Z</time>
      </trkpt>
      <trkpt lat="45.16115" lon="5.94426">
        <ele>2114.6000976562</ele>
        <time>2023-08-12T13:11:07.000Z</time>
      </trkpt>
      <trkpt lat="45.16115" lon="5.94426">
        <ele>2114.3999023438</ele>
        <time>2023-08-12T13:11:20.000Z</time>
      </trkpt>
      <trkpt lat="45.16115" lon="5.94426">
        <ele>2114.6000976562</ele>
        <time>2023-08-12T13:11:27.000Z</time>
      </trkpt>
      <trkpt lat="45.16114" lon="5.94426">
        <ele>2114.3999023438</ele>
        <time>2023-08-12T13:11:34.000Z</time>
      </trkpt>
      <trkpt lat="45.16113" lon="5.94427">
        <ele>2114.3999023438</ele>
        <time>2023-08-12T13:11:37.000Z</time>
      </trkpt>
      <trkpt lat="45.16115" lon="5.94422">
        <ele>2114.1999511719</ele>
        <time>2023-08-12T13:11:46.000Z</time>
      </trkpt>
      <trkpt lat="45.16114" lon="5.94425">
        <ele>2114.1999511719</ele>
        <time>2023-08-12T13:11:56.000Z</time>
      </trkpt>
      <trkpt lat="45.16114" lon="5.94428">
        <ele>2114.1999511719</ele>
        <time>2023-08-12T13:12:06.000Z</time>
      </trkpt>
      <trkpt lat="45.16117" lon="5.94426">
        <ele>2114.1999511719</ele>
        <time>2023-08-12T13:12:17.000Z</time>
      </trkpt>
      <trkpt lat="45.16117" lon="5.94426">
        <ele>2114.1999511719</ele>
        <time>2023-08-12T13:12:46.000Z</time>
      </trkpt>
      <trkpt lat="45.16117" lon="5.94426">
        <ele>2114</ele>
        <time>2023-08-12T13:12:53.000Z</time>
      </trkpt>
      <trkpt lat="45.16117" lon="5.94425">
        <ele>2114</ele>
        <time>2023-08-12T13:13:07.000Z</time>
      </trkpt>
      <trkpt lat="45.16117" lon="5.94428">
        <ele>2114</ele>
        <time>2023-08-12T13:13:17.000Z</time>
      </trkpt>
      <trkpt lat="45.16115" lon="5.94429">
        <ele>2114</ele>
        <time>2023-08-12T13:13:25.000Z</time>
      </trkpt>
      <trkpt lat="45.16115" lon="5.94427">
        <ele>2114</ele>
        <time>2023-08-12T13:13:38.000Z</time>
      </trkpt>
      <trkpt lat="45.16117" lon="5.94426">
        <ele>2114</ele>
        <time>2023-08-12T13:13:51.000Z</time>
      </trkpt>
      <trkpt lat="45.16111" lon="5.94428">
        <ele>2113.6000976562</ele>
        <time>2023-08-12T13:14:12.000Z</time>
      </trkpt>
      <trkpt lat="45.16114" lon="5.94428">
        <ele>2113.3999023438</ele>
        <time>2023-08-12T13:14:20.000Z</time>
      </trkpt>
      <trkpt lat="45.16118" lon="5.94427">
        <ele>2113.6000976562</ele>
        <time>2023-08-12T13:14:41.000Z</time>
      </trkpt>
      <trkpt lat="45.16118" lon="5.94428">
        <ele>2113.6000976562</ele>
        <time>2023-08-12T13:14:50.000Z</time>
      </trkpt>
      <trkpt lat="45.16118" lon="5.94422">
        <ele>2114</ele>
        <time>2023-08-12T13:14:59.000Z</time>
      </trkpt>
      <trkpt lat="45.16117" lon="5.94423">
        <ele>2114</ele>
        <time>2023-08-12T13:15:07.000Z</time>
      </trkpt>
      <trkpt lat="45.16117" lon="5.94421">
        <ele>2114</ele>
        <time>2023-08-12T13:15:13.000Z</time>
      </trkpt>
      <trkpt lat="45.16118" lon="5.94425">
        <ele>2114</ele>
        <time>2023-08-12T13:15:18.000Z</time>
      </trkpt>
      <trkpt lat="45.16121" lon="5.94432">
        <ele>2114</ele>
        <time>2023-08-12T13:15:24.000Z</time>
      </trkpt>
      <trkpt lat="45.16121" lon="5.94442">
        <ele>2113.8000488281</ele>
        <time>2023-08-12T13:15:31.000Z</time>
      </trkpt>
      <trkpt lat="45.16125" lon="5.94447">
        <ele>2114.1999511719</ele>
        <time>2023-08-12T13:15:40.000Z</time>
      </trkpt>
      <trkpt lat="45.16123" lon="5.94449">
        <ele>2114.1999511719</ele>
        <time>2023-08-12T13:15:47.000Z</time>
      </trkpt>
      <trkpt lat="45.16119" lon="5.9445">
        <ele>2114.1999511719</ele>
        <time>2023-08-12T13:15:58.000Z</time>
      </trkpt>
      <trkpt lat="45.1612" lon="5.94447">
        <ele>2114.1999511719</ele>
        <time>2023-08-12T13:16:07.000Z</time>
      </trkpt>
      <trkpt lat="45.16121" lon="5.94448">
        <ele>2114.3999023438</ele>
        <time>2023-08-12T13:16:17.000Z</time>
      </trkpt>
      <trkpt lat="45.16121" lon="5.94448">
        <ele>2114.6000976562</ele>
        <time>2023-08-12T13:16:25.000Z</time>
      </trkpt>
      <trkpt lat="45.16122" lon="5.94452">
        <ele>2114.6000976562</ele>
        <time>2023-08-12T13:16:33.000Z</time>
      </trkpt>
      <trkpt lat="45.16121" lon="5.94451">
        <ele>2114.6000976562</ele>
        <time>2023-08-12T13:16:41.000Z</time>
      </trkpt>
      <trkpt lat="45.1612" lon="5.94452">
        <ele>2114.3999023438</ele>
        <time>2023-08-12T13:16:51.000Z</time>
      </trkpt>
      <trkpt lat="45.16123" lon="5.94451">
        <ele>2114.3999023438</ele>
        <time>2023-08-12T13:17:36.000Z</time>
      </trkpt>
      <trkpt lat="45.16122" lon="5.9445">
        <ele>2114.3999023438</ele>
        <time>2023-08-12T13:17:44.000Z</time>
      </trkpt>
      <trkpt lat="45.16121" lon="5.9445">
        <ele>2114.3999023438</ele>
        <time>2023-08-12T13:17:52.000Z</time>
      </trkpt>
      <trkpt lat="45.16121" lon="5.94452">
        <ele>2114.3999023438</ele>
        <time>2023-08-12T13:18:03.000Z</time>
      </trkpt>
      <trkpt lat="45.16123" lon="5.94454">
        <ele>2114.3999023438</ele>
        <time>2023-08-12T13:18:12.000Z</time>
      </trkpt>
      <trkpt lat="45.16123" lon="5.94455">
        <ele>2114.3999023438</ele>
        <time>2023-08-12T13:18:21.000Z</time>
      </trkpt>
      <trkpt lat="45.16123" lon="5.94455">
        <ele>2114.3999023438</ele>
        <time>2023-08-12T13:18:30.000Z</time>
      </trkpt>
      <trkpt lat="45.16123" lon="5.94452">
        <ele>2114.3999023438</ele>
        <time>2023-08-12T13:18:38.000Z</time>
      </trkpt>
      <trkpt lat="45.16123" lon="5.94454">
        <ele>2114.3999023438</ele>
        <time>2023-08-12T13:18:45.000Z</time>
      </trkpt>
      <trkpt lat="45.16122" lon="5.94452">
        <ele>2114.3999023438</ele>
        <time>2023-08-12T13:18:52.000Z</time>
      </trkpt>
      <trkpt lat="45.1612" lon="5.94447">
        <ele>2114.1999511719</ele>
        <time>2023-08-12T13:19:03.000Z</time>
      </trkpt>
      <trkpt lat="45.16135" lon="5.94427">
        <ele>2113.8000488281</ele>
        <time>2023-08-12T13:19:51.000Z</time>
      </trkpt>
      <trkpt lat="45.16132" lon="5.94428">
        <ele>2113.8000488281</ele>
        <time>2023-08-12T13:19:54.000Z</time>
      </trkpt>
      <trkpt lat="45.16127" lon="5.94424">
        <ele>2113.8000488281</ele>
        <time>2023-08-12T13:20:02.000Z</time>
      </trkpt>
      <trkpt lat="45.16126" lon="5.94419">
        <ele>2113.3999023438</ele>
        <time>2023-08-12T13:20:10.000Z</time>
      </trkpt>
      <trkpt lat="45.16129" lon="5.94419">
        <ele>2112.1999511719</ele>
        <time>2023-08-12T13:20:16.000Z</time>
      </trkpt>
      <trkpt lat="45.16132" lon="5.94418">
        <ele>2111.6000976562</ele>
        <time>2023-08-12T13:20:22.000Z</time>
      </trkpt>
      <trkpt lat="45.16133" lon="5.94417">
        <ele>2111.3999023438</ele>
        <time>2023-08-12T13:20:30.000Z</time>
      </trkpt>
      <trkpt lat="45.16136" lon="5.94418">
        <ele>2111.8000488281</ele>
        <time>2023-08-12T13:20:36.000Z</time>
      </trkpt>
      <trkpt lat="45.16136" lon="5.94415">
        <ele>2112.3999023438</ele>
        <time>2023-08-12T13:20:43.000Z</time>
      </trkpt>
      <trkpt lat="45.1614" lon="5.94421">
        <ele>2112.1999511719</ele>
        <time>2023-08-12T13:20:53.000Z</time>
      </trkpt>
      <trkpt lat="45.16139" lon="5.94421">
        <ele>2112.1999511719</ele>
        <time>2023-08-12T13:21:00.000Z</time>
      </trkpt>
      <trkpt lat="45.1614" lon="5.94421">
        <ele>2112.1999511719</ele>
        <time>2023-08-12T13:21:10.000Z</time>
      </trkpt>
      <trkpt lat="45.16137" lon="5.94415">
        <ele>2111.8000488281</ele>
        <time>2023-08-12T13:21:20.000Z</time>
      </trkpt>
      <trkpt lat="45.16133" lon="5.94412">
        <ele>2111.8000488281</ele>
        <time>2023-08-12T13:21:28.000Z</time>
      </trkpt>
      <trkpt lat="45.16129" lon="5.94411">
        <ele>2111</ele>
        <time>2023-08-12T13:21:34.000Z</time>
      </trkpt>
      <trkpt lat="45.16127" lon="5.9441">
        <ele>2110.8000488281</ele>
        <time>2023-08-12T13:21:36.000Z</time>
      </trkpt>
      <trkpt lat="45.16129" lon="5.94402">
        <ele>2110.3999023438</ele>
        <time>2023-08-12T13:21:43.000Z</time>
      </trkpt>
      <trkpt lat="45.16132" lon="5.94391">
        <ele>2110.3999023438</ele>
        <time>2023-08-12T13:21:51.000Z</time>
      </trkpt>
      <trkpt lat="45.16133" lon="5.94381">
        <ele>2110.1999511719</ele>
        <time>2023-08-12T13:21:58.000Z</time>
      </trkpt>
      <trkpt lat="45.16133" lon="5.9438">
        <ele>2110.1999511719</ele>
        <time>2023-08-12T13:22:02.000Z</time>
      </trkpt>
      <trkpt lat="45.16133" lon="5.9438">
        <ele>2110</ele>
        <time>2023-08-12T13:22:03.000Z</time>
      </trkpt>
      <trkpt lat="45.16133" lon="5.9438">
        <ele>2110</ele>
        <time>2023-08-12T13:22:04.000Z</time>
      </trkpt>
      <trkpt lat="45.16133" lon="5.94382">
        <ele>2110</ele>
        <time>2023-08-12T13:22:06.000Z</time>
      </trkpt>
      <trkpt lat="45.16133" lon="5.94382">
        <ele>2110.1999511719</ele>
        <time>2023-08-12T13:22:12.000Z</time>
      </trkpt>
      <trkpt lat="45.16134" lon="5.94386">
        <ele>2110.3999023438</ele>
        <time>2023-08-12T13:22:23.000Z</time>
      </trkpt>
      <trkpt lat="45.16132" lon="5.94385">
        <ele>2110.3999023438</ele>
        <time>2023-08-12T13:22:32.000Z</time>
      </trkpt>
      <trkpt lat="45.16128" lon="5.94389">
        <ele>2110.3999023438</ele>
        <time>2023-08-12T13:22:41.000Z</time>
      </trkpt>
      <trkpt lat="45.16129" lon="5.94385">
        <ele>2110.3999023438</ele>
        <time>2023-08-12T13:22:51.000Z</time>
      </trkpt>
      <trkpt lat="45.16131" lon="5.94383">
        <ele>2110.6000976562</ele>
        <time>2023-08-12T13:23:00.000Z</time>
      </trkpt>
      <trkpt lat="45.16133" lon="5.9439">
        <ele>2110.6000976562</ele>
        <time>2023-08-12T13:23:07.000Z</time>
      </trkpt>
      <trkpt lat="45.16134" lon="5.94397">
        <ele>2111</ele>
        <time>2023-08-12T13:23:14.000Z</time>
      </trkpt>
      <trkpt lat="45.16134" lon="5.944">
        <ele>2111.1999511719</ele>
        <time>2023-08-12T13:23:16.000Z</time>
      </trkpt>
      <trkpt lat="45.16131" lon="5.9441">
        <ele>2111.3999023438</ele>
        <time>2023-08-12T13:23:23.000Z</time>
      </trkpt>
      <trkpt lat="45.16125" lon="5.94416">
        <ele>2112.1999511719</ele>
        <time>2023-08-12T13:23:29.000Z</time>
      </trkpt>
      <trkpt lat="45.16124" lon="5.94417">
        <ele>2112.3999023438</ele>
        <time>2023-08-12T13:23:30.000Z</time>
      </trkpt>
      <trkpt lat="45.16122" lon="5.94431">
        <ele>2115</ele>
        <time>2023-08-12T13:23:46.000Z</time>
      </trkpt>
      <trkpt lat="45.16117" lon="5.94443">
        <ele>2115.1999511719</ele>
        <time>2023-08-12T13:23:53.000Z</time>
      </trkpt>
      <trkpt lat="45.16115" lon="5.94445">
        <ele>2115.3999023438</ele>
        <time>2023-08-12T13:23:55.000Z</time>
      </trkpt>
      <trkpt lat="45.16109" lon="5.94454">
        <ele>2112.6000976562</ele>
        <time>2023-08-12T13:24:15.000Z</time>
      </trkpt>
      <trkpt lat="45.16109" lon="5.94456">
        <ele>2112</ele>
        <time>2023-08-12T13:24:17.000Z</time>
      </trkpt>
      <trkpt lat="45.16109" lon="5.94458">
        <ele>2111</ele>
        <time>2023-08-12T13:24:21.000Z</time>
      </trkpt>
      <trkpt lat="45.16109" lon="5.94458">
        <ele>2111</ele>
        <time>2023-08-12T13:24:22.000Z</time>
      </trkpt>
      <trkpt lat="45.16108" lon="5.94458">
        <ele>2109.8000488281</ele>
        <time>2023-08-12T13:24:29.000Z</time>
      </trkpt>
      <trkpt lat="45.16106" lon="5.94455">
        <ele>2108.6000976562</ele>
        <time>2023-08-12T13:24:37.000Z</time>
      </trkpt>
      <trkpt lat="45.16105" lon="5.94454">
        <ele>2108.1999511719</ele>
        <time>2023-08-12T13:24:42.000Z</time>
      </trkpt>
      <trkpt lat="45.16103" lon="5.94457">
        <ele>2107.6000976562</ele>
        <time>2023-08-12T13:24:47.000Z</time>
      </trkpt>
      <trkpt lat="45.16102" lon="5.94457">
        <ele>2107.3999023438</ele>
        <time>2023-08-12T13:24:48.000Z</time>
      </trkpt>
      <trkpt lat="45.16081" lon="5.94471">
        <ele>2103.1999511719</ele>
        <time>2023-08-12T13:25:20.000Z</time>
      </trkpt>
      <trkpt lat="45.16081" lon="5.94472">
        <ele>2103.1999511719</ele>
        <time>2023-08-12T13:25:21.000Z</time>
      </trkpt>
      <trkpt lat="45.16078" lon="5.94476">
        <ele>2103.3999023438</ele>
        <time>2023-08-12T13:25:28.000Z</time>
      </trkpt>
      <trkpt lat="45.16059" lon="5.94483">
        <ele>2103</ele>
        <time>2023-08-12T13:26:05.000Z</time>
      </trkpt>
      <trkpt lat="45.16058" lon="5.94479">
        <ele>2103</ele>
        <time>2023-08-12T13:26:20.000Z</time>
      </trkpt>
      <trkpt lat="45.16054" lon="5.94476">
        <ele>2103</ele>
        <time>2023-08-12T13:26:28.000Z</time>
      </trkpt>
      <trkpt lat="45.16041" lon="5.94481">
        <ele>2100.8000488281</ele>
        <time>2023-08-12T13:26:46.000Z</time>
      </trkpt>
      <trkpt lat="45.16035" lon="5.94478">
        <ele>2100.3999023438</ele>
        <time>2023-08-12T13:26:53.000Z</time>
      </trkpt>
      <trkpt lat="45.16031" lon="5.94473">
        <ele>2100.3999023438</ele>
        <time>2023-08-12T13:26:58.000Z</time>
      </trkpt>
      <trkpt lat="45.16026" lon="5.9447">
        <ele>2100</ele>
        <time>2023-08-12T13:27:03.000Z</time>
      </trkpt>
      <trkpt lat="45.16025" lon="5.94469">
        <ele>2099.6000976562</ele>
        <time>2023-08-12T13:27:05.000Z</time>
      </trkpt>
      <trkpt lat="45.16024" lon="5.94463">
        <ele>2098.8000488281</ele>
        <time>2023-08-12T13:27:09.000Z</time>
      </trkpt>
      <trkpt lat="45.16021" lon="5.9446">
        <ele>2098.1999511719</ele>
        <time>2023-08-12T13:27:11.000Z</time>
      </trkpt>
      <trkpt lat="45.16016" lon="5.94456">
        <ele>2097.6000976562</ele>
        <time>2023-08-12T13:27:15.000Z</time>
      </trkpt>
      <trkpt lat="45.16016" lon="5.94457">
        <ele>2097.1999511719</ele>
        <time>2023-08-12T13:27:17.000Z</time>
      </trkpt>
      <trkpt lat="45.16016" lon="5.94458">
        <ele>2097</ele>
        <time>2023-08-12T13:27:18.000Z</time>
      </trkpt>
      <trkpt lat="45.16014" lon="5.94457">
        <ele>2096.8000488281</ele>
        <time>2023-08-12T13:27:21.000Z</time>
      </trkpt>
      <trkpt lat="45.16013" lon="5.94457">
        <ele>2096.8000488281</ele>
        <time>2023-08-12T13:27:22.000Z</time>
      </trkpt>
      <trkpt lat="45.16009" lon="5.94453">
        <ele>2096.6000976562</ele>
        <time>2023-08-12T13:27:25.000Z</time>
      </trkpt>
      <trkpt lat="45.16005" lon="5.9445">
        <ele>2095.8000488281</ele>
        <time>2023-08-12T13:27:28.000Z</time>
      </trkpt>
      <trkpt lat="45.16002" lon="5.94448">
        <ele>2095.6000976562</ele>
        <time>2023-08-12T13:27:30.000Z</time>
      </trkpt>
      <trkpt lat="45.16" lon="5.94445">
        <ele>2095</ele>
        <time>2023-08-12T13:27:34.000Z</time>
      </trkpt>
      <trkpt lat="45.15994" lon="5.94437">
        <ele>2094.3999023438</ele>
        <time>2023-08-12T13:27:41.000Z</time>
      </trkpt>
      <trkpt lat="45.15994" lon="5.94436">
        <ele>2094.3999023438</ele>
        <time>2023-08-12T13:27:42.000Z</time>
      </trkpt>
      <trkpt lat="45.15986" lon="5.94428">
        <ele>2093.8000488281</ele>
        <time>2023-08-12T13:27:48.000Z</time>
      </trkpt>
      <trkpt lat="45.15982" lon="5.94424">
        <ele>2093.3999023438</ele>
        <time>2023-08-12T13:27:52.000Z</time>
      </trkpt>
      <trkpt lat="45.1598" lon="5.94421">
        <ele>2093.1999511719</ele>
        <time>2023-08-12T13:27:54.000Z</time>
      </trkpt>
      <trkpt lat="45.15975" lon="5.94414">
        <ele>2092.3999023438</ele>
        <time>2023-08-12T13:27:59.000Z</time>
      </trkpt>
      <trkpt lat="45.15971" lon="5.9441">
        <ele>2092.1999511719</ele>
        <time>2023-08-12T13:28:03.000Z</time>
      </trkpt>
      <trkpt lat="45.15963" lon="5.94398">
        <ele>2092.3999023438</ele>
        <time>2023-08-12T13:28:11.000Z</time>
      </trkpt>
      <trkpt lat="45.15957" lon="5.94393">
        <ele>2092.8000488281</ele>
        <time>2023-08-12T13:28:17.000Z</time>
      </trkpt>
      <trkpt lat="45.15946" lon="5.94388">
        <ele>2091.3999023438</ele>
        <time>2023-08-12T13:28:26.000Z</time>
      </trkpt>
      <trkpt lat="45.15939" lon="5.94384">
        <ele>2090.3999023438</ele>
        <time>2023-08-12T13:28:31.000Z</time>
      </trkpt>
      <trkpt lat="45.15939" lon="5.94384">
        <ele>2090.1999511719</ele>
        <time>2023-08-12T13:28:32.000Z</time>
      </trkpt>
      <trkpt lat="45.15936" lon="5.94385">
        <ele>2090</ele>
        <time>2023-08-12T13:28:36.000Z</time>
      </trkpt>
      <trkpt lat="45.1593" lon="5.94391">
        <ele>2089.6000976562</ele>
        <time>2023-08-12T13:28:46.000Z</time>
      </trkpt>
      <trkpt lat="45.15925" lon="5.94388">
        <ele>2089.3999023438</ele>
        <time>2023-08-12T13:28:51.000Z</time>
      </trkpt>
      <trkpt lat="45.15922" lon="5.94378">
        <ele>2089.3999023438</ele>
        <time>2023-08-12T13:28:57.000Z</time>
      </trkpt>
      <trkpt lat="45.15917" lon="5.9437">
        <ele>2089</ele>
        <time>2023-08-12T13:29:02.000Z</time>
      </trkpt>
      <trkpt lat="45.15915" lon="5.94369">
        <ele>2088.8000488281</ele>
        <time>2023-08-12T13:29:04.000Z</time>
      </trkpt>
      <trkpt lat="45.1591" lon="5.94366">
        <ele>2088.6000976562</ele>
        <time>2023-08-12T13:29:10.000Z</time>
      </trkpt>
      <trkpt lat="45.15903" lon="5.9436">
        <ele>2088.6000976562</ele>
        <time>2023-08-12T13:29:16.000Z</time>
      </trkpt>
      <trkpt lat="45.15896" lon="5.94355">
        <ele>2088.3999023438</ele>
        <time>2023-08-12T13:29:23.000Z</time>
      </trkpt>
      <trkpt lat="45.15885" lon="5.9435">
        <ele>2088.3999023438</ele>
        <time>2023-08-12T13:29:31.000Z</time>
      </trkpt>
      <trkpt lat="45.15878" lon="5.94347">
        <ele>2088</ele>
        <time>2023-08-12T13:29:37.000Z</time>
      </trkpt>
      <trkpt lat="45.15878" lon="5.94347">
        <ele>2087.8000488281</ele>
        <time>2023-08-12T13:29:38.000Z</time>
      </trkpt>
      <trkpt lat="45.1587" lon="5.94339">
        <ele>2088</ele>
        <time>2023-08-12T13:29:45.000Z</time>
      </trkpt>
      <trkpt lat="45.15869" lon="5.94336">
        <ele>2087.8000488281</ele>
        <time>2023-08-12T13:29:52.000Z</time>
      </trkpt>
      <trkpt lat="45.15863" lon="5.94331">
        <ele>2088</ele>
        <time>2023-08-12T13:29:58.000Z</time>
      </trkpt>
      <trkpt lat="45.15854" lon="5.94324">
        <ele>2087.6000976562</ele>
        <time>2023-08-12T13:30:07.000Z</time>
      </trkpt>
      <trkpt lat="45.15848" lon="5.94319">
        <ele>2087.1999511719</ele>
        <time>2023-08-12T13:30:14.000Z</time>
      </trkpt>
      <trkpt lat="45.15842" lon="5.94312">
        <ele>2087.1999511719</ele>
        <time>2023-08-12T13:30:20.000Z</time>
      </trkpt>
      <trkpt lat="45.1584" lon="5.9431">
        <ele>2087</ele>
        <time>2023-08-12T13:30:23.000Z</time>
      </trkpt>
      <trkpt lat="45.15834" lon="5.94304">
        <ele>2086.6000976562</ele>
        <time>2023-08-12T13:30:29.000Z</time>
      </trkpt>
      <trkpt lat="45.15828" lon="5.943">
        <ele>2086.6000976562</ele>
        <time>2023-08-12T13:30:35.000Z</time>
      </trkpt>
      <trkpt lat="45.15819" lon="5.94294">
        <ele>2086.6000976562</ele>
        <time>2023-08-12T13:30:42.000Z</time>
      </trkpt>
      <trkpt lat="45.15813" lon="5.94291">
        <ele>2086.3999023438</ele>
        <time>2023-08-12T13:30:47.000Z</time>
      </trkpt>
      <trkpt lat="45.15805" lon="5.94287">
        <ele>2085.8000488281</ele>
        <time>2023-08-12T13:30:55.000Z</time>
      </trkpt>
      <trkpt lat="45.15794" lon="5.94288">
        <ele>2084.3999023438</ele>
        <time>2023-08-12T13:31:06.000Z</time>
      </trkpt>
      <trkpt lat="45.15789" lon="5.94285">
        <ele>2083.3999023438</ele>
        <time>2023-08-12T13:31:11.000Z</time>
      </trkpt>
      <trkpt lat="45.15788" lon="5.94284">
        <ele>2083</ele>
        <time>2023-08-12T13:31:12.000Z</time>
      </trkpt>
      <trkpt lat="45.15786" lon="5.94283">
        <ele>2082.3999023438</ele>
        <time>2023-08-12T13:31:15.000Z</time>
      </trkpt>
      <trkpt lat="45.15781" lon="5.94278">
        <ele>2082</ele>
        <time>2023-08-12T13:31:20.000Z</time>
      </trkpt>
      <trkpt lat="45.15779" lon="5.94274">
        <ele>2081.1999511719</ele>
        <time>2023-08-12T13:31:24.000Z</time>
      </trkpt>
      <trkpt lat="45.15777" lon="5.94271">
        <ele>2080.8000488281</ele>
        <time>2023-08-12T13:31:27.000Z</time>
      </trkpt>
      <trkpt lat="45.15775" lon="5.94268">
        <ele>2080</ele>
        <time>2023-08-12T13:31:31.000Z</time>
      </trkpt>
      <trkpt lat="45.15772" lon="5.94265">
        <ele>2079.1999511719</ele>
        <time>2023-08-12T13:31:35.000Z</time>
      </trkpt>
      <trkpt lat="45.15772" lon="5.94265">
        <ele>2079</ele>
        <time>2023-08-12T13:31:36.000Z</time>
      </trkpt>
      <trkpt lat="45.15769" lon="5.94261">
        <ele>2078.1999511719</ele>
        <time>2023-08-12T13:31:40.000Z</time>
      </trkpt>
      <trkpt lat="45.15769" lon="5.9426">
        <ele>2077.8000488281</ele>
        <time>2023-08-12T13:31:41.000Z</time>
      </trkpt>
      <trkpt lat="45.15767" lon="5.94256">
        <ele>2076.8000488281</ele>
        <time>2023-08-12T13:31:46.000Z</time>
      </trkpt>
      <trkpt lat="45.15766" lon="5.94254">
        <ele>2076.3999023438</ele>
        <time>2023-08-12T13:31:48.000Z</time>
      </trkpt>
      <trkpt lat="45.15764" lon="5.94253">
        <ele>2075.3999023438</ele>
        <time>2023-08-12T13:31:52.000Z</time>
      </trkpt>
      <trkpt lat="45.15763" lon="5.94253">
        <ele>2075.1999511719</ele>
        <time>2023-08-12T13:31:54.000Z</time>
      </trkpt>
      <trkpt lat="45.15767" lon="5.94249">
        <ele>2075</ele>
        <time>2023-08-12T13:32:15.000Z</time>
      </trkpt>
      <trkpt lat="45.15761" lon="5.94249">
        <ele>2074.3999023438</ele>
        <time>2023-08-12T13:32:19.000Z</time>
      </trkpt>
      <trkpt lat="45.15757" lon="5.94246">
        <ele>2073.6000976562</ele>
        <time>2023-08-12T13:32:23.000Z</time>
      </trkpt>
      <trkpt lat="45.15754" lon="5.94243">
        <ele>2073.1999511719</ele>
        <time>2023-08-12T13:32:26.000Z</time>
      </trkpt>
      <trkpt lat="45.15752" lon="5.94241">
        <ele>2072.3999023438</ele>
        <time>2023-08-12T13:32:30.000Z</time>
      </trkpt>
      <trkpt lat="45.15752" lon="5.94241">
        <ele>2072.1999511719</ele>
        <time>2023-08-12T13:32:31.000Z</time>
      </trkpt>
      <trkpt lat="45.15756" lon="5.94232">
        <ele>2071.1999511719</ele>
        <time>2023-08-12T13:32:37.000Z</time>
      </trkpt>
      <trkpt lat="45.15757" lon="5.94231">
        <ele>2071</ele>
        <time>2023-08-12T13:32:38.000Z</time>
      </trkpt>
      <trkpt lat="45.15757" lon="5.94228">
        <ele>2070.1999511719</ele>
        <time>2023-08-12T13:32:43.000Z</time>
      </trkpt>
      <trkpt lat="45.15757" lon="5.94227">
        <ele>2070</ele>
        <time>2023-08-12T13:32:44.000Z</time>
      </trkpt>
      <trkpt lat="45.15759" lon="5.94221">
        <ele>2069</ele>
        <time>2023-08-12T13:32:49.000Z</time>
      </trkpt>
      <trkpt lat="45.15758" lon="5.94216">
        <ele>2067.8000488281</ele>
        <time>2023-08-12T13:32:54.000Z</time>
      </trkpt>
      <trkpt lat="45.15758" lon="5.94215">
        <ele>2067.6000976562</ele>
        <time>2023-08-12T13:32:56.000Z</time>
      </trkpt>
      <trkpt lat="45.15756" lon="5.94215">
        <ele>2066.8000488281</ele>
        <time>2023-08-12T13:33:01.000Z</time>
      </trkpt>
      <trkpt lat="45.15753" lon="5.94217">
        <ele>2066.1999511719</ele>
        <time>2023-08-12T13:33:05.000Z</time>
      </trkpt>
      <trkpt lat="45.15753" lon="5.94217">
        <ele>2066</ele>
        <time>2023-08-12T13:33:06.000Z</time>
      </trkpt>
      <trkpt lat="45.15752" lon="5.94217">
        <ele>2065.6000976562</ele>
        <time>2023-08-12T13:33:07.000Z</time>
      </trkpt>
      <trkpt lat="45.1575" lon="5.94217">
        <ele>2065.1999511719</ele>
        <time>2023-08-12T13:33:08.000Z</time>
      </trkpt>
      <trkpt lat="45.15747" lon="5.94216">
        <ele>2064.6000976562</ele>
        <time>2023-08-12T13:33:11.000Z</time>
      </trkpt>
      <trkpt lat="45.15731" lon="5.94219">
        <ele>2062.3999023438</ele>
        <time>2023-08-12T13:33:23.000Z</time>
      </trkpt>
      <trkpt lat="45.15728" lon="5.94218">
        <ele>2061.6000976562</ele>
        <time>2023-08-12T13:33:30.000Z</time>
      </trkpt>
      <trkpt lat="45.15724" lon="5.94214">
        <ele>2061.3999023438</ele>
        <time>2023-08-12T13:33:36.000Z</time>
      </trkpt>
      <trkpt lat="45.15723" lon="5.94214">
        <ele>2060.8000488281</ele>
        <time>2023-08-12T13:33:37.000Z</time>
      </trkpt>
      <trkpt lat="45.15721" lon="5.94211">
        <ele>2059.8000488281</ele>
        <time>2023-08-12T13:33:44.000Z</time>
      </trkpt>
      <trkpt lat="45.15722" lon="5.9421">
        <ele>2059.6000976562</ele>
        <time>2023-08-12T13:33:45.000Z</time>
      </trkpt>
      <trkpt lat="45.15724" lon="5.94205">
        <ele>2058.8000488281</ele>
        <time>2023-08-12T13:33:50.000Z</time>
      </trkpt>
      <trkpt lat="45.15726" lon="5.94204">
        <ele>2058.6000976562</ele>
        <time>2023-08-12T13:33:52.000Z</time>
      </trkpt>
      <trkpt lat="45.15725" lon="5.942">
        <ele>2058.3999023438</ele>
        <time>2023-08-12T13:33:59.000Z</time>
      </trkpt>
      <trkpt lat="45.15721" lon="5.94203">
        <ele>2058.3999023438</ele>
        <time>2023-08-12T13:34:06.000Z</time>
      </trkpt>
      <trkpt lat="45.15713" lon="5.94203">
        <ele>2057.8000488281</ele>
        <time>2023-08-12T13:34:14.000Z</time>
      </trkpt>
      <trkpt lat="45.15711" lon="5.94202">
        <ele>2057.8000488281</ele>
        <time>2023-08-12T13:34:16.000Z</time>
      </trkpt>
      <trkpt lat="45.15665" lon="5.94201">
        <ele>2056.6000976562</ele>
        <time>2023-08-12T13:34:54.000Z</time>
      </trkpt>
      <trkpt lat="45.15662" lon="5.94201">
        <ele>2057</ele>
        <time>2023-08-12T13:35:00.000Z</time>
      </trkpt>
      <trkpt lat="45.15661" lon="5.94199">
        <ele>2057</ele>
        <time>2023-08-12T13:35:10.000Z</time>
      </trkpt>
      <trkpt lat="45.15661" lon="5.942">
        <ele>2057</ele>
        <time>2023-08-12T13:35:17.000Z</time>
      </trkpt>
      <trkpt lat="45.15654" lon="5.94196">
        <ele>2057.1999511719</ele>
        <time>2023-08-12T13:35:25.000Z</time>
      </trkpt>
      <trkpt lat="45.1565" lon="5.94195">
        <ele>2057.6000976562</ele>
        <time>2023-08-12T13:35:29.000Z</time>
      </trkpt>
      <trkpt lat="45.15636" lon="5.94187">
        <ele>2058.8000488281</ele>
        <time>2023-08-12T13:35:41.000Z</time>
      </trkpt>
      <trkpt lat="45.15632" lon="5.94186">
        <ele>2057.8000488281</ele>
        <time>2023-08-12T13:35:48.000Z</time>
      </trkpt>
      <trkpt lat="45.15632" lon="5.94187">
        <ele>2057.8000488281</ele>
        <time>2023-08-12T13:35:49.000Z</time>
      </trkpt>
      <trkpt lat="45.1563" lon="5.94187">
        <ele>2057.8000488281</ele>
        <time>2023-08-12T13:35:52.000Z</time>
      </trkpt>
      <trkpt lat="45.15617" lon="5.94187">
        <ele>2058.1999511719</ele>
        <time>2023-08-12T13:36:09.000Z</time>
      </trkpt>
      <trkpt lat="45.15612" lon="5.94184">
        <ele>2057.8000488281</ele>
        <time>2023-08-12T13:36:15.000Z</time>
      </trkpt>
      <trkpt lat="45.15608" lon="5.94178">
        <ele>2058</ele>
        <time>2023-08-12T13:36:21.000Z</time>
      </trkpt>
      <trkpt lat="45.15607" lon="5.94168">
        <ele>2057.6000976562</ele>
        <time>2023-08-12T13:36:28.000Z</time>
      </trkpt>
      <trkpt lat="45.15605" lon="5.94157">
        <ele>2057.3999023438</ele>
        <time>2023-08-12T13:36:34.000Z</time>
      </trkpt>
      <trkpt lat="45.15603" lon="5.94151">
        <ele>2057.6000976562</ele>
        <time>2023-08-12T13:36:39.000Z</time>
      </trkpt>
      <trkpt lat="45.15597" lon="5.94141">
        <ele>2058.3999023438</ele>
        <time>2023-08-12T13:36:47.000Z</time>
      </trkpt>
      <trkpt lat="45.15595" lon="5.94136">
        <ele>2058.8000488281</ele>
        <time>2023-08-12T13:36:50.000Z</time>
      </trkpt>
      <trkpt lat="45.15594" lon="5.94134">
        <ele>2059</ele>
        <time>2023-08-12T13:36:52.000Z</time>
      </trkpt>
      <trkpt lat="45.15593" lon="5.94127">
        <ele>2059.6000976562</ele>
        <time>2023-08-12T13:36:57.000Z</time>
      </trkpt>
      <trkpt lat="45.15593" lon="5.94123">
        <ele>2059.8000488281</ele>
        <time>2023-08-12T13:36:59.000Z</time>
      </trkpt>
      <trkpt lat="45.1559" lon="5.94115">
        <ele>2060.6000976562</ele>
        <time>2023-08-12T13:37:05.000Z</time>
      </trkpt>
      <trkpt lat="45.1559" lon="5.94115">
        <ele>2061</ele>
        <time>2023-08-12T13:37:07.000Z</time>
      </trkpt>
      <trkpt lat="45.15586" lon="5.94112">
        <ele>2061.3999023438</ele>
        <time>2023-08-12T13:37:11.000Z</time>
      </trkpt>
      <trkpt lat="45.15568" lon="5.94107">
        <ele>2059.1999511719</ele>
        <time>2023-08-12T13:37:28.000Z</time>
      </trkpt>
      <trkpt lat="45.15564" lon="5.94101">
        <ele>2058.8000488281</ele>
        <time>2023-08-12T13:37:32.000Z</time>
      </trkpt>
      <trkpt lat="45.15563" lon="5.94099">
        <ele>2058.6000976562</ele>
        <time>2023-08-12T13:37:34.000Z</time>
      </trkpt>
      <trkpt lat="45.15554" lon="5.94091">
        <ele>2058.1999511719</ele>
        <time>2023-08-12T13:37:42.000Z</time>
      </trkpt>
      <trkpt lat="45.15552" lon="5.94091">
        <ele>2057.8000488281</ele>
        <time>2023-08-12T13:37:46.000Z</time>
      </trkpt>
      <trkpt lat="45.15548" lon="5.94087">
        <ele>2057.3999023438</ele>
        <time>2023-08-12T13:37:50.000Z</time>
      </trkpt>
      <trkpt lat="45.15543" lon="5.94084">
        <ele>2056.8000488281</ele>
        <time>2023-08-12T13:37:56.000Z</time>
      </trkpt>
      <trkpt lat="45.15542" lon="5.94085">
        <ele>2056.8000488281</ele>
        <time>2023-08-12T13:37:58.000Z</time>
      </trkpt>
      <trkpt lat="45.1554" lon="5.94087">
        <ele>2056.8000488281</ele>
        <time>2023-08-12T13:38:01.000Z</time>
      </trkpt>
      <trkpt lat="45.15539" lon="5.94087">
        <ele>2056.8000488281</ele>
        <time>2023-08-12T13:38:05.000Z</time>
      </trkpt>
      <trkpt lat="45.1554" lon="5.94081">
        <ele>2056.8000488281</ele>
        <time>2023-08-12T13:38:14.000Z</time>
      </trkpt>
      <trkpt lat="45.15539" lon="5.94083">
        <ele>2056.8000488281</ele>
        <time>2023-08-12T13:38:20.000Z</time>
      </trkpt>
      <trkpt lat="45.15539" lon="5.94083">
        <ele>2056.6000976562</ele>
        <time>2023-08-12T13:38:22.000Z</time>
      </trkpt>
      <trkpt lat="45.15539" lon="5.94075">
        <ele>2056.6000976562</ele>
        <time>2023-08-12T13:38:32.000Z</time>
      </trkpt>
      <trkpt lat="45.15535" lon="5.94065">
        <ele>2056.1999511719</ele>
        <time>2023-08-12T13:38:39.000Z</time>
      </trkpt>
      <trkpt lat="45.1553" lon="5.94054">
        <ele>2056</ele>
        <time>2023-08-12T13:38:46.000Z</time>
      </trkpt>
      <trkpt lat="45.15528" lon="5.94042">
        <ele>2056.1999511719</ele>
        <time>2023-08-12T13:38:54.000Z</time>
      </trkpt>
      <trkpt lat="45.15525" lon="5.94041">
        <ele>2056.6000976562</ele>
        <time>2023-08-12T13:39:00.000Z</time>
      </trkpt>
      <trkpt lat="45.15525" lon="5.94041">
        <ele>2056.6000976562</ele>
        <time>2023-08-12T13:39:01.000Z</time>
      </trkpt>
      <trkpt lat="45.15522" lon="5.94037">
        <ele>2056.3999023438</ele>
        <time>2023-08-12T13:39:08.000Z</time>
      </trkpt>
      <trkpt lat="45.15519" lon="5.9403">
        <ele>2057</ele>
        <time>2023-08-12T13:39:15.000Z</time>
      </trkpt>
      <trkpt lat="45.15516" lon="5.94018">
        <ele>2057.6000976562</ele>
        <time>2023-08-12T13:39:22.000Z</time>
      </trkpt>
      <trkpt lat="45.15514" lon="5.94001">
        <ele>2057.3999023438</ele>
        <time>2023-08-12T13:39:29.000Z</time>
      </trkpt>
      <trkpt lat="45.15516" lon="5.93992">
        <ele>2057.8000488281</ele>
        <time>2023-08-12T13:39:36.000Z</time>
      </trkpt>
      <trkpt lat="45.15516" lon="5.93991">
        <ele>2057.8000488281</ele>
        <time>2023-08-12T13:39:37.000Z</time>
      </trkpt>
      <trkpt lat="45.15516" lon="5.93986">
        <ele>2058.1999511719</ele>
        <time>2023-08-12T13:39:43.000Z</time>
      </trkpt>
      <trkpt lat="45.15512" lon="5.93979">
        <ele>2058.6000976562</ele>
        <time>2023-08-12T13:39:50.000Z</time>
      </trkpt>
      <trkpt lat="45.15511" lon="5.93977">
        <ele>2059</ele>
        <time>2023-08-12T13:39:53.000Z</time>
      </trkpt>
      <trkpt lat="45.1551" lon="5.93974">
        <ele>2059.3999023438</ele>
        <time>2023-08-12T13:39:56.000Z</time>
      </trkpt>
      <trkpt lat="45.15506" lon="5.93966">
        <ele>2059.3999023438</ele>
        <time>2023-08-12T13:40:02.000Z</time>
      </trkpt>
      <trkpt lat="45.15505" lon="5.93953">
        <ele>2058.8000488281</ele>
        <time>2023-08-12T13:40:09.000Z</time>
      </trkpt>
      <trkpt lat="45.15502" lon="5.93944">
        <ele>2058.3999023438</ele>
        <time>2023-08-12T13:40:17.000Z</time>
      </trkpt>
      <trkpt lat="45.15501" lon="5.93942">
        <ele>2057.8000488281</ele>
        <time>2023-08-12T13:40:20.000Z</time>
      </trkpt>
      <trkpt lat="45.15497" lon="5.93939">
        <ele>2057.1999511719</ele>
        <time>2023-08-12T13:40:24.000Z</time>
      </trkpt>
      <trkpt lat="45.15495" lon="5.93935">
        <ele>2056.6000976562</ele>
        <time>2023-08-12T13:40:27.000Z</time>
      </trkpt>
      <trkpt lat="45.15493" lon="5.93931">
        <ele>2055.6000976562</ele>
        <time>2023-08-12T13:40:30.000Z</time>
      </trkpt>
      <trkpt lat="45.15493" lon="5.93929">
        <ele>2055.1999511719</ele>
        <time>2023-08-12T13:40:31.000Z</time>
      </trkpt>
      <trkpt lat="45.1549" lon="5.93921">
        <ele>2054.3999023438</ele>
        <time>2023-08-12T13:40:37.000Z</time>
      </trkpt>
      <trkpt lat="45.15487" lon="5.93917">
        <ele>2054</ele>
        <time>2023-08-12T13:40:41.000Z</time>
      </trkpt>
      <trkpt lat="45.15483" lon="5.9391">
        <ele>2053.3999023438</ele>
        <time>2023-08-12T13:40:45.000Z</time>
      </trkpt>
      <trkpt lat="45.15482" lon="5.93909">
        <ele>2053.1999511719</ele>
        <time>2023-08-12T13:40:46.000Z</time>
      </trkpt>
      <trkpt lat="45.15477" lon="5.93905">
        <ele>2052.8000488281</ele>
        <time>2023-08-12T13:40:53.000Z</time>
      </trkpt>
      <trkpt lat="45.15473" lon="5.93904">
        <ele>2053</ele>
        <time>2023-08-12T13:40:59.000Z</time>
      </trkpt>
      <trkpt lat="45.15469" lon="5.93898">
        <ele>2053.1999511719</ele>
        <time>2023-08-12T13:41:05.000Z</time>
      </trkpt>
      <trkpt lat="45.15462" lon="5.93888">
        <ele>2053</ele>
        <time>2023-08-12T13:41:13.000Z</time>
      </trkpt>
      <trkpt lat="45.1546" lon="5.93881">
        <ele>2053.6000976562</ele>
        <time>2023-08-12T13:41:19.000Z</time>
      </trkpt>
      <trkpt lat="45.15457" lon="5.93873">
        <ele>2054</ele>
        <time>2023-08-12T13:41:25.000Z</time>
      </trkpt>
      <trkpt lat="45.15449" lon="5.93865">
        <ele>2054.3999023438</ele>
        <time>2023-08-12T13:41:32.000Z</time>
      </trkpt>
      <trkpt lat="45.15447" lon="5.93864">
        <ele>2054.6000976562</ele>
        <time>2023-08-12T13:41:33.000Z</time>
      </trkpt>
      <trkpt lat="45.1544" lon="5.93861">
        <ele>2054.6000976562</ele>
        <time>2023-08-12T13:41:39.000Z</time>
      </trkpt>
      <trkpt lat="45.15437" lon="5.93859">
        <ele>2054.8000488281</ele>
        <time>2023-08-12T13:41:43.000Z</time>
      </trkpt>
      <trkpt lat="45.15436" lon="5.93855">
        <ele>2054</ele>
        <time>2023-08-12T13:41:51.000Z</time>
      </trkpt>
      <trkpt lat="45.15436" lon="5.93852">
        <ele>2053.6000976562</ele>
        <time>2023-08-12T13:41:53.000Z</time>
      </trkpt>
      <trkpt lat="45.15434" lon="5.93848">
        <ele>2053</ele>
        <time>2023-08-12T13:41:57.000Z</time>
      </trkpt>
      <trkpt lat="45.15427" lon="5.93836">
        <ele>2052.3999023438</ele>
        <time>2023-08-12T13:42:05.000Z</time>
      </trkpt>
      <trkpt lat="45.15421" lon="5.93827">
        <ele>2051.3999023438</ele>
        <time>2023-08-12T13:42:13.000Z</time>
      </trkpt>
      <trkpt lat="45.1542" lon="5.93827">
        <ele>2051.3999023438</ele>
        <time>2023-08-12T13:42:14.000Z</time>
      </trkpt>
      <trkpt lat="45.15413" lon="5.93818">
        <ele>2050.6000976562</ele>
        <time>2023-08-12T13:42:21.000Z</time>
      </trkpt>
      <trkpt lat="45.15412" lon="5.93816">
        <ele>2050.1999511719</ele>
        <time>2023-08-12T13:42:22.000Z</time>
      </trkpt>
      <trkpt lat="45.15408" lon="5.93809">
        <ele>2049.8000488281</ele>
        <time>2023-08-12T13:42:27.000Z</time>
      </trkpt>
      <trkpt lat="45.15407" lon="5.93797">
        <ele>2049.1999511719</ele>
        <time>2023-08-12T13:42:34.000Z</time>
      </trkpt>
      <trkpt lat="45.15403" lon="5.93781">
        <ele>2049.3999023438</ele>
        <time>2023-08-12T13:42:43.000Z</time>
      </trkpt>
      <trkpt lat="45.15399" lon="5.93774">
        <ele>2050.3999023438</ele>
        <time>2023-08-12T13:42:50.000Z</time>
      </trkpt>
      <trkpt lat="45.15398" lon="5.93768">
        <ele>2051</ele>
        <time>2023-08-12T13:42:56.000Z</time>
      </trkpt>
      <trkpt lat="45.15398" lon="5.93765">
        <ele>2051.1999511719</ele>
        <time>2023-08-12T13:42:58.000Z</time>
      </trkpt>
      <trkpt lat="45.15399" lon="5.93759">
        <ele>2052.1999511719</ele>
        <time>2023-08-12T13:43:03.000Z</time>
      </trkpt>
      <trkpt lat="45.15398" lon="5.93758">
        <ele>2052.3999023438</ele>
        <time>2023-08-12T13:43:04.000Z</time>
      </trkpt>
      <trkpt lat="45.15395" lon="5.93752">
        <ele>2051.1999511719</ele>
        <time>2023-08-12T13:43:14.000Z</time>
      </trkpt>
      <trkpt lat="45.1539" lon="5.93747">
        <ele>2050.1999511719</ele>
        <time>2023-08-12T13:43:22.000Z</time>
      </trkpt>
      <trkpt lat="45.15386" lon="5.93744">
        <ele>2048.8000488281</ele>
        <time>2023-08-12T13:43:27.000Z</time>
      </trkpt>
      <trkpt lat="45.15384" lon="5.93742">
        <ele>2048.3999023438</ele>
        <time>2023-08-12T13:43:31.000Z</time>
      </trkpt>
      <trkpt lat="45.15383" lon="5.9374">
        <ele>2047.8000488281</ele>
        <time>2023-08-12T13:43:33.000Z</time>
      </trkpt>
      <trkpt lat="45.15381" lon="5.93737">
        <ele>2046.8000488281</ele>
        <time>2023-08-12T13:43:37.000Z</time>
      </trkpt>
      <trkpt lat="45.15381" lon="5.93737">
        <ele>2046.4000244141</ele>
        <time>2023-08-12T13:43:38.000Z</time>
      </trkpt>
      <trkpt lat="45.15379" lon="5.93733">
        <ele>2045.8000488281</ele>
        <time>2023-08-12T13:43:42.000Z</time>
      </trkpt>
      <trkpt lat="45.15377" lon="5.93731">
        <ele>2045</ele>
        <time>2023-08-12T13:43:46.000Z</time>
      </trkpt>
      <trkpt lat="45.15377" lon="5.9373">
        <ele>2044.8000488281</ele>
        <time>2023-08-12T13:43:47.000Z</time>
      </trkpt>
      <trkpt lat="45.15375" lon="5.93726">
        <ele>2044</ele>
        <time>2023-08-12T13:43:52.000Z</time>
      </trkpt>
      <trkpt lat="45.15374" lon="5.93725">
        <ele>2043.8000488281</ele>
        <time>2023-08-12T13:43:54.000Z</time>
      </trkpt>
      <trkpt lat="45.15372" lon="5.93724">
        <ele>2042.8000488281</ele>
        <time>2023-08-12T13:43:59.000Z</time>
      </trkpt>
      <trkpt lat="45.15369" lon="5.93719">
        <ele>2041.4000244141</ele>
        <time>2023-08-12T13:44:03.000Z</time>
      </trkpt>
      <trkpt lat="45.15364" lon="5.93713">
        <ele>2040.8000488281</ele>
        <time>2023-08-12T13:44:07.000Z</time>
      </trkpt>
      <trkpt lat="45.15359" lon="5.93703">
        <ele>2040.5999755859</ele>
        <time>2023-08-12T13:44:13.000Z</time>
      </trkpt>
      <trkpt lat="45.15354" lon="5.93699">
        <ele>2041.1999511719</ele>
        <time>2023-08-12T13:44:19.000Z</time>
      </trkpt>
      <trkpt lat="45.1535" lon="5.93692">
        <ele>2041.1999511719</ele>
        <time>2023-08-12T13:44:25.000Z</time>
      </trkpt>
      <trkpt lat="45.15348" lon="5.93684">
        <ele>2042</ele>
        <time>2023-08-12T13:44:30.000Z</time>
      </trkpt>
      <trkpt lat="45.15343" lon="5.93679">
        <ele>2042.1999511719</ele>
        <time>2023-08-12T13:44:36.000Z</time>
      </trkpt>
      <trkpt lat="45.15341" lon="5.93675">
        <ele>2042.5999755859</ele>
        <time>2023-08-12T13:44:40.000Z</time>
      </trkpt>
      <trkpt lat="45.1534" lon="5.93671">
        <ele>2043.1999511719</ele>
        <time>2023-08-12T13:44:43.000Z</time>
      </trkpt>
      <trkpt lat="45.1534" lon="5.93669">
        <ele>2043.5999755859</ele>
        <time>2023-08-12T13:44:45.000Z</time>
      </trkpt>
      <trkpt lat="45.15338" lon="5.93663">
        <ele>2044.5999755859</ele>
        <time>2023-08-12T13:44:51.000Z</time>
      </trkpt>
      <trkpt lat="45.15337" lon="5.93661">
        <ele>2044.5999755859</ele>
        <time>2023-08-12T13:44:53.000Z</time>
      </trkpt>
      <trkpt lat="45.15332" lon="5.93653">
        <ele>2045.1999511719</ele>
        <time>2023-08-12T13:45:00.000Z</time>
      </trkpt>
      <trkpt lat="45.15325" lon="5.93648">
        <ele>2045</ele>
        <time>2023-08-12T13:45:06.000Z</time>
      </trkpt>
      <trkpt lat="45.1532" lon="5.93643">
        <ele>2044.8000488281</ele>
        <time>2023-08-12T13:45:12.000Z</time>
      </trkpt>
      <trkpt lat="45.15314" lon="5.93635">
        <ele>2044.4000244141</ele>
        <time>2023-08-12T13:45:20.000Z</time>
      </trkpt>
      <trkpt lat="45.15309" lon="5.93631">
        <ele>2044.1999511719</ele>
        <time>2023-08-12T13:45:27.000Z</time>
      </trkpt>
      <trkpt lat="45.15304" lon="5.93625">
        <ele>2043.4000244141</ele>
        <time>2023-08-12T13:45:35.000Z</time>
      </trkpt>
      <trkpt lat="45.15299" lon="5.93622">
        <ele>2042.4000244141</ele>
        <time>2023-08-12T13:45:42.000Z</time>
      </trkpt>
      <trkpt lat="45.15299" lon="5.93621">
        <ele>2042.1999511719</ele>
        <time>2023-08-12T13:45:43.000Z</time>
      </trkpt>
      <trkpt lat="45.15295" lon="5.93619">
        <ele>2041.1999511719</ele>
        <time>2023-08-12T13:45:48.000Z</time>
      </trkpt>
      <trkpt lat="45.15294" lon="5.93618">
        <ele>2040.8000488281</ele>
        <time>2023-08-12T13:45:51.000Z</time>
      </trkpt>
      <trkpt lat="45.15294" lon="5.93617">
        <ele>2040.1999511719</ele>
        <time>2023-08-12T13:45:55.000Z</time>
      </trkpt>
      <trkpt lat="45.15294" lon="5.93616">
        <ele>2039.8000488281</ele>
        <time>2023-08-12T13:45:58.000Z</time>
      </trkpt>
      <trkpt lat="45.15292" lon="5.93613">
        <ele>2039</ele>
        <time>2023-08-12T13:46:01.000Z</time>
      </trkpt>
      <trkpt lat="45.15287" lon="5.93606">
        <ele>2037.5999755859</ele>
        <time>2023-08-12T13:46:06.000Z</time>
      </trkpt>
      <trkpt lat="45.15287" lon="5.93605">
        <ele>2037.4000244141</ele>
        <time>2023-08-12T13:46:07.000Z</time>
      </trkpt>
      <trkpt lat="45.1528" lon="5.93596">
        <ele>2037.1999511719</ele>
        <time>2023-08-12T13:46:18.000Z</time>
      </trkpt>
      <trkpt lat="45.15276" lon="5.93588">
        <ele>2037.4000244141</ele>
        <time>2023-08-12T13:46:26.000Z</time>
      </trkpt>
      <trkpt lat="45.15274" lon="5.93586">
        <ele>2036.5999755859</ele>
        <time>2023-08-12T13:46:30.000Z</time>
      </trkpt>
      <trkpt lat="45.15271" lon="5.93583">
        <ele>2035.8000488281</ele>
        <time>2023-08-12T13:46:36.000Z</time>
      </trkpt>
      <trkpt lat="45.1527" lon="5.93581">
        <ele>2035.4000244141</ele>
        <time>2023-08-12T13:46:39.000Z</time>
      </trkpt>
      <trkpt lat="45.15267" lon="5.93578">
        <ele>2035</ele>
        <time>2023-08-12T13:46:43.000Z</time>
      </trkpt>
      <trkpt lat="45.15266" lon="5.93577">
        <ele>2034.4000244141</ele>
        <time>2023-08-12T13:46:46.000Z</time>
      </trkpt>
      <trkpt lat="45.15265" lon="5.93574">
        <ele>2034</ele>
        <time>2023-08-12T13:46:50.000Z</time>
      </trkpt>
      <trkpt lat="45.15265" lon="5.93569">
        <ele>2032.8000488281</ele>
        <time>2023-08-12T13:46:54.000Z</time>
      </trkpt>
      <trkpt lat="45.15265" lon="5.93562">
        <ele>2032.5999755859</ele>
        <time>2023-08-12T13:46:58.000Z</time>
      </trkpt>
      <trkpt lat="45.15264" lon="5.93557">
        <ele>2031.8000488281</ele>
        <time>2023-08-12T13:47:04.000Z</time>
      </trkpt>
      <trkpt lat="45.15263" lon="5.93555">
        <ele>2031.5999755859</ele>
        <time>2023-08-12T13:47:06.000Z</time>
      </trkpt>
      <trkpt lat="45.15262" lon="5.93549">
        <ele>2030.8000488281</ele>
        <time>2023-08-12T13:47:11.000Z</time>
      </trkpt>
      <trkpt lat="45.15257" lon="5.93541">
        <ele>2030</ele>
        <time>2023-08-12T13:47:19.000Z</time>
      </trkpt>
      <trkpt lat="45.15251" lon="5.93532">
        <ele>2029.8000488281</ele>
        <time>2023-08-12T13:47:26.000Z</time>
      </trkpt>
      <trkpt lat="45.1525" lon="5.93525">
        <ele>2030.8000488281</ele>
        <time>2023-08-12T13:47:34.000Z</time>
      </trkpt>
      <trkpt lat="45.15249" lon="5.93524">
        <ele>2031</ele>
        <time>2023-08-12T13:47:41.000Z</time>
      </trkpt>
      <trkpt lat="45.15247" lon="5.93519">
        <ele>2031.8000488281</ele>
        <time>2023-08-12T13:47:48.000Z</time>
      </trkpt>
      <trkpt lat="45.15247" lon="5.93519">
        <ele>2032</ele>
        <time>2023-08-12T13:47:49.000Z</time>
      </trkpt>
      <trkpt lat="45.15247" lon="5.93514">
        <ele>2033</ele>
        <time>2023-08-12T13:47:55.000Z</time>
      </trkpt>
      <trkpt lat="45.15245" lon="5.93505">
        <ele>2033.5999755859</ele>
        <time>2023-08-12T13:48:04.000Z</time>
      </trkpt>
      <trkpt lat="45.15245" lon="5.935">
        <ele>2034.1999511719</ele>
        <time>2023-08-12T13:48:10.000Z</time>
      </trkpt>
      <trkpt lat="45.15245" lon="5.93499">
        <ele>2034.4000244141</ele>
        <time>2023-08-12T13:48:13.000Z</time>
      </trkpt>
      <trkpt lat="45.15242" lon="5.93489">
        <ele>2033.4000244141</ele>
        <time>2023-08-12T13:48:21.000Z</time>
      </trkpt>
      <trkpt lat="45.15237" lon="5.93482">
        <ele>2033.1999511719</ele>
        <time>2023-08-12T13:48:28.000Z</time>
      </trkpt>
      <trkpt lat="45.15237" lon="5.93481">
        <ele>2033.1999511719</ele>
        <time>2023-08-12T13:48:29.000Z</time>
      </trkpt>
      <trkpt lat="45.15234" lon="5.93476">
        <ele>2032.1999511719</ele>
        <time>2023-08-12T13:48:36.000Z</time>
      </trkpt>
      <trkpt lat="45.15233" lon="5.93471">
        <ele>2032.1999511719</ele>
        <time>2023-08-12T13:48:43.000Z</time>
      </trkpt>
      <trkpt lat="45.15232" lon="5.93471">
        <ele>2032</ele>
        <time>2023-08-12T13:48:45.000Z</time>
      </trkpt>
      <trkpt lat="45.15233" lon="5.93468">
        <ele>2031.5999755859</ele>
        <time>2023-08-12T13:48:54.000Z</time>
      </trkpt>
      <trkpt lat="45.15235" lon="5.9347">
        <ele>2031.4000244141</ele>
        <time>2023-08-12T13:49:05.000Z</time>
      </trkpt>
      <trkpt lat="45.15232" lon="5.93467">
        <ele>2031</ele>
        <time>2023-08-12T13:49:13.000Z</time>
      </trkpt>
      <trkpt lat="45.15231" lon="5.93466">
        <ele>2031</ele>
        <time>2023-08-12T13:49:15.000Z</time>
      </trkpt>
      <trkpt lat="45.15232" lon="5.93466">
        <ele>2030.4000244141</ele>
        <time>2023-08-12T13:49:19.000Z</time>
      </trkpt>
      <trkpt lat="45.15231" lon="5.93468">
        <ele>2030</ele>
        <time>2023-08-12T13:49:23.000Z</time>
      </trkpt>
      <trkpt lat="45.15229" lon="5.93471">
        <ele>2029.1999511719</ele>
        <time>2023-08-12T13:49:29.000Z</time>
      </trkpt>
      <trkpt lat="45.15229" lon="5.93472">
        <ele>2029</ele>
        <time>2023-08-12T13:49:30.000Z</time>
      </trkpt>
      <trkpt lat="45.15229" lon="5.93471">
        <ele>2028.1999511719</ele>
        <time>2023-08-12T13:49:36.000Z</time>
      </trkpt>
      <trkpt lat="45.15226" lon="5.93467">
        <ele>2028.4000244141</ele>
        <time>2023-08-12T13:49:43.000Z</time>
      </trkpt>
      <trkpt lat="45.15221" lon="5.93465">
        <ele>2029.1999511719</ele>
        <time>2023-08-12T13:49:49.000Z</time>
      </trkpt>
      <trkpt lat="45.15212" lon="5.93461">
        <ele>2030</ele>
        <time>2023-08-12T13:49:56.000Z</time>
      </trkpt>
      <trkpt lat="45.15208" lon="5.93463">
        <ele>2029.8000488281</ele>
        <time>2023-08-12T13:50:03.000Z</time>
      </trkpt>
      <trkpt lat="45.15204" lon="5.93459">
        <ele>2029.1999511719</ele>
        <time>2023-08-12T13:50:10.000Z</time>
      </trkpt>
      <trkpt lat="45.152" lon="5.93452">
        <ele>2029.8000488281</ele>
        <time>2023-08-12T13:50:17.000Z</time>
      </trkpt>
      <trkpt lat="45.15198" lon="5.93451">
        <ele>2030</ele>
        <time>2023-08-12T13:50:20.000Z</time>
      </trkpt>
      <trkpt lat="45.15196" lon="5.93449">
        <ele>2030.5999755859</ele>
        <time>2023-08-12T13:50:24.000Z</time>
      </trkpt>
      <trkpt lat="45.15193" lon="5.93447">
        <ele>2031</ele>
        <time>2023-08-12T13:50:28.000Z</time>
      </trkpt>
      <trkpt lat="45.1519" lon="5.93445">
        <ele>2031</ele>
        <time>2023-08-12T13:50:31.000Z</time>
      </trkpt>
      <trkpt lat="45.15181" lon="5.93443">
        <ele>2031.1999511719</ele>
        <time>2023-08-12T13:50:38.000Z</time>
      </trkpt>
      <trkpt lat="45.15173" lon="5.93443">
        <ele>2032.1999511719</ele>
        <time>2023-08-12T13:50:45.000Z</time>
      </trkpt>
      <trkpt lat="45.15164" lon="5.9344">
        <ele>2032.5999755859</ele>
        <time>2023-08-12T13:50:54.000Z</time>
      </trkpt>
      <trkpt lat="45.15161" lon="5.9344">
        <ele>2033.1999511719</ele>
        <time>2023-08-12T13:50:58.000Z</time>
      </trkpt>
      <trkpt lat="45.15159" lon="5.9344">
        <ele>2033.8000488281</ele>
        <time>2023-08-12T13:51:02.000Z</time>
      </trkpt>
      <trkpt lat="45.15157" lon="5.93438">
        <ele>2034.5999755859</ele>
        <time>2023-08-12T13:51:05.000Z</time>
      </trkpt>
      <trkpt lat="45.15158" lon="5.93437">
        <ele>2034.8000488281</ele>
        <time>2023-08-12T13:51:06.000Z</time>
      </trkpt>
      <trkpt lat="45.15157" lon="5.93436">
        <ele>2035</ele>
        <time>2023-08-12T13:51:08.000Z</time>
      </trkpt>
      <trkpt lat="45.15156" lon="5.93434">
        <ele>2036</ele>
        <time>2023-08-12T13:51:11.000Z</time>
      </trkpt>
      <trkpt lat="45.15153" lon="5.93433">
        <ele>2036.8000488281</ele>
        <time>2023-08-12T13:51:15.000Z</time>
      </trkpt>
      <trkpt lat="45.15151" lon="5.93431">
        <ele>2037</ele>
        <time>2023-08-12T13:51:17.000Z</time>
      </trkpt>
      <trkpt lat="45.15148" lon="5.9343">
        <ele>2037</ele>
        <time>2023-08-12T13:51:21.000Z</time>
      </trkpt>
      <trkpt lat="45.15146" lon="5.93428">
        <ele>2038.4000244141</ele>
        <time>2023-08-12T13:51:27.000Z</time>
      </trkpt>
      <trkpt lat="45.15143" lon="5.93423">
        <ele>2038.8000488281</ele>
        <time>2023-08-12T13:51:35.000Z</time>
      </trkpt>
      <trkpt lat="45.15145" lon="5.93423">
        <ele>2039.4000244141</ele>
        <time>2023-08-12T13:51:41.000Z</time>
      </trkpt>
      <trkpt lat="45.15143" lon="5.9342">
        <ele>2039.4000244141</ele>
        <time>2023-08-12T13:51:44.000Z</time>
      </trkpt>
      <trkpt lat="45.15142" lon="5.93416">
        <ele>2039.4000244141</ele>
        <time>2023-08-12T13:51:47.000Z</time>
      </trkpt>
      <trkpt lat="45.1514" lon="5.93413">
        <ele>2040.5999755859</ele>
        <time>2023-08-12T13:51:52.000Z</time>
      </trkpt>
      <trkpt lat="45.15137" lon="5.93411">
        <ele>2041.4000244141</ele>
        <time>2023-08-12T13:51:57.000Z</time>
      </trkpt>
      <trkpt lat="45.15136" lon="5.9341">
        <ele>2041.5999755859</ele>
        <time>2023-08-12T13:51:58.000Z</time>
      </trkpt>
      <trkpt lat="45.15132" lon="5.93406">
        <ele>2041.8000488281</ele>
        <time>2023-08-12T13:52:03.000Z</time>
      </trkpt>
      <trkpt lat="45.15129" lon="5.93403">
        <ele>2042.8000488281</ele>
        <time>2023-08-12T13:52:07.000Z</time>
      </trkpt>
      <trkpt lat="45.15127" lon="5.93402">
        <ele>2043.4000244141</ele>
        <time>2023-08-12T13:52:09.000Z</time>
      </trkpt>
      <trkpt lat="45.15122" lon="5.934">
        <ele>2043.8000488281</ele>
        <time>2023-08-12T13:52:16.000Z</time>
      </trkpt>
      <trkpt lat="45.15118" lon="5.93397">
        <ele>2044.1999511719</ele>
        <time>2023-08-12T13:52:22.000Z</time>
      </trkpt>
      <trkpt lat="45.15117" lon="5.93394">
        <ele>2045</ele>
        <time>2023-08-12T13:52:27.000Z</time>
      </trkpt>
      <trkpt lat="45.15116" lon="5.93394">
        <ele>2045.1999511719</ele>
        <time>2023-08-12T13:52:28.000Z</time>
      </trkpt>
      <trkpt lat="45.15111" lon="5.93392">
        <ele>2046</ele>
        <time>2023-08-12T13:52:34.000Z</time>
      </trkpt>
      <trkpt lat="45.15108" lon="5.93391">
        <ele>2046.4000244141</ele>
        <time>2023-08-12T13:52:37.000Z</time>
      </trkpt>
      <trkpt lat="45.15106" lon="5.93391">
        <ele>2047</ele>
        <time>2023-08-12T13:52:40.000Z</time>
      </trkpt>
      <trkpt lat="45.15102" lon="5.93389">
        <ele>2047.5999755859</ele>
        <time>2023-08-12T13:52:44.000Z</time>
      </trkpt>
      <trkpt lat="45.15099" lon="5.93387">
        <ele>2046.8000488281</ele>
        <time>2023-08-12T13:52:51.000Z</time>
      </trkpt>
      <trkpt lat="45.15099" lon="5.93387">
        <ele>2046.5999755859</ele>
        <time>2023-08-12T13:52:52.000Z</time>
      </trkpt>
      <trkpt lat="45.151" lon="5.93387">
        <ele>2046.5999755859</ele>
        <time>2023-08-12T13:52:53.000Z</time>
      </trkpt>
      <trkpt lat="45.151" lon="5.93386">
        <ele>2046.5999755859</ele>
        <time>2023-08-12T13:52:56.000Z</time>
      </trkpt>
      <trkpt lat="45.15099" lon="5.93382">
        <ele>2046.4000244141</ele>
        <time>2023-08-12T13:53:00.000Z</time>
      </trkpt>
      <trkpt lat="45.15098" lon="5.9338">
        <ele>2046</ele>
        <time>2023-08-12T13:53:03.000Z</time>
      </trkpt>
      <trkpt lat="45.15096" lon="5.93377">
        <ele>2045</ele>
        <time>2023-08-12T13:53:08.000Z</time>
      </trkpt>
      <trkpt lat="45.15095" lon="5.93376">
        <ele>2044.8000488281</ele>
        <time>2023-08-12T13:53:09.000Z</time>
      </trkpt>
      <trkpt lat="45.15094" lon="5.93376">
        <ele>2043.8000488281</ele>
        <time>2023-08-12T13:53:12.000Z</time>
      </trkpt>
      <trkpt lat="45.15092" lon="5.93376">
        <ele>2043.4000244141</ele>
        <time>2023-08-12T13:53:16.000Z</time>
      </trkpt>
      <trkpt lat="45.15089" lon="5.93374">
        <ele>2042.5999755859</ele>
        <time>2023-08-12T13:53:19.000Z</time>
      </trkpt>
      <trkpt lat="45.15089" lon="5.93368">
        <ele>2042</ele>
        <time>2023-08-12T13:53:23.000Z</time>
      </trkpt>
      <trkpt lat="45.15088" lon="5.93365">
        <ele>2041.4000244141</ele>
        <time>2023-08-12T13:53:25.000Z</time>
      </trkpt>
      <trkpt lat="45.15087" lon="5.93362">
        <ele>2040.1999511719</ele>
        <time>2023-08-12T13:53:28.000Z</time>
      </trkpt>
      <trkpt lat="45.15087" lon="5.93361">
        <ele>2039.8000488281</ele>
        <time>2023-08-12T13:53:30.000Z</time>
      </trkpt>
      <trkpt lat="45.15085" lon="5.93355">
        <ele>2039.1999511719</ele>
        <time>2023-08-12T13:53:36.000Z</time>
      </trkpt>
      <trkpt lat="45.15084" lon="5.93352">
        <ele>2038</ele>
        <time>2023-08-12T13:53:40.000Z</time>
      </trkpt>
      <trkpt lat="45.15083" lon="5.93348">
        <ele>2037.1999511719</ele>
        <time>2023-08-12T13:53:46.000Z</time>
      </trkpt>
      <trkpt lat="45.15082" lon="5.93346">
        <ele>2036.5999755859</ele>
        <time>2023-08-12T13:53:49.000Z</time>
      </trkpt>
      <trkpt lat="45.1508" lon="5.93343">
        <ele>2036</ele>
        <time>2023-08-12T13:53:54.000Z</time>
      </trkpt>
      <trkpt lat="45.15079" lon="5.93338">
        <ele>2035.1999511719</ele>
        <time>2023-08-12T13:54:01.000Z</time>
      </trkpt>
      <trkpt lat="45.1508" lon="5.93338">
        <ele>2034.5999755859</ele>
        <time>2023-08-12T13:54:03.000Z</time>
      </trkpt>
      <trkpt lat="45.15081" lon="5.93337">
        <ele>2034.1999511719</ele>
        <time>2023-08-12T13:54:06.000Z</time>
      </trkpt>
      <trkpt lat="45.15081" lon="5.93334">
        <ele>2033</ele>
        <time>2023-08-12T13:54:11.000Z</time>
      </trkpt>
      <trkpt lat="45.15083" lon="5.9333">
        <ele>2032</ele>
        <time>2023-08-12T13:54:15.000Z</time>
      </trkpt>
      <trkpt lat="45.15084" lon="5.93328">
        <ele>2031.1999511719</ele>
        <time>2023-08-12T13:54:19.000Z</time>
      </trkpt>
      <trkpt lat="45.15085" lon="5.93328">
        <ele>2030.8000488281</ele>
        <time>2023-08-12T13:54:21.000Z</time>
      </trkpt>
      <trkpt lat="45.15086" lon="5.93324">
        <ele>2029.8000488281</ele>
        <time>2023-08-12T13:54:26.000Z</time>
      </trkpt>
      <trkpt lat="45.15083" lon="5.93318">
        <ele>2028.8000488281</ele>
        <time>2023-08-12T13:54:32.000Z</time>
      </trkpt>
      <trkpt lat="45.15082" lon="5.93316">
        <ele>2028.5999755859</ele>
        <time>2023-08-12T13:54:34.000Z</time>
      </trkpt>
      <trkpt lat="45.15083" lon="5.93311">
        <ele>2027.5999755859</ele>
        <time>2023-08-12T13:54:40.000Z</time>
      </trkpt>
      <trkpt lat="45.15081" lon="5.93302">
        <ele>2026.4000244141</ele>
        <time>2023-08-12T13:54:47.000Z</time>
      </trkpt>
      <trkpt lat="45.1508" lon="5.93299">
        <ele>2025.5999755859</ele>
        <time>2023-08-12T13:54:50.000Z</time>
      </trkpt>
      <trkpt lat="45.15079" lon="5.93298">
        <ele>2025.1999511719</ele>
        <time>2023-08-12T13:54:51.000Z</time>
      </trkpt>
      <trkpt lat="45.15075" lon="5.9329">
        <ele>2024.1999511719</ele>
        <time>2023-08-12T13:54:57.000Z</time>
      </trkpt>
      <trkpt lat="45.15074" lon="5.93289">
        <ele>2024</ele>
        <time>2023-08-12T13:54:58.000Z</time>
      </trkpt>
      <trkpt lat="45.15074" lon="5.93288">
        <ele>2023</ele>
        <time>2023-08-12T13:55:02.000Z</time>
      </trkpt>
      <trkpt lat="45.15075" lon="5.93292">
        <ele>2023</ele>
        <time>2023-08-12T13:55:06.000Z</time>
      </trkpt>
      <trkpt lat="45.15076" lon="5.93295">
        <ele>2022.8000488281</ele>
        <time>2023-08-12T13:55:16.000Z</time>
      </trkpt>
      <trkpt lat="45.15075" lon="5.93289">
        <ele>2023</ele>
        <time>2023-08-12T13:55:24.000Z</time>
      </trkpt>
      <trkpt lat="45.15071" lon="5.9328">
        <ele>2022.1999511719</ele>
        <time>2023-08-12T13:55:31.000Z</time>
      </trkpt>
      <trkpt lat="45.15071" lon="5.93277">
        <ele>2022</ele>
        <time>2023-08-12T13:55:33.000Z</time>
      </trkpt>
      <trkpt lat="45.15068" lon="5.9327">
        <ele>2021.4000244141</ele>
        <time>2023-08-12T13:55:39.000Z</time>
      </trkpt>
      <trkpt lat="45.15067" lon="5.93268">
        <ele>2021</ele>
        <time>2023-08-12T13:55:41.000Z</time>
      </trkpt>
      <trkpt lat="45.15064" lon="5.93259">
        <ele>2020.1999511719</ele>
        <time>2023-08-12T13:55:47.000Z</time>
      </trkpt>
      <trkpt lat="45.15063" lon="5.93255">
        <ele>2019.8000488281</ele>
        <time>2023-08-12T13:55:49.000Z</time>
      </trkpt>
      <trkpt lat="45.15061" lon="5.93245">
        <ele>2019.4000244141</ele>
        <time>2023-08-12T13:55:55.000Z</time>
      </trkpt>
      <trkpt lat="45.15061" lon="5.93242">
        <ele>2018.5999755859</ele>
        <time>2023-08-12T13:55:57.000Z</time>
      </trkpt>
      <trkpt lat="45.15063" lon="5.93235">
        <ele>2017.5999755859</ele>
        <time>2023-08-12T13:56:03.000Z</time>
      </trkpt>
      <trkpt lat="45.15064" lon="5.93233">
        <ele>2017.5999755859</ele>
        <time>2023-08-12T13:56:04.000Z</time>
      </trkpt>
      <trkpt lat="45.15063" lon="5.93227">
        <ele>2016.5999755859</ele>
        <time>2023-08-12T13:56:10.000Z</time>
      </trkpt>
      <trkpt lat="45.15062" lon="5.93226">
        <ele>2016.4000244141</ele>
        <time>2023-08-12T13:56:11.000Z</time>
      </trkpt>
      <trkpt lat="45.15062" lon="5.93226">
        <ele>2016.1999511719</ele>
        <time>2023-08-12T13:56:12.000Z</time>
      </trkpt>
      <trkpt lat="45.15059" lon="5.93224">
        <ele>2015.1999511719</ele>
        <time>2023-08-12T13:56:17.000Z</time>
      </trkpt>
      <trkpt lat="45.15058" lon="5.93224">
        <ele>2015</ele>
        <time>2023-08-12T13:56:18.000Z</time>
      </trkpt>
      <trkpt lat="45.15054" lon="5.93221">
        <ele>2014.1999511719</ele>
        <time>2023-08-12T13:56:24.000Z</time>
      </trkpt>
      <trkpt lat="45.15053" lon="5.93218">
        <ele>2013.8000488281</ele>
        <time>2023-08-12T13:56:27.000Z</time>
      </trkpt>
      <trkpt lat="45.15051" lon="5.93215">
        <ele>2012.8000488281</ele>
        <time>2023-08-12T13:56:32.000Z</time>
      </trkpt>
      <trkpt lat="45.1505" lon="5.93211">
        <ele>2012.1999511719</ele>
        <time>2023-08-12T13:56:35.000Z</time>
      </trkpt>
      <trkpt lat="45.15048" lon="5.93207">
        <ele>2011.8000488281</ele>
        <time>2023-08-12T13:56:39.000Z</time>
      </trkpt>
      <trkpt lat="45.15048" lon="5.93203">
        <ele>2011.1999511719</ele>
        <time>2023-08-12T13:56:44.000Z</time>
      </trkpt>
      <trkpt lat="45.15047" lon="5.93202">
        <ele>2010.8000488281</ele>
        <time>2023-08-12T13:56:46.000Z</time>
      </trkpt>
      <trkpt lat="45.15046" lon="5.93194">
        <ele>2010.1999511719</ele>
        <time>2023-08-12T13:56:53.000Z</time>
      </trkpt>
      <trkpt lat="45.15046" lon="5.93192">
        <ele>2009.8000488281</ele>
        <time>2023-08-12T13:56:55.000Z</time>
      </trkpt>
      <trkpt lat="45.15046" lon="5.9319">
        <ele>2009</ele>
        <time>2023-08-12T13:56:58.000Z</time>
      </trkpt>
      <trkpt lat="45.15047" lon="5.93189">
        <ele>2008.5999755859</ele>
        <time>2023-08-12T13:57:00.000Z</time>
      </trkpt>
      <trkpt lat="45.15049" lon="5.93183">
        <ele>2007.5999755859</ele>
        <time>2023-08-12T13:57:06.000Z</time>
      </trkpt>
      <trkpt lat="45.15048" lon="5.93182">
        <ele>2007.4000244141</ele>
        <time>2023-08-12T13:57:08.000Z</time>
      </trkpt>
      <trkpt lat="45.15042" lon="5.93186">
        <ele>2006.4000244141</ele>
        <time>2023-08-12T13:57:15.000Z</time>
      </trkpt>
      <trkpt lat="45.1504" lon="5.9319">
        <ele>2005.4000244141</ele>
        <time>2023-08-12T13:57:24.000Z</time>
      </trkpt>
      <trkpt lat="45.1504" lon="5.9319">
        <ele>2005.4000244141</ele>
        <time>2023-08-12T13:57:25.000Z</time>
      </trkpt>
      <trkpt lat="45.15039" lon="5.93189">
        <ele>2005.4000244141</ele>
        <time>2023-08-12T13:57:29.000Z</time>
      </trkpt>
      <trkpt lat="45.15037" lon="5.93188">
        <ele>2005.4000244141</ele>
        <time>2023-08-12T13:57:32.000Z</time>
      </trkpt>
      <trkpt lat="45.15035" lon="5.93186">
        <ele>2005.4000244141</ele>
        <time>2023-08-12T13:57:41.000Z</time>
      </trkpt>
      <trkpt lat="45.15032" lon="5.93191">
        <ele>2004.8000488281</ele>
        <time>2023-08-12T13:57:49.000Z</time>
      </trkpt>
      <trkpt lat="45.1503" lon="5.93194">
        <ele>2004.1999511719</ele>
        <time>2023-08-12T13:57:51.000Z</time>
      </trkpt>
      <trkpt lat="45.15026" lon="5.932">
        <ele>2003</ele>
        <time>2023-08-12T13:57:56.000Z</time>
      </trkpt>
      <trkpt lat="45.15025" lon="5.93204">
        <ele>2002.8000488281</ele>
        <time>2023-08-12T13:57:58.000Z</time>
      </trkpt>
      <trkpt lat="45.15023" lon="5.93208">
        <ele>2002</ele>
        <time>2023-08-12T13:58:02.000Z</time>
      </trkpt>
      <trkpt lat="45.15021" lon="5.93213">
        <ele>2001.5999755859</ele>
        <time>2023-08-12T13:58:06.000Z</time>
      </trkpt>
      <trkpt lat="45.15017" lon="5.93221">
        <ele>2001</ele>
        <time>2023-08-12T13:58:11.000Z</time>
      </trkpt>
      <trkpt lat="45.15016" lon="5.93226">
        <ele>2000.8000488281</ele>
        <time>2023-08-12T13:58:14.000Z</time>
      </trkpt>
      <trkpt lat="45.15011" lon="5.93243">
        <ele>2000.1999511719</ele>
        <time>2023-08-12T13:58:24.000Z</time>
      </trkpt>
      <trkpt lat="45.15008" lon="5.9325">
        <ele>2000</ele>
        <time>2023-08-12T13:58:28.000Z</time>
      </trkpt>
      <trkpt lat="45.15006" lon="5.9326">
        <ele>1999.5999755859</ele>
        <time>2023-08-12T13:58:33.000Z</time>
      </trkpt>
      <trkpt lat="45.14999" lon="5.9327">
        <ele>2000</ele>
        <time>2023-08-12T13:58:42.000Z</time>
      </trkpt>
      <trkpt lat="45.14994" lon="5.93271">
        <ele>2000.1999511719</ele>
        <time>2023-08-12T13:58:49.000Z</time>
      </trkpt>
      <trkpt lat="45.14989" lon="5.93272">
        <ele>1999</ele>
        <time>2023-08-12T13:58:57.000Z</time>
      </trkpt>
      <trkpt lat="45.14988" lon="5.93272">
        <ele>1999</ele>
        <time>2023-08-12T13:58:58.000Z</time>
      </trkpt>
      <trkpt lat="45.14986" lon="5.93272">
        <ele>1997.8000488281</ele>
        <time>2023-08-12T13:59:04.000Z</time>
      </trkpt>
      <trkpt lat="45.14975" lon="5.93275">
        <ele>1996.5999755859</ele>
        <time>2023-08-12T13:59:11.000Z</time>
      </trkpt>
      <trkpt lat="45.14963" lon="5.93274">
        <ele>1996.5999755859</ele>
        <time>2023-08-12T13:59:19.000Z</time>
      </trkpt>
      <trkpt lat="45.14954" lon="5.9327">
        <ele>1995.8000488281</ele>
        <time>2023-08-12T13:59:26.000Z</time>
      </trkpt>
      <trkpt lat="45.14953" lon="5.93269">
        <ele>1995.4000244141</ele>
        <time>2023-08-12T13:59:28.000Z</time>
      </trkpt>
      <trkpt lat="45.14952" lon="5.93269">
        <ele>1995.1999511719</ele>
        <time>2023-08-12T13:59:29.000Z</time>
      </trkpt>
      <trkpt lat="45.14951" lon="5.93271">
        <ele>1994.8000488281</ele>
        <time>2023-08-12T13:59:31.000Z</time>
      </trkpt>
      <trkpt lat="45.14953" lon="5.93272">
        <ele>1994.1999511719</ele>
        <time>2023-08-12T13:59:34.000Z</time>
      </trkpt>
      <trkpt lat="45.14953" lon="5.93269">
        <ele>1992.8000488281</ele>
        <time>2023-08-12T13:59:41.000Z</time>
      </trkpt>
      <trkpt lat="45.14952" lon="5.93268">
        <ele>1992.4000244141</ele>
        <time>2023-08-12T13:59:43.000Z</time>
      </trkpt>
      <trkpt lat="45.14951" lon="5.93263">
        <ele>1991.8000488281</ele>
        <time>2023-08-12T13:59:49.000Z</time>
      </trkpt>
      <trkpt lat="45.14947" lon="5.93255">
        <ele>1990.5999755859</ele>
        <time>2023-08-12T13:59:56.000Z</time>
      </trkpt>
      <trkpt lat="45.14945" lon="5.9325">
        <ele>1989.5999755859</ele>
        <time>2023-08-12T14:00:01.000Z</time>
      </trkpt>
      <trkpt lat="45.14943" lon="5.93248">
        <ele>1989.4000244141</ele>
        <time>2023-08-12T14:00:04.000Z</time>
      </trkpt>
      <trkpt lat="45.1494" lon="5.93242">
        <ele>1988.5999755859</ele>
        <time>2023-08-12T14:00:12.000Z</time>
      </trkpt>
      <trkpt lat="45.1494" lon="5.93241">
        <ele>1988.5999755859</ele>
        <time>2023-08-12T14:00:13.000Z</time>
      </trkpt>
      <trkpt lat="45.14937" lon="5.93236">
        <ele>1988</ele>
        <time>2023-08-12T14:00:18.000Z</time>
      </trkpt>
      <trkpt lat="45.14934" lon="5.93231">
        <ele>1987.4000244141</ele>
        <time>2023-08-12T14:00:22.000Z</time>
      </trkpt>
      <trkpt lat="45.14931" lon="5.93225">
        <ele>1987</ele>
        <time>2023-08-12T14:00:27.000Z</time>
      </trkpt>
      <trkpt lat="45.14927" lon="5.93218">
        <ele>1986.5999755859</ele>
        <time>2023-08-12T14:00:34.000Z</time>
      </trkpt>
      <trkpt lat="45.14927" lon="5.93219">
        <ele>1986.5999755859</ele>
        <time>2023-08-12T14:00:35.000Z</time>
      </trkpt>
      <trkpt lat="45.14927" lon="5.9322">
        <ele>1986.4000244141</ele>
        <time>2023-08-12T14:00:37.000Z</time>
      </trkpt>
      <trkpt lat="45.14927" lon="5.93219">
        <ele>1986</ele>
        <time>2023-08-12T14:00:40.000Z</time>
      </trkpt>
      <trkpt lat="45.14927" lon="5.93217">
        <ele>1986.4000244141</ele>
        <time>2023-08-12T14:00:47.000Z</time>
      </trkpt>
      <trkpt lat="45.14927" lon="5.9321">
        <ele>1986.1999511719</ele>
        <time>2023-08-12T14:00:55.000Z</time>
      </trkpt>
      <trkpt lat="45.14929" lon="5.93213">
        <ele>1986.1999511719</ele>
        <time>2023-08-12T14:01:05.000Z</time>
      </trkpt>
      <trkpt lat="45.14927" lon="5.9321">
        <ele>1986.4000244141</ele>
        <time>2023-08-12T14:01:12.000Z</time>
      </trkpt>
      <trkpt lat="45.14925" lon="5.9321">
        <ele>1985.4000244141</ele>
        <time>2023-08-12T14:01:19.000Z</time>
      </trkpt>
      <trkpt lat="45.14921" lon="5.93214">
        <ele>1985</ele>
        <time>2023-08-12T14:01:27.000Z</time>
      </trkpt>
      <trkpt lat="45.1492" lon="5.93216">
        <ele>1984.1999511719</ele>
        <time>2023-08-12T14:01:33.000Z</time>
      </trkpt>
      <trkpt lat="45.1492" lon="5.93215">
        <ele>1984</ele>
        <time>2023-08-12T14:01:34.000Z</time>
      </trkpt>
      <trkpt lat="45.14916" lon="5.93218">
        <ele>1983</ele>
        <time>2023-08-12T14:01:39.000Z</time>
      </trkpt>
      <trkpt lat="45.14916" lon="5.93218">
        <ele>1982.8000488281</ele>
        <time>2023-08-12T14:01:40.000Z</time>
      </trkpt>
      <trkpt lat="45.14917" lon="5.93219">
        <ele>1982.1999511719</ele>
        <time>2023-08-12T14:01:45.000Z</time>
      </trkpt>
      <trkpt lat="45.14916" lon="5.93217">
        <ele>1981.8000488281</ele>
        <time>2023-08-12T14:01:49.000Z</time>
      </trkpt>
      <trkpt lat="45.14916" lon="5.93217">
        <ele>1981.5999755859</ele>
        <time>2023-08-12T14:01:50.000Z</time>
      </trkpt>
      <trkpt lat="45.14915" lon="5.93216">
        <ele>1980.5999755859</ele>
        <time>2023-08-12T14:01:55.000Z</time>
      </trkpt>
      <trkpt lat="45.14914" lon="5.93216">
        <ele>1980.1999511719</ele>
        <time>2023-08-12T14:01:59.000Z</time>
      </trkpt>
      <trkpt lat="45.14913" lon="5.93211">
        <ele>1980</ele>
        <time>2023-08-12T14:02:05.000Z</time>
      </trkpt>
      <trkpt lat="45.14913" lon="5.93209">
        <ele>1979.4000244141</ele>
        <time>2023-08-12T14:02:07.000Z</time>
      </trkpt>
      <trkpt lat="45.14913" lon="5.93204">
        <ele>1978.1999511719</ele>
        <time>2023-08-12T14:02:12.000Z</time>
      </trkpt>
      <trkpt lat="45.14914" lon="5.932">
        <ele>1977</ele>
        <time>2023-08-12T14:02:18.000Z</time>
      </trkpt>
      <trkpt lat="45.14913" lon="5.932">
        <ele>1976.4000244141</ele>
        <time>2023-08-12T14:02:20.000Z</time>
      </trkpt>
      <trkpt lat="45.1491" lon="5.93199">
        <ele>1976.1999511719</ele>
        <time>2023-08-12T14:02:29.000Z</time>
      </trkpt>
      <trkpt lat="45.14908" lon="5.932">
        <ele>1976</ele>
        <time>2023-08-12T14:02:36.000Z</time>
      </trkpt>
      <trkpt lat="45.14908" lon="5.93198">
        <ele>1974.5999755859</ele>
        <time>2023-08-12T14:02:43.000Z</time>
      </trkpt>
      <trkpt lat="45.14909" lon="5.93197">
        <ele>1974.4000244141</ele>
        <time>2023-08-12T14:02:44.000Z</time>
      </trkpt>
      <trkpt lat="45.1491" lon="5.93195">
        <ele>1973.5999755859</ele>
        <time>2023-08-12T14:02:47.000Z</time>
      </trkpt>
      <trkpt lat="45.14911" lon="5.93189">
        <ele>1973.4000244141</ele>
        <time>2023-08-12T14:02:51.000Z</time>
      </trkpt>
      <trkpt lat="45.14911" lon="5.93184">
        <ele>1972.8000488281</ele>
        <time>2023-08-12T14:02:56.000Z</time>
      </trkpt>
      <trkpt lat="45.14909" lon="5.9318">
        <ele>1972.1999511719</ele>
        <time>2023-08-12T14:03:02.000Z</time>
      </trkpt>
      <trkpt lat="45.14908" lon="5.93179">
        <ele>1971.5999755859</ele>
        <time>2023-08-12T14:03:05.000Z</time>
      </trkpt>
      <trkpt lat="45.14908" lon="5.93178">
        <ele>1971.1999511719</ele>
        <time>2023-08-12T14:03:07.000Z</time>
      </trkpt>
      <trkpt lat="45.14906" lon="5.93173">
        <ele>1970.4000244141</ele>
        <time>2023-08-12T14:03:13.000Z</time>
      </trkpt>
      <trkpt lat="45.14907" lon="5.93172">
        <ele>1970.1999511719</ele>
        <time>2023-08-12T14:03:15.000Z</time>
      </trkpt>
      <trkpt lat="45.14907" lon="5.93169">
        <ele>1969.5999755859</ele>
        <time>2023-08-12T14:03:19.000Z</time>
      </trkpt>
      <trkpt lat="45.14906" lon="5.93166">
        <ele>1969.1999511719</ele>
        <time>2023-08-12T14:03:22.000Z</time>
      </trkpt>
      <trkpt lat="45.14906" lon="5.93164">
        <ele>1968.4000244141</ele>
        <time>2023-08-12T14:03:25.000Z</time>
      </trkpt>
      <trkpt lat="45.14906" lon="5.93161">
        <ele>1968</ele>
        <time>2023-08-12T14:03:29.000Z</time>
      </trkpt>
      <trkpt lat="45.14907" lon="5.93159">
        <ele>1968</ele>
        <time>2023-08-12T14:03:33.000Z</time>
      </trkpt>
      <trkpt lat="45.14906" lon="5.9315">
        <ele>1967.5999755859</ele>
        <time>2023-08-12T14:03:41.000Z</time>
      </trkpt>
      <trkpt lat="45.14902" lon="5.93151">
        <ele>1967</ele>
        <time>2023-08-12T14:03:46.000Z</time>
      </trkpt>
      <trkpt lat="45.14901" lon="5.93152">
        <ele>1967</ele>
        <time>2023-08-12T14:03:48.000Z</time>
      </trkpt>
      <trkpt lat="45.14901" lon="5.93156">
        <ele>1966.4000244141</ele>
        <time>2023-08-12T14:03:55.000Z</time>
      </trkpt>
      <trkpt lat="45.14902" lon="5.93158">
        <ele>1966.4000244141</ele>
        <time>2023-08-12T14:04:04.000Z</time>
      </trkpt>
      <trkpt lat="45.14901" lon="5.93162">
        <ele>1966</ele>
        <time>2023-08-12T14:04:12.000Z</time>
      </trkpt>
      <trkpt lat="45.14895" lon="5.93169">
        <ele>1965</ele>
        <time>2023-08-12T14:04:23.000Z</time>
      </trkpt>
      <trkpt lat="45.14894" lon="5.93169">
        <ele>1964.8000488281</ele>
        <time>2023-08-12T14:04:24.000Z</time>
      </trkpt>
      <trkpt lat="45.14892" lon="5.93171">
        <ele>1964</ele>
        <time>2023-08-12T14:04:32.000Z</time>
      </trkpt>
      <trkpt lat="45.14892" lon="5.93171">
        <ele>1963.5999755859</ele>
        <time>2023-08-12T14:04:33.000Z</time>
      </trkpt>
      <trkpt lat="45.14891" lon="5.9317">
        <ele>1961.4000244141</ele>
        <time>2023-08-12T14:04:43.000Z</time>
      </trkpt>
      <trkpt lat="45.1489" lon="5.93169">
        <ele>1960.8000488281</ele>
        <time>2023-08-12T14:04:47.000Z</time>
      </trkpt>
      <trkpt lat="45.14889" lon="5.93168">
        <ele>1960.4000244141</ele>
        <time>2023-08-12T14:04:50.000Z</time>
      </trkpt>
      <trkpt lat="45.14888" lon="5.93166">
        <ele>1960</ele>
        <time>2023-08-12T14:04:53.000Z</time>
      </trkpt>
      <trkpt lat="45.14887" lon="5.93162">
        <ele>1959.4000244141</ele>
        <time>2023-08-12T14:05:01.000Z</time>
      </trkpt>
      <trkpt lat="45.14886" lon="5.93161">
        <ele>1958.8000488281</ele>
        <time>2023-08-12T14:05:04.000Z</time>
      </trkpt>
      <trkpt lat="45.14885" lon="5.9316">
        <ele>1958.4000244141</ele>
        <time>2023-08-12T14:05:06.000Z</time>
      </trkpt>
      <trkpt lat="45.14882" lon="5.93159">
        <ele>1957.5999755859</ele>
        <time>2023-08-12T14:05:11.000Z</time>
      </trkpt>
      <trkpt lat="45.14881" lon="5.93159">
        <ele>1957.4000244141</ele>
        <time>2023-08-12T14:05:12.000Z</time>
      </trkpt>
      <trkpt lat="45.14879" lon="5.93159">
        <ele>1956.8000488281</ele>
        <time>2023-08-12T14:05:17.000Z</time>
      </trkpt>
      <trkpt lat="45.14877" lon="5.93141">
        <ele>1954</ele>
        <time>2023-08-12T14:05:36.000Z</time>
      </trkpt>
      <trkpt lat="45.14874" lon="5.93138">
        <ele>1953.1999511719</ele>
        <time>2023-08-12T14:05:41.000Z</time>
      </trkpt>
      <trkpt lat="45.14874" lon="5.93137">
        <ele>1953.1999511719</ele>
        <time>2023-08-12T14:05:42.000Z</time>
      </trkpt>
      <trkpt lat="45.14873" lon="5.93135">
        <ele>1953</ele>
        <time>2023-08-12T14:05:44.000Z</time>
      </trkpt>
      <trkpt lat="45.14872" lon="5.93135">
        <ele>1952.8000488281</ele>
        <time>2023-08-12T14:05:47.000Z</time>
      </trkpt>
      <trkpt lat="45.14822" lon="5.93157">
        <ele>1939</ele>
        <time>2023-08-12T14:07:41.000Z</time>
      </trkpt>
      <trkpt lat="45.14821" lon="5.93155">
        <ele>1938.8000488281</ele>
        <time>2023-08-12T14:07:42.000Z</time>
      </trkpt>
      <trkpt lat="45.1482" lon="5.93154">
        <ele>1938.8000488281</ele>
        <time>2023-08-12T14:07:43.000Z</time>
      </trkpt>
      <trkpt lat="45.1482" lon="5.9315">
        <ele>1938.1999511719</ele>
        <time>2023-08-12T14:07:48.000Z</time>
      </trkpt>
      <trkpt lat="45.14821" lon="5.93148">
        <ele>1937.5999755859</ele>
        <time>2023-08-12T14:07:53.000Z</time>
      </trkpt>
      <trkpt lat="45.14821" lon="5.93148">
        <ele>1937.4000244141</ele>
        <time>2023-08-12T14:07:55.000Z</time>
      </trkpt>
      <trkpt lat="45.1482" lon="5.93148">
        <ele>1936.4000244141</ele>
        <time>2023-08-12T14:08:02.000Z</time>
      </trkpt>
      <trkpt lat="45.1482" lon="5.93147">
        <ele>1935.5999755859</ele>
        <time>2023-08-12T14:08:09.000Z</time>
      </trkpt>
      <trkpt lat="45.1482" lon="5.93148">
        <ele>1935.4000244141</ele>
        <time>2023-08-12T14:08:10.000Z</time>
      </trkpt>
      <trkpt lat="45.1482" lon="5.93147">
        <ele>1934.4000244141</ele>
        <time>2023-08-12T14:08:18.000Z</time>
      </trkpt>
      <trkpt lat="45.1482" lon="5.93147">
        <ele>1934.4000244141</ele>
        <time>2023-08-12T14:08:19.000Z</time>
      </trkpt>
      <trkpt lat="45.14823" lon="5.93133">
        <ele>1930</ele>
        <time>2023-08-12T14:08:46.000Z</time>
      </trkpt>
      <trkpt lat="45.14823" lon="5.93111">
        <ele>1923.4000244141</ele>
        <time>2023-08-12T14:09:30.000Z</time>
      </trkpt>
      <trkpt lat="45.14822" lon="5.9311">
        <ele>1922.8000488281</ele>
        <time>2023-08-12T14:09:34.000Z</time>
      </trkpt>
      <trkpt lat="45.14822" lon="5.9311">
        <ele>1922.4000244141</ele>
        <time>2023-08-12T14:09:39.000Z</time>
      </trkpt>
      <trkpt lat="45.14823" lon="5.931">
        <ele>1919.8000488281</ele>
        <time>2023-08-12T14:09:57.000Z</time>
      </trkpt>
      <trkpt lat="45.14824" lon="5.931">
        <ele>1919.1999511719</ele>
        <time>2023-08-12T14:10:01.000Z</time>
      </trkpt>
      <trkpt lat="45.14823" lon="5.931">
        <ele>1918.8000488281</ele>
        <time>2023-08-12T14:10:05.000Z</time>
      </trkpt>
      <trkpt lat="45.14787" lon="5.93067">
        <ele>1908.5999755859</ele>
        <time>2023-08-12T14:11:02.000Z</time>
      </trkpt>
      <trkpt lat="45.14783" lon="5.93062">
        <ele>1908</ele>
        <time>2023-08-12T14:11:05.000Z</time>
      </trkpt>
      <trkpt lat="45.14779" lon="5.93057">
        <ele>1907.8000488281</ele>
        <time>2023-08-12T14:11:09.000Z</time>
      </trkpt>
      <trkpt lat="45.14777" lon="5.93055">
        <ele>1907.8000488281</ele>
        <time>2023-08-12T14:11:11.000Z</time>
      </trkpt>
      <trkpt lat="45.14772" lon="5.93049">
        <ele>1907.1999511719</ele>
        <time>2023-08-12T14:11:19.000Z</time>
      </trkpt>
      <trkpt lat="45.1477" lon="5.93046">
        <ele>1906.8000488281</ele>
        <time>2023-08-12T14:11:24.000Z</time>
      </trkpt>
      <trkpt lat="45.14768" lon="5.93043">
        <ele>1906.5999755859</ele>
        <time>2023-08-12T14:11:29.000Z</time>
      </trkpt>
      <trkpt lat="45.14762" lon="5.93041">
        <ele>1906.4000244141</ele>
        <time>2023-08-12T14:11:37.000Z</time>
      </trkpt>
      <trkpt lat="45.14761" lon="5.93041">
        <ele>1906.5999755859</ele>
        <time>2023-08-12T14:11:44.000Z</time>
      </trkpt>
      <trkpt lat="45.14759" lon="5.93039">
        <ele>1906.8000488281</ele>
        <time>2023-08-12T14:11:52.000Z</time>
      </trkpt>
      <trkpt lat="45.14757" lon="5.93035">
        <ele>1906.4000244141</ele>
        <time>2023-08-12T14:11:57.000Z</time>
      </trkpt>
      <trkpt lat="45.14756" lon="5.93033">
        <ele>1905.5999755859</ele>
        <time>2023-08-12T14:12:02.000Z</time>
      </trkpt>
      <trkpt lat="45.14756" lon="5.93031">
        <ele>1905.1999511719</ele>
        <time>2023-08-12T14:12:04.000Z</time>
      </trkpt>
      <trkpt lat="45.14753" lon="5.93027">
        <ele>1904.5999755859</ele>
        <time>2023-08-12T14:12:08.000Z</time>
      </trkpt>
      <trkpt lat="45.14752" lon="5.93026">
        <ele>1904.4000244141</ele>
        <time>2023-08-12T14:12:10.000Z</time>
      </trkpt>
      <trkpt lat="45.14748" lon="5.93022">
        <ele>1903.8000488281</ele>
        <time>2023-08-12T14:12:16.000Z</time>
      </trkpt>
      <trkpt lat="45.14767" lon="5.93008">
        <ele>1903.8000488281</ele>
        <time>2023-08-12T14:12:34.000Z</time>
      </trkpt>
      <trkpt lat="45.14762" lon="5.93007">
        <ele>1904.1999511719</ele>
        <time>2023-08-12T14:12:42.000Z</time>
      </trkpt>
      <trkpt lat="45.14761" lon="5.93003">
        <ele>1903.8000488281</ele>
        <time>2023-08-12T14:12:51.000Z</time>
      </trkpt>
      <trkpt lat="45.14759" lon="5.93002">
        <ele>1903.5999755859</ele>
        <time>2023-08-12T14:12:55.000Z</time>
      </trkpt>
      <trkpt lat="45.14757" lon="5.93001">
        <ele>1903.4000244141</ele>
        <time>2023-08-12T14:13:00.000Z</time>
      </trkpt>
      <trkpt lat="45.14757" lon="5.92993">
        <ele>1904.5999755859</ele>
        <time>2023-08-12T14:13:06.000Z</time>
      </trkpt>
      <trkpt lat="45.14757" lon="5.92991">
        <ele>1904.5999755859</ele>
        <time>2023-08-12T14:13:07.000Z</time>
      </trkpt>
      <trkpt lat="45.14758" lon="5.92985">
        <ele>1905</ele>
        <time>2023-08-12T14:13:12.000Z</time>
      </trkpt>
      <trkpt lat="45.14758" lon="5.92983">
        <ele>1905.8000488281</ele>
        <time>2023-08-12T14:13:17.000Z</time>
      </trkpt>
      <trkpt lat="45.14757" lon="5.92983">
        <ele>1906.1999511719</ele>
        <time>2023-08-12T14:13:18.000Z</time>
      </trkpt>
      <trkpt lat="45.14757" lon="5.92977">
        <ele>1906.8000488281</ele>
        <time>2023-08-12T14:13:23.000Z</time>
      </trkpt>
      <trkpt lat="45.14757" lon="5.92974">
        <ele>1907</ele>
        <time>2023-08-12T14:13:25.000Z</time>
      </trkpt>
      <trkpt lat="45.14757" lon="5.92971">
        <ele>1907.5999755859</ele>
        <time>2023-08-12T14:13:32.000Z</time>
      </trkpt>
      <trkpt lat="45.14755" lon="5.92967">
        <ele>1907.8000488281</ele>
        <time>2023-08-12T14:13:42.000Z</time>
      </trkpt>
      <trkpt lat="45.14752" lon="5.92964">
        <ele>1907.8000488281</ele>
        <time>2023-08-12T14:13:48.000Z</time>
      </trkpt>
      <trkpt lat="45.14742" lon="5.9293">
        <ele>1906.5999755859</ele>
        <time>2023-08-12T14:14:23.000Z</time>
      </trkpt>
      <trkpt lat="45.1474" lon="5.92925">
        <ele>1906.1999511719</ele>
        <time>2023-08-12T14:14:28.000Z</time>
      </trkpt>
      <trkpt lat="45.14733" lon="5.92918">
        <ele>1906.4000244141</ele>
        <time>2023-08-12T14:14:34.000Z</time>
      </trkpt>
      <trkpt lat="45.14712" lon="5.92913">
        <ele>1905</ele>
        <time>2023-08-12T14:14:51.000Z</time>
      </trkpt>
      <trkpt lat="45.14713" lon="5.92913">
        <ele>1904.5999755859</ele>
        <time>2023-08-12T14:14:54.000Z</time>
      </trkpt>
      <trkpt lat="45.14711" lon="5.92911">
        <ele>1904.4000244141</ele>
        <time>2023-08-12T14:14:56.000Z</time>
      </trkpt>
      <trkpt lat="45.1471" lon="5.92911">
        <ele>1903.1999511719</ele>
        <time>2023-08-12T14:15:00.000Z</time>
      </trkpt>
      <trkpt lat="45.1471" lon="5.92914">
        <ele>1903</ele>
        <time>2023-08-12T14:15:02.000Z</time>
      </trkpt>
      <trkpt lat="45.1471" lon="5.92915">
        <ele>1903</ele>
        <time>2023-08-12T14:15:03.000Z</time>
      </trkpt>
      <trkpt lat="45.1471" lon="5.9292">
        <ele>1902.4000244141</ele>
        <time>2023-08-12T14:15:08.000Z</time>
      </trkpt>
      <trkpt lat="45.1471" lon="5.92923">
        <ele>1902.1999511719</ele>
        <time>2023-08-12T14:15:10.000Z</time>
      </trkpt>
      <trkpt lat="45.14708" lon="5.92921">
        <ele>1901.5999755859</ele>
        <time>2023-08-12T14:15:12.000Z</time>
      </trkpt>
      <trkpt lat="45.14707" lon="5.92919">
        <ele>1901</ele>
        <time>2023-08-12T14:15:14.000Z</time>
      </trkpt>
      <trkpt lat="45.14706" lon="5.92917">
        <ele>1900</ele>
        <time>2023-08-12T14:15:20.000Z</time>
      </trkpt>
      <trkpt lat="45.14707" lon="5.92917">
        <ele>1899.4000244141</ele>
        <time>2023-08-12T14:15:23.000Z</time>
      </trkpt>
      <trkpt lat="45.14704" lon="5.9289">
        <ele>1890.5999755859</ele>
        <time>2023-08-12T14:16:27.000Z</time>
      </trkpt>
      <trkpt lat="45.14701" lon="5.92881">
        <ele>1889.4000244141</ele>
        <time>2023-08-12T14:16:39.000Z</time>
      </trkpt>
      <trkpt lat="45.147" lon="5.92881">
        <ele>1888.4000244141</ele>
        <time>2023-08-12T14:16:42.000Z</time>
      </trkpt>
      <trkpt lat="45.14697" lon="5.92881">
        <ele>1888.1999511719</ele>
        <time>2023-08-12T14:16:44.000Z</time>
      </trkpt>
      <trkpt lat="45.14693" lon="5.92882">
        <ele>1887.1999511719</ele>
        <time>2023-08-12T14:16:48.000Z</time>
      </trkpt>
      <trkpt lat="45.14687" lon="5.92886">
        <ele>1885.5999755859</ele>
        <time>2023-08-12T14:16:56.000Z</time>
      </trkpt>
      <trkpt lat="45.14688" lon="5.92883">
        <ele>1884.4000244141</ele>
        <time>2023-08-12T14:16:59.000Z</time>
      </trkpt>
      <trkpt lat="45.14687" lon="5.92882">
        <ele>1884</ele>
        <time>2023-08-12T14:17:01.000Z</time>
      </trkpt>
      <trkpt lat="45.14676" lon="5.92874">
        <ele>1883.1999511719</ele>
        <time>2023-08-12T14:17:20.000Z</time>
      </trkpt>
      <trkpt lat="45.14676" lon="5.92873">
        <ele>1882.8000488281</ele>
        <time>2023-08-12T14:17:22.000Z</time>
      </trkpt>
      <trkpt lat="45.14663" lon="5.92871">
        <ele>1881</ele>
        <time>2023-08-12T14:17:43.000Z</time>
      </trkpt>
      <trkpt lat="45.14664" lon="5.92867">
        <ele>1880.5999755859</ele>
        <time>2023-08-12T14:17:47.000Z</time>
      </trkpt>
      <trkpt lat="45.14649" lon="5.92869">
        <ele>1874.4000244141</ele>
        <time>2023-08-12T14:18:37.000Z</time>
      </trkpt>
      <trkpt lat="45.14649" lon="5.92861">
        <ele>1871.1999511719</ele>
        <time>2023-08-12T14:18:57.000Z</time>
      </trkpt>
      <trkpt lat="45.14649" lon="5.92861">
        <ele>1871</ele>
        <time>2023-08-12T14:18:58.000Z</time>
      </trkpt>
      <trkpt lat="45.14635" lon="5.92861">
        <ele>1867.5999755859</ele>
        <time>2023-08-12T14:19:17.000Z</time>
      </trkpt>
      <trkpt lat="45.14636" lon="5.92851">
        <ele>1867</ele>
        <time>2023-08-12T14:19:22.000Z</time>
      </trkpt>
      <trkpt lat="45.14636" lon="5.92845">
        <ele>1866.5999755859</ele>
        <time>2023-08-12T14:19:26.000Z</time>
      </trkpt>
      <trkpt lat="45.14635" lon="5.92842">
        <ele>1866.1999511719</ele>
        <time>2023-08-12T14:19:30.000Z</time>
      </trkpt>
      <trkpt lat="45.14633" lon="5.92839">
        <ele>1865.4000244141</ele>
        <time>2023-08-12T14:19:33.000Z</time>
      </trkpt>
      <trkpt lat="45.14631" lon="5.92832">
        <ele>1864.5999755859</ele>
        <time>2023-08-12T14:19:38.000Z</time>
      </trkpt>
      <trkpt lat="45.14631" lon="5.92832">
        <ele>1864.4000244141</ele>
        <time>2023-08-12T14:19:39.000Z</time>
      </trkpt>
      <trkpt lat="45.14629" lon="5.92829">
        <ele>1864.4000244141</ele>
        <time>2023-08-12T14:19:45.000Z</time>
      </trkpt>
      <trkpt lat="45.14624" lon="5.92825">
        <ele>1863.4000244141</ele>
        <time>2023-08-12T14:19:53.000Z</time>
      </trkpt>
      <trkpt lat="45.14624" lon="5.92823">
        <ele>1863.1999511719</ele>
        <time>2023-08-12T14:19:54.000Z</time>
      </trkpt>
      <trkpt lat="45.14619" lon="5.92824">
        <ele>1862.4000244141</ele>
        <time>2023-08-12T14:20:01.000Z</time>
      </trkpt>
      <trkpt lat="45.1461" lon="5.92815">
        <ele>1863.1999511719</ele>
        <time>2023-08-12T14:20:22.000Z</time>
      </trkpt>
      <trkpt lat="45.14605" lon="5.92807">
        <ele>1862.8000488281</ele>
        <time>2023-08-12T14:20:43.000Z</time>
      </trkpt>
      <trkpt lat="45.14602" lon="5.92802">
        <ele>1862.1999511719</ele>
        <time>2023-08-12T14:20:51.000Z</time>
      </trkpt>
      <trkpt lat="45.14601" lon="5.92801">
        <ele>1862.1999511719</ele>
        <time>2023-08-12T14:20:52.000Z</time>
      </trkpt>
      <trkpt lat="45.14597" lon="5.92796">
        <ele>1861</ele>
        <time>2023-08-12T14:21:00.000Z</time>
      </trkpt>
      <trkpt lat="45.14594" lon="5.92793">
        <ele>1860</ele>
        <time>2023-08-12T14:21:07.000Z</time>
      </trkpt>
      <trkpt lat="45.14592" lon="5.92791">
        <ele>1859.5999755859</ele>
        <time>2023-08-12T14:21:10.000Z</time>
      </trkpt>
      <trkpt lat="45.14591" lon="5.9279">
        <ele>1859</ele>
        <time>2023-08-12T14:21:14.000Z</time>
      </trkpt>
      <trkpt lat="45.1459" lon="5.92789">
        <ele>1858.5999755859</ele>
        <time>2023-08-12T14:21:17.000Z</time>
      </trkpt>
      <trkpt lat="45.14588" lon="5.92789">
        <ele>1858.5999755859</ele>
        <time>2023-08-12T14:21:24.000Z</time>
      </trkpt>
      <trkpt lat="45.14582" lon="5.92785">
        <ele>1857</ele>
        <time>2023-08-12T14:21:35.000Z</time>
      </trkpt>
      <trkpt lat="45.1458" lon="5.92784">
        <ele>1856.8000488281</ele>
        <time>2023-08-12T14:21:36.000Z</time>
      </trkpt>
      <trkpt lat="45.14579" lon="5.9278">
        <ele>1857</ele>
        <time>2023-08-12T14:21:43.000Z</time>
      </trkpt>
      <trkpt lat="45.14577" lon="5.92771">
        <ele>1857.4000244141</ele>
        <time>2023-08-12T14:21:52.000Z</time>
      </trkpt>
      <trkpt lat="45.14575" lon="5.92762">
        <ele>1858</ele>
        <time>2023-08-12T14:21:58.000Z</time>
      </trkpt>
      <trkpt lat="45.14574" lon="5.92761">
        <ele>1858.1999511719</ele>
        <time>2023-08-12T14:22:00.000Z</time>
      </trkpt>
      <trkpt lat="45.14573" lon="5.92755">
        <ele>1859</ele>
        <time>2023-08-12T14:22:06.000Z</time>
      </trkpt>
      <trkpt lat="45.14573" lon="5.92753">
        <ele>1859.1999511719</ele>
        <time>2023-08-12T14:22:08.000Z</time>
      </trkpt>
      <trkpt lat="45.14571" lon="5.92749">
        <ele>1860</ele>
        <time>2023-08-12T14:22:14.000Z</time>
      </trkpt>
      <trkpt lat="45.1457" lon="5.92748">
        <ele>1860.4000244141</ele>
        <time>2023-08-12T14:22:16.000Z</time>
      </trkpt>
      <trkpt lat="45.14569" lon="5.92743">
        <ele>1861</ele>
        <time>2023-08-12T14:22:21.000Z</time>
      </trkpt>
      <trkpt lat="45.14568" lon="5.9274">
        <ele>1861.1999511719</ele>
        <time>2023-08-12T14:22:25.000Z</time>
      </trkpt>
      <trkpt lat="45.14565" lon="5.92738">
        <ele>1860.5999755859</ele>
        <time>2023-08-12T14:22:33.000Z</time>
      </trkpt>
      <trkpt lat="45.14563" lon="5.92736">
        <ele>1860</ele>
        <time>2023-08-12T14:22:39.000Z</time>
      </trkpt>
      <trkpt lat="45.14563" lon="5.92735">
        <ele>1860</ele>
        <time>2023-08-12T14:22:40.000Z</time>
      </trkpt>
      <trkpt lat="45.14559" lon="5.9273">
        <ele>1860.1999511719</ele>
        <time>2023-08-12T14:22:49.000Z</time>
      </trkpt>
      <trkpt lat="45.14557" lon="5.92723">
        <ele>1859.5999755859</ele>
        <time>2023-08-12T14:22:56.000Z</time>
      </trkpt>
      <trkpt lat="45.14553" lon="5.92715">
        <ele>1860.1999511719</ele>
        <time>2023-08-12T14:23:05.000Z</time>
      </trkpt>
      <trkpt lat="45.14548" lon="5.92712">
        <ele>1859.8000488281</ele>
        <time>2023-08-12T14:23:15.000Z</time>
      </trkpt>
      <trkpt lat="45.14543" lon="5.92704">
        <ele>1859</ele>
        <time>2023-08-12T14:23:24.000Z</time>
      </trkpt>
      <trkpt lat="45.14543" lon="5.92702">
        <ele>1859</ele>
        <time>2023-08-12T14:23:25.000Z</time>
      </trkpt>
      <trkpt lat="45.14541" lon="5.92698">
        <ele>1859.5999755859</ele>
        <time>2023-08-12T14:23:32.000Z</time>
      </trkpt>
      <trkpt lat="45.14539" lon="5.92699">
        <ele>1860.1999511719</ele>
        <time>2023-08-12T14:23:35.000Z</time>
      </trkpt>
      <trkpt lat="45.14536" lon="5.92697">
        <ele>1861.4000244141</ele>
        <time>2023-08-12T14:23:41.000Z</time>
      </trkpt>
      <trkpt lat="45.14532" lon="5.92693">
        <ele>1862.4000244141</ele>
        <time>2023-08-12T14:23:48.000Z</time>
      </trkpt>
      <trkpt lat="45.14532" lon="5.92694">
        <ele>1862.5999755859</ele>
        <time>2023-08-12T14:23:49.000Z</time>
      </trkpt>
      <trkpt lat="45.14525" lon="5.92696">
        <ele>1863.1999511719</ele>
        <time>2023-08-12T14:23:56.000Z</time>
      </trkpt>
      <trkpt lat="45.14524" lon="5.92695">
        <ele>1863.4000244141</ele>
        <time>2023-08-12T14:23:58.000Z</time>
      </trkpt>
      <trkpt lat="45.14519" lon="5.92694">
        <ele>1864.4000244141</ele>
        <time>2023-08-12T14:24:06.000Z</time>
      </trkpt>
      <trkpt lat="45.14519" lon="5.92693">
        <ele>1864.5999755859</ele>
        <time>2023-08-12T14:24:10.000Z</time>
      </trkpt>
      <trkpt lat="45.1452" lon="5.92689">
        <ele>1864.4000244141</ele>
        <time>2023-08-12T14:24:19.000Z</time>
      </trkpt>
      <trkpt lat="45.14516" lon="5.92683">
        <ele>1866</ele>
        <time>2023-08-12T14:24:33.000Z</time>
      </trkpt>
      <trkpt lat="45.14513" lon="5.92678">
        <ele>1866.5999755859</ele>
        <time>2023-08-12T14:24:39.000Z</time>
      </trkpt>
      <trkpt lat="45.14512" lon="5.92677">
        <ele>1867.1999511719</ele>
        <time>2023-08-12T14:24:44.000Z</time>
      </trkpt>
      <trkpt lat="45.14509" lon="5.92687">
        <ele>1866.8000488281</ele>
        <time>2023-08-12T14:25:02.000Z</time>
      </trkpt>
      <trkpt lat="45.14506" lon="5.9269">
        <ele>1866.8000488281</ele>
        <time>2023-08-12T14:25:12.000Z</time>
      </trkpt>
      <trkpt lat="45.14507" lon="5.9269">
        <ele>1866.5999755859</ele>
        <time>2023-08-12T14:25:18.000Z</time>
      </trkpt>
      <trkpt lat="45.14484" lon="5.92669">
        <ele>1871.1999511719</ele>
        <time>2023-08-12T14:26:07.000Z</time>
      </trkpt>
      <trkpt lat="45.14478" lon="5.92661">
        <ele>1873</ele>
        <time>2023-08-12T14:26:19.000Z</time>
      </trkpt>
      <trkpt lat="45.14478" lon="5.9266">
        <ele>1873.1999511719</ele>
        <time>2023-08-12T14:26:20.000Z</time>
      </trkpt>
      <trkpt lat="45.14474" lon="5.92653">
        <ele>1876.4000244141</ele>
        <time>2023-08-12T14:26:49.000Z</time>
      </trkpt>
      <trkpt lat="45.14474" lon="5.92654">
        <ele>1877</ele>
        <time>2023-08-12T14:26:53.000Z</time>
      </trkpt>
      <trkpt lat="45.14473" lon="5.92656">
        <ele>1877</ele>
        <time>2023-08-12T14:26:54.000Z</time>
      </trkpt>
      <trkpt lat="45.1439" lon="5.92586">
        <ele>1910.4000244141</ele>
        <time>2023-08-12T14:31:34.000Z</time>
      </trkpt>
      <trkpt lat="45.14389" lon="5.92583">
        <ele>1910.8000488281</ele>
        <time>2023-08-12T14:31:37.000Z</time>
      </trkpt>
      <trkpt lat="45.14385" lon="5.92579">
        <ele>1911.1999511719</ele>
        <time>2023-08-12T14:31:44.000Z</time>
      </trkpt>
      <trkpt lat="45.14381" lon="5.92572">
        <ele>1913.4000244141</ele>
        <time>2023-08-12T14:32:22.000Z</time>
      </trkpt>
      <trkpt lat="45.14381" lon="5.92571">
        <ele>1913.5999755859</ele>
        <time>2023-08-12T14:32:24.000Z</time>
      </trkpt>
      <trkpt lat="45.14379" lon="5.92567">
        <ele>1914.4000244141</ele>
        <time>2023-08-12T14:32:29.000Z</time>
      </trkpt>
      <trkpt lat="45.14381" lon="5.92566">
        <ele>1915</ele>
        <time>2023-08-12T14:32:34.000Z</time>
      </trkpt>
      <trkpt lat="45.14381" lon="5.92566">
        <ele>1915.5999755859</ele>
        <time>2023-08-12T14:32:36.000Z</time>
      </trkpt>
      <trkpt lat="45.1438" lon="5.92564">
        <ele>1916</ele>
        <time>2023-08-12T14:32:41.000Z</time>
      </trkpt>
      <trkpt lat="45.14379" lon="5.92557">
        <ele>1917</ele>
        <time>2023-08-12T14:32:51.000Z</time>
      </trkpt>
      <trkpt lat="45.14375" lon="5.92552">
        <ele>1917.8000488281</ele>
        <time>2023-08-12T14:32:58.000Z</time>
      </trkpt>
      <trkpt lat="45.14375" lon="5.92552">
        <ele>1917.8000488281</ele>
        <time>2023-08-12T14:32:59.000Z</time>
      </trkpt>
      <trkpt lat="45.14375" lon="5.92556">
        <ele>1917.1999511719</ele>
        <time>2023-08-12T14:33:06.000Z</time>
      </trkpt>
      <trkpt lat="45.14374" lon="5.92554">
        <ele>1917</ele>
        <time>2023-08-12T14:33:13.000Z</time>
      </trkpt>
      <trkpt lat="45.14374" lon="5.92554">
        <ele>1916.5999755859</ele>
        <time>2023-08-12T14:33:19.000Z</time>
      </trkpt>
      <trkpt lat="45.14374" lon="5.92553">
        <ele>1916.4000244141</ele>
        <time>2023-08-12T14:33:21.000Z</time>
      </trkpt>
      <trkpt lat="45.14369" lon="5.92549">
        <ele>1916.4000244141</ele>
        <time>2023-08-12T14:33:28.000Z</time>
      </trkpt>
      <trkpt lat="45.14364" lon="5.92541">
        <ele>1917</ele>
        <time>2023-08-12T14:33:35.000Z</time>
      </trkpt>
      <trkpt lat="45.14361" lon="5.92533">
        <ele>1917.4000244141</ele>
        <time>2023-08-12T14:33:43.000Z</time>
      </trkpt>
      <trkpt lat="45.14359" lon="5.92531">
        <ele>1917.5999755859</ele>
        <time>2023-08-12T14:33:47.000Z</time>
      </trkpt>
      <trkpt lat="45.14361" lon="5.92533">
        <ele>1917.8000488281</ele>
        <time>2023-08-12T14:33:51.000Z</time>
      </trkpt>
      <trkpt lat="45.14361" lon="5.92533">
        <ele>1918</ele>
        <time>2023-08-12T14:33:52.000Z</time>
      </trkpt>
      <trkpt lat="45.14363" lon="5.92534">
        <ele>1917.8000488281</ele>
        <time>2023-08-12T14:33:59.000Z</time>
      </trkpt>
      <trkpt lat="45.14361" lon="5.92532">
        <ele>1917.4000244141</ele>
        <time>2023-08-12T14:34:09.000Z</time>
      </trkpt>
      <trkpt lat="45.14359" lon="5.92522">
        <ele>1917.1999511719</ele>
        <time>2023-08-12T14:34:18.000Z</time>
      </trkpt>
      <trkpt lat="45.14356" lon="5.92515">
        <ele>1916.8000488281</ele>
        <time>2023-08-12T14:34:26.000Z</time>
      </trkpt>
      <trkpt lat="45.14356" lon="5.9251">
        <ele>1917</ele>
        <time>2023-08-12T14:34:32.000Z</time>
      </trkpt>
      <trkpt lat="45.14352" lon="5.9251">
        <ele>1918.5999755859</ele>
        <time>2023-08-12T14:34:43.000Z</time>
      </trkpt>
      <trkpt lat="45.14352" lon="5.9251">
        <ele>1918.8000488281</ele>
        <time>2023-08-12T14:34:44.000Z</time>
      </trkpt>
      <trkpt lat="45.14347" lon="5.9251">
        <ele>1920.8000488281</ele>
        <time>2023-08-12T14:34:57.000Z</time>
      </trkpt>
      <trkpt lat="45.14347" lon="5.9251">
        <ele>1920.8000488281</ele>
        <time>2023-08-12T14:34:58.000Z</time>
      </trkpt>
      <trkpt lat="45.14346" lon="5.92505">
        <ele>1921.4000244141</ele>
        <time>2023-08-12T14:35:06.000Z</time>
      </trkpt>
      <trkpt lat="45.14344" lon="5.92502">
        <ele>1922</ele>
        <time>2023-08-12T14:35:10.000Z</time>
      </trkpt>
      <trkpt lat="45.14341" lon="5.92501">
        <ele>1922.4000244141</ele>
        <time>2023-08-12T14:35:15.000Z</time>
      </trkpt>
      <trkpt lat="45.14338" lon="5.92501">
        <ele>1923</ele>
        <time>2023-08-12T14:35:21.000Z</time>
      </trkpt>
      <trkpt lat="45.14338" lon="5.92502">
        <ele>1923</ele>
        <time>2023-08-12T14:35:22.000Z</time>
      </trkpt>
      <trkpt lat="45.14334" lon="5.92496">
        <ele>1924</ele>
        <time>2023-08-12T14:35:30.000Z</time>
      </trkpt>
      <trkpt lat="45.14333" lon="5.92495">
        <ele>1924.1999511719</ele>
        <time>2023-08-12T14:35:32.000Z</time>
      </trkpt>
      <trkpt lat="45.14331" lon="5.92494">
        <ele>1925</ele>
        <time>2023-08-12T14:35:38.000Z</time>
      </trkpt>
      <trkpt lat="45.14331" lon="5.92495">
        <ele>1925.1999511719</ele>
        <time>2023-08-12T14:35:39.000Z</time>
      </trkpt>
      <trkpt lat="45.14329" lon="5.92498">
        <ele>1926.1999511719</ele>
        <time>2023-08-12T14:35:46.000Z</time>
      </trkpt>
      <trkpt lat="45.14329" lon="5.92499">
        <ele>1926.1999511719</ele>
        <time>2023-08-12T14:35:47.000Z</time>
      </trkpt>
      <trkpt lat="45.14327" lon="5.92501">
        <ele>1926.8000488281</ele>
        <time>2023-08-12T14:35:57.000Z</time>
      </trkpt>
      <trkpt lat="45.14325" lon="5.92498">
        <ele>1927.4000244141</ele>
        <time>2023-08-12T14:36:00.000Z</time>
      </trkpt>
      <trkpt lat="45.14323" lon="5.92495">
        <ele>1927.8000488281</ele>
        <time>2023-08-12T14:36:05.000Z</time>
      </trkpt>
      <trkpt lat="45.1432" lon="5.92494">
        <ele>1928.5999755859</ele>
        <time>2023-08-12T14:36:10.000Z</time>
      </trkpt>
      <trkpt lat="45.14318" lon="5.92493">
        <ele>1929</ele>
        <time>2023-08-12T14:36:13.000Z</time>
      </trkpt>
      <trkpt lat="45.14317" lon="5.9249">
        <ele>1929.5999755859</ele>
        <time>2023-08-12T14:36:20.000Z</time>
      </trkpt>
      <trkpt lat="45.14317" lon="5.9249">
        <ele>1930</ele>
        <time>2023-08-12T14:36:22.000Z</time>
      </trkpt>
      <trkpt lat="45.14313" lon="5.92488">
        <ele>1930.5999755859</ele>
        <time>2023-08-12T14:36:28.000Z</time>
      </trkpt>
      <trkpt lat="45.14313" lon="5.92488">
        <ele>1931</ele>
        <time>2023-08-12T14:36:30.000Z</time>
      </trkpt>
      <trkpt lat="45.14311" lon="5.92491">
        <ele>1931.8000488281</ele>
        <time>2023-08-12T14:36:37.000Z</time>
      </trkpt>
      <trkpt lat="45.14311" lon="5.92491">
        <ele>1931.8000488281</ele>
        <time>2023-08-12T14:36:38.000Z</time>
      </trkpt>
      <trkpt lat="45.14308" lon="5.92494">
        <ele>1932.5999755859</ele>
        <time>2023-08-12T14:36:46.000Z</time>
      </trkpt>
      <trkpt lat="45.14308" lon="5.92495">
        <ele>1932.8000488281</ele>
        <time>2023-08-12T14:36:48.000Z</time>
      </trkpt>
      <trkpt lat="45.14306" lon="5.92496">
        <ele>1933.5999755859</ele>
        <time>2023-08-12T14:36:55.000Z</time>
      </trkpt>
      <trkpt lat="45.14304" lon="5.92499">
        <ele>1934</ele>
        <time>2023-08-12T14:36:58.000Z</time>
      </trkpt>
      <trkpt lat="45.14301" lon="5.92503">
        <ele>1934.8000488281</ele>
        <time>2023-08-12T14:37:04.000Z</time>
      </trkpt>
      <trkpt lat="45.14301" lon="5.92504">
        <ele>1935</ele>
        <time>2023-08-12T14:37:06.000Z</time>
      </trkpt>
      <trkpt lat="45.143" lon="5.92501">
        <ele>1936</ele>
        <time>2023-08-12T14:37:13.000Z</time>
      </trkpt>
      <trkpt lat="45.14299" lon="5.92501">
        <ele>1936</ele>
        <time>2023-08-12T14:37:14.000Z</time>
      </trkpt>
      <trkpt lat="45.14297" lon="5.92495">
        <ele>1937</ele>
        <time>2023-08-12T14:37:24.000Z</time>
      </trkpt>
      <trkpt lat="45.14296" lon="5.92495">
        <ele>1937.1999511719</ele>
        <time>2023-08-12T14:37:25.000Z</time>
      </trkpt>
      <trkpt lat="45.14294" lon="5.92504">
        <ele>1937.5999755859</ele>
        <time>2023-08-12T14:37:35.000Z</time>
      </trkpt>
      <trkpt lat="45.14293" lon="5.92504">
        <ele>1938.1999511719</ele>
        <time>2023-08-12T14:37:37.000Z</time>
      </trkpt>
      <trkpt lat="45.14293" lon="5.92502">
        <ele>1938.4000244141</ele>
        <time>2023-08-12T14:37:42.000Z</time>
      </trkpt>
      <trkpt lat="45.14293" lon="5.92507">
        <ele>1939.1999511719</ele>
        <time>2023-08-12T14:37:47.000Z</time>
      </trkpt>
      <trkpt lat="45.1429" lon="5.92509">
        <ele>1940.4000244141</ele>
        <time>2023-08-12T14:37:56.000Z</time>
      </trkpt>
      <trkpt lat="45.1429" lon="5.92512">
        <ele>1941.1999511719</ele>
        <time>2023-08-12T14:38:04.000Z</time>
      </trkpt>
      <trkpt lat="45.1429" lon="5.92513">
        <ele>1941.4000244141</ele>
        <time>2023-08-12T14:38:07.000Z</time>
      </trkpt>
      <trkpt lat="45.1429" lon="5.92512">
        <ele>1941.5999755859</ele>
        <time>2023-08-12T14:38:13.000Z</time>
      </trkpt>
      <trkpt lat="45.14289" lon="5.92516">
        <ele>1942.4000244141</ele>
        <time>2023-08-12T14:38:19.000Z</time>
      </trkpt>
      <trkpt lat="45.1429" lon="5.92517">
        <ele>1942.4000244141</ele>
        <time>2023-08-12T14:38:20.000Z</time>
      </trkpt>
      <trkpt lat="45.14293" lon="5.92522">
        <ele>1943</ele>
        <time>2023-08-12T14:38:28.000Z</time>
      </trkpt>
      <trkpt lat="45.14295" lon="5.92528">
        <ele>1943.1999511719</ele>
        <time>2023-08-12T14:38:34.000Z</time>
      </trkpt>
      <trkpt lat="45.14294" lon="5.92527">
        <ele>1943.4000244141</ele>
        <time>2023-08-12T14:38:37.000Z</time>
      </trkpt>
      <trkpt lat="45.14293" lon="5.92526">
        <ele>1944.1999511719</ele>
        <time>2023-08-12T14:38:40.000Z</time>
      </trkpt>
      <trkpt lat="45.14289" lon="5.92525">
        <ele>1944.5999755859</ele>
        <time>2023-08-12T14:38:44.000Z</time>
      </trkpt>
      <trkpt lat="45.14288" lon="5.92524">
        <ele>1944.8000488281</ele>
        <time>2023-08-12T14:38:45.000Z</time>
      </trkpt>
      <trkpt lat="45.14287" lon="5.92524">
        <ele>1945</ele>
        <time>2023-08-12T14:38:47.000Z</time>
      </trkpt>
      <trkpt lat="45.14284" lon="5.92521">
        <ele>1945.4000244141</ele>
        <time>2023-08-12T14:38:54.000Z</time>
      </trkpt>
      <trkpt lat="45.14281" lon="5.92523">
        <ele>1945.5999755859</ele>
        <time>2023-08-12T14:39:00.000Z</time>
      </trkpt>
      <trkpt lat="45.1428" lon="5.92525">
        <ele>1945.8000488281</ele>
        <time>2023-08-12T14:39:02.000Z</time>
      </trkpt>
      <trkpt lat="45.14279" lon="5.92526">
        <ele>1945.8000488281</ele>
        <time>2023-08-12T14:39:03.000Z</time>
      </trkpt>
      <trkpt lat="45.14276" lon="5.92525">
        <ele>1946.4000244141</ele>
        <time>2023-08-12T14:39:09.000Z</time>
      </trkpt>
      <trkpt lat="45.14276" lon="5.92525">
        <ele>1946.5999755859</ele>
        <time>2023-08-12T14:39:10.000Z</time>
      </trkpt>
      <trkpt lat="45.14275" lon="5.92524">
        <ele>1946.5999755859</ele>
        <time>2023-08-12T14:39:11.000Z</time>
      </trkpt>
      <trkpt lat="45.14274" lon="5.92525">
        <ele>1947.4000244141</ele>
        <time>2023-08-12T14:39:19.000Z</time>
      </trkpt>
      <trkpt lat="45.14274" lon="5.92526">
        <ele>1947.5999755859</ele>
        <time>2023-08-12T14:39:21.000Z</time>
      </trkpt>
      <trkpt lat="45.14273" lon="5.92526">
        <ele>1948.1999511719</ele>
        <time>2023-08-12T14:39:26.000Z</time>
      </trkpt>
      <trkpt lat="45.14272" lon="5.92523">
        <ele>1948</ele>
        <time>2023-08-12T14:39:33.000Z</time>
      </trkpt>
      <trkpt lat="45.1427" lon="5.92515">
        <ele>1948.1999511719</ele>
        <time>2023-08-12T14:39:42.000Z</time>
      </trkpt>
      <trkpt lat="45.14269" lon="5.92513">
        <ele>1948.5999755859</ele>
        <time>2023-08-12T14:39:49.000Z</time>
      </trkpt>
      <trkpt lat="45.14268" lon="5.92512">
        <ele>1948.8000488281</ele>
        <time>2023-08-12T14:39:50.000Z</time>
      </trkpt>
      <trkpt lat="45.14263" lon="5.92511">
        <ele>1950</ele>
        <time>2023-08-12T14:39:57.000Z</time>
      </trkpt>
      <trkpt lat="45.14263" lon="5.92511">
        <ele>1950.1999511719</ele>
        <time>2023-08-12T14:39:59.000Z</time>
      </trkpt>
      <trkpt lat="45.14263" lon="5.92511">
        <ele>1951</ele>
        <time>2023-08-12T14:40:03.000Z</time>
      </trkpt>
      <trkpt lat="45.14263" lon="5.9251">
        <ele>1951.4000244141</ele>
        <time>2023-08-12T14:40:09.000Z</time>
      </trkpt>
      <trkpt lat="45.1426" lon="5.92509">
        <ele>1952</ele>
        <time>2023-08-12T14:40:13.000Z</time>
      </trkpt>
      <trkpt lat="45.14258" lon="5.92509">
        <ele>1952.5999755859</ele>
        <time>2023-08-12T14:40:18.000Z</time>
      </trkpt>
      <trkpt lat="45.14256" lon="5.92512">
        <ele>1953.1999511719</ele>
        <time>2023-08-12T14:40:24.000Z</time>
      </trkpt>
      <trkpt lat="45.14256" lon="5.92512">
        <ele>1953.1999511719</ele>
        <time>2023-08-12T14:40:25.000Z</time>
      </trkpt>
      <trkpt lat="45.14251" lon="5.92512">
        <ele>1953.8000488281</ele>
        <time>2023-08-12T14:40:33.000Z</time>
      </trkpt>
      <trkpt lat="45.14248" lon="5.92512">
        <ele>1954.1999511719</ele>
        <time>2023-08-12T14:40:37.000Z</time>
      </trkpt>
      <trkpt lat="45.14247" lon="5.92506">
        <ele>1954.8000488281</ele>
        <time>2023-08-12T14:40:43.000Z</time>
      </trkpt>
      <trkpt lat="45.14243" lon="5.925">
        <ele>1954.8000488281</ele>
        <time>2023-08-12T14:40:52.000Z</time>
      </trkpt>
      <trkpt lat="45.14242" lon="5.92502">
        <ele>1955.1999511719</ele>
        <time>2023-08-12T14:40:59.000Z</time>
      </trkpt>
      <trkpt lat="45.14243" lon="5.92498">
        <ele>1955.1999511719</ele>
        <time>2023-08-12T14:41:10.000Z</time>
      </trkpt>
      <trkpt lat="45.14244" lon="5.925">
        <ele>1955.1999511719</ele>
        <time>2023-08-12T14:41:17.000Z</time>
      </trkpt>
      <trkpt lat="45.14244" lon="5.92504">
        <ele>1954.5999755859</ele>
        <time>2023-08-12T14:41:31.000Z</time>
      </trkpt>
      <trkpt lat="45.14244" lon="5.92503">
        <ele>1954.4000244141</ele>
        <time>2023-08-12T14:41:36.000Z</time>
      </trkpt>
      <trkpt lat="45.14245" lon="5.92501">
        <ele>1953.5999755859</ele>
        <time>2023-08-12T14:41:41.000Z</time>
      </trkpt>
      <trkpt lat="45.14244" lon="5.925">
        <ele>1953.1999511719</ele>
        <time>2023-08-12T14:41:47.000Z</time>
      </trkpt>
      <trkpt lat="45.14244" lon="5.92499">
        <ele>1953.1999511719</ele>
        <time>2023-08-12T14:41:48.000Z</time>
      </trkpt>
      <trkpt lat="45.14245" lon="5.925">
        <ele>1953.1999511719</ele>
        <time>2023-08-12T14:41:55.000Z</time>
      </trkpt>
      <trkpt lat="45.14243" lon="5.925">
        <ele>1953.1999511719</ele>
        <time>2023-08-12T14:42:03.000Z</time>
      </trkpt>
      <trkpt lat="45.14242" lon="5.925">
        <ele>1953</ele>
        <time>2023-08-12T14:42:11.000Z</time>
      </trkpt>
      <trkpt lat="45.14242" lon="5.92497">
        <ele>1952.8000488281</ele>
        <time>2023-08-12T14:42:18.000Z</time>
      </trkpt>
      <trkpt lat="45.14244" lon="5.92492">
        <ele>1952.5999755859</ele>
        <time>2023-08-12T14:42:25.000Z</time>
      </trkpt>
      <trkpt lat="45.14242" lon="5.925">
        <ele>1952.1999511719</ele>
        <time>2023-08-12T14:42:33.000Z</time>
      </trkpt>
      <trkpt lat="45.14242" lon="5.92501">
        <ele>1952.1999511719</ele>
        <time>2023-08-12T14:42:34.000Z</time>
      </trkpt>
      <trkpt lat="45.1424" lon="5.92499">
        <ele>1952.1999511719</ele>
        <time>2023-08-12T14:42:40.000Z</time>
      </trkpt>
      <trkpt lat="45.14241" lon="5.92498">
        <ele>1952.1999511719</ele>
        <time>2023-08-12T14:42:49.000Z</time>
      </trkpt>
      <trkpt lat="45.14245" lon="5.92502">
        <ele>1951.8000488281</ele>
        <time>2023-08-12T14:42:58.000Z</time>
      </trkpt>
      <trkpt lat="45.14242" lon="5.92502">
        <ele>1951.5999755859</ele>
        <time>2023-08-12T14:43:06.000Z</time>
      </trkpt>
      <trkpt lat="45.14242" lon="5.92505">
        <ele>1951.4000244141</ele>
        <time>2023-08-12T14:43:16.000Z</time>
      </trkpt>
      <trkpt lat="45.14243" lon="5.92502">
        <ele>1951.4000244141</ele>
        <time>2023-08-12T14:43:25.000Z</time>
      </trkpt>
      <trkpt lat="45.14244" lon="5.92499">
        <ele>1951.1999511719</ele>
        <time>2023-08-12T14:43:33.000Z</time>
      </trkpt>
      <trkpt lat="45.14243" lon="5.925">
        <ele>1951.1999511719</ele>
        <time>2023-08-12T14:43:36.000Z</time>
      </trkpt>
      <trkpt lat="45.14243" lon="5.925">
        <ele>1951.1999511719</ele>
        <time>2023-08-12T14:43:39.000Z</time>
      </trkpt>
      <trkpt lat="45.14245" lon="5.92501">
        <ele>1951</ele>
        <time>2023-08-12T14:43:46.000Z</time>
      </trkpt>
      <trkpt lat="45.14245" lon="5.92497">
        <ele>1950.8000488281</ele>
        <time>2023-08-12T14:43:55.000Z</time>
      </trkpt>
      <trkpt lat="45.14244" lon="5.92498">
        <ele>1950.8000488281</ele>
        <time>2023-08-12T14:44:03.000Z</time>
      </trkpt>
      <trkpt lat="45.14244" lon="5.92503">
        <ele>1950.5999755859</ele>
        <time>2023-08-12T14:44:10.000Z</time>
      </trkpt>
      <trkpt lat="45.14244" lon="5.92504">
        <ele>1950.4000244141</ele>
        <time>2023-08-12T14:44:16.000Z</time>
      </trkpt>
      <trkpt lat="45.14244" lon="5.92501">
        <ele>1950.4000244141</ele>
        <time>2023-08-12T14:44:24.000Z</time>
      </trkpt>
      <trkpt lat="45.14246" lon="5.92501">
        <ele>1950.5999755859</ele>
        <time>2023-08-12T14:44:33.000Z</time>
      </trkpt>
      <trkpt lat="45.14245" lon="5.92499">
        <ele>1950.5999755859</ele>
        <time>2023-08-12T14:44:42.000Z</time>
      </trkpt>
      <trkpt lat="45.14244" lon="5.92499">
        <ele>1950.4000244141</ele>
        <time>2023-08-12T14:44:53.000Z</time>
      </trkpt>
      <trkpt lat="45.14245" lon="5.925">
        <ele>1950.4000244141</ele>
        <time>2023-08-12T14:45:05.000Z</time>
      </trkpt>
      <trkpt lat="45.14243" lon="5.92502">
        <ele>1950.4000244141</ele>
        <time>2023-08-12T14:45:14.000Z</time>
      </trkpt>
      <trkpt lat="45.14244" lon="5.92501">
        <ele>1950.4000244141</ele>
        <time>2023-08-12T14:45:25.000Z</time>
      </trkpt>
      <trkpt lat="45.14245" lon="5.92505">
        <ele>1950.4000244141</ele>
        <time>2023-08-12T14:45:32.000Z</time>
      </trkpt>
      <trkpt lat="45.14246" lon="5.92506">
        <ele>1950.4000244141</ele>
        <time>2023-08-12T14:45:40.000Z</time>
      </trkpt>
      <trkpt lat="45.14245" lon="5.92502">
        <ele>1950.1999511719</ele>
        <time>2023-08-12T14:45:50.000Z</time>
      </trkpt>
      <trkpt lat="45.14243" lon="5.925">
        <ele>1950.4000244141</ele>
        <time>2023-08-12T14:45:57.000Z</time>
      </trkpt>
      <trkpt lat="45.14242" lon="5.92502">
        <ele>1950.1999511719</ele>
        <time>2023-08-12T14:46:06.000Z</time>
      </trkpt>
      <trkpt lat="45.1424" lon="5.92505">
        <ele>1950.1999511719</ele>
        <time>2023-08-12T14:46:11.000Z</time>
      </trkpt>
      <trkpt lat="45.14241" lon="5.92505">
        <ele>1950</ele>
        <time>2023-08-12T14:46:14.000Z</time>
      </trkpt>
      <trkpt lat="45.1424" lon="5.92509">
        <ele>1950</ele>
        <time>2023-08-12T14:46:28.000Z</time>
      </trkpt>
      <trkpt lat="45.1424" lon="5.92506">
        <ele>1950</ele>
        <time>2023-08-12T14:46:35.000Z</time>
      </trkpt>
      <trkpt lat="45.14241" lon="5.92506">
        <ele>1950</ele>
        <time>2023-08-12T14:46:42.000Z</time>
      </trkpt>
      <trkpt lat="45.14243" lon="5.92499">
        <ele>1950.1999511719</ele>
        <time>2023-08-12T14:46:50.000Z</time>
      </trkpt>
      <trkpt lat="45.14244" lon="5.92499">
        <ele>1950</ele>
        <time>2023-08-12T14:46:57.000Z</time>
      </trkpt>
      <trkpt lat="45.14243" lon="5.92508">
        <ele>1949.8000488281</ele>
        <time>2023-08-12T14:47:07.000Z</time>
      </trkpt>
      <trkpt lat="45.14241" lon="5.92511">
        <ele>1949.8000488281</ele>
        <time>2023-08-12T14:47:14.000Z</time>
      </trkpt>
      <trkpt lat="45.14242" lon="5.9251">
        <ele>1949.8000488281</ele>
        <time>2023-08-12T14:47:20.000Z</time>
      </trkpt>
      <trkpt lat="45.14243" lon="5.92509">
        <ele>1949.5999755859</ele>
        <time>2023-08-12T14:47:30.000Z</time>
      </trkpt>
      <trkpt lat="45.14242" lon="5.92506">
        <ele>1949.5999755859</ele>
        <time>2023-08-12T14:47:36.000Z</time>
      </trkpt>
      <trkpt lat="45.14243" lon="5.92501">
        <ele>1950</ele>
        <time>2023-08-12T14:47:45.000Z</time>
      </trkpt>
      <trkpt lat="45.14244" lon="5.925">
        <ele>1950.1999511719</ele>
        <time>2023-08-12T14:47:52.000Z</time>
      </trkpt>
      <trkpt lat="45.14244" lon="5.92503">
        <ele>1950.4000244141</ele>
        <time>2023-08-12T14:47:59.000Z</time>
      </trkpt>
      <trkpt lat="45.14244" lon="5.92503">
        <ele>1949.8000488281</ele>
        <time>2023-08-12T14:48:05.000Z</time>
      </trkpt>
      <trkpt lat="45.14246" lon="5.92498">
        <ele>1950.4000244141</ele>
        <time>2023-08-12T14:48:14.000Z</time>
      </trkpt>
      <trkpt lat="45.14242" lon="5.92498">
        <ele>1950.1999511719</ele>
        <time>2023-08-12T14:48:22.000Z</time>
      </trkpt>
      <trkpt lat="45.14239" lon="5.92495">
        <ele>1949.1999511719</ele>
        <time>2023-08-12T14:48:29.000Z</time>
      </trkpt>
      <trkpt lat="45.14239" lon="5.92496">
        <ele>1949.1999511719</ele>
        <time>2023-08-12T14:48:30.000Z</time>
      </trkpt>
      <trkpt lat="45.14234" lon="5.92495">
        <ele>1948.5999755859</ele>
        <time>2023-08-12T14:48:39.000Z</time>
      </trkpt>
      <trkpt lat="45.14231" lon="5.92494">
        <ele>1948</ele>
        <time>2023-08-12T14:48:42.000Z</time>
      </trkpt>
      <trkpt lat="45.14231" lon="5.92494">
        <ele>1947.4000244141</ele>
        <time>2023-08-12T14:48:46.000Z</time>
      </trkpt>
      <trkpt lat="45.14232" lon="5.92494">
        <ele>1947</ele>
        <time>2023-08-12T14:48:49.000Z</time>
      </trkpt>
      <trkpt lat="45.14232" lon="5.92493">
        <ele>1946</ele>
        <time>2023-08-12T14:48:53.000Z</time>
      </trkpt>
      <trkpt lat="45.1423" lon="5.92492">
        <ele>1945.8000488281</ele>
        <time>2023-08-12T14:48:56.000Z</time>
      </trkpt>
      <trkpt lat="45.14225" lon="5.9249">
        <ele>1945.4000244141</ele>
        <time>2023-08-12T14:49:01.000Z</time>
      </trkpt>
      <trkpt lat="45.14224" lon="5.9249">
        <ele>1944.5999755859</ele>
        <time>2023-08-12T14:49:04.000Z</time>
      </trkpt>
      <trkpt lat="45.14222" lon="5.92486">
        <ele>1943.8000488281</ele>
        <time>2023-08-12T14:49:09.000Z</time>
      </trkpt>
      <trkpt lat="45.14221" lon="5.92486">
        <ele>1943.4000244141</ele>
        <time>2023-08-12T14:49:10.000Z</time>
      </trkpt>
      <trkpt lat="45.14218" lon="5.92485">
        <ele>1942.1999511719</ele>
        <time>2023-08-12T14:49:18.000Z</time>
      </trkpt>
      <trkpt lat="45.14217" lon="5.92485">
        <ele>1942.1999511719</ele>
        <time>2023-08-12T14:49:20.000Z</time>
      </trkpt>
      <trkpt lat="45.14214" lon="5.92479">
        <ele>1941.1999511719</ele>
        <time>2023-08-12T14:49:27.000Z</time>
      </trkpt>
      <trkpt lat="45.14214" lon="5.92478">
        <ele>1941.1999511719</ele>
        <time>2023-08-12T14:49:28.000Z</time>
      </trkpt>
      <trkpt lat="45.14209" lon="5.92472">
        <ele>1940.8000488281</ele>
        <time>2023-08-12T14:49:35.000Z</time>
      </trkpt>
      <trkpt lat="45.14203" lon="5.92466">
        <ele>1941</ele>
        <time>2023-08-12T14:49:42.000Z</time>
      </trkpt>
      <trkpt lat="45.14199" lon="5.92463">
        <ele>1941</ele>
        <time>2023-08-12T14:49:48.000Z</time>
      </trkpt>
      <trkpt lat="45.14197" lon="5.92466">
        <ele>1940.1999511719</ele>
        <time>2023-08-12T14:49:53.000Z</time>
      </trkpt>
      <trkpt lat="45.14197" lon="5.92466">
        <ele>1940.1999511719</ele>
        <time>2023-08-12T14:49:54.000Z</time>
      </trkpt>
      <trkpt lat="45.14192" lon="5.92466">
        <ele>1939</ele>
        <time>2023-08-12T14:50:01.000Z</time>
      </trkpt>
      <trkpt lat="45.14191" lon="5.92466">
        <ele>1938</ele>
        <time>2023-08-12T14:50:06.000Z</time>
      </trkpt>
      <trkpt lat="45.14191" lon="5.92463">
        <ele>1937</ele>
        <time>2023-08-12T14:50:14.000Z</time>
      </trkpt>
      <trkpt lat="45.1419" lon="5.92462">
        <ele>1937</ele>
        <time>2023-08-12T14:50:15.000Z</time>
      </trkpt>
      <trkpt lat="45.14186" lon="5.9246">
        <ele>1936</ele>
        <time>2023-08-12T14:50:20.000Z</time>
      </trkpt>
      <trkpt lat="45.14186" lon="5.92459">
        <ele>1935.8000488281</ele>
        <time>2023-08-12T14:50:21.000Z</time>
      </trkpt>
      <trkpt lat="45.14184" lon="5.92457">
        <ele>1934.8000488281</ele>
        <time>2023-08-12T14:50:27.000Z</time>
      </trkpt>
      <trkpt lat="45.14183" lon="5.92454">
        <ele>1934.1999511719</ele>
        <time>2023-08-12T14:50:29.000Z</time>
      </trkpt>
      <trkpt lat="45.14182" lon="5.92452">
        <ele>1933.5999755859</ele>
        <time>2023-08-12T14:50:32.000Z</time>
      </trkpt>
      <trkpt lat="45.14181" lon="5.9245">
        <ele>1933</ele>
        <time>2023-08-12T14:50:36.000Z</time>
      </trkpt>
      <trkpt lat="45.14178" lon="5.92448">
        <ele>1932.5999755859</ele>
        <time>2023-08-12T14:50:40.000Z</time>
      </trkpt>
      <trkpt lat="45.14175" lon="5.92443">
        <ele>1932.1999511719</ele>
        <time>2023-08-12T14:50:43.000Z</time>
      </trkpt>
      <trkpt lat="45.1417" lon="5.92435">
        <ele>1931.8000488281</ele>
        <time>2023-08-12T14:50:52.000Z</time>
      </trkpt>
      <trkpt lat="45.14168" lon="5.92435">
        <ele>1932.1999511719</ele>
        <time>2023-08-12T14:50:59.000Z</time>
      </trkpt>
      <trkpt lat="45.14165" lon="5.92429">
        <ele>1931.4000244141</ele>
        <time>2023-08-12T14:51:05.000Z</time>
      </trkpt>
      <trkpt lat="45.14161" lon="5.92426">
        <ele>1930.1999511719</ele>
        <time>2023-08-12T14:51:11.000Z</time>
      </trkpt>
      <trkpt lat="45.14157" lon="5.92423">
        <ele>1929.4000244141</ele>
        <time>2023-08-12T14:51:18.000Z</time>
      </trkpt>
      <trkpt lat="45.14156" lon="5.92422">
        <ele>1929.1999511719</ele>
        <time>2023-08-12T14:51:19.000Z</time>
      </trkpt>
      <trkpt lat="45.14155" lon="5.92422">
        <ele>1928.1999511719</ele>
        <time>2023-08-12T14:51:26.000Z</time>
      </trkpt>
      <trkpt lat="45.14154" lon="5.92423">
        <ele>1928.1999511719</ele>
        <time>2023-08-12T14:51:27.000Z</time>
      </trkpt>
      <trkpt lat="45.14152" lon="5.92423">
        <ele>1927.1999511719</ele>
        <time>2023-08-12T14:51:32.000Z</time>
      </trkpt>
      <trkpt lat="45.14152" lon="5.92423">
        <ele>1927</ele>
        <time>2023-08-12T14:51:33.000Z</time>
      </trkpt>
      <trkpt lat="45.14148" lon="5.9242">
        <ele>1926</ele>
        <time>2023-08-12T14:51:40.000Z</time>
      </trkpt>
      <trkpt lat="45.14147" lon="5.92419">
        <ele>1925.8000488281</ele>
        <time>2023-08-12T14:51:41.000Z</time>
      </trkpt>
      <trkpt lat="45.14146" lon="5.92416">
        <ele>1925</ele>
        <time>2023-08-12T14:51:46.000Z</time>
      </trkpt>
      <trkpt lat="45.14146" lon="5.92415">
        <ele>1924.8000488281</ele>
        <time>2023-08-12T14:51:48.000Z</time>
      </trkpt>
      <trkpt lat="45.14144" lon="5.92413">
        <ele>1924</ele>
        <time>2023-08-12T14:51:54.000Z</time>
      </trkpt>
      <trkpt lat="45.14141" lon="5.92415">
        <ele>1923.1999511719</ele>
        <time>2023-08-12T14:51:58.000Z</time>
      </trkpt>
      <trkpt lat="45.14137" lon="5.92416">
        <ele>1922.8000488281</ele>
        <time>2023-08-12T14:52:01.000Z</time>
      </trkpt>
      <trkpt lat="45.14134" lon="5.92414">
        <ele>1922.4000244141</ele>
        <time>2023-08-12T14:52:05.000Z</time>
      </trkpt>
      <trkpt lat="45.1413" lon="5.92408">
        <ele>1921.8000488281</ele>
        <time>2023-08-12T14:52:12.000Z</time>
      </trkpt>
      <trkpt lat="45.14123" lon="5.92406">
        <ele>1921</ele>
        <time>2023-08-12T14:52:19.000Z</time>
      </trkpt>
      <trkpt lat="45.14122" lon="5.92406">
        <ele>1920.8000488281</ele>
        <time>2023-08-12T14:52:20.000Z</time>
      </trkpt>
      <trkpt lat="45.14118" lon="5.92405">
        <ele>1920.8000488281</ele>
        <time>2023-08-12T14:52:26.000Z</time>
      </trkpt>
      <trkpt lat="45.14114" lon="5.92398">
        <ele>1921</ele>
        <time>2023-08-12T14:52:35.000Z</time>
      </trkpt>
      <trkpt lat="45.14111" lon="5.92394">
        <ele>1920.8000488281</ele>
        <time>2023-08-12T14:52:41.000Z</time>
      </trkpt>
      <trkpt lat="45.14108" lon="5.92392">
        <ele>1920.4000244141</ele>
        <time>2023-08-12T14:52:49.000Z</time>
      </trkpt>
      <trkpt lat="45.14106" lon="5.92387">
        <ele>1919.8000488281</ele>
        <time>2023-08-12T14:52:54.000Z</time>
      </trkpt>
      <trkpt lat="45.14103" lon="5.92384">
        <ele>1919.4000244141</ele>
        <time>2023-08-12T14:52:57.000Z</time>
      </trkpt>
      <trkpt lat="45.141" lon="5.92381">
        <ele>1918.8000488281</ele>
        <time>2023-08-12T14:53:03.000Z</time>
      </trkpt>
      <trkpt lat="45.14102" lon="5.92381">
        <ele>1918.8000488281</ele>
        <time>2023-08-12T14:53:12.000Z</time>
      </trkpt>
      <trkpt lat="45.14098" lon="5.92381">
        <ele>1919.1999511719</ele>
        <time>2023-08-12T14:53:21.000Z</time>
      </trkpt>
      <trkpt lat="45.14093" lon="5.92379">
        <ele>1920.5999755859</ele>
        <time>2023-08-12T14:53:28.000Z</time>
      </trkpt>
      <trkpt lat="45.1409" lon="5.92377">
        <ele>1920.8000488281</ele>
        <time>2023-08-12T14:53:32.000Z</time>
      </trkpt>
      <trkpt lat="45.14088" lon="5.92375">
        <ele>1920.8000488281</ele>
        <time>2023-08-12T14:53:35.000Z</time>
      </trkpt>
      <trkpt lat="45.14082" lon="5.92379">
        <ele>1921.5999755859</ele>
        <time>2023-08-12T14:53:44.000Z</time>
      </trkpt>
      <trkpt lat="45.1408" lon="5.9238">
        <ele>1922</ele>
        <time>2023-08-12T14:53:46.000Z</time>
      </trkpt>
      <trkpt lat="45.14077" lon="5.9238">
        <ele>1923</ele>
        <time>2023-08-12T14:53:51.000Z</time>
      </trkpt>
      <trkpt lat="45.14076" lon="5.9238">
        <ele>1923.1999511719</ele>
        <time>2023-08-12T14:53:52.000Z</time>
      </trkpt>
      <trkpt lat="45.14075" lon="5.92375">
        <ele>1923.4000244141</ele>
        <time>2023-08-12T14:53:58.000Z</time>
      </trkpt>
      <trkpt lat="45.14076" lon="5.92371">
        <ele>1923.8000488281</ele>
        <time>2023-08-12T14:54:07.000Z</time>
      </trkpt>
      <trkpt lat="45.14074" lon="5.92369">
        <ele>1923.4000244141</ele>
        <time>2023-08-12T14:54:13.000Z</time>
      </trkpt>
      <trkpt lat="45.14073" lon="5.92368">
        <ele>1923.4000244141</ele>
        <time>2023-08-12T14:54:14.000Z</time>
      </trkpt>
      <trkpt lat="45.14067" lon="5.9236">
        <ele>1923.8000488281</ele>
        <time>2023-08-12T14:54:22.000Z</time>
      </trkpt>
      <trkpt lat="45.14065" lon="5.92361">
        <ele>1924.1999511719</ele>
        <time>2023-08-12T14:54:26.000Z</time>
      </trkpt>
      <trkpt lat="45.14063" lon="5.92361">
        <ele>1924.8000488281</ele>
        <time>2023-08-12T14:54:29.000Z</time>
      </trkpt>
      <trkpt lat="45.14061" lon="5.9236">
        <ele>1924.1999511719</ele>
        <time>2023-08-12T14:54:37.000Z</time>
      </trkpt>
      <trkpt lat="45.14059" lon="5.92357">
        <ele>1923.4000244141</ele>
        <time>2023-08-12T14:54:43.000Z</time>
      </trkpt>
      <trkpt lat="45.14059" lon="5.92357">
        <ele>1923.1999511719</ele>
        <time>2023-08-12T14:54:44.000Z</time>
      </trkpt>
      <trkpt lat="45.14055" lon="5.92356">
        <ele>1922.4000244141</ele>
        <time>2023-08-12T14:54:49.000Z</time>
      </trkpt>
      <trkpt lat="45.14054" lon="5.92356">
        <ele>1922</ele>
        <time>2023-08-12T14:54:51.000Z</time>
      </trkpt>
      <trkpt lat="45.14048" lon="5.92356">
        <ele>1921.4000244141</ele>
        <time>2023-08-12T14:54:56.000Z</time>
      </trkpt>
      <trkpt lat="45.14043" lon="5.92357">
        <ele>1921.4000244141</ele>
        <time>2023-08-12T14:55:02.000Z</time>
      </trkpt>
      <trkpt lat="45.14041" lon="5.92357">
        <ele>1921.1999511719</ele>
        <time>2023-08-12T14:55:09.000Z</time>
      </trkpt>
      <trkpt lat="45.14041" lon="5.92357">
        <ele>1921</ele>
        <time>2023-08-12T14:55:10.000Z</time>
      </trkpt>
      <trkpt lat="45.14036" lon="5.92354">
        <ele>1920.1999511719</ele>
        <time>2023-08-12T14:55:17.000Z</time>
      </trkpt>
      <trkpt lat="45.14034" lon="5.92354">
        <ele>1919.8000488281</ele>
        <time>2023-08-12T14:55:19.000Z</time>
      </trkpt>
      <trkpt lat="45.14029" lon="5.92353">
        <ele>1919.1999511719</ele>
        <time>2023-08-12T14:55:24.000Z</time>
      </trkpt>
      <trkpt lat="45.14022" lon="5.92352">
        <ele>1919</ele>
        <time>2023-08-12T14:55:30.000Z</time>
      </trkpt>
      <trkpt lat="45.14017" lon="5.9235">
        <ele>1919</ele>
        <time>2023-08-12T14:55:38.000Z</time>
      </trkpt>
      <trkpt lat="45.14015" lon="5.92351">
        <ele>1919.4000244141</ele>
        <time>2023-08-12T14:55:41.000Z</time>
      </trkpt>
      <trkpt lat="45.14013" lon="5.92353">
        <ele>1920.1999511719</ele>
        <time>2023-08-12T14:55:45.000Z</time>
      </trkpt>
      <trkpt lat="45.14011" lon="5.92354">
        <ele>1920.8000488281</ele>
        <time>2023-08-12T14:55:48.000Z</time>
      </trkpt>
      <trkpt lat="45.14011" lon="5.92353">
        <ele>1922</ele>
        <time>2023-08-12T14:55:54.000Z</time>
      </trkpt>
      <trkpt lat="45.14009" lon="5.92353">
        <ele>1923</ele>
        <time>2023-08-12T14:56:00.000Z</time>
      </trkpt>
      <trkpt lat="45.14008" lon="5.92352">
        <ele>1923</ele>
        <time>2023-08-12T14:56:01.000Z</time>
      </trkpt>
      <trkpt lat="45.14" lon="5.92354">
        <ele>1924</ele>
        <time>2023-08-12T14:56:10.000Z</time>
      </trkpt>
      <trkpt lat="45.13997" lon="5.92356">
        <ele>1925</ele>
        <time>2023-08-12T14:56:17.000Z</time>
      </trkpt>
      <trkpt lat="45.13996" lon="5.92355">
        <ele>1925.1999511719</ele>
        <time>2023-08-12T14:56:18.000Z</time>
      </trkpt>
      <trkpt lat="45.13992" lon="5.92354">
        <ele>1926</ele>
        <time>2023-08-12T14:56:25.000Z</time>
      </trkpt>
      <trkpt lat="45.13991" lon="5.92354">
        <ele>1926</ele>
        <time>2023-08-12T14:56:26.000Z</time>
      </trkpt>
      <trkpt lat="45.13986" lon="5.92354">
        <ele>1926.1999511719</ele>
        <time>2023-08-12T14:56:32.000Z</time>
      </trkpt>
      <trkpt lat="45.13979" lon="5.92353">
        <ele>1925.8000488281</ele>
        <time>2023-08-12T14:56:39.000Z</time>
      </trkpt>
      <trkpt lat="45.13973" lon="5.92351">
        <ele>1926.1999511719</ele>
        <time>2023-08-12T14:56:47.000Z</time>
      </trkpt>
      <trkpt lat="45.13969" lon="5.92344">
        <ele>1927</ele>
        <time>2023-08-12T14:56:55.000Z</time>
      </trkpt>
      <trkpt lat="45.13967" lon="5.9234">
        <ele>1927</ele>
        <time>2023-08-12T14:57:01.000Z</time>
      </trkpt>
      <trkpt lat="45.13966" lon="5.92339">
        <ele>1927</ele>
        <time>2023-08-12T14:57:03.000Z</time>
      </trkpt>
      <trkpt lat="45.1396" lon="5.92329">
        <ele>1926.4000244141</ele>
        <time>2023-08-12T14:57:11.000Z</time>
      </trkpt>
      <trkpt lat="45.13959" lon="5.92325">
        <ele>1926</ele>
        <time>2023-08-12T14:57:14.000Z</time>
      </trkpt>
      <trkpt lat="45.13959" lon="5.92319">
        <ele>1926</ele>
        <time>2023-08-12T14:57:19.000Z</time>
      </trkpt>
      <trkpt lat="45.13958" lon="5.9231">
        <ele>1926.8000488281</ele>
        <time>2023-08-12T14:57:27.000Z</time>
      </trkpt>
      <trkpt lat="45.13956" lon="5.92301">
        <ele>1926</ele>
        <time>2023-08-12T14:57:35.000Z</time>
      </trkpt>
      <trkpt lat="45.13953" lon="5.92294">
        <ele>1925.8000488281</ele>
        <time>2023-08-12T14:57:42.000Z</time>
      </trkpt>
      <trkpt lat="45.13951" lon="5.92288">
        <ele>1926.4000244141</ele>
        <time>2023-08-12T14:57:51.000Z</time>
      </trkpt>
      <trkpt lat="45.13953" lon="5.92282">
        <ele>1925.8000488281</ele>
        <time>2023-08-12T14:57:56.000Z</time>
      </trkpt>
      <trkpt lat="45.1395" lon="5.92275">
        <ele>1925</ele>
        <time>2023-08-12T14:58:03.000Z</time>
      </trkpt>
      <trkpt lat="45.13949" lon="5.92274">
        <ele>1924.8000488281</ele>
        <time>2023-08-12T14:58:04.000Z</time>
      </trkpt>
      <trkpt lat="45.13942" lon="5.92268">
        <ele>1924.1999511719</ele>
        <time>2023-08-12T14:58:12.000Z</time>
      </trkpt>
      <trkpt lat="45.13939" lon="5.92268">
        <ele>1923.8000488281</ele>
        <time>2023-08-12T14:58:18.000Z</time>
      </trkpt>
      <trkpt lat="45.13937" lon="5.92268">
        <ele>1923.4000244141</ele>
        <time>2023-08-12T14:58:20.000Z</time>
      </trkpt>
      <trkpt lat="45.13931" lon="5.92268">
        <ele>1923.1999511719</ele>
        <time>2023-08-12T14:58:28.000Z</time>
      </trkpt>
      <trkpt lat="45.13927" lon="5.92271">
        <ele>1923.8000488281</ele>
        <time>2023-08-12T14:58:34.000Z</time>
      </trkpt>
      <trkpt lat="45.1392" lon="5.9227">
        <ele>1924.4000244141</ele>
        <time>2023-08-12T14:58:40.000Z</time>
      </trkpt>
      <trkpt lat="45.13916" lon="5.9227">
        <ele>1924.8000488281</ele>
        <time>2023-08-12T14:58:49.000Z</time>
      </trkpt>
      <trkpt lat="45.13911" lon="5.92269">
        <ele>1926</ele>
        <time>2023-08-12T14:58:55.000Z</time>
      </trkpt>
      <trkpt lat="45.1391" lon="5.92269">
        <ele>1926.4000244141</ele>
        <time>2023-08-12T14:58:57.000Z</time>
      </trkpt>
      <trkpt lat="45.1391" lon="5.92269">
        <ele>1927.1999511719</ele>
        <time>2023-08-12T14:59:01.000Z</time>
      </trkpt>
      <trkpt lat="45.13908" lon="5.92269">
        <ele>1927.8000488281</ele>
        <time>2023-08-12T14:59:05.000Z</time>
      </trkpt>
      <trkpt lat="45.13906" lon="5.92268">
        <ele>1928.1999511719</ele>
        <time>2023-08-12T14:59:08.000Z</time>
      </trkpt>
      <trkpt lat="45.13904" lon="5.92267">
        <ele>1929</ele>
        <time>2023-08-12T14:59:12.000Z</time>
      </trkpt>
      <trkpt lat="45.13899" lon="5.92263">
        <ele>1929</ele>
        <time>2023-08-12T14:59:19.000Z</time>
      </trkpt>
      <trkpt lat="45.13897" lon="5.9226">
        <ele>1928.8000488281</ele>
        <time>2023-08-12T14:59:26.000Z</time>
      </trkpt>
      <trkpt lat="45.13896" lon="5.92259">
        <ele>1927.4000244141</ele>
        <time>2023-08-12T14:59:34.000Z</time>
      </trkpt>
      <trkpt lat="45.13895" lon="5.92259">
        <ele>1927</ele>
        <time>2023-08-12T14:59:36.000Z</time>
      </trkpt>
      <trkpt lat="45.13891" lon="5.92261">
        <ele>1926</ele>
        <time>2023-08-12T14:59:41.000Z</time>
      </trkpt>
      <trkpt lat="45.1389" lon="5.92261">
        <ele>1926</ele>
        <time>2023-08-12T14:59:42.000Z</time>
      </trkpt>
      <trkpt lat="45.13883" lon="5.92261">
        <ele>1925.1999511719</ele>
        <time>2023-08-12T14:59:49.000Z</time>
      </trkpt>
      <trkpt lat="45.13883" lon="5.92261">
        <ele>1925</ele>
        <time>2023-08-12T14:59:51.000Z</time>
      </trkpt>
      <trkpt lat="45.13881" lon="5.92262">
        <ele>1924.4000244141</ele>
        <time>2023-08-12T14:59:56.000Z</time>
      </trkpt>
      <trkpt lat="45.13881" lon="5.92263">
        <ele>1923.8000488281</ele>
        <time>2023-08-12T14:59:58.000Z</time>
      </trkpt>
      <trkpt lat="45.13876" lon="5.92271">
        <ele>1922.5999755859</ele>
        <time>2023-08-12T15:00:07.000Z</time>
      </trkpt>
      <trkpt lat="45.1387" lon="5.92272">
        <ele>1922.1999511719</ele>
        <time>2023-08-12T15:00:15.000Z</time>
      </trkpt>
      <trkpt lat="45.13868" lon="5.92267">
        <ele>1921.5999755859</ele>
        <time>2023-08-12T15:00:26.000Z</time>
      </trkpt>
      <trkpt lat="45.13868" lon="5.92262">
        <ele>1920.5999755859</ele>
        <time>2023-08-12T15:00:34.000Z</time>
      </trkpt>
      <trkpt lat="45.13868" lon="5.92262">
        <ele>1920.4000244141</ele>
        <time>2023-08-12T15:00:35.000Z</time>
      </trkpt>
      <trkpt lat="45.13865" lon="5.92258">
        <ele>1919.8000488281</ele>
        <time>2023-08-12T15:00:42.000Z</time>
      </trkpt>
      <trkpt lat="45.13861" lon="5.92259">
        <ele>1919.4000244141</ele>
        <time>2023-08-12T15:00:45.000Z</time>
      </trkpt>
      <trkpt lat="45.13857" lon="5.92262">
        <ele>1919.1999511719</ele>
        <time>2023-08-12T15:00:48.000Z</time>
      </trkpt>
      <trkpt lat="45.13848" lon="5.92266">
        <ele>1918.8000488281</ele>
        <time>2023-08-12T15:00:55.000Z</time>
      </trkpt>
      <trkpt lat="45.13839" lon="5.92264">
        <ele>1919.5999755859</ele>
        <time>2023-08-12T15:01:03.000Z</time>
      </trkpt>
      <trkpt lat="45.13836" lon="5.92264">
        <ele>1920.5999755859</ele>
        <time>2023-08-12T15:01:08.000Z</time>
      </trkpt>
      <trkpt lat="45.13835" lon="5.92264">
        <ele>1921</ele>
        <time>2023-08-12T15:01:10.000Z</time>
      </trkpt>
      <trkpt lat="45.13833" lon="5.92264">
        <ele>1921.8000488281</ele>
        <time>2023-08-12T15:01:13.000Z</time>
      </trkpt>
      <trkpt lat="45.1383" lon="5.92262">
        <ele>1922.1999511719</ele>
        <time>2023-08-12T15:01:17.000Z</time>
      </trkpt>
      <trkpt lat="45.13827" lon="5.92262">
        <ele>1922.8000488281</ele>
        <time>2023-08-12T15:01:21.000Z</time>
      </trkpt>
      <trkpt lat="45.13823" lon="5.92263">
        <ele>1923.4000244141</ele>
        <time>2023-08-12T15:01:25.000Z</time>
      </trkpt>
      <trkpt lat="45.13817" lon="5.92261">
        <ele>1923.8000488281</ele>
        <time>2023-08-12T15:01:30.000Z</time>
      </trkpt>
      <trkpt lat="45.13815" lon="5.92258">
        <ele>1923.8000488281</ele>
        <time>2023-08-12T15:01:33.000Z</time>
      </trkpt>
      <trkpt lat="45.13811" lon="5.92254">
        <ele>1923.8000488281</ele>
        <time>2023-08-12T15:01:38.000Z</time>
      </trkpt>
      <trkpt lat="45.13805" lon="5.92249">
        <ele>1924</ele>
        <time>2023-08-12T15:01:46.000Z</time>
      </trkpt>
      <trkpt lat="45.13802" lon="5.92244">
        <ele>1923.1999511719</ele>
        <time>2023-08-12T15:01:53.000Z</time>
      </trkpt>
      <trkpt lat="45.13802" lon="5.92244">
        <ele>1922.8000488281</ele>
        <time>2023-08-12T15:01:55.000Z</time>
      </trkpt>
      <trkpt lat="45.138" lon="5.92241">
        <ele>1922</ele>
        <time>2023-08-12T15:02:00.000Z</time>
      </trkpt>
      <trkpt lat="45.13799" lon="5.92241">
        <ele>1921.8000488281</ele>
        <time>2023-08-12T15:02:01.000Z</time>
      </trkpt>
      <trkpt lat="45.13793" lon="5.9223">
        <ele>1921</ele>
        <time>2023-08-12T15:02:08.000Z</time>
      </trkpt>
      <trkpt lat="45.13791" lon="5.92227">
        <ele>1920.8000488281</ele>
        <time>2023-08-12T15:02:11.000Z</time>
      </trkpt>
      <trkpt lat="45.13789" lon="5.92222">
        <ele>1921</ele>
        <time>2023-08-12T15:02:16.000Z</time>
      </trkpt>
      <trkpt lat="45.13787" lon="5.92221">
        <ele>1921.8000488281</ele>
        <time>2023-08-12T15:02:20.000Z</time>
      </trkpt>
      <trkpt lat="45.13785" lon="5.9222">
        <ele>1922.5999755859</ele>
        <time>2023-08-12T15:02:24.000Z</time>
      </trkpt>
      <trkpt lat="45.13783" lon="5.92219">
        <ele>1923</ele>
        <time>2023-08-12T15:02:26.000Z</time>
      </trkpt>
      <trkpt lat="45.13782" lon="5.92219">
        <ele>1923.8000488281</ele>
        <time>2023-08-12T15:02:31.000Z</time>
      </trkpt>
      <trkpt lat="45.13781" lon="5.92218">
        <ele>1924</ele>
        <time>2023-08-12T15:02:32.000Z</time>
      </trkpt>
      <trkpt lat="45.13775" lon="5.92215">
        <ele>1925.1999511719</ele>
        <time>2023-08-12T15:02:38.000Z</time>
      </trkpt>
      <trkpt lat="45.13773" lon="5.92214">
        <ele>1925.4000244141</ele>
        <time>2023-08-12T15:02:40.000Z</time>
      </trkpt>
      <trkpt lat="45.1377" lon="5.92212">
        <ele>1926.1999511719</ele>
        <time>2023-08-12T15:02:45.000Z</time>
      </trkpt>
      <trkpt lat="45.13769" lon="5.92211">
        <ele>1926.4000244141</ele>
        <time>2023-08-12T15:02:47.000Z</time>
      </trkpt>
      <trkpt lat="45.13764" lon="5.92208">
        <ele>1927</ele>
        <time>2023-08-12T15:02:53.000Z</time>
      </trkpt>
      <trkpt lat="45.13763" lon="5.92207">
        <ele>1927.1999511719</ele>
        <time>2023-08-12T15:02:54.000Z</time>
      </trkpt>
      <trkpt lat="45.13757" lon="5.92203">
        <ele>1928.1999511719</ele>
        <time>2023-08-12T15:03:01.000Z</time>
      </trkpt>
      <trkpt lat="45.13757" lon="5.92202">
        <ele>1928.4000244141</ele>
        <time>2023-08-12T15:03:02.000Z</time>
      </trkpt>
      <trkpt lat="45.13755" lon="5.92197">
        <ele>1929.4000244141</ele>
        <time>2023-08-12T15:03:09.000Z</time>
      </trkpt>
      <trkpt lat="45.13754" lon="5.92195">
        <ele>1929.8000488281</ele>
        <time>2023-08-12T15:03:12.000Z</time>
      </trkpt>
      <trkpt lat="45.13755" lon="5.92192">
        <ele>1930.4000244141</ele>
        <time>2023-08-12T15:03:17.000Z</time>
      </trkpt>
      <trkpt lat="45.13755" lon="5.92193">
        <ele>1930.4000244141</ele>
        <time>2023-08-12T15:03:19.000Z</time>
      </trkpt>
      <trkpt lat="45.13756" lon="5.92194">
        <ele>1930.4000244141</ele>
        <time>2023-08-12T15:03:21.000Z</time>
      </trkpt>
      <trkpt lat="45.13756" lon="5.92197">
        <ele>1930.4000244141</ele>
        <time>2023-08-12T15:03:23.000Z</time>
      </trkpt>
      <trkpt lat="45.13755" lon="5.922">
        <ele>1930.5999755859</ele>
        <time>2023-08-12T15:03:30.000Z</time>
      </trkpt>
      <trkpt lat="45.13749" lon="5.92196">
        <ele>1931.1999511719</ele>
        <time>2023-08-12T15:03:38.000Z</time>
      </trkpt>
      <trkpt lat="45.13745" lon="5.92194">
        <ele>1931.8000488281</ele>
        <time>2023-08-12T15:03:41.000Z</time>
      </trkpt>
      <trkpt lat="45.13742" lon="5.92193">
        <ele>1932.4000244141</ele>
        <time>2023-08-12T15:03:46.000Z</time>
      </trkpt>
      <trkpt lat="45.13737" lon="5.92192">
        <ele>1932.4000244141</ele>
        <time>2023-08-12T15:03:53.000Z</time>
      </trkpt>
      <trkpt lat="45.13734" lon="5.92192">
        <ele>1932.8000488281</ele>
        <time>2023-08-12T15:03:57.000Z</time>
      </trkpt>
      <trkpt lat="45.1373" lon="5.92192">
        <ele>1932.8000488281</ele>
        <time>2023-08-12T15:03:59.000Z</time>
      </trkpt>
      <trkpt lat="45.13724" lon="5.92187">
        <ele>1932.5999755859</ele>
        <time>2023-08-12T15:04:06.000Z</time>
      </trkpt>
      <trkpt lat="45.13718" lon="5.92179">
        <ele>1932.8000488281</ele>
        <time>2023-08-12T15:04:15.000Z</time>
      </trkpt>
      <trkpt lat="45.13718" lon="5.92178">
        <ele>1933</ele>
        <time>2023-08-12T15:04:23.000Z</time>
      </trkpt>
      <trkpt lat="45.13715" lon="5.92176">
        <ele>1933.4000244141</ele>
        <time>2023-08-12T15:04:30.000Z</time>
      </trkpt>
      <trkpt lat="45.13711" lon="5.92173">
        <ele>1933.8000488281</ele>
        <time>2023-08-12T15:04:33.000Z</time>
      </trkpt>
      <trkpt lat="45.13706" lon="5.92168">
        <ele>1934</ele>
        <time>2023-08-12T15:04:37.000Z</time>
      </trkpt>
      <trkpt lat="45.13702" lon="5.92161">
        <ele>1934.5999755859</ele>
        <time>2023-08-12T15:04:43.000Z</time>
      </trkpt>
      <trkpt lat="45.13701" lon="5.92155">
        <ele>1934.8000488281</ele>
        <time>2023-08-12T15:04:46.000Z</time>
      </trkpt>
      <trkpt lat="45.137" lon="5.92147">
        <ele>1935</ele>
        <time>2023-08-12T15:04:51.000Z</time>
      </trkpt>
      <trkpt lat="45.13697" lon="5.92137">
        <ele>1934.8000488281</ele>
        <time>2023-08-12T15:04:58.000Z</time>
      </trkpt>
      <trkpt lat="45.13693" lon="5.92132">
        <ele>1933.8000488281</ele>
        <time>2023-08-12T15:05:06.000Z</time>
      </trkpt>
      <trkpt lat="45.13689" lon="5.92122">
        <ele>1932.8000488281</ele>
        <time>2023-08-12T15:05:14.000Z</time>
      </trkpt>
      <trkpt lat="45.13686" lon="5.92115">
        <ele>1933.1999511719</ele>
        <time>2023-08-12T15:05:21.000Z</time>
      </trkpt>
      <trkpt lat="45.13681" lon="5.92106">
        <ele>1932.8000488281</ele>
        <time>2023-08-12T15:05:29.000Z</time>
      </trkpt>
      <trkpt lat="45.13681" lon="5.92102">
        <ele>1931.5999755859</ele>
        <time>2023-08-12T15:05:36.000Z</time>
      </trkpt>
      <trkpt lat="45.13681" lon="5.92101">
        <ele>1931.4000244141</ele>
        <time>2023-08-12T15:05:37.000Z</time>
      </trkpt>
      <trkpt lat="45.13678" lon="5.92101">
        <ele>1930.5999755859</ele>
        <time>2023-08-12T15:05:43.000Z</time>
      </trkpt>
      <trkpt lat="45.13675" lon="5.92098">
        <ele>1929.5999755859</ele>
        <time>2023-08-12T15:05:51.000Z</time>
      </trkpt>
      <trkpt lat="45.13676" lon="5.92097">
        <ele>1929.5999755859</ele>
        <time>2023-08-12T15:05:58.000Z</time>
      </trkpt>
      <trkpt lat="45.13672" lon="5.92093">
        <ele>1929.5999755859</ele>
        <time>2023-08-12T15:06:04.000Z</time>
      </trkpt>
      <trkpt lat="45.13666" lon="5.92087">
        <ele>1929.8000488281</ele>
        <time>2023-08-12T15:06:11.000Z</time>
      </trkpt>
      <trkpt lat="45.13661" lon="5.92084">
        <ele>1930.5999755859</ele>
        <time>2023-08-12T15:06:18.000Z</time>
      </trkpt>
      <trkpt lat="45.13653" lon="5.92083">
        <ele>1931.1999511719</ele>
        <time>2023-08-12T15:06:26.000Z</time>
      </trkpt>
      <trkpt lat="45.13652" lon="5.92084">
        <ele>1931.4000244141</ele>
        <time>2023-08-12T15:06:28.000Z</time>
      </trkpt>
      <trkpt lat="45.13654" lon="5.92081">
        <ele>1931.4000244141</ele>
        <time>2023-08-12T15:06:34.000Z</time>
      </trkpt>
      <trkpt lat="45.13652" lon="5.92084">
        <ele>1931.5999755859</ele>
        <time>2023-08-12T15:06:42.000Z</time>
      </trkpt>
      <trkpt lat="45.13649" lon="5.92084">
        <ele>1931.5999755859</ele>
        <time>2023-08-12T15:06:48.000Z</time>
      </trkpt>
      <trkpt lat="45.13648" lon="5.92084">
        <ele>1931.5999755859</ele>
        <time>2023-08-12T15:06:49.000Z</time>
      </trkpt>
      <trkpt lat="45.13645" lon="5.92082">
        <ele>1932.4000244141</ele>
        <time>2023-08-12T15:06:56.000Z</time>
      </trkpt>
      <trkpt lat="45.13644" lon="5.92081">
        <ele>1932.5999755859</ele>
        <time>2023-08-12T15:06:58.000Z</time>
      </trkpt>
      <trkpt lat="45.13642" lon="5.9208">
        <ele>1933.1999511719</ele>
        <time>2023-08-12T15:07:02.000Z</time>
      </trkpt>
      <trkpt lat="45.1364" lon="5.9208">
        <ele>1933.8000488281</ele>
        <time>2023-08-12T15:07:05.000Z</time>
      </trkpt>
      <trkpt lat="45.13636" lon="5.92081">
        <ele>1934.4000244141</ele>
        <time>2023-08-12T15:07:10.000Z</time>
      </trkpt>
      <trkpt lat="45.13634" lon="5.92081">
        <ele>1934.8000488281</ele>
        <time>2023-08-12T15:07:13.000Z</time>
      </trkpt>
      <trkpt lat="45.1363" lon="5.9208">
        <ele>1935.5999755859</ele>
        <time>2023-08-12T15:07:20.000Z</time>
      </trkpt>
      <trkpt lat="45.1363" lon="5.92079">
        <ele>1936</ele>
        <time>2023-08-12T15:07:22.000Z</time>
      </trkpt>
      <trkpt lat="45.13626" lon="5.92075">
        <ele>1936.8000488281</ele>
        <time>2023-08-12T15:07:28.000Z</time>
      </trkpt>
      <trkpt lat="45.13625" lon="5.92073">
        <ele>1937</ele>
        <time>2023-08-12T15:07:31.000Z</time>
      </trkpt>
      <trkpt lat="45.13626" lon="5.9207">
        <ele>1937.8000488281</ele>
        <time>2023-08-12T15:07:37.000Z</time>
      </trkpt>
      <trkpt lat="45.13626" lon="5.92068">
        <ele>1938.4000244141</ele>
        <time>2023-08-12T15:07:40.000Z</time>
      </trkpt>
      <trkpt lat="45.13625" lon="5.92066">
        <ele>1938.8000488281</ele>
        <time>2023-08-12T15:07:43.000Z</time>
      </trkpt>
      <trkpt lat="45.13622" lon="5.92067">
        <ele>1939.4000244141</ele>
        <time>2023-08-12T15:07:48.000Z</time>
      </trkpt>
      <trkpt lat="45.1362" lon="5.92066">
        <ele>1940</ele>
        <time>2023-08-12T15:07:50.000Z</time>
      </trkpt>
      <trkpt lat="45.13617" lon="5.92065">
        <ele>1941.5999755859</ele>
        <time>2023-08-12T15:08:03.000Z</time>
      </trkpt>
      <trkpt lat="45.1362" lon="5.92059">
        <ele>1942.5999755859</ele>
        <time>2023-08-12T15:08:11.000Z</time>
      </trkpt>
      <trkpt lat="45.1362" lon="5.92056">
        <ele>1942.8000488281</ele>
        <time>2023-08-12T15:08:14.000Z</time>
      </trkpt>
      <trkpt lat="45.1362" lon="5.92059">
        <ele>1943.4000244141</ele>
        <time>2023-08-12T15:08:18.000Z</time>
      </trkpt>
      <trkpt lat="45.13619" lon="5.92059">
        <ele>1943.8000488281</ele>
        <time>2023-08-12T15:08:21.000Z</time>
      </trkpt>
      <trkpt lat="45.13617" lon="5.92059">
        <ele>1944.8000488281</ele>
        <time>2023-08-12T15:08:26.000Z</time>
      </trkpt>
      <trkpt lat="45.13614" lon="5.92058">
        <ele>1945.8000488281</ele>
        <time>2023-08-12T15:08:36.000Z</time>
      </trkpt>
      <trkpt lat="45.13614" lon="5.92058">
        <ele>1945.8000488281</ele>
        <time>2023-08-12T15:08:37.000Z</time>
      </trkpt>
      <trkpt lat="45.13613" lon="5.92055">
        <ele>1946.8000488281</ele>
        <time>2023-08-12T15:08:46.000Z</time>
      </trkpt>
      <trkpt lat="45.13612" lon="5.92055">
        <ele>1947</ele>
        <time>2023-08-12T15:08:47.000Z</time>
      </trkpt>
      <trkpt lat="45.13612" lon="5.92056">
        <ele>1948</ele>
        <time>2023-08-12T15:08:54.000Z</time>
      </trkpt>
      <trkpt lat="45.13612" lon="5.92056">
        <ele>1948</ele>
        <time>2023-08-12T15:08:55.000Z</time>
      </trkpt>
      <trkpt lat="45.13609" lon="5.92057">
        <ele>1949</ele>
        <time>2023-08-12T15:09:01.000Z</time>
      </trkpt>
      <trkpt lat="45.13607" lon="5.92059">
        <ele>1950.1999511719</ele>
        <time>2023-08-12T15:09:11.000Z</time>
      </trkpt>
      <trkpt lat="45.13609" lon="5.92058">
        <ele>1950.4000244141</ele>
        <time>2023-08-12T15:09:15.000Z</time>
      </trkpt>
      <trkpt lat="45.13606" lon="5.92054">
        <ele>1951.1999511719</ele>
        <time>2023-08-12T15:09:21.000Z</time>
      </trkpt>
      <trkpt lat="45.13606" lon="5.92054">
        <ele>1951.4000244141</ele>
        <time>2023-08-12T15:09:22.000Z</time>
      </trkpt>
      <trkpt lat="45.13604" lon="5.92053">
        <ele>1952.1999511719</ele>
        <time>2023-08-12T15:09:27.000Z</time>
      </trkpt>
      <trkpt lat="45.13602" lon="5.92051">
        <ele>1952.4000244141</ele>
        <time>2023-08-12T15:09:29.000Z</time>
      </trkpt>
      <trkpt lat="45.13601" lon="5.92049">
        <ele>1953</ele>
        <time>2023-08-12T15:09:34.000Z</time>
      </trkpt>
      <trkpt lat="45.13601" lon="5.9205">
        <ele>1953.1999511719</ele>
        <time>2023-08-12T15:09:36.000Z</time>
      </trkpt>
      <trkpt lat="45.13603" lon="5.9205">
        <ele>1954</ele>
        <time>2023-08-12T15:09:41.000Z</time>
      </trkpt>
      <trkpt lat="45.13603" lon="5.92049">
        <ele>1954.4000244141</ele>
        <time>2023-08-12T15:09:44.000Z</time>
      </trkpt>
      <trkpt lat="45.13601" lon="5.92049">
        <ele>1954.8000488281</ele>
        <time>2023-08-12T15:09:47.000Z</time>
      </trkpt>
      <trkpt lat="45.136" lon="5.92049">
        <ele>1955.4000244141</ele>
        <time>2023-08-12T15:09:50.000Z</time>
      </trkpt>
      <trkpt lat="45.13595" lon="5.92055">
        <ele>1956.4000244141</ele>
        <time>2023-08-12T15:09:59.000Z</time>
      </trkpt>
      <trkpt lat="45.13592" lon="5.92055">
        <ele>1957.4000244141</ele>
        <time>2023-08-12T15:10:05.000Z</time>
      </trkpt>
      <trkpt lat="45.13591" lon="5.92056">
        <ele>1957.8000488281</ele>
        <time>2023-08-12T15:10:08.000Z</time>
      </trkpt>
      <trkpt lat="45.13587" lon="5.92055">
        <ele>1958.4000244141</ele>
        <time>2023-08-12T15:10:14.000Z</time>
      </trkpt>
      <trkpt lat="45.13587" lon="5.92054">
        <ele>1958.8000488281</ele>
        <time>2023-08-12T15:10:17.000Z</time>
      </trkpt>
      <trkpt lat="45.13587" lon="5.92051">
        <ele>1959.5999755859</ele>
        <time>2023-08-12T15:10:21.000Z</time>
      </trkpt>
      <trkpt lat="45.13585" lon="5.9205">
        <ele>1960</ele>
        <time>2023-08-12T15:10:26.000Z</time>
      </trkpt>
      <trkpt lat="45.13585" lon="5.92052">
        <ele>1960.5999755859</ele>
        <time>2023-08-12T15:10:29.000Z</time>
      </trkpt>
      <trkpt lat="45.13581" lon="5.92055">
        <ele>1961.1999511719</ele>
        <time>2023-08-12T15:10:35.000Z</time>
      </trkpt>
      <trkpt lat="45.13579" lon="5.92059">
        <ele>1961.5999755859</ele>
        <time>2023-08-12T15:10:40.000Z</time>
      </trkpt>
      <trkpt lat="45.13578" lon="5.92061">
        <ele>1962</ele>
        <time>2023-08-12T15:10:43.000Z</time>
      </trkpt>
      <trkpt lat="45.13578" lon="5.92058">
        <ele>1962.4000244141</ele>
        <time>2023-08-12T15:10:47.000Z</time>
      </trkpt>
      <trkpt lat="45.13578" lon="5.92055">
        <ele>1962.8000488281</ele>
        <time>2023-08-12T15:10:49.000Z</time>
      </trkpt>
      <trkpt lat="45.13576" lon="5.92048">
        <ele>1963.8000488281</ele>
        <time>2023-08-12T15:10:57.000Z</time>
      </trkpt>
      <trkpt lat="45.1357" lon="5.92051">
        <ele>1964.8000488281</ele>
        <time>2023-08-12T15:11:05.000Z</time>
      </trkpt>
      <trkpt lat="45.13569" lon="5.92052">
        <ele>1965</ele>
        <time>2023-08-12T15:11:06.000Z</time>
      </trkpt>
      <trkpt lat="45.13568" lon="5.92049">
        <ele>1966.5999755859</ele>
        <time>2023-08-12T15:11:18.000Z</time>
      </trkpt>
      <trkpt lat="45.13568" lon="5.92049">
        <ele>1967</ele>
        <time>2023-08-12T15:11:20.000Z</time>
      </trkpt>
      <trkpt lat="45.13566" lon="5.92051">
        <ele>1968.1999511719</ele>
        <time>2023-08-12T15:11:28.000Z</time>
      </trkpt>
      <trkpt lat="45.13564" lon="5.92046">
        <ele>1969.8000488281</ele>
        <time>2023-08-12T15:11:40.000Z</time>
      </trkpt>
      <trkpt lat="45.13563" lon="5.92044">
        <ele>1970.1999511719</ele>
        <time>2023-08-12T15:11:43.000Z</time>
      </trkpt>
      <trkpt lat="45.13564" lon="5.92044">
        <ele>1971</ele>
        <time>2023-08-12T15:11:47.000Z</time>
      </trkpt>
      <trkpt lat="45.13564" lon="5.92043">
        <ele>1971.4000244141</ele>
        <time>2023-08-12T15:11:49.000Z</time>
      </trkpt>
      <trkpt lat="45.13566" lon="5.92037">
        <ele>1972</ele>
        <time>2023-08-12T15:11:55.000Z</time>
      </trkpt>
      <trkpt lat="45.13567" lon="5.92034">
        <ele>1972.4000244141</ele>
        <time>2023-08-12T15:11:57.000Z</time>
      </trkpt>
      <trkpt lat="45.13567" lon="5.92031">
        <ele>1973.1999511719</ele>
        <time>2023-08-12T15:12:04.000Z</time>
      </trkpt>
      <trkpt lat="45.13567" lon="5.9203">
        <ele>1973.4000244141</ele>
        <time>2023-08-12T15:12:06.000Z</time>
      </trkpt>
      <trkpt lat="45.13566" lon="5.92028">
        <ele>1973.8000488281</ele>
        <time>2023-08-12T15:12:11.000Z</time>
      </trkpt>
      <trkpt lat="45.13565" lon="5.9203">
        <ele>1974.5999755859</ele>
        <time>2023-08-12T15:12:16.000Z</time>
      </trkpt>
      <trkpt lat="45.13563" lon="5.92032">
        <ele>1974.5999755859</ele>
        <time>2023-08-12T15:12:18.000Z</time>
      </trkpt>
      <trkpt lat="45.13567" lon="5.92024">
        <ele>1975.5999755859</ele>
        <time>2023-08-12T15:12:25.000Z</time>
      </trkpt>
      <trkpt lat="45.13566" lon="5.92025">
        <ele>1976</ele>
        <time>2023-08-12T15:12:27.000Z</time>
      </trkpt>
      <trkpt lat="45.13566" lon="5.92023">
        <ele>1976.4000244141</ele>
        <time>2023-08-12T15:12:33.000Z</time>
      </trkpt>
      <trkpt lat="45.13566" lon="5.92023">
        <ele>1976.8000488281</ele>
        <time>2023-08-12T15:12:36.000Z</time>
      </trkpt>
      <trkpt lat="45.13567" lon="5.92021">
        <ele>1977.4000244141</ele>
        <time>2023-08-12T15:12:40.000Z</time>
      </trkpt>
      <trkpt lat="45.13568" lon="5.9202">
        <ele>1977.8000488281</ele>
        <time>2023-08-12T15:12:43.000Z</time>
      </trkpt>
      <trkpt lat="45.13568" lon="5.92019">
        <ele>1978.5999755859</ele>
        <time>2023-08-12T15:12:48.000Z</time>
      </trkpt>
      <trkpt lat="45.13568" lon="5.92017">
        <ele>1979</ele>
        <time>2023-08-12T15:12:51.000Z</time>
      </trkpt>
      <trkpt lat="45.13571" lon="5.92015">
        <ele>1979.8000488281</ele>
        <time>2023-08-12T15:12:57.000Z</time>
      </trkpt>
      <trkpt lat="45.13573" lon="5.92013">
        <ele>1980</ele>
        <time>2023-08-12T15:13:00.000Z</time>
      </trkpt>
      <trkpt lat="45.13574" lon="5.92013">
        <ele>1980.4000244141</ele>
        <time>2023-08-12T15:13:05.000Z</time>
      </trkpt>
      <trkpt lat="45.13573" lon="5.92009">
        <ele>1981</ele>
        <time>2023-08-12T15:13:15.000Z</time>
      </trkpt>
      <trkpt lat="45.13572" lon="5.92007">
        <ele>1982.1999511719</ele>
        <time>2023-08-12T15:13:21.000Z</time>
      </trkpt>
      <trkpt lat="45.13569" lon="5.92004">
        <ele>1983.1999511719</ele>
        <time>2023-08-12T15:13:27.000Z</time>
      </trkpt>
      <trkpt lat="45.13567" lon="5.92006">
        <ele>1984</ele>
        <time>2023-08-12T15:13:35.000Z</time>
      </trkpt>
      <trkpt lat="45.13566" lon="5.92006">
        <ele>1984.4000244141</ele>
        <time>2023-08-12T15:13:37.000Z</time>
      </trkpt>
      <trkpt lat="45.13564" lon="5.92003">
        <ele>1985.4000244141</ele>
        <time>2023-08-12T15:13:43.000Z</time>
      </trkpt>
      <trkpt lat="45.13564" lon="5.91998">
        <ele>1986.1999511719</ele>
        <time>2023-08-12T15:13:48.000Z</time>
      </trkpt>
      <trkpt lat="45.13564" lon="5.91998">
        <ele>1986.5999755859</ele>
        <time>2023-08-12T15:13:50.000Z</time>
      </trkpt>
      <trkpt lat="45.13564" lon="5.91999">
        <ele>1987.1999511719</ele>
        <time>2023-08-12T15:13:56.000Z</time>
      </trkpt>
      <trkpt lat="45.13559" lon="5.92004">
        <ele>1987.4000244141</ele>
        <time>2023-08-12T15:14:05.000Z</time>
      </trkpt>
      <trkpt lat="45.13559" lon="5.92004">
        <ele>1987.5999755859</ele>
        <time>2023-08-12T15:14:06.000Z</time>
      </trkpt>
      <trkpt lat="45.13557" lon="5.92005">
        <ele>1988.5999755859</ele>
        <time>2023-08-12T15:14:14.000Z</time>
      </trkpt>
      <trkpt lat="45.13557" lon="5.92003">
        <ele>1989.5999755859</ele>
        <time>2023-08-12T15:14:19.000Z</time>
      </trkpt>
      <trkpt lat="45.13556" lon="5.92001">
        <ele>1989.8000488281</ele>
        <time>2023-08-12T15:14:20.000Z</time>
      </trkpt>
      <trkpt lat="45.13551" lon="5.92001">
        <ele>1990.5999755859</ele>
        <time>2023-08-12T15:14:28.000Z</time>
      </trkpt>
      <trkpt lat="45.1355" lon="5.92001">
        <ele>1990.8000488281</ele>
        <time>2023-08-12T15:14:29.000Z</time>
      </trkpt>
      <trkpt lat="45.13546" lon="5.92005">
        <ele>1991.8000488281</ele>
        <time>2023-08-12T15:14:34.000Z</time>
      </trkpt>
      <trkpt lat="45.13546" lon="5.92005">
        <ele>1992</ele>
        <time>2023-08-12T15:14:35.000Z</time>
      </trkpt>
      <trkpt lat="45.13544" lon="5.92005">
        <ele>1993</ele>
        <time>2023-08-12T15:14:43.000Z</time>
      </trkpt>
      <trkpt lat="45.1354" lon="5.92007">
        <ele>1994</ele>
        <time>2023-08-12T15:14:50.000Z</time>
      </trkpt>
      <trkpt lat="45.1354" lon="5.92008">
        <ele>1994.1999511719</ele>
        <time>2023-08-12T15:14:51.000Z</time>
      </trkpt>
      <trkpt lat="45.13537" lon="5.92014">
        <ele>1995.1999511719</ele>
        <time>2023-08-12T15:14:56.000Z</time>
      </trkpt>
      <trkpt lat="45.13535" lon="5.92016">
        <ele>1995.5999755859</ele>
        <time>2023-08-12T15:14:59.000Z</time>
      </trkpt>
      <trkpt lat="45.13532" lon="5.92017">
        <ele>1996.1999511719</ele>
        <time>2023-08-12T15:15:03.000Z</time>
      </trkpt>
      <trkpt lat="45.1353" lon="5.92015">
        <ele>1996.8000488281</ele>
        <time>2023-08-12T15:15:06.000Z</time>
      </trkpt>
      <trkpt lat="45.13527" lon="5.9201">
        <ele>1997.1999511719</ele>
        <time>2023-08-12T15:15:12.000Z</time>
      </trkpt>
      <trkpt lat="45.13527" lon="5.9201">
        <ele>1997.4000244141</ele>
        <time>2023-08-12T15:15:13.000Z</time>
      </trkpt>
      <trkpt lat="45.13523" lon="5.92011">
        <ele>1997.5999755859</ele>
        <time>2023-08-12T15:15:19.000Z</time>
      </trkpt>
      <trkpt lat="45.13519" lon="5.92013">
        <ele>1998.1999511719</ele>
        <time>2023-08-12T15:15:25.000Z</time>
      </trkpt>
      <trkpt lat="45.13518" lon="5.92013">
        <ele>1998.4000244141</ele>
        <time>2023-08-12T15:15:27.000Z</time>
      </trkpt>
      <trkpt lat="45.13515" lon="5.92013">
        <ele>1999</ele>
        <time>2023-08-12T15:15:31.000Z</time>
      </trkpt>
      <trkpt lat="45.13508" lon="5.92012">
        <ele>1999.5999755859</ele>
        <time>2023-08-12T15:15:35.000Z</time>
      </trkpt>
      <trkpt lat="45.13508" lon="5.92011">
        <ele>1999.5999755859</ele>
        <time>2023-08-12T15:15:37.000Z</time>
      </trkpt>
      <trkpt lat="45.13509" lon="5.92008">
        <ele>1999.8000488281</ele>
        <time>2023-08-12T15:15:43.000Z</time>
      </trkpt>
      <trkpt lat="45.13507" lon="5.92011">
        <ele>2000</ele>
        <time>2023-08-12T15:15:49.000Z</time>
      </trkpt>
      <trkpt lat="45.13503" lon="5.9201">
        <ele>2000.5999755859</ele>
        <time>2023-08-12T15:15:55.000Z</time>
      </trkpt>
      <trkpt lat="45.13502" lon="5.92007">
        <ele>2001</ele>
        <time>2023-08-12T15:15:58.000Z</time>
      </trkpt>
      <trkpt lat="45.13501" lon="5.92005">
        <ele>2001.5999755859</ele>
        <time>2023-08-12T15:16:02.000Z</time>
      </trkpt>
      <trkpt lat="45.135" lon="5.92005">
        <ele>2001.8000488281</ele>
        <time>2023-08-12T15:16:05.000Z</time>
      </trkpt>
      <trkpt lat="45.13498" lon="5.92">
        <ele>2002.5999755859</ele>
        <time>2023-08-12T15:16:13.000Z</time>
      </trkpt>
      <trkpt lat="45.13492" lon="5.92">
        <ele>2002.8000488281</ele>
        <time>2023-08-12T15:16:20.000Z</time>
      </trkpt>
      <trkpt lat="45.13487" lon="5.92001">
        <ele>2002.4000244141</ele>
        <time>2023-08-12T15:16:26.000Z</time>
      </trkpt>
      <trkpt lat="45.13484" lon="5.91991">
        <ele>2001.8000488281</ele>
        <time>2023-08-12T15:16:33.000Z</time>
      </trkpt>
      <trkpt lat="45.13484" lon="5.91987">
        <ele>2002.5999755859</ele>
        <time>2023-08-12T15:16:38.000Z</time>
      </trkpt>
      <trkpt lat="45.13482" lon="5.91985">
        <ele>2003.8000488281</ele>
        <time>2023-08-12T15:16:43.000Z</time>
      </trkpt>
      <trkpt lat="45.1348" lon="5.91983">
        <ele>2004.1999511719</ele>
        <time>2023-08-12T15:16:46.000Z</time>
      </trkpt>
      <trkpt lat="45.13478" lon="5.9198">
        <ele>2004</ele>
        <time>2023-08-12T15:16:52.000Z</time>
      </trkpt>
      <trkpt lat="45.13477" lon="5.9198">
        <ele>2003</ele>
        <time>2023-08-12T15:17:00.000Z</time>
      </trkpt>
      <trkpt lat="45.13476" lon="5.9198">
        <ele>2002.8000488281</ele>
        <time>2023-08-12T15:17:01.000Z</time>
      </trkpt>
      <trkpt lat="45.13473" lon="5.91977">
        <ele>2002.4000244141</ele>
        <time>2023-08-12T15:17:06.000Z</time>
      </trkpt>
      <trkpt lat="45.1347" lon="5.91971">
        <ele>2002.4000244141</ele>
        <time>2023-08-12T15:17:14.000Z</time>
      </trkpt>
      <trkpt lat="45.13468" lon="5.91967">
        <ele>2002.4000244141</ele>
        <time>2023-08-12T15:17:22.000Z</time>
      </trkpt>
      <trkpt lat="45.13466" lon="5.91964">
        <ele>2003.5999755859</ele>
        <time>2023-08-12T15:17:30.000Z</time>
      </trkpt>
      <trkpt lat="45.13466" lon="5.91963">
        <ele>2003.8000488281</ele>
        <time>2023-08-12T15:17:31.000Z</time>
      </trkpt>
      <trkpt lat="45.13463" lon="5.91953">
        <ele>2004.8000488281</ele>
        <time>2023-08-12T15:17:39.000Z</time>
      </trkpt>
      <trkpt lat="45.13462" lon="5.91951">
        <ele>2005</ele>
        <time>2023-08-12T15:17:40.000Z</time>
      </trkpt>
      <trkpt lat="45.1346" lon="5.91944">
        <ele>2006</ele>
        <time>2023-08-12T15:17:47.000Z</time>
      </trkpt>
      <trkpt lat="45.1346" lon="5.91938">
        <ele>2006.5999755859</ele>
        <time>2023-08-12T15:17:55.000Z</time>
      </trkpt>
      <trkpt lat="45.13458" lon="5.91935">
        <ele>2007</ele>
        <time>2023-08-12T15:17:58.000Z</time>
      </trkpt>
      <trkpt lat="45.13456" lon="5.91933">
        <ele>2007.5999755859</ele>
        <time>2023-08-12T15:18:01.000Z</time>
      </trkpt>
      <trkpt lat="45.13453" lon="5.91927">
        <ele>2008.1999511719</ele>
        <time>2023-08-12T15:18:06.000Z</time>
      </trkpt>
      <trkpt lat="45.13453" lon="5.91925">
        <ele>2008.4000244141</ele>
        <time>2023-08-12T15:18:08.000Z</time>
      </trkpt>
      <trkpt lat="45.1345" lon="5.9192">
        <ele>2009.1999511719</ele>
        <time>2023-08-12T15:18:13.000Z</time>
      </trkpt>
      <trkpt lat="45.13448" lon="5.91919">
        <ele>2009.8000488281</ele>
        <time>2023-08-12T15:18:16.000Z</time>
      </trkpt>
      <trkpt lat="45.13445" lon="5.91916">
        <ele>2010.5999755859</ele>
        <time>2023-08-12T15:18:19.000Z</time>
      </trkpt>
      <trkpt lat="45.13444" lon="5.91916">
        <ele>2011.1999511719</ele>
        <time>2023-08-12T15:18:22.000Z</time>
      </trkpt>
      <trkpt lat="45.13444" lon="5.91915">
        <ele>2011.4000244141</ele>
        <time>2023-08-12T15:18:24.000Z</time>
      </trkpt>
      <trkpt lat="45.13445" lon="5.91914">
        <ele>2011.4000244141</ele>
        <time>2023-08-12T15:18:26.000Z</time>
      </trkpt>
      <trkpt lat="45.13446" lon="5.91912">
        <ele>2011.5999755859</ele>
        <time>2023-08-12T15:18:28.000Z</time>
      </trkpt>
      <trkpt lat="45.13445" lon="5.91911">
        <ele>2011.5999755859</ele>
        <time>2023-08-12T15:18:36.000Z</time>
      </trkpt>
      <trkpt lat="45.13444" lon="5.91915">
        <ele>2011.5999755859</ele>
        <time>2023-08-12T15:18:42.000Z</time>
      </trkpt>
      <trkpt lat="45.13444" lon="5.91916">
        <ele>2011.5999755859</ele>
        <time>2023-08-12T15:18:44.000Z</time>
      </trkpt>
      <trkpt lat="45.13447" lon="5.91911">
        <ele>2011.5999755859</ele>
        <time>2023-08-12T15:18:53.000Z</time>
      </trkpt>
      <trkpt lat="45.13445" lon="5.91904">
        <ele>2011.1999511719</ele>
        <time>2023-08-12T15:19:00.000Z</time>
      </trkpt>
      <trkpt lat="45.13443" lon="5.91905">
        <ele>2010.4000244141</ele>
        <time>2023-08-12T15:19:05.000Z</time>
      </trkpt>
      <trkpt lat="45.13442" lon="5.91905">
        <ele>2010</ele>
        <time>2023-08-12T15:19:07.000Z</time>
      </trkpt>
      <trkpt lat="45.13439" lon="5.91904">
        <ele>2009.4000244141</ele>
        <time>2023-08-12T15:19:11.000Z</time>
      </trkpt>
      <trkpt lat="45.13436" lon="5.91901">
        <ele>2008.8000488281</ele>
        <time>2023-08-12T15:19:15.000Z</time>
      </trkpt>
      <trkpt lat="45.13431" lon="5.91896">
        <ele>2008.1999511719</ele>
        <time>2023-08-12T15:19:20.000Z</time>
      </trkpt>
      <trkpt lat="45.13429" lon="5.91893">
        <ele>2008</ele>
        <time>2023-08-12T15:19:22.000Z</time>
      </trkpt>
      <trkpt lat="45.13423" lon="5.91884">
        <ele>2007.5999755859</ele>
        <time>2023-08-12T15:19:30.000Z</time>
      </trkpt>
      <trkpt lat="45.13417" lon="5.91877">
        <ele>2007.1999511719</ele>
        <time>2023-08-12T15:19:36.000Z</time>
      </trkpt>
      <trkpt lat="45.13416" lon="5.91876">
        <ele>2007</ele>
        <time>2023-08-12T15:19:38.000Z</time>
      </trkpt>
      <trkpt lat="45.13416" lon="5.91873">
        <ele>2007.1999511719</ele>
        <time>2023-08-12T15:19:44.000Z</time>
      </trkpt>
      <trkpt lat="45.13415" lon="5.91876">
        <ele>2007.4000244141</ele>
        <time>2023-08-12T15:19:53.000Z</time>
      </trkpt>
      <trkpt lat="45.13414" lon="5.9188">
        <ele>2007.4000244141</ele>
        <time>2023-08-12T15:20:01.000Z</time>
      </trkpt>
      <trkpt lat="45.13411" lon="5.91878">
        <ele>2007.4000244141</ele>
        <time>2023-08-12T15:20:08.000Z</time>
      </trkpt>
      <trkpt lat="45.13406" lon="5.91861">
        <ele>2007</ele>
        <time>2023-08-12T15:20:17.000Z</time>
      </trkpt>
      <trkpt lat="45.13403" lon="5.91852">
        <ele>2006.8000488281</ele>
        <time>2023-08-12T15:20:23.000Z</time>
      </trkpt>
      <trkpt lat="45.13404" lon="5.91857">
        <ele>2006.8000488281</ele>
        <time>2023-08-12T15:20:30.000Z</time>
      </trkpt>
      <trkpt lat="45.13401" lon="5.91857">
        <ele>2007</ele>
        <time>2023-08-12T15:20:38.000Z</time>
      </trkpt>
      <trkpt lat="45.13398" lon="5.91844">
        <ele>2006.4000244141</ele>
        <time>2023-08-12T15:20:46.000Z</time>
      </trkpt>
      <trkpt lat="45.13394" lon="5.9183">
        <ele>2006.4000244141</ele>
        <time>2023-08-12T15:20:54.000Z</time>
      </trkpt>
      <trkpt lat="45.1339" lon="5.91824">
        <ele>2006.5999755859</ele>
        <time>2023-08-12T15:21:00.000Z</time>
      </trkpt>
      <trkpt lat="45.13387" lon="5.91817">
        <ele>2006.5999755859</ele>
        <time>2023-08-12T15:21:06.000Z</time>
      </trkpt>
      <trkpt lat="45.13382" lon="5.91808">
        <ele>2008.1999511719</ele>
        <time>2023-08-12T15:21:16.000Z</time>
      </trkpt>
      <trkpt lat="45.13378" lon="5.91806">
        <ele>2009.1999511719</ele>
        <time>2023-08-12T15:21:22.000Z</time>
      </trkpt>
      <trkpt lat="45.13378" lon="5.91806">
        <ele>2009.5999755859</ele>
        <time>2023-08-12T15:21:23.000Z</time>
      </trkpt>
      <trkpt lat="45.13375" lon="5.91803">
        <ele>2010.4000244141</ele>
        <time>2023-08-12T15:21:28.000Z</time>
      </trkpt>
      <trkpt lat="45.13375" lon="5.91803">
        <ele>2010.5999755859</ele>
        <time>2023-08-12T15:21:30.000Z</time>
      </trkpt>
      <trkpt lat="45.13373" lon="5.91801">
        <ele>2011.4000244141</ele>
        <time>2023-08-12T15:21:34.000Z</time>
      </trkpt>
      <trkpt lat="45.13371" lon="5.91799">
        <ele>2012.4000244141</ele>
        <time>2023-08-12T15:21:38.000Z</time>
      </trkpt>
      <trkpt lat="45.13371" lon="5.91799">
        <ele>2012.5999755859</ele>
        <time>2023-08-12T15:21:39.000Z</time>
      </trkpt>
      <trkpt lat="45.13368" lon="5.918">
        <ele>2013.1999511719</ele>
        <time>2023-08-12T15:21:45.000Z</time>
      </trkpt>
      <trkpt lat="45.13366" lon="5.918">
        <ele>2013.8000488281</ele>
        <time>2023-08-12T15:21:47.000Z</time>
      </trkpt>
      <trkpt lat="45.13361" lon="5.91796">
        <ele>2014.1999511719</ele>
        <time>2023-08-12T15:21:52.000Z</time>
      </trkpt>
      <trkpt lat="45.13355" lon="5.91789">
        <ele>2014.5999755859</ele>
        <time>2023-08-12T15:22:00.000Z</time>
      </trkpt>
      <trkpt lat="45.13349" lon="5.91786">
        <ele>2014.1999511719</ele>
        <time>2023-08-12T15:22:07.000Z</time>
      </trkpt>
      <trkpt lat="45.13345" lon="5.91784">
        <ele>2014.1999511719</ele>
        <time>2023-08-12T15:22:13.000Z</time>
      </trkpt>
      <trkpt lat="45.1334" lon="5.9178">
        <ele>2014.4000244141</ele>
        <time>2023-08-12T15:22:20.000Z</time>
      </trkpt>
      <trkpt lat="45.13338" lon="5.91777">
        <ele>2014.8000488281</ele>
        <time>2023-08-12T15:22:23.000Z</time>
      </trkpt>
      <trkpt lat="45.13332" lon="5.91777">
        <ele>2015</ele>
        <time>2023-08-12T15:22:30.000Z</time>
      </trkpt>
      <trkpt lat="45.13329" lon="5.91774">
        <ele>2014.5999755859</ele>
        <time>2023-08-12T15:22:39.000Z</time>
      </trkpt>
      <trkpt lat="45.13325" lon="5.91767">
        <ele>2013.8000488281</ele>
        <time>2023-08-12T15:22:45.000Z</time>
      </trkpt>
      <trkpt lat="45.1332" lon="5.91756">
        <ele>2014</ele>
        <time>2023-08-12T15:22:55.000Z</time>
      </trkpt>
      <trkpt lat="45.13318" lon="5.91754">
        <ele>2013.8000488281</ele>
        <time>2023-08-12T15:22:59.000Z</time>
      </trkpt>
      <trkpt lat="45.13316" lon="5.91752">
        <ele>2013.1999511719</ele>
        <time>2023-08-12T15:23:04.000Z</time>
      </trkpt>
      <trkpt lat="45.13312" lon="5.9175">
        <ele>2012.8000488281</ele>
        <time>2023-08-12T15:23:08.000Z</time>
      </trkpt>
      <trkpt lat="45.13308" lon="5.91749">
        <ele>2012.5999755859</ele>
        <time>2023-08-12T15:23:12.000Z</time>
      </trkpt>
      <trkpt lat="45.13303" lon="5.91747">
        <ele>2012</ele>
        <time>2023-08-12T15:23:18.000Z</time>
      </trkpt>
      <trkpt lat="45.13302" lon="5.91747">
        <ele>2011.5999755859</ele>
        <time>2023-08-12T15:23:20.000Z</time>
      </trkpt>
      <trkpt lat="45.13301" lon="5.91747">
        <ele>2011.4000244141</ele>
        <time>2023-08-12T15:23:23.000Z</time>
      </trkpt>
      <trkpt lat="45.13297" lon="5.91746">
        <ele>2010.4000244141</ele>
        <time>2023-08-12T15:23:28.000Z</time>
      </trkpt>
      <trkpt lat="45.13296" lon="5.91747">
        <ele>2010</ele>
        <time>2023-08-12T15:23:30.000Z</time>
      </trkpt>
      <trkpt lat="45.13291" lon="5.91747">
        <ele>2009.4000244141</ele>
        <time>2023-08-12T15:23:35.000Z</time>
      </trkpt>
      <trkpt lat="45.1329" lon="5.91747">
        <ele>2008.8000488281</ele>
        <time>2023-08-12T15:23:38.000Z</time>
      </trkpt>
      <trkpt lat="45.13286" lon="5.91742">
        <ele>2008.5999755859</ele>
        <time>2023-08-12T15:23:45.000Z</time>
      </trkpt>
      <trkpt lat="45.13283" lon="5.91741">
        <ele>2008.1999511719</ele>
        <time>2023-08-12T15:23:48.000Z</time>
      </trkpt>
      <trkpt lat="45.13279" lon="5.91739">
        <ele>2007.4000244141</ele>
        <time>2023-08-12T15:23:55.000Z</time>
      </trkpt>
      <trkpt lat="45.13278" lon="5.91739">
        <ele>2007.1999511719</ele>
        <time>2023-08-12T15:23:56.000Z</time>
      </trkpt>
      <trkpt lat="45.13277" lon="5.91736">
        <ele>2006.1999511719</ele>
        <time>2023-08-12T15:24:02.000Z</time>
      </trkpt>
      <trkpt lat="45.13276" lon="5.91735">
        <ele>2006</ele>
        <time>2023-08-12T15:24:03.000Z</time>
      </trkpt>
      <trkpt lat="45.13273" lon="5.9173">
        <ele>2005.4000244141</ele>
        <time>2023-08-12T15:24:07.000Z</time>
      </trkpt>
      <trkpt lat="45.13271" lon="5.91726">
        <ele>2005</ele>
        <time>2023-08-12T15:24:12.000Z</time>
      </trkpt>
      <trkpt lat="45.13272" lon="5.91725">
        <ele>2004.8000488281</ele>
        <time>2023-08-12T15:24:14.000Z</time>
      </trkpt>
      <trkpt lat="45.13272" lon="5.91725">
        <ele>2004.8000488281</ele>
        <time>2023-08-12T15:24:15.000Z</time>
      </trkpt>
      <trkpt lat="45.13275" lon="5.91723">
        <ele>2005</ele>
        <time>2023-08-12T15:24:19.000Z</time>
      </trkpt>
      <trkpt lat="45.13275" lon="5.91718">
        <ele>2004.8000488281</ele>
        <time>2023-08-12T15:24:29.000Z</time>
      </trkpt>
      <trkpt lat="45.13265" lon="5.91739">
        <ele>2005</ele>
        <time>2023-08-12T15:24:40.000Z</time>
      </trkpt>
      <trkpt lat="45.13268" lon="5.91735">
        <ele>2004.5999755859</ele>
        <time>2023-08-12T15:24:46.000Z</time>
      </trkpt>
      <trkpt lat="45.13269" lon="5.91732">
        <ele>2004</ele>
        <time>2023-08-12T15:24:53.000Z</time>
      </trkpt>
      <trkpt lat="45.13269" lon="5.91731">
        <ele>2004</ele>
        <time>2023-08-12T15:24:57.000Z</time>
      </trkpt>
      <trkpt lat="45.13269" lon="5.9173">
        <ele>2004</ele>
        <time>2023-08-12T15:25:04.000Z</time>
      </trkpt>
      <trkpt lat="45.13269" lon="5.91734">
        <ele>2004</ele>
        <time>2023-08-12T15:25:13.000Z</time>
      </trkpt>
      <trkpt lat="45.13265" lon="5.91732">
        <ele>2003.8000488281</ele>
        <time>2023-08-12T15:25:19.000Z</time>
      </trkpt>
      <trkpt lat="45.13259" lon="5.9173">
        <ele>2003.1999511719</ele>
        <time>2023-08-12T15:25:26.000Z</time>
      </trkpt>
      <trkpt lat="45.13259" lon="5.91725">
        <ele>2003.1999511719</ele>
        <time>2023-08-12T15:25:33.000Z</time>
      </trkpt>
      <trkpt lat="45.13258" lon="5.91727">
        <ele>2003.1999511719</ele>
        <time>2023-08-12T15:25:40.000Z</time>
      </trkpt>
      <trkpt lat="45.13261" lon="5.91731">
        <ele>2003.1999511719</ele>
        <time>2023-08-12T15:25:48.000Z</time>
      </trkpt>
      <trkpt lat="45.13266" lon="5.91729">
        <ele>2003.4000244141</ele>
        <time>2023-08-12T15:25:54.000Z</time>
      </trkpt>
      <trkpt lat="45.13268" lon="5.91727">
        <ele>2004.5999755859</ele>
        <time>2023-08-12T15:26:01.000Z</time>
      </trkpt>
      <trkpt lat="45.13269" lon="5.91726">
        <ele>2005</ele>
        <time>2023-08-12T15:26:03.000Z</time>
      </trkpt>
      <trkpt lat="45.13274" lon="5.91722">
        <ele>2006</ele>
        <time>2023-08-12T15:26:08.000Z</time>
      </trkpt>
      <trkpt lat="45.13275" lon="5.91722">
        <ele>2006.4000244141</ele>
        <time>2023-08-12T15:26:09.000Z</time>
      </trkpt>
      <trkpt lat="45.13274" lon="5.9172">
        <ele>2006.8000488281</ele>
        <time>2023-08-12T15:26:12.000Z</time>
      </trkpt>
      <trkpt lat="45.13273" lon="5.91718">
        <ele>2007.1999511719</ele>
        <time>2023-08-12T15:26:14.000Z</time>
      </trkpt>
      <trkpt lat="45.13273" lon="5.91718">
        <ele>2007.4000244141</ele>
        <time>2023-08-12T15:26:15.000Z</time>
      </trkpt>
      <trkpt lat="45.13273" lon="5.91709">
        <ele>2008.4000244141</ele>
        <time>2023-08-12T15:26:21.000Z</time>
      </trkpt>
      <trkpt lat="45.13273" lon="5.91707">
        <ele>2008.8000488281</ele>
        <time>2023-08-12T15:26:23.000Z</time>
      </trkpt>
      <trkpt lat="45.13273" lon="5.91703">
        <ele>2009.4000244141</ele>
        <time>2023-08-12T15:26:27.000Z</time>
      </trkpt>
      <trkpt lat="45.13273" lon="5.91698">
        <ele>2009.4000244141</ele>
        <time>2023-08-12T15:26:30.000Z</time>
      </trkpt>
      <trkpt lat="45.13272" lon="5.91691">
        <ele>2009</ele>
        <time>2023-08-12T15:26:37.000Z</time>
      </trkpt>
      <trkpt lat="45.13274" lon="5.91687">
        <ele>2008.4000244141</ele>
        <time>2023-08-12T15:26:43.000Z</time>
      </trkpt>
      <trkpt lat="45.13274" lon="5.91687">
        <ele>2008.4000244141</ele>
        <time>2023-08-12T15:26:46.000Z</time>
      </trkpt>
      <trkpt lat="45.13277" lon="5.91681">
        <ele>2008.1999511719</ele>
        <time>2023-08-12T15:26:54.000Z</time>
      </trkpt>
      <trkpt lat="45.13284" lon="5.91672">
        <ele>2007.5999755859</ele>
        <time>2023-08-12T15:27:02.000Z</time>
      </trkpt>
      <trkpt lat="45.13289" lon="5.9167">
        <ele>2007.5999755859</ele>
        <time>2023-08-12T15:27:09.000Z</time>
      </trkpt>
      <trkpt lat="45.13297" lon="5.91667">
        <ele>2008.1999511719</ele>
        <time>2023-08-12T15:27:15.000Z</time>
      </trkpt>
      <trkpt lat="45.13305" lon="5.91664">
        <ele>2008.4000244141</ele>
        <time>2023-08-12T15:27:20.000Z</time>
      </trkpt>
      <trkpt lat="45.13306" lon="5.91663">
        <ele>2008.8000488281</ele>
        <time>2023-08-12T15:27:27.000Z</time>
      </trkpt>
      <trkpt lat="45.13314" lon="5.91654">
        <ele>2009</ele>
        <time>2023-08-12T15:27:34.000Z</time>
      </trkpt>
      <trkpt lat="45.13315" lon="5.91651">
        <ele>2009.5999755859</ele>
        <time>2023-08-12T15:27:37.000Z</time>
      </trkpt>
      <trkpt lat="45.13317" lon="5.91645">
        <ele>2010</ele>
        <time>2023-08-12T15:27:41.000Z</time>
      </trkpt>
      <trkpt lat="45.13318" lon="5.91642">
        <ele>2010.5999755859</ele>
        <time>2023-08-12T15:27:45.000Z</time>
      </trkpt>
      <trkpt lat="45.13321" lon="5.91638">
        <ele>2010.8000488281</ele>
        <time>2023-08-12T15:27:50.000Z</time>
      </trkpt>
      <trkpt lat="45.13328" lon="5.91636">
        <ele>2011.4000244141</ele>
        <time>2023-08-12T15:27:58.000Z</time>
      </trkpt>
      <trkpt lat="45.1333" lon="5.91635">
        <ele>2011.5999755859</ele>
        <time>2023-08-12T15:28:05.000Z</time>
      </trkpt>
      <trkpt lat="45.13331" lon="5.91635">
        <ele>2011.5999755859</ele>
        <time>2023-08-12T15:28:06.000Z</time>
      </trkpt>
      <trkpt lat="45.13336" lon="5.91637">
        <ele>2012.4000244141</ele>
        <time>2023-08-12T15:28:11.000Z</time>
      </trkpt>
      <trkpt lat="45.13339" lon="5.91638">
        <ele>2012.5999755859</ele>
        <time>2023-08-12T15:28:13.000Z</time>
      </trkpt>
      <trkpt lat="45.13344" lon="5.91637">
        <ele>2012.8000488281</ele>
        <time>2023-08-12T15:28:18.000Z</time>
      </trkpt>
      <trkpt lat="45.13344" lon="5.91627">
        <ele>2012.4000244141</ele>
        <time>2023-08-12T15:28:25.000Z</time>
      </trkpt>
      <trkpt lat="45.13345" lon="5.91621">
        <ele>2013.1999511719</ele>
        <time>2023-08-12T15:28:31.000Z</time>
      </trkpt>
      <trkpt lat="45.13346" lon="5.9162">
        <ele>2013.8000488281</ele>
        <time>2023-08-12T15:28:35.000Z</time>
      </trkpt>
      <trkpt lat="45.13347" lon="5.9162">
        <ele>2014.5999755859</ele>
        <time>2023-08-12T15:28:38.000Z</time>
      </trkpt>
      <trkpt lat="45.13347" lon="5.91619">
        <ele>2015</ele>
        <time>2023-08-12T15:28:40.000Z</time>
      </trkpt>
      <trkpt lat="45.13348" lon="5.91616">
        <ele>2016</ele>
        <time>2023-08-12T15:28:44.000Z</time>
      </trkpt>
      <trkpt lat="45.13348" lon="5.91616">
        <ele>2016.1999511719</ele>
        <time>2023-08-12T15:28:45.000Z</time>
      </trkpt>
      <trkpt lat="45.13349" lon="5.91614">
        <ele>2017.1999511719</ele>
        <time>2023-08-12T15:28:51.000Z</time>
      </trkpt>
      <trkpt lat="45.1335" lon="5.91613">
        <ele>2017.5999755859</ele>
        <time>2023-08-12T15:28:53.000Z</time>
      </trkpt>
      <trkpt lat="45.1335" lon="5.91611">
        <ele>2018.1999511719</ele>
        <time>2023-08-12T15:28:58.000Z</time>
      </trkpt>
      <trkpt lat="45.13349" lon="5.91607">
        <ele>2019.1999511719</ele>
        <time>2023-08-12T15:29:04.000Z</time>
      </trkpt>
      <trkpt lat="45.13349" lon="5.91605">
        <ele>2019.4000244141</ele>
        <time>2023-08-12T15:29:05.000Z</time>
      </trkpt>
      <trkpt lat="45.13347" lon="5.91606">
        <ele>2019.8000488281</ele>
        <time>2023-08-12T15:29:12.000Z</time>
      </trkpt>
      <trkpt lat="45.1335" lon="5.91607">
        <ele>2019.8000488281</ele>
        <time>2023-08-12T15:29:20.000Z</time>
      </trkpt>
      <trkpt lat="45.13352" lon="5.91604">
        <ele>2020</ele>
        <time>2023-08-12T15:29:28.000Z</time>
      </trkpt>
      <trkpt lat="45.13354" lon="5.91602">
        <ele>2020.4000244141</ele>
        <time>2023-08-12T15:29:31.000Z</time>
      </trkpt>
      <trkpt lat="45.13357" lon="5.91599">
        <ele>2020.8000488281</ele>
        <time>2023-08-12T15:29:35.000Z</time>
      </trkpt>
      <trkpt lat="45.13356" lon="5.91597">
        <ele>2021.4000244141</ele>
        <time>2023-08-12T15:29:39.000Z</time>
      </trkpt>
      <trkpt lat="45.13356" lon="5.91596">
        <ele>2021.8000488281</ele>
        <time>2023-08-12T15:29:41.000Z</time>
      </trkpt>
      <trkpt lat="45.13358" lon="5.91591">
        <ele>2022.5999755859</ele>
        <time>2023-08-12T15:29:47.000Z</time>
      </trkpt>
      <trkpt lat="45.13359" lon="5.9159">
        <ele>2022.8000488281</ele>
        <time>2023-08-12T15:29:48.000Z</time>
      </trkpt>
      <trkpt lat="45.13359" lon="5.91588">
        <ele>2023.5999755859</ele>
        <time>2023-08-12T15:29:52.000Z</time>
      </trkpt>
      <trkpt lat="45.1336" lon="5.91584">
        <ele>2024.1999511719</ele>
        <time>2023-08-12T15:29:55.000Z</time>
      </trkpt>
      <trkpt lat="45.13361" lon="5.91582">
        <ele>2024.8000488281</ele>
        <time>2023-08-12T15:29:58.000Z</time>
      </trkpt>
      <trkpt lat="45.13362" lon="5.91581">
        <ele>2025.5999755859</ele>
        <time>2023-08-12T15:30:03.000Z</time>
      </trkpt>
      <trkpt lat="45.13362" lon="5.9158">
        <ele>2026</ele>
        <time>2023-08-12T15:30:04.000Z</time>
      </trkpt>
      <trkpt lat="45.13362" lon="5.91575">
        <ele>2027</ele>
        <time>2023-08-12T15:30:09.000Z</time>
      </trkpt>
      <trkpt lat="45.13362" lon="5.91573">
        <ele>2027.1999511719</ele>
        <time>2023-08-12T15:30:10.000Z</time>
      </trkpt>
      <trkpt lat="45.13362" lon="5.91569">
        <ele>2028.1999511719</ele>
        <time>2023-08-12T15:30:15.000Z</time>
      </trkpt>
      <trkpt lat="45.13362" lon="5.91569">
        <ele>2028.8000488281</ele>
        <time>2023-08-12T15:30:19.000Z</time>
      </trkpt>
      <trkpt lat="45.13362" lon="5.91566">
        <ele>2029.1999511719</ele>
        <time>2023-08-12T15:30:22.000Z</time>
      </trkpt>
      <trkpt lat="45.13362" lon="5.91565">
        <ele>2029.5999755859</ele>
        <time>2023-08-12T15:30:25.000Z</time>
      </trkpt>
      <trkpt lat="45.13367" lon="5.91556">
        <ele>2030.1999511719</ele>
        <time>2023-08-12T15:30:34.000Z</time>
      </trkpt>
      <trkpt lat="45.1337" lon="5.91551">
        <ele>2030</ele>
        <time>2023-08-12T15:30:41.000Z</time>
      </trkpt>
      <trkpt lat="45.13372" lon="5.91547">
        <ele>2029.8000488281</ele>
        <time>2023-08-12T15:30:47.000Z</time>
      </trkpt>
      <trkpt lat="45.13373" lon="5.91543">
        <ele>2029.1999511719</ele>
        <time>2023-08-12T15:30:54.000Z</time>
      </trkpt>
      <trkpt lat="45.13381" lon="5.91523">
        <ele>2030</ele>
        <time>2023-08-12T15:31:14.000Z</time>
      </trkpt>
      <trkpt lat="45.13382" lon="5.91522">
        <ele>2030.4000244141</ele>
        <time>2023-08-12T15:31:15.000Z</time>
      </trkpt>
      <trkpt lat="45.13384" lon="5.9147">
        <ele>2035.8000488281</ele>
        <time>2023-08-12T15:31:56.000Z</time>
      </trkpt>
      <trkpt lat="45.13384" lon="5.9147">
        <ele>2035.8000488281</ele>
        <time>2023-08-12T15:31:57.000Z</time>
      </trkpt>
      <trkpt lat="45.13405" lon="5.91397">
        <ele>2040.8000488281</ele>
        <time>2023-08-12T15:32:58.000Z</time>
      </trkpt>
      <trkpt lat="45.13404" lon="5.91393">
        <ele>2041</ele>
        <time>2023-08-12T15:33:03.000Z</time>
      </trkpt>
      <trkpt lat="45.13404" lon="5.91392">
        <ele>2041</ele>
        <time>2023-08-12T15:33:04.000Z</time>
      </trkpt>
      <trkpt lat="45.13404" lon="5.91387">
        <ele>2042</ele>
        <time>2023-08-12T15:33:09.000Z</time>
      </trkpt>
      <trkpt lat="45.13403" lon="5.91384">
        <ele>2042.4000244141</ele>
        <time>2023-08-12T15:33:12.000Z</time>
      </trkpt>
      <trkpt lat="45.13403" lon="5.91382">
        <ele>2043</ele>
        <time>2023-08-12T15:33:17.000Z</time>
      </trkpt>
      <trkpt lat="45.13403" lon="5.91379">
        <ele>2043.1999511719</ele>
        <time>2023-08-12T15:33:20.000Z</time>
      </trkpt>
      <trkpt lat="45.13404" lon="5.91375">
        <ele>2044.1999511719</ele>
        <time>2023-08-12T15:33:26.000Z</time>
      </trkpt>
      <trkpt lat="45.13404" lon="5.91375">
        <ele>2044.4000244141</ele>
        <time>2023-08-12T15:33:27.000Z</time>
      </trkpt>
      <trkpt lat="45.13405" lon="5.9137">
        <ele>2045.1999511719</ele>
        <time>2023-08-12T15:33:32.000Z</time>
      </trkpt>
      <trkpt lat="45.1341" lon="5.9136">
        <ele>2045.4000244141</ele>
        <time>2023-08-12T15:33:41.000Z</time>
      </trkpt>
      <trkpt lat="45.13418" lon="5.91351">
        <ele>2045.5999755859</ele>
        <time>2023-08-12T15:33:51.000Z</time>
      </trkpt>
      <trkpt lat="45.13424" lon="5.91348">
        <ele>2046</ele>
        <time>2023-08-12T15:33:58.000Z</time>
      </trkpt>
      <trkpt lat="45.13427" lon="5.91341">
        <ele>2046</ele>
        <time>2023-08-12T15:34:04.000Z</time>
      </trkpt>
      <trkpt lat="45.13428" lon="5.91334">
        <ele>2046.1999511719</ele>
        <time>2023-08-12T15:34:11.000Z</time>
      </trkpt>
      <trkpt lat="45.1343" lon="5.91326">
        <ele>2047.4000244141</ele>
        <time>2023-08-12T15:34:19.000Z</time>
      </trkpt>
      <trkpt lat="45.13431" lon="5.91324">
        <ele>2047.5999755859</ele>
        <time>2023-08-12T15:34:21.000Z</time>
      </trkpt>
      <trkpt lat="45.13436" lon="5.91321">
        <ele>2048.1999511719</ele>
        <time>2023-08-12T15:34:28.000Z</time>
      </trkpt>
      <trkpt lat="45.13438" lon="5.91317">
        <ele>2047</ele>
        <time>2023-08-12T15:34:35.000Z</time>
      </trkpt>
      <trkpt lat="45.13442" lon="5.9131">
        <ele>2046.4000244141</ele>
        <time>2023-08-12T15:34:44.000Z</time>
      </trkpt>
      <trkpt lat="45.13443" lon="5.91309">
        <ele>2046.1999511719</ele>
        <time>2023-08-12T15:34:46.000Z</time>
      </trkpt>
      <trkpt lat="45.13444" lon="5.9131">
        <ele>2045.5999755859</ele>
        <time>2023-08-12T15:34:49.000Z</time>
      </trkpt>
      <trkpt lat="45.13446" lon="5.91304">
        <ele>2045.1999511719</ele>
        <time>2023-08-12T15:34:53.000Z</time>
      </trkpt>
      <trkpt lat="45.13447" lon="5.91302">
        <ele>2045.1999511719</ele>
        <time>2023-08-12T15:34:54.000Z</time>
      </trkpt>
      <trkpt lat="45.13449" lon="5.91296">
        <ele>2045.1999511719</ele>
        <time>2023-08-12T15:35:00.000Z</time>
      </trkpt>
      <trkpt lat="45.13452" lon="5.91293">
        <ele>2045.4000244141</ele>
        <time>2023-08-12T15:35:08.000Z</time>
      </trkpt>
      <trkpt lat="45.13455" lon="5.91285">
        <ele>2044.8000488281</ele>
        <time>2023-08-12T15:35:16.000Z</time>
      </trkpt>
      <trkpt lat="45.13459" lon="5.91281">
        <ele>2044.5999755859</ele>
        <time>2023-08-12T15:35:23.000Z</time>
      </trkpt>
      <trkpt lat="45.13464" lon="5.91274">
        <ele>2044.1999511719</ele>
        <time>2023-08-12T15:35:33.000Z</time>
      </trkpt>
      <trkpt lat="45.13468" lon="5.91271">
        <ele>2043.5999755859</ele>
        <time>2023-08-12T15:35:38.000Z</time>
      </trkpt>
      <trkpt lat="45.13472" lon="5.91269">
        <ele>2042.8000488281</ele>
        <time>2023-08-12T15:35:44.000Z</time>
      </trkpt>
      <trkpt lat="45.13472" lon="5.91268">
        <ele>2042.8000488281</ele>
        <time>2023-08-12T15:35:45.000Z</time>
      </trkpt>
      <trkpt lat="45.13475" lon="5.91255">
        <ele>2042.5999755859</ele>
        <time>2023-08-12T15:35:56.000Z</time>
      </trkpt>
      <trkpt lat="45.13476" lon="5.91252">
        <ele>2041.8000488281</ele>
        <time>2023-08-12T15:36:04.000Z</time>
      </trkpt>
      <trkpt lat="45.13477" lon="5.9125">
        <ele>2040.8000488281</ele>
        <time>2023-08-12T15:36:09.000Z</time>
      </trkpt>
      <trkpt lat="45.13477" lon="5.91248">
        <ele>2040.5999755859</ele>
        <time>2023-08-12T15:36:12.000Z</time>
      </trkpt>
      <trkpt lat="45.13481" lon="5.91242">
        <ele>2039.4000244141</ele>
        <time>2023-08-12T15:36:22.000Z</time>
      </trkpt>
      <trkpt lat="45.13487" lon="5.91233">
        <ele>2038.8000488281</ele>
        <time>2023-08-12T15:36:30.000Z</time>
      </trkpt>
      <trkpt lat="45.13487" lon="5.91229">
        <ele>2038.5999755859</ele>
        <time>2023-08-12T15:36:35.000Z</time>
      </trkpt>
      <trkpt lat="45.13487" lon="5.91228">
        <ele>2038.4000244141</ele>
        <time>2023-08-12T15:36:37.000Z</time>
      </trkpt>
      <trkpt lat="45.13486" lon="5.91215">
        <ele>2036.4000244141</ele>
        <time>2023-08-12T15:36:51.000Z</time>
      </trkpt>
      <trkpt lat="45.13484" lon="5.91215">
        <ele>2036.1999511719</ele>
        <time>2023-08-12T15:36:54.000Z</time>
      </trkpt>
      <trkpt lat="45.13483" lon="5.91215">
        <ele>2036.4000244141</ele>
        <time>2023-08-12T15:37:03.000Z</time>
      </trkpt>
      <trkpt lat="45.13485" lon="5.91219">
        <ele>2036</ele>
        <time>2023-08-12T15:37:09.000Z</time>
      </trkpt>
      <trkpt lat="45.13489" lon="5.9122">
        <ele>2036</ele>
        <time>2023-08-12T15:37:13.000Z</time>
      </trkpt>
      <trkpt lat="45.13491" lon="5.91219">
        <ele>2035.4000244141</ele>
        <time>2023-08-12T15:37:20.000Z</time>
      </trkpt>
      <trkpt lat="45.13488" lon="5.91221">
        <ele>2035</ele>
        <time>2023-08-12T15:37:28.000Z</time>
      </trkpt>
      <trkpt lat="45.13486" lon="5.91222">
        <ele>2035.1999511719</ele>
        <time>2023-08-12T15:37:36.000Z</time>
      </trkpt>
      <trkpt lat="45.13487" lon="5.91217">
        <ele>2034.1999511719</ele>
        <time>2023-08-12T15:37:42.000Z</time>
      </trkpt>
      <trkpt lat="45.13488" lon="5.91215">
        <ele>2034.1999511719</ele>
        <time>2023-08-12T15:37:44.000Z</time>
      </trkpt>
      <trkpt lat="45.13487" lon="5.91213">
        <ele>2033.1999511719</ele>
        <time>2023-08-12T15:37:47.000Z</time>
      </trkpt>
      <trkpt lat="45.13483" lon="5.9121">
        <ele>2032.4000244141</ele>
        <time>2023-08-12T15:37:52.000Z</time>
      </trkpt>
      <trkpt lat="45.13474" lon="5.91207">
        <ele>2032.4000244141</ele>
        <time>2023-08-12T15:38:00.000Z</time>
      </trkpt>
      <trkpt lat="45.13472" lon="5.91204">
        <ele>2032.4000244141</ele>
        <time>2023-08-12T15:38:06.000Z</time>
      </trkpt>
      <trkpt lat="45.13471" lon="5.91203">
        <ele>2032.1999511719</ele>
        <time>2023-08-12T15:38:11.000Z</time>
      </trkpt>
      <trkpt lat="45.13471" lon="5.91203">
        <ele>2032</ele>
        <time>2023-08-12T15:38:13.000Z</time>
      </trkpt>
      <trkpt lat="45.13471" lon="5.91203">
        <ele>2031.1999511719</ele>
        <time>2023-08-12T15:38:18.000Z</time>
      </trkpt>
      <trkpt lat="45.13471" lon="5.91202">
        <ele>2031</ele>
        <time>2023-08-12T15:38:20.000Z</time>
      </trkpt>
      <trkpt lat="45.13475" lon="5.912">
        <ele>2030.1999511719</ele>
        <time>2023-08-12T15:38:27.000Z</time>
      </trkpt>
      <trkpt lat="45.13475" lon="5.912">
        <ele>2030</ele>
        <time>2023-08-12T15:38:28.000Z</time>
      </trkpt>
      <trkpt lat="45.13479" lon="5.91201">
        <ele>2028.8000488281</ele>
        <time>2023-08-12T15:38:36.000Z</time>
      </trkpt>
      <trkpt lat="45.13477" lon="5.912">
        <ele>2027.8000488281</ele>
        <time>2023-08-12T15:38:41.000Z</time>
      </trkpt>
      <trkpt lat="45.13477" lon="5.91199">
        <ele>2027.8000488281</ele>
        <time>2023-08-12T15:38:42.000Z</time>
      </trkpt>
      <trkpt lat="45.1348" lon="5.91199">
        <ele>2026.8000488281</ele>
        <time>2023-08-12T15:38:48.000Z</time>
      </trkpt>
      <trkpt lat="45.13482" lon="5.91199">
        <ele>2025.8000488281</ele>
        <time>2023-08-12T15:38:56.000Z</time>
      </trkpt>
      <trkpt lat="45.13482" lon="5.912">
        <ele>2025.5999755859</ele>
        <time>2023-08-12T15:38:57.000Z</time>
      </trkpt>
      <trkpt lat="45.1348" lon="5.91199">
        <ele>2024.4000244141</ele>
        <time>2023-08-12T15:39:04.000Z</time>
      </trkpt>
      <trkpt lat="45.13481" lon="5.91199">
        <ele>2024.4000244141</ele>
        <time>2023-08-12T15:39:05.000Z</time>
      </trkpt>
      <trkpt lat="45.13482" lon="5.91194">
        <ele>2024</ele>
        <time>2023-08-12T15:39:13.000Z</time>
      </trkpt>
      <trkpt lat="45.13481" lon="5.91192">
        <ele>2023.4000244141</ele>
        <time>2023-08-12T15:39:17.000Z</time>
      </trkpt>
      <trkpt lat="45.13482" lon="5.91192">
        <ele>2023</ele>
        <time>2023-08-12T15:39:20.000Z</time>
      </trkpt>
      <trkpt lat="45.13482" lon="5.91191">
        <ele>2022.4000244141</ele>
        <time>2023-08-12T15:39:24.000Z</time>
      </trkpt>
      <trkpt lat="45.13483" lon="5.91192">
        <ele>2022.1999511719</ele>
        <time>2023-08-12T15:39:29.000Z</time>
      </trkpt>
      <trkpt lat="45.13487" lon="5.91186">
        <ele>2022.4000244141</ele>
        <time>2023-08-12T15:39:38.000Z</time>
      </trkpt>
      <trkpt lat="45.13485" lon="5.91192">
        <ele>2022.5999755859</ele>
        <time>2023-08-12T15:39:47.000Z</time>
      </trkpt>
      <trkpt lat="45.13485" lon="5.91194">
        <ele>2022.8000488281</ele>
        <time>2023-08-12T15:39:53.000Z</time>
      </trkpt>
      <trkpt lat="45.13482" lon="5.91191">
        <ele>2022.5999755859</ele>
        <time>2023-08-12T15:40:01.000Z</time>
      </trkpt>
      <trkpt lat="45.13481" lon="5.9119">
        <ele>2022.5999755859</ele>
        <time>2023-08-12T15:40:09.000Z</time>
      </trkpt>
      <trkpt lat="45.13482" lon="5.91188">
        <ele>2023</ele>
        <time>2023-08-12T15:40:15.000Z</time>
      </trkpt>
      <trkpt lat="45.13487" lon="5.91189">
        <ele>2021.5999755859</ele>
        <time>2023-08-12T15:40:25.000Z</time>
      </trkpt>
      <trkpt lat="45.1349" lon="5.91191">
        <ele>2021.1999511719</ele>
        <time>2023-08-12T15:40:28.000Z</time>
      </trkpt>
      <trkpt lat="45.13491" lon="5.91188">
        <ele>2021</ele>
        <time>2023-08-12T15:40:33.000Z</time>
      </trkpt>
      <trkpt lat="45.13491" lon="5.91188">
        <ele>2019.1999511719</ele>
        <time>2023-08-12T15:40:47.000Z</time>
      </trkpt>
      <trkpt lat="45.1349" lon="5.91187">
        <ele>2018.5999755859</ele>
        <time>2023-08-12T15:40:50.000Z</time>
      </trkpt>
      <trkpt lat="45.13489" lon="5.91184">
        <ele>2018</ele>
        <time>2023-08-12T15:40:54.000Z</time>
      </trkpt>
      <trkpt lat="45.13489" lon="5.91182">
        <ele>2017.8000488281</ele>
        <time>2023-08-12T15:40:57.000Z</time>
      </trkpt>
      <trkpt lat="45.13489" lon="5.91178">
        <ele>2017.1999511719</ele>
        <time>2023-08-12T15:41:04.000Z</time>
      </trkpt>
      <trkpt lat="45.13488" lon="5.91178">
        <ele>2016.8000488281</ele>
        <time>2023-08-12T15:41:06.000Z</time>
      </trkpt>
      <trkpt lat="45.13488" lon="5.91171">
        <ele>2015.8000488281</ele>
        <time>2023-08-12T15:41:14.000Z</time>
      </trkpt>
      <trkpt lat="45.13486" lon="5.91169">
        <ele>2015.4000244141</ele>
        <time>2023-08-12T15:41:17.000Z</time>
      </trkpt>
      <trkpt lat="45.13486" lon="5.91166">
        <ele>2014.5999755859</ele>
        <time>2023-08-12T15:41:21.000Z</time>
      </trkpt>
      <trkpt lat="45.13487" lon="5.91164">
        <ele>2014.4000244141</ele>
        <time>2023-08-12T15:41:23.000Z</time>
      </trkpt>
      <trkpt lat="45.13488" lon="5.91161">
        <ele>2013.5999755859</ele>
        <time>2023-08-12T15:41:28.000Z</time>
      </trkpt>
      <trkpt lat="45.13489" lon="5.9116">
        <ele>2013.1999511719</ele>
        <time>2023-08-12T15:41:30.000Z</time>
      </trkpt>
      <trkpt lat="45.1349" lon="5.91157">
        <ele>2012.4000244141</ele>
        <time>2023-08-12T15:41:34.000Z</time>
      </trkpt>
      <trkpt lat="45.13491" lon="5.91155">
        <ele>2011.5999755859</ele>
        <time>2023-08-12T15:41:38.000Z</time>
      </trkpt>
      <trkpt lat="45.13491" lon="5.91155">
        <ele>2011.4000244141</ele>
        <time>2023-08-12T15:41:39.000Z</time>
      </trkpt>
      <trkpt lat="45.1349" lon="5.9116">
        <ele>2011</ele>
        <time>2023-08-12T15:41:46.000Z</time>
      </trkpt>
      <trkpt lat="45.13497" lon="5.91161">
        <ele>2011.1999511719</ele>
        <time>2023-08-12T15:41:53.000Z</time>
      </trkpt>
      <trkpt lat="45.135" lon="5.91159">
        <ele>2011.4000244141</ele>
        <time>2023-08-12T15:42:02.000Z</time>
      </trkpt>
      <trkpt lat="45.135" lon="5.91161">
        <ele>2011.5999755859</ele>
        <time>2023-08-12T15:42:11.000Z</time>
      </trkpt>
      <trkpt lat="45.13501" lon="5.9116">
        <ele>2011.8000488281</ele>
        <time>2023-08-12T15:42:23.000Z</time>
      </trkpt>
      <trkpt lat="45.13499" lon="5.91159">
        <ele>2011.5999755859</ele>
        <time>2023-08-12T15:42:30.000Z</time>
      </trkpt>
      <trkpt lat="45.13499" lon="5.91155">
        <ele>2011.1999511719</ele>
        <time>2023-08-12T15:42:38.000Z</time>
      </trkpt>
      <trkpt lat="45.13505" lon="5.91152">
        <ele>2010.1999511719</ele>
        <time>2023-08-12T15:42:46.000Z</time>
      </trkpt>
      <trkpt lat="45.13505" lon="5.91152">
        <ele>2009.8000488281</ele>
        <time>2023-08-12T15:42:47.000Z</time>
      </trkpt>
      <trkpt lat="45.13508" lon="5.91153">
        <ele>2009.1999511719</ele>
        <time>2023-08-12T15:42:53.000Z</time>
      </trkpt>
      <trkpt lat="45.13509" lon="5.91153">
        <ele>2008.5999755859</ele>
        <time>2023-08-12T15:42:55.000Z</time>
      </trkpt>
      <trkpt lat="45.13511" lon="5.91153">
        <ele>2008.1999511719</ele>
        <time>2023-08-12T15:43:04.000Z</time>
      </trkpt>
      <trkpt lat="45.13511" lon="5.91154">
        <ele>2008</ele>
        <time>2023-08-12T15:43:06.000Z</time>
      </trkpt>
      <trkpt lat="45.13514" lon="5.91155">
        <ele>2007.1999511719</ele>
        <time>2023-08-12T15:43:13.000Z</time>
      </trkpt>
      <trkpt lat="45.13514" lon="5.91155">
        <ele>2007</ele>
        <time>2023-08-12T15:43:14.000Z</time>
      </trkpt>
      <trkpt lat="45.13514" lon="5.91154">
        <ele>2006.4000244141</ele>
        <time>2023-08-12T15:43:20.000Z</time>
      </trkpt>
      <trkpt lat="45.13515" lon="5.91153">
        <ele>2005.8000488281</ele>
        <time>2023-08-12T15:43:22.000Z</time>
      </trkpt>
      <trkpt lat="45.13516" lon="5.91151">
        <ele>2004.8000488281</ele>
        <time>2023-08-12T15:43:27.000Z</time>
      </trkpt>
      <trkpt lat="45.13516" lon="5.9115">
        <ele>2004.8000488281</ele>
        <time>2023-08-12T15:43:28.000Z</time>
      </trkpt>
      <trkpt lat="45.13516" lon="5.91149">
        <ele>2003.8000488281</ele>
        <time>2023-08-12T15:43:34.000Z</time>
      </trkpt>
      <trkpt lat="45.13514" lon="5.91149">
        <ele>2003.5999755859</ele>
        <time>2023-08-12T15:43:37.000Z</time>
      </trkpt>
      <trkpt lat="45.13514" lon="5.91144">
        <ele>2002.5999755859</ele>
        <time>2023-08-12T15:43:42.000Z</time>
      </trkpt>
      <trkpt lat="45.13514" lon="5.91143">
        <ele>2002.4000244141</ele>
        <time>2023-08-12T15:43:43.000Z</time>
      </trkpt>
      <trkpt lat="45.13514" lon="5.91141">
        <ele>2001.5999755859</ele>
        <time>2023-08-12T15:43:48.000Z</time>
      </trkpt>
      <trkpt lat="45.13515" lon="5.9114">
        <ele>2001.4000244141</ele>
        <time>2023-08-12T15:43:50.000Z</time>
      </trkpt>
      <trkpt lat="45.13515" lon="5.91141">
        <ele>2000.5999755859</ele>
        <time>2023-08-12T15:43:56.000Z</time>
      </trkpt>
      <trkpt lat="45.13515" lon="5.91141">
        <ele>2000.4000244141</ele>
        <time>2023-08-12T15:43:57.000Z</time>
      </trkpt>
      <trkpt lat="45.13515" lon="5.91139">
        <ele>1999.4000244141</ele>
        <time>2023-08-12T15:44:05.000Z</time>
      </trkpt>
      <trkpt lat="45.13516" lon="5.91139">
        <ele>1999.1999511719</ele>
        <time>2023-08-12T15:44:06.000Z</time>
      </trkpt>
      <trkpt lat="45.13516" lon="5.91136">
        <ele>1998.5999755859</ele>
        <time>2023-08-12T15:44:13.000Z</time>
      </trkpt>
      <trkpt lat="45.13512" lon="5.91139">
        <ele>1998.1999511719</ele>
        <time>2023-08-12T15:44:20.000Z</time>
      </trkpt>
      <trkpt lat="45.13512" lon="5.91139">
        <ele>1998.1999511719</ele>
        <time>2023-08-12T15:44:21.000Z</time>
      </trkpt>
      <trkpt lat="45.1351" lon="5.91135">
        <ele>1997.4000244141</ele>
        <time>2023-08-12T15:44:29.000Z</time>
      </trkpt>
      <trkpt lat="45.13511" lon="5.91134">
        <ele>1997.1999511719</ele>
        <time>2023-08-12T15:44:31.000Z</time>
      </trkpt>
      <trkpt lat="45.13512" lon="5.91132">
        <ele>1996.4000244141</ele>
        <time>2023-08-12T15:44:37.000Z</time>
      </trkpt>
      <trkpt lat="45.13512" lon="5.91131">
        <ele>1996</ele>
        <time>2023-08-12T15:44:41.000Z</time>
      </trkpt>
      <trkpt lat="45.13514" lon="5.91127">
        <ele>1995.1999511719</ele>
        <time>2023-08-12T15:44:47.000Z</time>
      </trkpt>
      <trkpt lat="45.13514" lon="5.91126">
        <ele>1995</ele>
        <time>2023-08-12T15:44:48.000Z</time>
      </trkpt>
      <trkpt lat="45.13514" lon="5.91125">
        <ele>1994</ele>
        <time>2023-08-12T15:44:54.000Z</time>
      </trkpt>
      <trkpt lat="45.13513" lon="5.91125">
        <ele>1993.8000488281</ele>
        <time>2023-08-12T15:44:55.000Z</time>
      </trkpt>
      <trkpt lat="45.1351" lon="5.91124">
        <ele>1993</ele>
        <time>2023-08-12T15:45:01.000Z</time>
      </trkpt>
      <trkpt lat="45.1351" lon="5.91124">
        <ele>1992.8000488281</ele>
        <time>2023-08-12T15:45:02.000Z</time>
      </trkpt>
      <trkpt lat="45.13507" lon="5.91125">
        <ele>1992.1999511719</ele>
        <time>2023-08-12T15:45:05.000Z</time>
      </trkpt>
      <trkpt lat="45.13506" lon="5.91123">
        <ele>1991.8000488281</ele>
        <time>2023-08-12T15:45:09.000Z</time>
      </trkpt>
      <trkpt lat="45.13506" lon="5.91122">
        <ele>1991.8000488281</ele>
        <time>2023-08-12T15:45:10.000Z</time>
      </trkpt>
      <trkpt lat="45.13506" lon="5.91117">
        <ele>1990.8000488281</ele>
        <time>2023-08-12T15:45:16.000Z</time>
      </trkpt>
      <trkpt lat="45.13506" lon="5.91118">
        <ele>1990.5999755859</ele>
        <time>2023-08-12T15:45:18.000Z</time>
      </trkpt>
      <trkpt lat="45.13506" lon="5.91117">
        <ele>1990.1999511719</ele>
        <time>2023-08-12T15:45:23.000Z</time>
      </trkpt>
      <trkpt lat="45.13507" lon="5.91116">
        <ele>1990.1999511719</ele>
        <time>2023-08-12T15:45:30.000Z</time>
      </trkpt>
      <trkpt lat="45.13507" lon="5.91115">
        <ele>1989.4000244141</ele>
        <time>2023-08-12T15:45:35.000Z</time>
      </trkpt>
      <trkpt lat="45.13507" lon="5.91114">
        <ele>1989</ele>
        <time>2023-08-12T15:45:38.000Z</time>
      </trkpt>
      <trkpt lat="45.13504" lon="5.91111">
        <ele>1988.4000244141</ele>
        <time>2023-08-12T15:45:43.000Z</time>
      </trkpt>
      <trkpt lat="45.13502" lon="5.91108">
        <ele>1987.8000488281</ele>
        <time>2023-08-12T15:45:47.000Z</time>
      </trkpt>
      <trkpt lat="45.13507" lon="5.91107">
        <ele>1987.4000244141</ele>
        <time>2023-08-12T15:45:54.000Z</time>
      </trkpt>
      <trkpt lat="45.13511" lon="5.91105">
        <ele>1986.8000488281</ele>
        <time>2023-08-12T15:46:02.000Z</time>
      </trkpt>
      <trkpt lat="45.13513" lon="5.91101">
        <ele>1986.1999511719</ele>
        <time>2023-08-12T15:46:08.000Z</time>
      </trkpt>
      <trkpt lat="45.1351" lon="5.911">
        <ele>1986</ele>
        <time>2023-08-12T15:46:11.000Z</time>
      </trkpt>
      <trkpt lat="45.13509" lon="5.91097">
        <ele>1985.8000488281</ele>
        <time>2023-08-12T15:46:19.000Z</time>
      </trkpt>
      <trkpt lat="45.13509" lon="5.91098">
        <ele>1985.8000488281</ele>
        <time>2023-08-12T15:46:27.000Z</time>
      </trkpt>
      <trkpt lat="45.13513" lon="5.91095">
        <ele>1985.8000488281</ele>
        <time>2023-08-12T15:46:36.000Z</time>
      </trkpt>
      <trkpt lat="45.13514" lon="5.9109">
        <ele>1985.1999511719</ele>
        <time>2023-08-12T15:46:44.000Z</time>
      </trkpt>
      <trkpt lat="45.13514" lon="5.91089">
        <ele>1985</ele>
        <time>2023-08-12T15:46:45.000Z</time>
      </trkpt>
      <trkpt lat="45.13514" lon="5.91086">
        <ele>1984</ele>
        <time>2023-08-12T15:46:51.000Z</time>
      </trkpt>
      <trkpt lat="45.13514" lon="5.91086">
        <ele>1984</ele>
        <time>2023-08-12T15:46:52.000Z</time>
      </trkpt>
      <trkpt lat="45.13516" lon="5.91081">
        <ele>1983</ele>
        <time>2023-08-12T15:46:58.000Z</time>
      </trkpt>
      <trkpt lat="45.13517" lon="5.9108">
        <ele>1981.8000488281</ele>
        <time>2023-08-12T15:47:04.000Z</time>
      </trkpt>
      <trkpt lat="45.13517" lon="5.91079">
        <ele>1981.4000244141</ele>
        <time>2023-08-12T15:47:06.000Z</time>
      </trkpt>
      <trkpt lat="45.13516" lon="5.91077">
        <ele>1980.8000488281</ele>
        <time>2023-08-12T15:47:09.000Z</time>
      </trkpt>
      <trkpt lat="45.13517" lon="5.91076">
        <ele>1980</ele>
        <time>2023-08-12T15:47:13.000Z</time>
      </trkpt>
      <trkpt lat="45.13517" lon="5.91074">
        <ele>1979.5999755859</ele>
        <time>2023-08-12T15:47:15.000Z</time>
      </trkpt>
      <trkpt lat="45.13517" lon="5.91071">
        <ele>1979</ele>
        <time>2023-08-12T15:47:19.000Z</time>
      </trkpt>
      <trkpt lat="45.13517" lon="5.91069">
        <ele>1978.4000244141</ele>
        <time>2023-08-12T15:47:21.000Z</time>
      </trkpt>
      <trkpt lat="45.13516" lon="5.91064">
        <ele>1977.8000488281</ele>
        <time>2023-08-12T15:47:27.000Z</time>
      </trkpt>
      <trkpt lat="45.13515" lon="5.91062">
        <ele>1977.4000244141</ele>
        <time>2023-08-12T15:47:29.000Z</time>
      </trkpt>
      <trkpt lat="45.13515" lon="5.91062">
        <ele>1976.4000244141</ele>
        <time>2023-08-12T15:47:35.000Z</time>
      </trkpt>
      <trkpt lat="45.13515" lon="5.91051">
        <ele>1975.1999511719</ele>
        <time>2023-08-12T15:47:42.000Z</time>
      </trkpt>
      <trkpt lat="45.13515" lon="5.91048">
        <ele>1974.8000488281</ele>
        <time>2023-08-12T15:47:44.000Z</time>
      </trkpt>
      <trkpt lat="45.13514" lon="5.91049">
        <ele>1974</ele>
        <time>2023-08-12T15:47:47.000Z</time>
      </trkpt>
      <trkpt lat="45.13514" lon="5.9105">
        <ele>1973.8000488281</ele>
        <time>2023-08-12T15:47:48.000Z</time>
      </trkpt>
      <trkpt lat="45.13513" lon="5.91052">
        <ele>1973.4000244141</ele>
        <time>2023-08-12T15:47:50.000Z</time>
      </trkpt>
      <trkpt lat="45.13511" lon="5.91054">
        <ele>1973</ele>
        <time>2023-08-12T15:47:53.000Z</time>
      </trkpt>
      <trkpt lat="45.1351" lon="5.91057">
        <ele>1972</ele>
        <time>2023-08-12T15:47:59.000Z</time>
      </trkpt>
      <trkpt lat="45.1351" lon="5.91057">
        <ele>1971.8000488281</ele>
        <time>2023-08-12T15:48:00.000Z</time>
      </trkpt>
      <trkpt lat="45.13508" lon="5.91055">
        <ele>1970.8000488281</ele>
        <time>2023-08-12T15:48:05.000Z</time>
      </trkpt>
      <trkpt lat="45.13507" lon="5.91056">
        <ele>1970.5999755859</ele>
        <time>2023-08-12T15:48:06.000Z</time>
      </trkpt>
      <trkpt lat="45.13503" lon="5.91055">
        <ele>1969.8000488281</ele>
        <time>2023-08-12T15:48:12.000Z</time>
      </trkpt>
      <trkpt lat="45.13503" lon="5.91055">
        <ele>1969.5999755859</ele>
        <time>2023-08-12T15:48:13.000Z</time>
      </trkpt>
      <trkpt lat="45.135" lon="5.91055">
        <ele>1968.5999755859</ele>
        <time>2023-08-12T15:48:19.000Z</time>
      </trkpt>
      <trkpt lat="45.13498" lon="5.91055">
        <ele>1967.8000488281</ele>
        <time>2023-08-12T15:48:23.000Z</time>
      </trkpt>
      <trkpt lat="45.13498" lon="5.91054">
        <ele>1967.4000244141</ele>
        <time>2023-08-12T15:48:26.000Z</time>
      </trkpt>
      <trkpt lat="45.13497" lon="5.91053">
        <ele>1966.8000488281</ele>
        <time>2023-08-12T15:48:30.000Z</time>
      </trkpt>
      <trkpt lat="45.13495" lon="5.91055">
        <ele>1966.4000244141</ele>
        <time>2023-08-12T15:48:33.000Z</time>
      </trkpt>
      <trkpt lat="45.13491" lon="5.91053">
        <ele>1965.5999755859</ele>
        <time>2023-08-12T15:48:37.000Z</time>
      </trkpt>
      <trkpt lat="45.13489" lon="5.91052">
        <ele>1965.1999511719</ele>
        <time>2023-08-12T15:48:38.000Z</time>
      </trkpt>
      <trkpt lat="45.13485" lon="5.91053">
        <ele>1964.1999511719</ele>
        <time>2023-08-12T15:48:43.000Z</time>
      </trkpt>
      <trkpt lat="45.13486" lon="5.91052">
        <ele>1964.1999511719</ele>
        <time>2023-08-12T15:48:44.000Z</time>
      </trkpt>
      <trkpt lat="45.13486" lon="5.9105">
        <ele>1964</ele>
        <time>2023-08-12T15:48:45.000Z</time>
      </trkpt>
      <trkpt lat="45.13488" lon="5.91048">
        <ele>1963.4000244141</ele>
        <time>2023-08-12T15:48:48.000Z</time>
      </trkpt>
      <trkpt lat="45.13488" lon="5.91046">
        <ele>1963</ele>
        <time>2023-08-12T15:48:50.000Z</time>
      </trkpt>
      <trkpt lat="45.13488" lon="5.91041">
        <ele>1962.1999511719</ele>
        <time>2023-08-12T15:48:55.000Z</time>
      </trkpt>
      <trkpt lat="45.13488" lon="5.9104">
        <ele>1962</ele>
        <time>2023-08-12T15:48:56.000Z</time>
      </trkpt>
      <trkpt lat="45.13488" lon="5.91038">
        <ele>1961.1999511719</ele>
        <time>2023-08-12T15:49:00.000Z</time>
      </trkpt>
      <trkpt lat="45.13489" lon="5.91036">
        <ele>1961</ele>
        <time>2023-08-12T15:49:01.000Z</time>
      </trkpt>
      <trkpt lat="45.13491" lon="5.91028">
        <ele>1960</ele>
        <time>2023-08-12T15:49:05.000Z</time>
      </trkpt>
      <trkpt lat="45.13492" lon="5.91027">
        <ele>1959.4000244141</ele>
        <time>2023-08-12T15:49:07.000Z</time>
      </trkpt>
      <trkpt lat="45.13492" lon="5.91028">
        <ele>1959.1999511719</ele>
        <time>2023-08-12T15:49:09.000Z</time>
      </trkpt>
      <trkpt lat="45.13492" lon="5.91027">
        <ele>1959</ele>
        <time>2023-08-12T15:49:11.000Z</time>
      </trkpt>
      <trkpt lat="45.1349" lon="5.91027">
        <ele>1958.5999755859</ele>
        <time>2023-08-12T15:49:15.000Z</time>
      </trkpt>
      <trkpt lat="45.13491" lon="5.91024">
        <ele>1958.4000244141</ele>
        <time>2023-08-12T15:49:23.000Z</time>
      </trkpt>
      <trkpt lat="45.13492" lon="5.91021">
        <ele>1958</ele>
        <time>2023-08-12T15:49:28.000Z</time>
      </trkpt>
      <trkpt lat="45.13493" lon="5.91019">
        <ele>1957.8000488281</ele>
        <time>2023-08-12T15:49:30.000Z</time>
      </trkpt>
      <trkpt lat="45.13495" lon="5.91011">
        <ele>1956.8000488281</ele>
        <time>2023-08-12T15:49:39.000Z</time>
      </trkpt>
      <trkpt lat="45.13495" lon="5.91011">
        <ele>1956.5999755859</ele>
        <time>2023-08-12T15:49:40.000Z</time>
      </trkpt>
      <trkpt lat="45.13494" lon="5.91009">
        <ele>1955.4000244141</ele>
        <time>2023-08-12T15:49:43.000Z</time>
      </trkpt>
      <trkpt lat="45.13493" lon="5.91009">
        <ele>1955.4000244141</ele>
        <time>2023-08-12T15:49:44.000Z</time>
      </trkpt>
      <trkpt lat="45.13491" lon="5.91008">
        <ele>1955</ele>
        <time>2023-08-12T15:49:48.000Z</time>
      </trkpt>
      <trkpt lat="45.13491" lon="5.91006">
        <ele>1954.4000244141</ele>
        <time>2023-08-12T15:49:51.000Z</time>
      </trkpt>
      <trkpt lat="45.13491" lon="5.91003">
        <ele>1953.4000244141</ele>
        <time>2023-08-12T15:49:55.000Z</time>
      </trkpt>
      <trkpt lat="45.13491" lon="5.91003">
        <ele>1953.1999511719</ele>
        <time>2023-08-12T15:49:56.000Z</time>
      </trkpt>
      <trkpt lat="45.13492" lon="5.90996">
        <ele>1952.1999511719</ele>
        <time>2023-08-12T15:50:03.000Z</time>
      </trkpt>
      <trkpt lat="45.13492" lon="5.90994">
        <ele>1952</ele>
        <time>2023-08-12T15:50:04.000Z</time>
      </trkpt>
      <trkpt lat="45.1349" lon="5.90989">
        <ele>1951.1999511719</ele>
        <time>2023-08-12T15:50:11.000Z</time>
      </trkpt>
      <trkpt lat="45.13489" lon="5.9099">
        <ele>1951</ele>
        <time>2023-08-12T15:50:12.000Z</time>
      </trkpt>
      <trkpt lat="45.13486" lon="5.90983">
        <ele>1950</ele>
        <time>2023-08-12T15:50:18.000Z</time>
      </trkpt>
      <trkpt lat="45.13486" lon="5.90983">
        <ele>1949.8000488281</ele>
        <time>2023-08-12T15:50:19.000Z</time>
      </trkpt>
      <trkpt lat="45.13486" lon="5.90979">
        <ele>1948.5999755859</ele>
        <time>2023-08-12T15:50:25.000Z</time>
      </trkpt>
      <trkpt lat="45.13486" lon="5.90978">
        <ele>1948.4000244141</ele>
        <time>2023-08-12T15:50:27.000Z</time>
      </trkpt>
      <trkpt lat="45.13485" lon="5.90977">
        <ele>1947.5999755859</ele>
        <time>2023-08-12T15:50:31.000Z</time>
      </trkpt>
      <trkpt lat="45.13484" lon="5.90976">
        <ele>1946.5999755859</ele>
        <time>2023-08-12T15:50:37.000Z</time>
      </trkpt>
      <trkpt lat="45.13484" lon="5.90977">
        <ele>1946.4000244141</ele>
        <time>2023-08-12T15:50:38.000Z</time>
      </trkpt>
      <trkpt lat="45.13484" lon="5.90976">
        <ele>1945.4000244141</ele>
        <time>2023-08-12T15:50:46.000Z</time>
      </trkpt>
      <trkpt lat="45.13484" lon="5.90977">
        <ele>1945.4000244141</ele>
        <time>2023-08-12T15:50:47.000Z</time>
      </trkpt>
      <trkpt lat="45.13483" lon="5.90975">
        <ele>1944.1999511719</ele>
        <time>2023-08-12T15:50:52.000Z</time>
      </trkpt>
      <trkpt lat="45.13481" lon="5.90973">
        <ele>1943.8000488281</ele>
        <time>2023-08-12T15:50:55.000Z</time>
      </trkpt>
      <trkpt lat="45.13479" lon="5.90972">
        <ele>1943.1999511719</ele>
        <time>2023-08-12T15:50:58.000Z</time>
      </trkpt>
      <trkpt lat="45.13477" lon="5.90972">
        <ele>1942.5999755859</ele>
        <time>2023-08-12T15:51:02.000Z</time>
      </trkpt>
      <trkpt lat="45.13476" lon="5.90971">
        <ele>1942</ele>
        <time>2023-08-12T15:51:04.000Z</time>
      </trkpt>
      <trkpt lat="45.13471" lon="5.90966">
        <ele>1941.1999511719</ele>
        <time>2023-08-12T15:51:10.000Z</time>
      </trkpt>
      <trkpt lat="45.1347" lon="5.90965">
        <ele>1941</ele>
        <time>2023-08-12T15:51:11.000Z</time>
      </trkpt>
      <trkpt lat="45.13465" lon="5.90958">
        <ele>1940</ele>
        <time>2023-08-12T15:51:18.000Z</time>
      </trkpt>
      <trkpt lat="45.13465" lon="5.90957">
        <ele>1940</ele>
        <time>2023-08-12T15:51:19.000Z</time>
      </trkpt>
      <trkpt lat="45.13462" lon="5.90951">
        <ele>1939</ele>
        <time>2023-08-12T15:51:26.000Z</time>
      </trkpt>
      <trkpt lat="45.13459" lon="5.90943">
        <ele>1937.8000488281</ele>
        <time>2023-08-12T15:51:33.000Z</time>
      </trkpt>
      <trkpt lat="45.13459" lon="5.90942">
        <ele>1937.8000488281</ele>
        <time>2023-08-12T15:51:34.000Z</time>
      </trkpt>
      <trkpt lat="45.13456" lon="5.90937">
        <ele>1936.8000488281</ele>
        <time>2023-08-12T15:51:40.000Z</time>
      </trkpt>
      <trkpt lat="45.13455" lon="5.90935">
        <ele>1936.4000244141</ele>
        <time>2023-08-12T15:51:42.000Z</time>
      </trkpt>
      <trkpt lat="45.13456" lon="5.90935">
        <ele>1936</ele>
        <time>2023-08-12T15:51:44.000Z</time>
      </trkpt>
      <trkpt lat="45.13456" lon="5.90935">
        <ele>1935.8000488281</ele>
        <time>2023-08-12T15:51:45.000Z</time>
      </trkpt>
      <trkpt lat="45.13457" lon="5.90932">
        <ele>1935.4000244141</ele>
        <time>2023-08-12T15:51:47.000Z</time>
      </trkpt>
      <trkpt lat="45.13459" lon="5.90929">
        <ele>1934.8000488281</ele>
        <time>2023-08-12T15:51:52.000Z</time>
      </trkpt>
      <trkpt lat="45.1346" lon="5.90928">
        <ele>1934.5999755859</ele>
        <time>2023-08-12T15:51:54.000Z</time>
      </trkpt>
      <trkpt lat="45.13463" lon="5.90922">
        <ele>1933.8000488281</ele>
        <time>2023-08-12T15:52:01.000Z</time>
      </trkpt>
      <trkpt lat="45.13464" lon="5.90921">
        <ele>1933.4000244141</ele>
        <time>2023-08-12T15:52:03.000Z</time>
      </trkpt>
      <trkpt lat="45.13464" lon="5.90919">
        <ele>1932.5999755859</ele>
        <time>2023-08-12T15:52:07.000Z</time>
      </trkpt>
      <trkpt lat="45.13464" lon="5.90917">
        <ele>1932.1999511719</ele>
        <time>2023-08-12T15:52:10.000Z</time>
      </trkpt>
      <trkpt lat="45.13464" lon="5.90914">
        <ele>1932</ele>
        <time>2023-08-12T15:52:12.000Z</time>
      </trkpt>
      <trkpt lat="45.13464" lon="5.90914">
        <ele>1931.4000244141</ele>
        <time>2023-08-12T15:52:15.000Z</time>
      </trkpt>
      <trkpt lat="45.13463" lon="5.90914">
        <ele>1931</ele>
        <time>2023-08-12T15:52:18.000Z</time>
      </trkpt>
      <trkpt lat="45.13462" lon="5.90913">
        <ele>1930.4000244141</ele>
        <time>2023-08-12T15:52:21.000Z</time>
      </trkpt>
      <trkpt lat="45.13459" lon="5.90912">
        <ele>1929.5999755859</ele>
        <time>2023-08-12T15:52:26.000Z</time>
      </trkpt>
      <trkpt lat="45.13457" lon="5.90913">
        <ele>1929.1999511719</ele>
        <time>2023-08-12T15:52:29.000Z</time>
      </trkpt>
      <trkpt lat="45.13455" lon="5.90914">
        <ele>1929</ele>
        <time>2023-08-12T15:52:30.000Z</time>
      </trkpt>
      <trkpt lat="45.13449" lon="5.90915">
        <ele>1928.4000244141</ele>
        <time>2023-08-12T15:52:35.000Z</time>
      </trkpt>
      <trkpt lat="45.13446" lon="5.90916">
        <ele>1928.1999511719</ele>
        <time>2023-08-12T15:52:37.000Z</time>
      </trkpt>
      <trkpt lat="45.13441" lon="5.90915">
        <ele>1927.8000488281</ele>
        <time>2023-08-12T15:52:41.000Z</time>
      </trkpt>
      <trkpt lat="45.13438" lon="5.90909">
        <ele>1927</ele>
        <time>2023-08-12T15:52:46.000Z</time>
      </trkpt>
      <trkpt lat="45.1344" lon="5.90906">
        <ele>1926.5999755859</ele>
        <time>2023-08-12T15:52:48.000Z</time>
      </trkpt>
      <trkpt lat="45.13443" lon="5.90902">
        <ele>1926</ele>
        <time>2023-08-12T15:52:52.000Z</time>
      </trkpt>
      <trkpt lat="45.13444" lon="5.909">
        <ele>1925.5999755859</ele>
        <time>2023-08-12T15:52:54.000Z</time>
      </trkpt>
      <trkpt lat="45.13445" lon="5.90895">
        <ele>1925</ele>
        <time>2023-08-12T15:52:59.000Z</time>
      </trkpt>
      <trkpt lat="45.13445" lon="5.90894">
        <ele>1924.8000488281</ele>
        <time>2023-08-12T15:53:00.000Z</time>
      </trkpt>
      <trkpt lat="45.13444" lon="5.90892">
        <ele>1923.8000488281</ele>
        <time>2023-08-12T15:53:05.000Z</time>
      </trkpt>
      <trkpt lat="45.13443" lon="5.90887">
        <ele>1923.1999511719</ele>
        <time>2023-08-12T15:53:09.000Z</time>
      </trkpt>
      <trkpt lat="45.13444" lon="5.90886">
        <ele>1922.8000488281</ele>
        <time>2023-08-12T15:53:11.000Z</time>
      </trkpt>
      <trkpt lat="45.13446" lon="5.90885">
        <ele>1922</ele>
        <time>2023-08-12T15:53:16.000Z</time>
      </trkpt>
      <trkpt lat="45.13449" lon="5.90885">
        <ele>1921.5999755859</ele>
        <time>2023-08-12T15:53:19.000Z</time>
      </trkpt>
      <trkpt lat="45.13451" lon="5.90883">
        <ele>1920.8000488281</ele>
        <time>2023-08-12T15:53:24.000Z</time>
      </trkpt>
      <trkpt lat="45.1345" lon="5.90882">
        <ele>1920.5999755859</ele>
        <time>2023-08-12T15:53:25.000Z</time>
      </trkpt>
      <trkpt lat="45.13449" lon="5.90878">
        <ele>1919.4000244141</ele>
        <time>2023-08-12T15:53:33.000Z</time>
      </trkpt>
      <trkpt lat="45.13449" lon="5.90877">
        <ele>1919.1999511719</ele>
        <time>2023-08-12T15:53:34.000Z</time>
      </trkpt>
      <trkpt lat="45.13448" lon="5.90871">
        <ele>1918.5999755859</ele>
        <time>2023-08-12T15:53:42.000Z</time>
      </trkpt>
      <trkpt lat="45.13449" lon="5.90868">
        <ele>1918.4000244141</ele>
        <time>2023-08-12T15:53:45.000Z</time>
      </trkpt>
      <trkpt lat="45.13449" lon="5.90865">
        <ele>1917.8000488281</ele>
        <time>2023-08-12T15:53:49.000Z</time>
      </trkpt>
      <trkpt lat="45.13449" lon="5.90861">
        <ele>1917.1999511719</ele>
        <time>2023-08-12T15:53:53.000Z</time>
      </trkpt>
      <trkpt lat="45.13449" lon="5.90858">
        <ele>1916.4000244141</ele>
        <time>2023-08-12T15:53:57.000Z</time>
      </trkpt>
      <trkpt lat="45.13449" lon="5.90858">
        <ele>1916.1999511719</ele>
        <time>2023-08-12T15:53:58.000Z</time>
      </trkpt>
      <trkpt lat="45.13451" lon="5.90858">
        <ele>1915.4000244141</ele>
        <time>2023-08-12T15:54:05.000Z</time>
      </trkpt>
      <trkpt lat="45.13452" lon="5.90855">
        <ele>1915.1999511719</ele>
        <time>2023-08-12T15:54:07.000Z</time>
      </trkpt>
      <trkpt lat="45.13454" lon="5.90854">
        <ele>1914.1999511719</ele>
        <time>2023-08-12T15:54:12.000Z</time>
      </trkpt>
      <trkpt lat="45.13454" lon="5.90855">
        <ele>1914</ele>
        <time>2023-08-12T15:54:13.000Z</time>
      </trkpt>
      <trkpt lat="45.13453" lon="5.90855">
        <ele>1913</ele>
        <time>2023-08-12T15:54:22.000Z</time>
      </trkpt>
      <trkpt lat="45.13454" lon="5.9085">
        <ele>1912</ele>
        <time>2023-08-12T15:54:28.000Z</time>
      </trkpt>
      <trkpt lat="45.13454" lon="5.90849">
        <ele>1911.4000244141</ele>
        <time>2023-08-12T15:54:31.000Z</time>
      </trkpt>
      <trkpt lat="45.13454" lon="5.90844">
        <ele>1911</ele>
        <time>2023-08-12T15:54:34.000Z</time>
      </trkpt>
      <trkpt lat="45.13453" lon="5.90837">
        <ele>1910</ele>
        <time>2023-08-12T15:54:39.000Z</time>
      </trkpt>
      <trkpt lat="45.13454" lon="5.90838">
        <ele>1909.8000488281</ele>
        <time>2023-08-12T15:54:40.000Z</time>
      </trkpt>
      <trkpt lat="45.13452" lon="5.90837">
        <ele>1908.8000488281</ele>
        <time>2023-08-12T15:54:45.000Z</time>
      </trkpt>
      <trkpt lat="45.13451" lon="5.90837">
        <ele>1908.5999755859</ele>
        <time>2023-08-12T15:54:47.000Z</time>
      </trkpt>
      <trkpt lat="45.13449" lon="5.90837">
        <ele>1907.8000488281</ele>
        <time>2023-08-12T15:54:51.000Z</time>
      </trkpt>
      <trkpt lat="45.13447" lon="5.90833">
        <ele>1906.8000488281</ele>
        <time>2023-08-12T15:54:55.000Z</time>
      </trkpt>
      <trkpt lat="45.13448" lon="5.90832">
        <ele>1906.5999755859</ele>
        <time>2023-08-12T15:54:56.000Z</time>
      </trkpt>
      <trkpt lat="45.13452" lon="5.90825">
        <ele>1905.8000488281</ele>
        <time>2023-08-12T15:55:01.000Z</time>
      </trkpt>
      <trkpt lat="45.13452" lon="5.90823">
        <ele>1905.4000244141</ele>
        <time>2023-08-12T15:55:03.000Z</time>
      </trkpt>
      <trkpt lat="45.13448" lon="5.90823">
        <ele>1904.5999755859</ele>
        <time>2023-08-12T15:55:08.000Z</time>
      </trkpt>
      <trkpt lat="45.13448" lon="5.90822">
        <ele>1904.4000244141</ele>
        <time>2023-08-12T15:55:09.000Z</time>
      </trkpt>
      <trkpt lat="45.13446" lon="5.90819">
        <ele>1903.4000244141</ele>
        <time>2023-08-12T15:55:14.000Z</time>
      </trkpt>
      <trkpt lat="45.13446" lon="5.90819">
        <ele>1903.1999511719</ele>
        <time>2023-08-12T15:55:15.000Z</time>
      </trkpt>
      <trkpt lat="45.13445" lon="5.90824">
        <ele>1902.8000488281</ele>
        <time>2023-08-12T15:55:22.000Z</time>
      </trkpt>
      <trkpt lat="45.13444" lon="5.90821">
        <ele>1902.8000488281</ele>
        <time>2023-08-12T15:55:30.000Z</time>
      </trkpt>
      <trkpt lat="45.13444" lon="5.90816">
        <ele>1902.4000244141</ele>
        <time>2023-08-12T15:55:34.000Z</time>
      </trkpt>
      <trkpt lat="45.13445" lon="5.90813">
        <ele>1902</ele>
        <time>2023-08-12T15:55:37.000Z</time>
      </trkpt>
      <trkpt lat="45.13445" lon="5.90809">
        <ele>1901.1999511719</ele>
        <time>2023-08-12T15:55:41.000Z</time>
      </trkpt>
      <trkpt lat="45.13445" lon="5.90806">
        <ele>1900.8000488281</ele>
        <time>2023-08-12T15:55:45.000Z</time>
      </trkpt>
      <trkpt lat="45.13445" lon="5.90803">
        <ele>1900.1999511719</ele>
        <time>2023-08-12T15:55:48.000Z</time>
      </trkpt>
      <trkpt lat="45.13443" lon="5.908">
        <ele>1899.1999511719</ele>
        <time>2023-08-12T15:55:54.000Z</time>
      </trkpt>
      <trkpt lat="45.13443" lon="5.908">
        <ele>1899</ele>
        <time>2023-08-12T15:55:56.000Z</time>
      </trkpt>
      <trkpt lat="45.13444" lon="5.90795">
        <ele>1898.4000244141</ele>
        <time>2023-08-12T15:56:02.000Z</time>
      </trkpt>
      <trkpt lat="45.13443" lon="5.90792">
        <ele>1898</ele>
        <time>2023-08-12T15:56:05.000Z</time>
      </trkpt>
      <trkpt lat="45.13442" lon="5.90785">
        <ele>1897.5999755859</ele>
        <time>2023-08-12T15:56:09.000Z</time>
      </trkpt>
      <trkpt lat="45.13441" lon="5.90781">
        <ele>1897</ele>
        <time>2023-08-12T15:56:14.000Z</time>
      </trkpt>
      <trkpt lat="45.13441" lon="5.9078">
        <ele>1896.8000488281</ele>
        <time>2023-08-12T15:56:16.000Z</time>
      </trkpt>
      <trkpt lat="45.1344" lon="5.90775">
        <ele>1895.8000488281</ele>
        <time>2023-08-12T15:56:21.000Z</time>
      </trkpt>
      <trkpt lat="45.1344" lon="5.90774">
        <ele>1895.1999511719</ele>
        <time>2023-08-12T15:56:24.000Z</time>
      </trkpt>
      <trkpt lat="45.1344" lon="5.9077">
        <ele>1894.5999755859</ele>
        <time>2023-08-12T15:56:28.000Z</time>
      </trkpt>
      <trkpt lat="45.13441" lon="5.90766">
        <ele>1894.1999511719</ele>
        <time>2023-08-12T15:56:32.000Z</time>
      </trkpt>
      <trkpt lat="45.13443" lon="5.90756">
        <ele>1893.5999755859</ele>
        <time>2023-08-12T15:56:39.000Z</time>
      </trkpt>
      <trkpt lat="45.13442" lon="5.90753">
        <ele>1893</ele>
        <time>2023-08-12T15:56:41.000Z</time>
      </trkpt>
      <trkpt lat="45.13442" lon="5.9075">
        <ele>1892.4000244141</ele>
        <time>2023-08-12T15:56:44.000Z</time>
      </trkpt>
      <trkpt lat="45.13441" lon="5.90741">
        <ele>1891.4000244141</ele>
        <time>2023-08-12T15:56:50.000Z</time>
      </trkpt>
      <trkpt lat="45.13441" lon="5.9074">
        <ele>1891.4000244141</ele>
        <time>2023-08-12T15:56:51.000Z</time>
      </trkpt>
      <trkpt lat="45.1344" lon="5.90736">
        <ele>1890.1999511719</ele>
        <time>2023-08-12T15:56:57.000Z</time>
      </trkpt>
      <trkpt lat="45.13439" lon="5.90735">
        <ele>1889.8000488281</ele>
        <time>2023-08-12T15:56:59.000Z</time>
      </trkpt>
      <trkpt lat="45.13439" lon="5.90732">
        <ele>1889.1999511719</ele>
        <time>2023-08-12T15:57:02.000Z</time>
      </trkpt>
      <trkpt lat="45.1344" lon="5.90725">
        <ele>1888</ele>
        <time>2023-08-12T15:57:09.000Z</time>
      </trkpt>
      <trkpt lat="45.13437" lon="5.90722">
        <ele>1887</ele>
        <time>2023-08-12T15:57:16.000Z</time>
      </trkpt>
      <trkpt lat="45.13437" lon="5.90721">
        <ele>1886.4000244141</ele>
        <time>2023-08-12T15:57:19.000Z</time>
      </trkpt>
      <trkpt lat="45.13437" lon="5.90719">
        <ele>1886</ele>
        <time>2023-08-12T15:57:25.000Z</time>
      </trkpt>
      <trkpt lat="45.13438" lon="5.90712">
        <ele>1884.8000488281</ele>
        <time>2023-08-12T15:57:33.000Z</time>
      </trkpt>
      <trkpt lat="45.13438" lon="5.90711">
        <ele>1884.8000488281</ele>
        <time>2023-08-12T15:57:34.000Z</time>
      </trkpt>
      <trkpt lat="45.1344" lon="5.90709">
        <ele>1883.8000488281</ele>
        <time>2023-08-12T15:57:42.000Z</time>
      </trkpt>
      <trkpt lat="45.1344" lon="5.90708">
        <ele>1883.4000244141</ele>
        <time>2023-08-12T15:57:43.000Z</time>
      </trkpt>
      <trkpt lat="45.13439" lon="5.90707">
        <ele>1882.5999755859</ele>
        <time>2023-08-12T15:57:46.000Z</time>
      </trkpt>
      <trkpt lat="45.13436" lon="5.90706">
        <ele>1882.1999511719</ele>
        <time>2023-08-12T15:57:51.000Z</time>
      </trkpt>
      <trkpt lat="45.13433" lon="5.90702">
        <ele>1881.5999755859</ele>
        <time>2023-08-12T15:57:55.000Z</time>
      </trkpt>
      <trkpt lat="45.13432" lon="5.907">
        <ele>1881</ele>
        <time>2023-08-12T15:57:59.000Z</time>
      </trkpt>
      <trkpt lat="45.13433" lon="5.90696">
        <ele>1880.5999755859</ele>
        <time>2023-08-12T15:58:03.000Z</time>
      </trkpt>
      <trkpt lat="45.13432" lon="5.90694">
        <ele>1880</ele>
        <time>2023-08-12T15:58:07.000Z</time>
      </trkpt>
      <trkpt lat="45.13429" lon="5.90687">
        <ele>1880.5999755859</ele>
        <time>2023-08-12T15:58:18.000Z</time>
      </trkpt>
      <trkpt lat="45.13425" lon="5.90683">
        <ele>1879.8000488281</ele>
        <time>2023-08-12T15:58:26.000Z</time>
      </trkpt>
      <trkpt lat="45.13422" lon="5.90679">
        <ele>1879.5999755859</ele>
        <time>2023-08-12T15:58:29.000Z</time>
      </trkpt>
      <trkpt lat="45.1342" lon="5.90676">
        <ele>1879.1999511719</ele>
        <time>2023-08-12T15:58:33.000Z</time>
      </trkpt>
      <trkpt lat="45.13418" lon="5.90672">
        <ele>1878.5999755859</ele>
        <time>2023-08-12T15:58:39.000Z</time>
      </trkpt>
      <trkpt lat="45.13418" lon="5.90671">
        <ele>1878.1999511719</ele>
        <time>2023-08-12T15:58:41.000Z</time>
      </trkpt>
      <trkpt lat="45.1342" lon="5.90669">
        <ele>1877.4000244141</ele>
        <time>2023-08-12T15:58:47.000Z</time>
      </trkpt>
      <trkpt lat="45.13421" lon="5.90668">
        <ele>1877.1999511719</ele>
        <time>2023-08-12T15:58:49.000Z</time>
      </trkpt>
      <trkpt lat="45.13422" lon="5.90666">
        <ele>1876.4000244141</ele>
        <time>2023-08-12T15:58:54.000Z</time>
      </trkpt>
      <trkpt lat="45.13423" lon="5.90665">
        <ele>1876</ele>
        <time>2023-08-12T15:58:57.000Z</time>
      </trkpt>
      <trkpt lat="45.13425" lon="5.90661">
        <ele>1875.4000244141</ele>
        <time>2023-08-12T15:59:01.000Z</time>
      </trkpt>
      <trkpt lat="45.13425" lon="5.90656">
        <ele>1874.8000488281</ele>
        <time>2023-08-12T15:59:05.000Z</time>
      </trkpt>
      <trkpt lat="45.13424" lon="5.90652">
        <ele>1874.4000244141</ele>
        <time>2023-08-12T15:59:09.000Z</time>
      </trkpt>
      <trkpt lat="45.13424" lon="5.90649">
        <ele>1874</ele>
        <time>2023-08-12T15:59:13.000Z</time>
      </trkpt>
      <trkpt lat="45.13423" lon="5.90644">
        <ele>1873.1999511719</ele>
        <time>2023-08-12T15:59:19.000Z</time>
      </trkpt>
      <trkpt lat="45.13424" lon="5.90643">
        <ele>1873.1999511719</ele>
        <time>2023-08-12T15:59:21.000Z</time>
      </trkpt>
      <trkpt lat="45.13424" lon="5.90639">
        <ele>1872.5999755859</ele>
        <time>2023-08-12T15:59:30.000Z</time>
      </trkpt>
      <trkpt lat="45.13424" lon="5.90637">
        <ele>1872.1999511719</ele>
        <time>2023-08-12T15:59:34.000Z</time>
      </trkpt>
      <trkpt lat="45.13425" lon="5.90634">
        <ele>1871.5999755859</ele>
        <time>2023-08-12T15:59:39.000Z</time>
      </trkpt>
      <trkpt lat="45.13427" lon="5.90631">
        <ele>1871</ele>
        <time>2023-08-12T15:59:43.000Z</time>
      </trkpt>
      <trkpt lat="45.13429" lon="5.90628">
        <ele>1870.1999511719</ele>
        <time>2023-08-12T15:59:47.000Z</time>
      </trkpt>
      <trkpt lat="45.1343" lon="5.90627">
        <ele>1870</ele>
        <time>2023-08-12T15:59:49.000Z</time>
      </trkpt>
      <trkpt lat="45.13431" lon="5.90626">
        <ele>1869</ele>
        <time>2023-08-12T15:59:54.000Z</time>
      </trkpt>
      <trkpt lat="45.13431" lon="5.90626">
        <ele>1868.8000488281</ele>
        <time>2023-08-12T15:59:55.000Z</time>
      </trkpt>
      <trkpt lat="45.13432" lon="5.90625">
        <ele>1867.8000488281</ele>
        <time>2023-08-12T16:00:02.000Z</time>
      </trkpt>
      <trkpt lat="45.13434" lon="5.90625">
        <ele>1867.8000488281</ele>
        <time>2023-08-12T16:00:07.000Z</time>
      </trkpt>
      <trkpt lat="45.13435" lon="5.90622">
        <ele>1867.4000244141</ele>
        <time>2023-08-12T16:00:10.000Z</time>
      </trkpt>
      <trkpt lat="45.13434" lon="5.90619">
        <ele>1866.8000488281</ele>
        <time>2023-08-12T16:00:14.000Z</time>
      </trkpt>
      <trkpt lat="45.13434" lon="5.90617">
        <ele>1866.4000244141</ele>
        <time>2023-08-12T16:00:16.000Z</time>
      </trkpt>
      <trkpt lat="45.13437" lon="5.90615">
        <ele>1865.5999755859</ele>
        <time>2023-08-12T16:00:21.000Z</time>
      </trkpt>
      <trkpt lat="45.13438" lon="5.90615">
        <ele>1865</ele>
        <time>2023-08-12T16:00:24.000Z</time>
      </trkpt>
      <trkpt lat="45.13439" lon="5.90615">
        <ele>1864.4000244141</ele>
        <time>2023-08-12T16:00:28.000Z</time>
      </trkpt>
      <trkpt lat="45.1344" lon="5.90615">
        <ele>1863.5999755859</ele>
        <time>2023-08-12T16:00:34.000Z</time>
      </trkpt>
      <trkpt lat="45.1344" lon="5.90614">
        <ele>1863.1999511719</ele>
        <time>2023-08-12T16:00:36.000Z</time>
      </trkpt>
      <trkpt lat="45.13442" lon="5.90612">
        <ele>1862.8000488281</ele>
        <time>2023-08-12T16:00:40.000Z</time>
      </trkpt>
      <trkpt lat="45.13444" lon="5.9061">
        <ele>1862.1999511719</ele>
        <time>2023-08-12T16:00:45.000Z</time>
      </trkpt>
      <trkpt lat="45.13446" lon="5.90609">
        <ele>1861.8000488281</ele>
        <time>2023-08-12T16:00:48.000Z</time>
      </trkpt>
      <trkpt lat="45.13448" lon="5.90607">
        <ele>1861</ele>
        <time>2023-08-12T16:00:52.000Z</time>
      </trkpt>
      <trkpt lat="45.13449" lon="5.90603">
        <ele>1860.4000244141</ele>
        <time>2023-08-12T16:00:55.000Z</time>
      </trkpt>
      <trkpt lat="45.1345" lon="5.906">
        <ele>1860</ele>
        <time>2023-08-12T16:00:58.000Z</time>
      </trkpt>
      <trkpt lat="45.1345" lon="5.90598">
        <ele>1859.8000488281</ele>
        <time>2023-08-12T16:01:00.000Z</time>
      </trkpt>
      <trkpt lat="45.13449" lon="5.90598">
        <ele>1859.4000244141</ele>
        <time>2023-08-12T16:01:02.000Z</time>
      </trkpt>
      <trkpt lat="45.13448" lon="5.90598">
        <ele>1859</ele>
        <time>2023-08-12T16:01:04.000Z</time>
      </trkpt>
      <trkpt lat="45.13447" lon="5.90598">
        <ele>1859</ele>
        <time>2023-08-12T16:01:06.000Z</time>
      </trkpt>
      <trkpt lat="45.13446" lon="5.90598">
        <ele>1858.8000488281</ele>
        <time>2023-08-12T16:01:12.000Z</time>
      </trkpt>
      <trkpt lat="45.13448" lon="5.90596">
        <ele>1858.8000488281</ele>
        <time>2023-08-12T16:01:18.000Z</time>
      </trkpt>
      <trkpt lat="45.13448" lon="5.9059">
        <ele>1858.8000488281</ele>
        <time>2023-08-12T16:01:23.000Z</time>
      </trkpt>
      <trkpt lat="45.13449" lon="5.90581">
        <ele>1858</ele>
        <time>2023-08-12T16:01:32.000Z</time>
      </trkpt>
      <trkpt lat="45.13452" lon="5.90577">
        <ele>1857</ele>
        <time>2023-08-12T16:01:39.000Z</time>
      </trkpt>
      <trkpt lat="45.13452" lon="5.90573">
        <ele>1855.8000488281</ele>
        <time>2023-08-12T16:01:43.000Z</time>
      </trkpt>
      <trkpt lat="45.13453" lon="5.90568">
        <ele>1855.5999755859</ele>
        <time>2023-08-12T16:01:47.000Z</time>
      </trkpt>
      <trkpt lat="45.13452" lon="5.90562">
        <ele>1854.8000488281</ele>
        <time>2023-08-12T16:01:51.000Z</time>
      </trkpt>
      <trkpt lat="45.13452" lon="5.9056">
        <ele>1854.5999755859</ele>
        <time>2023-08-12T16:01:52.000Z</time>
      </trkpt>
      <trkpt lat="45.13453" lon="5.90552">
        <ele>1854.1999511719</ele>
        <time>2023-08-12T16:01:58.000Z</time>
      </trkpt>
      <trkpt lat="45.13453" lon="5.90549">
        <ele>1853.8000488281</ele>
        <time>2023-08-12T16:02:03.000Z</time>
      </trkpt>
      <trkpt lat="45.13452" lon="5.90544">
        <ele>1852.8000488281</ele>
        <time>2023-08-12T16:02:09.000Z</time>
      </trkpt>
      <trkpt lat="45.13452" lon="5.90543">
        <ele>1852.5999755859</ele>
        <time>2023-08-12T16:02:10.000Z</time>
      </trkpt>
      <trkpt lat="45.1345" lon="5.90539">
        <ele>1851.5999755859</ele>
        <time>2023-08-12T16:02:17.000Z</time>
      </trkpt>
      <trkpt lat="45.1345" lon="5.90539">
        <ele>1851.1999511719</ele>
        <time>2023-08-12T16:02:19.000Z</time>
      </trkpt>
      <trkpt lat="45.13451" lon="5.9054">
        <ele>1850.4000244141</ele>
        <time>2023-08-12T16:02:24.000Z</time>
      </trkpt>
      <trkpt lat="45.13451" lon="5.90538">
        <ele>1850</ele>
        <time>2023-08-12T16:02:30.000Z</time>
      </trkpt>
      <trkpt lat="45.1345" lon="5.90535">
        <ele>1849.5999755859</ele>
        <time>2023-08-12T16:02:37.000Z</time>
      </trkpt>
      <trkpt lat="45.13452" lon="5.90535">
        <ele>1849.1999511719</ele>
        <time>2023-08-12T16:02:40.000Z</time>
      </trkpt>
      <trkpt lat="45.13453" lon="5.90535">
        <ele>1849.1999511719</ele>
        <time>2023-08-12T16:02:43.000Z</time>
      </trkpt>
      <trkpt lat="45.13454" lon="5.90535">
        <ele>1848.1999511719</ele>
        <time>2023-08-12T16:02:49.000Z</time>
      </trkpt>
      <trkpt lat="45.13453" lon="5.90536">
        <ele>1848</ele>
        <time>2023-08-12T16:02:51.000Z</time>
      </trkpt>
      <trkpt lat="45.13452" lon="5.90532">
        <ele>1846.8000488281</ele>
        <time>2023-08-12T16:03:00.000Z</time>
      </trkpt>
      <trkpt lat="45.13451" lon="5.90529">
        <ele>1846.1999511719</ele>
        <time>2023-08-12T16:03:05.000Z</time>
      </trkpt>
      <trkpt lat="45.13451" lon="5.90529">
        <ele>1846</ele>
        <time>2023-08-12T16:03:06.000Z</time>
      </trkpt>
      <trkpt lat="45.13452" lon="5.90527">
        <ele>1845.4000244141</ele>
        <time>2023-08-12T16:03:10.000Z</time>
      </trkpt>
      <trkpt lat="45.13453" lon="5.90526">
        <ele>1845</ele>
        <time>2023-08-12T16:03:12.000Z</time>
      </trkpt>
      <trkpt lat="45.13452" lon="5.90521">
        <ele>1844</ele>
        <time>2023-08-12T16:03:18.000Z</time>
      </trkpt>
      <trkpt lat="45.13452" lon="5.9052">
        <ele>1843.8000488281</ele>
        <time>2023-08-12T16:03:19.000Z</time>
      </trkpt>
      <trkpt lat="45.13453" lon="5.90517">
        <ele>1842.8000488281</ele>
        <time>2023-08-12T16:03:23.000Z</time>
      </trkpt>
      <trkpt lat="45.13453" lon="5.90515">
        <ele>1842.4000244141</ele>
        <time>2023-08-12T16:03:25.000Z</time>
      </trkpt>
      <trkpt lat="45.13454" lon="5.90509">
        <ele>1841.5999755859</ele>
        <time>2023-08-12T16:03:29.000Z</time>
      </trkpt>
      <trkpt lat="45.13454" lon="5.90505">
        <ele>1841.1999511719</ele>
        <time>2023-08-12T16:03:31.000Z</time>
      </trkpt>
      <trkpt lat="45.13453" lon="5.90498">
        <ele>1840.4000244141</ele>
        <time>2023-08-12T16:03:38.000Z</time>
      </trkpt>
      <trkpt lat="45.13453" lon="5.90497">
        <ele>1840.4000244141</ele>
        <time>2023-08-12T16:03:39.000Z</time>
      </trkpt>
      <trkpt lat="45.13452" lon="5.9049">
        <ele>1839.4000244141</ele>
        <time>2023-08-12T16:03:47.000Z</time>
      </trkpt>
      <trkpt lat="45.13452" lon="5.9049">
        <ele>1839.1999511719</ele>
        <time>2023-08-12T16:03:48.000Z</time>
      </trkpt>
      <trkpt lat="45.13453" lon="5.90488">
        <ele>1838.1999511719</ele>
        <time>2023-08-12T16:03:54.000Z</time>
      </trkpt>
      <trkpt lat="45.13455" lon="5.90488">
        <ele>1837.5999755859</ele>
        <time>2023-08-12T16:03:57.000Z</time>
      </trkpt>
      <trkpt lat="45.13457" lon="5.90487">
        <ele>1837.1999511719</ele>
        <time>2023-08-12T16:04:00.000Z</time>
      </trkpt>
      <trkpt lat="45.13458" lon="5.90485">
        <ele>1836.4000244141</ele>
        <time>2023-08-12T16:04:04.000Z</time>
      </trkpt>
      <trkpt lat="45.13459" lon="5.90483">
        <ele>1836</ele>
        <time>2023-08-12T16:04:06.000Z</time>
      </trkpt>
      <trkpt lat="45.13459" lon="5.90478">
        <ele>1835.4000244141</ele>
        <time>2023-08-12T16:04:10.000Z</time>
      </trkpt>
      <trkpt lat="45.13458" lon="5.90473">
        <ele>1835</ele>
        <time>2023-08-12T16:04:14.000Z</time>
      </trkpt>
      <trkpt lat="45.13456" lon="5.90468">
        <ele>1835</ele>
        <time>2023-08-12T16:04:18.000Z</time>
      </trkpt>
      <trkpt lat="45.13455" lon="5.90468">
        <ele>1835.1999511719</ele>
        <time>2023-08-12T16:04:19.000Z</time>
      </trkpt>
      <trkpt lat="45.13455" lon="5.90466">
        <ele>1835.4000244141</ele>
        <time>2023-08-12T16:04:24.000Z</time>
      </trkpt>
      <trkpt lat="45.13457" lon="5.90463">
        <ele>1835</ele>
        <time>2023-08-12T16:04:32.000Z</time>
      </trkpt>
      <trkpt lat="45.13458" lon="5.90459">
        <ele>1834</ele>
        <time>2023-08-12T16:04:39.000Z</time>
      </trkpt>
      <trkpt lat="45.13458" lon="5.90458">
        <ele>1833.8000488281</ele>
        <time>2023-08-12T16:04:41.000Z</time>
      </trkpt>
      <trkpt lat="45.1346" lon="5.90454">
        <ele>1832.8000488281</ele>
        <time>2023-08-12T16:04:46.000Z</time>
      </trkpt>
      <trkpt lat="45.1346" lon="5.90453">
        <ele>1832.5999755859</ele>
        <time>2023-08-12T16:04:48.000Z</time>
      </trkpt>
      <trkpt lat="45.13459" lon="5.9045">
        <ele>1831.5999755859</ele>
        <time>2023-08-12T16:04:52.000Z</time>
      </trkpt>
      <trkpt lat="45.13459" lon="5.90448">
        <ele>1830.5999755859</ele>
        <time>2023-08-12T16:04:57.000Z</time>
      </trkpt>
      <trkpt lat="45.1346" lon="5.90448">
        <ele>1829.5999755859</ele>
        <time>2023-08-12T16:05:03.000Z</time>
      </trkpt>
      <trkpt lat="45.1346" lon="5.90448">
        <ele>1829.4000244141</ele>
        <time>2023-08-12T16:05:04.000Z</time>
      </trkpt>
      <trkpt lat="45.1346" lon="5.90445">
        <ele>1828.8000488281</ele>
        <time>2023-08-12T16:05:10.000Z</time>
      </trkpt>
      <trkpt lat="45.1346" lon="5.90443">
        <ele>1828.4000244141</ele>
        <time>2023-08-12T16:05:13.000Z</time>
      </trkpt>
      <trkpt lat="45.13462" lon="5.90442">
        <ele>1828.1999511719</ele>
        <time>2023-08-12T16:05:16.000Z</time>
      </trkpt>
      <trkpt lat="45.13461" lon="5.90439">
        <ele>1827.4000244141</ele>
        <time>2023-08-12T16:05:20.000Z</time>
      </trkpt>
      <trkpt lat="45.1346" lon="5.90439">
        <ele>1827.1999511719</ele>
        <time>2023-08-12T16:05:22.000Z</time>
      </trkpt>
      <trkpt lat="45.13457" lon="5.90434">
        <ele>1827.5999755859</ele>
        <time>2023-08-12T16:05:28.000Z</time>
      </trkpt>
      <trkpt lat="45.13456" lon="5.9043">
        <ele>1827.8000488281</ele>
        <time>2023-08-12T16:05:34.000Z</time>
      </trkpt>
      <trkpt lat="45.13457" lon="5.90423">
        <ele>1826.8000488281</ele>
        <time>2023-08-12T16:05:42.000Z</time>
      </trkpt>
      <trkpt lat="45.13457" lon="5.90421">
        <ele>1826.4000244141</ele>
        <time>2023-08-12T16:05:44.000Z</time>
      </trkpt>
      <trkpt lat="45.13454" lon="5.90415">
        <ele>1825.4000244141</ele>
        <time>2023-08-12T16:05:48.000Z</time>
      </trkpt>
      <trkpt lat="45.13454" lon="5.90416">
        <ele>1825</ele>
        <time>2023-08-12T16:05:49.000Z</time>
      </trkpt>
      <trkpt lat="45.13454" lon="5.90415">
        <ele>1824.8000488281</ele>
        <time>2023-08-12T16:05:50.000Z</time>
      </trkpt>
      <trkpt lat="45.13455" lon="5.90417">
        <ele>1824.1999511719</ele>
        <time>2023-08-12T16:05:53.000Z</time>
      </trkpt>
      <trkpt lat="45.13456" lon="5.90418">
        <ele>1824</ele>
        <time>2023-08-12T16:05:55.000Z</time>
      </trkpt>
      <trkpt lat="45.13458" lon="5.90417">
        <ele>1823</ele>
        <time>2023-08-12T16:05:59.000Z</time>
      </trkpt>
      <trkpt lat="45.13459" lon="5.90416">
        <ele>1822.5999755859</ele>
        <time>2023-08-12T16:06:00.000Z</time>
      </trkpt>
      <trkpt lat="45.13462" lon="5.90416">
        <ele>1822</ele>
        <time>2023-08-12T16:06:02.000Z</time>
      </trkpt>
      <trkpt lat="45.13465" lon="5.90415">
        <ele>1821.5999755859</ele>
        <time>2023-08-12T16:06:04.000Z</time>
      </trkpt>
      <trkpt lat="45.13465" lon="5.90415">
        <ele>1821.4000244141</ele>
        <time>2023-08-12T16:06:05.000Z</time>
      </trkpt>
      <trkpt lat="45.13467" lon="5.90414">
        <ele>1820.8000488281</ele>
        <time>2023-08-12T16:06:08.000Z</time>
      </trkpt>
      <trkpt lat="45.13467" lon="5.90413">
        <ele>1820.5999755859</ele>
        <time>2023-08-12T16:06:09.000Z</time>
      </trkpt>
      <trkpt lat="45.13468" lon="5.9041">
        <ele>1820</ele>
        <time>2023-08-12T16:06:11.000Z</time>
      </trkpt>
      <trkpt lat="45.1347" lon="5.90403">
        <ele>1819.4000244141</ele>
        <time>2023-08-12T16:06:15.000Z</time>
      </trkpt>
      <trkpt lat="45.1347" lon="5.904">
        <ele>1819.1999511719</ele>
        <time>2023-08-12T16:06:16.000Z</time>
      </trkpt>
      <trkpt lat="45.13472" lon="5.90391">
        <ele>1818.5999755859</ele>
        <time>2023-08-12T16:06:22.000Z</time>
      </trkpt>
      <trkpt lat="45.13472" lon="5.90387">
        <ele>1818.1999511719</ele>
        <time>2023-08-12T16:06:25.000Z</time>
      </trkpt>
      <trkpt lat="45.13473" lon="5.90379">
        <ele>1817.5999755859</ele>
        <time>2023-08-12T16:06:30.000Z</time>
      </trkpt>
      <trkpt lat="45.13475" lon="5.90373">
        <ele>1817.1999511719</ele>
        <time>2023-08-12T16:06:34.000Z</time>
      </trkpt>
      <trkpt lat="45.13476" lon="5.90368">
        <ele>1817</ele>
        <time>2023-08-12T16:06:38.000Z</time>
      </trkpt>
      <trkpt lat="45.13478" lon="5.90364">
        <ele>1816.1999511719</ele>
        <time>2023-08-12T16:06:44.000Z</time>
      </trkpt>
      <trkpt lat="45.13478" lon="5.90364">
        <ele>1816</ele>
        <time>2023-08-12T16:06:46.000Z</time>
      </trkpt>
      <trkpt lat="45.13478" lon="5.90364">
        <ele>1816</ele>
        <time>2023-08-12T16:06:50.000Z</time>
      </trkpt>
      <trkpt lat="45.13477" lon="5.90362">
        <ele>1815.8000488281</ele>
        <time>2023-08-12T16:06:58.000Z</time>
      </trkpt>
      <trkpt lat="45.13478" lon="5.90357">
        <ele>1815.4000244141</ele>
        <time>2023-08-12T16:07:03.000Z</time>
      </trkpt>
      <trkpt lat="45.13479" lon="5.9035">
        <ele>1815</ele>
        <time>2023-08-12T16:07:09.000Z</time>
      </trkpt>
      <trkpt lat="45.13477" lon="5.90343">
        <ele>1815</ele>
        <time>2023-08-12T16:07:16.000Z</time>
      </trkpt>
      <trkpt lat="45.13476" lon="5.90339">
        <ele>1814.8000488281</ele>
        <time>2023-08-12T16:07:25.000Z</time>
      </trkpt>
      <trkpt lat="45.13476" lon="5.90337">
        <ele>1814.4000244141</ele>
        <time>2023-08-12T16:07:33.000Z</time>
      </trkpt>
      <trkpt lat="45.13477" lon="5.90333">
        <ele>1814.1999511719</ele>
        <time>2023-08-12T16:07:41.000Z</time>
      </trkpt>
      <trkpt lat="45.13477" lon="5.90333">
        <ele>1814</ele>
        <time>2023-08-12T16:07:43.000Z</time>
      </trkpt>
      <trkpt lat="45.13477" lon="5.90326">
        <ele>1814</ele>
        <time>2023-08-12T16:07:48.000Z</time>
      </trkpt>
      <trkpt lat="45.13477" lon="5.90319">
        <ele>1814</ele>
        <time>2023-08-12T16:07:56.000Z</time>
      </trkpt>
      <trkpt lat="45.13475" lon="5.90307">
        <ele>1813.8000488281</ele>
        <time>2023-08-12T16:08:05.000Z</time>
      </trkpt>
      <trkpt lat="45.13474" lon="5.90306">
        <ele>1813.8000488281</ele>
        <time>2023-08-12T16:08:11.000Z</time>
      </trkpt>
      <trkpt lat="45.13472" lon="5.903">
        <ele>1814</ele>
        <time>2023-08-12T16:08:18.000Z</time>
      </trkpt>
      <trkpt lat="45.13472" lon="5.90289">
        <ele>1814</ele>
        <time>2023-08-12T16:08:28.000Z</time>
      </trkpt>
      <trkpt lat="45.13472" lon="5.90281">
        <ele>1814</ele>
        <time>2023-08-12T16:08:36.000Z</time>
      </trkpt>
      <trkpt lat="45.13473" lon="5.90275">
        <ele>1813.8000488281</ele>
        <time>2023-08-12T16:08:44.000Z</time>
      </trkpt>
      <trkpt lat="45.13474" lon="5.90262">
        <ele>1813.5999755859</ele>
        <time>2023-08-12T16:08:54.000Z</time>
      </trkpt>
      <trkpt lat="45.13474" lon="5.90256">
        <ele>1813.4000244141</ele>
        <time>2023-08-12T16:09:01.000Z</time>
      </trkpt>
      <trkpt lat="45.13477" lon="5.90242">
        <ele>1813.1999511719</ele>
        <time>2023-08-12T16:09:11.000Z</time>
      </trkpt>
      <trkpt lat="45.13477" lon="5.9024">
        <ele>1813</ele>
        <time>2023-08-12T16:09:19.000Z</time>
      </trkpt>
      <trkpt lat="45.13476" lon="5.90239">
        <ele>1813</ele>
        <time>2023-08-12T16:09:25.000Z</time>
      </trkpt>
      <trkpt lat="45.13476" lon="5.90239">
        <ele>1812.8000488281</ele>
        <time>2023-08-12T16:09:27.000Z</time>
      </trkpt>
      <trkpt lat="45.13475" lon="5.90237">
        <ele>1812.8000488281</ele>
        <time>2023-08-12T16:09:33.000Z</time>
      </trkpt>
      <trkpt lat="45.13478" lon="5.90238">
        <ele>1813</ele>
        <time>2023-08-12T16:09:38.000Z</time>
      </trkpt>
      <trkpt lat="45.13479" lon="5.90233">
        <ele>1812.5999755859</ele>
        <time>2023-08-12T16:09:46.000Z</time>
      </trkpt>
      <trkpt lat="45.13484" lon="5.90237">
        <ele>1813</ele>
        <time>2023-08-12T16:09:53.000Z</time>
      </trkpt>
      <trkpt lat="45.13492" lon="5.90233">
        <ele>1813.1999511719</ele>
        <time>2023-08-12T16:10:01.000Z</time>
      </trkpt>
      <trkpt lat="45.13499" lon="5.90227">
        <ele>1813.4000244141</ele>
        <time>2023-08-12T16:10:08.000Z</time>
      </trkpt>
      <trkpt lat="45.13506" lon="5.90218">
        <ele>1813.8000488281</ele>
        <time>2023-08-12T16:10:20.000Z</time>
      </trkpt>
      <trkpt lat="45.13511" lon="5.90207">
        <ele>1813.4000244141</ele>
        <time>2023-08-12T16:10:29.000Z</time>
      </trkpt>
      <trkpt lat="45.13517" lon="5.90194">
        <ele>1812.1999511719</ele>
        <time>2023-08-12T16:10:39.000Z</time>
      </trkpt>
      <trkpt lat="45.13519" lon="5.90189">
        <ele>1812</ele>
        <time>2023-08-12T16:10:44.000Z</time>
      </trkpt>
      <trkpt lat="45.13521" lon="5.90184">
        <ele>1811.8000488281</ele>
        <time>2023-08-12T16:10:48.000Z</time>
      </trkpt>
      <trkpt lat="45.13524" lon="5.90177">
        <ele>1811.4000244141</ele>
        <time>2023-08-12T16:10:56.000Z</time>
      </trkpt>
      <trkpt lat="45.13522" lon="5.90173">
        <ele>1811</ele>
        <time>2023-08-12T16:11:02.000Z</time>
      </trkpt>
      <trkpt lat="45.1352" lon="5.90173">
        <ele>1810.5999755859</ele>
        <time>2023-08-12T16:11:04.000Z</time>
      </trkpt>
      <trkpt lat="45.13522" lon="5.90172">
        <ele>1810.4000244141</ele>
        <time>2023-08-12T16:11:14.000Z</time>
      </trkpt>
      <trkpt lat="45.13525" lon="5.9017">
        <ele>1809.8000488281</ele>
        <time>2023-08-12T16:11:21.000Z</time>
      </trkpt>
      <trkpt lat="45.13525" lon="5.9017">
        <ele>1809.5999755859</ele>
        <time>2023-08-12T16:11:22.000Z</time>
      </trkpt>
      <trkpt lat="45.13524" lon="5.90167">
        <ele>1808.8000488281</ele>
        <time>2023-08-12T16:11:29.000Z</time>
      </trkpt>
      <trkpt lat="45.13525" lon="5.90166">
        <ele>1808.4000244141</ele>
        <time>2023-08-12T16:11:31.000Z</time>
      </trkpt>
      <trkpt lat="45.13527" lon="5.90163">
        <ele>1807.8000488281</ele>
        <time>2023-08-12T16:11:35.000Z</time>
      </trkpt>
      <trkpt lat="45.13529" lon="5.90162">
        <ele>1807.1999511719</ele>
        <time>2023-08-12T16:11:37.000Z</time>
      </trkpt>
      <trkpt lat="45.13532" lon="5.90161">
        <ele>1806.4000244141</ele>
        <time>2023-08-12T16:11:41.000Z</time>
      </trkpt>
      <trkpt lat="45.13535" lon="5.90159">
        <ele>1805.5999755859</ele>
        <time>2023-08-12T16:11:45.000Z</time>
      </trkpt>
      <trkpt lat="45.13535" lon="5.90158">
        <ele>1805.4000244141</ele>
        <time>2023-08-12T16:11:46.000Z</time>
      </trkpt>
      <trkpt lat="45.13533" lon="5.90156">
        <ele>1804.5999755859</ele>
        <time>2023-08-12T16:11:51.000Z</time>
      </trkpt>
      <trkpt lat="45.13532" lon="5.90155">
        <ele>1804.4000244141</ele>
        <time>2023-08-12T16:11:52.000Z</time>
      </trkpt>
      <trkpt lat="45.1353" lon="5.90151">
        <ele>1803.1999511719</ele>
        <time>2023-08-12T16:11:58.000Z</time>
      </trkpt>
      <trkpt lat="45.1353" lon="5.9015">
        <ele>1802.8000488281</ele>
        <time>2023-08-12T16:12:00.000Z</time>
      </trkpt>
      <trkpt lat="45.13528" lon="5.90147">
        <ele>1802</ele>
        <time>2023-08-12T16:12:04.000Z</time>
      </trkpt>
      <trkpt lat="45.13528" lon="5.90143">
        <ele>1801.1999511719</ele>
        <time>2023-08-12T16:12:09.000Z</time>
      </trkpt>
      <trkpt lat="45.13528" lon="5.90144">
        <ele>1801</ele>
        <time>2023-08-12T16:12:11.000Z</time>
      </trkpt>
      <trkpt lat="45.13526" lon="5.9014">
        <ele>1799.8000488281</ele>
        <time>2023-08-12T16:12:17.000Z</time>
      </trkpt>
      <trkpt lat="45.13526" lon="5.9014">
        <ele>1799.8000488281</ele>
        <time>2023-08-12T16:12:18.000Z</time>
      </trkpt>
      <trkpt lat="45.13525" lon="5.90141">
        <ele>1798.8000488281</ele>
        <time>2023-08-12T16:12:24.000Z</time>
      </trkpt>
      <trkpt lat="45.13524" lon="5.90141">
        <ele>1798.5999755859</ele>
        <time>2023-08-12T16:12:26.000Z</time>
      </trkpt>
      <trkpt lat="45.13523" lon="5.9014">
        <ele>1798.5999755859</ele>
        <time>2023-08-12T16:12:28.000Z</time>
      </trkpt>
      <trkpt lat="45.13523" lon="5.90138">
        <ele>1798.4000244141</ele>
        <time>2023-08-12T16:12:34.000Z</time>
      </trkpt>
      <trkpt lat="45.13521" lon="5.90134">
        <ele>1798.1999511719</ele>
        <time>2023-08-12T16:12:43.000Z</time>
      </trkpt>
      <trkpt lat="45.1352" lon="5.90133">
        <ele>1797.8000488281</ele>
        <time>2023-08-12T16:12:46.000Z</time>
      </trkpt>
      <trkpt lat="45.13521" lon="5.90131">
        <ele>1796.8000488281</ele>
        <time>2023-08-12T16:12:52.000Z</time>
      </trkpt>
      <trkpt lat="45.13521" lon="5.9013">
        <ele>1796.5999755859</ele>
        <time>2023-08-12T16:12:53.000Z</time>
      </trkpt>
      <trkpt lat="45.13522" lon="5.90129">
        <ele>1795.5999755859</ele>
        <time>2023-08-12T16:12:57.000Z</time>
      </trkpt>
      <trkpt lat="45.13522" lon="5.90129">
        <ele>1795</ele>
        <time>2023-08-12T16:13:00.000Z</time>
      </trkpt>
      <trkpt lat="45.13522" lon="5.90128">
        <ele>1794.4000244141</ele>
        <time>2023-08-12T16:13:02.000Z</time>
      </trkpt>
      <trkpt lat="45.13525" lon="5.90123">
        <ele>1793.5999755859</ele>
        <time>2023-08-12T16:13:07.000Z</time>
      </trkpt>
      <trkpt lat="45.13526" lon="5.9012">
        <ele>1793.1999511719</ele>
        <time>2023-08-12T16:13:09.000Z</time>
      </trkpt>
      <trkpt lat="45.13528" lon="5.90123">
        <ele>1792.4000244141</ele>
        <time>2023-08-12T16:13:14.000Z</time>
      </trkpt>
      <trkpt lat="45.13529" lon="5.90123">
        <ele>1792</ele>
        <time>2023-08-12T16:13:15.000Z</time>
      </trkpt>
      <trkpt lat="45.1353" lon="5.90128">
        <ele>1791</ele>
        <time>2023-08-12T16:13:21.000Z</time>
      </trkpt>
      <trkpt lat="45.13531" lon="5.90128">
        <ele>1790.8000488281</ele>
        <time>2023-08-12T16:13:22.000Z</time>
      </trkpt>
      <trkpt lat="45.13534" lon="5.90132">
        <ele>1790</ele>
        <time>2023-08-12T16:13:27.000Z</time>
      </trkpt>
      <trkpt lat="45.13537" lon="5.90135">
        <ele>1789.5999755859</ele>
        <time>2023-08-12T16:13:31.000Z</time>
      </trkpt>
      <trkpt lat="45.1354" lon="5.90137">
        <ele>1789</ele>
        <time>2023-08-12T16:13:38.000Z</time>
      </trkpt>
      <trkpt lat="45.13539" lon="5.90136">
        <ele>1788.8000488281</ele>
        <time>2023-08-12T16:13:39.000Z</time>
      </trkpt>
      <trkpt lat="45.13537" lon="5.90132">
        <ele>1788.4000244141</ele>
        <time>2023-08-12T16:13:45.000Z</time>
      </trkpt>
      <trkpt lat="45.13538" lon="5.90133">
        <ele>1788</ele>
        <time>2023-08-12T16:13:49.000Z</time>
      </trkpt>
      <trkpt lat="45.13539" lon="5.90132">
        <ele>1787.4000244141</ele>
        <time>2023-08-12T16:13:54.000Z</time>
      </trkpt>
      <trkpt lat="45.1354" lon="5.90132">
        <ele>1786.8000488281</ele>
        <time>2023-08-12T16:13:57.000Z</time>
      </trkpt>
      <trkpt lat="45.13543" lon="5.90131">
        <ele>1785.8000488281</ele>
        <time>2023-08-12T16:14:02.000Z</time>
      </trkpt>
      <trkpt lat="45.13545" lon="5.90131">
        <ele>1785.4000244141</ele>
        <time>2023-08-12T16:14:04.000Z</time>
      </trkpt>
      <trkpt lat="45.13547" lon="5.9013">
        <ele>1784.5999755859</ele>
        <time>2023-08-12T16:14:08.000Z</time>
      </trkpt>
      <trkpt lat="45.13547" lon="5.90129">
        <ele>1784</ele>
        <time>2023-08-12T16:14:11.000Z</time>
      </trkpt>
      <trkpt lat="45.13548" lon="5.90129">
        <ele>1783.5999755859</ele>
        <time>2023-08-12T16:14:14.000Z</time>
      </trkpt>
      <trkpt lat="45.13549" lon="5.90126">
        <ele>1782.8000488281</ele>
        <time>2023-08-12T16:14:20.000Z</time>
      </trkpt>
      <trkpt lat="45.13548" lon="5.90124">
        <ele>1782.4000244141</ele>
        <time>2023-08-12T16:14:23.000Z</time>
      </trkpt>
      <trkpt lat="45.13546" lon="5.90119">
        <ele>1781.5999755859</ele>
        <time>2023-08-12T16:14:28.000Z</time>
      </trkpt>
      <trkpt lat="45.13546" lon="5.90118">
        <ele>1781.1999511719</ele>
        <time>2023-08-12T16:14:30.000Z</time>
      </trkpt>
      <trkpt lat="45.13546" lon="5.90115">
        <ele>1780.1999511719</ele>
        <time>2023-08-12T16:14:35.000Z</time>
      </trkpt>
      <trkpt lat="45.13545" lon="5.90116">
        <ele>1779.8000488281</ele>
        <time>2023-08-12T16:14:37.000Z</time>
      </trkpt>
      <trkpt lat="45.13544" lon="5.90114">
        <ele>1779</ele>
        <time>2023-08-12T16:14:42.000Z</time>
      </trkpt>
      <trkpt lat="45.13543" lon="5.90114">
        <ele>1778.1999511719</ele>
        <time>2023-08-12T16:14:45.000Z</time>
      </trkpt>
      <trkpt lat="45.13543" lon="5.90113">
        <ele>1777.8000488281</ele>
        <time>2023-08-12T16:14:47.000Z</time>
      </trkpt>
      <trkpt lat="45.13542" lon="5.90109">
        <ele>1777</ele>
        <time>2023-08-12T16:14:53.000Z</time>
      </trkpt>
      <trkpt lat="45.13542" lon="5.90109">
        <ele>1776.8000488281</ele>
        <time>2023-08-12T16:14:55.000Z</time>
      </trkpt>
      <trkpt lat="45.13545" lon="5.90108">
        <ele>1776</ele>
        <time>2023-08-12T16:14:58.000Z</time>
      </trkpt>
      <trkpt lat="45.13546" lon="5.90108">
        <ele>1775.8000488281</ele>
        <time>2023-08-12T16:15:00.000Z</time>
      </trkpt>
      <trkpt lat="45.13549" lon="5.90105">
        <ele>1774.5999755859</ele>
        <time>2023-08-12T16:15:06.000Z</time>
      </trkpt>
      <trkpt lat="45.13549" lon="5.90104">
        <ele>1774.4000244141</ele>
        <time>2023-08-12T16:15:08.000Z</time>
      </trkpt>
      <trkpt lat="45.13547" lon="5.90102">
        <ele>1773.5999755859</ele>
        <time>2023-08-12T16:15:13.000Z</time>
      </trkpt>
      <trkpt lat="45.13546" lon="5.901">
        <ele>1773</ele>
        <time>2023-08-12T16:15:16.000Z</time>
      </trkpt>
      <trkpt lat="45.13546" lon="5.901">
        <ele>1772.4000244141</ele>
        <time>2023-08-12T16:15:18.000Z</time>
      </trkpt>
      <trkpt lat="45.13549" lon="5.90099">
        <ele>1771.8000488281</ele>
        <time>2023-08-12T16:15:22.000Z</time>
      </trkpt>
      <trkpt lat="45.13552" lon="5.90099">
        <ele>1771.4000244141</ele>
        <time>2023-08-12T16:15:25.000Z</time>
      </trkpt>
      <trkpt lat="45.13552" lon="5.90099">
        <ele>1771</ele>
        <time>2023-08-12T16:15:27.000Z</time>
      </trkpt>
      <trkpt lat="45.13552" lon="5.90096">
        <ele>1770.1999511719</ele>
        <time>2023-08-12T16:15:31.000Z</time>
      </trkpt>
      <trkpt lat="45.13552" lon="5.90094">
        <ele>1769.5999755859</ele>
        <time>2023-08-12T16:15:34.000Z</time>
      </trkpt>
      <trkpt lat="45.13551" lon="5.90092">
        <ele>1769</ele>
        <time>2023-08-12T16:15:36.000Z</time>
      </trkpt>
      <trkpt lat="45.1355" lon="5.90086">
        <ele>1768</ele>
        <time>2023-08-12T16:15:41.000Z</time>
      </trkpt>
      <trkpt lat="45.13549" lon="5.90085">
        <ele>1767.8000488281</ele>
        <time>2023-08-12T16:15:42.000Z</time>
      </trkpt>
      <trkpt lat="45.13548" lon="5.9008">
        <ele>1766.8000488281</ele>
        <time>2023-08-12T16:15:46.000Z</time>
      </trkpt>
      <trkpt lat="45.13548" lon="5.90076">
        <ele>1766.1999511719</ele>
        <time>2023-08-12T16:15:48.000Z</time>
      </trkpt>
      <trkpt lat="45.13547" lon="5.9007">
        <ele>1765.8000488281</ele>
        <time>2023-08-12T16:15:51.000Z</time>
      </trkpt>
      <trkpt lat="45.13545" lon="5.90055">
        <ele>1765</ele>
        <time>2023-08-12T16:16:00.000Z</time>
      </trkpt>
      <trkpt lat="45.13541" lon="5.90049">
        <ele>1765</ele>
        <time>2023-08-12T16:16:07.000Z</time>
      </trkpt>
      <trkpt lat="45.13538" lon="5.90045">
        <ele>1764.5999755859</ele>
        <time>2023-08-12T16:16:11.000Z</time>
      </trkpt>
      <trkpt lat="45.13537" lon="5.90043">
        <ele>1764.4000244141</ele>
        <time>2023-08-12T16:16:14.000Z</time>
      </trkpt>
      <trkpt lat="45.13529" lon="5.90029">
        <ele>1763.5999755859</ele>
        <time>2023-08-12T16:16:23.000Z</time>
      </trkpt>
      <trkpt lat="45.13526" lon="5.90024">
        <ele>1763.1999511719</ele>
        <time>2023-08-12T16:16:30.000Z</time>
      </trkpt>
      <trkpt lat="45.13524" lon="5.90019">
        <ele>1762.5999755859</ele>
        <time>2023-08-12T16:16:35.000Z</time>
      </trkpt>
      <trkpt lat="45.13523" lon="5.90014">
        <ele>1762</ele>
        <time>2023-08-12T16:16:38.000Z</time>
      </trkpt>
      <trkpt lat="45.13522" lon="5.90008">
        <ele>1761.5999755859</ele>
        <time>2023-08-12T16:16:44.000Z</time>
      </trkpt>
      <trkpt lat="45.13522" lon="5.90007">
        <ele>1761.4000244141</ele>
        <time>2023-08-12T16:16:45.000Z</time>
      </trkpt>
      <trkpt lat="45.13519" lon="5.89998">
        <ele>1760.8000488281</ele>
        <time>2023-08-12T16:16:51.000Z</time>
      </trkpt>
      <trkpt lat="45.13517" lon="5.89989">
        <ele>1760.1999511719</ele>
        <time>2023-08-12T16:16:58.000Z</time>
      </trkpt>
      <trkpt lat="45.13518" lon="5.89988">
        <ele>1760.1999511719</ele>
        <time>2023-08-12T16:16:59.000Z</time>
      </trkpt>
      <trkpt lat="45.13522" lon="5.8998">
        <ele>1759.1999511719</ele>
        <time>2023-08-12T16:17:06.000Z</time>
      </trkpt>
      <trkpt lat="45.13525" lon="5.89977">
        <ele>1758.8000488281</ele>
        <time>2023-08-12T16:17:09.000Z</time>
      </trkpt>
      <trkpt lat="45.13526" lon="5.89969">
        <ele>1758</ele>
        <time>2023-08-12T16:17:14.000Z</time>
      </trkpt>
      <trkpt lat="45.13533" lon="5.89957">
        <ele>1757.4000244141</ele>
        <time>2023-08-12T16:17:23.000Z</time>
      </trkpt>
      <trkpt lat="45.13538" lon="5.89948">
        <ele>1757</ele>
        <time>2023-08-12T16:17:31.000Z</time>
      </trkpt>
      <trkpt lat="45.13542" lon="5.89937">
        <ele>1756</ele>
        <time>2023-08-12T16:17:39.000Z</time>
      </trkpt>
      <trkpt lat="45.13542" lon="5.89933">
        <ele>1756</ele>
        <time>2023-08-12T16:17:41.000Z</time>
      </trkpt>
      <trkpt lat="45.13545" lon="5.89934">
        <ele>1756.5999755859</ele>
        <time>2023-08-12T16:17:48.000Z</time>
      </trkpt>
      <trkpt lat="45.13546" lon="5.89933">
        <ele>1757</ele>
        <time>2023-08-12T16:17:51.000Z</time>
      </trkpt>
      <trkpt lat="45.13551" lon="5.89932">
        <ele>1757.5999755859</ele>
        <time>2023-08-12T16:17:56.000Z</time>
      </trkpt>
      <trkpt lat="45.13551" lon="5.89931">
        <ele>1758</ele>
        <time>2023-08-12T16:17:59.000Z</time>
      </trkpt>
      <trkpt lat="45.1355" lon="5.89929">
        <ele>1758.5999755859</ele>
        <time>2023-08-12T16:18:02.000Z</time>
      </trkpt>
      <trkpt lat="45.1355" lon="5.89929">
        <ele>1758.5999755859</ele>
        <time>2023-08-12T16:18:03.000Z</time>
      </trkpt>
      <trkpt lat="45.1355" lon="5.89927">
        <ele>1759</ele>
        <time>2023-08-12T16:18:05.000Z</time>
      </trkpt>
      <trkpt lat="45.13553" lon="5.89927">
        <ele>1759.5999755859</ele>
        <time>2023-08-12T16:18:09.000Z</time>
      </trkpt>
      <trkpt lat="45.13553" lon="5.89927">
        <ele>1760</ele>
        <time>2023-08-12T16:18:11.000Z</time>
      </trkpt>
      <trkpt lat="45.13557" lon="5.89926">
        <ele>1761.1999511719</ele>
        <time>2023-08-12T16:18:18.000Z</time>
      </trkpt>
      <trkpt lat="45.13557" lon="5.89925">
        <ele>1761.5999755859</ele>
        <time>2023-08-12T16:18:20.000Z</time>
      </trkpt>
      <trkpt lat="45.1356" lon="5.89922">
        <ele>1762.4000244141</ele>
        <time>2023-08-12T16:18:25.000Z</time>
      </trkpt>
      <trkpt lat="45.1356" lon="5.8992">
        <ele>1762.5999755859</ele>
        <time>2023-08-12T16:18:27.000Z</time>
      </trkpt>
      <trkpt lat="45.13557" lon="5.89919">
        <ele>1763</ele>
        <time>2023-08-12T16:18:37.000Z</time>
      </trkpt>
      <trkpt lat="45.13555" lon="5.89915">
        <ele>1763.4000244141</ele>
        <time>2023-08-12T16:18:43.000Z</time>
      </trkpt>
      <trkpt lat="45.13554" lon="5.89914">
        <ele>1763.8000488281</ele>
        <time>2023-08-12T16:18:46.000Z</time>
      </trkpt>
      <trkpt lat="45.13554" lon="5.8991">
        <ele>1764.4000244141</ele>
        <time>2023-08-12T16:18:50.000Z</time>
      </trkpt>
      <trkpt lat="45.13554" lon="5.89907">
        <ele>1764.8000488281</ele>
        <time>2023-08-12T16:18:54.000Z</time>
      </trkpt>
      <trkpt lat="45.13555" lon="5.89902">
        <ele>1765.5999755859</ele>
        <time>2023-08-12T16:19:00.000Z</time>
      </trkpt>
      <trkpt lat="45.13555" lon="5.89899">
        <ele>1766.1999511719</ele>
        <time>2023-08-12T16:19:05.000Z</time>
      </trkpt>
      <trkpt lat="45.13555" lon="5.89897">
        <ele>1766.5999755859</ele>
        <time>2023-08-12T16:19:08.000Z</time>
      </trkpt>
      <trkpt lat="45.13555" lon="5.89894">
        <ele>1767</ele>
        <time>2023-08-12T16:19:13.000Z</time>
      </trkpt>
      <trkpt lat="45.13555" lon="5.89892">
        <ele>1767.5999755859</ele>
        <time>2023-08-12T16:19:17.000Z</time>
      </trkpt>
      <trkpt lat="45.13553" lon="5.89889">
        <ele>1768.1999511719</ele>
        <time>2023-08-12T16:19:22.000Z</time>
      </trkpt>
      <trkpt lat="45.13551" lon="5.89887">
        <ele>1768.5999755859</ele>
        <time>2023-08-12T16:19:26.000Z</time>
      </trkpt>
      <trkpt lat="45.1355" lon="5.89884">
        <ele>1769</ele>
        <time>2023-08-12T16:19:30.000Z</time>
      </trkpt>
      <trkpt lat="45.13548" lon="5.89879">
        <ele>1769.8000488281</ele>
        <time>2023-08-12T16:19:36.000Z</time>
      </trkpt>
      <trkpt lat="45.13548" lon="5.89879">
        <ele>1769.8000488281</ele>
        <time>2023-08-12T16:19:37.000Z</time>
      </trkpt>
      <trkpt lat="45.13547" lon="5.89877">
        <ele>1770.8000488281</ele>
        <time>2023-08-12T16:19:47.000Z</time>
      </trkpt>
      <trkpt lat="45.13545" lon="5.89874">
        <ele>1772</ele>
        <time>2023-08-12T16:19:55.000Z</time>
      </trkpt>
      <trkpt lat="45.13542" lon="5.89868">
        <ele>1773</ele>
        <time>2023-08-12T16:20:03.000Z</time>
      </trkpt>
      <trkpt lat="45.13537" lon="5.89863">
        <ele>1773.8000488281</ele>
        <time>2023-08-12T16:20:12.000Z</time>
      </trkpt>
      <trkpt lat="45.13536" lon="5.8986">
        <ele>1774.1999511719</ele>
        <time>2023-08-12T16:20:16.000Z</time>
      </trkpt>
      <trkpt lat="45.13535" lon="5.89858">
        <ele>1774.4000244141</ele>
        <time>2023-08-12T16:20:20.000Z</time>
      </trkpt>
      <trkpt lat="45.13534" lon="5.89852">
        <ele>1775.1999511719</ele>
        <time>2023-08-12T16:20:26.000Z</time>
      </trkpt>
      <trkpt lat="45.13534" lon="5.89849">
        <ele>1775.1999511719</ele>
        <time>2023-08-12T16:20:28.000Z</time>
      </trkpt>
      <trkpt lat="45.13533" lon="5.89837">
        <ele>1775.4000244141</ele>
        <time>2023-08-12T16:20:36.000Z</time>
      </trkpt>
      <trkpt lat="45.13532" lon="5.89835">
        <ele>1776.1999511719</ele>
        <time>2023-08-12T16:20:42.000Z</time>
      </trkpt>
      <trkpt lat="45.13531" lon="5.89833">
        <ele>1776.5999755859</ele>
        <time>2023-08-12T16:20:45.000Z</time>
      </trkpt>
      <trkpt lat="45.13528" lon="5.89829">
        <ele>1777.4000244141</ele>
        <time>2023-08-12T16:20:50.000Z</time>
      </trkpt>
      <trkpt lat="45.13528" lon="5.89829">
        <ele>1777.4000244141</ele>
        <time>2023-08-12T16:20:51.000Z</time>
      </trkpt>
      <trkpt lat="45.13524" lon="5.89822">
        <ele>1778.4000244141</ele>
        <time>2023-08-12T16:20:58.000Z</time>
      </trkpt>
      <trkpt lat="45.13521" lon="5.89824">
        <ele>1778.5999755859</ele>
        <time>2023-08-12T16:21:00.000Z</time>
      </trkpt>
      <trkpt lat="45.1352" lon="5.8982">
        <ele>1779.4000244141</ele>
        <time>2023-08-12T16:21:06.000Z</time>
      </trkpt>
      <trkpt lat="45.1352" lon="5.89818">
        <ele>1779.5999755859</ele>
        <time>2023-08-12T16:21:08.000Z</time>
      </trkpt>
      <trkpt lat="45.13517" lon="5.89814">
        <ele>1780.5999755859</ele>
        <time>2023-08-12T16:21:18.000Z</time>
      </trkpt>
      <trkpt lat="45.13504" lon="5.89809">
        <ele>1784</ele>
        <time>2023-08-12T16:21:41.000Z</time>
      </trkpt>
      <trkpt lat="45.13504" lon="5.89806">
        <ele>1784.4000244141</ele>
        <time>2023-08-12T16:21:43.000Z</time>
      </trkpt>
      <trkpt lat="45.13503" lon="5.89801">
        <ele>1785</ele>
        <time>2023-08-12T16:21:48.000Z</time>
      </trkpt>
      <trkpt lat="45.13503" lon="5.89799">
        <ele>1785.4000244141</ele>
        <time>2023-08-12T16:21:51.000Z</time>
      </trkpt>
      <trkpt lat="45.13499" lon="5.89788">
        <ele>1786.1999511719</ele>
        <time>2023-08-12T16:22:00.000Z</time>
      </trkpt>
      <trkpt lat="45.13498" lon="5.89779">
        <ele>1786.4000244141</ele>
        <time>2023-08-12T16:22:07.000Z</time>
      </trkpt>
      <trkpt lat="45.13498" lon="5.89774">
        <ele>1787.1999511719</ele>
        <time>2023-08-12T16:22:12.000Z</time>
      </trkpt>
      <trkpt lat="45.13496" lon="5.89769">
        <ele>1787.5999755859</ele>
        <time>2023-08-12T16:22:15.000Z</time>
      </trkpt>
      <trkpt lat="45.13495" lon="5.89765">
        <ele>1788.1999511719</ele>
        <time>2023-08-12T16:22:19.000Z</time>
      </trkpt>
      <trkpt lat="45.13494" lon="5.89757">
        <ele>1788.5999755859</ele>
        <time>2023-08-12T16:22:24.000Z</time>
      </trkpt>
      <trkpt lat="45.1349" lon="5.89748">
        <ele>1788.8000488281</ele>
        <time>2023-08-12T16:22:32.000Z</time>
      </trkpt>
      <trkpt lat="45.13486" lon="5.89741">
        <ele>1789.1999511719</ele>
        <time>2023-08-12T16:22:39.000Z</time>
      </trkpt>
      <trkpt lat="45.13486" lon="5.8974">
        <ele>1789.1999511719</ele>
        <time>2023-08-12T16:22:41.000Z</time>
      </trkpt>
      <trkpt lat="45.13485" lon="5.89732">
        <ele>1789</ele>
        <time>2023-08-12T16:22:48.000Z</time>
      </trkpt>
      <trkpt lat="45.13482" lon="5.89725">
        <ele>1789.8000488281</ele>
        <time>2023-08-12T16:22:57.000Z</time>
      </trkpt>
      <trkpt lat="45.13478" lon="5.89719">
        <ele>1790.1999511719</ele>
        <time>2023-08-12T16:23:03.000Z</time>
      </trkpt>
      <trkpt lat="45.13477" lon="5.89717">
        <ele>1790.4000244141</ele>
        <time>2023-08-12T16:23:06.000Z</time>
      </trkpt>
      <trkpt lat="45.13471" lon="5.89708">
        <ele>1791.1999511719</ele>
        <time>2023-08-12T16:23:14.000Z</time>
      </trkpt>
      <trkpt lat="45.1347" lon="5.89708">
        <ele>1791.4000244141</ele>
        <time>2023-08-12T16:23:16.000Z</time>
      </trkpt>
      <trkpt lat="45.13464" lon="5.89703">
        <ele>1791.5999755859</ele>
        <time>2023-08-12T16:23:22.000Z</time>
      </trkpt>
      <trkpt lat="45.13459" lon="5.89697">
        <ele>1791.4000244141</ele>
        <time>2023-08-12T16:23:30.000Z</time>
      </trkpt>
      <trkpt lat="45.13457" lon="5.89695">
        <ele>1791.1999511719</ele>
        <time>2023-08-12T16:23:37.000Z</time>
      </trkpt>
      <trkpt lat="45.13453" lon="5.89689">
        <ele>1790.8000488281</ele>
        <time>2023-08-12T16:23:46.000Z</time>
      </trkpt>
      <trkpt lat="45.1345" lon="5.89678">
        <ele>1791.4000244141</ele>
        <time>2023-08-12T16:23:52.000Z</time>
      </trkpt>
      <trkpt lat="45.13445" lon="5.89674">
        <ele>1792</ele>
        <time>2023-08-12T16:23:58.000Z</time>
      </trkpt>
      <trkpt lat="45.13443" lon="5.89671">
        <ele>1792.4000244141</ele>
        <time>2023-08-12T16:24:01.000Z</time>
      </trkpt>
      <trkpt lat="45.1344" lon="5.89665">
        <ele>1792.4000244141</ele>
        <time>2023-08-12T16:24:06.000Z</time>
      </trkpt>
      <trkpt lat="45.13437" lon="5.89652">
        <ele>1792</ele>
        <time>2023-08-12T16:24:15.000Z</time>
      </trkpt>
      <trkpt lat="45.13438" lon="5.89647">
        <ele>1791.1999511719</ele>
        <time>2023-08-12T16:24:21.000Z</time>
      </trkpt>
      <trkpt lat="45.13438" lon="5.89643">
        <ele>1790.5999755859</ele>
        <time>2023-08-12T16:24:25.000Z</time>
      </trkpt>
      <trkpt lat="45.13437" lon="5.89641">
        <ele>1790.1999511719</ele>
        <time>2023-08-12T16:24:27.000Z</time>
      </trkpt>
      <trkpt lat="45.13437" lon="5.89635">
        <ele>1789.1999511719</ele>
        <time>2023-08-12T16:24:32.000Z</time>
      </trkpt>
      <trkpt lat="45.13437" lon="5.89633">
        <ele>1788.8000488281</ele>
        <time>2023-08-12T16:24:34.000Z</time>
      </trkpt>
      <trkpt lat="45.13438" lon="5.89629">
        <ele>1788</ele>
        <time>2023-08-12T16:24:41.000Z</time>
      </trkpt>
      <trkpt lat="45.13435" lon="5.89623">
        <ele>1787</ele>
        <time>2023-08-12T16:24:49.000Z</time>
      </trkpt>
      <trkpt lat="45.13434" lon="5.89621">
        <ele>1787</ele>
        <time>2023-08-12T16:24:52.000Z</time>
      </trkpt>
      <trkpt lat="45.13432" lon="5.89617">
        <ele>1786.1999511719</ele>
        <time>2023-08-12T16:24:58.000Z</time>
      </trkpt>
      <trkpt lat="45.1343" lon="5.89614">
        <ele>1785.8000488281</ele>
        <time>2023-08-12T16:25:00.000Z</time>
      </trkpt>
      <trkpt lat="45.13427" lon="5.89609">
        <ele>1784.8000488281</ele>
        <time>2023-08-12T16:25:06.000Z</time>
      </trkpt>
      <trkpt lat="45.13421" lon="5.89602">
        <ele>1784.8000488281</ele>
        <time>2023-08-12T16:25:15.000Z</time>
      </trkpt>
      <trkpt lat="45.13417" lon="5.89596">
        <ele>1784.1999511719</ele>
        <time>2023-08-12T16:25:23.000Z</time>
      </trkpt>
      <trkpt lat="45.13417" lon="5.89596">
        <ele>1783.8000488281</ele>
        <time>2023-08-12T16:25:25.000Z</time>
      </trkpt>
      <trkpt lat="45.13413" lon="5.89593">
        <ele>1782.8000488281</ele>
        <time>2023-08-12T16:25:30.000Z</time>
      </trkpt>
      <trkpt lat="45.13411" lon="5.89589">
        <ele>1781.8000488281</ele>
        <time>2023-08-12T16:25:36.000Z</time>
      </trkpt>
      <trkpt lat="45.13409" lon="5.89586">
        <ele>1781.1999511719</ele>
        <time>2023-08-12T16:25:40.000Z</time>
      </trkpt>
      <trkpt lat="45.13408" lon="5.89584">
        <ele>1780.5999755859</ele>
        <time>2023-08-12T16:25:42.000Z</time>
      </trkpt>
      <trkpt lat="45.13406" lon="5.8958">
        <ele>1779.8000488281</ele>
        <time>2023-08-12T16:25:46.000Z</time>
      </trkpt>
      <trkpt lat="45.13405" lon="5.89577">
        <ele>1779.5999755859</ele>
        <time>2023-08-12T16:25:48.000Z</time>
      </trkpt>
      <trkpt lat="45.13403" lon="5.89572">
        <ele>1778.5999755859</ele>
        <time>2023-08-12T16:25:54.000Z</time>
      </trkpt>
      <trkpt lat="45.13403" lon="5.89572">
        <ele>1778.5999755859</ele>
        <time>2023-08-12T16:25:55.000Z</time>
      </trkpt>
      <trkpt lat="45.134" lon="5.89566">
        <ele>1777.5999755859</ele>
        <time>2023-08-12T16:26:01.000Z</time>
      </trkpt>
      <trkpt lat="45.13399" lon="5.89566">
        <ele>1777.5999755859</ele>
        <time>2023-08-12T16:26:02.000Z</time>
      </trkpt>
      <trkpt lat="45.13395" lon="5.89563">
        <ele>1776.4000244141</ele>
        <time>2023-08-12T16:26:08.000Z</time>
      </trkpt>
      <trkpt lat="45.13395" lon="5.89563">
        <ele>1776.1999511719</ele>
        <time>2023-08-12T16:26:09.000Z</time>
      </trkpt>
      <trkpt lat="45.13389" lon="5.89561">
        <ele>1775.4000244141</ele>
        <time>2023-08-12T16:26:15.000Z</time>
      </trkpt>
      <trkpt lat="45.13387" lon="5.89561">
        <ele>1775.1999511719</ele>
        <time>2023-08-12T16:26:17.000Z</time>
      </trkpt>
      <trkpt lat="45.13384" lon="5.89558">
        <ele>1774.4000244141</ele>
        <time>2023-08-12T16:26:23.000Z</time>
      </trkpt>
      <trkpt lat="45.13384" lon="5.89557">
        <ele>1774.1999511719</ele>
        <time>2023-08-12T16:26:24.000Z</time>
      </trkpt>
      <trkpt lat="45.13378" lon="5.89545">
        <ele>1773.5999755859</ele>
        <time>2023-08-12T16:26:31.000Z</time>
      </trkpt>
      <trkpt lat="45.13375" lon="5.8954">
        <ele>1773.4000244141</ele>
        <time>2023-08-12T16:26:36.000Z</time>
      </trkpt>
      <trkpt lat="45.13375" lon="5.89539">
        <ele>1773.1999511719</ele>
        <time>2023-08-12T16:26:37.000Z</time>
      </trkpt>
      <trkpt lat="45.13374" lon="5.89534">
        <ele>1772.1999511719</ele>
        <time>2023-08-12T16:26:44.000Z</time>
      </trkpt>
      <trkpt lat="45.13371" lon="5.89529">
        <ele>1771.4000244141</ele>
        <time>2023-08-12T16:26:51.000Z</time>
      </trkpt>
      <trkpt lat="45.1337" lon="5.89529">
        <ele>1771.1999511719</ele>
        <time>2023-08-12T16:26:52.000Z</time>
      </trkpt>
      <trkpt lat="45.13365" lon="5.89523">
        <ele>1770.1999511719</ele>
        <time>2023-08-12T16:26:59.000Z</time>
      </trkpt>
      <trkpt lat="45.13365" lon="5.89522">
        <ele>1770</ele>
        <time>2023-08-12T16:27:00.000Z</time>
      </trkpt>
      <trkpt lat="45.13361" lon="5.8952">
        <ele>1769.5999755859</ele>
        <time>2023-08-12T16:27:06.000Z</time>
      </trkpt>
      <trkpt lat="45.13357" lon="5.89519">
        <ele>1768.5999755859</ele>
        <time>2023-08-12T16:27:12.000Z</time>
      </trkpt>
      <trkpt lat="45.13354" lon="5.89516">
        <ele>1768.1999511719</ele>
        <time>2023-08-12T16:27:15.000Z</time>
      </trkpt>
      <trkpt lat="45.13352" lon="5.89512">
        <ele>1767.5999755859</ele>
        <time>2023-08-12T16:27:18.000Z</time>
      </trkpt>
      <trkpt lat="45.1335" lon="5.8951">
        <ele>1767</ele>
        <time>2023-08-12T16:27:22.000Z</time>
      </trkpt>
      <trkpt lat="45.13346" lon="5.89508">
        <ele>1767</ele>
        <time>2023-08-12T16:27:26.000Z</time>
      </trkpt>
      <trkpt lat="45.13343" lon="5.895">
        <ele>1766.8000488281</ele>
        <time>2023-08-12T16:27:39.000Z</time>
      </trkpt>
      <trkpt lat="45.13341" lon="5.89498">
        <ele>1767</ele>
        <time>2023-08-12T16:27:46.000Z</time>
      </trkpt>
      <trkpt lat="45.13341" lon="5.89494">
        <ele>1766</ele>
        <time>2023-08-12T16:27:54.000Z</time>
      </trkpt>
      <trkpt lat="45.13341" lon="5.89494">
        <ele>1765.8000488281</ele>
        <time>2023-08-12T16:27:55.000Z</time>
      </trkpt>
      <trkpt lat="45.13336" lon="5.89488">
        <ele>1765.1999511719</ele>
        <time>2023-08-12T16:28:03.000Z</time>
      </trkpt>
      <trkpt lat="45.13331" lon="5.8948">
        <ele>1765.1999511719</ele>
        <time>2023-08-12T16:28:10.000Z</time>
      </trkpt>
      <trkpt lat="45.13326" lon="5.89474">
        <ele>1765.5999755859</ele>
        <time>2023-08-12T16:28:18.000Z</time>
      </trkpt>
      <trkpt lat="45.13324" lon="5.89467">
        <ele>1765.8000488281</ele>
        <time>2023-08-12T16:28:25.000Z</time>
      </trkpt>
      <trkpt lat="45.13324" lon="5.89458">
        <ele>1765.1999511719</ele>
        <time>2023-08-12T16:28:32.000Z</time>
      </trkpt>
      <trkpt lat="45.13323" lon="5.89454">
        <ele>1765</ele>
        <time>2023-08-12T16:28:35.000Z</time>
      </trkpt>
      <trkpt lat="45.1332" lon="5.89447">
        <ele>1764.1999511719</ele>
        <time>2023-08-12T16:28:40.000Z</time>
      </trkpt>
      <trkpt lat="45.13318" lon="5.89443">
        <ele>1763.8000488281</ele>
        <time>2023-08-12T16:28:44.000Z</time>
      </trkpt>
      <trkpt lat="45.13318" lon="5.89438">
        <ele>1763.5999755859</ele>
        <time>2023-08-12T16:28:48.000Z</time>
      </trkpt>
      <trkpt lat="45.13317" lon="5.89436">
        <ele>1763.4000244141</ele>
        <time>2023-08-12T16:28:54.000Z</time>
      </trkpt>
      <trkpt lat="45.13315" lon="5.89434">
        <ele>1762.8000488281</ele>
        <time>2023-08-12T16:29:01.000Z</time>
      </trkpt>
      <trkpt lat="45.13316" lon="5.89434">
        <ele>1762.4000244141</ele>
        <time>2023-08-12T16:29:03.000Z</time>
      </trkpt>
      <trkpt lat="45.13317" lon="5.89427">
        <ele>1761.5999755859</ele>
        <time>2023-08-12T16:29:09.000Z</time>
      </trkpt>
      <trkpt lat="45.13317" lon="5.89427">
        <ele>1761.1999511719</ele>
        <time>2023-08-12T16:29:11.000Z</time>
      </trkpt>
      <trkpt lat="45.13315" lon="5.89425">
        <ele>1760.5999755859</ele>
        <time>2023-08-12T16:29:15.000Z</time>
      </trkpt>
      <trkpt lat="45.13311" lon="5.8942">
        <ele>1759.5999755859</ele>
        <time>2023-08-12T16:29:21.000Z</time>
      </trkpt>
      <trkpt lat="45.13306" lon="5.89417">
        <ele>1758.5999755859</ele>
        <time>2023-08-12T16:29:28.000Z</time>
      </trkpt>
      <trkpt lat="45.13306" lon="5.89416">
        <ele>1758.4000244141</ele>
        <time>2023-08-12T16:29:29.000Z</time>
      </trkpt>
      <trkpt lat="45.13303" lon="5.89408">
        <ele>1757.8000488281</ele>
        <time>2023-08-12T16:29:36.000Z</time>
      </trkpt>
      <trkpt lat="45.133" lon="5.89404">
        <ele>1757.4000244141</ele>
        <time>2023-08-12T16:29:40.000Z</time>
      </trkpt>
      <trkpt lat="45.13298" lon="5.894">
        <ele>1757</ele>
        <time>2023-08-12T16:29:43.000Z</time>
      </trkpt>
      <trkpt lat="45.13292" lon="5.89396">
        <ele>1757</ele>
        <time>2023-08-12T16:29:51.000Z</time>
      </trkpt>
      <trkpt lat="45.13286" lon="5.89388">
        <ele>1757.1999511719</ele>
        <time>2023-08-12T16:29:59.000Z</time>
      </trkpt>
      <trkpt lat="45.1328" lon="5.89379">
        <ele>1757.1999511719</ele>
        <time>2023-08-12T16:30:06.000Z</time>
      </trkpt>
      <trkpt lat="45.13281" lon="5.89378">
        <ele>1757.8000488281</ele>
        <time>2023-08-12T16:30:13.000Z</time>
      </trkpt>
      <trkpt lat="45.13276" lon="5.89372">
        <ele>1758</ele>
        <time>2023-08-12T16:30:22.000Z</time>
      </trkpt>
      <trkpt lat="45.13274" lon="5.89371">
        <ele>1758.4000244141</ele>
        <time>2023-08-12T16:30:25.000Z</time>
      </trkpt>
      <trkpt lat="45.13271" lon="5.89366">
        <ele>1759.4000244141</ele>
        <time>2023-08-12T16:30:32.000Z</time>
      </trkpt>
      <trkpt lat="45.13267" lon="5.89356">
        <ele>1758.4000244141</ele>
        <time>2023-08-12T16:30:42.000Z</time>
      </trkpt>
      <trkpt lat="45.13257" lon="5.89342">
        <ele>1757.8000488281</ele>
        <time>2023-08-12T16:30:52.000Z</time>
      </trkpt>
      <trkpt lat="45.13252" lon="5.89338">
        <ele>1758</ele>
        <time>2023-08-12T16:31:00.000Z</time>
      </trkpt>
      <trkpt lat="45.13246" lon="5.89331">
        <ele>1759</ele>
        <time>2023-08-12T16:31:07.000Z</time>
      </trkpt>
      <trkpt lat="45.13245" lon="5.89329">
        <ele>1759.1999511719</ele>
        <time>2023-08-12T16:31:17.000Z</time>
      </trkpt>
      <trkpt lat="45.13247" lon="5.89335">
        <ele>1759.1999511719</ele>
        <time>2023-08-12T16:31:28.000Z</time>
      </trkpt>
      <trkpt lat="45.13248" lon="5.89332">
        <ele>1759</ele>
        <time>2023-08-12T16:31:36.000Z</time>
      </trkpt>
      <trkpt lat="45.13245" lon="5.89324">
        <ele>1759</ele>
        <time>2023-08-12T16:31:44.000Z</time>
      </trkpt>
      <trkpt lat="45.13243" lon="5.89322">
        <ele>1759</ele>
        <time>2023-08-12T16:31:53.000Z</time>
      </trkpt>
      <trkpt lat="45.13235" lon="5.89317">
        <ele>1759.4000244141</ele>
        <time>2023-08-12T16:32:02.000Z</time>
      </trkpt>
      <trkpt lat="45.13235" lon="5.89315">
        <ele>1759.5999755859</ele>
        <time>2023-08-12T16:32:05.000Z</time>
      </trkpt>
      <trkpt lat="45.13231" lon="5.89311">
        <ele>1759.8000488281</ele>
        <time>2023-08-12T16:32:10.000Z</time>
      </trkpt>
      <trkpt lat="45.13226" lon="5.89309">
        <ele>1760.4000244141</ele>
        <time>2023-08-12T16:32:19.000Z</time>
      </trkpt>
      <trkpt lat="45.13225" lon="5.89308">
        <ele>1760.5999755859</ele>
        <time>2023-08-12T16:32:21.000Z</time>
      </trkpt>
      <trkpt lat="45.13219" lon="5.89306">
        <ele>1761.1999511719</ele>
        <time>2023-08-12T16:32:27.000Z</time>
      </trkpt>
      <trkpt lat="45.13208" lon="5.89294">
        <ele>1760.1999511719</ele>
        <time>2023-08-12T16:32:37.000Z</time>
      </trkpt>
      <trkpt lat="45.13209" lon="5.89288">
        <ele>1759.4000244141</ele>
        <time>2023-08-12T16:32:41.000Z</time>
      </trkpt>
      <trkpt lat="45.13207" lon="5.89283">
        <ele>1759.4000244141</ele>
        <time>2023-08-12T16:32:45.000Z</time>
      </trkpt>
      <trkpt lat="45.13203" lon="5.89276">
        <ele>1759.4000244141</ele>
        <time>2023-08-12T16:32:53.000Z</time>
      </trkpt>
      <trkpt lat="45.132" lon="5.89271">
        <ele>1760.1999511719</ele>
        <time>2023-08-12T16:33:01.000Z</time>
      </trkpt>
      <trkpt lat="45.13199" lon="5.8927">
        <ele>1760.5999755859</ele>
        <time>2023-08-12T16:33:04.000Z</time>
      </trkpt>
      <trkpt lat="45.13198" lon="5.89269">
        <ele>1761.5999755859</ele>
        <time>2023-08-12T16:33:10.000Z</time>
      </trkpt>
      <trkpt lat="45.13196" lon="5.89268">
        <ele>1762</ele>
        <time>2023-08-12T16:33:12.000Z</time>
      </trkpt>
      <trkpt lat="45.13188" lon="5.89265">
        <ele>1764.8000488281</ele>
        <time>2023-08-12T16:33:29.000Z</time>
      </trkpt>
      <trkpt lat="45.13187" lon="5.89261">
        <ele>1765</ele>
        <time>2023-08-12T16:33:31.000Z</time>
      </trkpt>
      <trkpt lat="45.13184" lon="5.89256">
        <ele>1765.8000488281</ele>
        <time>2023-08-12T16:33:40.000Z</time>
      </trkpt>
      <trkpt lat="45.13184" lon="5.89255">
        <ele>1765.8000488281</ele>
        <time>2023-08-12T16:33:41.000Z</time>
      </trkpt>
      <trkpt lat="45.13173" lon="5.89246">
        <ele>1766.8000488281</ele>
        <time>2023-08-12T16:33:54.000Z</time>
      </trkpt>
      <trkpt lat="45.13173" lon="5.89244">
        <ele>1767</ele>
        <time>2023-08-12T16:33:56.000Z</time>
      </trkpt>
      <trkpt lat="45.13173" lon="5.89234">
        <ele>1767.4000244141</ele>
        <time>2023-08-12T16:34:02.000Z</time>
      </trkpt>
      <trkpt lat="45.13171" lon="5.8923">
        <ele>1768.1999511719</ele>
        <time>2023-08-12T16:34:08.000Z</time>
      </trkpt>
      <trkpt lat="45.13169" lon="5.89227">
        <ele>1768.5999755859</ele>
        <time>2023-08-12T16:34:11.000Z</time>
      </trkpt>
      <trkpt lat="45.13167" lon="5.89223">
        <ele>1768.8000488281</ele>
        <time>2023-08-12T16:34:19.000Z</time>
      </trkpt>
      <trkpt lat="45.13166" lon="5.89217">
        <ele>1767.4000244141</ele>
        <time>2023-08-12T16:34:27.000Z</time>
      </trkpt>
      <trkpt lat="45.13165" lon="5.89213">
        <ele>1767.1999511719</ele>
        <time>2023-08-12T16:34:30.000Z</time>
      </trkpt>
      <trkpt lat="45.13164" lon="5.89203">
        <ele>1766.1999511719</ele>
        <time>2023-08-12T16:34:37.000Z</time>
      </trkpt>
      <trkpt lat="45.13163" lon="5.89201">
        <ele>1766</ele>
        <time>2023-08-12T16:34:39.000Z</time>
      </trkpt>
      <trkpt lat="45.13159" lon="5.89195">
        <ele>1765.5999755859</ele>
        <time>2023-08-12T16:34:45.000Z</time>
      </trkpt>
      <trkpt lat="45.13153" lon="5.89183">
        <ele>1765.4000244141</ele>
        <time>2023-08-12T16:34:52.000Z</time>
      </trkpt>
      <trkpt lat="45.13147" lon="5.89174">
        <ele>1765.4000244141</ele>
        <time>2023-08-12T16:35:00.000Z</time>
      </trkpt>
      <trkpt lat="45.13139" lon="5.89162">
        <ele>1765.1999511719</ele>
        <time>2023-08-12T16:35:09.000Z</time>
      </trkpt>
      <trkpt lat="45.13137" lon="5.8916">
        <ele>1765</ele>
        <time>2023-08-12T16:35:11.000Z</time>
      </trkpt>
      <trkpt lat="45.13134" lon="5.89152">
        <ele>1764</ele>
        <time>2023-08-12T16:35:17.000Z</time>
      </trkpt>
      <trkpt lat="45.13127" lon="5.89142">
        <ele>1763.5999755859</ele>
        <time>2023-08-12T16:35:28.000Z</time>
      </trkpt>
      <trkpt lat="45.13121" lon="5.89138">
        <ele>1764.1999511719</ele>
        <time>2023-08-12T16:35:34.000Z</time>
      </trkpt>
      <trkpt lat="45.13116" lon="5.89128">
        <ele>1764</ele>
        <time>2023-08-12T16:35:43.000Z</time>
      </trkpt>
      <trkpt lat="45.13114" lon="5.8912">
        <ele>1763.5999755859</ele>
        <time>2023-08-12T16:35:50.000Z</time>
      </trkpt>
      <trkpt lat="45.13107" lon="5.89111">
        <ele>1763.1999511719</ele>
        <time>2023-08-12T16:35:59.000Z</time>
      </trkpt>
      <trkpt lat="45.131" lon="5.89101">
        <ele>1763.5999755859</ele>
        <time>2023-08-12T16:36:07.000Z</time>
      </trkpt>
      <trkpt lat="45.13092" lon="5.89091">
        <ele>1763.5999755859</ele>
        <time>2023-08-12T16:36:15.000Z</time>
      </trkpt>
      <trkpt lat="45.13085" lon="5.89084">
        <ele>1762.8000488281</ele>
        <time>2023-08-12T16:36:24.000Z</time>
      </trkpt>
      <trkpt lat="45.13078" lon="5.89079">
        <ele>1763.1999511719</ele>
        <time>2023-08-12T16:36:31.000Z</time>
      </trkpt>
      <trkpt lat="45.13072" lon="5.8907">
        <ele>1763</ele>
        <time>2023-08-12T16:36:38.000Z</time>
      </trkpt>
      <trkpt lat="45.13066" lon="5.89061">
        <ele>1762.4000244141</ele>
        <time>2023-08-12T16:36:46.000Z</time>
      </trkpt>
      <trkpt lat="45.13058" lon="5.89055">
        <ele>1762.1999511719</ele>
        <time>2023-08-12T16:36:55.000Z</time>
      </trkpt>
      <trkpt lat="45.13053" lon="5.89054">
        <ele>1762.4000244141</ele>
        <time>2023-08-12T16:37:02.000Z</time>
      </trkpt>
      <trkpt lat="45.13052" lon="5.89055">
        <ele>1762.4000244141</ele>
        <time>2023-08-12T16:37:07.000Z</time>
      </trkpt>
      <trkpt lat="45.13052" lon="5.89056">
        <ele>1762.4000244141</ele>
        <time>2023-08-12T16:37:10.000Z</time>
      </trkpt>
      <trkpt lat="45.1305" lon="5.89054">
        <ele>1762.1999511719</ele>
        <time>2023-08-12T16:37:18.000Z</time>
      </trkpt>
      <trkpt lat="45.13046" lon="5.89051">
        <ele>1761.8000488281</ele>
        <time>2023-08-12T16:37:22.000Z</time>
      </trkpt>
      <trkpt lat="45.13043" lon="5.89048">
        <ele>1761.4000244141</ele>
        <time>2023-08-12T16:37:25.000Z</time>
      </trkpt>
      <trkpt lat="45.13038" lon="5.89044">
        <ele>1760.8000488281</ele>
        <time>2023-08-12T16:37:30.000Z</time>
      </trkpt>
      <trkpt lat="45.13034" lon="5.8904">
        <ele>1760.4000244141</ele>
        <time>2023-08-12T16:37:34.000Z</time>
      </trkpt>
      <trkpt lat="45.13028" lon="5.89038">
        <ele>1759.5999755859</ele>
        <time>2023-08-12T16:37:40.000Z</time>
      </trkpt>
      <trkpt lat="45.13026" lon="5.89037">
        <ele>1759.4000244141</ele>
        <time>2023-08-12T16:37:42.000Z</time>
      </trkpt>
      <trkpt lat="45.13022" lon="5.89035">
        <ele>1758.4000244141</ele>
        <time>2023-08-12T16:37:46.000Z</time>
      </trkpt>
      <trkpt lat="45.13019" lon="5.89035">
        <ele>1758</ele>
        <time>2023-08-12T16:37:49.000Z</time>
      </trkpt>
      <trkpt lat="45.13016" lon="5.89034">
        <ele>1757.4000244141</ele>
        <time>2023-08-12T16:37:51.000Z</time>
      </trkpt>
      <trkpt lat="45.13008" lon="5.8903">
        <ele>1756.1999511719</ele>
        <time>2023-08-12T16:37:57.000Z</time>
      </trkpt>
      <trkpt lat="45.13007" lon="5.8903">
        <ele>1756</ele>
        <time>2023-08-12T16:37:58.000Z</time>
      </trkpt>
      <trkpt lat="45.13002" lon="5.89022">
        <ele>1755.1999511719</ele>
        <time>2023-08-12T16:38:05.000Z</time>
      </trkpt>
      <trkpt lat="45.13001" lon="5.8902">
        <ele>1755</ele>
        <time>2023-08-12T16:38:06.000Z</time>
      </trkpt>
      <trkpt lat="45.12994" lon="5.89007">
        <ele>1754.4000244141</ele>
        <time>2023-08-12T16:38:13.000Z</time>
      </trkpt>
      <trkpt lat="45.12987" lon="5.89">
        <ele>1754.4000244141</ele>
        <time>2023-08-12T16:38:20.000Z</time>
      </trkpt>
      <trkpt lat="45.12979" lon="5.88995">
        <ele>1754</ele>
        <time>2023-08-12T16:38:26.000Z</time>
      </trkpt>
      <trkpt lat="45.12977" lon="5.88994">
        <ele>1754</ele>
        <time>2023-08-12T16:38:27.000Z</time>
      </trkpt>
      <trkpt lat="45.1297" lon="5.88986">
        <ele>1754</ele>
        <time>2023-08-12T16:38:35.000Z</time>
      </trkpt>
      <trkpt lat="45.12963" lon="5.88976">
        <ele>1754.1999511719</ele>
        <time>2023-08-12T16:38:42.000Z</time>
      </trkpt>
      <trkpt lat="45.1296" lon="5.88965">
        <ele>1754.8000488281</ele>
        <time>2023-08-12T16:38:49.000Z</time>
      </trkpt>
      <trkpt lat="45.12959" lon="5.88963">
        <ele>1755.1999511719</ele>
        <time>2023-08-12T16:38:51.000Z</time>
      </trkpt>
      <trkpt lat="45.12959" lon="5.88964">
        <ele>1755.8000488281</ele>
        <time>2023-08-12T16:38:56.000Z</time>
      </trkpt>
      <trkpt lat="45.12959" lon="5.88964">
        <ele>1755.8000488281</ele>
        <time>2023-08-12T16:38:58.000Z</time>
      </trkpt>
      <trkpt lat="45.12957" lon="5.88964">
        <ele>1755.8000488281</ele>
        <time>2023-08-12T16:39:03.000Z</time>
      </trkpt>
      <trkpt lat="45.12955" lon="5.88959">
        <ele>1755.8000488281</ele>
        <time>2023-08-12T16:39:07.000Z</time>
      </trkpt>
      <trkpt lat="45.12954" lon="5.88955">
        <ele>1756.1999511719</ele>
        <time>2023-08-12T16:39:11.000Z</time>
      </trkpt>
      <trkpt lat="45.12954" lon="5.88953">
        <ele>1756.5999755859</ele>
        <time>2023-08-12T16:39:14.000Z</time>
      </trkpt>
      <trkpt lat="45.12952" lon="5.88958">
        <ele>1756.5999755859</ele>
        <time>2023-08-12T16:39:23.000Z</time>
      </trkpt>
      <trkpt lat="45.12953" lon="5.88956">
        <ele>1756.8000488281</ele>
        <time>2023-08-12T16:39:30.000Z</time>
      </trkpt>
      <trkpt lat="45.12953" lon="5.88953">
        <ele>1756.8000488281</ele>
        <time>2023-08-12T16:39:38.000Z</time>
      </trkpt>
      <trkpt lat="45.12953" lon="5.88943">
        <ele>1757.1999511719</ele>
        <time>2023-08-12T16:39:44.000Z</time>
      </trkpt>
      <trkpt lat="45.12953" lon="5.88941">
        <ele>1757.5999755859</ele>
        <time>2023-08-12T16:39:46.000Z</time>
      </trkpt>
      <trkpt lat="45.12953" lon="5.88933">
        <ele>1758.4000244141</ele>
        <time>2023-08-12T16:39:51.000Z</time>
      </trkpt>
      <trkpt lat="45.12953" lon="5.8893">
        <ele>1758.5999755859</ele>
        <time>2023-08-12T16:39:53.000Z</time>
      </trkpt>
      <trkpt lat="45.12952" lon="5.88927">
        <ele>1759.4000244141</ele>
        <time>2023-08-12T16:39:57.000Z</time>
      </trkpt>
      <trkpt lat="45.12952" lon="5.88923">
        <ele>1759.8000488281</ele>
        <time>2023-08-12T16:40:00.000Z</time>
      </trkpt>
      <trkpt lat="45.12952" lon="5.8892">
        <ele>1760.5999755859</ele>
        <time>2023-08-12T16:40:04.000Z</time>
      </trkpt>
      <trkpt lat="45.12952" lon="5.88916">
        <ele>1761.1999511719</ele>
        <time>2023-08-12T16:40:07.000Z</time>
      </trkpt>
      <trkpt lat="45.12952" lon="5.88912">
        <ele>1761.5999755859</ele>
        <time>2023-08-12T16:40:10.000Z</time>
      </trkpt>
      <trkpt lat="45.12952" lon="5.88907">
        <ele>1762.5999755859</ele>
        <time>2023-08-12T16:40:16.000Z</time>
      </trkpt>
      <trkpt lat="45.12952" lon="5.88905">
        <ele>1763</ele>
        <time>2023-08-12T16:40:18.000Z</time>
      </trkpt>
      <trkpt lat="45.12953" lon="5.889">
        <ele>1763.8000488281</ele>
        <time>2023-08-12T16:40:22.000Z</time>
      </trkpt>
      <trkpt lat="45.12955" lon="5.88894">
        <ele>1764.5999755859</ele>
        <time>2023-08-12T16:40:29.000Z</time>
      </trkpt>
      <trkpt lat="45.12955" lon="5.88894">
        <ele>1764.8000488281</ele>
        <time>2023-08-12T16:40:31.000Z</time>
      </trkpt>
      <trkpt lat="45.12955" lon="5.88893">
        <ele>1765.1999511719</ele>
        <time>2023-08-12T16:40:36.000Z</time>
      </trkpt>
      <trkpt lat="45.12958" lon="5.88892">
        <ele>1765.1999511719</ele>
        <time>2023-08-12T16:40:43.000Z</time>
      </trkpt>
      <trkpt lat="45.12962" lon="5.88894">
        <ele>1765.4000244141</ele>
        <time>2023-08-12T16:40:55.000Z</time>
      </trkpt>
      <trkpt lat="45.1296" lon="5.88891">
        <ele>1765.5999755859</ele>
        <time>2023-08-12T16:41:13.000Z</time>
      </trkpt>
      <trkpt lat="45.1296" lon="5.88891">
        <ele>1765.8000488281</ele>
        <time>2023-08-12T16:41:14.000Z</time>
      </trkpt>
      <trkpt lat="45.12952" lon="5.88895">
        <ele>1766.1999511719</ele>
        <time>2023-08-12T16:41:39.000Z</time>
      </trkpt>
      <trkpt lat="45.12954" lon="5.889">
        <ele>1766.4000244141</ele>
        <time>2023-08-12T16:41:55.000Z</time>
      </trkpt>
      <trkpt lat="45.1295" lon="5.889">
        <ele>1766.4000244141</ele>
        <time>2023-08-12T16:42:12.000Z</time>
      </trkpt>
      <trkpt lat="45.12951" lon="5.88901">
        <ele>1766.4000244141</ele>
        <time>2023-08-12T16:42:20.000Z</time>
      </trkpt>
      <trkpt lat="45.12946" lon="5.88903">
        <ele>1766.8000488281</ele>
        <time>2023-08-12T16:42:28.000Z</time>
      </trkpt>
      <trkpt lat="45.12945" lon="5.88904">
        <ele>1767.1999511719</ele>
        <time>2023-08-12T16:42:30.000Z</time>
      </trkpt>
      <trkpt lat="45.12932" lon="5.88913">
        <ele>1770.1999511719</ele>
        <time>2023-08-12T16:42:52.000Z</time>
      </trkpt>
      <trkpt lat="45.1293" lon="5.88915">
        <ele>1770.5999755859</ele>
        <time>2023-08-12T16:42:54.000Z</time>
      </trkpt>
      <trkpt lat="45.12923" lon="5.88919">
        <ele>1771.8000488281</ele>
        <time>2023-08-12T16:43:04.000Z</time>
      </trkpt>
      <trkpt lat="45.12929" lon="5.88913">
        <ele>1771</ele>
        <time>2023-08-12T16:43:17.000Z</time>
      </trkpt>
      <trkpt lat="45.12933" lon="5.88909">
        <ele>1770</ele>
        <time>2023-08-12T16:43:22.000Z</time>
      </trkpt>
      <trkpt lat="45.12934" lon="5.88909">
        <ele>1769.5999755859</ele>
        <time>2023-08-12T16:43:24.000Z</time>
      </trkpt>
      <trkpt lat="45.12951" lon="5.88896">
        <ele>1766.5999755859</ele>
        <time>2023-08-12T16:43:41.000Z</time>
      </trkpt>
      <trkpt lat="45.12952" lon="5.88895">
        <ele>1766.4000244141</ele>
        <time>2023-08-12T16:43:42.000Z</time>
      </trkpt>
      <trkpt lat="45.12959" lon="5.88887">
        <ele>1766</ele>
        <time>2023-08-12T16:43:49.000Z</time>
      </trkpt>
      <trkpt lat="45.12964" lon="5.88877">
        <ele>1766.4000244141</ele>
        <time>2023-08-12T16:43:57.000Z</time>
      </trkpt>
      <trkpt lat="45.12967" lon="5.88868">
        <ele>1767.4000244141</ele>
        <time>2023-08-12T16:44:04.000Z</time>
      </trkpt>
      <trkpt lat="45.12967" lon="5.88867">
        <ele>1767.5999755859</ele>
        <time>2023-08-12T16:44:05.000Z</time>
      </trkpt>
      <trkpt lat="45.12966" lon="5.88859">
        <ele>1767.8000488281</ele>
        <time>2023-08-12T16:44:10.000Z</time>
      </trkpt>
      <trkpt lat="45.12961" lon="5.88848">
        <ele>1768.5999755859</ele>
        <time>2023-08-12T16:44:20.000Z</time>
      </trkpt>
      <trkpt lat="45.1296" lon="5.88847">
        <ele>1768.8000488281</ele>
        <time>2023-08-12T16:44:21.000Z</time>
      </trkpt>
      <trkpt lat="45.12955" lon="5.88844">
        <ele>1769.5999755859</ele>
        <time>2023-08-12T16:44:28.000Z</time>
      </trkpt>
      <trkpt lat="45.12954" lon="5.88843">
        <ele>1769.8000488281</ele>
        <time>2023-08-12T16:44:29.000Z</time>
      </trkpt>
      <trkpt lat="45.12952" lon="5.88838">
        <ele>1770.5999755859</ele>
        <time>2023-08-12T16:44:35.000Z</time>
      </trkpt>
      <trkpt lat="45.12951" lon="5.88836">
        <ele>1770.8000488281</ele>
        <time>2023-08-12T16:44:37.000Z</time>
      </trkpt>
      <trkpt lat="45.12951" lon="5.88835">
        <ele>1772</ele>
        <time>2023-08-12T16:44:42.000Z</time>
      </trkpt>
      <trkpt lat="45.12954" lon="5.88829">
        <ele>1773.1999511719</ele>
        <time>2023-08-12T16:44:48.000Z</time>
      </trkpt>
      <trkpt lat="45.12955" lon="5.88826">
        <ele>1773.4000244141</ele>
        <time>2023-08-12T16:44:50.000Z</time>
      </trkpt>
      <trkpt lat="45.12957" lon="5.88821">
        <ele>1774.1999511719</ele>
        <time>2023-08-12T16:44:57.000Z</time>
      </trkpt>
      <trkpt lat="45.12958" lon="5.8882">
        <ele>1774.4000244141</ele>
        <time>2023-08-12T16:44:58.000Z</time>
      </trkpt>
      <trkpt lat="45.12959" lon="5.88816">
        <ele>1775.4000244141</ele>
        <time>2023-08-12T16:45:02.000Z</time>
      </trkpt>
      <trkpt lat="45.12961" lon="5.88812">
        <ele>1775.8000488281</ele>
        <time>2023-08-12T16:45:07.000Z</time>
      </trkpt>
      <trkpt lat="45.12962" lon="5.88809">
        <ele>1776.4000244141</ele>
        <time>2023-08-12T16:45:11.000Z</time>
      </trkpt>
      <trkpt lat="45.12962" lon="5.88805">
        <ele>1776.8000488281</ele>
        <time>2023-08-12T16:45:14.000Z</time>
      </trkpt>
      <trkpt lat="45.12963" lon="5.88799">
        <ele>1777.5999755859</ele>
        <time>2023-08-12T16:45:19.000Z</time>
      </trkpt>
      <trkpt lat="45.12963" lon="5.88794">
        <ele>1778</ele>
        <time>2023-08-12T16:45:22.000Z</time>
      </trkpt>
      <trkpt lat="45.12963" lon="5.88791">
        <ele>1778.5999755859</ele>
        <time>2023-08-12T16:45:25.000Z</time>
      </trkpt>
      <trkpt lat="45.12963" lon="5.88784">
        <ele>1779.1999511719</ele>
        <time>2023-08-12T16:45:30.000Z</time>
      </trkpt>
      <trkpt lat="45.12963" lon="5.88784">
        <ele>1779.5999755859</ele>
        <time>2023-08-12T16:45:32.000Z</time>
      </trkpt>
      <trkpt lat="45.12962" lon="5.88779">
        <ele>1780.8000488281</ele>
        <time>2023-08-12T16:45:37.000Z</time>
      </trkpt>
      <trkpt lat="45.12965" lon="5.88771">
        <ele>1781.8000488281</ele>
        <time>2023-08-12T16:45:43.000Z</time>
      </trkpt>
      <trkpt lat="45.12967" lon="5.8877">
        <ele>1782.1999511719</ele>
        <time>2023-08-12T16:45:45.000Z</time>
      </trkpt>
      <trkpt lat="45.12969" lon="5.88766">
        <ele>1783</ele>
        <time>2023-08-12T16:45:51.000Z</time>
      </trkpt>
      <trkpt lat="45.12974" lon="5.88757">
        <ele>1783.8000488281</ele>
        <time>2023-08-12T16:45:59.000Z</time>
      </trkpt>
      <trkpt lat="45.12975" lon="5.88753">
        <ele>1784</ele>
        <time>2023-08-12T16:46:01.000Z</time>
      </trkpt>
      <trkpt lat="45.12981" lon="5.88746">
        <ele>1784.4000244141</ele>
        <time>2023-08-12T16:46:07.000Z</time>
      </trkpt>
      <trkpt lat="45.12987" lon="5.8874">
        <ele>1785</ele>
        <time>2023-08-12T16:46:13.000Z</time>
      </trkpt>
      <trkpt lat="45.12987" lon="5.88739">
        <ele>1785.1999511719</ele>
        <time>2023-08-12T16:46:14.000Z</time>
      </trkpt>
      <trkpt lat="45.12995" lon="5.88729">
        <ele>1785.5999755859</ele>
        <time>2023-08-12T16:46:21.000Z</time>
      </trkpt>
      <trkpt lat="45.12997" lon="5.88727">
        <ele>1786</ele>
        <time>2023-08-12T16:46:24.000Z</time>
      </trkpt>
      <trkpt lat="45.13001" lon="5.88721">
        <ele>1787.1999511719</ele>
        <time>2023-08-12T16:46:31.000Z</time>
      </trkpt>
      <trkpt lat="45.13006" lon="5.88715">
        <ele>1788.1999511719</ele>
        <time>2023-08-12T16:46:36.000Z</time>
      </trkpt>
      <trkpt lat="45.13007" lon="5.88712">
        <ele>1788.4000244141</ele>
        <time>2023-08-12T16:46:38.000Z</time>
      </trkpt>
      <trkpt lat="45.1301" lon="5.88704">
        <ele>1789.4000244141</ele>
        <time>2023-08-12T16:46:44.000Z</time>
      </trkpt>
      <trkpt lat="45.13009" lon="5.88703">
        <ele>1789.5999755859</ele>
        <time>2023-08-12T16:46:45.000Z</time>
      </trkpt>
      <trkpt lat="45.13008" lon="5.88691">
        <ele>1789.4000244141</ele>
        <time>2023-08-12T16:46:52.000Z</time>
      </trkpt>
      <trkpt lat="45.13005" lon="5.88677">
        <ele>1789.4000244141</ele>
        <time>2023-08-12T16:47:00.000Z</time>
      </trkpt>
      <trkpt lat="45.13002" lon="5.88662">
        <ele>1790.1999511719</ele>
        <time>2023-08-12T16:47:09.000Z</time>
      </trkpt>
      <trkpt lat="45.13001" lon="5.88657">
        <ele>1790.4000244141</ele>
        <time>2023-08-12T16:47:12.000Z</time>
      </trkpt>
      <trkpt lat="45.13001" lon="5.88651">
        <ele>1790.8000488281</ele>
        <time>2023-08-12T16:47:16.000Z</time>
      </trkpt>
      <trkpt lat="45.13003" lon="5.8864">
        <ele>1791.4000244141</ele>
        <time>2023-08-12T16:47:23.000Z</time>
      </trkpt>
      <trkpt lat="45.13003" lon="5.88639">
        <ele>1791.5999755859</ele>
        <time>2023-08-12T16:47:24.000Z</time>
      </trkpt>
      <trkpt lat="45.13002" lon="5.88627">
        <ele>1792</ele>
        <time>2023-08-12T16:47:30.000Z</time>
      </trkpt>
      <trkpt lat="45.13" lon="5.88621">
        <ele>1792.1999511719</ele>
        <time>2023-08-12T16:47:35.000Z</time>
      </trkpt>
      <trkpt lat="45.12999" lon="5.88615">
        <ele>1792.5999755859</ele>
        <time>2023-08-12T16:47:39.000Z</time>
      </trkpt>
      <trkpt lat="45.12997" lon="5.88609">
        <ele>1793.1999511719</ele>
        <time>2023-08-12T16:47:43.000Z</time>
      </trkpt>
      <trkpt lat="45.12996" lon="5.88602">
        <ele>1793.5999755859</ele>
        <time>2023-08-12T16:47:47.000Z</time>
      </trkpt>
      <trkpt lat="45.12994" lon="5.88596">
        <ele>1794</ele>
        <time>2023-08-12T16:47:51.000Z</time>
      </trkpt>
      <trkpt lat="45.12991" lon="5.88585">
        <ele>1794.8000488281</ele>
        <time>2023-08-12T16:47:58.000Z</time>
      </trkpt>
      <trkpt lat="45.1299" lon="5.88582">
        <ele>1795.1999511719</ele>
        <time>2023-08-12T16:48:01.000Z</time>
      </trkpt>
      <trkpt lat="45.12988" lon="5.88579">
        <ele>1795.8000488281</ele>
        <time>2023-08-12T16:48:04.000Z</time>
      </trkpt>
      <trkpt lat="45.12985" lon="5.88574">
        <ele>1796.4000244141</ele>
        <time>2023-08-12T16:48:07.000Z</time>
      </trkpt>
      <trkpt lat="45.12984" lon="5.88571">
        <ele>1797</ele>
        <time>2023-08-12T16:48:10.000Z</time>
      </trkpt>
      <trkpt lat="45.12984" lon="5.88567">
        <ele>1797.4000244141</ele>
        <time>2023-08-12T16:48:13.000Z</time>
      </trkpt>
      <trkpt lat="45.12984" lon="5.88563">
        <ele>1798</ele>
        <time>2023-08-12T16:48:16.000Z</time>
      </trkpt>
      <trkpt lat="45.12982" lon="5.88558">
        <ele>1799</ele>
        <time>2023-08-12T16:48:20.000Z</time>
      </trkpt>
      <trkpt lat="45.12982" lon="5.88557">
        <ele>1799.1999511719</ele>
        <time>2023-08-12T16:48:21.000Z</time>
      </trkpt>
      <trkpt lat="45.1298" lon="5.8855">
        <ele>1800</ele>
        <time>2023-08-12T16:48:26.000Z</time>
      </trkpt>
      <trkpt lat="45.12979" lon="5.88549">
        <ele>1800.1999511719</ele>
        <time>2023-08-12T16:48:28.000Z</time>
      </trkpt>
      <trkpt lat="45.12977" lon="5.88543">
        <ele>1801</ele>
        <time>2023-08-12T16:48:33.000Z</time>
      </trkpt>
      <trkpt lat="45.12976" lon="5.88541">
        <ele>1801.4000244141</ele>
        <time>2023-08-12T16:48:36.000Z</time>
      </trkpt>
      <trkpt lat="45.12974" lon="5.88538">
        <ele>1802</ele>
        <time>2023-08-12T16:48:41.000Z</time>
      </trkpt>
      <trkpt lat="45.12972" lon="5.88536">
        <ele>1802.5999755859</ele>
        <time>2023-08-12T16:48:43.000Z</time>
      </trkpt>
      <trkpt lat="45.12969" lon="5.88532">
        <ele>1803.4000244141</ele>
        <time>2023-08-12T16:48:48.000Z</time>
      </trkpt>
      <trkpt lat="45.12968" lon="5.88532">
        <ele>1803.5999755859</ele>
        <time>2023-08-12T16:48:49.000Z</time>
      </trkpt>
      <trkpt lat="45.12964" lon="5.88525">
        <ele>1804.8000488281</ele>
        <time>2023-08-12T16:48:56.000Z</time>
      </trkpt>
      <trkpt lat="45.12963" lon="5.88519">
        <ele>1805.5999755859</ele>
        <time>2023-08-12T16:49:02.000Z</time>
      </trkpt>
      <trkpt lat="45.12963" lon="5.88517">
        <ele>1805.8000488281</ele>
        <time>2023-08-12T16:49:04.000Z</time>
      </trkpt>
      <trkpt lat="45.12963" lon="5.88511">
        <ele>1806.5999755859</ele>
        <time>2023-08-12T16:49:09.000Z</time>
      </trkpt>
      <trkpt lat="45.12962" lon="5.88508">
        <ele>1807</ele>
        <time>2023-08-12T16:49:11.000Z</time>
      </trkpt>
      <trkpt lat="45.12961" lon="5.88504">
        <ele>1808.1999511719</ele>
        <time>2023-08-12T16:49:17.000Z</time>
      </trkpt>
      <trkpt lat="45.1296" lon="5.88503">
        <ele>1808.4000244141</ele>
        <time>2023-08-12T16:49:19.000Z</time>
      </trkpt>
      <trkpt lat="45.12958" lon="5.88499">
        <ele>1809.1999511719</ele>
        <time>2023-08-12T16:49:24.000Z</time>
      </trkpt>
      <trkpt lat="45.12956" lon="5.88496">
        <ele>1810.1999511719</ele>
        <time>2023-08-12T16:49:27.000Z</time>
      </trkpt>
      <trkpt lat="45.12955" lon="5.88496">
        <ele>1810.4000244141</ele>
        <time>2023-08-12T16:49:28.000Z</time>
      </trkpt>
      <trkpt lat="45.12952" lon="5.88492">
        <ele>1811.5999755859</ele>
        <time>2023-08-12T16:49:33.000Z</time>
      </trkpt>
      <trkpt lat="45.12949" lon="5.88488">
        <ele>1812.8000488281</ele>
        <time>2023-08-12T16:49:38.000Z</time>
      </trkpt>
      <trkpt lat="45.12948" lon="5.88487">
        <ele>1813.1999511719</ele>
        <time>2023-08-12T16:49:40.000Z</time>
      </trkpt>
      <trkpt lat="45.12947" lon="5.88485">
        <ele>1814</ele>
        <time>2023-08-12T16:49:43.000Z</time>
      </trkpt>
      <trkpt lat="45.12946" lon="5.88482">
        <ele>1814.8000488281</ele>
        <time>2023-08-12T16:49:48.000Z</time>
      </trkpt>
      <trkpt lat="45.12946" lon="5.88481">
        <ele>1815</ele>
        <time>2023-08-12T16:49:49.000Z</time>
      </trkpt>
      <trkpt lat="45.12945" lon="5.88475">
        <ele>1816.1999511719</ele>
        <time>2023-08-12T16:49:55.000Z</time>
      </trkpt>
      <trkpt lat="45.12944" lon="5.88474">
        <ele>1816.5999755859</ele>
        <time>2023-08-12T16:49:57.000Z</time>
      </trkpt>
      <trkpt lat="45.12942" lon="5.88473">
        <ele>1817.4000244141</ele>
        <time>2023-08-12T16:50:01.000Z</time>
      </trkpt>
      <trkpt lat="45.12941" lon="5.88472">
        <ele>1817.8000488281</ele>
        <time>2023-08-12T16:50:03.000Z</time>
      </trkpt>
      <trkpt lat="45.12935" lon="5.8847">
        <ele>1818.1999511719</ele>
        <time>2023-08-12T16:50:11.000Z</time>
      </trkpt>
      <trkpt lat="45.12933" lon="5.88466">
        <ele>1817.1999511719</ele>
        <time>2023-08-12T16:50:18.000Z</time>
      </trkpt>
      <trkpt lat="45.12931" lon="5.88468">
        <ele>1816.5999755859</ele>
        <time>2023-08-12T16:50:26.000Z</time>
      </trkpt>
      <trkpt lat="45.12929" lon="5.88469">
        <ele>1816.5999755859</ele>
        <time>2023-08-12T16:50:36.000Z</time>
      </trkpt>
      <trkpt lat="45.1293" lon="5.88467">
        <ele>1816.5999755859</ele>
        <time>2023-08-12T16:50:43.000Z</time>
      </trkpt>
      <trkpt lat="45.12929" lon="5.88465">
        <ele>1816.4000244141</ele>
        <time>2023-08-12T16:50:45.000Z</time>
      </trkpt>
      <trkpt lat="45.12928" lon="5.88457">
        <ele>1815.1999511719</ele>
        <time>2023-08-12T16:50:51.000Z</time>
      </trkpt>
      <trkpt lat="45.12928" lon="5.88455">
        <ele>1814.8000488281</ele>
        <time>2023-08-12T16:50:52.000Z</time>
      </trkpt>
      <trkpt lat="45.12927" lon="5.88451">
        <ele>1814</ele>
        <time>2023-08-12T16:50:55.000Z</time>
      </trkpt>
      <trkpt lat="45.12927" lon="5.88448">
        <ele>1812.8000488281</ele>
        <time>2023-08-12T16:51:00.000Z</time>
      </trkpt>
      <trkpt lat="45.12926" lon="5.88449">
        <ele>1812</ele>
        <time>2023-08-12T16:51:09.000Z</time>
      </trkpt>
      <trkpt lat="45.12928" lon="5.88448">
        <ele>1812</ele>
        <time>2023-08-12T16:51:19.000Z</time>
      </trkpt>
      <trkpt lat="45.12927" lon="5.88445">
        <ele>1811.5999755859</ele>
        <time>2023-08-12T16:51:26.000Z</time>
      </trkpt>
      <trkpt lat="45.12927" lon="5.88439">
        <ele>1810.4000244141</ele>
        <time>2023-08-12T16:51:32.000Z</time>
      </trkpt>
      <trkpt lat="45.12927" lon="5.88436">
        <ele>1809.8000488281</ele>
        <time>2023-08-12T16:51:34.000Z</time>
      </trkpt>
      <trkpt lat="45.12926" lon="5.88433">
        <ele>1809</ele>
        <time>2023-08-12T16:51:36.000Z</time>
      </trkpt>
      <trkpt lat="45.12926" lon="5.88429">
        <ele>1808</ele>
        <time>2023-08-12T16:51:40.000Z</time>
      </trkpt>
      <trkpt lat="45.12925" lon="5.88425">
        <ele>1806.8000488281</ele>
        <time>2023-08-12T16:51:45.000Z</time>
      </trkpt>
      <trkpt lat="45.12925" lon="5.88422">
        <ele>1806.4000244141</ele>
        <time>2023-08-12T16:51:47.000Z</time>
      </trkpt>
      <trkpt lat="45.12925" lon="5.88419">
        <ele>1805.5999755859</ele>
        <time>2023-08-12T16:51:50.000Z</time>
      </trkpt>
      <trkpt lat="45.12924" lon="5.88418">
        <ele>1804.5999755859</ele>
        <time>2023-08-12T16:51:54.000Z</time>
      </trkpt>
      <trkpt lat="45.12924" lon="5.88417">
        <ele>1804.4000244141</ele>
        <time>2023-08-12T16:51:55.000Z</time>
      </trkpt>
      <trkpt lat="45.12925" lon="5.88418">
        <ele>1804.4000244141</ele>
        <time>2023-08-12T16:52:05.000Z</time>
      </trkpt>
      <trkpt lat="45.12924" lon="5.88413">
        <ele>1803.4000244141</ele>
        <time>2023-08-12T16:52:12.000Z</time>
      </trkpt>
      <trkpt lat="45.12922" lon="5.88408">
        <ele>1802.4000244141</ele>
        <time>2023-08-12T16:52:16.000Z</time>
      </trkpt>
      <trkpt lat="45.12921" lon="5.88405">
        <ele>1801.4000244141</ele>
        <time>2023-08-12T16:52:20.000Z</time>
      </trkpt>
      <trkpt lat="45.1292" lon="5.88405">
        <ele>1801.1999511719</ele>
        <time>2023-08-12T16:52:21.000Z</time>
      </trkpt>
      <trkpt lat="45.12919" lon="5.88402">
        <ele>1800.1999511719</ele>
        <time>2023-08-12T16:52:24.000Z</time>
      </trkpt>
      <trkpt lat="45.12917" lon="5.88397">
        <ele>1799</ele>
        <time>2023-08-12T16:52:29.000Z</time>
      </trkpt>
      <trkpt lat="45.12917" lon="5.88396">
        <ele>1798.4000244141</ele>
        <time>2023-08-12T16:52:31.000Z</time>
      </trkpt>
      <trkpt lat="45.12915" lon="5.88394">
        <ele>1798</ele>
        <time>2023-08-12T16:52:33.000Z</time>
      </trkpt>
      <trkpt lat="45.12912" lon="5.8839">
        <ele>1796.8000488281</ele>
        <time>2023-08-12T16:52:37.000Z</time>
      </trkpt>
      <trkpt lat="45.12911" lon="5.88388">
        <ele>1796</ele>
        <time>2023-08-12T16:52:39.000Z</time>
      </trkpt>
      <trkpt lat="45.12911" lon="5.88386">
        <ele>1795.5999755859</ele>
        <time>2023-08-12T16:52:40.000Z</time>
      </trkpt>
      <trkpt lat="45.1291" lon="5.88383">
        <ele>1794.4000244141</ele>
        <time>2023-08-12T16:52:44.000Z</time>
      </trkpt>
      <trkpt lat="45.12909" lon="5.88381">
        <ele>1794</ele>
        <time>2023-08-12T16:52:46.000Z</time>
      </trkpt>
      <trkpt lat="45.12908" lon="5.88377">
        <ele>1793.1999511719</ele>
        <time>2023-08-12T16:52:49.000Z</time>
      </trkpt>
      <trkpt lat="45.12906" lon="5.88372">
        <ele>1792.1999511719</ele>
        <time>2023-08-12T16:52:54.000Z</time>
      </trkpt>
      <trkpt lat="45.12903" lon="5.88371">
        <ele>1790.8000488281</ele>
        <time>2023-08-12T16:52:58.000Z</time>
      </trkpt>
      <trkpt lat="45.12902" lon="5.88369">
        <ele>1789.8000488281</ele>
        <time>2023-08-12T16:53:01.000Z</time>
      </trkpt>
      <trkpt lat="45.12901" lon="5.88368">
        <ele>1789.5999755859</ele>
        <time>2023-08-12T16:53:02.000Z</time>
      </trkpt>
      <trkpt lat="45.12899" lon="5.88365">
        <ele>1788.4000244141</ele>
        <time>2023-08-12T16:53:05.000Z</time>
      </trkpt>
      <trkpt lat="45.12898" lon="5.88363">
        <ele>1787.1999511719</ele>
        <time>2023-08-12T16:53:08.000Z</time>
      </trkpt>
      <trkpt lat="45.12896" lon="5.8836">
        <ele>1786.4000244141</ele>
        <time>2023-08-12T16:53:11.000Z</time>
      </trkpt>
      <trkpt lat="45.12896" lon="5.88359">
        <ele>1785.8000488281</ele>
        <time>2023-08-12T16:53:12.000Z</time>
      </trkpt>
      <trkpt lat="45.12893" lon="5.88353">
        <ele>1784.5999755859</ele>
        <time>2023-08-12T16:53:16.000Z</time>
      </trkpt>
      <trkpt lat="45.12891" lon="5.8835">
        <ele>1783.5999755859</ele>
        <time>2023-08-12T16:53:19.000Z</time>
      </trkpt>
      <trkpt lat="45.1289" lon="5.88349">
        <ele>1783.1999511719</ele>
        <time>2023-08-12T16:53:20.000Z</time>
      </trkpt>
      <trkpt lat="45.12887" lon="5.88343">
        <ele>1782.4000244141</ele>
        <time>2023-08-12T16:53:24.000Z</time>
      </trkpt>
      <trkpt lat="45.12884" lon="5.88339">
        <ele>1781.5999755859</ele>
        <time>2023-08-12T16:53:28.000Z</time>
      </trkpt>
      <trkpt lat="45.12883" lon="5.88337">
        <ele>1781.1999511719</ele>
        <time>2023-08-12T16:53:29.000Z</time>
      </trkpt>
      <trkpt lat="45.12881" lon="5.88333">
        <ele>1780.1999511719</ele>
        <time>2023-08-12T16:53:33.000Z</time>
      </trkpt>
      <trkpt lat="45.12878" lon="5.88329">
        <ele>1779.4000244141</ele>
        <time>2023-08-12T16:53:37.000Z</time>
      </trkpt>
      <trkpt lat="45.12877" lon="5.88329">
        <ele>1779.1999511719</ele>
        <time>2023-08-12T16:53:38.000Z</time>
      </trkpt>
      <trkpt lat="45.12874" lon="5.88323">
        <ele>1777.8000488281</ele>
        <time>2023-08-12T16:53:43.000Z</time>
      </trkpt>
      <trkpt lat="45.12872" lon="5.88321">
        <ele>1777.4000244141</ele>
        <time>2023-08-12T16:53:45.000Z</time>
      </trkpt>
      <trkpt lat="45.12872" lon="5.88319">
        <ele>1776.8000488281</ele>
        <time>2023-08-12T16:53:48.000Z</time>
      </trkpt>
      <trkpt lat="45.12872" lon="5.88316">
        <ele>1776.4000244141</ele>
        <time>2023-08-12T16:53:51.000Z</time>
      </trkpt>
      <trkpt lat="45.12872" lon="5.8831">
        <ele>1775.5999755859</ele>
        <time>2023-08-12T16:53:55.000Z</time>
      </trkpt>
      <trkpt lat="45.12872" lon="5.88305">
        <ele>1775.1999511719</ele>
        <time>2023-08-12T16:53:58.000Z</time>
      </trkpt>
      <trkpt lat="45.12874" lon="5.88301">
        <ele>1774.5999755859</ele>
        <time>2023-08-12T16:54:02.000Z</time>
      </trkpt>
      <trkpt lat="45.12874" lon="5.88299">
        <ele>1773.8000488281</ele>
        <time>2023-08-12T16:54:05.000Z</time>
      </trkpt>
      <trkpt lat="45.12874" lon="5.88296">
        <ele>1773.4000244141</ele>
        <time>2023-08-12T16:54:07.000Z</time>
      </trkpt>
      <trkpt lat="45.12876" lon="5.88291">
        <ele>1772.1999511719</ele>
        <time>2023-08-12T16:54:11.000Z</time>
      </trkpt>
      <trkpt lat="45.12876" lon="5.88288">
        <ele>1771.5999755859</ele>
        <time>2023-08-12T16:54:13.000Z</time>
      </trkpt>
      <trkpt lat="45.12876" lon="5.88286">
        <ele>1771.1999511719</ele>
        <time>2023-08-12T16:54:15.000Z</time>
      </trkpt>
      <trkpt lat="45.12875" lon="5.88283">
        <ele>1770</ele>
        <time>2023-08-12T16:54:19.000Z</time>
      </trkpt>
      <trkpt lat="45.12875" lon="5.88283">
        <ele>1769.8000488281</ele>
        <time>2023-08-12T16:54:20.000Z</time>
      </trkpt>
      <trkpt lat="45.12874" lon="5.88282">
        <ele>1768.8000488281</ele>
        <time>2023-08-12T16:54:23.000Z</time>
      </trkpt>
      <trkpt lat="45.12874" lon="5.88281">
        <ele>1768</ele>
        <time>2023-08-12T16:54:26.000Z</time>
      </trkpt>
      <trkpt lat="45.12874" lon="5.88281">
        <ele>1767.5999755859</ele>
        <time>2023-08-12T16:54:27.000Z</time>
      </trkpt>
      <trkpt lat="45.12873" lon="5.88276">
        <ele>1766.4000244141</ele>
        <time>2023-08-12T16:54:32.000Z</time>
      </trkpt>
      <trkpt lat="45.12873" lon="5.88275">
        <ele>1765.8000488281</ele>
        <time>2023-08-12T16:54:34.000Z</time>
      </trkpt>
      <trkpt lat="45.12873" lon="5.88274">
        <ele>1765.4000244141</ele>
        <time>2023-08-12T16:54:36.000Z</time>
      </trkpt>
      <trkpt lat="45.12872" lon="5.88269">
        <ele>1764.1999511719</ele>
        <time>2023-08-12T16:54:41.000Z</time>
      </trkpt>
      <trkpt lat="45.12872" lon="5.88266">
        <ele>1763.4000244141</ele>
        <time>2023-08-12T16:54:44.000Z</time>
      </trkpt>
      <trkpt lat="45.12871" lon="5.88265">
        <ele>1763.1999511719</ele>
        <time>2023-08-12T16:54:45.000Z</time>
      </trkpt>
      <trkpt lat="45.12869" lon="5.8826">
        <ele>1762</ele>
        <time>2023-08-12T16:54:50.000Z</time>
      </trkpt>
      <trkpt lat="45.12867" lon="5.88257">
        <ele>1761.4000244141</ele>
        <time>2023-08-12T16:54:53.000Z</time>
      </trkpt>
      <trkpt lat="45.12866" lon="5.88256">
        <ele>1760.8000488281</ele>
        <time>2023-08-12T16:54:55.000Z</time>
      </trkpt>
      <trkpt lat="45.12866" lon="5.88256">
        <ele>1759.5999755859</ele>
        <time>2023-08-12T16:54:58.000Z</time>
      </trkpt>
      <trkpt lat="45.12866" lon="5.88255">
        <ele>1759.4000244141</ele>
        <time>2023-08-12T16:54:59.000Z</time>
      </trkpt>
      <trkpt lat="45.12865" lon="5.88253">
        <ele>1758.5999755859</ele>
        <time>2023-08-12T16:55:02.000Z</time>
      </trkpt>
      <trkpt lat="45.12863" lon="5.88249">
        <ele>1757.5999755859</ele>
        <time>2023-08-12T16:55:06.000Z</time>
      </trkpt>
      <trkpt lat="45.12863" lon="5.88247">
        <ele>1757.4000244141</ele>
        <time>2023-08-12T16:55:07.000Z</time>
      </trkpt>
      <trkpt lat="45.12861" lon="5.88244">
        <ele>1756.1999511719</ele>
        <time>2023-08-12T16:55:12.000Z</time>
      </trkpt>
      <trkpt lat="45.1286" lon="5.88243">
        <ele>1755.8000488281</ele>
        <time>2023-08-12T16:55:14.000Z</time>
      </trkpt>
      <trkpt lat="45.12859" lon="5.8824">
        <ele>1755</ele>
        <time>2023-08-12T16:55:17.000Z</time>
      </trkpt>
      <trkpt lat="45.12856" lon="5.88237">
        <ele>1754.1999511719</ele>
        <time>2023-08-12T16:55:20.000Z</time>
      </trkpt>
      <trkpt lat="45.12856" lon="5.88236">
        <ele>1754</ele>
        <time>2023-08-12T16:55:21.000Z</time>
      </trkpt>
      <trkpt lat="45.12854" lon="5.88234">
        <ele>1753</ele>
        <time>2023-08-12T16:55:24.000Z</time>
      </trkpt>
      <trkpt lat="45.12852" lon="5.88231">
        <ele>1752</ele>
        <time>2023-08-12T16:55:28.000Z</time>
      </trkpt>
      <trkpt lat="45.12851" lon="5.8823">
        <ele>1751.4000244141</ele>
        <time>2023-08-12T16:55:30.000Z</time>
      </trkpt>
      <trkpt lat="45.1285" lon="5.88228">
        <ele>1751</ele>
        <time>2023-08-12T16:55:32.000Z</time>
      </trkpt>
      <trkpt lat="45.12847" lon="5.88222">
        <ele>1749.8000488281</ele>
        <time>2023-08-12T16:55:37.000Z</time>
      </trkpt>
      <trkpt lat="45.12847" lon="5.88221">
        <ele>1749.4000244141</ele>
        <time>2023-08-12T16:55:38.000Z</time>
      </trkpt>
      <trkpt lat="45.12845" lon="5.88219">
        <ele>1748.4000244141</ele>
        <time>2023-08-12T16:55:42.000Z</time>
      </trkpt>
      <trkpt lat="45.12844" lon="5.88217">
        <ele>1748</ele>
        <time>2023-08-12T16:55:45.000Z</time>
      </trkpt>
      <trkpt lat="45.12843" lon="5.88216">
        <ele>1747.4000244141</ele>
        <time>2023-08-12T16:55:47.000Z</time>
      </trkpt>
      <trkpt lat="45.1284" lon="5.88212">
        <ele>1746.4000244141</ele>
        <time>2023-08-12T16:55:51.000Z</time>
      </trkpt>
      <trkpt lat="45.12838" lon="5.88209">
        <ele>1745.5999755859</ele>
        <time>2023-08-12T16:55:54.000Z</time>
      </trkpt>
      <trkpt lat="45.12836" lon="5.88208">
        <ele>1745.1999511719</ele>
        <time>2023-08-12T16:55:56.000Z</time>
      </trkpt>
      <trkpt lat="45.12833" lon="5.88206">
        <ele>1744.1999511719</ele>
        <time>2023-08-12T16:55:59.000Z</time>
      </trkpt>
      <trkpt lat="45.12831" lon="5.88204">
        <ele>1743.5999755859</ele>
        <time>2023-08-12T16:56:01.000Z</time>
      </trkpt>
      <trkpt lat="45.12829" lon="5.88203">
        <ele>1743.1999511719</ele>
        <time>2023-08-12T16:56:03.000Z</time>
      </trkpt>
      <trkpt lat="45.12825" lon="5.88196">
        <ele>1741.8000488281</ele>
        <time>2023-08-12T16:56:08.000Z</time>
      </trkpt>
      <trkpt lat="45.1282" lon="5.88189">
        <ele>1740.8000488281</ele>
        <time>2023-08-12T16:56:14.000Z</time>
      </trkpt>
      <trkpt lat="45.12819" lon="5.88188">
        <ele>1740.5999755859</ele>
        <time>2023-08-12T16:56:15.000Z</time>
      </trkpt>
      <trkpt lat="45.12812" lon="5.88177">
        <ele>1739.8000488281</ele>
        <time>2023-08-12T16:56:23.000Z</time>
      </trkpt>
      <trkpt lat="45.12812" lon="5.88175">
        <ele>1739.5999755859</ele>
        <time>2023-08-12T16:56:24.000Z</time>
      </trkpt>
      <trkpt lat="45.1281" lon="5.88168">
        <ele>1738.5999755859</ele>
        <time>2023-08-12T16:56:29.000Z</time>
      </trkpt>
      <trkpt lat="45.12809" lon="5.88165">
        <ele>1738</ele>
        <time>2023-08-12T16:56:32.000Z</time>
      </trkpt>
      <trkpt lat="45.12808" lon="5.88161">
        <ele>1737.5999755859</ele>
        <time>2023-08-12T16:56:36.000Z</time>
      </trkpt>
      <trkpt lat="45.12806" lon="5.88155">
        <ele>1736.8000488281</ele>
        <time>2023-08-12T16:56:41.000Z</time>
      </trkpt>
      <trkpt lat="45.12806" lon="5.88153">
        <ele>1736.5999755859</ele>
        <time>2023-08-12T16:56:42.000Z</time>
      </trkpt>
      <trkpt lat="45.12804" lon="5.88144">
        <ele>1735.1999511719</ele>
        <time>2023-08-12T16:56:48.000Z</time>
      </trkpt>
      <trkpt lat="45.12804" lon="5.88142">
        <ele>1734.8000488281</ele>
        <time>2023-08-12T16:56:50.000Z</time>
      </trkpt>
      <trkpt lat="45.12803" lon="5.88136">
        <ele>1734</ele>
        <time>2023-08-12T16:56:53.000Z</time>
      </trkpt>
      <trkpt lat="45.12802" lon="5.88133">
        <ele>1733.5999755859</ele>
        <time>2023-08-12T16:56:56.000Z</time>
      </trkpt>
      <trkpt lat="45.128" lon="5.88132">
        <ele>1733</ele>
        <time>2023-08-12T16:56:58.000Z</time>
      </trkpt>
      <trkpt lat="45.12795" lon="5.88132">
        <ele>1732.1999511719</ele>
        <time>2023-08-12T16:57:02.000Z</time>
      </trkpt>
      <trkpt lat="45.12794" lon="5.88132">
        <ele>1732</ele>
        <time>2023-08-12T16:57:03.000Z</time>
      </trkpt>
      <trkpt lat="45.1279" lon="5.88127">
        <ele>1730.8000488281</ele>
        <time>2023-08-12T16:57:08.000Z</time>
      </trkpt>
      <trkpt lat="45.1279" lon="5.88126">
        <ele>1730.5999755859</ele>
        <time>2023-08-12T16:57:09.000Z</time>
      </trkpt>
      <trkpt lat="45.12788" lon="5.88121">
        <ele>1729.8000488281</ele>
        <time>2023-08-12T16:57:12.000Z</time>
      </trkpt>
      <trkpt lat="45.12786" lon="5.88117">
        <ele>1728.5999755859</ele>
        <time>2023-08-12T16:57:16.000Z</time>
      </trkpt>
      <trkpt lat="45.12786" lon="5.88115">
        <ele>1728.4000244141</ele>
        <time>2023-08-12T16:57:17.000Z</time>
      </trkpt>
      <trkpt lat="45.12785" lon="5.88111">
        <ele>1727.5999755859</ele>
        <time>2023-08-12T16:57:20.000Z</time>
      </trkpt>
      <trkpt lat="45.12783" lon="5.88104">
        <ele>1726.4000244141</ele>
        <time>2023-08-12T16:57:24.000Z</time>
      </trkpt>
      <trkpt lat="45.12782" lon="5.881">
        <ele>1725.8000488281</ele>
        <time>2023-08-12T16:57:27.000Z</time>
      </trkpt>
      <trkpt lat="45.12782" lon="5.88097">
        <ele>1725.4000244141</ele>
        <time>2023-08-12T16:57:29.000Z</time>
      </trkpt>
      <trkpt lat="45.1278" lon="5.88094">
        <ele>1724.4000244141</ele>
        <time>2023-08-12T16:57:32.000Z</time>
      </trkpt>
      <trkpt lat="45.12777" lon="5.8809">
        <ele>1723.1999511719</ele>
        <time>2023-08-12T16:57:36.000Z</time>
      </trkpt>
      <trkpt lat="45.12773" lon="5.88086">
        <ele>1721.8000488281</ele>
        <time>2023-08-12T16:57:40.000Z</time>
      </trkpt>
      <trkpt lat="45.12771" lon="5.88082">
        <ele>1720.8000488281</ele>
        <time>2023-08-12T16:57:44.000Z</time>
      </trkpt>
      <trkpt lat="45.1277" lon="5.88081">
        <ele>1720.4000244141</ele>
        <time>2023-08-12T16:57:45.000Z</time>
      </trkpt>
      <trkpt lat="45.12767" lon="5.88076">
        <ele>1719.5999755859</ele>
        <time>2023-08-12T16:57:49.000Z</time>
      </trkpt>
      <trkpt lat="45.12765" lon="5.88073">
        <ele>1718.5999755859</ele>
        <time>2023-08-12T16:57:53.000Z</time>
      </trkpt>
      <trkpt lat="45.12765" lon="5.88072">
        <ele>1718.1999511719</ele>
        <time>2023-08-12T16:57:54.000Z</time>
      </trkpt>
      <trkpt lat="45.12762" lon="5.88069">
        <ele>1717.4000244141</ele>
        <time>2023-08-12T16:57:57.000Z</time>
      </trkpt>
      <trkpt lat="45.12759" lon="5.88064">
        <ele>1716.4000244141</ele>
        <time>2023-08-12T16:58:01.000Z</time>
      </trkpt>
      <trkpt lat="45.12755" lon="5.88057">
        <ele>1715.1999511719</ele>
        <time>2023-08-12T16:58:05.000Z</time>
      </trkpt>
      <trkpt lat="45.12752" lon="5.88052">
        <ele>1714.1999511719</ele>
        <time>2023-08-12T16:58:09.000Z</time>
      </trkpt>
      <trkpt lat="45.12749" lon="5.88044">
        <ele>1713</ele>
        <time>2023-08-12T16:58:16.000Z</time>
      </trkpt>
      <trkpt lat="45.12748" lon="5.88043">
        <ele>1712.8000488281</ele>
        <time>2023-08-12T16:58:17.000Z</time>
      </trkpt>
      <trkpt lat="45.12743" lon="5.8804">
        <ele>1711.8000488281</ele>
        <time>2023-08-12T16:58:21.000Z</time>
      </trkpt>
      <trkpt lat="45.12741" lon="5.88036">
        <ele>1710.5999755859</ele>
        <time>2023-08-12T16:58:25.000Z</time>
      </trkpt>
      <trkpt lat="45.12737" lon="5.88031">
        <ele>1709.5999755859</ele>
        <time>2023-08-12T16:58:30.000Z</time>
      </trkpt>
      <trkpt lat="45.12735" lon="5.88028">
        <ele>1709</ele>
        <time>2023-08-12T16:58:33.000Z</time>
      </trkpt>
      <trkpt lat="45.12734" lon="5.88026">
        <ele>1708.4000244141</ele>
        <time>2023-08-12T16:58:35.000Z</time>
      </trkpt>
      <trkpt lat="45.12731" lon="5.88023">
        <ele>1707.4000244141</ele>
        <time>2023-08-12T16:58:39.000Z</time>
      </trkpt>
      <trkpt lat="45.12728" lon="5.88021">
        <ele>1706.8000488281</ele>
        <time>2023-08-12T16:58:42.000Z</time>
      </trkpt>
      <trkpt lat="45.12727" lon="5.88021">
        <ele>1706.4000244141</ele>
        <time>2023-08-12T16:58:43.000Z</time>
      </trkpt>
      <trkpt lat="45.12723" lon="5.88018">
        <ele>1705.1999511719</ele>
        <time>2023-08-12T16:58:48.000Z</time>
      </trkpt>
      <trkpt lat="45.1272" lon="5.88015">
        <ele>1704.4000244141</ele>
        <time>2023-08-12T16:58:51.000Z</time>
      </trkpt>
      <trkpt lat="45.12718" lon="5.88014">
        <ele>1703.8000488281</ele>
        <time>2023-08-12T16:58:53.000Z</time>
      </trkpt>
      <trkpt lat="45.12713" lon="5.88012">
        <ele>1702.5999755859</ele>
        <time>2023-08-12T16:58:57.000Z</time>
      </trkpt>
      <trkpt lat="45.12709" lon="5.8801">
        <ele>1701.8000488281</ele>
        <time>2023-08-12T16:59:00.000Z</time>
      </trkpt>
      <trkpt lat="45.12707" lon="5.88009">
        <ele>1701.4000244141</ele>
        <time>2023-08-12T16:59:01.000Z</time>
      </trkpt>
      <trkpt lat="45.12702" lon="5.88006">
        <ele>1700.1999511719</ele>
        <time>2023-08-12T16:59:05.000Z</time>
      </trkpt>
      <trkpt lat="45.12701" lon="5.88005">
        <ele>1700</ele>
        <time>2023-08-12T16:59:06.000Z</time>
      </trkpt>
      <trkpt lat="45.12699" lon="5.88002">
        <ele>1699.1999511719</ele>
        <time>2023-08-12T16:59:09.000Z</time>
      </trkpt>
      <trkpt lat="45.12695" lon="5.87997">
        <ele>1698</ele>
        <time>2023-08-12T16:59:15.000Z</time>
      </trkpt>
      <trkpt lat="45.12694" lon="5.87996">
        <ele>1697.8000488281</ele>
        <time>2023-08-12T16:59:16.000Z</time>
      </trkpt>
      <trkpt lat="45.1269" lon="5.87991">
        <ele>1696.8000488281</ele>
        <time>2023-08-12T16:59:20.000Z</time>
      </trkpt>
      <trkpt lat="45.12687" lon="5.87989">
        <ele>1695.8000488281</ele>
        <time>2023-08-12T16:59:23.000Z</time>
      </trkpt>
      <trkpt lat="45.12686" lon="5.87988">
        <ele>1695.4000244141</ele>
        <time>2023-08-12T16:59:24.000Z</time>
      </trkpt>
      <trkpt lat="45.12683" lon="5.87986">
        <ele>1694.8000488281</ele>
        <time>2023-08-12T16:59:27.000Z</time>
      </trkpt>
      <trkpt lat="45.12678" lon="5.87985">
        <ele>1693.5999755859</ele>
        <time>2023-08-12T16:59:31.000Z</time>
      </trkpt>
      <trkpt lat="45.12677" lon="5.87986">
        <ele>1693</ele>
        <time>2023-08-12T16:59:33.000Z</time>
      </trkpt>
      <trkpt lat="45.12676" lon="5.87988">
        <ele>1692.5999755859</ele>
        <time>2023-08-12T16:59:35.000Z</time>
      </trkpt>
      <trkpt lat="45.12672" lon="5.87995">
        <ele>1691.5999755859</ele>
        <time>2023-08-12T16:59:40.000Z</time>
      </trkpt>
      <trkpt lat="45.12668" lon="5.87997">
        <ele>1690.1999511719</ele>
        <time>2023-08-12T16:59:44.000Z</time>
      </trkpt>
      <trkpt lat="45.12665" lon="5.87996">
        <ele>1689.4000244141</ele>
        <time>2023-08-12T16:59:47.000Z</time>
      </trkpt>
      <trkpt lat="45.12664" lon="5.87996">
        <ele>1689</ele>
        <time>2023-08-12T16:59:49.000Z</time>
      </trkpt>
      <trkpt lat="45.1266" lon="5.87995">
        <ele>1688</ele>
        <time>2023-08-12T16:59:53.000Z</time>
      </trkpt>
      <trkpt lat="45.12656" lon="5.87993">
        <ele>1687</ele>
        <time>2023-08-12T16:59:56.000Z</time>
      </trkpt>
      <trkpt lat="45.12655" lon="5.87992">
        <ele>1686.8000488281</ele>
        <time>2023-08-12T16:59:57.000Z</time>
      </trkpt>
      <trkpt lat="45.12651" lon="5.87988">
        <ele>1685.5999755859</ele>
        <time>2023-08-12T17:00:01.000Z</time>
      </trkpt>
      <trkpt lat="45.1265" lon="5.87987">
        <ele>1685</ele>
        <time>2023-08-12T17:00:03.000Z</time>
      </trkpt>
      <trkpt lat="45.12649" lon="5.87987">
        <ele>1684.5999755859</ele>
        <time>2023-08-12T17:00:05.000Z</time>
      </trkpt>
      <trkpt lat="45.12644" lon="5.87983">
        <ele>1683.4000244141</ele>
        <time>2023-08-12T17:00:09.000Z</time>
      </trkpt>
      <trkpt lat="45.12641" lon="5.8798">
        <ele>1682.1999511719</ele>
        <time>2023-08-12T17:00:12.000Z</time>
      </trkpt>
      <trkpt lat="45.12638" lon="5.87975">
        <ele>1681.1999511719</ele>
        <time>2023-08-12T17:00:16.000Z</time>
      </trkpt>
      <trkpt lat="45.12637" lon="5.87974">
        <ele>1681.1999511719</ele>
        <time>2023-08-12T17:00:17.000Z</time>
      </trkpt>
      <trkpt lat="45.12635" lon="5.87968">
        <ele>1680.5999755859</ele>
        <time>2023-08-12T17:00:22.000Z</time>
      </trkpt>
      <trkpt lat="45.12631" lon="5.87958">
        <ele>1680</ele>
        <time>2023-08-12T17:00:28.000Z</time>
      </trkpt>
      <trkpt lat="45.12628" lon="5.87955">
        <ele>1679.8000488281</ele>
        <time>2023-08-12T17:00:31.000Z</time>
      </trkpt>
      <trkpt lat="45.12626" lon="5.87941">
        <ele>1679</ele>
        <time>2023-08-12T17:00:39.000Z</time>
      </trkpt>
      <trkpt lat="45.12626" lon="5.87939">
        <ele>1678.8000488281</ele>
        <time>2023-08-12T17:00:40.000Z</time>
      </trkpt>
      <trkpt lat="45.12627" lon="5.87926">
        <ele>1678</ele>
        <time>2023-08-12T17:00:47.000Z</time>
      </trkpt>
      <trkpt lat="45.12627" lon="5.87918">
        <ele>1678</ele>
        <time>2023-08-12T17:00:52.000Z</time>
      </trkpt>
    </trkseg>
  </trk>
</gpx>